<?xml version='1.0' encoding='UTF-8'?><gpx version="1.1" creator="JPX - https://github.com/jenetics/jpx" xmlns="http://www.topografix.com/GPX/1/1"><trk><trkseg><trkpt lat="43.79157530722283" lon="11.213424111873351"><ele>42.0</ele><time>2026-04-26T14:05:52Z</time></trkpt><trkpt lat="43.791641372219566" lon="11.213456852727488"><ele>42.0</ele><time>2026-04-26T14:05:53Z</time></trkpt><trkpt lat="43.79170305772724" lon="11.213550261463325"><ele>42.0</ele><time>2026-04-26T14:05:54Z</time></trkpt><trkpt lat="43.79178417801468" lon="11.213600235048169"><ele>42.0</ele><time>2026-04-26T14:05:55Z</time></trkpt><trkpt lat="43.79185610084293" lon="11.213643780160032"><ele>42.0</ele><time>2026-04-26T14:05:56Z</time></trkpt><trkpt lat="43.7919392164869" lon="11.213688918150778"><ele>42.0</ele><time>2026-04-26T14:05:57Z</time></trkpt><trkpt lat="43.792019210513" lon="11.213730115039935"><ele>42.8</ele><time>2026-04-26T14:05:58Z</time></trkpt><trkpt lat="43.79210942728175" lon="11.213759542859554"><ele>43.6</ele><time>2026-04-26T14:05:59Z</time></trkpt><trkpt lat="43.79219538775712" lon="11.213807249532824"><ele>44.4</ele><time>2026-04-26T14:06:00Z</time></trkpt><trkpt lat="43.79229505139484" lon="11.21386899761239"><ele>45.199999999999996</ele><time>2026-04-26T14:06:01Z</time></trkpt><trkpt lat="43.792379001575746" lon="11.213915413774249"><ele>46.0</ele><time>2026-04-26T14:06:02Z</time></trkpt><trkpt lat="43.7924604754772" lon="11.213962249791113"><ele>45.8</ele><time>2026-04-26T14:06:03Z</time></trkpt><trkpt lat="43.792523727122145" lon="11.21399809663572"><ele>45.599999999999994</ele><time>2026-04-26T14:06:04Z</time></trkpt><trkpt lat="43.79261661725424" lon="11.214074101365512"><ele>45.4</ele><time>2026-04-26T14:06:06Z</time></trkpt><trkpt lat="43.79276049511076" lon="11.214153474306126"><ele>45.2</ele><time>2026-04-26T14:06:21Z</time></trkpt><trkpt lat="43.79274492021396" lon="11.214284948573964"><ele>45.0</ele><time>2026-04-26T14:06:22Z</time></trkpt><trkpt lat="43.79271316476412" lon="11.214394003335629"><ele>45.0</ele><time>2026-04-26T14:06:23Z</time></trkpt><trkpt lat="43.792685798977715" lon="11.21450126176668"><ele>45.0</ele><time>2026-04-26T14:06:24Z</time></trkpt><trkpt lat="43.792657503076576" lon="11.214589743944314"><ele>45.0</ele><time>2026-04-26T14:06:25Z</time></trkpt><trkpt lat="43.79260338596533" lon="11.214713207831549"><ele>45.0</ele><time>2026-04-26T14:06:27Z</time></trkpt><trkpt lat="43.792593141370176" lon="11.21481034732705"><ele>45.0</ele><time>2026-04-26T14:06:50Z</time></trkpt><trkpt lat="43.792536267438166" lon="11.214985110808733"><ele>44.6</ele><time>2026-04-26T14:06:52Z</time></trkpt><trkpt lat="43.792507026154404" lon="11.215093367407354"><ele>44.2</ele><time>2026-04-26T14:06:53Z</time></trkpt><trkpt lat="43.79247380045599" lon="11.215212165293469"><ele>43.8</ele><time>2026-04-26T14:06:54Z</time></trkpt><trkpt lat="43.79243453845118" lon="11.215341118044067"><ele>43.4</ele><time>2026-04-26T14:06:55Z</time></trkpt><trkpt lat="43.792405113118015" lon="11.215475036963516"><ele>43.0</ele><time>2026-04-26T14:06:56Z</time></trkpt><trkpt lat="43.7923591574841" lon="11.21560394125911"><ele>43.2</ele><time>2026-04-26T14:06:57Z</time></trkpt><trkpt lat="43.79231291889159" lon="11.215738799270401"><ele>43.4</ele><time>2026-04-26T14:06:58Z</time></trkpt><trkpt lat="43.79226271203219" lon="11.215868917635833"><ele>43.6</ele><time>2026-04-26T14:06:59Z</time></trkpt><trkpt lat="43.792217957026985" lon="11.216004034964035"><ele>43.800000000000004</ele><time>2026-04-26T14:07:00Z</time></trkpt><trkpt lat="43.79217630231593" lon="11.216138512081235"><ele>44.0</ele><time>2026-04-26T14:07:01Z</time></trkpt><trkpt lat="43.79213084970252" lon="11.216284496465587"><ele>44.0</ele><time>2026-04-26T14:07:02Z</time></trkpt><trkpt lat="43.79208674236193" lon="11.216427232797027"><ele>44.0</ele><time>2026-04-26T14:07:03Z</time></trkpt><trkpt lat="43.79204338502463" lon="11.216571161302193"><ele>44.0</ele><time>2026-04-26T14:07:04Z</time></trkpt><trkpt lat="43.792001605789636" lon="11.216725279569825"><ele>44.0</ele><time>2026-04-26T14:07:05Z</time></trkpt><trkpt lat="43.79195393880503" lon="11.21687850559523"><ele>43.800000000000004</ele><time>2026-04-26T14:07:06Z</time></trkpt><trkpt lat="43.79191148327119" lon="11.217023140428925"><ele>43.6</ele><time>2026-04-26T14:07:07Z</time></trkpt><trkpt lat="43.79187651860034" lon="11.217153246576727"><ele>43.4</ele><time>2026-04-26T14:07:08Z</time></trkpt><trkpt lat="43.79184035773234" lon="11.2172765890944"><ele>43.2</ele><time>2026-04-26T14:07:09Z</time></trkpt><trkpt lat="43.7918038517735" lon="11.217385881377917"><ele>43.0</ele><time>2026-04-26T14:07:10Z</time></trkpt><trkpt lat="43.79177872122814" lon="11.217496051398486"><ele>43.0</ele><time>2026-04-26T14:07:11Z</time></trkpt><trkpt lat="43.791747202701565" lon="11.21757842457125"><ele>43.0</ele><time>2026-04-26T14:07:12Z</time></trkpt><trkpt lat="43.791719843529854" lon="11.217660376034498"><ele>43.0</ele><time>2026-04-26T14:07:14Z</time></trkpt><trkpt lat="43.79168186947993" lon="11.217811061544994"><ele>43.0</ele><time>2026-04-26T14:07:16Z</time></trkpt><trkpt lat="43.791650450782555" lon="11.217930107329062"><ele>43.0</ele><time>2026-04-26T14:07:17Z</time></trkpt><trkpt lat="43.791618014130286" lon="11.218046043163415"><ele>43.0</ele><time>2026-04-26T14:07:18Z</time></trkpt><trkpt lat="43.791577198836094" lon="11.218167869664605"><ele>43.0</ele><time>2026-04-26T14:07:19Z</time></trkpt><trkpt lat="43.791538047256836" lon="11.218290359795386"><ele>43.0</ele><time>2026-04-26T14:07:20Z</time></trkpt><trkpt lat="43.791506218894924" lon="11.218411550493412"><ele>43.0</ele><time>2026-04-26T14:07:21Z</time></trkpt><trkpt lat="43.79147221978464" lon="11.218522255295957"><ele>43.0</ele><time>2026-04-26T14:07:22Z</time></trkpt><trkpt lat="43.791438504996535" lon="11.21863858056404"><ele>43.0</ele><time>2026-04-26T14:07:23Z</time></trkpt><trkpt lat="43.791405309123114" lon="11.218749266322433"><ele>43.0</ele><time>2026-04-26T14:07:24Z</time></trkpt><trkpt lat="43.79137904883084" lon="11.218857410785711"><ele>43.0</ele><time>2026-04-26T14:07:25Z</time></trkpt><trkpt lat="43.791347521621226" lon="11.218970206233703"><ele>43.0</ele><time>2026-04-26T14:07:26Z</time></trkpt><trkpt lat="43.7913128093586" lon="11.219076994009747"><ele>43.0</ele><time>2026-04-26T14:07:27Z</time></trkpt><trkpt lat="43.791290598901135" lon="11.21918242424122"><ele>43.0</ele><time>2026-04-26T14:07:28Z</time></trkpt><trkpt lat="43.79125177152293" lon="11.219278488477737"><ele>43.0</ele><time>2026-04-26T14:07:29Z</time></trkpt><trkpt lat="43.79121658422189" lon="11.219372409981057"><ele>43.28571428571429</ele><time>2026-04-26T14:07:30Z</time></trkpt><trkpt lat="43.791183140874764" lon="11.21945871863672"><ele>43.57142857142857</ele><time>2026-04-26T14:07:31Z</time></trkpt><trkpt lat="43.791161903300534" lon="11.21956302218633"><ele>43.85714285714286</ele><time>2026-04-26T14:07:32Z</time></trkpt><trkpt lat="43.79114192957729" lon="11.219662077212519"><ele>44.142857142857146</ele><time>2026-04-26T14:07:33Z</time></trkpt><trkpt lat="43.791122958279416" lon="11.219762074610706"><ele>44.42857142857143</ele><time>2026-04-26T14:07:34Z</time></trkpt><trkpt lat="43.79108462854961" lon="11.219856633395185"><ele>44.714285714285715</ele><time>2026-04-26T14:07:35Z</time></trkpt><trkpt lat="43.79105996899233" lon="11.219947536243987"><ele>45.0</ele><time>2026-04-26T14:07:36Z</time></trkpt><trkpt lat="43.791029199105544" lon="11.220059188754853"><ele>45.0</ele><time>2026-04-26T14:07:37Z</time></trkpt><trkpt lat="43.79100937811764" lon="11.220145944828488"><ele>45.0</ele><time>2026-04-26T14:07:38Z</time></trkpt><trkpt lat="43.79099707052737" lon="11.220234749461293"><ele>45.0</ele><time>2026-04-26T14:07:39Z</time></trkpt><trkpt lat="43.79096246609696" lon="11.220326223115064"><ele>45.0</ele><time>2026-04-26T14:07:40Z</time></trkpt><trkpt lat="43.790914759410185" lon="11.220476311722127"><ele>45.0</ele><time>2026-04-26T14:07:42Z</time></trkpt><trkpt lat="43.79088407391433" lon="11.2205675283948"><ele>45.0</ele><time>2026-04-26T14:07:43Z</time></trkpt><trkpt lat="43.79086136718682" lon="11.220656359219035"><ele>45.0</ele><time>2026-04-26T14:07:44Z</time></trkpt><trkpt lat="43.79084220622381" lon="11.22076604681711"><ele>45.0</ele><time>2026-04-26T14:07:45Z</time></trkpt><trkpt lat="43.790816422506595" lon="11.220861966976344"><ele>45.0</ele><time>2026-04-26T14:07:46Z</time></trkpt><trkpt lat="43.79077010367609" lon="11.220961986192737"><ele>45.0</ele><time>2026-04-26T14:07:47Z</time></trkpt><trkpt lat="43.790735049209275" lon="11.221062992153936"><ele>45.0</ele><time>2026-04-26T14:07:48Z</time></trkpt><trkpt lat="43.790696022210426" lon="11.221163286972542"><ele>45.0</ele><time>2026-04-26T14:07:49Z</time></trkpt><trkpt lat="43.7906819296506" lon="11.22127194501876"><ele>45.0</ele><time>2026-04-26T14:07:50Z</time></trkpt><trkpt lat="43.790633279894564" lon="11.221371093667196"><ele>45.0</ele><time>2026-04-26T14:07:51Z</time></trkpt><trkpt lat="43.790600954084574" lon="11.22146430419523"><ele>45.0</ele><time>2026-04-26T14:07:52Z</time></trkpt><trkpt lat="43.79054241495272" lon="11.221589049660087"><ele>45.0</ele><time>2026-04-26T14:07:53Z</time></trkpt><trkpt lat="43.79051187633564" lon="11.221705232154907"><ele>45.0</ele><time>2026-04-26T14:07:54Z</time></trkpt><trkpt lat="43.79047730064756" lon="11.221839421303208"><ele>45.166666666666664</ele><time>2026-04-26T14:07:55Z</time></trkpt><trkpt lat="43.790459903879096" lon="11.221940405268853"><ele>45.333333333333336</ele><time>2026-04-26T14:07:56Z</time></trkpt><trkpt lat="43.790419542003306" lon="11.222049175842606"><ele>45.5</ele><time>2026-04-26T14:07:57Z</time></trkpt><trkpt lat="43.7903728235085" lon="11.222149230665082"><ele>45.66666666666667</ele><time>2026-04-26T14:07:58Z</time></trkpt><trkpt lat="43.79033215429147" lon="11.22225311960204"><ele>45.833333333333336</ele><time>2026-04-26T14:07:59Z</time></trkpt><trkpt lat="43.790290431718205" lon="11.222364656510207"><ele>46.0</ele><time>2026-04-26T14:08:00Z</time></trkpt><trkpt lat="43.790251117684576" lon="11.222471689838912"><ele>45.66666666666667</ele><time>2026-04-26T14:08:01Z</time></trkpt><trkpt lat="43.79023383762888" lon="11.222579205302678"><ele>45.333333333333336</ele><time>2026-04-26T14:08:02Z</time></trkpt><trkpt lat="43.79018871521463" lon="11.222683617315754"><ele>45.0</ele><time>2026-04-26T14:08:03Z</time></trkpt><trkpt lat="43.790148128731346" lon="11.222789500188211"><ele>44.666666666666664</ele><time>2026-04-26T14:08:04Z</time></trkpt><trkpt lat="43.79009933151842" lon="11.222875718599276"><ele>44.33333333333333</ele><time>2026-04-26T14:08:05.001Z</time></trkpt><trkpt lat="43.790049686582236" lon="11.222982425888507"><ele>44.0</ele><time>2026-04-26T14:08:06.001Z</time></trkpt><trkpt lat="43.78999745200091" lon="11.223086852722696"><ele>44.0</ele><time>2026-04-26T14:08:07.001Z</time></trkpt><trkpt lat="43.78993411188222" lon="11.22318632747525"><ele>44.0</ele><time>2026-04-26T14:08:08.001Z</time></trkpt><trkpt lat="43.78985943522833" lon="11.223275667839616"><ele>44.0</ele><time>2026-04-26T14:08:09.001Z</time></trkpt><trkpt lat="43.789781009451275" lon="11.223368904663754"><ele>44.0</ele><time>2026-04-26T14:08:10.001Z</time></trkpt><trkpt lat="43.78967819817946" lon="11.223446906337726"><ele>44.0</ele><time>2026-04-26T14:08:11.001Z</time></trkpt><trkpt lat="43.78958834358073" lon="11.223536770384763"><ele>44.0</ele><time>2026-04-26T14:08:12.001Z</time></trkpt><trkpt lat="43.78949055087223" lon="11.223622127667786"><ele>44.0</ele><time>2026-04-26T14:08:13.001Z</time></trkpt><trkpt lat="43.789388985031906" lon="11.223711471740131"><ele>44.0</ele><time>2026-04-26T14:08:14.001Z</time></trkpt><trkpt lat="43.789289127849614" lon="11.223784671173977"><ele>44.0</ele><time>2026-04-26T14:08:15.001Z</time></trkpt><trkpt lat="43.789171441370826" lon="11.223853960847327"><ele>44.0</ele><time>2026-04-26T14:08:16.001Z</time></trkpt><trkpt lat="43.7890949999432" lon="11.223923837243387"><ele>44.0</ele><time>2026-04-26T14:08:17.001Z</time></trkpt><trkpt lat="43.7890329065876" lon="11.223975017185593"><ele>44.0</ele><time>2026-04-26T14:08:18.001Z</time></trkpt><trkpt lat="43.78896955122809" lon="11.224003428763382"><ele>44.0</ele><time>2026-04-26T14:08:20.001Z</time></trkpt><trkpt lat="43.78892950707243" lon="11.224091417308689"><ele>44.0</ele><time>2026-04-26T14:08:51Z</time></trkpt><trkpt lat="43.78881585866957" lon="11.224189648689396"><ele>44.0</ele><time>2026-04-26T14:08:53Z</time></trkpt><trkpt lat="43.788742688272706" lon="11.224242869516683"><ele>44.0</ele><time>2026-04-26T14:08:54Z</time></trkpt><trkpt lat="43.78867134663524" lon="11.22431219168698"><ele>44.0</ele><time>2026-04-26T14:08:55Z</time></trkpt><trkpt lat="43.78857933673282" lon="11.224366727771727"><ele>44.0</ele><time>2026-04-26T14:08:56Z</time></trkpt><trkpt lat="43.788479029798125" lon="11.22442443495416"><ele>44.0</ele><time>2026-04-26T14:08:57Z</time></trkpt><trkpt lat="43.78838557982088" lon="11.22448085691352"><ele>44.0</ele><time>2026-04-26T14:08:58Z</time></trkpt><trkpt lat="43.788290107271706" lon="11.22454430143346"><ele>44.75</ele><time>2026-04-26T14:08:59Z</time></trkpt><trkpt lat="43.788190025940196" lon="11.224627063766736"><ele>45.5</ele><time>2026-04-26T14:09:00Z</time></trkpt><trkpt lat="43.78810650692331" lon="11.224745506002057"><ele>46.25</ele><time>2026-04-26T14:09:01Z</time></trkpt><trkpt lat="43.78801034478967" lon="11.224858034200395"><ele>47.0</ele><time>2026-04-26T14:09:02Z</time></trkpt><trkpt lat="43.78791232671678" lon="11.224961164134761"><ele>47.0</ele><time>2026-04-26T14:09:03Z</time></trkpt><trkpt lat="43.78781223709228" lon="11.225063218064586"><ele>47.0</ele><time>2026-04-26T14:09:04Z</time></trkpt><trkpt lat="43.787715892657275" lon="11.225166142801358"><ele>47.0</ele><time>2026-04-26T14:09:05Z</time></trkpt><trkpt lat="43.78761221649954" lon="11.225260208117136"><ele>47.0</ele><time>2026-04-26T14:09:06Z</time></trkpt><trkpt lat="43.787526677399" lon="11.22535375791168"><ele>47.0</ele><time>2026-04-26T14:09:07Z</time></trkpt><trkpt lat="43.787450697105214" lon="11.225452898234913"><ele>47.0</ele><time>2026-04-26T14:09:08Z</time></trkpt><trkpt lat="43.78738860452712" lon="11.22557658255564"><ele>47.0</ele><time>2026-04-26T14:09:09Z</time></trkpt><trkpt lat="43.78731012860318" lon="11.22570705973297"><ele>47.0</ele><time>2026-04-26T14:09:10Z</time></trkpt><trkpt lat="43.787250879820576" lon="11.225831722196151"><ele>47.0</ele><time>2026-04-26T14:09:11Z</time></trkpt><trkpt lat="43.78717855272773" lon="11.22595220170754"><ele>47.0</ele><time>2026-04-26T14:09:12Z</time></trkpt><trkpt lat="43.787133088669584" lon="11.226023063823362"><ele>47.0</ele><time>2026-04-26T14:09:13Z</time></trkpt><trkpt lat="43.78706310229836" lon="11.226149004993188"><ele>47.0</ele><time>2026-04-26T14:09:14Z</time></trkpt><trkpt lat="43.787017680250194" lon="11.22624372928561"><ele>47.0</ele><time>2026-04-26T14:09:15Z</time></trkpt><trkpt lat="43.78696699675894" lon="11.226320266853541"><ele>47.0</ele><time>2026-04-26T14:09:16Z</time></trkpt><trkpt lat="43.786922660419926" lon="11.22639574312418"><ele>47.0</ele><time>2026-04-26T14:09:17Z</time></trkpt><trkpt lat="43.78686061258897" lon="11.226487875434678"><ele>47.166666666666664</ele><time>2026-04-26T14:09:19Z</time></trkpt><trkpt lat="43.78680820835125" lon="11.22656796422439"><ele>47.33333333333333</ele><time>2026-04-26T14:09:21Z</time></trkpt><trkpt lat="43.78678800022163" lon="11.226652665319698"><ele>47.5</ele><time>2026-04-26T14:09:31Z</time></trkpt><trkpt lat="43.78673305481032" lon="11.226743521436982"><ele>47.666666666666664</ele><time>2026-04-26T14:09:34Z</time></trkpt><trkpt lat="43.786695849972126" lon="11.226814430434546"><ele>47.833333333333336</ele><time>2026-04-26T14:09:36Z</time></trkpt><trkpt lat="43.78663043179686" lon="11.226852923609426"><ele>48.0</ele><time>2026-04-26T14:09:39Z</time></trkpt><trkpt lat="43.78654162216058" lon="11.226781457924387"><ele>48.0</ele><time>2026-04-26T14:09:41Z</time></trkpt><trkpt lat="43.78645592706466" lon="11.226642566694592"><ele>48.0</ele><time>2026-04-26T14:09:43Z</time></trkpt><trkpt lat="43.78636963457054" lon="11.226526416444415"><ele>48.0</ele><time>2026-04-26T14:09:45Z</time></trkpt><trkpt lat="43.786213985795406" lon="11.226572945123877"><ele>48.0</ele><time>2026-04-26T14:09:47Z</time></trkpt><trkpt lat="43.786138680792725" lon="11.226690576004197"><ele>48.0</ele><time>2026-04-26T14:09:49Z</time></trkpt><trkpt lat="43.786114934077034" lon="11.226833389019198"><ele>48.0</ele><time>2026-04-26T14:09:51Z</time></trkpt><trkpt lat="43.78610738015125" lon="11.226931380213552"><ele>48.0</ele><time>2026-04-26T14:09:52Z</time></trkpt><trkpt lat="43.78608990520204" lon="11.227107214171474"><ele>48.0</ele><time>2026-04-26T14:09:54Z</time></trkpt><trkpt lat="43.78607261278669" lon="11.22720397308745"><ele>48.0</ele><time>2026-04-26T14:09:55Z</time></trkpt><trkpt lat="43.78606033038021" lon="11.227296167225562"><ele>48.0</ele><time>2026-04-26T14:09:56Z</time></trkpt><trkpt lat="43.786045701389185" lon="11.227404512294784"><ele>47.833333333333336</ele><time>2026-04-26T14:09:57Z</time></trkpt><trkpt lat="43.78601987839356" lon="11.227498942507394"><ele>47.666666666666664</ele><time>2026-04-26T14:09:58Z</time></trkpt><trkpt lat="43.785995223763805" lon="11.227601408246409"><ele>47.5</ele><time>2026-04-26T14:09:59.001Z</time></trkpt><trkpt lat="43.78593463206685" lon="11.227687075986033"><ele>47.33333333333333</ele><time>2026-04-26T14:10:00.001Z</time></trkpt><trkpt lat="43.78588761308201" lon="11.227764393317383"><ele>47.166666666666664</ele><time>2026-04-26T14:10:01.001Z</time></trkpt><trkpt lat="43.78583532258766" lon="11.227850607728172"><ele>47.0</ele><time>2026-04-26T14:10:02.001Z</time></trkpt><trkpt lat="43.7857865530163" lon="11.227951545130086"><ele>47.0</ele><time>2026-04-26T14:10:03.001Z</time></trkpt><trkpt lat="43.78574780312963" lon="11.22805348582279"><ele>47.0</ele><time>2026-04-26T14:10:04.001Z</time></trkpt><trkpt lat="43.78569835594327" lon="11.228156157965657"><ele>47.0</ele><time>2026-04-26T14:10:05.001Z</time></trkpt><trkpt lat="43.78563841701561" lon="11.228243684797526"><ele>47.0</ele><time>2026-04-26T14:10:06.001Z</time></trkpt><trkpt lat="43.78560010653685" lon="11.228338256712975"><ele>47.0</ele><time>2026-04-26T14:10:07.001Z</time></trkpt><trkpt lat="43.78558902815899" lon="11.228515329172906"><ele>47.0</ele><time>2026-04-26T14:10:09.001Z</time></trkpt><trkpt lat="43.78559808158888" lon="11.228604203699717"><ele>47.0</ele><time>2026-04-26T14:10:10.001Z</time></trkpt><trkpt lat="43.785641208908245" lon="11.228687831743892"><ele>47.0</ele><time>2026-04-26T14:10:11.001Z</time></trkpt><trkpt lat="43.785635406719585" lon="11.228781256469592"><ele>47.0</ele><time>2026-04-26T14:10:12.001Z</time></trkpt><trkpt lat="43.785657256075716" lon="11.228869560902218"><ele>47.0</ele><time>2026-04-26T14:10:13.001Z</time></trkpt><trkpt lat="43.785583017604644" lon="11.228962421482548"><ele>47.0</ele><time>2026-04-26T14:10:14.001Z</time></trkpt><trkpt lat="43.78553487467396" lon="11.229084791301252"><ele>47.0</ele><time>2026-04-26T14:10:15.001Z</time></trkpt><trkpt lat="43.78546297579846" lon="11.22919491491664"><ele>47.0</ele><time>2026-04-26T14:10:16.001Z</time></trkpt><trkpt lat="43.78540494498167" lon="11.229294828359016"><ele>47.0</ele><time>2026-04-26T14:10:17.001Z</time></trkpt><trkpt lat="43.78536677206374" lon="11.229427430583979"><ele>47.0</ele><time>2026-04-26T14:10:18.001Z</time></trkpt><trkpt lat="43.785317061277844" lon="11.229549581953862"><ele>47.0</ele><time>2026-04-26T14:10:19.001Z</time></trkpt><trkpt lat="43.78527621634754" lon="11.229676806252868"><ele>47.0</ele><time>2026-04-26T14:10:20.001Z</time></trkpt><trkpt lat="43.785226845870355" lon="11.229804601730487"><ele>47.0</ele><time>2026-04-26T14:10:21.001Z</time></trkpt><trkpt lat="43.78518322607177" lon="11.229924507463618"><ele>47.0</ele><time>2026-04-26T14:10:22.001Z</time></trkpt><trkpt lat="43.78513283642694" lon="11.230034969040823"><ele>47.0</ele><time>2026-04-26T14:10:23.001Z</time></trkpt><trkpt lat="43.785087206205816" lon="11.230142571269102"><ele>47.0</ele><time>2026-04-26T14:10:24.001Z</time></trkpt><trkpt lat="43.78504393459004" lon="11.230246391936562"><ele>46.83333333333333</ele><time>2026-04-26T14:10:25.001Z</time></trkpt><trkpt lat="43.78499647828129" lon="11.230352901204752"><ele>46.666666666666664</ele><time>2026-04-26T14:10:26.001Z</time></trkpt><trkpt lat="43.78495142074493" lon="11.23044449509709"><ele>46.5</ele><time>2026-04-26T14:10:27.001Z</time></trkpt><trkpt lat="43.784897403140256" lon="11.230538524087113"><ele>46.333333333333336</ele><time>2026-04-26T14:10:28.001Z</time></trkpt><trkpt lat="43.7848496151146" lon="11.230629834513099"><ele>46.16666666666667</ele><time>2026-04-26T14:10:29.001Z</time></trkpt><trkpt lat="43.78479929751898" lon="11.230708192672894"><ele>46.0</ele><time>2026-04-26T14:10:30.001Z</time></trkpt><trkpt lat="43.78473885610868" lon="11.230787401762852"><ele>46.0</ele><time>2026-04-26T14:10:31.001Z</time></trkpt><trkpt lat="43.78468270701454" lon="11.230865252332107"><ele>46.0</ele><time>2026-04-26T14:10:32.001Z</time></trkpt><trkpt lat="43.784635259582586" lon="11.230950240433602"><ele>46.0</ele><time>2026-04-26T14:10:33.001Z</time></trkpt><trkpt lat="43.784571323141186" lon="11.231073501326406"><ele>46.0</ele><time>2026-04-26T14:10:35.001Z</time></trkpt><trkpt lat="43.78451737997606" lon="11.231159142038589"><ele>46.0</ele><time>2026-04-26T14:10:38.001Z</time></trkpt><trkpt lat="43.78447601041923" lon="11.231246523456777"><ele>46.0</ele><time>2026-04-26T14:10:46.001Z</time></trkpt><trkpt lat="43.78443315352795" lon="11.231322853541457"><ele>46.0</ele><time>2026-04-26T14:10:47.001Z</time></trkpt><trkpt lat="43.78438242177302" lon="11.23139904898897"><ele>46.0</ele><time>2026-04-26T14:10:48.001Z</time></trkpt><trkpt lat="43.78433027118547" lon="11.231488325691963"><ele>46.0</ele><time>2026-04-26T14:10:49.001Z</time></trkpt><trkpt lat="43.7842617107406" lon="11.231585606108668"><ele>46.0</ele><time>2026-04-26T14:10:50.001Z</time></trkpt><trkpt lat="43.78420304313248" lon="11.231680799270872"><ele>46.0</ele><time>2026-04-26T14:10:51.001Z</time></trkpt><trkpt lat="43.784148940459865" lon="11.231776095389009"><ele>46.0</ele><time>2026-04-26T14:10:52.001Z</time></trkpt><trkpt lat="43.784090359372144" lon="11.231863716018555"><ele>46.0</ele><time>2026-04-26T14:10:53.001Z</time></trkpt><trkpt lat="43.784040346125536" lon="11.231925394420823"><ele>46.0</ele><time>2026-04-26T14:10:54.001Z</time></trkpt><trkpt lat="43.78398694923536" lon="11.23198686138657"><ele>46.0</ele><time>2026-04-26T14:10:55.001Z</time></trkpt><trkpt lat="43.78395839488053" lon="11.23206809090021"><ele>46.0</ele><time>2026-04-26T14:10:57.001Z</time></trkpt><trkpt lat="43.78391784252339" lon="11.232156701027574"><ele>46.0</ele><time>2026-04-26T14:11:02.001Z</time></trkpt><trkpt lat="43.78386553994734" lon="11.232258994768795"><ele>46.0</ele><time>2026-04-26T14:11:03Z</time></trkpt><trkpt lat="43.783806559985536" lon="11.232363440115098"><ele>45.75</ele><time>2026-04-26T14:11:04Z</time></trkpt><trkpt lat="43.78373932791584" lon="11.232468725231362"><ele>45.5</ele><time>2026-04-26T14:11:05Z</time></trkpt><trkpt lat="43.783672710813015" lon="11.23259584100649"><ele>45.25</ele><time>2026-04-26T14:11:06Z</time></trkpt><trkpt lat="43.78359451283352" lon="11.232724554054002"><ele>45.0</ele><time>2026-04-26T14:11:07Z</time></trkpt><trkpt lat="43.7835140303176" lon="11.232856976753657"><ele>45.0</ele><time>2026-04-26T14:11:08Z</time></trkpt><trkpt lat="43.783440476105014" lon="11.233009814543943"><ele>45.0</ele><time>2026-04-26T14:11:09Z</time></trkpt><trkpt lat="43.78335756933736" lon="11.233159083124981"><ele>45.0</ele><time>2026-04-26T14:11:10Z</time></trkpt><trkpt lat="43.783263118591606" lon="11.233314337728624"><ele>45.0</ele><time>2026-04-26T14:11:11Z</time></trkpt><trkpt lat="43.78316599710601" lon="11.233468326438985"><ele>45.0</ele><time>2026-04-26T14:11:12Z</time></trkpt><trkpt lat="43.78308007204311" lon="11.233627096514777"><ele>45.0</ele><time>2026-04-26T14:11:13Z</time></trkpt><trkpt lat="43.78298810922001" lon="11.233777706626912"><ele>45.0</ele><time>2026-04-26T14:11:14Z</time></trkpt><trkpt lat="43.78289984200307" lon="11.233938213768242"><ele>45.0</ele><time>2026-04-26T14:11:15Z</time></trkpt><trkpt lat="43.78281960019222" lon="11.234102002860507"><ele>45.25</ele><time>2026-04-26T14:11:16Z</time></trkpt><trkpt lat="43.78273154950818" lon="11.234259337171775"><ele>45.5</ele><time>2026-04-26T14:11:17Z</time></trkpt><trkpt lat="43.78262281738892" lon="11.234406511938372"><ele>45.75</ele><time>2026-04-26T14:11:18Z</time></trkpt><trkpt lat="43.78254582415237" lon="11.234549425035652"><ele>46.0</ele><time>2026-04-26T14:11:19Z</time></trkpt><trkpt lat="43.782470389258556" lon="11.234690189476177"><ele>46.0</ele><time>2026-04-26T14:11:20Z</time></trkpt><trkpt lat="43.78238447314823" lon="11.234822488991327"><ele>46.0</ele><time>2026-04-26T14:11:21Z</time></trkpt><trkpt lat="43.782312811030664" lon="11.234956094208409"><ele>46.0</ele><time>2026-04-26T14:11:22Z</time></trkpt><trkpt lat="43.78223781861567" lon="11.235085050450683"><ele>46.0</ele><time>2026-04-26T14:11:23Z</time></trkpt><trkpt lat="43.78214923945855" lon="11.23520308924439"><ele>46.0</ele><time>2026-04-26T14:11:24Z</time></trkpt><trkpt lat="43.78208336873032" lon="11.235348187018818"><ele>46.0</ele><time>2026-04-26T14:11:25Z</time></trkpt><trkpt lat="43.782016225289325" lon="11.235476431716085"><ele>46.0</ele><time>2026-04-26T14:11:26Z</time></trkpt><trkpt lat="43.78194675095873" lon="11.235580002124845"><ele>46.0</ele><time>2026-04-26T14:11:27Z</time></trkpt><trkpt lat="43.78189937789889" lon="11.235657452863265"><ele>46.0</ele><time>2026-04-26T14:11:28Z</time></trkpt><trkpt lat="43.7818850179633" lon="11.235778661034699"><ele>46.0</ele><time>2026-04-26T14:11:50.001Z</time></trkpt><trkpt lat="43.78177882222819" lon="11.235912657485581"><ele>46.0</ele><time>2026-04-26T14:11:52.001Z</time></trkpt><trkpt lat="43.78171074670969" lon="11.23599158811776"><ele>46.0</ele><time>2026-04-26T14:11:53.001Z</time></trkpt><trkpt lat="43.78163282451524" lon="11.236064862142534"><ele>46.0</ele><time>2026-04-26T14:11:54.001Z</time></trkpt><trkpt lat="43.78154855601983" lon="11.236151744242102"><ele>46.0</ele><time>2026-04-26T14:11:55.001Z</time></trkpt><trkpt lat="43.781458791387195" lon="11.236258564225942"><ele>46.0</ele><time>2026-04-26T14:11:56.001Z</time></trkpt><trkpt lat="43.78135453074484" lon="11.236368695119483"><ele>46.0</ele><time>2026-04-26T14:11:57.001Z</time></trkpt><trkpt lat="43.78126272449153" lon="11.236483716580663"><ele>46.0</ele><time>2026-04-26T14:11:58.001Z</time></trkpt><trkpt lat="43.78118635316483" lon="11.236604247263022"><ele>46.0</ele><time>2026-04-26T14:11:59.001Z</time></trkpt><trkpt lat="43.7811001889851" lon="11.236711551296946"><ele>46.0</ele><time>2026-04-26T14:12:00.001Z</time></trkpt><trkpt lat="43.78101734518995" lon="11.236812341924011"><ele>46.0</ele><time>2026-04-26T14:12:01.001Z</time></trkpt><trkpt lat="43.780897572182425" lon="11.236898970928527"><ele>46.0</ele><time>2026-04-26T14:12:02.001Z</time></trkpt><trkpt lat="43.78079771953166" lon="11.23698683011851"><ele>46.0</ele><time>2026-04-26T14:12:03.001Z</time></trkpt><trkpt lat="43.780707667073706" lon="11.237067411702013"><ele>46.0</ele><time>2026-04-26T14:12:04.001Z</time></trkpt><trkpt lat="43.78061558851103" lon="11.237157870905094"><ele>46.0</ele><time>2026-04-26T14:12:05.001Z</time></trkpt><trkpt lat="43.78051869999507" lon="11.237245786899237"><ele>46.0</ele><time>2026-04-26T14:12:06.001Z</time></trkpt><trkpt lat="43.78042162487035" lon="11.237340024377145"><ele>46.0</ele><time>2026-04-26T14:12:07.001Z</time></trkpt><trkpt lat="43.78034041242126" lon="11.237437965752967"><ele>46.199999999999996</ele><time>2026-04-26T14:12:08.001Z</time></trkpt><trkpt lat="43.78024771535531" lon="11.237530911722734"><ele>46.4</ele><time>2026-04-26T14:12:09.001Z</time></trkpt><trkpt lat="43.7801449393003" lon="11.237611504271566"><ele>46.6</ele><time>2026-04-26T14:12:10.001Z</time></trkpt><trkpt lat="43.78005831768887" lon="11.237668914655673"><ele>46.8</ele><time>2026-04-26T14:12:11.001Z</time></trkpt><trkpt lat="43.77998123802086" lon="11.237761718950319"><ele>47.0</ele><time>2026-04-26T14:12:12.001Z</time></trkpt><trkpt lat="43.779905750261804" lon="11.23781638738168"><ele>47.0</ele><time>2026-04-26T14:12:13.001Z</time></trkpt><trkpt lat="43.77984463066903" lon="11.237885586051624"><ele>47.0</ele><time>2026-04-26T14:12:14.001Z</time></trkpt><trkpt lat="43.779787764348185" lon="11.23794874508171"><ele>47.0</ele><time>2026-04-26T14:12:15.001Z</time></trkpt><trkpt lat="43.77972626535358" lon="11.238013711714299"><ele>47.0</ele><time>2026-04-26T14:12:16.001Z</time></trkpt><trkpt lat="43.77966370020083" lon="11.23808762369778"><ele>47.0</ele><time>2026-04-26T14:12:17.001Z</time></trkpt><trkpt lat="43.77960129419503" lon="11.238175255039506"><ele>47.0</ele><time>2026-04-26T14:12:18.001Z</time></trkpt><trkpt lat="43.77953196791668" lon="11.238249313368462"><ele>47.0</ele><time>2026-04-26T14:12:19.001Z</time></trkpt><trkpt lat="43.77945015629096" lon="11.238325127922508"><ele>47.0</ele><time>2026-04-26T14:12:20.001Z</time></trkpt><trkpt lat="43.779366068107976" lon="11.238407378611116"><ele>47.0</ele><time>2026-04-26T14:12:21.001Z</time></trkpt><trkpt lat="43.77926596210633" lon="11.238484861039012"><ele>47.0</ele><time>2026-04-26T14:12:22.001Z</time></trkpt><trkpt lat="43.77916689979065" lon="11.23858638940762"><ele>47.0</ele><time>2026-04-26T14:12:23.001Z</time></trkpt><trkpt lat="43.77905621259568" lon="11.238695550123678"><ele>47.0</ele><time>2026-04-26T14:12:24.001Z</time></trkpt><trkpt lat="43.77896883459912" lon="11.238818410190502"><ele>47.0</ele><time>2026-04-26T14:12:25.001Z</time></trkpt><trkpt lat="43.778865116676734" lon="11.238934384949113"><ele>47.0</ele><time>2026-04-26T14:12:26.001Z</time></trkpt><trkpt lat="43.77871142687445" lon="11.239051515357527"><ele>47.0</ele><time>2026-04-26T14:12:27.001Z</time></trkpt><trkpt lat="43.77858430236004" lon="11.239194328014293"><ele>47.25</ele><time>2026-04-26T14:12:28.001Z</time></trkpt><trkpt lat="43.778452327089965" lon="11.239357463664092"><ele>47.5</ele><time>2026-04-26T14:12:29.001Z</time></trkpt><trkpt lat="43.77833786162172" lon="11.239498180014433"><ele>47.75</ele><time>2026-04-26T14:12:30.001Z</time></trkpt><trkpt lat="43.77824572686609" lon="11.239601021397121"><ele>48.0</ele><time>2026-04-26T14:12:31.001Z</time></trkpt><trkpt lat="43.77820596363782" lon="11.239683741039364"><ele>48.0</ele><time>2026-04-26T14:12:32.001Z</time></trkpt><trkpt lat="43.778164404057065" lon="11.239824320580587"><ele>48.0</ele><time>2026-04-26T14:12:58.001Z</time></trkpt><trkpt lat="43.778124047118546" lon="11.239992174299035"><ele>48.0</ele><time>2026-04-26T14:13:00.001Z</time></trkpt><trkpt lat="43.77813129031731" lon="11.240095518584846"><ele>48.0</ele><time>2026-04-26T14:13:01.001Z</time></trkpt><trkpt lat="43.77813574455773" lon="11.24019010376755"><ele>48.0</ele><time>2026-04-26T14:13:02.001Z</time></trkpt><trkpt lat="43.77815008214964" lon="11.240289371031583"><ele>48.0</ele><time>2026-04-26T14:13:03.001Z</time></trkpt><trkpt lat="43.778186755463835" lon="11.240396026277319"><ele>48.0</ele><time>2026-04-26T14:13:04.001Z</time></trkpt><trkpt lat="43.77822986521928" lon="11.240505112152045"><ele>48.0</ele><time>2026-04-26T14:13:05.001Z</time></trkpt><trkpt lat="43.77827884887779" lon="11.24060779969795"><ele>48.0</ele><time>2026-04-26T14:13:06.001Z</time></trkpt><trkpt lat="43.77832649223922" lon="11.240715154812863"><ele>48.0</ele><time>2026-04-26T14:13:07.001Z</time></trkpt><trkpt lat="43.778365898368115" lon="11.240822470723282"><ele>48.0</ele><time>2026-04-26T14:13:08.001Z</time></trkpt><trkpt lat="43.7784054591298" lon="11.240919848127257"><ele>47.8</ele><time>2026-04-26T14:13:09.001Z</time></trkpt><trkpt lat="43.778436543012496" lon="11.241002928749367"><ele>47.599999999999994</ele><time>2026-04-26T14:13:10.001Z</time></trkpt><trkpt lat="43.77847355913511" lon="11.24113773534627"><ele>47.400000000000006</ele><time>2026-04-26T14:13:12.001Z</time></trkpt><trkpt lat="43.77852355076216" lon="11.241242055732146"><ele>47.2</ele><time>2026-04-26T14:13:25.001Z</time></trkpt><trkpt lat="43.7785681887972" lon="11.241429985934023"><ele>47.0</ele><time>2026-04-26T14:13:27.001Z</time></trkpt><trkpt lat="43.778594868374796" lon="11.241553010937109"><ele>46.8</ele><time>2026-04-26T14:13:28.001Z</time></trkpt><trkpt lat="43.778632802519176" lon="11.241689907421511"><ele>46.6</ele><time>2026-04-26T14:13:29.001Z</time></trkpt><trkpt lat="43.778679667817286" lon="11.24183276759586"><ele>46.4</ele><time>2026-04-26T14:13:30.001Z</time></trkpt><trkpt lat="43.77870911440306" lon="11.241983586616229"><ele>46.199999999999996</ele><time>2026-04-26T14:13:31.001Z</time></trkpt><trkpt lat="43.77875708897321" lon="11.242129831551555"><ele>46.0</ele><time>2026-04-26T14:13:32.001Z</time></trkpt><trkpt lat="43.7788086461251" lon="11.242274957017429"><ele>46.75</ele><time>2026-04-26T14:13:33.001Z</time></trkpt><trkpt lat="43.778861936314705" lon="11.242424076289193"><ele>47.5</ele><time>2026-04-26T14:13:34.001Z</time></trkpt><trkpt lat="43.77890080788988" lon="11.242585903563912"><ele>48.25</ele><time>2026-04-26T14:13:35.001Z</time></trkpt><trkpt lat="43.77893867189971" lon="11.242750988011737"><ele>49.0</ele><time>2026-04-26T14:13:36.001Z</time></trkpt><trkpt lat="43.77897562975146" lon="11.242917012128297"><ele>49.0</ele><time>2026-04-26T14:13:37.001Z</time></trkpt><trkpt lat="43.779013820299376" lon="11.243083864444657"><ele>49.0</ele><time>2026-04-26T14:13:38.001Z</time></trkpt><trkpt lat="43.77905713939436" lon="11.243242558938794"><ele>49.0</ele><time>2026-04-26T14:13:39.001Z</time></trkpt><trkpt lat="43.77910465299584" lon="11.243404388416048"><ele>49.0</ele><time>2026-04-26T14:13:40.001Z</time></trkpt><trkpt lat="43.77917040912409" lon="11.243563788472514"><ele>48.800000000000004</ele><time>2026-04-26T14:13:41.001Z</time></trkpt><trkpt lat="43.77922243961266" lon="11.243708447654003"><ele>48.6</ele><time>2026-04-26T14:13:42.001Z</time></trkpt><trkpt lat="43.77926182490412" lon="11.243842084157883"><ele>48.4</ele><time>2026-04-26T14:13:43.001Z</time></trkpt><trkpt lat="43.77930594747125" lon="11.243976720573375"><ele>48.2</ele><time>2026-04-26T14:13:44.001Z</time></trkpt><trkpt lat="43.77932700939784" lon="11.24410957748046"><ele>48.0</ele><time>2026-04-26T14:13:45.001Z</time></trkpt><trkpt lat="43.779350047874004" lon="11.244219689916948"><ele>48.333333333333336</ele><time>2026-04-26T14:13:46.001Z</time></trkpt><trkpt lat="43.77938351404654" lon="11.244334131326516"><ele>48.66666666666667</ele><time>2026-04-26T14:13:47.001Z</time></trkpt><trkpt lat="43.77941112162666" lon="11.244442389163495"><ele>49.0</ele><time>2026-04-26T14:13:48.001Z</time></trkpt><trkpt lat="43.779437710254356" lon="11.244541980870691"><ele>49.333333333333336</ele><time>2026-04-26T14:13:49.001Z</time></trkpt><trkpt lat="43.779471409416644" lon="11.244654009038738"><ele>49.66666666666667</ele><time>2026-04-26T14:13:50.001Z</time></trkpt><trkpt lat="43.779496953580406" lon="11.24477217724143"><ele>50.0</ele><time>2026-04-26T14:13:51.001Z</time></trkpt><trkpt lat="43.77952397947185" lon="11.244878003183908"><ele>50.0</ele><time>2026-04-26T14:13:52.001Z</time></trkpt><trkpt lat="43.77955637017187" lon="11.244974606075868"><ele>50.0</ele><time>2026-04-26T14:13:53.001Z</time></trkpt><trkpt lat="43.779588248544236" lon="11.245091180357429"><ele>50.0</ele><time>2026-04-26T14:13:54.001Z</time></trkpt><trkpt lat="43.77962561789632" lon="11.245226887607672"><ele>50.0</ele><time>2026-04-26T14:13:55.001Z</time></trkpt><trkpt lat="43.779651573332394" lon="11.245381053098217"><ele>50.0</ele><time>2026-04-26T14:13:56.001Z</time></trkpt><trkpt lat="43.7796668457365" lon="11.245531344909352"><ele>49.75</ele><time>2026-04-26T14:13:57.001Z</time></trkpt><trkpt lat="43.77967921766467" lon="11.245694518104518"><ele>49.5</ele><time>2026-04-26T14:13:58.001Z</time></trkpt><trkpt lat="43.7796859593054" lon="11.245861599155724"><ele>49.25</ele><time>2026-04-26T14:13:59.001Z</time></trkpt><trkpt lat="43.779691489045824" lon="11.246030585486402"><ele>49.0</ele><time>2026-04-26T14:14:00.018Z</time></trkpt><trkpt lat="43.77969302596838" lon="11.246194048640838"><ele>49.0</ele><time>2026-04-26T14:14:01.016Z</time></trkpt><trkpt lat="43.7796906962885" lon="11.246359307749923"><ele>49.0</ele><time>2026-04-26T14:14:02.015Z</time></trkpt><trkpt lat="43.779687712646165" lon="11.246528916251446"><ele>49.0</ele><time>2026-04-26T14:14:03.017Z</time></trkpt><trkpt lat="43.77968500392538" lon="11.24669632059896"><ele>49.0</ele><time>2026-04-26T14:14:04.015Z</time></trkpt><trkpt lat="43.77968297230487" lon="11.246865604395753"><ele>49.0</ele><time>2026-04-26T14:14:05.018Z</time></trkpt><trkpt lat="43.77968373503723" lon="11.247036713224244"><ele>49.0</ele><time>2026-04-26T14:14:06.013Z</time></trkpt><trkpt lat="43.77973491795713" lon="11.247278228412613"><ele>49.0</ele><time>2026-04-26T14:14:07.001Z</time></trkpt><trkpt lat="43.779755385512985" lon="11.24744718023526"><ele>49.0</ele><time>2026-04-26T14:14:08.001Z</time></trkpt><trkpt lat="43.77976337424356" lon="11.24769738831346"><ele>49.0</ele><time>2026-04-26T14:14:09.001Z</time></trkpt><trkpt lat="43.779828390273295" lon="11.247867433550123"><ele>49.0</ele><time>2026-04-26T14:14:10.001Z</time></trkpt><trkpt lat="43.77989774245896" lon="11.248015339080961"><ele>49.0</ele><time>2026-04-26T14:14:11.001Z</time></trkpt><trkpt lat="43.779942257202826" lon="11.248182485648417"><ele>49.0</ele><time>2026-04-26T14:14:12.001Z</time></trkpt><trkpt lat="43.78001422437815" lon="11.248309029194239"><ele>49.2</ele><time>2026-04-26T14:14:13.001Z</time></trkpt><trkpt lat="43.780057998427985" lon="11.24842991660085"><ele>49.400000000000006</ele><time>2026-04-26T14:14:14.001Z</time></trkpt><trkpt lat="43.780098238404165" lon="11.248546161009184"><ele>49.6</ele><time>2026-04-26T14:14:15.001Z</time></trkpt><trkpt lat="43.78012607685802" lon="11.248663253705017"><ele>49.8</ele><time>2026-04-26T14:14:16.001Z</time></trkpt><trkpt lat="43.780169734383534" lon="11.248768704680256"><ele>50.0</ele><time>2026-04-26T14:14:17.001Z</time></trkpt><trkpt lat="43.780212585049824" lon="11.248953711895206"><ele>50.5</ele><time>2026-04-26T14:14:18.001Z</time></trkpt><trkpt lat="43.78025977730455" lon="11.249128498251608"><ele>51.0</ele><time>2026-04-26T14:14:19.001Z</time></trkpt><trkpt lat="43.78032126805828" lon="11.24928911202828"><ele>51.5</ele><time>2026-04-26T14:14:20.001Z</time></trkpt><trkpt lat="43.78037816642567" lon="11.24944895621921"><ele>52.0</ele><time>2026-04-26T14:14:21.001Z</time></trkpt><trkpt lat="43.78043336567818" lon="11.24961269386221"><ele>52.0</ele><time>2026-04-26T14:14:22.016Z</time></trkpt><trkpt lat="43.78048670414545" lon="11.24977233606171"><ele>52.0</ele><time>2026-04-26T14:14:23.013Z</time></trkpt><trkpt lat="43.78054065073951" lon="11.249930549673754"><ele>52.0</ele><time>2026-04-26T14:14:24.012Z</time></trkpt><trkpt lat="43.78059551485323" lon="11.250087891219822"><ele>52.0</ele><time>2026-04-26T14:14:25.013Z</time></trkpt><trkpt lat="43.78064855581884" lon="11.2502427617989"><ele>51.8</ele><time>2026-04-26T14:14:26.013Z</time></trkpt><trkpt lat="43.78069746064124" lon="11.250400762624356"><ele>51.6</ele><time>2026-04-26T14:14:28.001Z</time></trkpt><trkpt lat="43.78072036447032" lon="11.250559154591187"><ele>51.4</ele><time>2026-04-26T14:14:29.001Z</time></trkpt><trkpt lat="43.78074054969811" lon="11.250685938378524"><ele>51.199999999999996</ele><time>2026-04-26T14:14:30.001Z</time></trkpt><trkpt lat="43.780757782718496" lon="11.250816092668154"><ele>51.0</ele><time>2026-04-26T14:14:31.001Z</time></trkpt><trkpt lat="43.780771271645335" lon="11.250950286218643"><ele>50.8</ele><time>2026-04-26T14:14:32.001Z</time></trkpt><trkpt lat="43.78078065900057" lon="11.251079828507224"><ele>50.599999999999994</ele><time>2026-04-26T14:14:33.001Z</time></trkpt><trkpt lat="43.78079647776803" lon="11.251206350224189"><ele>50.4</ele><time>2026-04-26T14:14:34.001Z</time></trkpt><trkpt lat="43.78081104335974" lon="11.25133642347522"><ele>50.2</ele><time>2026-04-26T14:14:35.001Z</time></trkpt><trkpt lat="43.780830513101236" lon="11.251464451726097"><ele>50.0</ele><time>2026-04-26T14:14:36.001Z</time></trkpt><trkpt lat="43.780851395572" lon="11.251578015943771"><ele>50.333333333333336</ele><time>2026-04-26T14:14:37.001Z</time></trkpt><trkpt lat="43.78088122480661" lon="11.251719025349992"><ele>50.66666666666667</ele><time>2026-04-26T14:14:39.001Z</time></trkpt><trkpt lat="43.780915470216286" lon="11.251898953316502"><ele>51.0</ele><time>2026-04-26T14:14:41.001Z</time></trkpt><trkpt lat="43.780943755292085" lon="11.251992495770192"><ele>51.33333333333333</ele><time>2026-04-26T14:14:42.001Z</time></trkpt><trkpt lat="43.780983682997984" lon="11.25206428279474"><ele>51.666666666666664</ele><time>2026-04-26T14:14:43.001Z</time></trkpt><trkpt lat="43.78102769461082" lon="11.25213539943982"><ele>52.0</ele><time>2026-04-26T14:14:44.001Z</time></trkpt><trkpt lat="43.78110432023586" lon="11.252252580589934"><ele>52.33333333333333</ele><time>2026-04-26T14:14:46.001Z</time></trkpt><trkpt lat="43.78115114855843" lon="11.252313926350267"><ele>52.666666666666664</ele><time>2026-04-26T14:14:47.001Z</time></trkpt><trkpt lat="43.78121688765394" lon="11.252385382897508"><ele>53.0</ele><time>2026-04-26T14:14:48.001Z</time></trkpt><trkpt lat="43.78129073423768" lon="11.25244386556334"><ele>53.33333333333333</ele><time>2026-04-26T14:14:49.001Z</time></trkpt><trkpt lat="43.78135279735511" lon="11.252517611193344"><ele>53.666666666666664</ele><time>2026-04-26T14:14:50.001Z</time></trkpt><trkpt lat="43.78143968873246" lon="11.252583030337954"><ele>54.0</ele><time>2026-04-26T14:14:51.001Z</time></trkpt><trkpt lat="43.78151970451957" lon="11.252644391800924"><ele>54.0</ele><time>2026-04-26T14:14:52.001Z</time></trkpt><trkpt lat="43.78158932235103" lon="11.252698988267012"><ele>54.00000000000001</ele><time>2026-04-26T14:14:53.001Z</time></trkpt><trkpt lat="43.78169823837613" lon="11.252757933929995"><ele>54.00000000000001</ele><time>2026-04-26T14:14:55.001Z</time></trkpt><trkpt lat="43.781758847020605" lon="11.25286749310375"><ele>54.0</ele><time>2026-04-26T14:14:57.001Z</time></trkpt><trkpt lat="43.78179342608004" lon="11.252961791682447"><ele>54.0</ele><time>2026-04-26T14:15:11Z</time></trkpt><trkpt lat="43.781845214883226" lon="11.253102861873858"><ele>54.800000000000004</ele><time>2026-04-26T14:15:13Z</time></trkpt><trkpt lat="43.781865821020205" lon="11.253210971299685"><ele>55.60000000000001</ele><time>2026-04-26T14:15:14Z</time></trkpt><trkpt lat="43.781893792101" lon="11.253329254747127"><ele>56.4</ele><time>2026-04-26T14:15:15Z</time></trkpt><trkpt lat="43.78192440687318" lon="11.253465903729868"><ele>57.2</ele><time>2026-04-26T14:15:16Z</time></trkpt><trkpt lat="43.7819610804209" lon="11.253607336855305"><ele>58.0</ele><time>2026-04-26T14:15:17Z</time></trkpt><trkpt lat="43.781996895096206" lon="11.253751063435475"><ele>58.0</ele><time>2026-04-26T14:15:18Z</time></trkpt><trkpt lat="43.782033918287425" lon="11.253905685357859"><ele>58.0</ele><time>2026-04-26T14:15:19Z</time></trkpt><trkpt lat="43.782069599413916" lon="11.254067556920006"><ele>58.0</ele><time>2026-04-26T14:15:20Z</time></trkpt><trkpt lat="43.7821084131255" lon="11.254231987874121"><ele>58.0</ele><time>2026-04-26T14:15:21Z</time></trkpt><trkpt lat="43.78215099060249" lon="11.254397924324014"><ele>57.5</ele><time>2026-04-26T14:15:22Z</time></trkpt><trkpt lat="43.78219551421748" lon="11.254576094345193"><ele>57.0</ele><time>2026-04-26T14:15:23Z</time></trkpt><trkpt lat="43.7822361364953" lon="11.254749338197437"><ele>56.5</ele><time>2026-04-26T14:15:24Z</time></trkpt><trkpt lat="43.78227378271333" lon="11.254925079985476"><ele>56.0</ele><time>2026-04-26T14:15:25Z</time></trkpt><trkpt lat="43.782311429997634" lon="11.255101817994184"><ele>56.0</ele><time>2026-04-26T14:15:26Z</time></trkpt><trkpt lat="43.78235115504155" lon="11.255275994504897"><ele>56.0</ele><time>2026-04-26T14:15:27Z</time></trkpt><trkpt lat="43.78239733557682" lon="11.255452999311482"><ele>56.0</ele><time>2026-04-26T14:15:28Z</time></trkpt><trkpt lat="43.78244049994899" lon="11.255632612384437"><ele>56.0</ele><time>2026-04-26T14:15:29Z</time></trkpt><trkpt lat="43.78248602143797" lon="11.2558114925367"><ele>55.5</ele><time>2026-04-26T14:15:30Z</time></trkpt><trkpt lat="43.78252389677731" lon="11.255986880359975"><ele>55.0</ele><time>2026-04-26T14:15:31Z</time></trkpt><trkpt lat="43.78256611727686" lon="11.256167166855999"><ele>54.5</ele><time>2026-04-26T14:15:32Z</time></trkpt><trkpt lat="43.782612436008115" lon="11.256346124867978"><ele>54.0</ele><time>2026-04-26T14:15:33Z</time></trkpt><trkpt lat="43.782652304107415" lon="11.256523085927995"><ele>54.5</ele><time>2026-04-26T14:15:34Z</time></trkpt><trkpt lat="43.7826924470186" lon="11.25670146650321"><ele>55.0</ele><time>2026-04-26T14:15:35Z</time></trkpt><trkpt lat="43.782734355005275" lon="11.25688505042297"><ele>55.5</ele><time>2026-04-26T14:15:36Z</time></trkpt><trkpt lat="43.782774180946255" lon="11.257055984296578"><ele>56.0</ele><time>2026-04-26T14:15:37Z</time></trkpt><trkpt lat="43.782811962273136" lon="11.257234112966135"><ele>56.75</ele><time>2026-04-26T14:15:38Z</time></trkpt><trkpt lat="43.78285608717045" lon="11.257411188179145"><ele>57.5</ele><time>2026-04-26T14:15:39Z</time></trkpt><trkpt lat="43.782894806227276" lon="11.257587176809855"><ele>58.25</ele><time>2026-04-26T14:15:40Z</time></trkpt><trkpt lat="43.782935944741084" lon="11.257769633690806"><ele>59.0</ele><time>2026-04-26T14:15:41Z</time></trkpt><trkpt lat="43.78297910972072" lon="11.257949704343202"><ele>58.75</ele><time>2026-04-26T14:15:42Z</time></trkpt><trkpt lat="43.783018895602865" lon="11.258130728471814"><ele>58.5</ele><time>2026-04-26T14:15:43Z</time></trkpt><trkpt lat="43.78306278114679" lon="11.258308553416056"><ele>58.25</ele><time>2026-04-26T14:15:44Z</time></trkpt><trkpt lat="43.783106207794496" lon="11.258491273761765"><ele>58.0</ele><time>2026-04-26T14:15:45Z</time></trkpt><trkpt lat="43.783155790560116" lon="11.258675905270856"><ele>58.0</ele><time>2026-04-26T14:15:46Z</time></trkpt><trkpt lat="43.783195136410896" lon="11.258865706238216"><ele>58.0</ele><time>2026-04-26T14:15:47Z</time></trkpt><trkpt lat="43.78324750758006" lon="11.259058862015706"><ele>58.0</ele><time>2026-04-26T14:15:48Z</time></trkpt><trkpt lat="43.78329020349711" lon="11.259250270429707"><ele>58.0</ele><time>2026-04-26T14:15:49Z</time></trkpt><trkpt lat="43.7833290580935" lon="11.25943905748889"><ele>58.0</ele><time>2026-04-26T14:15:50Z</time></trkpt><trkpt lat="43.783366591202814" lon="11.259622193202732"><ele>58.0</ele><time>2026-04-26T14:15:51Z</time></trkpt><trkpt lat="43.78340465529962" lon="11.259800179264776"><ele>58.0</ele><time>2026-04-26T14:15:52Z</time></trkpt><trkpt lat="43.783447430365584" lon="11.259978482350729"><ele>58.0</ele><time>2026-04-26T14:15:53Z</time></trkpt><trkpt lat="43.783491415932396" lon="11.260153262495194"><ele>58.75</ele><time>2026-04-26T14:15:54Z</time></trkpt><trkpt lat="43.78353188106809" lon="11.260326718987061"><ele>59.5</ele><time>2026-04-26T14:15:55Z</time></trkpt><trkpt lat="43.78357124237975" lon="11.26048731754552"><ele>60.25</ele><time>2026-04-26T14:15:56Z</time></trkpt><trkpt lat="43.78361030519193" lon="11.260641324506475"><ele>61.0</ele><time>2026-04-26T14:15:57Z</time></trkpt><trkpt lat="43.78365221826277" lon="11.260797742839776"><ele>61.199999999999996</ele><time>2026-04-26T14:15:58Z</time></trkpt><trkpt lat="43.78367947441212" lon="11.26095350166856"><ele>61.39999999999999</ele><time>2026-04-26T14:15:59Z</time></trkpt><trkpt lat="43.78369804722838" lon="11.261102003103312"><ele>61.6</ele><time>2026-04-26T14:16:00Z</time></trkpt><trkpt lat="43.783699548570084" lon="11.261238850532179"><ele>61.8</ele><time>2026-04-26T14:16:01Z</time></trkpt><trkpt lat="43.78365450431044" lon="11.261380979116504"><ele>62.0</ele><time>2026-04-26T14:16:02Z</time></trkpt><trkpt lat="43.78358093031023" lon="11.261521552440607"><ele>62.0</ele><time>2026-04-26T14:16:03Z</time></trkpt><trkpt lat="43.783509880578514" lon="11.261646545062039"><ele>62.0</ele><time>2026-04-26T14:16:04Z</time></trkpt><trkpt lat="43.78345050243894" lon="11.2617807461343"><ele>62.0</ele><time>2026-04-26T14:16:05Z</time></trkpt><trkpt lat="43.78339089092063" lon="11.261923968267777"><ele>62.0</ele><time>2026-04-26T14:16:06Z</time></trkpt><trkpt lat="43.78333027229143" lon="11.262066107062486"><ele>62.00000000000001</ele><time>2026-04-26T14:16:07Z</time></trkpt><trkpt lat="43.78328124183925" lon="11.262185114554368"><ele>62.0</ele><time>2026-04-26T14:16:08Z</time></trkpt><trkpt lat="43.78323063823394" lon="11.262240857507871"><ele>62.0</ele><time>2026-04-26T14:16:09Z</time></trkpt><trkpt lat="43.78317974430258" lon="11.262353302938324"><ele>62.0</ele><time>2026-04-26T14:16:37Z</time></trkpt><trkpt lat="43.78313926403321" lon="11.26245125914992"><ele>62.00000000000001</ele><time>2026-04-26T14:16:38Z</time></trkpt><trkpt lat="43.78309513510441" lon="11.262542756696627"><ele>62.0</ele><time>2026-04-26T14:16:39Z</time></trkpt><trkpt lat="43.78304928774286" lon="11.2626346795615"><ele>61.66666666666667</ele><time>2026-04-26T14:16:40Z</time></trkpt><trkpt lat="43.78298938660666" lon="11.262706668238824"><ele>61.333333333333336</ele><time>2026-04-26T14:16:41Z</time></trkpt><trkpt lat="43.78291856599277" lon="11.262768431119609"><ele>61.0</ele><time>2026-04-26T14:16:42Z</time></trkpt><trkpt lat="43.782846793329526" lon="11.262829868375416"><ele>60.66666666666667</ele><time>2026-04-26T14:16:43Z</time></trkpt><trkpt lat="43.78276780690489" lon="11.262916474455267"><ele>60.333333333333336</ele><time>2026-04-26T14:16:44Z</time></trkpt><trkpt lat="43.78269756756782" lon="11.262984068697657"><ele>60.0</ele><time>2026-04-26T14:16:45Z</time></trkpt><trkpt lat="43.78261201428365" lon="11.263053220027537"><ele>60.4</ele><time>2026-04-26T14:16:46Z</time></trkpt><trkpt lat="43.78253566062028" lon="11.26313920156658"><ele>60.8</ele><time>2026-04-26T14:16:47Z</time></trkpt><trkpt lat="43.78245791332734" lon="11.263212453015516"><ele>61.2</ele><time>2026-04-26T14:16:48Z</time></trkpt><trkpt lat="43.782372831773806" lon="11.263292575805755"><ele>61.6</ele><time>2026-04-26T14:16:49Z</time></trkpt><trkpt lat="43.7822883839135" lon="11.263374876509463"><ele>62.0</ele><time>2026-04-26T14:16:50Z</time></trkpt><trkpt lat="43.78220155026428" lon="11.263459966146748"><ele>62.0</ele><time>2026-04-26T14:16:51Z</time></trkpt><trkpt lat="43.7821137743157" lon="11.263546419960875"><ele>62.0</ele><time>2026-04-26T14:16:52Z</time></trkpt><trkpt lat="43.78204414066305" lon="11.26364099334207"><ele>62.0</ele><time>2026-04-26T14:16:53Z</time></trkpt><trkpt lat="43.78193411985365" lon="11.263723527403311"><ele>62.0</ele><time>2026-04-26T14:16:54Z</time></trkpt><trkpt lat="43.78184360943161" lon="11.263816723974026"><ele>62.0</ele><time>2026-04-26T14:16:55Z</time></trkpt><trkpt lat="43.78175553329521" lon="11.263901184237168"><ele>62.0</ele><time>2026-04-26T14:16:56Z</time></trkpt><trkpt lat="43.78165820801839" lon="11.263982282080951"><ele>62.0</ele><time>2026-04-26T14:16:57Z</time></trkpt><trkpt lat="43.781563771603295" lon="11.2640724516636"><ele>62.0</ele><time>2026-04-26T14:16:58Z</time></trkpt><trkpt lat="43.78146183652861" lon="11.26416890384331"><ele>62.0</ele><time>2026-04-26T14:16:59Z</time></trkpt><trkpt lat="43.781358626311665" lon="11.264257528256577"><ele>62.0</ele><time>2026-04-26T14:17:00.001Z</time></trkpt><trkpt lat="43.78126276164759" lon="11.264338135943376"><ele>62.0</ele><time>2026-04-26T14:17:01.001Z</time></trkpt><trkpt lat="43.78116807794642" lon="11.264438115643143"><ele>62.0</ele><time>2026-04-26T14:17:02.001Z</time></trkpt><trkpt lat="43.78106824179192" lon="11.2645376130795"><ele>62.0</ele><time>2026-04-26T14:17:02.999Z</time></trkpt><trkpt lat="43.78096219049633" lon="11.264646171494338"><ele>62.25</ele><time>2026-04-26T14:17:03.999Z</time></trkpt><trkpt lat="43.78085440771768" lon="11.264735187479692"><ele>62.5</ele><time>2026-04-26T14:17:04.999Z</time></trkpt><trkpt lat="43.78074666532733" lon="11.264836327930087"><ele>62.75</ele><time>2026-04-26T14:17:05.999Z</time></trkpt><trkpt lat="43.78064289814538" lon="11.264932622162956"><ele>63.0</ele><time>2026-04-26T14:17:06.999Z</time></trkpt><trkpt lat="43.780538143821076" lon="11.265032336263486"><ele>62.25</ele><time>2026-04-26T14:17:07.999Z</time></trkpt><trkpt lat="43.78044320043286" lon="11.265129987217362"><ele>61.5</ele><time>2026-04-26T14:17:08.999Z</time></trkpt><trkpt lat="43.780350999439094" lon="11.265220477270688"><ele>60.75</ele><time>2026-04-26T14:17:09.999Z</time></trkpt><trkpt lat="43.780256401184005" lon="11.265305869863784"><ele>60.0</ele><time>2026-04-26T14:17:10.999Z</time></trkpt><trkpt lat="43.78016450828677" lon="11.2653975555736"><ele>59.75</ele><time>2026-04-26T14:17:11.999Z</time></trkpt><trkpt lat="43.780075621208084" lon="11.265471531968835"><ele>59.5</ele><time>2026-04-26T14:17:12.999Z</time></trkpt><trkpt lat="43.77997689831098" lon="11.265571264919542"><ele>59.25</ele><time>2026-04-26T14:17:13.999Z</time></trkpt><trkpt lat="43.77987475126937" lon="11.265670605681212"><ele>59.0</ele><time>2026-04-26T14:17:14.999Z</time></trkpt><trkpt lat="43.77977805501487" lon="11.265762892872603"><ele>59.0</ele><time>2026-04-26T14:17:15.999Z</time></trkpt><trkpt lat="43.77967637644511" lon="11.26584972147287"><ele>59.0</ele><time>2026-04-26T14:17:16.999Z</time></trkpt><trkpt lat="43.77957871986049" lon="11.265947940614183"><ele>59.0</ele><time>2026-04-26T14:17:17.999Z</time></trkpt><trkpt lat="43.77948107225328" lon="11.266026984308878"><ele>59.0</ele><time>2026-04-26T14:17:18.999Z</time></trkpt><trkpt lat="43.779382290880875" lon="11.266123480764298"><ele>58.75</ele><time>2026-04-26T14:17:19.999Z</time></trkpt><trkpt lat="43.7792830479758" lon="11.266220557382992"><ele>58.5</ele><time>2026-04-26T14:17:21Z</time></trkpt><trkpt lat="43.77917366442146" lon="11.266304178352614"><ele>58.25</ele><time>2026-04-26T14:17:22Z</time></trkpt><trkpt lat="43.77909032780213" lon="11.26637328925605"><ele>58.0</ele><time>2026-04-26T14:17:23Z</time></trkpt><trkpt lat="43.77900122360448" lon="11.266462597404578"><ele>58.4</ele><time>2026-04-26T14:17:24Z</time></trkpt><trkpt lat="43.778922299260586" lon="11.266542687818493"><ele>58.8</ele><time>2026-04-26T14:17:25Z</time></trkpt><trkpt lat="43.77884056325416" lon="11.266622532967775"><ele>59.2</ele><time>2026-04-26T14:17:26Z</time></trkpt><trkpt lat="43.77875602269925" lon="11.266695517530529"><ele>59.6</ele><time>2026-04-26T14:17:27Z</time></trkpt><trkpt lat="43.77867160350953" lon="11.266774228791268"><ele>60.0</ele><time>2026-04-26T14:17:28Z</time></trkpt><trkpt lat="43.77859081642653" lon="11.266864663888446"><ele>59.833333333333336</ele><time>2026-04-26T14:17:29Z</time></trkpt><trkpt lat="43.778515229268365" lon="11.266945904696819"><ele>59.66666666666667</ele><time>2026-04-26T14:17:30Z</time></trkpt><trkpt lat="43.77844474083215" lon="11.267019840874177"><ele>59.5</ele><time>2026-04-26T14:17:31Z</time></trkpt><trkpt lat="43.778373211445235" lon="11.267080962703417"><ele>59.333333333333336</ele><time>2026-04-26T14:17:32Z</time></trkpt><trkpt lat="43.77829927049077" lon="11.267146223785936"><ele>59.16666666666667</ele><time>2026-04-26T14:17:33Z</time></trkpt><trkpt lat="43.77822274719224" lon="11.267194256794102"><ele>59.0</ele><time>2026-04-26T14:17:34Z</time></trkpt><trkpt lat="43.77813341229361" lon="11.267225539113188"><ele>59.0</ele><time>2026-04-26T14:17:35Z</time></trkpt><trkpt lat="43.77804282076674" lon="11.267259242736657"><ele>59.00000000000001</ele><time>2026-04-26T14:17:36Z</time></trkpt><trkpt lat="43.77795527545645" lon="11.267304227338638"><ele>59.00000000000001</ele><time>2026-04-26T14:17:37Z</time></trkpt><trkpt lat="43.77786143811771" lon="11.267345063235448"><ele>59.0</ele><time>2026-04-26T14:17:38Z</time></trkpt><trkpt lat="43.77777181364233" lon="11.267392982910748"><ele>59.0</ele><time>2026-04-26T14:17:39Z</time></trkpt><trkpt lat="43.77767758042978" lon="11.267443859271898"><ele>58.16666666666667</ele><time>2026-04-26T14:17:40Z</time></trkpt><trkpt lat="43.77757356346786" lon="11.26749277108679"><ele>57.333333333333336</ele><time>2026-04-26T14:17:41Z</time></trkpt><trkpt lat="43.7775090572622" lon="11.26753224277037"><ele>56.5</ele><time>2026-04-26T14:17:42Z</time></trkpt><trkpt lat="43.777434847262" lon="11.267574198166344"><ele>55.66666666666667</ele><time>2026-04-26T14:17:43Z</time></trkpt><trkpt lat="43.77736470849544" lon="11.26762190618333"><ele>54.833333333333336</ele><time>2026-04-26T14:17:44Z</time></trkpt><trkpt lat="43.77730371861233" lon="11.267671765485344"><ele>54.0</ele><time>2026-04-26T14:17:45Z</time></trkpt><trkpt lat="43.7772487866643" lon="11.267716206060827"><ele>54.0</ele><time>2026-04-26T14:17:46Z</time></trkpt><trkpt lat="43.77715240639508" lon="11.267805184532728"><ele>54.00000000000001</ele><time>2026-04-26T14:17:48Z</time></trkpt><trkpt lat="43.77709754429499" lon="11.267865387941729"><ele>54.00000000000001</ele><time>2026-04-26T14:17:49Z</time></trkpt><trkpt lat="43.77704277717367" lon="11.267933664281767"><ele>54.0</ele><time>2026-04-26T14:17:50Z</time></trkpt><trkpt lat="43.77698938187253" lon="11.267991586994683"><ele>54.0</ele><time>2026-04-26T14:17:51Z</time></trkpt><trkpt lat="43.776895353631595" lon="11.268117476193796"><ele>54.166666666666664</ele><time>2026-04-26T14:17:53Z</time></trkpt><trkpt lat="43.776842252036964" lon="11.26820360193457"><ele>54.33333333333333</ele><time>2026-04-26T14:17:54Z</time></trkpt><trkpt lat="43.776799248697984" lon="11.268291734855216"><ele>54.5</ele><time>2026-04-26T14:17:55Z</time></trkpt><trkpt lat="43.77674766033589" lon="11.268377018267486"><ele>54.666666666666664</ele><time>2026-04-26T14:17:56Z</time></trkpt><trkpt lat="43.776701946211496" lon="11.268438623074296"><ele>54.83333333333333</ele><time>2026-04-26T14:17:57Z</time></trkpt><trkpt lat="43.77662752189923" lon="11.268568961443005"><ele>55.0</ele><time>2026-04-26T14:17:59Z</time></trkpt><trkpt lat="43.776536769467626" lon="11.268692182251584"><ele>54.99999999999999</ele><time>2026-04-26T14:18:01Z</time></trkpt><trkpt lat="43.77647883879301" lon="11.268759886308436"><ele>55.0</ele><time>2026-04-26T14:18:02Z</time></trkpt><trkpt lat="43.77642344880124" lon="11.268837723997148"><ele>55.0</ele><time>2026-04-26T14:18:03Z</time></trkpt><trkpt lat="43.77637614525787" lon="11.268908678365962"><ele>55.0</ele><time>2026-04-26T14:18:04Z</time></trkpt><trkpt lat="43.77631787094691" lon="11.268971772097194"><ele>54.99999999999999</ele><time>2026-04-26T14:18:05Z</time></trkpt><trkpt lat="43.776252942375905" lon="11.269029082718681"><ele>55.0</ele><time>2026-04-26T14:18:06Z</time></trkpt><trkpt lat="43.776189082934216" lon="11.26908953676281"><ele>54.666666666666664</ele><time>2026-04-26T14:18:07Z</time></trkpt><trkpt lat="43.77612606119633" lon="11.269148797136769"><ele>54.33333333333333</ele><time>2026-04-26T14:18:08Z</time></trkpt><trkpt lat="43.77606284388808" lon="11.269207402346524"><ele>54.0</ele><time>2026-04-26T14:18:09Z</time></trkpt><trkpt lat="43.775992143399456" lon="11.269267793455525"><ele>53.66666666666667</ele><time>2026-04-26T14:18:10Z</time></trkpt><trkpt lat="43.77593480628073" lon="11.2693135764197"><ele>53.333333333333336</ele><time>2026-04-26T14:18:11Z</time></trkpt><trkpt lat="43.77586322592387" lon="11.26939014319637"><ele>53.0</ele><time>2026-04-26T14:18:12Z</time></trkpt><trkpt lat="43.77579580220782" lon="11.269441640207605"><ele>53.66666666666667</ele><time>2026-04-26T14:18:13Z</time></trkpt><trkpt lat="43.77572059489174" lon="11.269519074122558"><ele>54.333333333333336</ele><time>2026-04-26T14:18:14Z</time></trkpt><trkpt lat="43.77565804734377" lon="11.269593235285546"><ele>55.0</ele><time>2026-04-26T14:18:15Z</time></trkpt><trkpt lat="43.77558150910145" lon="11.269662355926004"><ele>55.66666666666667</ele><time>2026-04-26T14:18:16Z</time></trkpt><trkpt lat="43.77550612285522" lon="11.269721584943122"><ele>56.333333333333336</ele><time>2026-04-26T14:18:17Z</time></trkpt><trkpt lat="43.77544923031774" lon="11.269781595571109"><ele>57.0</ele><time>2026-04-26T14:18:18Z</time></trkpt><trkpt lat="43.77539220982734" lon="11.269833504240053"><ele>57.0</ele><time>2026-04-26T14:18:19Z</time></trkpt><trkpt lat="43.77533717455421" lon="11.269894801732258"><ele>57.0</ele><time>2026-04-26T14:18:20Z</time></trkpt><trkpt lat="43.77526872706606" lon="11.269973603953025"><ele>57.0</ele><time>2026-04-26T14:18:21Z</time></trkpt><trkpt lat="43.775175932677485" lon="11.270051097654381"><ele>57.0</ele><time>2026-04-26T14:18:22Z</time></trkpt><trkpt lat="43.775070202390914" lon="11.270149429242256"><ele>57.0</ele><time>2026-04-26T14:18:23Z</time></trkpt><trkpt lat="43.77497823811541" lon="11.270231929849995"><ele>56.8</ele><time>2026-04-26T14:18:24Z</time></trkpt><trkpt lat="43.77489854760932" lon="11.270312755854063"><ele>56.6</ele><time>2026-04-26T14:18:25Z</time></trkpt><trkpt lat="43.77481523056465" lon="11.270395449933622"><ele>56.39999999999999</ele><time>2026-04-26T14:18:26Z</time></trkpt><trkpt lat="43.77474132497448" lon="11.270479479171536"><ele>56.199999999999996</ele><time>2026-04-26T14:18:27Z</time></trkpt><trkpt lat="43.77466503580264" lon="11.270531981563579"><ele>56.0</ele><time>2026-04-26T14:18:28Z</time></trkpt><trkpt lat="43.77457444579517" lon="11.270603171887881"><ele>55.8</ele><time>2026-04-26T14:18:29Z</time></trkpt><trkpt lat="43.77449062384246" lon="11.270662961166714"><ele>55.599999999999994</ele><time>2026-04-26T14:18:30Z</time></trkpt><trkpt lat="43.77440644271708" lon="11.27071766696927"><ele>55.4</ele><time>2026-04-26T14:18:31Z</time></trkpt><trkpt lat="43.77431755871124" lon="11.270778811227231"><ele>55.2</ele><time>2026-04-26T14:18:32Z</time></trkpt><trkpt lat="43.774228562165774" lon="11.27082472044903"><ele>55.0</ele><time>2026-04-26T14:18:33Z</time></trkpt><trkpt lat="43.77413715433584" lon="11.270882099194441"><ele>55.0</ele><time>2026-04-26T14:18:34Z</time></trkpt><trkpt lat="43.7740325914463" lon="11.27092060404328"><ele>55.0</ele><time>2026-04-26T14:18:35Z</time></trkpt><trkpt lat="43.7739287611842" lon="11.270948059611067"><ele>55.0</ele><time>2026-04-26T14:18:36Z</time></trkpt><trkpt lat="43.77382038270501" lon="11.270971052689687"><ele>55.0</ele><time>2026-04-26T14:18:37Z</time></trkpt><trkpt lat="43.77370338243558" lon="11.270991663387697"><ele>55.0</ele><time>2026-04-26T14:18:38Z</time></trkpt><trkpt lat="43.77359760480121" lon="11.271009341912984"><ele>54.6</ele><time>2026-04-26T14:18:39Z</time></trkpt><trkpt lat="43.77348808858015" lon="11.271012063918615"><ele>54.2</ele><time>2026-04-26T14:18:40Z</time></trkpt><trkpt lat="43.77337439465698" lon="11.271009189634427"><ele>53.8</ele><time>2026-04-26T14:18:41Z</time></trkpt><trkpt lat="43.77326661346271" lon="11.27101531919894"><ele>53.4</ele><time>2026-04-26T14:18:42Z</time></trkpt><trkpt lat="43.77314901364139" lon="11.271000751272826"><ele>53.0</ele><time>2026-04-26T14:18:43Z</time></trkpt><trkpt lat="43.77303822900385" lon="11.270990516971272"><ele>53.00000000000001</ele><time>2026-04-26T14:18:44Z</time></trkpt><trkpt lat="43.77294290859063" lon="11.270988839020532"><ele>53.0</ele><time>2026-04-26T14:18:45Z</time></trkpt><trkpt lat="43.77285131278661" lon="11.270994625731268"><ele>53.0</ele><time>2026-04-26T14:18:46Z</time></trkpt><trkpt lat="43.77277495537757" lon="11.270996248494566"><ele>53.0</ele><time>2026-04-26T14:18:47Z</time></trkpt><trkpt lat="43.77270528351442" lon="11.270988520227508"><ele>53.00000000000001</ele><time>2026-04-26T14:18:48Z</time></trkpt><trkpt lat="43.77263843607736" lon="11.270986896971936"><ele>53.0</ele><time>2026-04-26T14:18:49Z</time></trkpt><trkpt lat="43.77253725225948" lon="11.27098943250007"><ele>53.16666666666667</ele><time>2026-04-26T14:18:51Z</time></trkpt><trkpt lat="43.772441351406805" lon="11.270956665056165"><ele>53.333333333333336</ele><time>2026-04-26T14:18:54Z</time></trkpt><trkpt lat="43.77233783832228" lon="11.270958384095222"><ele>53.5</ele><time>2026-04-26T14:18:59Z</time></trkpt><trkpt lat="43.77227462775296" lon="11.270960200009903"><ele>53.66666666666667</ele><time>2026-04-26T14:19:01Z</time></trkpt><trkpt lat="43.772186138003924" lon="11.270932894937134"><ele>53.833333333333336</ele><time>2026-04-26T14:19:04Z</time></trkpt><trkpt lat="43.77212083196199" lon="11.270929869334937"><ele>54.0</ele><time>2026-04-26T14:19:06Z</time></trkpt><trkpt lat="43.77201622633587" lon="11.270936935502382"><ele>54.0</ele><time>2026-04-26T14:19:08.999Z</time></trkpt><trkpt lat="43.771948880344425" lon="11.270947466222335"><ele>54.0</ele><time>2026-04-26T14:19:10.999Z</time></trkpt><trkpt lat="43.77186278970763" lon="11.270934151625946"><ele>54.0</ele><time>2026-04-26T14:19:12.999Z</time></trkpt><trkpt lat="43.77179713374943" lon="11.270933104796878"><ele>54.0</ele><time>2026-04-26T14:19:15.999Z</time></trkpt><trkpt lat="43.771727957161424" lon="11.270926765136362"><ele>54.0</ele><time>2026-04-26T14:19:18.999Z</time></trkpt><trkpt lat="43.77162771807439" lon="11.270936177038848"><ele>54.0</ele><time>2026-04-26T14:19:21.999Z</time></trkpt><trkpt lat="43.77155659566968" lon="11.270930741629167"><ele>53.833333333333336</ele><time>2026-04-26T14:19:23.999Z</time></trkpt><trkpt lat="43.771479038696214" lon="11.270933492886144"><ele>53.66666666666667</ele><time>2026-04-26T14:19:26.999Z</time></trkpt><trkpt lat="43.77140784463029" lon="11.270932990785568"><ele>53.5</ele><time>2026-04-26T14:19:30.999Z</time></trkpt><trkpt lat="43.77126780105091" lon="11.27091653639948"><ele>53.333333333333336</ele><time>2026-04-26T14:20:12Z</time></trkpt><trkpt lat="43.77119880683609" lon="11.270886620548879"><ele>53.16666666666667</ele><time>2026-04-26T14:20:14Z</time></trkpt><trkpt lat="43.771128007643036" lon="11.270850242092036"><ele>53.0</ele><time>2026-04-26T14:20:17Z</time></trkpt><trkpt lat="43.77105889022908" lon="11.27080150232043"><ele>53.0</ele><time>2026-04-26T14:20:19Z</time></trkpt><trkpt lat="43.771082846108655" lon="11.270631635449284"><ele>53.0</ele><time>2026-04-26T14:20:20Z</time></trkpt><trkpt lat="43.771049174268526" lon="11.270534428197232"><ele>53.0</ele><time>2026-04-26T14:20:21Z</time></trkpt><trkpt lat="43.77101394362372" lon="11.270447334668653"><ele>53.0</ele><time>2026-04-26T14:20:22Z</time></trkpt><trkpt lat="43.7709454828476" lon="11.270376879280741"><ele>53.0</ele><time>2026-04-26T14:20:23Z</time></trkpt><trkpt lat="43.77084409651412" lon="11.2703117142217"><ele>53.0</ele><time>2026-04-26T14:20:25Z</time></trkpt><trkpt lat="43.77068122838653" lon="11.270311161140095"><ele>53.0</ele><time>2026-04-26T14:20:27Z</time></trkpt><trkpt lat="43.77060781268957" lon="11.270340470897533"><ele>53.0</ele><time>2026-04-26T14:20:28Z</time></trkpt><trkpt lat="43.770506204092136" lon="11.270440447240127"><ele>53.0</ele><time>2026-04-26T14:20:30Z</time></trkpt><trkpt lat="43.77048568175218" lon="11.270540678165977"><ele>53.0</ele><time>2026-04-26T14:20:31Z</time></trkpt><trkpt lat="43.770423928704496" lon="11.270592567296784"><ele>53.00000000000001</ele><time>2026-04-26T14:20:35Z</time></trkpt><trkpt lat="43.77029291817129" lon="11.270631852973118"><ele>53.0</ele><time>2026-04-26T14:20:40Z</time></trkpt><trkpt lat="43.77022628985689" lon="11.270596900545689"><ele>53.0</ele><time>2026-04-26T14:20:42Z</time></trkpt><trkpt lat="43.77015336218555" lon="11.270554806369644"><ele>53.0</ele><time>2026-04-26T14:20:44Z</time></trkpt><trkpt lat="43.77008494127501" lon="11.270513938401798"><ele>53.00000000000001</ele><time>2026-04-26T14:20:46Z</time></trkpt><trkpt lat="43.77000978936646" lon="11.270486574314646"><ele>53.0</ele><time>2026-04-26T14:20:48Z</time></trkpt><trkpt lat="43.76993200844489" lon="11.270445535044464"><ele>53.333333333333336</ele><time>2026-04-26T14:20:50Z</time></trkpt><trkpt lat="43.76984304629227" lon="11.270399043974123"><ele>53.66666666666667</ele><time>2026-04-26T14:20:52Z</time></trkpt><trkpt lat="43.76976335847976" lon="11.270352751053673"><ele>54.0</ele><time>2026-04-26T14:20:54Z</time></trkpt><trkpt lat="43.769695626882665" lon="11.270319197669245"><ele>54.33333333333333</ele><time>2026-04-26T14:20:56Z</time></trkpt><trkpt lat="43.76963075916831" lon="11.2702755021949"><ele>54.666666666666664</ele><time>2026-04-26T14:20:58Z</time></trkpt><trkpt lat="43.76955423057226" lon="11.270236035392275"><ele>55.0</ele><time>2026-04-26T14:21:00Z</time></trkpt><trkpt lat="43.76947392849565" lon="11.27018974886176"><ele>54.99999999999999</ele><time>2026-04-26T14:21:02Z</time></trkpt><trkpt lat="43.76941271397888" lon="11.270151105046676"><ele>55.0</ele><time>2026-04-26T14:21:04Z</time></trkpt><trkpt lat="43.76935037466211" lon="11.270125120718191"><ele>55.0</ele><time>2026-04-26T14:21:07Z</time></trkpt><trkpt lat="43.769273835784205" lon="11.270060937204272"><ele>55.0</ele><time>2026-04-26T14:21:43Z</time></trkpt><trkpt lat="43.76918649682042" lon="11.270007073898073"><ele>54.99999999999999</ele><time>2026-04-26T14:21:45Z</time></trkpt><trkpt lat="43.769093838121236" lon="11.269962151433242"><ele>55.0</ele><time>2026-04-26T14:21:47Z</time></trkpt><trkpt lat="43.76897761951698" lon="11.269900983506298"><ele>54.83333333333333</ele><time>2026-04-26T14:21:49Z</time></trkpt><trkpt lat="43.76890869626461" lon="11.269861463328269"><ele>54.666666666666664</ele><time>2026-04-26T14:21:50Z</time></trkpt><trkpt lat="43.76884402922253" lon="11.269820492282683"><ele>54.5</ele><time>2026-04-26T14:21:51Z</time></trkpt><trkpt lat="43.76878019747929" lon="11.269785198954184"><ele>54.33333333333333</ele><time>2026-04-26T14:21:52Z</time></trkpt><trkpt lat="43.76870807929366" lon="11.26974768806208"><ele>54.166666666666664</ele><time>2026-04-26T14:21:53Z</time></trkpt><trkpt lat="43.768628573176414" lon="11.26970523132395"><ele>54.0</ele><time>2026-04-26T14:21:54Z</time></trkpt><trkpt lat="43.76855491074253" lon="11.269651678335673"><ele>54.2</ele><time>2026-04-26T14:21:55Z</time></trkpt><trkpt lat="43.76847437928415" lon="11.269599005891695"><ele>54.400000000000006</ele><time>2026-04-26T14:21:56Z</time></trkpt><trkpt lat="43.76837681156433" lon="11.269548419069013"><ele>54.6</ele><time>2026-04-26T14:21:57Z</time></trkpt><trkpt lat="43.76829592579914" lon="11.269502955967015"><ele>54.8</ele><time>2026-04-26T14:21:58Z</time></trkpt><trkpt lat="43.76821193271977" lon="11.269459152867062"><ele>55.0</ele><time>2026-04-26T14:21:59Z</time></trkpt><trkpt lat="43.76812055602649" lon="11.269412023353452"><ele>55.0</ele><time>2026-04-26T14:22:00Z</time></trkpt><trkpt lat="43.76804826727613" lon="11.269335490270525"><ele>55.0</ele><time>2026-04-26T14:22:01Z</time></trkpt><trkpt lat="43.76796034110161" lon="11.269288308408184"><ele>55.0</ele><time>2026-04-26T14:22:02Z</time></trkpt><trkpt lat="43.767862131234054" lon="11.26924502969241"><ele>55.0</ele><time>2026-04-26T14:22:03Z</time></trkpt><trkpt lat="43.76776933548414" lon="11.2691997423417"><ele>55.0</ele><time>2026-04-26T14:22:04Z</time></trkpt><trkpt lat="43.76767813801296" lon="11.269146766025198"><ele>55.0</ele><time>2026-04-26T14:22:05Z</time></trkpt><trkpt lat="43.76758331298096" lon="11.269093439582536"><ele>55.0</ele><time>2026-04-26T14:22:06Z</time></trkpt><trkpt lat="43.76750556693746" lon="11.269056809177869"><ele>55.0</ele><time>2026-04-26T14:22:07Z</time></trkpt><trkpt lat="43.76740792921202" lon="11.268997755062449"><ele>55.0</ele><time>2026-04-26T14:22:08Z</time></trkpt><trkpt lat="43.767307697799446" lon="11.26894045901108"><ele>55.0</ele><time>2026-04-26T14:22:09Z</time></trkpt><trkpt lat="43.767218277653825" lon="11.268893808744462"><ele>54.83333333333333</ele><time>2026-04-26T14:22:10Z</time></trkpt><trkpt lat="43.7671425324331" lon="11.268852471486557"><ele>54.666666666666664</ele><time>2026-04-26T14:22:11Z</time></trkpt><trkpt lat="43.767025789168194" lon="11.268785622330947"><ele>54.5</ele><time>2026-04-26T14:22:13Z</time></trkpt><trkpt lat="43.76695044677895" lon="11.268747093134262"><ele>54.33333333333333</ele><time>2026-04-26T14:22:14Z</time></trkpt><trkpt lat="43.76688621408546" lon="11.268710962780697"><ele>54.166666666666664</ele><time>2026-04-26T14:22:15Z</time></trkpt><trkpt lat="43.766819635062525" lon="11.268672691116889"><ele>54.0</ele><time>2026-04-26T14:22:16Z</time></trkpt><trkpt lat="43.76676250897995" lon="11.268625070871172"><ele>53.333333333333336</ele><time>2026-04-26T14:22:17Z</time></trkpt><trkpt lat="43.76665390238546" lon="11.268521602819629"><ele>52.66666666666667</ele><time>2026-04-26T14:22:19Z</time></trkpt><trkpt lat="43.766593417330654" lon="11.268470154089517"><ele>52.0</ele><time>2026-04-26T14:22:20Z</time></trkpt><trkpt lat="43.7665291452267" lon="11.26840523528337"><ele>51.333333333333336</ele><time>2026-04-26T14:22:21Z</time></trkpt><trkpt lat="43.7664764014062" lon="11.268335828868523"><ele>50.66666666666667</ele><time>2026-04-26T14:22:22Z</time></trkpt><trkpt lat="43.766412452544365" lon="11.26827569184857"><ele>50.0</ele><time>2026-04-26T14:22:23Z</time></trkpt><trkpt lat="43.76636366854249" lon="11.268204411989053"><ele>50.0</ele><time>2026-04-26T14:22:24Z</time></trkpt><trkpt lat="43.76628328438459" lon="11.268106053414082"><ele>50.0</ele><time>2026-04-26T14:22:26Z</time></trkpt><trkpt lat="43.76622681879566" lon="11.268059182124206"><ele>50.0</ele><time>2026-04-26T14:22:28Z</time></trkpt><trkpt lat="43.76611261808314" lon="11.268245358585363"><ele>50.0</ele><time>2026-04-26T14:22:29Z</time></trkpt><trkpt lat="43.76608695802573" lon="11.26842607219783"><ele>50.00000000000001</ele><time>2026-04-26T14:22:31Z</time></trkpt><trkpt lat="43.76607666324487" lon="11.268520198188689"><ele>50.0</ele><time>2026-04-26T14:22:32Z</time></trkpt><trkpt lat="43.76606667160085" lon="11.268610823099042"><ele>50.0</ele><time>2026-04-26T14:22:33Z</time></trkpt><trkpt lat="43.766061010774784" lon="11.268707659538679"><ele>50.0</ele><time>2026-04-26T14:22:34Z</time></trkpt><trkpt lat="43.76605117861248" lon="11.268814389478472"><ele>50.00000000000001</ele><time>2026-04-26T14:22:35Z</time></trkpt><trkpt lat="43.76606026023936" lon="11.268910181107954"><ele>50.0</ele><time>2026-04-26T14:22:36Z</time></trkpt><trkpt lat="43.76605100291824" lon="11.269089997808083"><ele>49.66666666666667</ele><time>2026-04-26T14:22:38Z</time></trkpt><trkpt lat="43.766034165976826" lon="11.269248588913213"><ele>49.333333333333336</ele><time>2026-04-26T14:22:40Z</time></trkpt><trkpt lat="43.76601092477559" lon="11.269332484844192"><ele>49.0</ele><time>2026-04-26T14:22:41Z</time></trkpt><trkpt lat="43.766012354735075" lon="11.269433172535372"><ele>48.66666666666667</ele><time>2026-04-26T14:22:42Z</time></trkpt><trkpt lat="43.765997226046146" lon="11.269527958210263"><ele>48.333333333333336</ele><time>2026-04-26T14:22:43Z</time></trkpt><trkpt lat="43.76598924850587" lon="11.2696292261981"><ele>48.0</ele><time>2026-04-26T14:22:44Z</time></trkpt><trkpt lat="43.765984755888" lon="11.269731788991358"><ele>48.833333333333336</ele><time>2026-04-26T14:22:45Z</time></trkpt><trkpt lat="43.765977332124585" lon="11.269834053152048"><ele>49.66666666666667</ele><time>2026-04-26T14:22:46Z</time></trkpt><trkpt lat="43.76596172387742" lon="11.269939602631997"><ele>50.5</ele><time>2026-04-26T14:22:47Z</time></trkpt><trkpt lat="43.76595324068856" lon="11.270048950007954"><ele>51.333333333333336</ele><time>2026-04-26T14:22:48Z</time></trkpt><trkpt lat="43.76594377169356" lon="11.270153921487601"><ele>52.16666666666667</ele><time>2026-04-26T14:22:49Z</time></trkpt><trkpt lat="43.76593846441057" lon="11.270258082358964"><ele>53.0</ele><time>2026-04-26T14:22:50Z</time></trkpt><trkpt lat="43.7659220641903" lon="11.270393203567727"><ele>53.00000000000001</ele><time>2026-04-26T14:22:52Z</time></trkpt><trkpt lat="43.76592697525347" lon="11.270512679801188"><ele>53.0</ele><time>2026-04-26T14:22:54.001Z</time></trkpt><trkpt lat="43.76593217061025" lon="11.27062656928889"><ele>53.0</ele><time>2026-04-26T14:22:56.001Z</time></trkpt><trkpt lat="43.76593629548958" lon="11.270728962309827"><ele>53.0</ele><time>2026-04-26T14:22:58.001Z</time></trkpt><trkpt lat="43.76594479021896" lon="11.270831883135177"><ele>53.00000000000001</ele><time>2026-04-26T14:23:01.001Z</time></trkpt><trkpt lat="43.765929392006015" lon="11.270926722975641"><ele>53.0</ele><time>2026-04-26T14:23:12.001Z</time></trkpt><trkpt lat="43.76592576333201" lon="11.271062457509446"><ele>53.0</ele><time>2026-04-26T14:23:14.001Z</time></trkpt><trkpt lat="43.76591615130725" lon="11.27121130868607"><ele>53.0</ele><time>2026-04-26T14:23:16.001Z</time></trkpt><trkpt lat="43.765875066141355" lon="11.27137504753403"><ele>53.0</ele><time>2026-04-26T14:23:18.001Z</time></trkpt><trkpt lat="43.76585318340313" lon="11.271471684814603"><ele>53.0</ele><time>2026-04-26T14:23:19.001Z</time></trkpt><trkpt lat="43.76584004281375" lon="11.271580069793036"><ele>53.0</ele><time>2026-04-26T14:23:20.001Z</time></trkpt><trkpt lat="43.76583681923897" lon="11.271701793329433"><ele>53.599999999999994</ele><time>2026-04-26T14:23:21Z</time></trkpt><trkpt lat="43.76583513317631" lon="11.271839337470409"><ele>54.199999999999996</ele><time>2026-04-26T14:23:22Z</time></trkpt><trkpt lat="43.76583068260607" lon="11.271977073692247"><ele>54.8</ele><time>2026-04-26T14:23:23Z</time></trkpt><trkpt lat="43.76582041540219" lon="11.272126388326623"><ele>55.4</ele><time>2026-04-26T14:23:24Z</time></trkpt><trkpt lat="43.76580316348533" lon="11.272272986900418"><ele>56.0</ele><time>2026-04-26T14:23:25Z</time></trkpt><trkpt lat="43.76580280276233" lon="11.272438695078215"><ele>56.5</ele><time>2026-04-26T14:23:26Z</time></trkpt><trkpt lat="43.765802339166314" lon="11.272602244241321"><ele>57.0</ele><time>2026-04-26T14:23:27Z</time></trkpt><trkpt lat="43.765791900141565" lon="11.272771916056094"><ele>57.5</ele><time>2026-04-26T14:23:28Z</time></trkpt><trkpt lat="43.76577738869262" lon="11.272944761336051"><ele>58.0</ele><time>2026-04-26T14:23:29Z</time></trkpt><trkpt lat="43.765766472151896" lon="11.273116056175674"><ele>58.25</ele><time>2026-04-26T14:23:30Z</time></trkpt><trkpt lat="43.76577018757939" lon="11.27329680685701"><ele>58.5</ele><time>2026-04-26T14:23:31Z</time></trkpt><trkpt lat="43.765770199098704" lon="11.273478295968706"><ele>58.75</ele><time>2026-04-26T14:23:32Z</time></trkpt><trkpt lat="43.76575042670248" lon="11.27365328514036"><ele>59.0</ele><time>2026-04-26T14:23:33Z</time></trkpt><trkpt lat="43.765742041155036" lon="11.273825737292134"><ele>58.75</ele><time>2026-04-26T14:23:34Z</time></trkpt><trkpt lat="43.7657210000268" lon="11.273997437006035"><ele>58.5</ele><time>2026-04-26T14:23:35Z</time></trkpt><trkpt lat="43.7657142690709" lon="11.274173618335649"><ele>58.25</ele><time>2026-04-26T14:23:36Z</time></trkpt><trkpt lat="43.765702008398904" lon="11.274351900305131"><ele>58.0</ele><time>2026-04-26T14:23:37Z</time></trkpt><trkpt lat="43.76569113635906" lon="11.274526767317719"><ele>58.0</ele><time>2026-04-26T14:23:38Z</time></trkpt><trkpt lat="43.765679986912964" lon="11.274706226248313"><ele>58.0</ele><time>2026-04-26T14:23:39Z</time></trkpt><trkpt lat="43.76567236220508" lon="11.274877056758193"><ele>58.0</ele><time>2026-04-26T14:23:40Z</time></trkpt><trkpt lat="43.76565828101903" lon="11.275040374149569"><ele>58.0</ele><time>2026-04-26T14:23:41Z</time></trkpt><trkpt lat="43.76565074825134" lon="11.275182565783853"><ele>57.33333333333333</ele><time>2026-04-26T14:23:42Z</time></trkpt><trkpt lat="43.76563738326174" lon="11.275317235470801"><ele>56.666666666666664</ele><time>2026-04-26T14:23:43Z</time></trkpt><trkpt lat="43.765629519785065" lon="11.27544014671191"><ele>56.0</ele><time>2026-04-26T14:23:44Z</time></trkpt><trkpt lat="43.76561843445443" lon="11.275544474291209"><ele>55.33333333333333</ele><time>2026-04-26T14:23:45Z</time></trkpt><trkpt lat="43.76560630524798" lon="11.275695052644695"><ele>54.666666666666664</ele><time>2026-04-26T14:23:47Z</time></trkpt><trkpt lat="43.7656127346626" lon="11.27578369283253"><ele>54.0</ele><time>2026-04-26T14:23:49Z</time></trkpt><trkpt lat="43.765607134596856" lon="11.275910035896962"><ele>53.666666666666664</ele><time>2026-04-26T14:24:27Z</time></trkpt><trkpt lat="43.765589762727316" lon="11.276058517883758"><ele>53.33333333333333</ele><time>2026-04-26T14:24:29.001Z</time></trkpt><trkpt lat="43.76557687485216" lon="11.276149858297174"><ele>53.0</ele><time>2026-04-26T14:24:30.001Z</time></trkpt><trkpt lat="43.765568115833744" lon="11.276247576260767"><ele>52.666666666666664</ele><time>2026-04-26T14:24:31.001Z</time></trkpt><trkpt lat="43.765557713063515" lon="11.276355714831956"><ele>52.33333333333333</ele><time>2026-04-26T14:24:32.001Z</time></trkpt><trkpt lat="43.765540045007434" lon="11.276474618294534"><ele>52.0</ele><time>2026-04-26T14:24:33.001Z</time></trkpt><trkpt lat="43.76552840489795" lon="11.276600932223243"><ele>52.8</ele><time>2026-04-26T14:24:34.001Z</time></trkpt><trkpt lat="43.76551387768263" lon="11.276738832504199"><ele>53.6</ele><time>2026-04-26T14:24:35.001Z</time></trkpt><trkpt lat="43.76550331665575" lon="11.276883018140156"><ele>54.39999999999999</ele><time>2026-04-26T14:24:36.001Z</time></trkpt><trkpt lat="43.76548984115378" lon="11.277034783590851"><ele>55.199999999999996</ele><time>2026-04-26T14:24:37.001Z</time></trkpt><trkpt lat="43.76548341288489" lon="11.277194301168802"><ele>56.0</ele><time>2026-04-26T14:24:38.001Z</time></trkpt><trkpt lat="43.76546474640064" lon="11.277361701055318"><ele>56.0</ele><time>2026-04-26T14:24:39.001Z</time></trkpt><trkpt lat="43.765456464084366" lon="11.277532244772217"><ele>56.0</ele><time>2026-04-26T14:24:40.001Z</time></trkpt><trkpt lat="43.765443285388116" lon="11.277693503504592"><ele>56.0</ele><time>2026-04-26T14:24:41.001Z</time></trkpt><trkpt lat="43.76543121392893" lon="11.27785149202516"><ele>56.0</ele><time>2026-04-26T14:24:42.001Z</time></trkpt><trkpt lat="43.76541875090341" lon="11.27800933322866"><ele>55.75</ele><time>2026-04-26T14:24:43.001Z</time></trkpt><trkpt lat="43.765408883469526" lon="11.278173828243508"><ele>55.5</ele><time>2026-04-26T14:24:44.001Z</time></trkpt><trkpt lat="43.76539807236406" lon="11.278335835031921"><ele>55.25</ele><time>2026-04-26T14:24:45.001Z</time></trkpt><trkpt lat="43.765379727679104" lon="11.27850034861528"><ele>55.0</ele><time>2026-04-26T14:24:46.001Z</time></trkpt><trkpt lat="43.76537356580364" lon="11.278654945803146"><ele>55.0</ele><time>2026-04-26T14:24:47.001Z</time></trkpt><trkpt lat="43.76537435714592" lon="11.278809631677307"><ele>55.0</ele><time>2026-04-26T14:24:48.001Z</time></trkpt><trkpt lat="43.765381932435815" lon="11.278966477896473"><ele>55.0</ele><time>2026-04-26T14:24:49.001Z</time></trkpt><trkpt lat="43.765397589865415" lon="11.279126709081103"><ele>55.0</ele><time>2026-04-26T14:24:50.001Z</time></trkpt><trkpt lat="43.765418454838965" lon="11.279287747734058"><ele>55.0</ele><time>2026-04-26T14:24:51.001Z</time></trkpt><trkpt lat="43.765438525265914" lon="11.279444258167784"><ele>55.0</ele><time>2026-04-26T14:24:52.001Z</time></trkpt><trkpt lat="43.765468587150814" lon="11.27959928211519"><ele>55.0</ele><time>2026-04-26T14:24:53.001Z</time></trkpt><trkpt lat="43.76548972319295" lon="11.279754322609925"><ele>55.0</ele><time>2026-04-26T14:24:54.001Z</time></trkpt><trkpt lat="43.76549914924445" lon="11.279911803876928"><ele>55.0</ele><time>2026-04-26T14:24:55.001Z</time></trkpt><trkpt lat="43.76551649805395" lon="11.28006610151754"><ele>55.0</ele><time>2026-04-26T14:24:56.001Z</time></trkpt><trkpt lat="43.76553923778654" lon="11.280217251275149"><ele>55.0</ele><time>2026-04-26T14:24:57.001Z</time></trkpt><trkpt lat="43.765565717462074" lon="11.280373581992224"><ele>55.0</ele><time>2026-04-26T14:24:58.001Z</time></trkpt><trkpt lat="43.765586067713194" lon="11.280506746702127"><ele>55.0</ele><time>2026-04-26T14:24:59.001Z</time></trkpt><trkpt lat="43.765598362567225" lon="11.280639749388522"><ele>54.99999999999999</ele><time>2026-04-26T14:25:00.001Z</time></trkpt><trkpt lat="43.765607008209294" lon="11.280752164995752"><ele>55.0</ele><time>2026-04-26T14:25:01.001Z</time></trkpt><trkpt lat="43.76561608700001" lon="11.280870737608055"><ele>55.0</ele><time>2026-04-26T14:25:02.001Z</time></trkpt><trkpt lat="43.76561954024571" lon="11.281044041395695"><ele>55.0</ele><time>2026-04-26T14:25:04.001Z</time></trkpt><trkpt lat="43.76563353266792" lon="11.28113268534921"><ele>54.99999999999999</ele><time>2026-04-26T14:25:07.001Z</time></trkpt><trkpt lat="43.76564666383354" lon="11.28123505804157"><ele>55.0</ele><time>2026-04-26T14:25:13.001Z</time></trkpt><trkpt lat="43.765663569878974" lon="11.281375490129427"><ele>54.83333333333333</ele><time>2026-04-26T14:25:15.001Z</time></trkpt><trkpt lat="43.76568934601093" lon="11.281496743515447"><ele>54.666666666666664</ele><time>2026-04-26T14:25:17.001Z</time></trkpt><trkpt lat="43.76568982088159" lon="11.281637214740064"><ele>54.5</ele><time>2026-04-26T14:25:19.001Z</time></trkpt><trkpt lat="43.765632010506536" lon="11.281767350310242"><ele>54.33333333333333</ele><time>2026-04-26T14:25:21.001Z</time></trkpt><trkpt lat="43.76556989669547" lon="11.281793931310567"><ele>54.166666666666664</ele><time>2026-04-26T14:25:22.001Z</time></trkpt><trkpt lat="43.76549823801341" lon="11.28180078325634"><ele>54.0</ele><time>2026-04-26T14:25:23.001Z</time></trkpt><trkpt lat="43.765430849215534" lon="11.281802939325367"><ele>54.0</ele><time>2026-04-26T14:25:24.001Z</time></trkpt><trkpt lat="43.76534030305445" lon="11.28179171368956"><ele>54.00000000000001</ele><time>2026-04-26T14:25:25.001Z</time></trkpt><trkpt lat="43.765238158019855" lon="11.28177914492679"><ele>54.00000000000001</ele><time>2026-04-26T14:25:26.001Z</time></trkpt><trkpt lat="43.765130092453994" lon="11.281766482940832"><ele>54.0</ele><time>2026-04-26T14:25:27Z</time></trkpt><trkpt lat="43.76501454857248" lon="11.281757351170956"><ele>54.0</ele><time>2026-04-26T14:25:28Z</time></trkpt><trkpt lat="43.764905948855834" lon="11.281742333281075"><ele>53.400000000000006</ele><time>2026-04-26T14:25:29Z</time></trkpt><trkpt lat="43.76480460386496" lon="11.281727061034324"><ele>52.800000000000004</ele><time>2026-04-26T14:25:30Z</time></trkpt><trkpt lat="43.76470775715024" lon="11.281715631300862"><ele>52.2</ele><time>2026-04-26T14:25:31Z</time></trkpt><trkpt lat="43.76461834102971" lon="11.281705805529217"><ele>51.599999999999994</ele><time>2026-04-26T14:25:32Z</time></trkpt><trkpt lat="43.764532096800046" lon="11.281694649836917"><ele>51.0</ele><time>2026-04-26T14:25:33Z</time></trkpt><trkpt lat="43.76445023883054" lon="11.281680499807168"><ele>51.0</ele><time>2026-04-26T14:25:34Z</time></trkpt><trkpt lat="43.76437152370699" lon="11.281667214256158"><ele>51.0</ele><time>2026-04-26T14:25:35Z</time></trkpt><trkpt lat="43.76430169875624" lon="11.281653240671806"><ele>51.0</ele><time>2026-04-26T14:25:36Z</time></trkpt><trkpt lat="43.76423846138576" lon="11.281641638806299"><ele>51.0</ele><time>2026-04-26T14:25:37Z</time></trkpt><trkpt lat="43.76417280904848" lon="11.281626862527945"><ele>51.0</ele><time>2026-04-26T14:25:38Z</time></trkpt><trkpt lat="43.764101805098576" lon="11.28156613067754"><ele>51.0</ele><time>2026-04-26T14:25:40Z</time></trkpt><trkpt lat="43.76400617485705" lon="11.281512272774526"><ele>51.333333333333336</ele><time>2026-04-26T14:25:42Z</time></trkpt><trkpt lat="43.76393459686716" lon="11.28145921222675"><ele>51.66666666666667</ele><time>2026-04-26T14:25:43Z</time></trkpt><trkpt lat="43.763857352919075" lon="11.281431273249913"><ele>52.0</ele><time>2026-04-26T14:25:44Z</time></trkpt><trkpt lat="43.763778484046625" lon="11.281444595649072"><ele>52.333333333333336</ele><time>2026-04-26T14:25:45Z</time></trkpt><trkpt lat="43.763705365284316" lon="11.281487448770116"><ele>52.66666666666667</ele><time>2026-04-26T14:25:46Z</time></trkpt><trkpt lat="43.76363239914971" lon="11.281544638891777"><ele>53.0</ele><time>2026-04-26T14:25:47Z</time></trkpt><trkpt lat="43.76355289629479" lon="11.281617244937877"><ele>52.833333333333336</ele><time>2026-04-26T14:25:48Z</time></trkpt><trkpt lat="43.763472986796835" lon="11.281677232775603"><ele>52.66666666666667</ele><time>2026-04-26T14:25:49Z</time></trkpt><trkpt lat="43.76339209578354" lon="11.281744755397856"><ele>52.5</ele><time>2026-04-26T14:25:50Z</time></trkpt><trkpt lat="43.763328406073924" lon="11.281823984707128"><ele>52.33333333333333</ele><time>2026-04-26T14:25:51Z</time></trkpt><trkpt lat="43.7632481175252" lon="11.281876630409512"><ele>52.166666666666664</ele><time>2026-04-26T14:25:52Z</time></trkpt><trkpt lat="43.76318413548858" lon="11.281945538744797"><ele>52.0</ele><time>2026-04-26T14:25:53Z</time></trkpt><trkpt lat="43.76311531959421" lon="11.282002101471384"><ele>51.99999999999999</ele><time>2026-04-26T14:25:54Z</time></trkpt><trkpt lat="43.76304555145786" lon="11.282076214853456"><ele>52.0</ele><time>2026-04-26T14:25:55Z</time></trkpt><trkpt lat="43.76297467469644" lon="11.282141445708199"><ele>52.0</ele><time>2026-04-26T14:25:56Z</time></trkpt><trkpt lat="43.76290137053239" lon="11.282205470131602"><ele>52.0</ele><time>2026-04-26T14:25:57Z</time></trkpt><trkpt lat="43.76283588939973" lon="11.282266248868542"><ele>51.99999999999999</ele><time>2026-04-26T14:25:58Z</time></trkpt><trkpt lat="43.76278343453676" lon="11.282318966050145"><ele>52.0</ele><time>2026-04-26T14:25:59Z</time></trkpt><trkpt lat="43.76272780341861" lon="11.282366180042922"><ele>52.33333333333333</ele><time>2026-04-26T14:26:00Z</time></trkpt><trkpt lat="43.76263409680622" lon="11.282459362673084"><ele>52.666666666666664</ele><time>2026-04-26T14:26:02Z</time></trkpt><trkpt lat="43.762575545187985" lon="11.282504335115272"><ele>53.0</ele><time>2026-04-26T14:26:03Z</time></trkpt><trkpt lat="43.762519993145226" lon="11.282552512604973"><ele>53.33333333333333</ele><time>2026-04-26T14:26:04Z</time></trkpt><trkpt lat="43.76246312688908" lon="11.282599356442025"><ele>53.666666666666664</ele><time>2026-04-26T14:26:05Z</time></trkpt><trkpt lat="43.7624088464678" lon="11.282645243101442"><ele>54.0</ele><time>2026-04-26T14:26:06Z</time></trkpt><trkpt lat="43.762326555788135" lon="11.282735679022108"><ele>54.0</ele><time>2026-04-26T14:26:08Z</time></trkpt><trkpt lat="43.762285574146944" lon="11.282809238523758"><ele>54.0</ele><time>2026-04-26T14:26:09Z</time></trkpt><trkpt lat="43.76223774236056" lon="11.282875185181105"><ele>54.0</ele><time>2026-04-26T14:26:10Z</time></trkpt><trkpt lat="43.76213152033144" lon="11.282963268057776"><ele>54.0</ele><time>2026-04-26T14:26:12Z</time></trkpt><trkpt lat="43.76207044816791" lon="11.283003648727659"><ele>54.0</ele><time>2026-04-26T14:26:13Z</time></trkpt><trkpt lat="43.762006024094845" lon="11.2830484290496"><ele>54.0</ele><time>2026-04-26T14:26:14Z</time></trkpt><trkpt lat="43.76195247407064" lon="11.283102688918927"><ele>54.0</ele><time>2026-04-26T14:26:15Z</time></trkpt><trkpt lat="43.76187348119791" lon="11.283185527861432"><ele>54.00000000000001</ele><time>2026-04-26T14:26:17Z</time></trkpt><trkpt lat="43.761817269854276" lon="11.283227606199995"><ele>54.00000000000001</ele><time>2026-04-26T14:26:18Z</time></trkpt><trkpt lat="43.7617433075987" lon="11.283291167836312"><ele>54.0</ele><time>2026-04-26T14:26:19Z</time></trkpt><trkpt lat="43.7616669833913" lon="11.283399416361366"><ele>54.0</ele><time>2026-04-26T14:26:20Z</time></trkpt><trkpt lat="43.761579428537" lon="11.283488170957408"><ele>54.0</ele><time>2026-04-26T14:26:21Z</time></trkpt><trkpt lat="43.761476964383434" lon="11.283562576587132"><ele>54.00000000000001</ele><time>2026-04-26T14:26:22Z</time></trkpt><trkpt lat="43.76138201783284" lon="11.283638663520195"><ele>54.00000000000001</ele><time>2026-04-26T14:26:23Z</time></trkpt><trkpt lat="43.76129774607859" lon="11.283729578783554"><ele>54.0</ele><time>2026-04-26T14:26:24Z</time></trkpt><trkpt lat="43.76122082674436" lon="11.283803627031375"><ele>54.0</ele><time>2026-04-26T14:26:25Z</time></trkpt><trkpt lat="43.761151049299315" lon="11.283867377668152"><ele>54.0</ele><time>2026-04-26T14:26:26Z</time></trkpt><trkpt lat="43.76108802646976" lon="11.28392162607194"><ele>54.0</ele><time>2026-04-26T14:26:27Z</time></trkpt><trkpt lat="43.76100663560852" lon="11.283938874726008"><ele>54.0</ele><time>2026-04-26T14:26:28Z</time></trkpt><trkpt lat="43.76094944288651" lon="11.283982955644978"><ele>54.0</ele><time>2026-04-26T14:26:30Z</time></trkpt><trkpt lat="43.760904662225755" lon="11.284048942266203"><ele>54.0</ele><time>2026-04-26T14:26:33Z</time></trkpt><trkpt lat="43.76084298598211" lon="11.284140097814502"><ele>54.0</ele><time>2026-04-26T14:26:35Z</time></trkpt><trkpt lat="43.76083269167689" lon="11.284238073413746"><ele>54.0</ele><time>2026-04-26T14:26:36Z</time></trkpt><trkpt lat="43.760770006159845" lon="11.284275431889297"><ele>53.857142857142854</ele><time>2026-04-26T14:26:37Z</time></trkpt><trkpt lat="43.76071804823213" lon="11.284344011405077"><ele>53.71428571428571</ele><time>2026-04-26T14:26:38Z</time></trkpt><trkpt lat="43.76067616182393" lon="11.284413569858353"><ele>53.57142857142857</ele><time>2026-04-26T14:26:39Z</time></trkpt><trkpt lat="43.76060098022123" lon="11.284420055925215"><ele>53.42857142857143</ele><time>2026-04-26T14:26:40Z</time></trkpt><trkpt lat="43.76054659948969" lon="11.284466318387318"><ele>53.285714285714285</ele><time>2026-04-26T14:26:41Z</time></trkpt><trkpt lat="43.76047836417809" lon="11.284525865838024"><ele>53.142857142857146</ele><time>2026-04-26T14:26:42Z</time></trkpt><trkpt lat="43.7604139575593" lon="11.284582463910555"><ele>53.0</ele><time>2026-04-26T14:26:43.001Z</time></trkpt><trkpt lat="43.760349952617" lon="11.284639527070945"><ele>53.00000000000001</ele><time>2026-04-26T14:26:44.001Z</time></trkpt><trkpt lat="43.7602874310077" lon="11.284695267777053"><ele>53.0</ele><time>2026-04-26T14:26:45.001Z</time></trkpt><trkpt lat="43.7602202499638" lon="11.28475837841396"><ele>53.0</ele><time>2026-04-26T14:26:46.001Z</time></trkpt><trkpt lat="43.76016188916344" lon="11.284818834593596"><ele>53.0</ele><time>2026-04-26T14:26:47.001Z</time></trkpt><trkpt lat="43.760094221793715" lon="11.284887507492083"><ele>53.00000000000001</ele><time>2026-04-26T14:26:48.001Z</time></trkpt><trkpt lat="43.76003671620378" lon="11.284967949929934"><ele>53.0</ele><time>2026-04-26T14:26:49.001Z</time></trkpt><trkpt lat="43.75994912665175" lon="11.285020216982991"><ele>53.00000000000001</ele><time>2026-04-26T14:26:50.001Z</time></trkpt><trkpt lat="43.75988447321572" lon="11.285075332440831"><ele>53.0</ele><time>2026-04-26T14:26:51.001Z</time></trkpt><trkpt lat="43.759818584177815" lon="11.28514529039538"><ele>53.0</ele><time>2026-04-26T14:26:52.001Z</time></trkpt><trkpt lat="43.759752124955746" lon="11.285211601267259"><ele>53.0</ele><time>2026-04-26T14:26:53.001Z</time></trkpt><trkpt lat="43.75967989674587" lon="11.285279541914564"><ele>53.00000000000001</ele><time>2026-04-26T14:26:54.001Z</time></trkpt><trkpt lat="43.759607917525116" lon="11.285349107123603"><ele>53.0</ele><time>2026-04-26T14:26:55.001Z</time></trkpt><trkpt lat="43.759526250743846" lon="11.285418468954928"><ele>53.0</ele><time>2026-04-26T14:26:56.001Z</time></trkpt><trkpt lat="43.759446803214615" lon="11.285496014089123"><ele>53.0</ele><time>2026-04-26T14:26:57.001Z</time></trkpt><trkpt lat="43.75936313039199" lon="11.285571811324708"><ele>53.0</ele><time>2026-04-26T14:26:58.001Z</time></trkpt><trkpt lat="43.75928356895822" lon="11.28564841107815"><ele>53.0</ele><time>2026-04-26T14:26:59.001Z</time></trkpt><trkpt lat="43.75920330461079" lon="11.285732215703625"><ele>53.0</ele><time>2026-04-26T14:27:00.001Z</time></trkpt><trkpt lat="43.75912014835376" lon="11.285810397951437"><ele>53.2</ele><time>2026-04-26T14:27:01.001Z</time></trkpt><trkpt lat="43.75903799803047" lon="11.285877455185409"><ele>53.4</ele><time>2026-04-26T14:27:02.001Z</time></trkpt><trkpt lat="43.758956806907676" lon="11.28594784695029"><ele>53.60000000000001</ele><time>2026-04-26T14:27:03.001Z</time></trkpt><trkpt lat="43.75888060915433" lon="11.286019674936183"><ele>53.800000000000004</ele><time>2026-04-26T14:27:04.001Z</time></trkpt><trkpt lat="43.758803599677705" lon="11.28610052649325"><ele>54.0</ele><time>2026-04-26T14:27:05.001Z</time></trkpt><trkpt lat="43.75872795124415" lon="11.286177401438904"><ele>54.0</ele><time>2026-04-26T14:27:06.001Z</time></trkpt><trkpt lat="43.75864598433236" lon="11.28625122156919"><ele>54.00000000000001</ele><time>2026-04-26T14:27:07.001Z</time></trkpt><trkpt lat="43.75856924791387" lon="11.286323059002335"><ele>54.00000000000001</ele><time>2026-04-26T14:27:08.001Z</time></trkpt><trkpt lat="43.758499757386545" lon="11.286391583318705"><ele>54.0</ele><time>2026-04-26T14:27:09.001Z</time></trkpt><trkpt lat="43.758423201658495" lon="11.286465575653684"><ele>54.0</ele><time>2026-04-26T14:27:10.001Z</time></trkpt><trkpt lat="43.758345451481404" lon="11.286541626388981"><ele>54.0</ele><time>2026-04-26T14:27:11.001Z</time></trkpt><trkpt lat="43.75827411693356" lon="11.286614512137534"><ele>54.0</ele><time>2026-04-26T14:27:12.001Z</time></trkpt><trkpt lat="43.75820943585154" lon="11.286674501949"><ele>54.0</ele><time>2026-04-26T14:27:13.001Z</time></trkpt><trkpt lat="43.75815161259218" lon="11.286725791035922"><ele>54.0</ele><time>2026-04-26T14:27:14.001Z</time></trkpt><trkpt lat="43.75809126378856" lon="11.286773630250261"><ele>54.0</ele><time>2026-04-26T14:27:15.001Z</time></trkpt><trkpt lat="43.758029108601" lon="11.286838142149167"><ele>54.0</ele><time>2026-04-26T14:27:16.001Z</time></trkpt><trkpt lat="43.757962441380386" lon="11.286890740459144"><ele>54.0</ele><time>2026-04-26T14:27:17.001Z</time></trkpt><trkpt lat="43.75789450546785" lon="11.286962511622226"><ele>54.0</ele><time>2026-04-26T14:27:18.001Z</time></trkpt><trkpt lat="43.75782106252599" lon="11.287017424756042"><ele>54.0</ele><time>2026-04-26T14:27:19.001Z</time></trkpt><trkpt lat="43.75774770161566" lon="11.287070595052608"><ele>54.0</ele><time>2026-04-26T14:27:20.001Z</time></trkpt><trkpt lat="43.757671893741595" lon="11.28712367187717"><ele>54.0</ele><time>2026-04-26T14:27:21.001Z</time></trkpt><trkpt lat="43.75760337966164" lon="11.287206222636724"><ele>54.0</ele><time>2026-04-26T14:27:22.001Z</time></trkpt><trkpt lat="43.757537101267914" lon="11.287283790340528"><ele>53.800000000000004</ele><time>2026-04-26T14:27:23.001Z</time></trkpt><trkpt lat="43.75747127932239" lon="11.287352014961364"><ele>53.60000000000001</ele><time>2026-04-26T14:27:24.001Z</time></trkpt><trkpt lat="43.75739967244771" lon="11.28742509481077"><ele>53.4</ele><time>2026-04-26T14:27:25.001Z</time></trkpt><trkpt lat="43.75731893295336" lon="11.287504774140354"><ele>53.2</ele><time>2026-04-26T14:27:26.001Z</time></trkpt><trkpt lat="43.75724828214684" lon="11.287585427277762"><ele>53.0</ele><time>2026-04-26T14:27:27.001Z</time></trkpt><trkpt lat="43.757172770528484" lon="11.287651183979214"><ele>53.0</ele><time>2026-04-26T14:27:28.001Z</time></trkpt><trkpt lat="43.757085360875855" lon="11.287721067207498"><ele>53.0</ele><time>2026-04-26T14:27:29.001Z</time></trkpt><trkpt lat="43.75700531916783" lon="11.287786373678065"><ele>53.0</ele><time>2026-04-26T14:27:30.001Z</time></trkpt><trkpt lat="43.75692011325223" lon="11.287867055049496"><ele>53.0</ele><time>2026-04-26T14:27:31.001Z</time></trkpt><trkpt lat="43.75684534300654" lon="11.287948835876158"><ele>53.0</ele><time>2026-04-26T14:27:32.001Z</time></trkpt><trkpt lat="43.75676786872338" lon="11.288024012885026"><ele>53.0</ele><time>2026-04-26T14:27:32.999Z</time></trkpt><trkpt lat="43.75669999239142" lon="11.288089525734065"><ele>53.0</ele><time>2026-04-26T14:27:33.999Z</time></trkpt><trkpt lat="43.75666090788469" lon="11.288163248754822"><ele>53.0</ele><time>2026-04-26T14:27:34.999Z</time></trkpt><trkpt lat="43.75663629248247" lon="11.288318014460664"><ele>53.0</ele><time>2026-04-26T14:27:36.999Z</time></trkpt><trkpt lat="43.75660207114912" lon="11.288438195263291"><ele>53.0</ele><time>2026-04-26T14:27:38.999Z</time></trkpt><trkpt lat="43.75657809126337" lon="11.288595019429234"><ele>53.00000000000001</ele><time>2026-04-26T14:27:45.999Z</time></trkpt><trkpt lat="43.75654751768284" lon="11.288744895770096"><ele>53.0</ele><time>2026-04-26T14:27:47.999Z</time></trkpt><trkpt lat="43.756528301321936" lon="11.28883679418032"><ele>53.0</ele><time>2026-04-26T14:27:48.999Z</time></trkpt><trkpt lat="43.75651093691345" lon="11.288930984103429"><ele>53.0</ele><time>2026-04-26T14:27:49.999Z</time></trkpt><trkpt lat="43.75649684684716" lon="11.289029134299971"><ele>53.00000000000001</ele><time>2026-04-26T14:27:50.999Z</time></trkpt><trkpt lat="43.75648161968122" lon="11.28914350214284"><ele>53.0</ele><time>2026-04-26T14:27:51.999Z</time></trkpt><trkpt lat="43.756466272296514" lon="11.289257165114813"><ele>53.0</ele><time>2026-04-26T14:27:52.999Z</time></trkpt><trkpt lat="43.75644093138907" lon="11.289353264519082"><ele>53.0</ele><time>2026-04-26T14:27:53.999Z</time></trkpt><trkpt lat="43.756424647740054" lon="11.289448587213334"><ele>53.0</ele><time>2026-04-26T14:27:54.999Z</time></trkpt><trkpt lat="43.756416383701065" lon="11.289621394555445"><ele>53.0</ele><time>2026-04-26T14:27:56.999Z</time></trkpt><trkpt lat="43.75640227477794" lon="11.289732733983655"><ele>53.0</ele><time>2026-04-26T14:27:57.999Z</time></trkpt><trkpt lat="43.756397149595344" lon="11.28987126144968"><ele>53.0</ele><time>2026-04-26T14:27:58.999Z</time></trkpt><trkpt lat="43.75639945414067" lon="11.290008118990201"><ele>53.0</ele><time>2026-04-26T14:27:59.999Z</time></trkpt><trkpt lat="43.7564057605751" lon="11.290136100505128"><ele>53.0</ele><time>2026-04-26T14:28:00.999Z</time></trkpt><trkpt lat="43.75641806424087" lon="11.29026533963955"><ele>53.0</ele><time>2026-04-26T14:28:01.999Z</time></trkpt><trkpt lat="43.75643603049162" lon="11.290396143710687"><ele>53.0</ele><time>2026-04-26T14:28:02.999Z</time></trkpt><trkpt lat="43.756451095522614" lon="11.290520533166932"><ele>52.8</ele><time>2026-04-26T14:28:03.999Z</time></trkpt><trkpt lat="43.756465365556565" lon="11.290653425907607"><ele>52.599999999999994</ele><time>2026-04-26T14:28:05Z</time></trkpt><trkpt lat="43.75649469851454" lon="11.290783119946914"><ele>52.400000000000006</ele><time>2026-04-26T14:28:06Z</time></trkpt><trkpt lat="43.75649324335797" lon="11.290916602234965"><ele>52.2</ele><time>2026-04-26T14:28:07Z</time></trkpt><trkpt lat="43.75649825288429" lon="11.29105118438498"><ele>52.0</ele><time>2026-04-26T14:28:08Z</time></trkpt><trkpt lat="43.75651537801309" lon="11.291183467289642"><ele>52.0</ele><time>2026-04-26T14:28:09Z</time></trkpt><trkpt lat="43.75652594133349" lon="11.29131442068516"><ele>52.0</ele><time>2026-04-26T14:28:10Z</time></trkpt><trkpt lat="43.756535665025545" lon="11.291442221756133"><ele>52.0</ele><time>2026-04-26T14:28:11Z</time></trkpt><trkpt lat="43.75656479816539" lon="11.291561469717012"><ele>52.0</ele><time>2026-04-26T14:28:12Z</time></trkpt><trkpt lat="43.75657725352327" lon="11.291684935444772"><ele>52.0</ele><time>2026-04-26T14:28:13Z</time></trkpt><trkpt lat="43.756563507311036" lon="11.29179595502061"><ele>52.49999999999999</ele><time>2026-04-26T14:28:14Z</time></trkpt><trkpt lat="43.756573949826645" lon="11.291893438077206"><ele>53.0</ele><time>2026-04-26T14:28:15Z</time></trkpt><trkpt lat="43.756588889100776" lon="11.292003986786973"><ele>53.5</ele><time>2026-04-26T14:28:16Z</time></trkpt><trkpt lat="43.75659874926578" lon="11.292124287296676"><ele>54.0</ele><time>2026-04-26T14:28:17Z</time></trkpt><trkpt lat="43.75661254963922" lon="11.292265534595334"><ele>54.49999999999999</ele><time>2026-04-26T14:28:18Z</time></trkpt><trkpt lat="43.75662807168144" lon="11.292387911960367"><ele>55.0</ele><time>2026-04-26T14:28:19Z</time></trkpt><trkpt lat="43.75664397093813" lon="11.29252429949629"><ele>55.0</ele><time>2026-04-26T14:28:20Z</time></trkpt><trkpt lat="43.75666282622834" lon="11.292663915532653"><ele>55.0</ele><time>2026-04-26T14:28:21Z</time></trkpt><trkpt lat="43.75667937859269" lon="11.292810578305525"><ele>55.0</ele><time>2026-04-26T14:28:22Z</time></trkpt><trkpt lat="43.75669235072819" lon="11.292952862908683"><ele>55.0</ele><time>2026-04-26T14:28:23Z</time></trkpt><trkpt lat="43.756705730766946" lon="11.293092722499253"><ele>55.0</ele><time>2026-04-26T14:28:24Z</time></trkpt><trkpt lat="43.75671641578068" lon="11.293232115922155"><ele>54.8</ele><time>2026-04-26T14:28:25Z</time></trkpt><trkpt lat="43.756730065822225" lon="11.29336985886272"><ele>54.6</ele><time>2026-04-26T14:28:26Z</time></trkpt><trkpt lat="43.7567395827795" lon="11.293508713524982"><ele>54.400000000000006</ele><time>2026-04-26T14:28:27Z</time></trkpt><trkpt lat="43.75674301072068" lon="11.293642627716592"><ele>54.2</ele><time>2026-04-26T14:28:28Z</time></trkpt><trkpt lat="43.756749346085805" lon="11.29375783959095"><ele>54.0</ele><time>2026-04-26T14:28:29Z</time></trkpt><trkpt lat="43.75675678845794" lon="11.293876197249734"><ele>54.2</ele><time>2026-04-26T14:28:30Z</time></trkpt><trkpt lat="43.75676159980425" lon="11.293999689131123"><ele>54.400000000000006</ele><time>2026-04-26T14:28:31Z</time></trkpt><trkpt lat="43.7567701545592" lon="11.294125629819543"><ele>54.6</ele><time>2026-04-26T14:28:32Z</time></trkpt><trkpt lat="43.75678145375726" lon="11.294258637487935"><ele>54.8</ele><time>2026-04-26T14:28:33Z</time></trkpt><trkpt lat="43.7567836461462" lon="11.294403830321473"><ele>55.0</ele><time>2026-04-26T14:28:34Z</time></trkpt><trkpt lat="43.75678858805821" lon="11.294543219017019"><ele>55.0</ele><time>2026-04-26T14:28:35Z</time></trkpt><trkpt lat="43.756793757235116" lon="11.29470009918783"><ele>55.0</ele><time>2026-04-26T14:28:36Z</time></trkpt><trkpt lat="43.756823952763604" lon="11.294864578608209"><ele>55.0</ele><time>2026-04-26T14:28:37Z</time></trkpt><trkpt lat="43.75683620915914" lon="11.295003473404044"><ele>55.0</ele><time>2026-04-26T14:28:38Z</time></trkpt><trkpt lat="43.7568389872787" lon="11.295159799458583"><ele>55.0</ele><time>2026-04-26T14:28:39Z</time></trkpt><trkpt lat="43.75684590484808" lon="11.295313327061901"><ele>55.0</ele><time>2026-04-26T14:28:40Z</time></trkpt><trkpt lat="43.75685269259747" lon="11.295469667260953"><ele>55.0</ele><time>2026-04-26T14:28:41Z</time></trkpt><trkpt lat="43.75686360651887" lon="11.295615891987815"><ele>55.0</ele><time>2026-04-26T14:28:42Z</time></trkpt><trkpt lat="43.75687899774279" lon="11.29574950964353"><ele>55.0</ele><time>2026-04-26T14:28:43Z</time></trkpt><trkpt lat="43.75688632809729" lon="11.295874035606918"><ele>55.83333333333333</ele><time>2026-04-26T14:28:44Z</time></trkpt><trkpt lat="43.75688917478646" lon="11.295976528696835"><ele>56.666666666666664</ele><time>2026-04-26T14:28:45Z</time></trkpt><trkpt lat="43.756898882077195" lon="11.296096471387497"><ele>57.5</ele><time>2026-04-26T14:28:47Z</time></trkpt><trkpt lat="43.75692003337958" lon="11.296201771409514"><ele>58.33333333333333</ele><time>2026-04-26T14:28:56Z</time></trkpt><trkpt lat="43.75691693480906" lon="11.29632332309246"><ele>59.166666666666664</ele><time>2026-04-26T14:28:58Z</time></trkpt><trkpt lat="43.75692581527207" lon="11.29648657147782"><ele>60.0</ele><time>2026-04-26T14:29:00Z</time></trkpt><trkpt lat="43.75692888359176" lon="11.296574508444511"><ele>60.0</ele><time>2026-04-26T14:29:01Z</time></trkpt><trkpt lat="43.756932163047914" lon="11.296668498506499"><ele>60.0</ele><time>2026-04-26T14:29:02Z</time></trkpt><trkpt lat="43.75694168172063" lon="11.296759495639654"><ele>60.0</ele><time>2026-04-26T14:29:03Z</time></trkpt><trkpt lat="43.75694414400113" lon="11.296866394515742"><ele>60.0</ele><time>2026-04-26T14:29:04Z</time></trkpt><trkpt lat="43.75694901460594" lon="11.296970632148003"><ele>60.0</ele><time>2026-04-26T14:29:05Z</time></trkpt><trkpt lat="43.75695888073519" lon="11.297072039918236"><ele>60.0</ele><time>2026-04-26T14:29:06Z</time></trkpt><trkpt lat="43.75696720048024" lon="11.297176933934457"><ele>60.0</ele><time>2026-04-26T14:29:07Z</time></trkpt><trkpt lat="43.75697444588415" lon="11.297290575757136"><ele>59.8</ele><time>2026-04-26T14:29:08Z</time></trkpt><trkpt lat="43.75698821892739" lon="11.297411391278269"><ele>59.6</ele><time>2026-04-26T14:29:09Z</time></trkpt><trkpt lat="43.75699115688329" lon="11.297538505779226"><ele>59.400000000000006</ele><time>2026-04-26T14:29:10Z</time></trkpt><trkpt lat="43.757005497285704" lon="11.2976620210436"><ele>59.2</ele><time>2026-04-26T14:29:11Z</time></trkpt><trkpt lat="43.75700638085028" lon="11.297788547868288"><ele>59.0</ele><time>2026-04-26T14:29:12Z</time></trkpt><trkpt lat="43.75700910761791" lon="11.297920509986382"><ele>59.00000000000001</ele><time>2026-04-26T14:29:13Z</time></trkpt><trkpt lat="43.75700159915933" lon="11.298051176359191"><ele>59.0</ele><time>2026-04-26T14:29:14Z</time></trkpt><trkpt lat="43.756989443456405" lon="11.298177408558724"><ele>59.0</ele><time>2026-04-26T14:29:15Z</time></trkpt><trkpt lat="43.7569809604737" lon="11.298293734018172"><ele>59.0</ele><time>2026-04-26T14:29:16Z</time></trkpt><trkpt lat="43.75696938862777" lon="11.298386321862845"><ele>59.00000000000001</ele><time>2026-04-26T14:29:17Z</time></trkpt><trkpt lat="43.756944877174064" lon="11.298519324118041"><ele>59.0</ele><time>2026-04-26T14:29:19Z</time></trkpt><trkpt lat="43.75693043755592" lon="11.298607890784478"><ele>58.800000000000004</ele><time>2026-04-26T14:29:23.001Z</time></trkpt><trkpt lat="43.756912525087664" lon="11.29870154961136"><ele>58.60000000000001</ele><time>2026-04-26T14:29:25.001Z</time></trkpt><trkpt lat="43.75686786898982" lon="11.298830875814978"><ele>58.4</ele><time>2026-04-26T14:29:27.001Z</time></trkpt><trkpt lat="43.75669857550137" lon="11.298773371280177"><ele>58.2</ele><time>2026-04-26T14:29:30.001Z</time></trkpt><trkpt lat="43.75661453915846" lon="11.298729300420542"><ele>58.0</ele><time>2026-04-26T14:29:31.001Z</time></trkpt><trkpt lat="43.75652829577111" lon="11.298684881330182"><ele>58.4</ele><time>2026-04-26T14:29:32.001Z</time></trkpt><trkpt lat="43.75643452003311" lon="11.298642776168592"><ele>58.8</ele><time>2026-04-26T14:29:33.001Z</time></trkpt><trkpt lat="43.75633577938065" lon="11.298600732082067"><ele>59.2</ele><time>2026-04-26T14:29:34.001Z</time></trkpt><trkpt lat="43.75623987967725" lon="11.298553582187632"><ele>59.6</ele><time>2026-04-26T14:29:35.001Z</time></trkpt><trkpt lat="43.75614275639694" lon="11.29850810837155"><ele>60.0</ele><time>2026-04-26T14:29:36.001Z</time></trkpt><trkpt lat="43.75605543135303" lon="11.298446003237798"><ele>59.8</ele><time>2026-04-26T14:29:37.001Z</time></trkpt><trkpt lat="43.75598996964874" lon="11.298355999231008"><ele>59.6</ele><time>2026-04-26T14:29:38.001Z</time></trkpt><trkpt lat="43.755947875419366" lon="11.298242407101764"><ele>59.400000000000006</ele><time>2026-04-26T14:29:38.999Z</time></trkpt><trkpt lat="43.75590344232361" lon="11.298124728679607"><ele>59.2</ele><time>2026-04-26T14:29:39.999Z</time></trkpt><trkpt lat="43.75584837217487" lon="11.298019064343736"><ele>59.0</ele><time>2026-04-26T14:29:40.999Z</time></trkpt><trkpt lat="43.75577777149334" lon="11.297933730353686"><ele>59.00000000000001</ele><time>2026-04-26T14:29:41.999Z</time></trkpt><trkpt lat="43.75568915454627" lon="11.29787406491697"><ele>59.0</ele><time>2026-04-26T14:29:42.999Z</time></trkpt><trkpt lat="43.75560248646572" lon="11.297828872188852"><ele>59.0</ele><time>2026-04-26T14:29:43.999Z</time></trkpt><trkpt lat="43.75553726933814" lon="11.29779561868982"><ele>59.0</ele><time>2026-04-26T14:29:44.999Z</time></trkpt><trkpt lat="43.755447888238464" lon="11.297781927866895"><ele>59.00000000000001</ele><time>2026-04-26T14:29:46.999Z</time></trkpt><trkpt lat="43.755388154577574" lon="11.297883458207213"><ele>59.0</ele><time>2026-04-26T14:29:48.999Z</time></trkpt><trkpt lat="43.75536591622985" lon="11.297984821336419"><ele>59.0</ele><time>2026-04-26T14:29:49.999Z</time></trkpt><trkpt lat="43.75534800917748" lon="11.29811365830563"><ele>59.00000000000001</ele><time>2026-04-26T14:29:50.999Z</time></trkpt><trkpt lat="43.75532260521862" lon="11.298234028053015"><ele>59.00000000000001</ele><time>2026-04-26T14:29:51.999Z</time></trkpt><trkpt lat="43.755283705301146" lon="11.29833734943002"><ele>59.0</ele><time>2026-04-26T14:29:52.999Z</time></trkpt><trkpt lat="43.75524139339029" lon="11.298414334305676"><ele>59.0</ele><time>2026-04-26T14:29:53.999Z</time></trkpt><trkpt lat="43.7551306209573" lon="11.298524020515012"><ele>59.0</ele><time>2026-04-26T14:29:55.999Z</time></trkpt><trkpt lat="43.755051173970045" lon="11.298560548744344"><ele>59.00000000000001</ele><time>2026-04-26T14:29:56.999Z</time></trkpt><trkpt lat="43.75496030428132" lon="11.298528281207185"><ele>59.00000000000001</ele><time>2026-04-26T14:29:57.999Z</time></trkpt><trkpt lat="43.75486259560826" lon="11.29848598632182"><ele>59.0</ele><time>2026-04-26T14:29:59Z</time></trkpt><trkpt lat="43.75475912622445" lon="11.298463620324439"><ele>59.0</ele><time>2026-04-26T14:30:00Z</time></trkpt><trkpt lat="43.754658878882644" lon="11.298388968801987"><ele>59.0</ele><time>2026-04-26T14:30:01Z</time></trkpt><trkpt lat="43.754556711371016" lon="11.29831870194963"><ele>59.0</ele><time>2026-04-26T14:30:02Z</time></trkpt><trkpt lat="43.75443997477174" lon="11.298277543856079"><ele>59.0</ele><time>2026-04-26T14:30:03Z</time></trkpt><trkpt lat="43.754321619240564" lon="11.298217146087241"><ele>59.0</ele><time>2026-04-26T14:30:04Z</time></trkpt><trkpt lat="43.75419862744799" lon="11.298132393800582"><ele>58.25</ele><time>2026-04-26T14:30:05Z</time></trkpt><trkpt lat="43.75407314573833" lon="11.298082099174787"><ele>57.5</ele><time>2026-04-26T14:30:06Z</time></trkpt><trkpt lat="43.75395420660824" lon="11.298028346013618"><ele>56.75</ele><time>2026-04-26T14:30:07Z</time></trkpt><trkpt lat="43.75383565937092" lon="11.297968825500385"><ele>56.0</ele><time>2026-04-26T14:30:08Z</time></trkpt><trkpt lat="43.75371518166724" lon="11.297903850983957"><ele>56.0</ele><time>2026-04-26T14:30:09Z</time></trkpt><trkpt lat="43.75359752334594" lon="11.29783702442595"><ele>56.0</ele><time>2026-04-26T14:30:10Z</time></trkpt><trkpt lat="43.753478400398635" lon="11.297771447444495"><ele>56.0</ele><time>2026-04-26T14:30:11Z</time></trkpt><trkpt lat="43.753365553443025" lon="11.297674396440689"><ele>56.0</ele><time>2026-04-26T14:30:12Z</time></trkpt><trkpt lat="43.75325495473855" lon="11.297583981362232"><ele>56.0</ele><time>2026-04-26T14:30:13Z</time></trkpt><trkpt lat="43.75314207052346" lon="11.297496968495391"><ele>56.0</ele><time>2026-04-26T14:30:14Z</time></trkpt><trkpt lat="43.753022043999074" lon="11.297409912391007"><ele>56.0</ele><time>2026-04-26T14:30:15Z</time></trkpt><trkpt lat="43.7529005686732" lon="11.297311157296793"><ele>56.0</ele><time>2026-04-26T14:30:16Z</time></trkpt><trkpt lat="43.752782082274116" lon="11.297204194701663"><ele>56.5</ele><time>2026-04-26T14:30:17Z</time></trkpt><trkpt lat="43.752664535192544" lon="11.297107029550636"><ele>57.0</ele><time>2026-04-26T14:30:18Z</time></trkpt><trkpt lat="43.752546929339" lon="11.297002398917035"><ele>57.5</ele><time>2026-04-26T14:30:19Z</time></trkpt><trkpt lat="43.75243181420329" lon="11.296890117289701"><ele>58.0</ele><time>2026-04-26T14:30:20Z</time></trkpt><trkpt lat="43.75231931127357" lon="11.296771147649237"><ele>58.0</ele><time>2026-04-26T14:30:21Z</time></trkpt><trkpt lat="43.75221193253377" lon="11.296650691328034"><ele>58.0</ele><time>2026-04-26T14:30:22Z</time></trkpt><trkpt lat="43.75210054408345" lon="11.296540729426683"><ele>58.0</ele><time>2026-04-26T14:30:23Z</time></trkpt><trkpt lat="43.75199285966785" lon="11.296421447061196"><ele>58.0</ele><time>2026-04-26T14:30:24Z</time></trkpt><trkpt lat="43.751872327521596" lon="11.296327535942881"><ele>58.0</ele><time>2026-04-26T14:30:25Z</time></trkpt><trkpt lat="43.75175093797674" lon="11.296230122340212"><ele>58.0</ele><time>2026-04-26T14:30:26Z</time></trkpt><trkpt lat="43.75162965112598" lon="11.296135853890334"><ele>58.0</ele><time>2026-04-26T14:30:27Z</time></trkpt><trkpt lat="43.75150451700248" lon="11.296041676950443"><ele>58.0</ele><time>2026-04-26T14:30:28Z</time></trkpt><trkpt lat="43.751385510656235" lon="11.295935312801863"><ele>58.0</ele><time>2026-04-26T14:30:29Z</time></trkpt><trkpt lat="43.7512685760007" lon="11.29582992391665"><ele>58.0</ele><time>2026-04-26T14:30:30Z</time></trkpt><trkpt lat="43.75115897273389" lon="11.295717703664678"><ele>58.0</ele><time>2026-04-26T14:30:31Z</time></trkpt><trkpt lat="43.75105567405437" lon="11.295600139213335"><ele>58.0</ele><time>2026-04-26T14:30:32Z</time></trkpt><trkpt lat="43.750946564075036" lon="11.295482737335865"><ele>58.5</ele><time>2026-04-26T14:30:33Z</time></trkpt><trkpt lat="43.75084369251657" lon="11.295366366476621"><ele>59.0</ele><time>2026-04-26T14:30:34Z</time></trkpt><trkpt lat="43.750739442241105" lon="11.295260422182855"><ele>59.5</ele><time>2026-04-26T14:30:35Z</time></trkpt><trkpt lat="43.750629384933" lon="11.295155289784084"><ele>60.0</ele><time>2026-04-26T14:30:36Z</time></trkpt><trkpt lat="43.75051823741455" lon="11.29506894460093"><ele>60.0</ele><time>2026-04-26T14:30:37Z</time></trkpt><trkpt lat="43.75040417618391" lon="11.294975837508185"><ele>60.0</ele><time>2026-04-26T14:30:38Z</time></trkpt><trkpt lat="43.75029242409199" lon="11.294879755858394"><ele>60.0</ele><time>2026-04-26T14:30:39Z</time></trkpt><trkpt lat="43.750175619723535" lon="11.294796245909305"><ele>60.0</ele><time>2026-04-26T14:30:40Z</time></trkpt><trkpt lat="43.75005868813556" lon="11.294717004372764"><ele>59.833333333333336</ele><time>2026-04-26T14:30:41Z</time></trkpt><trkpt lat="43.74996396021382" lon="11.294639258898336"><ele>59.66666666666667</ele><time>2026-04-26T14:30:42Z</time></trkpt><trkpt lat="43.749909386041715" lon="11.294592073965404"><ele>59.5</ele><time>2026-04-26T14:30:43Z</time></trkpt><trkpt lat="43.749816980681686" lon="11.294530627579286"><ele>59.333333333333336</ele><time>2026-04-26T14:31:45Z</time></trkpt><trkpt lat="43.749752205134314" lon="11.294476503812529"><ele>59.16666666666667</ele><time>2026-04-26T14:31:46Z</time></trkpt><trkpt lat="43.74967520729099" lon="11.2944219736596"><ele>59.0</ele><time>2026-04-26T14:31:47Z</time></trkpt><trkpt lat="43.74960450357916" lon="11.294365541924696"><ele>59.00000000000001</ele><time>2026-04-26T14:31:48Z</time></trkpt><trkpt lat="43.749527909758356" lon="11.29430817040775"><ele>59.0</ele><time>2026-04-26T14:31:49Z</time></trkpt><trkpt lat="43.74945317265239" lon="11.294258685767788"><ele>59.0</ele><time>2026-04-26T14:31:50Z</time></trkpt><trkpt lat="43.74936966202547" lon="11.294215218706755"><ele>59.0</ele><time>2026-04-26T14:31:51Z</time></trkpt><trkpt lat="43.749279254253956" lon="11.294197265446977"><ele>59.00000000000001</ele><time>2026-04-26T14:31:52Z</time></trkpt><trkpt lat="43.749185592367304" lon="11.294199471708684"><ele>59.0</ele><time>2026-04-26T14:31:53Z</time></trkpt><trkpt lat="43.74908624781076" lon="11.294214816993032"><ele>59.800000000000004</ele><time>2026-04-26T14:31:54Z</time></trkpt><trkpt lat="43.74898852375622" lon="11.29422692398357"><ele>60.60000000000001</ele><time>2026-04-26T14:31:55Z</time></trkpt><trkpt lat="43.74888011200998" lon="11.294243420722903"><ele>61.4</ele><time>2026-04-26T14:31:56Z</time></trkpt><trkpt lat="43.748777886619685" lon="11.294262391493966"><ele>62.2</ele><time>2026-04-26T14:31:57Z</time></trkpt><trkpt lat="43.748671239725915" lon="11.294294263962401"><ele>63.0</ele><time>2026-04-26T14:31:58Z</time></trkpt><trkpt lat="43.7485646906752" lon="11.29432967161796"><ele>65.4</ele><time>2026-04-26T14:31:59Z</time></trkpt><trkpt lat="43.74845938093505" lon="11.294359926246848"><ele>67.8</ele><time>2026-04-26T14:32:00Z</time></trkpt><trkpt lat="43.748350398205524" lon="11.294397059396651"><ele>70.2</ele><time>2026-04-26T14:32:01Z</time></trkpt><trkpt lat="43.748235414599826" lon="11.294437152081272"><ele>72.6</ele><time>2026-04-26T14:32:02Z</time></trkpt><trkpt lat="43.74813329371567" lon="11.294471989617586"><ele>75.0</ele><time>2026-04-26T14:32:03Z</time></trkpt><trkpt lat="43.74802752987108" lon="11.29450473026045"><ele>75.0</ele><time>2026-04-26T14:32:04Z</time></trkpt><trkpt lat="43.747923341744155" lon="11.294524453709025"><ele>75.0</ele><time>2026-04-26T14:32:05Z</time></trkpt><trkpt lat="43.74780796398767" lon="11.294530746942774"><ele>75.0</ele><time>2026-04-26T14:32:06Z</time></trkpt><trkpt lat="43.747707813287406" lon="11.294485848570291"><ele>75.0</ele><time>2026-04-26T14:32:07Z</time></trkpt><trkpt lat="43.74760382886942" lon="11.294415037439213"><ele>75.0</ele><time>2026-04-26T14:32:08Z</time></trkpt><trkpt lat="43.747498787968446" lon="11.294329514425057"><ele>77.75</ele><time>2026-04-26T14:32:09Z</time></trkpt><trkpt lat="43.747393472478926" lon="11.294238630585713"><ele>80.5</ele><time>2026-04-26T14:32:10Z</time></trkpt><trkpt lat="43.74728174591883" lon="11.294146848946031"><ele>83.25</ele><time>2026-04-26T14:32:11Z</time></trkpt><trkpt lat="43.747170693016926" lon="11.294052017190669"><ele>86.0</ele><time>2026-04-26T14:32:12Z</time></trkpt><trkpt lat="43.747054221478734" lon="11.293957733413109"><ele>87.25</ele><time>2026-04-26T14:32:13Z</time></trkpt><trkpt lat="43.74693515840857" lon="11.293860447310971"><ele>88.5</ele><time>2026-04-26T14:32:14Z</time></trkpt><trkpt lat="43.746822884682445" lon="11.293766128894468"><ele>89.75</ele><time>2026-04-26T14:32:15Z</time></trkpt><trkpt lat="43.74669991994134" lon="11.293673851071276"><ele>91.0</ele><time>2026-04-26T14:32:16Z</time></trkpt><trkpt lat="43.74658610836941" lon="11.293570230895314"><ele>91.25</ele><time>2026-04-26T14:32:17Z</time></trkpt><trkpt lat="43.74646330486151" lon="11.293472834881346"><ele>91.5</ele><time>2026-04-26T14:32:18Z</time></trkpt><trkpt lat="43.74634370438698" lon="11.293369479615947"><ele>91.75</ele><time>2026-04-26T14:32:19Z</time></trkpt><trkpt lat="43.7462194189354" lon="11.293274860889365"><ele>92.0</ele><time>2026-04-26T14:32:20Z</time></trkpt><trkpt lat="43.746097427506996" lon="11.293169399241789"><ele>93.75</ele><time>2026-04-26T14:32:21Z</time></trkpt><trkpt lat="43.74597621554847" lon="11.293067999265828"><ele>95.5</ele><time>2026-04-26T14:32:22Z</time></trkpt><trkpt lat="43.745857121831065" lon="11.292969105291792"><ele>97.25</ele><time>2026-04-26T14:32:23Z</time></trkpt><trkpt lat="43.745740846773096" lon="11.292867863452189"><ele>99.0</ele><time>2026-04-26T14:32:24Z</time></trkpt><trkpt lat="43.74562286103486" lon="11.292769770926625"><ele>99.0</ele><time>2026-04-26T14:32:25Z</time></trkpt><trkpt lat="43.745503427582484" lon="11.292668479685476"><ele>99.0</ele><time>2026-04-26T14:32:26Z</time></trkpt><trkpt lat="43.7453831574436" lon="11.292571980881185"><ele>99.0</ele><time>2026-04-26T14:32:27Z</time></trkpt><trkpt lat="43.74526091188043" lon="11.292480924548808"><ele>99.0</ele><time>2026-04-26T14:32:28.001Z</time></trkpt><trkpt lat="43.74513957025933" lon="11.29238222960458"><ele>98.75</ele><time>2026-04-26T14:32:29.001Z</time></trkpt><trkpt lat="43.74501772154426" lon="11.292287139315803"><ele>98.5</ele><time>2026-04-26T14:32:30.001Z</time></trkpt><trkpt lat="43.74489297142626" lon="11.292187534264276"><ele>98.25</ele><time>2026-04-26T14:32:31.001Z</time></trkpt><trkpt lat="43.74476971933629" lon="11.292089007275836"><ele>98.0</ele><time>2026-04-26T14:32:32.001Z</time></trkpt><trkpt lat="43.7446439528357" lon="11.291989712629748"><ele>98.0</ele><time>2026-04-26T14:32:33.001Z</time></trkpt><trkpt lat="43.74452607510628" lon="11.291901270613218"><ele>98.0</ele><time>2026-04-26T14:32:34.001Z</time></trkpt><trkpt lat="43.74441286654545" lon="11.291814140245272"><ele>98.0</ele><time>2026-04-26T14:32:35.001Z</time></trkpt><trkpt lat="43.74429974797196" lon="11.29172058671962"><ele>98.0</ele><time>2026-04-26T14:32:36.001Z</time></trkpt><trkpt lat="43.744189346043484" lon="11.291627440517667"><ele>97.0</ele><time>2026-04-26T14:32:37.001Z</time></trkpt><trkpt lat="43.744079807756535" lon="11.291507633612442"><ele>96.0</ele><time>2026-04-26T14:32:38.001Z</time></trkpt><trkpt lat="43.743971769495445" lon="11.29141626333955"><ele>95.0</ele><time>2026-04-26T14:32:39.001Z</time></trkpt><trkpt lat="43.743871176935365" lon="11.29129793006316"><ele>94.0</ele><time>2026-04-26T14:32:40.001Z</time></trkpt><trkpt lat="43.74377257200143" lon="11.291170914498924"><ele>94.0</ele><time>2026-04-26T14:32:41.001Z</time></trkpt><trkpt lat="43.74366656419397" lon="11.291042286359819"><ele>94.0</ele><time>2026-04-26T14:32:42.001Z</time></trkpt><trkpt lat="43.74356967138954" lon="11.290901845493622"><ele>94.0</ele><time>2026-04-26T14:32:43.001Z</time></trkpt><trkpt lat="43.74349003162006" lon="11.290754530136184"><ele>94.0</ele><time>2026-04-26T14:32:44.001Z</time></trkpt><trkpt lat="43.74341135488721" lon="11.2906128147468"><ele>91.0</ele><time>2026-04-26T14:32:45.001Z</time></trkpt><trkpt lat="43.74334547205729" lon="11.290456504808839"><ele>88.0</ele><time>2026-04-26T14:32:46.001Z</time></trkpt><trkpt lat="43.74328263657817" lon="11.290296407124554"><ele>85.0</ele><time>2026-04-26T14:32:47.001Z</time></trkpt><trkpt lat="43.743209606259086" lon="11.290136860552021"><ele>82.0</ele><time>2026-04-26T14:32:48.001Z</time></trkpt><trkpt lat="43.74313628401156" lon="11.289975519688936"><ele>82.0</ele><time>2026-04-26T14:32:49.001Z</time></trkpt><trkpt lat="43.74306434140142" lon="11.289818748735014"><ele>82.0</ele><time>2026-04-26T14:32:50.001Z</time></trkpt><trkpt lat="43.74300849188468" lon="11.289658714447967"><ele>82.0</ele><time>2026-04-26T14:32:51.001Z</time></trkpt><trkpt lat="43.74295524011549" lon="11.28949547872606"><ele>82.0</ele><time>2026-04-26T14:32:52.001Z</time></trkpt><trkpt lat="43.74288994017285" lon="11.289331239199687"><ele>82.0</ele><time>2026-04-26T14:32:53.001Z</time></trkpt><trkpt lat="43.74282814487404" lon="11.289169925555106"><ele>82.0</ele><time>2026-04-26T14:32:54.001Z</time></trkpt><trkpt lat="43.742766675328646" lon="11.289010270726859"><ele>82.0</ele><time>2026-04-26T14:32:55.001Z</time></trkpt><trkpt lat="43.742775030106365" lon="11.288796468389906"><ele>82.0</ele><time>2026-04-26T14:32:56.001Z</time></trkpt><trkpt lat="43.7427436641908" lon="11.288625140852044"><ele>82.5</ele><time>2026-04-26T14:32:57.001Z</time></trkpt><trkpt lat="43.742720342702974" lon="11.288441702730134"><ele>83.0</ele><time>2026-04-26T14:32:58.001Z</time></trkpt><trkpt lat="43.74269685519665" lon="11.288266520772646"><ele>83.5</ele><time>2026-04-26T14:32:59.001Z</time></trkpt><trkpt lat="43.742672689217905" lon="11.288110162791602"><ele>84.0</ele><time>2026-04-26T14:33:00.001Z</time></trkpt><trkpt lat="43.7426524754251" lon="11.287976250454733"><ele>82.60000000000001</ele><time>2026-04-26T14:33:01.001Z</time></trkpt><trkpt lat="43.742638847411094" lon="11.287862157850045"><ele>81.2</ele><time>2026-04-26T14:33:02.001Z</time></trkpt><trkpt lat="43.74262708500787" lon="11.287765865866124"><ele>79.80000000000001</ele><time>2026-04-26T14:33:03.001Z</time></trkpt><trkpt lat="43.74261722103946" lon="11.287606311593725"><ele>78.4</ele><time>2026-04-26T14:33:05.001Z</time></trkpt><trkpt lat="43.74262929501604" lon="11.287436541266372"><ele>77.0</ele><time>2026-04-26T14:33:07.001Z</time></trkpt><trkpt lat="43.74262094828151" lon="11.287273337998107"><ele>77.0</ele><time>2026-04-26T14:33:09.001Z</time></trkpt><trkpt lat="43.74251529617921" lon="11.287174874132683"><ele>77.0</ele><time>2026-04-26T14:33:11.001Z</time></trkpt><trkpt lat="43.74244489914429" lon="11.2871990482661"><ele>77.0</ele><time>2026-04-26T14:33:12.001Z</time></trkpt><trkpt lat="43.742368000303735" lon="11.287239829908845"><ele>77.0</ele><time>2026-04-26T14:33:13.001Z</time></trkpt><trkpt lat="43.7422959863647" lon="11.287290628433038"><ele>77.0</ele><time>2026-04-26T14:33:14.001Z</time></trkpt><trkpt lat="43.74221670331955" lon="11.287327731914742"><ele>77.0</ele><time>2026-04-26T14:33:15.001Z</time></trkpt><trkpt lat="43.742146309820065" lon="11.287344079456867"><ele>77.0</ele><time>2026-04-26T14:33:16.001Z</time></trkpt><trkpt lat="43.74208429226089" lon="11.287371070753865"><ele>77.0</ele><time>2026-04-26T14:33:17.001Z</time></trkpt><trkpt lat="43.74204295131417" lon="11.287445477678167"><ele>77.0</ele><time>2026-04-26T14:33:18.001Z</time></trkpt><trkpt lat="43.742011572274365" lon="11.287526542486956"><ele>77.0</ele><time>2026-04-26T14:33:19.001Z</time></trkpt><trkpt lat="43.74201089935039" lon="11.287616178235453"><ele>77.0</ele><time>2026-04-26T14:33:20.001Z</time></trkpt><trkpt lat="43.742038166279855" lon="11.287697347435165"><ele>77.0</ele><time>2026-04-26T14:33:21.001Z</time></trkpt><trkpt lat="43.742088205850585" lon="11.28776352892634"><ele>77.0</ele><time>2026-04-26T14:33:22.001Z</time></trkpt><trkpt lat="43.7421477549679" lon="11.28779782482873"><ele>77.0</ele><time>2026-04-26T14:33:23.001Z</time></trkpt><trkpt lat="43.74223026362588" lon="11.287822756523488"><ele>77.0</ele><time>2026-04-26T14:33:24.001Z</time></trkpt><trkpt lat="43.742317690665345" lon="11.287821799089672"><ele>77.0</ele><time>2026-04-26T14:33:25.001Z</time></trkpt><trkpt lat="43.74239634652014" lon="11.287803581611902"><ele>77.0</ele><time>2026-04-26T14:33:26.001Z</time></trkpt><trkpt lat="43.74247575638278" lon="11.287760685064654"><ele>77.0</ele><time>2026-04-26T14:33:27.001Z</time></trkpt><trkpt lat="43.74254270969006" lon="11.287693672043"><ele>77.0</ele><time>2026-04-26T14:33:28.001Z</time></trkpt><trkpt lat="43.74259345169004" lon="11.287602685618516"><ele>77.0</ele><time>2026-04-26T14:33:29.001Z</time></trkpt><trkpt lat="43.74263096211441" lon="11.287502195582976"><ele>77.0</ele><time>2026-04-26T14:33:30.001Z</time></trkpt><trkpt lat="43.742646399695346" lon="11.287407868306117"><ele>77.0</ele><time>2026-04-26T14:33:31.001Z</time></trkpt><trkpt lat="43.74263375120782" lon="11.287300476804418"><ele>77.0</ele><time>2026-04-26T14:33:32.001Z</time></trkpt><trkpt lat="43.74261228907108" lon="11.28717004155973"><ele>77.0</ele><time>2026-04-26T14:33:34.002Z</time></trkpt><trkpt lat="43.74250042369794" lon="11.287181355027334"><ele>77.0</ele><time>2026-04-26T14:33:35.002Z</time></trkpt><trkpt lat="43.7424318990413" lon="11.287202183404572"><ele>77.0</ele><time>2026-04-26T14:33:36.002Z</time></trkpt><trkpt lat="43.742344356927504" lon="11.287247382095865"><ele>77.0</ele><time>2026-04-26T14:33:37.002Z</time></trkpt><trkpt lat="43.74224372836018" lon="11.287292932594589"><ele>77.0</ele><time>2026-04-26T14:33:38.002Z</time></trkpt><trkpt lat="43.74213717872304" lon="11.287318256522463"><ele>77.0</ele><time>2026-04-26T14:33:39.002Z</time></trkpt><trkpt lat="43.74204117586473" lon="11.287370427507778"><ele>77.0</ele><time>2026-04-26T14:33:40.002Z</time></trkpt><trkpt lat="43.741926865808516" lon="11.287279020142845"><ele>77.0</ele><time>2026-04-26T14:33:41.002Z</time></trkpt><trkpt lat="43.741816997254055" lon="11.287245114537825"><ele>77.0</ele><time>2026-04-26T14:33:42.002Z</time></trkpt><trkpt lat="43.741702604713865" lon="11.287219056857145"><ele>77.0</ele><time>2026-04-26T14:33:43.002Z</time></trkpt><trkpt lat="43.7415882513595" lon="11.287191812258634"><ele>77.0</ele><time>2026-04-26T14:33:44.002Z</time></trkpt><trkpt lat="43.741485542847826" lon="11.287171646243246"><ele>77.0</ele><time>2026-04-26T14:33:45.002Z</time></trkpt><trkpt lat="43.741391302732694" lon="11.287144856169482"><ele>77.0</ele><time>2026-04-26T14:33:46.002Z</time></trkpt><trkpt lat="43.741297083110865" lon="11.287125581392491"><ele>77.0</ele><time>2026-04-26T14:33:47.002Z</time></trkpt><trkpt lat="43.741211956969686" lon="11.287109195645419"><ele>77.0</ele><time>2026-04-26T14:33:48.002Z</time></trkpt><trkpt lat="43.74112012970308" lon="11.287108384103538"><ele>77.0</ele><time>2026-04-26T14:33:49.002Z</time></trkpt><trkpt lat="43.741024692488004" lon="11.287110365407651"><ele>77.0</ele><time>2026-04-26T14:33:50.002Z</time></trkpt><trkpt lat="43.74093433448983" lon="11.287120245706639"><ele>77.16666666666667</ele><time>2026-04-26T14:33:51Z</time></trkpt><trkpt lat="43.74085130309402" lon="11.287115783004367"><ele>77.33333333333334</ele><time>2026-04-26T14:33:52Z</time></trkpt><trkpt lat="43.74077249438816" lon="11.287102977089457"><ele>77.5</ele><time>2026-04-26T14:33:53Z</time></trkpt><trkpt lat="43.7407085681864" lon="11.287064430426499"><ele>77.66666666666667</ele><time>2026-04-26T14:33:54Z</time></trkpt><trkpt lat="43.740643736876734" lon="11.287065724478875"><ele>77.83333333333333</ele><time>2026-04-26T14:33:55Z</time></trkpt><trkpt lat="43.74056241861801" lon="11.287193912425135"><ele>78.0</ele><time>2026-04-26T14:33:57Z</time></trkpt><trkpt lat="43.74050833189463" lon="11.287318753462461"><ele>78.0</ele><time>2026-04-26T14:33:58Z</time></trkpt><trkpt lat="43.740432589895065" lon="11.287400660469093"><ele>78.0</ele><time>2026-04-26T14:33:59Z</time></trkpt><trkpt lat="43.740339411141235" lon="11.287487635177959"><ele>78.0</ele><time>2026-04-26T14:34:00Z</time></trkpt><trkpt lat="43.74024108675998" lon="11.287573561469651"><ele>78.0</ele><time>2026-04-26T14:34:01Z</time></trkpt><trkpt lat="43.740150335242674" lon="11.287669962297663"><ele>78.0</ele><time>2026-04-26T14:34:02Z</time></trkpt><trkpt lat="43.74007163100926" lon="11.28777754510983"><ele>78.25</ele><time>2026-04-26T14:34:03Z</time></trkpt><trkpt lat="43.73999508499508" lon="11.28789759630717"><ele>78.5</ele><time>2026-04-26T14:34:04Z</time></trkpt><trkpt lat="43.739913937095906" lon="11.288023359992744"><ele>78.75</ele><time>2026-04-26T14:34:05Z</time></trkpt><trkpt lat="43.739831619707644" lon="11.288160271996881"><ele>79.0</ele><time>2026-04-26T14:34:06Z</time></trkpt><trkpt lat="43.73974886239721" lon="11.288301581262395"><ele>79.0</ele><time>2026-04-26T14:34:07Z</time></trkpt><trkpt lat="43.73966898062084" lon="11.288451966496112"><ele>79.0</ele><time>2026-04-26T14:34:08Z</time></trkpt><trkpt lat="43.73958626320926" lon="11.28860804838255"><ele>79.0</ele><time>2026-04-26T14:34:09Z</time></trkpt><trkpt lat="43.739506294485096" lon="11.288763603174518"><ele>79.0</ele><time>2026-04-26T14:34:10Z</time></trkpt><trkpt lat="43.739428273052454" lon="11.288925767176618"><ele>81.0</ele><time>2026-04-26T14:34:11Z</time></trkpt><trkpt lat="43.73935312876665" lon="11.289081164529712"><ele>83.0</ele><time>2026-04-26T14:34:12Z</time></trkpt><trkpt lat="43.73926913353203" lon="11.289230748540332"><ele>85.0</ele><time>2026-04-26T14:34:13Z</time></trkpt><trkpt lat="43.739188062847084" lon="11.28938678005355"><ele>87.0</ele><time>2026-04-26T14:34:14Z</time></trkpt><trkpt lat="43.739105045725005" lon="11.289547266567327"><ele>87.0</ele><time>2026-04-26T14:34:15Z</time></trkpt><trkpt lat="43.73902414889973" lon="11.289711637382394"><ele>87.0</ele><time>2026-04-26T14:34:16Z</time></trkpt><trkpt lat="43.73894088333303" lon="11.289872120743137"><ele>87.0</ele><time>2026-04-26T14:34:17Z</time></trkpt><trkpt lat="43.73886118069802" lon="11.290039965447724"><ele>87.0</ele><time>2026-04-26T14:34:18Z</time></trkpt><trkpt lat="43.73878918742964" lon="11.29020716658608"><ele>87.0</ele><time>2026-04-26T14:34:19Z</time></trkpt><trkpt lat="43.738721177997704" lon="11.290378674263172"><ele>87.0</ele><time>2026-04-26T14:34:20.001Z</time></trkpt><trkpt lat="43.73865292076909" lon="11.290547831684096"><ele>87.0</ele><time>2026-04-26T14:34:21.001Z</time></trkpt><trkpt lat="43.73858950301637" lon="11.290718507316734"><ele>87.0</ele><time>2026-04-26T14:34:22.001Z</time></trkpt><trkpt lat="43.738532983529026" lon="11.290883345522344"><ele>87.0</ele><time>2026-04-26T14:34:23.001Z</time></trkpt><trkpt lat="43.7384904584888" lon="11.291022356923353"><ele>87.0</ele><time>2026-04-26T14:34:24.001Z</time></trkpt><trkpt lat="43.738454961215716" lon="11.291129093060013"><ele>87.0</ele><time>2026-04-26T14:34:25.001Z</time></trkpt><trkpt lat="43.73841384567199" lon="11.291209167945821"><ele>87.0</ele><time>2026-04-26T14:34:26.001Z</time></trkpt><trkpt lat="43.73836974638769" lon="11.291288206647788"><ele>87.0</ele><time>2026-04-26T14:34:27.001Z</time></trkpt><trkpt lat="43.73834675309953" lon="11.291370848035616"><ele>87.0</ele><time>2026-04-26T14:34:28.001Z</time></trkpt><trkpt lat="43.738325919566776" lon="11.291502178919911"><ele>86.0</ele><time>2026-04-26T14:34:30.001Z</time></trkpt><trkpt lat="43.73831338931756" lon="11.291621248947548"><ele>85.0</ele><time>2026-04-26T14:35:27.001Z</time></trkpt><trkpt lat="43.73830916593239" lon="11.291799136865599"><ele>84.0</ele><time>2026-04-26T14:35:29.001Z</time></trkpt><trkpt lat="43.73828709433724" lon="11.291938121518225"><ele>83.0</ele><time>2026-04-26T14:35:30.001Z</time></trkpt><trkpt lat="43.73826271543149" lon="11.29206026883444"><ele>82.0</ele><time>2026-04-26T14:35:31.001Z</time></trkpt><trkpt lat="43.738242902767624" lon="11.292182475482106"><ele>81.6</ele><time>2026-04-26T14:35:32.001Z</time></trkpt><trkpt lat="43.738215381790866" lon="11.292310414403527"><ele>81.19999999999999</ele><time>2026-04-26T14:35:33.001Z</time></trkpt><trkpt lat="43.73819458156722" lon="11.292438063312465"><ele>80.8</ele><time>2026-04-26T14:35:34.001Z</time></trkpt><trkpt lat="43.73816957182235" lon="11.292565286131566"><ele>80.4</ele><time>2026-04-26T14:35:35.001Z</time></trkpt><trkpt lat="43.73814150974262" lon="11.292693597984512"><ele>80.0</ele><time>2026-04-26T14:35:36.001Z</time></trkpt><trkpt lat="43.738113842381445" lon="11.292824276070123"><ele>80.0</ele><time>2026-04-26T14:35:37.001Z</time></trkpt><trkpt lat="43.73808403732623" lon="11.292956314813617"><ele>80.0</ele><time>2026-04-26T14:35:38.002Z</time></trkpt><trkpt lat="43.73805105971459" lon="11.293074186552346"><ele>80.0</ele><time>2026-04-26T14:35:39.002Z</time></trkpt><trkpt lat="43.73801643127402" lon="11.293165116730734"><ele>80.0</ele><time>2026-04-26T14:35:40.002Z</time></trkpt><trkpt lat="43.73796189214385" lon="11.293235616119105"><ele>80.0</ele><time>2026-04-26T14:35:41.002Z</time></trkpt><trkpt lat="43.73793535774787" lon="11.293328001728176"><ele>80.0</ele><time>2026-04-26T14:35:42.002Z</time></trkpt><trkpt lat="43.737948050377994" lon="11.293434214661838"><ele>80.0</ele><time>2026-04-26T14:35:43.002Z</time></trkpt><trkpt lat="43.737981985297175" lon="11.293530990642802"><ele>80.0</ele><time>2026-04-26T14:35:44.002Z</time></trkpt><trkpt lat="43.73797890696824" lon="11.293647114229524"><ele>80.0</ele><time>2026-04-26T14:35:45.002Z</time></trkpt><trkpt lat="43.737955708054585" lon="11.293773511788277"><ele>80.0</ele><time>2026-04-26T14:35:46.002Z</time></trkpt><trkpt lat="43.73791972141783" lon="11.293888154786432"><ele>80.0</ele><time>2026-04-26T14:35:47.002Z</time></trkpt><trkpt lat="43.73788721262045" lon="11.294022316647952"><ele>80.0</ele><time>2026-04-26T14:35:48.002Z</time></trkpt><trkpt lat="43.737856670999456" lon="11.29413825805969"><ele>79.8</ele><time>2026-04-26T14:35:49.002Z</time></trkpt><trkpt lat="43.73781946961041" lon="11.29425328637652"><ele>79.6</ele><time>2026-04-26T14:35:50.002Z</time></trkpt><trkpt lat="43.73777588965413" lon="11.294376882710496"><ele>79.4</ele><time>2026-04-26T14:35:51.002Z</time></trkpt><trkpt lat="43.73772458166153" lon="11.294508616072154"><ele>79.2</ele><time>2026-04-26T14:35:52.002Z</time></trkpt><trkpt lat="43.73766532856881" lon="11.294639065550912"><ele>79.0</ele><time>2026-04-26T14:35:53.002Z</time></trkpt><trkpt lat="43.737597959475494" lon="11.294762282999509"><ele>79.0</ele><time>2026-04-26T14:35:54.002Z</time></trkpt><trkpt lat="43.737522620085" lon="11.294883795105783"><ele>79.0</ele><time>2026-04-26T14:35:55.002Z</time></trkpt><trkpt lat="43.737442293145456" lon="11.295000107139192"><ele>79.0</ele><time>2026-04-26T14:35:56.002Z</time></trkpt><trkpt lat="43.737359108053475" lon="11.295102668472776"><ele>79.0</ele><time>2026-04-26T14:35:57.001Z</time></trkpt><trkpt lat="43.737282516040075" lon="11.295184390170107"><ele>79.0</ele><time>2026-04-26T14:35:58.001Z</time></trkpt><trkpt lat="43.73719448184326" lon="11.295293958993067"><ele>79.0</ele><time>2026-04-26T14:35:59.001Z</time></trkpt><trkpt lat="43.73709017053578" lon="11.295372103444349"><ele>79.0</ele><time>2026-04-26T14:36:00.001Z</time></trkpt><trkpt lat="43.73698928126323" lon="11.295448221595805"><ele>79.0</ele><time>2026-04-26T14:36:01.001Z</time></trkpt><trkpt lat="43.73689240838984" lon="11.295523257074072"><ele>79.0</ele><time>2026-04-26T14:36:02.001Z</time></trkpt><trkpt lat="43.73679159124543" lon="11.295592617522413"><ele>80.0</ele><time>2026-04-26T14:36:03.001Z</time></trkpt><trkpt lat="43.73668209153923" lon="11.29566067941862"><ele>81.0</ele><time>2026-04-26T14:36:04.001Z</time></trkpt><trkpt lat="43.73658989779912" lon="11.295717860799527"><ele>82.0</ele><time>2026-04-26T14:36:05.001Z</time></trkpt><trkpt lat="43.7365140928942" lon="11.295764249907794"><ele>83.0</ele><time>2026-04-26T14:36:06.001Z</time></trkpt><trkpt lat="43.73643396293582" lon="11.295804936634719"><ele>84.0</ele><time>2026-04-26T14:36:07.001Z</time></trkpt><trkpt lat="43.736361703815135" lon="11.295862573136722"><ele>84.0</ele><time>2026-04-26T14:36:08.001Z</time></trkpt><trkpt lat="43.7362914057572" lon="11.29592965293459"><ele>84.0</ele><time>2026-04-26T14:36:09.001Z</time></trkpt><trkpt lat="43.7362089560139" lon="11.295984713738086"><ele>84.0</ele><time>2026-04-26T14:36:10.001Z</time></trkpt><trkpt lat="43.73600816270391" lon="11.296121116938295"><ele>84.0</ele><time>2026-04-26T14:36:11.001Z</time></trkpt><trkpt lat="43.73588966158788" lon="11.296200055142094"><ele>84.0</ele><time>2026-04-26T14:36:12.001Z</time></trkpt><trkpt lat="43.73577737300503" lon="11.296271217644135"><ele>84.0</ele><time>2026-04-26T14:36:13.001Z</time></trkpt><trkpt lat="43.73566465601994" lon="11.296334836973553"><ele>84.0</ele><time>2026-04-26T14:36:14.001Z</time></trkpt><trkpt lat="43.7355493520602" lon="11.296395935598222"><ele>84.0</ele><time>2026-04-26T14:36:15.001Z</time></trkpt><trkpt lat="43.73543380144771" lon="11.296455134528015"><ele>84.5</ele><time>2026-04-26T14:36:16.001Z</time></trkpt><trkpt lat="43.73531475751348" lon="11.296509447913685"><ele>85.0</ele><time>2026-04-26T14:36:17.001Z</time></trkpt><trkpt lat="43.73519467232871" lon="11.296563900969382"><ele>85.5</ele><time>2026-04-26T14:36:18.001Z</time></trkpt><trkpt lat="43.73507134741884" lon="11.296609192347226"><ele>86.0</ele><time>2026-04-26T14:36:19.001Z</time></trkpt><trkpt lat="43.73494612051859" lon="11.296648908875436"><ele>86.0</ele><time>2026-04-26T14:36:20.001Z</time></trkpt><trkpt lat="43.734822260019676" lon="11.296685348366411"><ele>86.0</ele><time>2026-04-26T14:36:21.001Z</time></trkpt><trkpt lat="43.73469727648773" lon="11.296726188048309"><ele>86.0</ele><time>2026-04-26T14:36:22.001Z</time></trkpt><trkpt lat="43.73458020142558" lon="11.296772305269068"><ele>86.0</ele><time>2026-04-26T14:36:23.001Z</time></trkpt><trkpt lat="43.73445786409956" lon="11.296816545368333"><ele>85.75</ele><time>2026-04-26T14:36:24.001Z</time></trkpt><trkpt lat="43.7343339056647" lon="11.296856496776016"><ele>85.5</ele><time>2026-04-26T14:36:25.001Z</time></trkpt><trkpt lat="43.73421609902208" lon="11.296892851825454"><ele>85.25</ele><time>2026-04-26T14:36:26.001Z</time></trkpt><trkpt lat="43.73408341789596" lon="11.296916384674427"><ele>85.0</ele><time>2026-04-26T14:36:27.001Z</time></trkpt><trkpt lat="43.73395722224718" lon="11.296922858682192"><ele>85.0</ele><time>2026-04-26T14:36:28.001Z</time></trkpt><trkpt lat="43.73383117840359" lon="11.296927799158762"><ele>85.0</ele><time>2026-04-26T14:36:29.001Z</time></trkpt><trkpt lat="43.73369868122419" lon="11.2969265950102"><ele>85.0</ele><time>2026-04-26T14:36:30.001Z</time></trkpt><trkpt lat="43.73356766165711" lon="11.296910217430744"><ele>85.0</ele><time>2026-04-26T14:36:31.001Z</time></trkpt><trkpt lat="43.733436108718884" lon="11.296876688521863"><ele>85.25</ele><time>2026-04-26T14:36:32.001Z</time></trkpt><trkpt lat="43.733304770855916" lon="11.296841871728564"><ele>85.5</ele><time>2026-04-26T14:36:33.001Z</time></trkpt><trkpt lat="43.73317207841658" lon="11.2968046560937"><ele>85.75</ele><time>2026-04-26T14:36:34.001Z</time></trkpt><trkpt lat="43.73303702656531" lon="11.296767767658235"><ele>86.0</ele><time>2026-04-26T14:36:35.001Z</time></trkpt><trkpt lat="43.732903614973814" lon="11.296744320958622"><ele>86.0</ele><time>2026-04-26T14:36:36.001Z</time></trkpt><trkpt lat="43.73277613309583" lon="11.296690881154328"><ele>86.0</ele><time>2026-04-26T14:36:37.001Z</time></trkpt><trkpt lat="43.732640018305965" lon="11.296654470773255"><ele>86.0</ele><time>2026-04-26T14:36:38.001Z</time></trkpt><trkpt lat="43.73250490388394" lon="11.296616560435345"><ele>86.0</ele><time>2026-04-26T14:36:39.001Z</time></trkpt><trkpt lat="43.732372158611746" lon="11.296559587824005"><ele>86.0</ele><time>2026-04-26T14:36:40.001Z</time></trkpt><trkpt lat="43.73223540415179" lon="11.296518850785784"><ele>86.0</ele><time>2026-04-26T14:36:41.001Z</time></trkpt><trkpt lat="43.732103256874645" lon="11.296484655162146"><ele>86.0</ele><time>2026-04-26T14:36:42.001Z</time></trkpt><trkpt lat="43.73196518948729" lon="11.296446291467074"><ele>86.0</ele><time>2026-04-26T14:36:43.001Z</time></trkpt><trkpt lat="43.73182970212368" lon="11.29641131422852"><ele>86.0</ele><time>2026-04-26T14:36:44.001Z</time></trkpt><trkpt lat="43.73169431746818" lon="11.296385011203952"><ele>86.0</ele><time>2026-04-26T14:36:45.001Z</time></trkpt><trkpt lat="43.73156352282711" lon="11.29632999478737"><ele>86.0</ele><time>2026-04-26T14:36:46.001Z</time></trkpt><trkpt lat="43.73142059927891" lon="11.296282981300251"><ele>86.0</ele><time>2026-04-26T14:36:47.001Z</time></trkpt><trkpt lat="43.731284174462495" lon="11.296254084093341"><ele>86.0</ele><time>2026-04-26T14:36:48.001Z</time></trkpt><trkpt lat="43.73114731823754" lon="11.296208208896964"><ele>86.0</ele><time>2026-04-26T14:36:49.001Z</time></trkpt><trkpt lat="43.73100820321015" lon="11.29616143664706"><ele>86.0</ele><time>2026-04-26T14:36:50.001Z</time></trkpt><trkpt lat="43.73086717474596" lon="11.296116473654164"><ele>86.0</ele><time>2026-04-26T14:36:51.001Z</time></trkpt><trkpt lat="43.73072919851355" lon="11.296075340682608"><ele>86.5</ele><time>2026-04-26T14:36:52.001Z</time></trkpt><trkpt lat="43.73058881506589" lon="11.29603939530727"><ele>87.0</ele><time>2026-04-26T14:36:53.001Z</time></trkpt><trkpt lat="43.73045064515733" lon="11.296002941670746"><ele>87.5</ele><time>2026-04-26T14:36:54.001Z</time></trkpt><trkpt lat="43.730308114484096" lon="11.295960477520428"><ele>88.0</ele><time>2026-04-26T14:36:55.001Z</time></trkpt><trkpt lat="43.73016256314713" lon="11.295921160050925"><ele>88.5</ele><time>2026-04-26T14:36:56.001Z</time></trkpt><trkpt lat="43.730018812185456" lon="11.29586481950724"><ele>89.0</ele><time>2026-04-26T14:36:57.001Z</time></trkpt><trkpt lat="43.729872991471865" lon="11.2958332312845"><ele>89.5</ele><time>2026-04-26T14:36:58.001Z</time></trkpt><trkpt lat="43.72973171074412" lon="11.295783625802237"><ele>90.0</ele><time>2026-04-26T14:36:59.001Z</time></trkpt><trkpt lat="43.72958509663187" lon="11.29573924431938"><ele>90.0</ele><time>2026-04-26T14:37:00.001Z</time></trkpt><trkpt lat="43.72944086934066" lon="11.29569587240767"><ele>90.0</ele><time>2026-04-26T14:37:01.001Z</time></trkpt><trkpt lat="43.72929674802297" lon="11.295656043819672"><ele>90.0</ele><time>2026-04-26T14:37:02.001Z</time></trkpt><trkpt lat="43.729155361610296" lon="11.295610744386567"><ele>90.0</ele><time>2026-04-26T14:37:03.001Z</time></trkpt><trkpt lat="43.7290196717816" lon="11.295580114960519"><ele>89.5</ele><time>2026-04-26T14:37:04.001Z</time></trkpt><trkpt lat="43.728890650764725" lon="11.295535754212462"><ele>89.0</ele><time>2026-04-26T14:37:05.001Z</time></trkpt><trkpt lat="43.728756400495136" lon="11.295499181553135"><ele>88.5</ele><time>2026-04-26T14:37:06.001Z</time></trkpt><trkpt lat="43.728622058876034" lon="11.29546194962439"><ele>88.0</ele><time>2026-04-26T14:37:07.001Z</time></trkpt><trkpt lat="43.728487126856734" lon="11.295421682952087"><ele>88.0</ele><time>2026-04-26T14:37:08.001Z</time></trkpt><trkpt lat="43.72834997992025" lon="11.295372082221554"><ele>88.0</ele><time>2026-04-26T14:37:09.001Z</time></trkpt><trkpt lat="43.728224451877665" lon="11.295305717145645"><ele>88.0</ele><time>2026-04-26T14:37:10.001Z</time></trkpt><trkpt lat="43.72809933091469" lon="11.295201388525408"><ele>88.0</ele><time>2026-04-26T14:37:11.001Z</time></trkpt><trkpt lat="43.72797709737589" lon="11.295123336053557"><ele>88.0</ele><time>2026-04-26T14:37:12.001Z</time></trkpt><trkpt lat="43.72788900660362" lon="11.294976616633273"><ele>88.0</ele><time>2026-04-26T14:37:13.001Z</time></trkpt><trkpt lat="43.7277967957006" lon="11.294856892312684"><ele>88.0</ele><time>2026-04-26T14:37:14.001Z</time></trkpt><trkpt lat="43.727715151931974" lon="11.294722869312878"><ele>88.0</ele><time>2026-04-26T14:37:15.001Z</time></trkpt><trkpt lat="43.72761868252878" lon="11.29459793566507"><ele>88.25</ele><time>2026-04-26T14:37:16.001Z</time></trkpt><trkpt lat="43.72753578851453" lon="11.294438044576282"><ele>88.5</ele><time>2026-04-26T14:37:17.001Z</time></trkpt><trkpt lat="43.7274437744761" lon="11.294307548991442"><ele>88.75</ele><time>2026-04-26T14:37:18.001Z</time></trkpt><trkpt lat="43.72735850104058" lon="11.294161886067403"><ele>89.0</ele><time>2026-04-26T14:37:19.001Z</time></trkpt><trkpt lat="43.72726246389645" lon="11.294024904047124"><ele>89.0</ele><time>2026-04-26T14:37:20.001Z</time></trkpt><trkpt lat="43.7271777921265" lon="11.293878369880673"><ele>89.0</ele><time>2026-04-26T14:37:21.001Z</time></trkpt><trkpt lat="43.727079349155176" lon="11.293737709583853"><ele>89.0</ele><time>2026-04-26T14:37:22.001Z</time></trkpt><trkpt lat="43.7269840338162" lon="11.293596178624988"><ele>89.0</ele><time>2026-04-26T14:37:23.001Z</time></trkpt><trkpt lat="43.72689159854205" lon="11.293464513465667"><ele>89.0</ele><time>2026-04-26T14:37:24.001Z</time></trkpt><trkpt lat="43.726792061238704" lon="11.293352152230048"><ele>89.0</ele><time>2026-04-26T14:37:25.001Z</time></trkpt><trkpt lat="43.72669383403475" lon="11.29325640195886"><ele>89.0</ele><time>2026-04-26T14:37:26.001Z</time></trkpt><trkpt lat="43.726578635075434" lon="11.293176521732194"><ele>89.0</ele><time>2026-04-26T14:37:27.001Z</time></trkpt><trkpt lat="43.72646254173261" lon="11.29310308819144"><ele>89.25</ele><time>2026-04-26T14:37:28.001Z</time></trkpt><trkpt lat="43.726347251265906" lon="11.293041411536551"><ele>89.5</ele><time>2026-04-26T14:37:29.001Z</time></trkpt><trkpt lat="43.72622636556299" lon="11.292982750893001"><ele>89.75</ele><time>2026-04-26T14:37:30.001Z</time></trkpt><trkpt lat="43.72611373693494" lon="11.292911217574083"><ele>90.0</ele><time>2026-04-26T14:37:31.001Z</time></trkpt><trkpt lat="43.72599778098696" lon="11.292844950429616"><ele>90.0</ele><time>2026-04-26T14:37:32.001Z</time></trkpt><trkpt lat="43.72588309185458" lon="11.292784241450152"><ele>90.0</ele><time>2026-04-26T14:37:33.001Z</time></trkpt><trkpt lat="43.72578232754533" lon="11.292725711666655"><ele>90.0</ele><time>2026-04-26T14:37:34.001Z</time></trkpt><trkpt lat="43.72570363229535" lon="11.292684548894904"><ele>90.0</ele><time>2026-04-26T14:37:35.001Z</time></trkpt><trkpt lat="43.72562633442472" lon="11.292688592460138"><ele>90.0</ele><time>2026-04-26T14:37:36.001Z</time></trkpt><trkpt lat="43.72553306128039" lon="11.292815443256314"><ele>90.0</ele><time>2026-04-26T14:37:37.001Z</time></trkpt><trkpt lat="43.72545324426925" lon="11.29289969342228"><ele>90.0</ele><time>2026-04-26T14:37:38.001Z</time></trkpt><trkpt lat="43.725371334648074" lon="11.292984417759929"><ele>90.0</ele><time>2026-04-26T14:37:39.001Z</time></trkpt><trkpt lat="43.72527547670836" lon="11.293050679315423"><ele>90.0</ele><time>2026-04-26T14:37:40.001Z</time></trkpt><trkpt lat="43.72516493098133" lon="11.293096146854138"><ele>90.0</ele><time>2026-04-26T14:37:41.001Z</time></trkpt><trkpt lat="43.725048945671716" lon="11.293045447547946"><ele>89.75</ele><time>2026-04-26T14:37:42.001Z</time></trkpt><trkpt lat="43.724931258357294" lon="11.293061230271922"><ele>89.5</ele><time>2026-04-26T14:37:43.001Z</time></trkpt><trkpt lat="43.72481480508215" lon="11.29303525501977"><ele>89.25</ele><time>2026-04-26T14:37:44.001Z</time></trkpt><trkpt lat="43.724691552886966" lon="11.293044127089713"><ele>89.0</ele><time>2026-04-26T14:37:45.001Z</time></trkpt><trkpt lat="43.72457411924339" lon="11.293049006658949"><ele>89.0</ele><time>2026-04-26T14:37:46.001Z</time></trkpt><trkpt lat="43.72445641427796" lon="11.293032425665318"><ele>89.0</ele><time>2026-04-26T14:37:47.001Z</time></trkpt><trkpt lat="43.72433747322057" lon="11.293036162964597"><ele>89.0</ele><time>2026-04-26T14:37:48.001Z</time></trkpt><trkpt lat="43.72423373677874" lon="11.293053721999183"><ele>89.0</ele><time>2026-04-26T14:37:49.001Z</time></trkpt><trkpt lat="43.72414703494929" lon="11.293106070211772"><ele>89.0</ele><time>2026-04-26T14:37:50.002Z</time></trkpt><trkpt lat="43.724079491126176" lon="11.293208150614177"><ele>88.75</ele><time>2026-04-26T14:37:51.002Z</time></trkpt><trkpt lat="43.72400118803745" lon="11.293317315228986"><ele>88.5</ele><time>2026-04-26T14:37:52.002Z</time></trkpt><trkpt lat="43.72392885506702" lon="11.293443754592627"><ele>88.25</ele><time>2026-04-26T14:37:53.002Z</time></trkpt><trkpt lat="43.72386269409434" lon="11.293565478498683"><ele>88.0</ele><time>2026-04-26T14:37:54.002Z</time></trkpt><trkpt lat="43.723784731580096" lon="11.29368447579327"><ele>88.0</ele><time>2026-04-26T14:37:55.002Z</time></trkpt><trkpt lat="43.72370794792742" lon="11.293801705018007"><ele>88.0</ele><time>2026-04-26T14:37:56.002Z</time></trkpt><trkpt lat="43.723630682402856" lon="11.293926619591726"><ele>88.0</ele><time>2026-04-26T14:37:57.002Z</time></trkpt><trkpt lat="43.72354516165333" lon="11.294037309477176"><ele>88.0</ele><time>2026-04-26T14:37:58.002Z</time></trkpt><trkpt lat="43.72346882562198" lon="11.294158186955984"><ele>89.25</ele><time>2026-04-26T14:37:59.002Z</time></trkpt><trkpt lat="43.723395337422545" lon="11.294281129073454"><ele>90.5</ele><time>2026-04-26T14:38:00.002Z</time></trkpt><trkpt lat="43.723314988817556" lon="11.294400373810891"><ele>91.75</ele><time>2026-04-26T14:38:01.002Z</time></trkpt><trkpt lat="43.72323891832581" lon="11.29452463555758"><ele>93.0</ele><time>2026-04-26T14:38:02.002Z</time></trkpt><trkpt lat="43.723154850685304" lon="11.294642391425025"><ele>92.25</ele><time>2026-04-26T14:38:03Z</time></trkpt><trkpt lat="43.7230752721835" lon="11.294761268116584"><ele>91.5</ele><time>2026-04-26T14:38:04Z</time></trkpt><trkpt lat="43.722991688593616" lon="11.294876539585655"><ele>90.75</ele><time>2026-04-26T14:38:05Z</time></trkpt><trkpt lat="43.72290779300189" lon="11.294988536173184"><ele>90.0</ele><time>2026-04-26T14:38:06Z</time></trkpt><trkpt lat="43.72281668734902" lon="11.295092983986224"><ele>93.0</ele><time>2026-04-26T14:38:07Z</time></trkpt><trkpt lat="43.72271987703264" lon="11.295183501432328"><ele>96.0</ele><time>2026-04-26T14:38:08Z</time></trkpt><trkpt lat="43.72261128502925" lon="11.29525657412526"><ele>99.0</ele><time>2026-04-26T14:38:09Z</time></trkpt><trkpt lat="43.722502927560356" lon="11.295315945500393"><ele>102.0</ele><time>2026-04-26T14:38:10Z</time></trkpt><trkpt lat="43.72239248233884" lon="11.295363024511165"><ele>102.0</ele><time>2026-04-26T14:38:11Z</time></trkpt><trkpt lat="43.72228041321618" lon="11.295412321396082"><ele>102.0</ele><time>2026-04-26T14:38:12Z</time></trkpt><trkpt lat="43.72217427956706" lon="11.295458872194292"><ele>102.0</ele><time>2026-04-26T14:38:13Z</time></trkpt><trkpt lat="43.72206072870501" lon="11.295513749177584"><ele>102.0</ele><time>2026-04-26T14:38:14Z</time></trkpt><trkpt lat="43.72194096961569" lon="11.295567208530061"><ele>101.25</ele><time>2026-04-26T14:38:15Z</time></trkpt><trkpt lat="43.72181409264501" lon="11.295626880350044"><ele>100.5</ele><time>2026-04-26T14:38:16Z</time></trkpt><trkpt lat="43.72168362780108" lon="11.29568454691864"><ele>99.75</ele><time>2026-04-26T14:38:17Z</time></trkpt><trkpt lat="43.72155705043601" lon="11.295743420723104"><ele>99.0</ele><time>2026-04-26T14:38:18Z</time></trkpt><trkpt lat="43.7214400676101" lon="11.295792638764826"><ele>99.0</ele><time>2026-04-26T14:38:19Z</time></trkpt><trkpt lat="43.72134745874785" lon="11.29583289063945"><ele>99.0</ele><time>2026-04-26T14:38:20Z</time></trkpt><trkpt lat="43.721259322531765" lon="11.295823916580044"><ele>99.0</ele><time>2026-04-26T14:38:21Z</time></trkpt><trkpt lat="43.72116637613306" lon="11.295815658149664"><ele>99.0</ele><time>2026-04-26T14:38:22Z</time></trkpt><trkpt lat="43.72110916832262" lon="11.295706834435158"><ele>99.0</ele><time>2026-04-26T14:38:23Z</time></trkpt><trkpt lat="43.721070289817845" lon="11.295586419765876"><ele>101.0</ele><time>2026-04-26T14:38:24Z</time></trkpt><trkpt lat="43.72105374395853" lon="11.295457779372981"><ele>103.0</ele><time>2026-04-26T14:38:25Z</time></trkpt><trkpt lat="43.721091372955556" lon="11.295334940488091"><ele>105.0</ele><time>2026-04-26T14:38:26Z</time></trkpt><trkpt lat="43.721136635713904" lon="11.29522262972212"><ele>107.0</ele><time>2026-04-26T14:38:27Z</time></trkpt><trkpt lat="43.721224266280196" lon="11.29514666250347"><ele>109.0</ele><time>2026-04-26T14:38:28Z</time></trkpt><trkpt lat="43.721331434526974" lon="11.295145475895962"><ele>109.0</ele><time>2026-04-26T14:38:29Z</time></trkpt><trkpt lat="43.721443053199195" lon="11.295099943237771"><ele>109.0</ele><time>2026-04-26T14:38:30Z</time></trkpt><trkpt lat="43.72156875111711" lon="11.295081007456215"><ele>109.0</ele><time>2026-04-26T14:38:31Z</time></trkpt><trkpt lat="43.7216985890626" lon="11.29505317209644"><ele>109.0</ele><time>2026-04-26T14:38:32Z</time></trkpt><trkpt lat="43.721829029731424" lon="11.295008058248882"><ele>107.25</ele><time>2026-04-26T14:38:33Z</time></trkpt><trkpt lat="43.721961482809334" lon="11.294992562734283"><ele>105.5</ele><time>2026-04-26T14:38:34Z</time></trkpt><trkpt lat="43.72209204215051" lon="11.294960833360621"><ele>103.75</ele><time>2026-04-26T14:38:35Z</time></trkpt><trkpt lat="43.722237122637665" lon="11.294925714601929"><ele>102.0</ele><time>2026-04-26T14:38:36Z</time></trkpt><trkpt lat="43.722378760796744" lon="11.294891429265707"><ele>102.0</ele><time>2026-04-26T14:38:37Z</time></trkpt><trkpt lat="43.722509120424746" lon="11.294859451184045"><ele>102.0</ele><time>2026-04-26T14:38:38Z</time></trkpt><trkpt lat="43.722621617334696" lon="11.294826033536767"><ele>102.0</ele><time>2026-04-26T14:38:39Z</time></trkpt><trkpt lat="43.722711035388144" lon="11.294780799451653"><ele>102.0</ele><time>2026-04-26T14:38:40Z</time></trkpt><trkpt lat="43.72278725964908" lon="11.294683074385432"><ele>102.0</ele><time>2026-04-26T14:38:41Z</time></trkpt><trkpt lat="43.72284040743548" lon="11.294557889170932"><ele>99.75</ele><time>2026-04-26T14:38:42Z</time></trkpt><trkpt lat="43.722847146013166" lon="11.2943975728188"><ele>97.5</ele><time>2026-04-26T14:38:43Z</time></trkpt><trkpt lat="43.72280890001783" lon="11.29425579817687"><ele>95.25</ele><time>2026-04-26T14:38:44.001Z</time></trkpt><trkpt lat="43.72274659570354" lon="11.294128763066317"><ele>93.0</ele><time>2026-04-26T14:38:45.001Z</time></trkpt><trkpt lat="43.722650460419715" lon="11.294036073841964"><ele>97.75</ele><time>2026-04-26T14:38:46.001Z</time></trkpt><trkpt lat="43.72256359041787" lon="11.294004637180734"><ele>102.5</ele><time>2026-04-26T14:38:47.001Z</time></trkpt><trkpt lat="43.72243411400398" lon="11.294002498965462"><ele>107.25</ele><time>2026-04-26T14:38:48.001Z</time></trkpt><trkpt lat="43.72230876005486" lon="11.2940185980389"><ele>112.0</ele><time>2026-04-26T14:38:49.001Z</time></trkpt><trkpt lat="43.722189277888994" lon="11.293993662160087"><ele>110.25</ele><time>2026-04-26T14:38:50.001Z</time></trkpt><trkpt lat="43.72208236210576" lon="11.29391820730916"><ele>108.5</ele><time>2026-04-26T14:38:51.001Z</time></trkpt><trkpt lat="43.72197328352904" lon="11.29383855560441"><ele>106.75</ele><time>2026-04-26T14:38:52.001Z</time></trkpt><trkpt lat="43.72187682815646" lon="11.293729562909887"><ele>105.0</ele><time>2026-04-26T14:38:53.001Z</time></trkpt><trkpt lat="43.72178594254282" lon="11.293610535161697"><ele>108.75</ele><time>2026-04-26T14:38:54.001Z</time></trkpt><trkpt lat="43.72169853378269" lon="11.293492461316598"><ele>112.5</ele><time>2026-04-26T14:38:55.001Z</time></trkpt><trkpt lat="43.721604770563765" lon="11.293376590476765"><ele>116.25</ele><time>2026-04-26T14:38:56.001Z</time></trkpt><trkpt lat="43.721510101375195" lon="11.2932498634795"><ele>120.0</ele><time>2026-04-26T14:38:57.001Z</time></trkpt><trkpt lat="43.721413762000985" lon="11.293117123286502"><ele>118.25</ele><time>2026-04-26T14:38:58.001Z</time></trkpt><trkpt lat="43.72132194601792" lon="11.29298694858782"><ele>116.5</ele><time>2026-04-26T14:38:59.001Z</time></trkpt><trkpt lat="43.72122944464383" lon="11.292854651858228"><ele>114.75</ele><time>2026-04-26T14:39:00.001Z</time></trkpt><trkpt lat="43.72113553943199" lon="11.292730227054301"><ele>113.0</ele><time>2026-04-26T14:39:01.001Z</time></trkpt><trkpt lat="43.72104338176547" lon="11.292601683472089"><ele>118.0</ele><time>2026-04-26T14:39:02.001Z</time></trkpt><trkpt lat="43.72097691478284" lon="11.292446921234307"><ele>123.0</ele><time>2026-04-26T14:39:03.001Z</time></trkpt><trkpt lat="43.72092426629904" lon="11.292287173897623"><ele>128.0</ele><time>2026-04-26T14:39:04.001Z</time></trkpt><trkpt lat="43.720873866736895" lon="11.292126203189254"><ele>133.0</ele><time>2026-04-26T14:39:05.001Z</time></trkpt><trkpt lat="43.72088787027469" lon="11.29194573036595"><ele>133.25</ele><time>2026-04-26T14:39:06.001Z</time></trkpt><trkpt lat="43.72091901841711" lon="11.291778732250798"><ele>133.5</ele><time>2026-04-26T14:39:07.001Z</time></trkpt><trkpt lat="43.72096051901818" lon="11.291605389796011"><ele>133.75</ele><time>2026-04-26T14:39:08.001Z</time></trkpt><trkpt lat="43.721018165107104" lon="11.291450567656248"><ele>134.0</ele><time>2026-04-26T14:39:09.001Z</time></trkpt><trkpt lat="43.72107003076827" lon="11.291290336728057"><ele>134.0</ele><time>2026-04-26T14:39:10.001Z</time></trkpt><trkpt lat="43.72109604592809" lon="11.291128387441056"><ele>134.0</ele><time>2026-04-26T14:39:11.001Z</time></trkpt><trkpt lat="43.72110822364487" lon="11.290965508230569"><ele>134.0</ele><time>2026-04-26T14:39:12.001Z</time></trkpt><trkpt lat="43.72107293673187" lon="11.290800511460752"><ele>134.0</ele><time>2026-04-26T14:39:13.001Z</time></trkpt><trkpt lat="43.72100715731194" lon="11.29065223114499"><ele>130.25</ele><time>2026-04-26T14:39:14.001Z</time></trkpt><trkpt lat="43.72091287134353" lon="11.290537963683096"><ele>126.5</ele><time>2026-04-26T14:39:15.001Z</time></trkpt><trkpt lat="43.72079768972579" lon="11.290466795747573"><ele>122.75</ele><time>2026-04-26T14:39:16.001Z</time></trkpt><trkpt lat="43.720674792913705" lon="11.290437795413865"><ele>119.0</ele><time>2026-04-26T14:39:17.001Z</time></trkpt><trkpt lat="43.72055305121358" lon="11.290452949069252"><ele>119.0</ele><time>2026-04-26T14:39:18.001Z</time></trkpt><trkpt lat="43.72043533516055" lon="11.290510354528081"><ele>119.0</ele><time>2026-04-26T14:39:19.001Z</time></trkpt><trkpt lat="43.72032501406197" lon="11.290601169450168"><ele>119.0</ele><time>2026-04-26T14:39:20.001Z</time></trkpt><trkpt lat="43.72023154344436" lon="11.290724267274086"><ele>119.0</ele><time>2026-04-26T14:39:21.001Z</time></trkpt><trkpt lat="43.720143230689104" lon="11.290852247950168"><ele>123.75</ele><time>2026-04-26T14:39:22.001Z</time></trkpt><trkpt lat="43.72005062570455" lon="11.29096654140527"><ele>128.5</ele><time>2026-04-26T14:39:23.001Z</time></trkpt><trkpt lat="43.71995599202228" lon="11.291085039094684"><ele>133.25</ele><time>2026-04-26T14:39:24.001Z</time></trkpt><trkpt lat="43.71986086398068" lon="11.29119539944208"><ele>138.0</ele><time>2026-04-26T14:39:25.001Z</time></trkpt><trkpt lat="43.71975830011727" lon="11.2913017731177"><ele>138.0</ele><time>2026-04-26T14:39:26.001Z</time></trkpt><trkpt lat="43.71966493547939" lon="11.291414562260833"><ele>138.0</ele><time>2026-04-26T14:39:27.001Z</time></trkpt><trkpt lat="43.71955908226169" lon="11.29151304061301"><ele>138.0</ele><time>2026-04-26T14:39:28.001Z</time></trkpt><trkpt lat="43.71944570243976" lon="11.291588218833066"><ele>138.0</ele><time>2026-04-26T14:39:29.001Z</time></trkpt><trkpt lat="43.719321446613854" lon="11.291636069524984"><ele>140.25</ele><time>2026-04-26T14:39:30.001Z</time></trkpt><trkpt lat="43.71919780694563" lon="11.291666829238226"><ele>142.5</ele><time>2026-04-26T14:39:31.001Z</time></trkpt><trkpt lat="43.719070539033154" lon="11.29169252753143"><ele>144.75</ele><time>2026-04-26T14:39:32.001Z</time></trkpt><trkpt lat="43.71894110074099" lon="11.291694998608412"><ele>147.0</ele><time>2026-04-26T14:39:33.001Z</time></trkpt><trkpt lat="43.718815916532066" lon="11.29168020253381"><ele>147.0</ele><time>2026-04-26T14:39:34.001Z</time></trkpt><trkpt lat="43.71868926900301" lon="11.291671521589718"><ele>147.0</ele><time>2026-04-26T14:39:35.001Z</time></trkpt><trkpt lat="43.718563450669684" lon="11.291675302337103"><ele>147.0</ele><time>2026-04-26T14:39:36.001Z</time></trkpt><trkpt lat="43.718434806521564" lon="11.291671397487006"><ele>147.0</ele><time>2026-04-26T14:39:37.001Z</time></trkpt><trkpt lat="43.71830830715975" lon="11.291665008652764"><ele>148.5</ele><time>2026-04-26T14:39:38.001Z</time></trkpt><trkpt lat="43.718179972982576" lon="11.29165408006282"><ele>150.0</ele><time>2026-04-26T14:39:39.001Z</time></trkpt><trkpt lat="43.718046069979636" lon="11.291653488504709"><ele>151.5</ele><time>2026-04-26T14:39:40.001Z</time></trkpt><trkpt lat="43.71791339898307" lon="11.29164636060678"><ele>153.0</ele><time>2026-04-26T14:39:41.001Z</time></trkpt><trkpt lat="43.71777054025776" lon="11.291633082963571"><ele>154.25</ele><time>2026-04-26T14:39:42.001Z</time></trkpt><trkpt lat="43.71763533604918" lon="11.291631457390153"><ele>155.5</ele><time>2026-04-26T14:39:43.001Z</time></trkpt><trkpt lat="43.717506287144374" lon="11.291627820838293"><ele>156.75</ele><time>2026-04-26T14:39:44.001Z</time></trkpt><trkpt lat="43.71737012275638" lon="11.29162903573683"><ele>158.0</ele><time>2026-04-26T14:39:45.001Z</time></trkpt><trkpt lat="43.71723037806058" lon="11.291644629842997"><ele>158.0</ele><time>2026-04-26T14:39:46.001Z</time></trkpt><trkpt lat="43.717086245090115" lon="11.291678252302933"><ele>158.0</ele><time>2026-04-26T14:39:47.001Z</time></trkpt><trkpt lat="43.7169327696174" lon="11.29172509080548"><ele>158.0</ele><time>2026-04-26T14:39:48.001Z</time></trkpt><trkpt lat="43.71677207296781" lon="11.291779945395444"><ele>160.33333333333331</ele><time>2026-04-26T14:39:49.001Z</time></trkpt><trkpt lat="43.716603413594264" lon="11.291845228417749"><ele>162.66666666666666</ele><time>2026-04-26T14:39:50.001Z</time></trkpt><trkpt lat="43.716459316035795" lon="11.291902172872026"><ele>165.0</ele><time>2026-04-26T14:39:51.001Z</time></trkpt><trkpt lat="43.71632419049684" lon="11.29195227935747"><ele>165.0</ele><time>2026-04-26T14:39:52.001Z</time></trkpt><trkpt lat="43.71617372252354" lon="11.29201600723101"><ele>165.0</ele><time>2026-04-26T14:39:53.001Z</time></trkpt><trkpt lat="43.71602571756827" lon="11.292042427209172"><ele>165.0</ele><time>2026-04-26T14:39:54.001Z</time></trkpt><trkpt lat="43.71588824456446" lon="11.292003441341095"><ele>165.0</ele><time>2026-04-26T14:39:55.001Z</time></trkpt><trkpt lat="43.715751869136795" lon="11.291944845913939"><ele>166.66666666666666</ele><time>2026-04-26T14:39:56.001Z</time></trkpt><trkpt lat="43.71561207366974" lon="11.291864855701913"><ele>168.33333333333331</ele><time>2026-04-26T14:39:57.001Z</time></trkpt><trkpt lat="43.71547407672005" lon="11.291774983198106"><ele>170.0</ele><time>2026-04-26T14:39:58.001Z</time></trkpt><trkpt lat="43.715339454379325" lon="11.291683222338367"><ele>172.0</ele><time>2026-04-26T14:39:59.001Z</time></trkpt><trkpt lat="43.71519593787754" lon="11.291602911013918"><ele>174.0</ele><time>2026-04-26T14:40:00.001Z</time></trkpt><trkpt lat="43.71505719963223" lon="11.291511509048833"><ele>176.0</ele><time>2026-04-26T14:40:01.001Z</time></trkpt><trkpt lat="43.714918509527074" lon="11.291462741447251"><ele>176.0</ele><time>2026-04-26T14:40:02.001Z</time></trkpt><trkpt lat="43.714777110731895" lon="11.291429600147575"><ele>176.0</ele><time>2026-04-26T14:40:03.001Z</time></trkpt><trkpt lat="43.71463431430495" lon="11.291397131584155"><ele>176.0</ele><time>2026-04-26T14:40:04.001Z</time></trkpt><trkpt lat="43.71448925303436" lon="11.291379618284394"><ele>176.0</ele><time>2026-04-26T14:40:05.001Z</time></trkpt><trkpt lat="43.71434157551265" lon="11.291312391580222"><ele>176.5</ele><time>2026-04-26T14:40:06.001Z</time></trkpt><trkpt lat="43.71420195685891" lon="11.29126837358218"><ele>177.0</ele><time>2026-04-26T14:40:07.001Z</time></trkpt><trkpt lat="43.714061344820195" lon="11.291204314905679"><ele>177.5</ele><time>2026-04-26T14:40:08.001Z</time></trkpt><trkpt lat="43.713926877473966" lon="11.291146569483468"><ele>178.0</ele><time>2026-04-26T14:40:09Z</time></trkpt><trkpt lat="43.713781717301316" lon="11.291083966625546"><ele>178.0</ele><time>2026-04-26T14:40:10Z</time></trkpt><trkpt lat="43.71365386213352" lon="11.290976190845596"><ele>178.0</ele><time>2026-04-26T14:40:11Z</time></trkpt><trkpt lat="43.71352209065927" lon="11.290870038117578"><ele>178.0</ele><time>2026-04-26T14:40:12Z</time></trkpt><trkpt lat="43.71339428494624" lon="11.290760315581318"><ele>177.66666666666669</ele><time>2026-04-26T14:40:13Z</time></trkpt><trkpt lat="43.71326721942724" lon="11.290642970455904"><ele>177.33333333333334</ele><time>2026-04-26T14:40:14Z</time></trkpt><trkpt lat="43.71312609251186" lon="11.29054774570643"><ele>177.0</ele><time>2026-04-26T14:40:15Z</time></trkpt><trkpt lat="43.71299594179066" lon="11.290435217743177"><ele>177.75</ele><time>2026-04-26T14:40:16Z</time></trkpt><trkpt lat="43.71286729973008" lon="11.290356693387768"><ele>178.5</ele><time>2026-04-26T14:40:17Z</time></trkpt><trkpt lat="43.71273371049133" lon="11.29030796864626"><ele>179.25</ele><time>2026-04-26T14:40:18Z</time></trkpt><trkpt lat="43.71258324922248" lon="11.29028400015433"><ele>180.0</ele><time>2026-04-26T14:40:19Z</time></trkpt><trkpt lat="43.712433013854906" lon="11.290289545630456"><ele>180.0</ele><time>2026-04-26T14:40:20Z</time></trkpt><trkpt lat="43.712280565837766" lon="11.29032342161253"><ele>180.0</ele><time>2026-04-26T14:40:21Z</time></trkpt><trkpt lat="43.712127543686115" lon="11.290375091342439"><ele>180.0</ele><time>2026-04-26T14:40:22Z</time></trkpt><trkpt lat="43.71197758635412" lon="11.29043210284875"><ele>179.33333333333334</ele><time>2026-04-26T14:40:23Z</time></trkpt><trkpt lat="43.711822502872" lon="11.29048648672365"><ele>178.66666666666669</ele><time>2026-04-26T14:40:24Z</time></trkpt><trkpt lat="43.71167099620418" lon="11.290536197062288"><ele>178.0</ele><time>2026-04-26T14:40:25Z</time></trkpt><trkpt lat="43.711519618707484" lon="11.290576120692078"><ele>178.75</ele><time>2026-04-26T14:40:26Z</time></trkpt><trkpt lat="43.711368624658576" lon="11.29062104461939"><ele>179.5</ele><time>2026-04-26T14:40:27Z</time></trkpt><trkpt lat="43.71122439321021" lon="11.290659415649355"><ele>180.25</ele><time>2026-04-26T14:40:28Z</time></trkpt><trkpt lat="43.711081380268055" lon="11.290686872778565"><ele>181.0</ele><time>2026-04-26T14:40:29Z</time></trkpt><trkpt lat="43.71093572011015" lon="11.290683622618388"><ele>181.0</ele><time>2026-04-26T14:40:30Z</time></trkpt><trkpt lat="43.710779266522394" lon="11.290657768222642"><ele>181.0</ele><time>2026-04-26T14:40:31Z</time></trkpt><trkpt lat="43.71062714103629" lon="11.29062497104025"><ele>181.0</ele><time>2026-04-26T14:40:32Z</time></trkpt><trkpt lat="43.71047762482262" lon="11.290557017147771"><ele>180.66666666666669</ele><time>2026-04-26T14:40:33Z</time></trkpt><trkpt lat="43.71032429867933" lon="11.290497367588221"><ele>180.33333333333334</ele><time>2026-04-26T14:40:34Z</time></trkpt><trkpt lat="43.71017703840511" lon="11.290434966450741"><ele>180.0</ele><time>2026-04-26T14:40:35Z</time></trkpt><trkpt lat="43.71002488656573" lon="11.290381233816118"><ele>181.33333333333334</ele><time>2026-04-26T14:40:36Z</time></trkpt><trkpt lat="43.70988336540911" lon="11.290278702427178"><ele>182.66666666666669</ele><time>2026-04-26T14:40:37Z</time></trkpt><trkpt lat="43.70974372280023" lon="11.29018909142242"><ele>184.0</ele><time>2026-04-26T14:40:38Z</time></trkpt><trkpt lat="43.70961244744486" lon="11.290093238208208"><ele>184.0</ele><time>2026-04-26T14:40:39Z</time></trkpt><trkpt lat="43.70948572374031" lon="11.289998379459806"><ele>184.0</ele><time>2026-04-26T14:40:40Z</time></trkpt><trkpt lat="43.70934611643977" lon="11.289918308574643"><ele>184.0</ele><time>2026-04-26T14:40:41Z</time></trkpt><trkpt lat="43.709224334019986" lon="11.28980665286557"><ele>184.0</ele><time>2026-04-26T14:40:42Z</time></trkpt><trkpt lat="43.70911005897298" lon="11.289686356711192"><ele>184.25</ele><time>2026-04-26T14:40:43Z</time></trkpt><trkpt lat="43.70897989789354" lon="11.289612469542265"><ele>184.5</ele><time>2026-04-26T14:40:44Z</time></trkpt><trkpt lat="43.70884554559689" lon="11.289547760686762"><ele>184.75</ele><time>2026-04-26T14:40:45Z</time></trkpt><trkpt lat="43.70870388868548" lon="11.289487562937854"><ele>185.0</ele><time>2026-04-26T14:40:46Z</time></trkpt><trkpt lat="43.70855860713515" lon="11.289448416466854"><ele>185.5</ele><time>2026-04-26T14:40:47Z</time></trkpt><trkpt lat="43.70841016025225" lon="11.289412413425223"><ele>186.0</ele><time>2026-04-26T14:40:48Z</time></trkpt><trkpt lat="43.70826380998281" lon="11.289400170673343"><ele>186.5</ele><time>2026-04-26T14:40:49Z</time></trkpt><trkpt lat="43.708118662667296" lon="11.289414412535615"><ele>187.0</ele><time>2026-04-26T14:40:50Z</time></trkpt><trkpt lat="43.707969447945395" lon="11.289436133778837"><ele>187.0</ele><time>2026-04-26T14:40:51Z</time></trkpt><trkpt lat="43.707820377031794" lon="11.289477697735203"><ele>187.0</ele><time>2026-04-26T14:40:52Z</time></trkpt><trkpt lat="43.70767487001489" lon="11.289497168179787"><ele>187.0</ele><time>2026-04-26T14:40:53Z</time></trkpt><trkpt lat="43.70752368021063" lon="11.289529200776437"><ele>186.0</ele><time>2026-04-26T14:40:54Z</time></trkpt><trkpt lat="43.707372704489714" lon="11.289553678287177"><ele>185.0</ele><time>2026-04-26T14:40:55Z</time></trkpt><trkpt lat="43.70723498471887" lon="11.289563525293117"><ele>184.0</ele><time>2026-04-26T14:40:56Z</time></trkpt><trkpt lat="43.707106557228194" lon="11.289595975022943"><ele>183.0</ele><time>2026-04-26T14:40:57Z</time></trkpt><trkpt lat="43.706985102465" lon="11.289612779586692"><ele>184.25</ele><time>2026-04-26T14:40:58Z</time></trkpt><trkpt lat="43.7068503460454" lon="11.289634261612417"><ele>185.5</ele><time>2026-04-26T14:40:59Z</time></trkpt><trkpt lat="43.70673244829128" lon="11.289683180650767"><ele>186.75</ele><time>2026-04-26T14:41:00Z</time></trkpt><trkpt lat="43.706633210680096" lon="11.289762742318484"><ele>188.0</ele><time>2026-04-26T14:41:01Z</time></trkpt><trkpt lat="43.706541843257774" lon="11.289864633628637"><ele>189.0</ele><time>2026-04-26T14:41:02Z</time></trkpt><trkpt lat="43.70644788627949" lon="11.28998718711115"><ele>190.0</ele><time>2026-04-26T14:41:03Z</time></trkpt><trkpt lat="43.706345977332376" lon="11.29012335427106"><ele>191.0</ele><time>2026-04-26T14:41:04.001Z</time></trkpt><trkpt lat="43.70623812517036" lon="11.29025459281507"><ele>192.0</ele><time>2026-04-26T14:41:05.001Z</time></trkpt><trkpt lat="43.706129679494744" lon="11.290386552970595"><ele>193.0</ele><time>2026-04-26T14:41:06.001Z</time></trkpt><trkpt lat="43.70601693430911" lon="11.290523440469688"><ele>194.0</ele><time>2026-04-26T14:41:07.001Z</time></trkpt><trkpt lat="43.70590632231902" lon="11.290656128105448"><ele>195.0</ele><time>2026-04-26T14:41:08.001Z</time></trkpt><trkpt lat="43.70579913961954" lon="11.290789279744743"><ele>196.0</ele><time>2026-04-26T14:41:09.001Z</time></trkpt><trkpt lat="43.70569600336621" lon="11.290923890506967"><ele>196.0</ele><time>2026-04-26T14:41:10.001Z</time></trkpt><trkpt lat="43.70558550493201" lon="11.291051196602433"><ele>196.0</ele><time>2026-04-26T14:41:11.001Z</time></trkpt><trkpt lat="43.70547664802655" lon="11.291186897724662"><ele>196.0</ele><time>2026-04-26T14:41:12.001Z</time></trkpt><trkpt lat="43.70536857193503" lon="11.291319786008883"><ele>196.0</ele><time>2026-04-26T14:41:13.001Z</time></trkpt><trkpt lat="43.705262431128006" lon="11.29145200809633"><ele>196.0</ele><time>2026-04-26T14:41:14.001Z</time></trkpt><trkpt lat="43.70515284751388" lon="11.291588499417832"><ele>196.0</ele><time>2026-04-26T14:41:15.001Z</time></trkpt><trkpt lat="43.70504291886788" lon="11.291720102389636"><ele>196.0</ele><time>2026-04-26T14:41:16.001Z</time></trkpt><trkpt lat="43.70494300919026" lon="11.291850540875991"><ele>196.0</ele><time>2026-04-26T14:41:17.001Z</time></trkpt><trkpt lat="43.704846188852805" lon="11.291980777875134"><ele>196.0</ele><time>2026-04-26T14:41:18.001Z</time></trkpt><trkpt lat="43.704756161420114" lon="11.292100202885344"><ele>196.0</ele><time>2026-04-26T14:41:19.001Z</time></trkpt><trkpt lat="43.70465594313172" lon="11.292219120705663"><ele>196.0</ele><time>2026-04-26T14:41:20.001Z</time></trkpt><trkpt lat="43.70455483846868" lon="11.292332188027023"><ele>196.0</ele><time>2026-04-26T14:41:21.001Z</time></trkpt><trkpt lat="43.704435980077555" lon="11.292432017951946"><ele>196.5</ele><time>2026-04-26T14:41:22.001Z</time></trkpt><trkpt lat="43.70432073327373" lon="11.292527425408986"><ele>197.0</ele><time>2026-04-26T14:41:23.001Z</time></trkpt><trkpt lat="43.704197850147324" lon="11.292637072000591"><ele>197.5</ele><time>2026-04-26T14:41:24.001Z</time></trkpt><trkpt lat="43.70407894191219" lon="11.292741053090932"><ele>198.0</ele><time>2026-04-26T14:41:25.001Z</time></trkpt><trkpt lat="43.70396083211088" lon="11.292862640360376"><ele>198.0</ele><time>2026-04-26T14:41:26.001Z</time></trkpt><trkpt lat="43.70384045717028" lon="11.292965094097914"><ele>198.0</ele><time>2026-04-26T14:41:27.001Z</time></trkpt><trkpt lat="43.703706387594345" lon="11.293053665167234"><ele>198.0</ele><time>2026-04-26T14:41:28.001Z</time></trkpt><trkpt lat="43.70356737905109" lon="11.293118779873122"><ele>198.0</ele><time>2026-04-26T14:41:29.001Z</time></trkpt><trkpt lat="43.70342134230411" lon="11.293140572243376"><ele>198.5</ele><time>2026-04-26T14:41:30.001Z</time></trkpt><trkpt lat="43.70327108853043" lon="11.293163502450675"><ele>199.0</ele><time>2026-04-26T14:41:31.001Z</time></trkpt><trkpt lat="43.703128351707626" lon="11.29317971119188"><ele>199.5</ele><time>2026-04-26T14:41:32.001Z</time></trkpt><trkpt lat="43.702979148807096" lon="11.293193994751038"><ele>200.0</ele><time>2026-04-26T14:41:33.001Z</time></trkpt><trkpt lat="43.7028294877918" lon="11.293205967498622"><ele>199.33333333333334</ele><time>2026-04-26T14:41:34.001Z</time></trkpt><trkpt lat="43.70268227099575" lon="11.293213959593098"><ele>198.66666666666669</ele><time>2026-04-26T14:41:35.001Z</time></trkpt><trkpt lat="43.70252863386975" lon="11.293217754606186"><ele>198.0</ele><time>2026-04-26T14:41:36.001Z</time></trkpt><trkpt lat="43.70237962107843" lon="11.293210259020803"><ele>198.0</ele><time>2026-04-26T14:41:37.001Z</time></trkpt><trkpt lat="43.70222168417066" lon="11.293189130544338"><ele>198.0</ele><time>2026-04-26T14:41:38.001Z</time></trkpt><trkpt lat="43.702073070735075" lon="11.293169558393885"><ele>198.0</ele><time>2026-04-26T14:41:39.001Z</time></trkpt><trkpt lat="43.70193031556529" lon="11.29315154298737"><ele>198.66666666666669</ele><time>2026-04-26T14:41:40.001Z</time></trkpt><trkpt lat="43.70177708239651" lon="11.293132205255874"><ele>199.33333333333334</ele><time>2026-04-26T14:41:41.001Z</time></trkpt><trkpt lat="43.70162420738624" lon="11.293112912726055"><ele>200.0</ele><time>2026-04-26T14:41:42.001Z</time></trkpt><trkpt lat="43.70147689999148" lon="11.293091297728159"><ele>201.0</ele><time>2026-04-26T14:41:43.001Z</time></trkpt><trkpt lat="43.701326633515094" lon="11.293068886900558"><ele>202.0</ele><time>2026-04-26T14:41:44.001Z</time></trkpt><trkpt lat="43.701183121706435" lon="11.293047955432657"><ele>203.0</ele><time>2026-04-26T14:41:45.001Z</time></trkpt><trkpt lat="43.701037954422155" lon="11.293028583012443"><ele>204.0</ele><time>2026-04-26T14:41:46.001Z</time></trkpt><trkpt lat="43.70089156648588" lon="11.293010328121918"><ele>204.0</ele><time>2026-04-26T14:41:47.001Z</time></trkpt><trkpt lat="43.70074973846924" lon="11.292993404540843"><ele>204.0</ele><time>2026-04-26T14:41:48.001Z</time></trkpt><trkpt lat="43.700606437843284" lon="11.292976305243265"><ele>204.0</ele><time>2026-04-26T14:41:49.001Z</time></trkpt><trkpt lat="43.70046280139616" lon="11.292960778169508"><ele>204.0</ele><time>2026-04-26T14:41:50.001Z</time></trkpt><trkpt lat="43.70031302469439" lon="11.29294670393968"><ele>203.75</ele><time>2026-04-26T14:41:51.001Z</time></trkpt><trkpt lat="43.7001795202063" lon="11.292946682203205"><ele>203.5</ele><time>2026-04-26T14:41:52.001Z</time></trkpt><trkpt lat="43.70003887939923" lon="11.29297642966533"><ele>203.25</ele><time>2026-04-26T14:41:53.001Z</time></trkpt><trkpt lat="43.699904435486175" lon="11.292985952720583"><ele>203.0</ele><time>2026-04-26T14:41:54.001Z</time></trkpt><trkpt lat="43.69975368338427" lon="11.29299776183133"><ele>203.0</ele><time>2026-04-26T14:41:55.001Z</time></trkpt><trkpt lat="43.69960954406611" lon="11.293026091388155"><ele>203.0</ele><time>2026-04-26T14:41:56.001Z</time></trkpt><trkpt lat="43.69946500260069" lon="11.29306500725711"><ele>203.0</ele><time>2026-04-26T14:41:57.001Z</time></trkpt><trkpt lat="43.699319189058215" lon="11.293107217296123"><ele>203.0</ele><time>2026-04-26T14:41:58.001Z</time></trkpt><trkpt lat="43.69916896139243" lon="11.29315706800511"><ele>203.0</ele><time>2026-04-26T14:41:59.001Z</time></trkpt><trkpt lat="43.699030093935775" lon="11.293202951084012"><ele>203.0</ele><time>2026-04-26T14:42:00.001Z</time></trkpt><trkpt lat="43.698875606633514" lon="11.2932486657383"><ele>203.0</ele><time>2026-04-26T14:42:01.001Z</time></trkpt><trkpt lat="43.69872751471056" lon="11.293284481640642"><ele>203.0</ele><time>2026-04-26T14:42:02.001Z</time></trkpt><trkpt lat="43.69858555405793" lon="11.293309852236908"><ele>203.0</ele><time>2026-04-26T14:42:03.001Z</time></trkpt><trkpt lat="43.69844100765419" lon="11.293328447829817"><ele>203.0</ele><time>2026-04-26T14:42:04.001Z</time></trkpt><trkpt lat="43.69816682777595" lon="11.29335455833585"><ele>202.75</ele><time>2026-04-26T14:42:06.001Z</time></trkpt><trkpt lat="43.698018389141" lon="11.29336106485108"><ele>202.5</ele><time>2026-04-26T14:42:07.001Z</time></trkpt><trkpt lat="43.697886213122004" lon="11.293362913462637"><ele>202.25</ele><time>2026-04-26T14:42:08.001Z</time></trkpt><trkpt lat="43.697747414901386" lon="11.293364349786962"><ele>202.0</ele><time>2026-04-26T14:42:09.001Z</time></trkpt><trkpt lat="43.69760500631354" lon="11.293364349783987"><ele>202.0</ele><time>2026-04-26T14:42:10.001Z</time></trkpt><trkpt lat="43.697464430610026" lon="11.293363875074848"><ele>202.0</ele><time>2026-04-26T14:42:11.001Z</time></trkpt><trkpt lat="43.69731729421904" lon="11.293359686984397"><ele>202.0</ele><time>2026-04-26T14:42:12.001Z</time></trkpt><trkpt lat="43.69717472834671" lon="11.29334942107941"><ele>202.0</ele><time>2026-04-26T14:42:13.001Z</time></trkpt><trkpt lat="43.697030134251264" lon="11.29332669022801"><ele>202.25</ele><time>2026-04-26T14:42:14.001Z</time></trkpt><trkpt lat="43.69688785493762" lon="11.293301053976144"><ele>202.5</ele><time>2026-04-26T14:42:15Z</time></trkpt><trkpt lat="43.69674466686098" lon="11.293275254015246"><ele>202.75</ele><time>2026-04-26T14:42:16Z</time></trkpt><trkpt lat="43.696601775561476" lon="11.293247084944339"><ele>203.0</ele><time>2026-04-26T14:42:17Z</time></trkpt><trkpt lat="43.69646559872673" lon="11.293216854396212"><ele>203.0</ele><time>2026-04-26T14:42:18Z</time></trkpt><trkpt lat="43.69632540900971" lon="11.293182634941179"><ele>203.0</ele><time>2026-04-26T14:42:19Z</time></trkpt><trkpt lat="43.696179673691546" lon="11.293144950487724"><ele>203.0</ele><time>2026-04-26T14:42:20Z</time></trkpt><trkpt lat="43.69603263897966" lon="11.293127077835749"><ele>203.0</ele><time>2026-04-26T14:42:21Z</time></trkpt><trkpt lat="43.69590049644985" lon="11.293074456462893"><ele>204.0</ele><time>2026-04-26T14:42:22Z</time></trkpt><trkpt lat="43.69576319666693" lon="11.293029872828507"><ele>205.0</ele><time>2026-04-26T14:42:23Z</time></trkpt><trkpt lat="43.69561978644818" lon="11.292980884338537"><ele>206.0</ele><time>2026-04-26T14:42:24Z</time></trkpt><trkpt lat="43.69548423873354" lon="11.292936879170135"><ele>207.0</ele><time>2026-04-26T14:42:25Z</time></trkpt><trkpt lat="43.69534512457377" lon="11.292897665109777"><ele>207.25</ele><time>2026-04-26T14:42:26Z</time></trkpt><trkpt lat="43.69520744429679" lon="11.29286034555717"><ele>207.5</ele><time>2026-04-26T14:42:27Z</time></trkpt><trkpt lat="43.69506720207285" lon="11.292839834065669"><ele>207.75</ele><time>2026-04-26T14:42:28Z</time></trkpt><trkpt lat="43.69492309791031" lon="11.292835099789613"><ele>208.0</ele><time>2026-04-26T14:42:29Z</time></trkpt><trkpt lat="43.694777604667856" lon="11.292828729010289"><ele>208.0</ele><time>2026-04-26T14:42:30Z</time></trkpt><trkpt lat="43.6946209633934" lon="11.292829507906651"><ele>208.0</ele><time>2026-04-26T14:42:31Z</time></trkpt><trkpt lat="43.69446661471245" lon="11.292826569925385"><ele>208.0</ele><time>2026-04-26T14:42:32Z</time></trkpt><trkpt lat="43.69431794675919" lon="11.292810206258112"><ele>208.0</ele><time>2026-04-26T14:42:33Z</time></trkpt><trkpt lat="43.694188452715075" lon="11.292828222157235"><ele>208.0</ele><time>2026-04-26T14:42:34Z</time></trkpt><trkpt lat="43.69406868191459" lon="11.292856123070262"><ele>208.0</ele><time>2026-04-26T14:42:35Z</time></trkpt><trkpt lat="43.693967939870625" lon="11.292931045132258"><ele>208.0</ele><time>2026-04-26T14:42:36Z</time></trkpt><trkpt lat="43.69380626016554" lon="11.293156646282183"><ele>207.25</ele><time>2026-04-26T14:42:38Z</time></trkpt><trkpt lat="43.69373552065375" lon="11.293295438585398"><ele>206.5</ele><time>2026-04-26T14:42:39Z</time></trkpt><trkpt lat="43.69365724987226" lon="11.293412892684154"><ele>205.75</ele><time>2026-04-26T14:42:40Z</time></trkpt><trkpt lat="43.693562682603805" lon="11.293492166080313"><ele>205.0</ele><time>2026-04-26T14:42:41Z</time></trkpt><trkpt lat="43.6934382115457" lon="11.293548030063661"><ele>205.0</ele><time>2026-04-26T14:42:42Z</time></trkpt><trkpt lat="43.69332024711141" lon="11.293590447367016"><ele>205.0</ele><time>2026-04-26T14:42:43Z</time></trkpt><trkpt lat="43.69320132204693" lon="11.293678737880931"><ele>205.0</ele><time>2026-04-26T14:42:44Z</time></trkpt><trkpt lat="43.69310842260235" lon="11.293810068419335"><ele>205.0</ele><time>2026-04-26T14:42:45Z</time></trkpt><trkpt lat="43.693042631706" lon="11.293964790074776"><ele>203.5</ele><time>2026-04-26T14:42:46Z</time></trkpt><trkpt lat="43.6929896561995" lon="11.294125112188368"><ele>202.0</ele><time>2026-04-26T14:42:47Z</time></trkpt><trkpt lat="43.69296829265723" lon="11.29430218444546"><ele>200.5</ele><time>2026-04-26T14:42:48Z</time></trkpt><trkpt lat="43.692954769163784" lon="11.294464269993517"><ele>199.0</ele><time>2026-04-26T14:42:49Z</time></trkpt><trkpt lat="43.69294110804335" lon="11.294614646133278"><ele>199.0</ele><time>2026-04-26T14:42:50Z</time></trkpt><trkpt lat="43.69291139744599" lon="11.294736924077391"><ele>199.0</ele><time>2026-04-26T14:42:51Z</time></trkpt><trkpt lat="43.69285186171072" lon="11.294829480429629"><ele>199.0</ele><time>2026-04-26T14:42:52Z</time></trkpt><trkpt lat="43.69277825014163" lon="11.294892681197148"><ele>199.0</ele><time>2026-04-26T14:42:53Z</time></trkpt><trkpt lat="43.69269005560456" lon="11.294929517973916"><ele>199.0</ele><time>2026-04-26T14:42:54Z</time></trkpt><trkpt lat="43.692582166003085" lon="11.294920961707334"><ele>199.5</ele><time>2026-04-26T14:42:55Z</time></trkpt><trkpt lat="43.6924654638367" lon="11.294877502595913"><ele>200.0</ele><time>2026-04-26T14:42:56Z</time></trkpt><trkpt lat="43.692356016551145" lon="11.294807121527645"><ele>200.5</ele><time>2026-04-26T14:42:57Z</time></trkpt><trkpt lat="43.692231856068965" lon="11.294744662748029"><ele>201.0</ele><time>2026-04-26T14:42:58Z</time></trkpt><trkpt lat="43.69209537182288" lon="11.294720891130849"><ele>201.25</ele><time>2026-04-26T14:42:59Z</time></trkpt><trkpt lat="43.69198262645143" lon="11.294729015888633"><ele>201.5</ele><time>2026-04-26T14:43:00Z</time></trkpt><trkpt lat="43.69185557750913" lon="11.294783574751776"><ele>201.75</ele><time>2026-04-26T14:43:01Z</time></trkpt><trkpt lat="43.69173425647189" lon="11.294876392096905"><ele>202.0</ele><time>2026-04-26T14:43:02Z</time></trkpt><trkpt lat="43.691614997165345" lon="11.294993852141843"><ele>202.0</ele><time>2026-04-26T14:43:03Z</time></trkpt><trkpt lat="43.691496396332525" lon="11.295099449299355"><ele>202.0</ele><time>2026-04-26T14:43:04Z</time></trkpt><trkpt lat="43.691370176128636" lon="11.295194865008002"><ele>202.0</ele><time>2026-04-26T14:43:05Z</time></trkpt><trkpt lat="43.69123937887618" lon="11.295276381923339"><ele>202.0</ele><time>2026-04-26T14:43:06Z</time></trkpt><trkpt lat="43.691099556941055" lon="11.295346824294814"><ele>202.0</ele><time>2026-04-26T14:43:07Z</time></trkpt><trkpt lat="43.69095891999929" lon="11.29540803872899"><ele>202.0</ele><time>2026-04-26T14:43:08Z</time></trkpt><trkpt lat="43.690816578068706" lon="11.295468646649372"><ele>202.0</ele><time>2026-04-26T14:43:09Z</time></trkpt><trkpt lat="43.6906793733147" lon="11.295530990513653"><ele>202.0</ele><time>2026-04-26T14:43:10Z</time></trkpt><trkpt lat="43.69053829889683" lon="11.295601193274374"><ele>202.0</ele><time>2026-04-26T14:43:11Z</time></trkpt><trkpt lat="43.690397059528586" lon="11.295666454488515"><ele>202.0</ele><time>2026-04-26T14:43:12Z</time></trkpt><trkpt lat="43.69025313527468" lon="11.295736008508468"><ele>202.0</ele><time>2026-04-26T14:43:13Z</time></trkpt><trkpt lat="43.69010677981686" lon="11.295807926220782"><ele>203.5</ele><time>2026-04-26T14:43:14Z</time></trkpt><trkpt lat="43.68996391699808" lon="11.295869578460312"><ele>205.0</ele><time>2026-04-26T14:43:15Z</time></trkpt><trkpt lat="43.689819384673385" lon="11.295921661948642"><ele>206.5</ele><time>2026-04-26T14:43:16Z</time></trkpt><trkpt lat="43.68967297861328" lon="11.2959630461844"><ele>208.0</ele><time>2026-04-26T14:43:17Z</time></trkpt><trkpt lat="43.6895189336236" lon="11.295991154600486"><ele>208.66666666666666</ele><time>2026-04-26T14:43:18Z</time></trkpt><trkpt lat="43.68936530934094" lon="11.296002729036454"><ele>209.33333333333331</ele><time>2026-04-26T14:43:19.001Z</time></trkpt><trkpt lat="43.68920889376122" lon="11.295994515560874"><ele>210.0</ele><time>2026-04-26T14:43:20.001Z</time></trkpt><trkpt lat="43.68905369491937" lon="11.295979018146873"><ele>210.0</ele><time>2026-04-26T14:43:21.001Z</time></trkpt><trkpt lat="43.688901596236896" lon="11.295959621413706"><ele>210.0</ele><time>2026-04-26T14:43:22.001Z</time></trkpt><trkpt lat="43.688752254491405" lon="11.29594907530219"><ele>210.0</ele><time>2026-04-26T14:43:23.001Z</time></trkpt><trkpt lat="43.68860910124058" lon="11.29594701741953"><ele>210.0</ele><time>2026-04-26T14:43:24.001Z</time></trkpt><trkpt lat="43.68846479767721" lon="11.295957404765923"><ele>208.75</ele><time>2026-04-26T14:43:25.001Z</time></trkpt><trkpt lat="43.6883202953534" lon="11.295982081417353"><ele>207.5</ele><time>2026-04-26T14:43:26.001Z</time></trkpt><trkpt lat="43.688178986992696" lon="11.296010444456494"><ele>206.25</ele><time>2026-04-26T14:43:27.001Z</time></trkpt><trkpt lat="43.68803630236048" lon="11.296054744911087"><ele>205.0</ele><time>2026-04-26T14:43:28.001Z</time></trkpt><trkpt lat="43.68789442651673" lon="11.296094001593067"><ele>203.75</ele><time>2026-04-26T14:43:29.001Z</time></trkpt><trkpt lat="43.68775121652507" lon="11.296128817437062"><ele>202.5</ele><time>2026-04-26T14:43:30.001Z</time></trkpt><trkpt lat="43.687605520586274" lon="11.296165247714098"><ele>201.25</ele><time>2026-04-26T14:43:31.001Z</time></trkpt><trkpt lat="43.68746165474559" lon="11.296199858684954"><ele>200.0</ele><time>2026-04-26T14:43:32.001Z</time></trkpt><trkpt lat="43.68731879506062" lon="11.296236180148979"><ele>200.0</ele><time>2026-04-26T14:43:33.001Z</time></trkpt><trkpt lat="43.687175651529806" lon="11.296271138911136"><ele>200.0</ele><time>2026-04-26T14:43:34.001Z</time></trkpt><trkpt lat="43.687030544555036" lon="11.296301170758564"><ele>200.0</ele><time>2026-04-26T14:43:35.001Z</time></trkpt><trkpt lat="43.68688680598521" lon="11.296319270145325"><ele>200.0</ele><time>2026-04-26T14:43:36.001Z</time></trkpt><trkpt lat="43.68674160977281" lon="11.296326972357708"><ele>201.0</ele><time>2026-04-26T14:43:37.001Z</time></trkpt><trkpt lat="43.686596733433674" lon="11.296321865532233"><ele>202.0</ele><time>2026-04-26T14:43:38.001Z</time></trkpt><trkpt lat="43.68645365212257" lon="11.2963126040628"><ele>203.0</ele><time>2026-04-26T14:43:39.001Z</time></trkpt><trkpt lat="43.68631124839748" lon="11.2962873506982"><ele>204.0</ele><time>2026-04-26T14:43:40.001Z</time></trkpt><trkpt lat="43.68616263871829" lon="11.296274829809144"><ele>206.25</ele><time>2026-04-26T14:43:41.001Z</time></trkpt><trkpt lat="43.68601774876939" lon="11.296267298713891"><ele>208.5</ele><time>2026-04-26T14:43:42.001Z</time></trkpt><trkpt lat="43.685871767360446" lon="11.296246257295905"><ele>210.75</ele><time>2026-04-26T14:43:43.001Z</time></trkpt><trkpt lat="43.6857349276059" lon="11.296209661910359"><ele>213.0</ele><time>2026-04-26T14:43:44.001Z</time></trkpt><trkpt lat="43.68561419309459" lon="11.296106734925464"><ele>213.0</ele><time>2026-04-26T14:43:45.001Z</time></trkpt><trkpt lat="43.68548753424419" lon="11.296032151182802"><ele>213.0</ele><time>2026-04-26T14:43:46.001Z</time></trkpt><trkpt lat="43.685372251781885" lon="11.29592456117095"><ele>213.0</ele><time>2026-04-26T14:43:47.001Z</time></trkpt><trkpt lat="43.685258007722446" lon="11.295829411969157"><ele>213.0</ele><time>2026-04-26T14:43:48.001Z</time></trkpt><trkpt lat="43.685133139343186" lon="11.295730214792638"><ele>214.75</ele><time>2026-04-26T14:43:49.001Z</time></trkpt><trkpt lat="43.68500944770486" lon="11.295635434948638"><ele>216.5</ele><time>2026-04-26T14:43:50.001Z</time></trkpt><trkpt lat="43.68489215220659" lon="11.295542687154104"><ele>218.25</ele><time>2026-04-26T14:43:51.001Z</time></trkpt><trkpt lat="43.6847814864895" lon="11.295419129960441"><ele>220.0</ele><time>2026-04-26T14:43:52.001Z</time></trkpt><trkpt lat="43.684667297768385" lon="11.295318121880337"><ele>221.25</ele><time>2026-04-26T14:43:53.001Z</time></trkpt><trkpt lat="43.68457453953856" lon="11.295177955010587"><ele>222.5</ele><time>2026-04-26T14:43:54.001Z</time></trkpt><trkpt lat="43.68449995640639" lon="11.295020748272131"><ele>223.75</ele><time>2026-04-26T14:43:55.001Z</time></trkpt><trkpt lat="43.68443508680196" lon="11.294854471982804"><ele>225.0</ele><time>2026-04-26T14:43:56.001Z</time></trkpt><trkpt lat="43.68438719748199" lon="11.294679653767231"><ele>225.25</ele><time>2026-04-26T14:43:57.001Z</time></trkpt><trkpt lat="43.684352097293164" lon="11.29449651516657"><ele>225.5</ele><time>2026-04-26T14:43:58.001Z</time></trkpt><trkpt lat="43.6842792878596" lon="11.29433570384553"><ele>225.75</ele><time>2026-04-26T14:43:59.001Z</time></trkpt><trkpt lat="43.684210945186074" lon="11.294183000206296"><ele>226.0</ele><time>2026-04-26T14:44:00.001Z</time></trkpt><trkpt lat="43.684120566278466" lon="11.294053523381365"><ele>226.0</ele><time>2026-04-26T14:44:01.001Z</time></trkpt><trkpt lat="43.68401154443803" lon="11.29394584179573"><ele>226.0</ele><time>2026-04-26T14:44:02.001Z</time></trkpt><trkpt lat="43.68389451026661" lon="11.293845028356003"><ele>226.0</ele><time>2026-04-26T14:44:03.001Z</time></trkpt><trkpt lat="43.68376414232959" lon="11.293783736293797"><ele>226.0</ele><time>2026-04-26T14:44:04.001Z</time></trkpt><trkpt lat="43.683619406214305" lon="11.293724579626325"><ele>226.0</ele><time>2026-04-26T14:44:05.001Z</time></trkpt><trkpt lat="43.683473184551254" lon="11.293685271809252"><ele>226.0</ele><time>2026-04-26T14:44:06.001Z</time></trkpt><trkpt lat="43.68333109994631" lon="11.29361408929664"><ele>226.0</ele><time>2026-04-26T14:44:07.001Z</time></trkpt><trkpt lat="43.68317864741587" lon="11.293553459136117"><ele>227.5</ele><time>2026-04-26T14:44:08.001Z</time></trkpt><trkpt lat="43.68276075314327" lon="11.29337590423631"><ele>229.0</ele><time>2026-04-26T14:44:11.001Z</time></trkpt><trkpt lat="43.68262340823562" lon="11.293324060143073"><ele>229.0</ele><time>2026-04-26T14:44:12.001Z</time></trkpt><trkpt lat="43.682491982174355" lon="11.293264658471607"><ele>229.0</ele><time>2026-04-26T14:44:13.001Z</time></trkpt><trkpt lat="43.682363333406585" lon="11.293204320526254"><ele>229.0</ele><time>2026-04-26T14:44:14.001Z</time></trkpt><trkpt lat="43.68222731926106" lon="11.293152709785195"><ele>229.0</ele><time>2026-04-26T14:44:15.001Z</time></trkpt><trkpt lat="43.682099707741045" lon="11.293102655365555"><ele>230.66666666666666</ele><time>2026-04-26T14:44:16.001Z</time></trkpt><trkpt lat="43.6818305022103" lon="11.293007446868405"><ele>232.33333333333331</ele><time>2026-04-26T14:44:18.001Z</time></trkpt><trkpt lat="43.68169475865502" lon="11.292975930601724"><ele>234.0</ele><time>2026-04-26T14:44:19.001Z</time></trkpt><trkpt lat="43.68155202691959" lon="11.292933714760046"><ele>234.0</ele><time>2026-04-26T14:44:20.001Z</time></trkpt><trkpt lat="43.68140884882066" lon="11.292907487635773"><ele>234.0</ele><time>2026-04-26T14:44:21Z</time></trkpt><trkpt lat="43.68126042292612" lon="11.292881720456313"><ele>234.0</ele><time>2026-04-26T14:44:22Z</time></trkpt><trkpt lat="43.68111353483683" lon="11.292848741114806"><ele>234.0</ele><time>2026-04-26T14:44:23Z</time></trkpt><trkpt lat="43.680967395225494" lon="11.292828708798766"><ele>234.0</ele><time>2026-04-26T14:44:24Z</time></trkpt><trkpt lat="43.680822681160514" lon="11.292815767259206"><ele>234.0</ele><time>2026-04-26T14:44:25Z</time></trkpt><trkpt lat="43.68067603214639" lon="11.292808662993366"><ele>234.0</ele><time>2026-04-26T14:44:26Z</time></trkpt><trkpt lat="43.680531334473415" lon="11.292806275077162"><ele>234.0</ele><time>2026-04-26T14:44:27Z</time></trkpt><trkpt lat="43.680388403811165" lon="11.292810853644585"><ele>233.75</ele><time>2026-04-26T14:44:28Z</time></trkpt><trkpt lat="43.680242772426624" lon="11.292808162917293"><ele>233.5</ele><time>2026-04-26T14:44:29Z</time></trkpt><trkpt lat="43.68009234283347" lon="11.292807271791323"><ele>233.25</ele><time>2026-04-26T14:44:30Z</time></trkpt><trkpt lat="43.67994702735547" lon="11.292802224665914"><ele>233.0</ele><time>2026-04-26T14:44:31Z</time></trkpt><trkpt lat="43.67979536123239" lon="11.292803131654505"><ele>233.0</ele><time>2026-04-26T14:44:32Z</time></trkpt><trkpt lat="43.67964667871033" lon="11.292795599342606"><ele>233.0</ele><time>2026-04-26T14:44:33Z</time></trkpt><trkpt lat="43.67948673563227" lon="11.292793473527492"><ele>233.0</ele><time>2026-04-26T14:44:34Z</time></trkpt><trkpt lat="43.679333709043334" lon="11.292793157404471"><ele>233.66666666666669</ele><time>2026-04-26T14:44:35Z</time></trkpt><trkpt lat="43.67918284483493" lon="11.29279423420922"><ele>234.33333333333331</ele><time>2026-04-26T14:44:36Z</time></trkpt><trkpt lat="43.67902930601989" lon="11.292798285376417"><ele>235.0</ele><time>2026-04-26T14:44:37Z</time></trkpt><trkpt lat="43.678875929630344" lon="11.292802984630262"><ele>235.0</ele><time>2026-04-26T14:44:38Z</time></trkpt><trkpt lat="43.67872778148862" lon="11.29280217524948"><ele>235.0</ele><time>2026-04-26T14:44:39Z</time></trkpt><trkpt lat="43.678579593986385" lon="11.292795526739239"><ele>235.0</ele><time>2026-04-26T14:44:40Z</time></trkpt><trkpt lat="43.67842412552839" lon="11.292795735133998"><ele>237.33333333333331</ele><time>2026-04-26T14:44:41Z</time></trkpt><trkpt lat="43.67827243450244" lon="11.292791776214766"><ele>239.66666666666669</ele><time>2026-04-26T14:44:42Z</time></trkpt><trkpt lat="43.67811724371627" lon="11.292790223202"><ele>242.0</ele><time>2026-04-26T14:44:43Z</time></trkpt><trkpt lat="43.677956596233216" lon="11.292787221760006"><ele>242.0</ele><time>2026-04-26T14:44:44Z</time></trkpt><trkpt lat="43.6777940691545" lon="11.292788252978465"><ele>242.0</ele><time>2026-04-26T14:44:45Z</time></trkpt><trkpt lat="43.67763151867419" lon="11.292788827220782"><ele>242.0</ele><time>2026-04-26T14:44:46Z</time></trkpt><trkpt lat="43.677466422939766" lon="11.292789281370235"><ele>240.66666666666669</ele><time>2026-04-26T14:44:47Z</time></trkpt><trkpt lat="43.67731514438626" lon="11.29278788819555"><ele>239.33333333333331</ele><time>2026-04-26T14:44:48Z</time></trkpt><trkpt lat="43.67715961940114" lon="11.292796786101311"><ele>238.0</ele><time>2026-04-26T14:44:49Z</time></trkpt><trkpt lat="43.67700844046849" lon="11.292785836794044"><ele>238.75</ele><time>2026-04-26T14:44:50Z</time></trkpt><trkpt lat="43.67685660048934" lon="11.29278231950196"><ele>239.5</ele><time>2026-04-26T14:44:51Z</time></trkpt><trkpt lat="43.6767076113807" lon="11.292760399083374"><ele>240.25</ele><time>2026-04-26T14:44:52Z</time></trkpt><trkpt lat="43.6765649947803" lon="11.292713129997315"><ele>241.0</ele><time>2026-04-26T14:44:53Z</time></trkpt><trkpt lat="43.67642617968772" lon="11.292654069792775"><ele>241.0</ele><time>2026-04-26T14:44:54Z</time></trkpt><trkpt lat="43.67629229478308" lon="11.292572039978506"><ele>241.0</ele><time>2026-04-26T14:44:55Z</time></trkpt><trkpt lat="43.6761630743544" lon="11.292482619484572"><ele>241.0</ele><time>2026-04-26T14:44:56Z</time></trkpt><trkpt lat="43.676043285551735" lon="11.292395283216806"><ele>241.0</ele><time>2026-04-26T14:44:57Z</time></trkpt><trkpt lat="43.675921239381466" lon="11.292315733514615"><ele>241.0</ele><time>2026-04-26T14:44:58Z</time></trkpt><trkpt lat="43.675805138376205" lon="11.292246995989421"><ele>241.0</ele><time>2026-04-26T14:44:59Z</time></trkpt><trkpt lat="43.675674865318335" lon="11.292194367381477"><ele>241.0</ele><time>2026-04-26T14:45:00Z</time></trkpt><trkpt lat="43.67555041596865" lon="11.292159536426643"><ele>241.0</ele><time>2026-04-26T14:45:01Z</time></trkpt><trkpt lat="43.67542171452499" lon="11.292124755257403"><ele>241.0</ele><time>2026-04-26T14:45:02Z</time></trkpt><trkpt lat="43.67528121364092" lon="11.292132180074647"><ele>241.0</ele><time>2026-04-26T14:45:03Z</time></trkpt><trkpt lat="43.675144846033994" lon="11.292128676546717"><ele>241.0</ele><time>2026-04-26T14:45:04Z</time></trkpt><trkpt lat="43.675006244807015" lon="11.292113116036179"><ele>241.0</ele><time>2026-04-26T14:45:05Z</time></trkpt><trkpt lat="43.67486705576155" lon="11.292077301942461"><ele>242.25</ele><time>2026-04-26T14:45:06Z</time></trkpt><trkpt lat="43.674730787406894" lon="11.29203635372322"><ele>243.5</ele><time>2026-04-26T14:45:07Z</time></trkpt><trkpt lat="43.67458754040985" lon="11.292008928963556"><ele>244.75</ele><time>2026-04-26T14:45:08Z</time></trkpt><trkpt lat="43.67445063215963" lon="11.29199904634579"><ele>246.0</ele><time>2026-04-26T14:45:09Z</time></trkpt><trkpt lat="43.67431235439216" lon="11.291985294622636"><ele>247.25</ele><time>2026-04-26T14:45:10Z</time></trkpt><trkpt lat="43.67416420005283" lon="11.291980107543768"><ele>248.5</ele><time>2026-04-26T14:45:11Z</time></trkpt><trkpt lat="43.67402070354316" lon="11.291952405628113"><ele>249.75</ele><time>2026-04-26T14:45:12Z</time></trkpt><trkpt lat="43.673868858322784" lon="11.291944099961233"><ele>251.0</ele><time>2026-04-26T14:45:13Z</time></trkpt><trkpt lat="43.6737225613001" lon="11.29192615510766"><ele>251.25</ele><time>2026-04-26T14:45:14Z</time></trkpt><trkpt lat="43.673576409805214" lon="11.291916181530624"><ele>251.5</ele><time>2026-04-26T14:45:15Z</time></trkpt><trkpt lat="43.67342896760252" lon="11.291905874345776"><ele>251.75</ele><time>2026-04-26T14:45:16Z</time></trkpt><trkpt lat="43.67328835253459" lon="11.29190092954942"><ele>252.0</ele><time>2026-04-26T14:45:17Z</time></trkpt><trkpt lat="43.67314321046453" lon="11.291889724691474"><ele>252.0</ele><time>2026-04-26T14:45:18Z</time></trkpt><trkpt lat="43.67299841147756" lon="11.291878057230834"><ele>252.0</ele><time>2026-04-26T14:45:19Z</time></trkpt><trkpt lat="43.67285374792002" lon="11.29188016978386"><ele>252.0</ele><time>2026-04-26T14:45:20Z</time></trkpt><trkpt lat="43.67270618706605" lon="11.29190108021703"><ele>252.0</ele><time>2026-04-26T14:45:21Z</time></trkpt><trkpt lat="43.6725589727173" lon="11.291940534606837"><ele>251.5</ele><time>2026-04-26T14:45:22Z</time></trkpt><trkpt lat="43.672416068007664" lon="11.29199823951429"><ele>251.0</ele><time>2026-04-26T14:45:23Z</time></trkpt><trkpt lat="43.67227544003016" lon="11.29206595849636"><ele>250.5</ele><time>2026-04-26T14:45:24Z</time></trkpt><trkpt lat="43.67213171141874" lon="11.292124352915831"><ele>250.0</ele><time>2026-04-26T14:45:25Z</time></trkpt><trkpt lat="43.671982624396655" lon="11.292164125239278"><ele>249.5</ele><time>2026-04-26T14:45:26Z</time></trkpt><trkpt lat="43.67184059151727" lon="11.292165852321443"><ele>249.0</ele><time>2026-04-26T14:45:27Z</time></trkpt><trkpt lat="43.67169621377138" lon="11.292166265628602"><ele>248.5</ele><time>2026-04-26T14:45:28.001Z</time></trkpt><trkpt lat="43.67156412043108" lon="11.292136219579955"><ele>248.0</ele><time>2026-04-26T14:45:29.001Z</time></trkpt><trkpt lat="43.67142583584984" lon="11.292096891697614"><ele>248.0</ele><time>2026-04-26T14:45:30.001Z</time></trkpt><trkpt lat="43.671290194991464" lon="11.292063278126852"><ele>248.0</ele><time>2026-04-26T14:45:31.001Z</time></trkpt><trkpt lat="43.67114828164039" lon="11.292022724079235"><ele>248.0</ele><time>2026-04-26T14:45:32.001Z</time></trkpt><trkpt lat="43.6710138490473" lon="11.291989393344448"><ele>248.0</ele><time>2026-04-26T14:45:33.001Z</time></trkpt><trkpt lat="43.67087526392398" lon="11.291963040355968"><ele>248.5</ele><time>2026-04-26T14:45:34.001Z</time></trkpt><trkpt lat="43.67073005382828" lon="11.291967049508315"><ele>249.0</ele><time>2026-04-26T14:45:35.001Z</time></trkpt><trkpt lat="43.67058136826748" lon="11.291982480264396"><ele>249.5</ele><time>2026-04-26T14:45:36.001Z</time></trkpt><trkpt lat="43.67043513069626" lon="11.292000052244695"><ele>250.0</ele><time>2026-04-26T14:45:37.001Z</time></trkpt><trkpt lat="43.67029142678467" lon="11.292031922452779"><ele>250.0</ele><time>2026-04-26T14:45:38.001Z</time></trkpt><trkpt lat="43.670143041608966" lon="11.292068718203202"><ele>250.0</ele><time>2026-04-26T14:45:39.001Z</time></trkpt><trkpt lat="43.6699951043934" lon="11.292094174222049"><ele>250.0</ele><time>2026-04-26T14:45:40.001Z</time></trkpt><trkpt lat="43.669841434922866" lon="11.2921214980414"><ele>250.0</ele><time>2026-04-26T14:45:41.001Z</time></trkpt><trkpt lat="43.66968238704921" lon="11.292142989484132"><ele>250.0</ele><time>2026-04-26T14:45:42.001Z</time></trkpt><trkpt lat="43.66952623447168" lon="11.292177582168366"><ele>250.0</ele><time>2026-04-26T14:45:43.001Z</time></trkpt><trkpt lat="43.66937632941693" lon="11.292210344217452"><ele>247.66666666666666</ele><time>2026-04-26T14:45:44.001Z</time></trkpt><trkpt lat="43.66922690237428" lon="11.292239275488186"><ele>245.33333333333331</ele><time>2026-04-26T14:45:45.001Z</time></trkpt><trkpt lat="43.66907395378033" lon="11.292270149867658"><ele>243.0</ele><time>2026-04-26T14:45:46.001Z</time></trkpt><trkpt lat="43.66891762409995" lon="11.292297880312018"><ele>242.33333333333331</ele><time>2026-04-26T14:45:47.001Z</time></trkpt><trkpt lat="43.66876232370322" lon="11.292335880294551"><ele>241.66666666666666</ele><time>2026-04-26T14:45:48.001Z</time></trkpt><trkpt lat="43.66860147355314" lon="11.292356889994082"><ele>241.0</ele><time>2026-04-26T14:45:49.001Z</time></trkpt><trkpt lat="43.66844340665687" lon="11.2923855592299"><ele>239.66666666666666</ele><time>2026-04-26T14:45:50.001Z</time></trkpt><trkpt lat="43.6682914335588" lon="11.292412450974062"><ele>238.33333333333331</ele><time>2026-04-26T14:45:51.001Z</time></trkpt><trkpt lat="43.66813976263493" lon="11.292441867537233"><ele>237.0</ele><time>2026-04-26T14:45:52.001Z</time></trkpt><trkpt lat="43.667989543982145" lon="11.292482025411905"><ele>237.0</ele><time>2026-04-26T14:45:53.001Z</time></trkpt><trkpt lat="43.6678459912982" lon="11.292528767486877"><ele>237.0</ele><time>2026-04-26T14:45:54.001Z</time></trkpt><trkpt lat="43.6676983572493" lon="11.292567693797784"><ele>237.0</ele><time>2026-04-26T14:45:55.001Z</time></trkpt><trkpt lat="43.66754908769291" lon="11.29261368020865"><ele>238.0</ele><time>2026-04-26T14:45:56.001Z</time></trkpt><trkpt lat="43.66740748828039" lon="11.292674421919136"><ele>239.0</ele><time>2026-04-26T14:45:57.001Z</time></trkpt><trkpt lat="43.667262108501575" lon="11.29273919098311"><ele>240.0</ele><time>2026-04-26T14:45:58.001Z</time></trkpt><trkpt lat="43.66711954755953" lon="11.292806527195555"><ele>240.0</ele><time>2026-04-26T14:45:59.001Z</time></trkpt><trkpt lat="43.66698176112627" lon="11.292872762458952"><ele>240.0</ele><time>2026-04-26T14:46:00.001Z</time></trkpt><trkpt lat="43.66685757776033" lon="11.292924547493943"><ele>240.0</ele><time>2026-04-26T14:46:01.001Z</time></trkpt><trkpt lat="43.66674749740576" lon="11.29296153442479"><ele>240.0</ele><time>2026-04-26T14:46:02.001Z</time></trkpt><trkpt lat="43.666635889210426" lon="11.29299161034767"><ele>240.5</ele><time>2026-04-26T14:46:03.001Z</time></trkpt><trkpt lat="43.666515360033685" lon="11.293028455508484"><ele>241.0</ele><time>2026-04-26T14:46:04.001Z</time></trkpt><trkpt lat="43.66639176228301" lon="11.293061951854677"><ele>241.5</ele><time>2026-04-26T14:46:05.001Z</time></trkpt><trkpt lat="43.66627197613488" lon="11.293101739415295"><ele>242.0</ele><time>2026-04-26T14:46:06.001Z</time></trkpt><trkpt lat="43.66614941566794" lon="11.29314159758215"><ele>241.25</ele><time>2026-04-26T14:46:07.001Z</time></trkpt><trkpt lat="43.666025512334386" lon="11.293201893986451"><ele>240.5</ele><time>2026-04-26T14:46:08.001Z</time></trkpt><trkpt lat="43.665899695618144" lon="11.29324372897451"><ele>239.75</ele><time>2026-04-26T14:46:09.001Z</time></trkpt><trkpt lat="43.6657723290994" lon="11.293289345765897"><ele>239.0</ele><time>2026-04-26T14:46:10.001Z</time></trkpt><trkpt lat="43.66564278065481" lon="11.293336252646611"><ele>239.0</ele><time>2026-04-26T14:46:11.001Z</time></trkpt><trkpt lat="43.66550456932017" lon="11.29335195941615"><ele>239.0</ele><time>2026-04-26T14:46:12.001Z</time></trkpt><trkpt lat="43.66537168135295" lon="11.293358507753702"><ele>239.0</ele><time>2026-04-26T14:46:13.001Z</time></trkpt><trkpt lat="43.66524025103772" lon="11.293371637358803"><ele>239.0</ele><time>2026-04-26T14:46:14.001Z</time></trkpt><trkpt lat="43.66510990074312" lon="11.293389295611343"><ele>240.0</ele><time>2026-04-26T14:46:15.001Z</time></trkpt><trkpt lat="43.6649761605181" lon="11.293407076610242"><ele>241.0</ele><time>2026-04-26T14:46:16.001Z</time></trkpt><trkpt lat="43.66485286610659" lon="11.293420269596455"><ele>242.0</ele><time>2026-04-26T14:46:17.001Z</time></trkpt><trkpt lat="43.66474381722337" lon="11.293450585754444"><ele>243.0</ele><time>2026-04-26T14:46:18.001Z</time></trkpt><trkpt lat="43.66463302770837" lon="11.293486122370593"><ele>243.0</ele><time>2026-04-26T14:46:19.001Z</time></trkpt><trkpt lat="43.66452460194646" lon="11.293507803522992"><ele>243.0</ele><time>2026-04-26T14:46:20.001Z</time></trkpt><trkpt lat="43.664435831842034" lon="11.293515659983182"><ele>243.0</ele><time>2026-04-26T14:46:21.001Z</time></trkpt><trkpt lat="43.66436639464107" lon="11.293485491255536"><ele>243.0</ele><time>2026-04-26T14:46:22.001Z</time></trkpt><trkpt lat="43.66431606068767" lon="11.293425977120165"><ele>243.0</ele><time>2026-04-26T14:46:23.001Z</time></trkpt><trkpt lat="43.664276010477714" lon="11.293341401521856"><ele>243.0</ele><time>2026-04-26T14:46:24.001Z</time></trkpt><trkpt lat="43.66421742337921" lon="11.293253785756049"><ele>243.16666666666666</ele><time>2026-04-26T14:46:26.001Z</time></trkpt><trkpt lat="43.66413178926912" lon="11.293315951883438"><ele>243.33333333333331</ele><time>2026-04-26T14:46:44Z</time></trkpt><trkpt lat="43.664040302833484" lon="11.29336234186638"><ele>243.5</ele><time>2026-04-26T14:46:46Z</time></trkpt><trkpt lat="43.66397719188543" lon="11.293369363105164"><ele>243.66666666666666</ele><time>2026-04-26T14:46:47Z</time></trkpt><trkpt lat="43.66390088276127" lon="11.293341251342225"><ele>243.83333333333331</ele><time>2026-04-26T14:46:48Z</time></trkpt><trkpt lat="43.66382771419377" lon="11.293307699913719"><ele>244.0</ele><time>2026-04-26T14:46:49Z</time></trkpt><trkpt lat="43.66373960470988" lon="11.293275385113429"><ele>244.0</ele><time>2026-04-26T14:46:50Z</time></trkpt><trkpt lat="43.66365209131389" lon="11.293245163219337"><ele>243.99999999999997</ele><time>2026-04-26T14:46:51Z</time></trkpt><trkpt lat="43.663557870444215" lon="11.293225006014184"><ele>243.99999999999997</ele><time>2026-04-26T14:46:52Z</time></trkpt><trkpt lat="43.663457127031535" lon="11.29321159223996"><ele>244.0</ele><time>2026-04-26T14:46:53Z</time></trkpt><trkpt lat="43.66335238655301" lon="11.293207223557497"><ele>244.0</ele><time>2026-04-26T14:46:54Z</time></trkpt><trkpt lat="43.66324113184831" lon="11.293217015132882"><ele>242.5</ele><time>2026-04-26T14:46:55Z</time></trkpt><trkpt lat="43.66312655319973" lon="11.29323568195363"><ele>241.0</ele><time>2026-04-26T14:46:56Z</time></trkpt><trkpt lat="43.663006182449216" lon="11.293248123987679"><ele>239.5</ele><time>2026-04-26T14:46:57Z</time></trkpt><trkpt lat="43.6628833707096" lon="11.293253589541669"><ele>238.0</ele><time>2026-04-26T14:46:58Z</time></trkpt><trkpt lat="43.662759138207235" lon="11.293258401671059"><ele>236.5</ele><time>2026-04-26T14:46:59Z</time></trkpt><trkpt lat="43.662633480104375" lon="11.293254313449115"><ele>235.0</ele><time>2026-04-26T14:47:00Z</time></trkpt><trkpt lat="43.662506978371965" lon="11.293229965631363"><ele>233.5</ele><time>2026-04-26T14:47:01Z</time></trkpt><trkpt lat="43.66237730665018" lon="11.29319509936331"><ele>232.0</ele><time>2026-04-26T14:47:02Z</time></trkpt><trkpt lat="43.662252359446065" lon="11.293152096812177"><ele>232.0</ele><time>2026-04-26T14:47:03Z</time></trkpt><trkpt lat="43.66213099030065" lon="11.293100324636187"><ele>232.0</ele><time>2026-04-26T14:47:04Z</time></trkpt><trkpt lat="43.6620089273407" lon="11.293037351551668"><ele>232.0</ele><time>2026-04-26T14:47:05Z</time></trkpt><trkpt lat="43.66189266678674" lon="11.292964410346762"><ele>232.0</ele><time>2026-04-26T14:47:06Z</time></trkpt><trkpt lat="43.66177689915193" lon="11.292888735070388"><ele>230.5</ele><time>2026-04-26T14:47:07Z</time></trkpt><trkpt lat="43.66165849742779" lon="11.292808243593605"><ele>229.0</ele><time>2026-04-26T14:47:08Z</time></trkpt><trkpt lat="43.661541498106374" lon="11.29272558965643"><ele>227.5</ele><time>2026-04-26T14:47:09Z</time></trkpt><trkpt lat="43.661428419949694" lon="11.29264277966168"><ele>226.0</ele><time>2026-04-26T14:47:10Z</time></trkpt><trkpt lat="43.661310235622366" lon="11.292562438134016"><ele>226.0</ele><time>2026-04-26T14:47:11Z</time></trkpt><trkpt lat="43.661186988562406" lon="11.292494780198627"><ele>226.0</ele><time>2026-04-26T14:47:12Z</time></trkpt><trkpt lat="43.66106519549754" lon="11.292443818178677"><ele>226.0</ele><time>2026-04-26T14:47:13Z</time></trkpt><trkpt lat="43.660934178983375" lon="11.29239927741488"><ele>226.0</ele><time>2026-04-26T14:47:14Z</time></trkpt><trkpt lat="43.66080164497009" lon="11.29237210973832"><ele>225.75</ele><time>2026-04-26T14:47:15Z</time></trkpt><trkpt lat="43.66066312757651" lon="11.292368175557797"><ele>225.5</ele><time>2026-04-26T14:47:16Z</time></trkpt><trkpt lat="43.66052385490162" lon="11.292382960578092"><ele>225.25</ele><time>2026-04-26T14:47:17Z</time></trkpt><trkpt lat="43.66039000410361" lon="11.292423093067502"><ele>225.0</ele><time>2026-04-26T14:47:18Z</time></trkpt><trkpt lat="43.66026813275491" lon="11.292479701825124"><ele>223.75</ele><time>2026-04-26T14:47:19Z</time></trkpt><trkpt lat="43.66015710807844" lon="11.292540356151063"><ele>222.5</ele><time>2026-04-26T14:47:20Z</time></trkpt><trkpt lat="43.66005256219116" lon="11.292614592676891"><ele>221.25</ele><time>2026-04-26T14:47:21Z</time></trkpt><trkpt lat="43.659955674431544" lon="11.292694680479668"><ele>220.0</ele><time>2026-04-26T14:47:22Z</time></trkpt><trkpt lat="43.65986513381611" lon="11.292779864493077"><ele>220.0</ele><time>2026-04-26T14:47:23Z</time></trkpt><trkpt lat="43.65978140606303" lon="11.292868004444907"><ele>220.0</ele><time>2026-04-26T14:47:24.001Z</time></trkpt><trkpt lat="43.65970978564804" lon="11.292950193375844"><ele>220.0</ele><time>2026-04-26T14:47:25.001Z</time></trkpt><trkpt lat="43.65964171673777" lon="11.2930374407495"><ele>220.0</ele><time>2026-04-26T14:47:26.001Z</time></trkpt><trkpt lat="43.659581011445965" lon="11.293116290539064"><ele>220.0</ele><time>2026-04-26T14:47:27.001Z</time></trkpt><trkpt lat="43.65952176888036" lon="11.29318701366002"><ele>221.2</ele><time>2026-04-26T14:47:28.001Z</time></trkpt><trkpt lat="43.65946973709881" lon="11.29325157841931"><ele>222.4</ele><time>2026-04-26T14:47:29.001Z</time></trkpt><trkpt lat="43.65937555509561" lon="11.293331540035718"><ele>223.60000000000002</ele><time>2026-04-26T14:47:31.001Z</time></trkpt><trkpt lat="43.65927752365414" lon="11.293368402568447"><ele>224.8</ele><time>2026-04-26T14:47:33.001Z</time></trkpt><trkpt lat="43.65918527224254" lon="11.293420383042001"><ele>226.0</ele><time>2026-04-26T14:47:35.001Z</time></trkpt><trkpt lat="43.65913280748984" lon="11.29353778421121"><ele>225.99999999999997</ele><time>2026-04-26T14:47:37.001Z</time></trkpt><trkpt lat="43.65911747017844" lon="11.29368864923479"><ele>226.0</ele><time>2026-04-26T14:47:39.001Z</time></trkpt><trkpt lat="43.6590909479762" lon="11.293775012293827"><ele>226.0</ele><time>2026-04-26T14:47:40.001Z</time></trkpt><trkpt lat="43.65904481748451" lon="11.293858196932561"><ele>226.0</ele><time>2026-04-26T14:47:41.001Z</time></trkpt><trkpt lat="43.65898555179674" lon="11.293927474209788"><ele>225.99999999999997</ele><time>2026-04-26T14:47:42.001Z</time></trkpt><trkpt lat="43.65891914918783" lon="11.29398939817204"><ele>226.0</ele><time>2026-04-26T14:47:43.001Z</time></trkpt><trkpt lat="43.65885506370237" lon="11.294043883317256"><ele>226.83333333333331</ele><time>2026-04-26T14:47:44.001Z</time></trkpt><trkpt lat="43.65878775337771" lon="11.294100652199203"><ele>227.66666666666666</ele><time>2026-04-26T14:47:45.001Z</time></trkpt><trkpt lat="43.65871470311961" lon="11.294155558712134"><ele>228.5</ele><time>2026-04-26T14:47:46.001Z</time></trkpt><trkpt lat="43.65864379130684" lon="11.29421257103126"><ele>229.33333333333331</ele><time>2026-04-26T14:47:47.001Z</time></trkpt><trkpt lat="43.65857177729468" lon="11.294268576585687"><ele>230.16666666666666</ele><time>2026-04-26T14:47:48.001Z</time></trkpt><trkpt lat="43.65849956173303" lon="11.29432502176829"><ele>231.0</ele><time>2026-04-26T14:47:49.001Z</time></trkpt><trkpt lat="43.6584253213142" lon="11.294384216924035"><ele>231.33333333333334</ele><time>2026-04-26T14:47:50.001Z</time></trkpt><trkpt lat="43.658350713383555" lon="11.294443661444074"><ele>231.66666666666669</ele><time>2026-04-26T14:47:51.001Z</time></trkpt><trkpt lat="43.65827325161175" lon="11.294506901643029"><ele>232.0</ele><time>2026-04-26T14:47:52.001Z</time></trkpt><trkpt lat="43.65819716328655" lon="11.294563933135416"><ele>232.33333333333334</ele><time>2026-04-26T14:47:53.001Z</time></trkpt><trkpt lat="43.65812028524494" lon="11.29462421948455"><ele>232.66666666666669</ele><time>2026-04-26T14:47:54.001Z</time></trkpt><trkpt lat="43.65803777740353" lon="11.294692562040328"><ele>233.0</ele><time>2026-04-26T14:47:55.001Z</time></trkpt><trkpt lat="43.657955581811734" lon="11.29475619798764"><ele>233.0</ele><time>2026-04-26T14:47:56.001Z</time></trkpt><trkpt lat="43.65787594246802" lon="11.294824656465133"><ele>233.0</ele><time>2026-04-26T14:47:57.001Z</time></trkpt><trkpt lat="43.65779696737777" lon="11.294897526046125"><ele>233.0</ele><time>2026-04-26T14:47:58.001Z</time></trkpt><trkpt lat="43.65771506843339" lon="11.294985937402618"><ele>233.0</ele><time>2026-04-26T14:47:59.001Z</time></trkpt><trkpt lat="43.657629419247925" lon="11.29508235841354"><ele>233.0</ele><time>2026-04-26T14:48:00.001Z</time></trkpt><trkpt lat="43.65753736071929" lon="11.295188458845514"><ele>233.0</ele><time>2026-04-26T14:48:01.001Z</time></trkpt><trkpt lat="43.65745122308836" lon="11.295299776520359"><ele>233.0</ele><time>2026-04-26T14:48:02.001Z</time></trkpt><trkpt lat="43.657358283720214" lon="11.295429997832738"><ele>233.0</ele><time>2026-04-26T14:48:03.001Z</time></trkpt><trkpt lat="43.657270471570136" lon="11.29556474995957"><ele>233.0</ele><time>2026-04-26T14:48:04.001Z</time></trkpt><trkpt lat="43.65718716846984" lon="11.295709603141898"><ele>233.0</ele><time>2026-04-26T14:48:05.001Z</time></trkpt><trkpt lat="43.657106604368394" lon="11.29586396917312"><ele>233.0</ele><time>2026-04-26T14:48:06.001Z</time></trkpt><trkpt lat="43.657031671706534" lon="11.296023638204892"><ele>233.0</ele><time>2026-04-26T14:48:07.001Z</time></trkpt><trkpt lat="43.65695950996155" lon="11.296194370271515"><ele>233.0</ele><time>2026-04-26T14:48:08.001Z</time></trkpt><trkpt lat="43.65688885466165" lon="11.296376201987679"><ele>229.33333333333334</ele><time>2026-04-26T14:48:09.001Z</time></trkpt><trkpt lat="43.656821485260856" lon="11.296568209207447"><ele>225.66666666666669</ele><time>2026-04-26T14:48:10.001Z</time></trkpt><trkpt lat="43.65674953188503" lon="11.296760543653253"><ele>222.0</ele><time>2026-04-26T14:48:11.001Z</time></trkpt><trkpt lat="43.65667644323507" lon="11.296952444895371"><ele>222.0</ele><time>2026-04-26T14:48:12.001Z</time></trkpt><trkpt lat="43.65660001683876" lon="11.297147100499208"><ele>222.0</ele><time>2026-04-26T14:48:13.001Z</time></trkpt><trkpt lat="43.6565240188445" lon="11.297336768410336"><ele>222.0</ele><time>2026-04-26T14:48:14.001Z</time></trkpt><trkpt lat="43.656439306969524" lon="11.297521922015992"><ele>221.75</ele><time>2026-04-26T14:48:15.001Z</time></trkpt><trkpt lat="43.656353406912594" lon="11.297689793434412"><ele>221.5</ele><time>2026-04-26T14:48:16.001Z</time></trkpt><trkpt lat="43.65627020096282" lon="11.297860357613287"><ele>221.25</ele><time>2026-04-26T14:48:17.001Z</time></trkpt><trkpt lat="43.656178647563245" lon="11.298018959366372"><ele>221.0</ele><time>2026-04-26T14:48:18.001Z</time></trkpt><trkpt lat="43.65608043120596" lon="11.298174278261412"><ele>216.33333333333334</ele><time>2026-04-26T14:48:19.001Z</time></trkpt><trkpt lat="43.65597815105184" lon="11.298327429234533"><ele>211.66666666666669</ele><time>2026-04-26T14:48:20.001Z</time></trkpt><trkpt lat="43.6558681958131" lon="11.2984878655794"><ele>207.0</ele><time>2026-04-26T14:48:21.001Z</time></trkpt><trkpt lat="43.65575333064372" lon="11.298646666809962"><ele>207.0</ele><time>2026-04-26T14:48:22.001Z</time></trkpt><trkpt lat="43.65563714724633" lon="11.298801578954723"><ele>207.0</ele><time>2026-04-26T14:48:23.001Z</time></trkpt><trkpt lat="43.65552058441088" lon="11.2989511751319"><ele>207.0</ele><time>2026-04-26T14:48:24.001Z</time></trkpt><trkpt lat="43.65540362834799" lon="11.299103247256923"><ele>207.66666666666669</ele><time>2026-04-26T14:48:25.001Z</time></trkpt><trkpt lat="43.65528884539481" lon="11.299249700615583"><ele>208.33333333333334</ele><time>2026-04-26T14:48:26.001Z</time></trkpt><trkpt lat="43.655177405452925" lon="11.299398548519468"><ele>209.0</ele><time>2026-04-26T14:48:27.001Z</time></trkpt><trkpt lat="43.65506728147141" lon="11.299539668531427"><ele>209.0</ele><time>2026-04-26T14:48:28.001Z</time></trkpt><trkpt lat="43.65495874850745" lon="11.299679559239856"><ele>209.0</ele><time>2026-04-26T14:48:29.001Z</time></trkpt><trkpt lat="43.65484786996569" lon="11.299814740507765"><ele>209.0</ele><time>2026-04-26T14:48:30.001Z</time></trkpt><trkpt lat="43.654738845298155" lon="11.299948113533151"><ele>209.0</ele><time>2026-04-26T14:48:31.001Z</time></trkpt><trkpt lat="43.65463271615927" lon="11.300064476342923"><ele>208.5</ele><time>2026-04-26T14:48:32.001Z</time></trkpt><trkpt lat="43.65452423136135" lon="11.300196892585394"><ele>208.0</ele><time>2026-04-26T14:48:33Z</time></trkpt><trkpt lat="43.65442366826543" lon="11.30031847070658"><ele>207.5</ele><time>2026-04-26T14:48:34Z</time></trkpt><trkpt lat="43.654336532565374" lon="11.30042649720683"><ele>207.0</ele><time>2026-04-26T14:48:35Z</time></trkpt><trkpt lat="43.6542584704092" lon="11.300537120150253"><ele>208.25</ele><time>2026-04-26T14:48:36Z</time></trkpt><trkpt lat="43.65418467007777" lon="11.300656181545946"><ele>209.5</ele><time>2026-04-26T14:48:37Z</time></trkpt><trkpt lat="43.65411457313219" lon="11.300784576660831"><ele>210.75</ele><time>2026-04-26T14:48:38Z</time></trkpt><trkpt lat="43.65405142630669" lon="11.30092489120114"><ele>212.0</ele><time>2026-04-26T14:48:39Z</time></trkpt><trkpt lat="43.65399639369574" lon="11.301084144653146"><ele>212.0</ele><time>2026-04-26T14:48:40Z</time></trkpt><trkpt lat="43.65395041678386" lon="11.301261665173437"><ele>212.0</ele><time>2026-04-26T14:48:41Z</time></trkpt><trkpt lat="43.653909488870504" lon="11.301447776780972"><ele>212.0</ele><time>2026-04-26T14:48:42Z</time></trkpt><trkpt lat="43.65387430784146" lon="11.30163992574465"><ele>212.0</ele><time>2026-04-26T14:48:43Z</time></trkpt><trkpt lat="43.65384250782406" lon="11.301841748886977"><ele>213.0</ele><time>2026-04-26T14:48:44Z</time></trkpt><trkpt lat="43.65381216704368" lon="11.302049636406487"><ele>214.0</ele><time>2026-04-26T14:48:45Z</time></trkpt><trkpt lat="43.65378115442012" lon="11.302261389488185"><ele>215.0</ele><time>2026-04-26T14:48:46Z</time></trkpt><trkpt lat="43.65374823270552" lon="11.302479248838406"><ele>215.66666666666669</ele><time>2026-04-26T14:48:47Z</time></trkpt><trkpt lat="43.65371466363791" lon="11.302694481231864"><ele>216.33333333333331</ele><time>2026-04-26T14:48:48Z</time></trkpt><trkpt lat="43.65368325274051" lon="11.302905029317456"><ele>217.0</ele><time>2026-04-26T14:48:49Z</time></trkpt><trkpt lat="43.653648316471205" lon="11.30310792530571"><ele>210.66666666666666</ele><time>2026-04-26T14:48:50Z</time></trkpt><trkpt lat="43.65361325999138" lon="11.303311750320502"><ele>204.33333333333331</ele><time>2026-04-26T14:48:51Z</time></trkpt><trkpt lat="43.653583314122294" lon="11.303516107139252"><ele>198.0</ele><time>2026-04-26T14:48:52Z</time></trkpt><trkpt lat="43.65355122190937" lon="11.303730512215704"><ele>199.0</ele><time>2026-04-26T14:48:53Z</time></trkpt><trkpt lat="43.653508211975634" lon="11.303934496490736"><ele>200.0</ele><time>2026-04-26T14:48:54Z</time></trkpt><trkpt lat="43.65346710191336" lon="11.30413565397884"><ele>201.0</ele><time>2026-04-26T14:48:55Z</time></trkpt><trkpt lat="43.65341750059883" lon="11.304332097394022"><ele>201.0</ele><time>2026-04-26T14:48:56Z</time></trkpt><trkpt lat="43.65336590733788" lon="11.304530707974285"><ele>201.0</ele><time>2026-04-26T14:48:57Z</time></trkpt><trkpt lat="43.65330383401596" lon="11.304728791620105"><ele>201.0</ele><time>2026-04-26T14:48:58Z</time></trkpt><trkpt lat="43.65324007698171" lon="11.304917614320237"><ele>203.33333333333331</ele><time>2026-04-26T14:48:59Z</time></trkpt><trkpt lat="43.65317454212837" lon="11.30510143480835"><ele>205.66666666666666</ele><time>2026-04-26T14:49:00Z</time></trkpt><trkpt lat="43.65310769884115" lon="11.305290912611378"><ele>208.0</ele><time>2026-04-26T14:49:01Z</time></trkpt><trkpt lat="43.65304428124449" lon="11.305477187717871"><ele>209.5</ele><time>2026-04-26T14:49:02Z</time></trkpt><trkpt lat="43.65298188309" lon="11.305665871632398"><ele>211.0</ele><time>2026-04-26T14:49:03Z</time></trkpt><trkpt lat="43.65292063949279" lon="11.30585019870058"><ele>212.5</ele><time>2026-04-26T14:49:04Z</time></trkpt><trkpt lat="43.65286008012471" lon="11.30603007824735"><ele>214.0</ele><time>2026-04-26T14:49:05Z</time></trkpt><trkpt lat="43.652797985270546" lon="11.306209419765086"><ele>213.0</ele><time>2026-04-26T14:49:06Z</time></trkpt><trkpt lat="43.652737422804385" lon="11.30637654953632"><ele>212.0</ele><time>2026-04-26T14:49:07Z</time></trkpt><trkpt lat="43.652684058864985" lon="11.306521758587412"><ele>211.0</ele><time>2026-04-26T14:49:08Z</time></trkpt><trkpt lat="43.65263649771379" lon="11.306659782445942"><ele>210.0</ele><time>2026-04-26T14:49:09Z</time></trkpt><trkpt lat="43.65258603919268" lon="11.30680552360357"><ele>210.0</ele><time>2026-04-26T14:49:10Z</time></trkpt><trkpt lat="43.65253727384547" lon="11.306954446299262"><ele>210.0</ele><time>2026-04-26T14:49:11Z</time></trkpt><trkpt lat="43.65248358617942" lon="11.307108369890358"><ele>210.0</ele><time>2026-04-26T14:49:12Z</time></trkpt><trkpt lat="43.65242687201837" lon="11.307254758210084"><ele>210.0</ele><time>2026-04-26T14:49:13Z</time></trkpt><trkpt lat="43.6523670844483" lon="11.3074114416943"><ele>210.75</ele><time>2026-04-26T14:49:14Z</time></trkpt><trkpt lat="43.6523058575822" lon="11.30756741415885"><ele>211.5</ele><time>2026-04-26T14:49:15Z</time></trkpt><trkpt lat="43.65224407915797" lon="11.307719417275836"><ele>212.25</ele><time>2026-04-26T14:49:16Z</time></trkpt><trkpt lat="43.652179604461" lon="11.30787681924004"><ele>213.0</ele><time>2026-04-26T14:49:17Z</time></trkpt><trkpt lat="43.65211152749668" lon="11.308030080703423"><ele>213.25</ele><time>2026-04-26T14:49:18Z</time></trkpt><trkpt lat="43.6520433597898" lon="11.308177988908934"><ele>213.5</ele><time>2026-04-26T14:49:19Z</time></trkpt><trkpt lat="43.651970344739766" lon="11.308318149484705"><ele>213.75</ele><time>2026-04-26T14:49:20.001Z</time></trkpt><trkpt lat="43.651888553550066" lon="11.308454472974864"><ele>214.0</ele><time>2026-04-26T14:49:21.001Z</time></trkpt><trkpt lat="43.651803444990286" lon="11.308584004975208"><ele>214.0</ele><time>2026-04-26T14:49:22.001Z</time></trkpt><trkpt lat="43.651716072638564" lon="11.308708673160668"><ele>214.0</ele><time>2026-04-26T14:49:23.001Z</time></trkpt><trkpt lat="43.651629436398814" lon="11.308838741502202"><ele>214.0</ele><time>2026-04-26T14:49:24.001Z</time></trkpt><trkpt lat="43.65154201587347" lon="11.308947628050932"><ele>214.0</ele><time>2026-04-26T14:49:25.001Z</time></trkpt><trkpt lat="43.6514479182549" lon="11.30904081592312"><ele>214.25</ele><time>2026-04-26T14:49:26.001Z</time></trkpt><trkpt lat="43.65135028551224" lon="11.30911699572499"><ele>214.5</ele><time>2026-04-26T14:49:27.001Z</time></trkpt><trkpt lat="43.65125209330544" lon="11.309194439592623"><ele>214.75</ele><time>2026-04-26T14:49:28.001Z</time></trkpt><trkpt lat="43.65115328318756" lon="11.3092816402954"><ele>215.0</ele><time>2026-04-26T14:49:29.001Z</time></trkpt><trkpt lat="43.65104975316222" lon="11.309383355168446"><ele>215.75</ele><time>2026-04-26T14:49:30.001Z</time></trkpt><trkpt lat="43.650943821073575" lon="11.309489819698284"><ele>216.5</ele><time>2026-04-26T14:49:31.001Z</time></trkpt><trkpt lat="43.65083356968554" lon="11.309597915198616"><ele>217.25</ele><time>2026-04-26T14:49:32.001Z</time></trkpt><trkpt lat="43.65071156025297" lon="11.309710460107018"><ele>218.0</ele><time>2026-04-26T14:49:33.001Z</time></trkpt><trkpt lat="43.65059437642207" lon="11.30981809265782"><ele>218.5</ele><time>2026-04-26T14:49:34.001Z</time></trkpt><trkpt lat="43.650472301184585" lon="11.309931052804266"><ele>219.0</ele><time>2026-04-26T14:49:35.001Z</time></trkpt><trkpt lat="43.65035276625242" lon="11.310043792458194"><ele>219.5</ele><time>2026-04-26T14:49:36.001Z</time></trkpt><trkpt lat="43.65023218065931" lon="11.310154105852693"><ele>220.0</ele><time>2026-04-26T14:49:37.001Z</time></trkpt><trkpt lat="43.650115810671146" lon="11.310260631389763"><ele>220.5</ele><time>2026-04-26T14:49:38.001Z</time></trkpt><trkpt lat="43.65000003127319" lon="11.310360404254595"><ele>221.0</ele><time>2026-04-26T14:49:39.001Z</time></trkpt><trkpt lat="43.649885433426846" lon="11.310463344241873"><ele>221.5</ele><time>2026-04-26T14:49:40.001Z</time></trkpt><trkpt lat="43.649772142323044" lon="11.310569453024826"><ele>222.0</ele><time>2026-04-26T14:49:41.001Z</time></trkpt><trkpt lat="43.64965773235605" lon="11.31067015764483"><ele>223.0</ele><time>2026-04-26T14:49:42.001Z</time></trkpt><trkpt lat="43.64954025210866" lon="11.310767734525454"><ele>224.0</ele><time>2026-04-26T14:49:43.001Z</time></trkpt><trkpt lat="43.64941389444016" lon="11.310852180869784"><ele>225.0</ele><time>2026-04-26T14:49:44.001Z</time></trkpt><trkpt lat="43.64927467649722" lon="11.31090984593846"><ele>226.0</ele><time>2026-04-26T14:49:45.001Z</time></trkpt><trkpt lat="43.64913037268116" lon="11.310942976732845"><ele>226.5</ele><time>2026-04-26T14:49:46.001Z</time></trkpt><trkpt lat="43.648986855233446" lon="11.310963531648415"><ele>227.0</ele><time>2026-04-26T14:49:47.001Z</time></trkpt><trkpt lat="43.648840735684345" lon="11.310985842527318"><ele>227.5</ele><time>2026-04-26T14:49:48.001Z</time></trkpt><trkpt lat="43.64869922355036" lon="11.311004869992642"><ele>228.0</ele><time>2026-04-26T14:49:49.001Z</time></trkpt><trkpt lat="43.64855994316234" lon="11.311027938804457"><ele>229.0</ele><time>2026-04-26T14:49:50.001Z</time></trkpt><trkpt lat="43.64842269048536" lon="11.311051847928004"><ele>230.0</ele><time>2026-04-26T14:49:51.001Z</time></trkpt><trkpt lat="43.64827867442665" lon="11.311082596376892"><ele>231.0</ele><time>2026-04-26T14:49:52.001Z</time></trkpt><trkpt lat="43.64814243600412" lon="11.31111071896828"><ele>232.0</ele><time>2026-04-26T14:49:53.001Z</time></trkpt><trkpt lat="43.64800837185104" lon="11.311141197556443"><ele>232.0</ele><time>2026-04-26T14:49:54.001Z</time></trkpt><trkpt lat="43.64786735117932" lon="11.311184985932673"><ele>232.0</ele><time>2026-04-26T14:49:55.001Z</time></trkpt><trkpt lat="43.64772989567288" lon="11.311211299318622"><ele>232.0</ele><time>2026-04-26T14:49:56.001Z</time></trkpt><trkpt lat="43.6475915003832" lon="11.311242534973687"><ele>232.0</ele><time>2026-04-26T14:49:57.001Z</time></trkpt><trkpt lat="43.647452832677" lon="11.311281320339836"><ele>233.33333333333331</ele><time>2026-04-26T14:49:58.001Z</time></trkpt><trkpt lat="43.64731083723553" lon="11.311328959398185"><ele>234.66666666666669</ele><time>2026-04-26T14:49:59.001Z</time></trkpt><trkpt lat="43.64716428125976" lon="11.311384549653159"><ele>236.0</ele><time>2026-04-26T14:50:00.001Z</time></trkpt><trkpt lat="43.64701342680959" lon="11.311438157503998"><ele>239.0</ele><time>2026-04-26T14:50:01.001Z</time></trkpt><trkpt lat="43.64685749012639" lon="11.31149366892212"><ele>242.0</ele><time>2026-04-26T14:50:02.001Z</time></trkpt><trkpt lat="43.64669730628378" lon="11.311541142082604"><ele>245.0</ele><time>2026-04-26T14:50:03.001Z</time></trkpt><trkpt lat="43.64654183745679" lon="11.311592457167894"><ele>245.0</ele><time>2026-04-26T14:50:04.001Z</time></trkpt><trkpt lat="43.64638766314424" lon="11.31165457995"><ele>245.0</ele><time>2026-04-26T14:50:05.001Z</time></trkpt><trkpt lat="43.64623099685014" lon="11.311710650089625"><ele>245.0</ele><time>2026-04-26T14:50:06.001Z</time></trkpt><trkpt lat="43.64608042660704" lon="11.311781645861819"><ele>244.33333333333334</ele><time>2026-04-26T14:50:07.001Z</time></trkpt><trkpt lat="43.64593026159409" lon="11.31185835815336"><ele>243.66666666666669</ele><time>2026-04-26T14:50:08.001Z</time></trkpt><trkpt lat="43.64577401389988" lon="11.31194958719001"><ele>243.0</ele><time>2026-04-26T14:50:09.001Z</time></trkpt><trkpt lat="43.64562328061248" lon="11.312030824622916"><ele>243.0</ele><time>2026-04-26T14:50:10.001Z</time></trkpt><trkpt lat="43.64547016716172" lon="11.312095302140579"><ele>243.0</ele><time>2026-04-26T14:50:11.001Z</time></trkpt><trkpt lat="43.645311133338645" lon="11.312140907826903"><ele>243.0</ele><time>2026-04-26T14:50:12.001Z</time></trkpt><trkpt lat="43.6451416096833" lon="11.312174144562894"><ele>243.0</ele><time>2026-04-26T14:50:13.001Z</time></trkpt><trkpt lat="43.644973192439416" lon="11.312195801917875"><ele>243.0</ele><time>2026-04-26T14:50:14.001Z</time></trkpt><trkpt lat="43.64480379172627" lon="11.312218656213433"><ele>243.0</ele><time>2026-04-26T14:50:15.001Z</time></trkpt><trkpt lat="43.644635622589654" lon="11.312248372659367"><ele>246.33333333333331</ele><time>2026-04-26T14:50:16.001Z</time></trkpt><trkpt lat="43.644462567280385" lon="11.312277719944369"><ele>249.66666666666666</ele><time>2026-04-26T14:50:17.001Z</time></trkpt><trkpt lat="43.64428918040382" lon="11.312294637573533"><ele>253.0</ele><time>2026-04-26T14:50:18.001Z</time></trkpt><trkpt lat="43.64411486352202" lon="11.312325751778156"><ele>253.0</ele><time>2026-04-26T14:50:19.001Z</time></trkpt><trkpt lat="43.64392791633485" lon="11.312359919339732"><ele>253.0</ele><time>2026-04-26T14:50:20.001Z</time></trkpt><trkpt lat="43.6437462385008" lon="11.312394685765243"><ele>253.0</ele><time>2026-04-26T14:50:21.001Z</time></trkpt><trkpt lat="43.64356410187892" lon="11.312424224222474"><ele>253.33333333333331</ele><time>2026-04-26T14:50:22.001Z</time></trkpt><trkpt lat="43.643384630937895" lon="11.312456943580871"><ele>253.66666666666669</ele><time>2026-04-26T14:50:23.001Z</time></trkpt><trkpt lat="43.64320556471594" lon="11.312490463456445"><ele>254.0</ele><time>2026-04-26T14:50:24.001Z</time></trkpt><trkpt lat="43.643020662644524" lon="11.312517680350869"><ele>254.0</ele><time>2026-04-26T14:50:25.001Z</time></trkpt><trkpt lat="43.6428401742558" lon="11.312545013968743"><ele>254.0</ele><time>2026-04-26T14:50:26.001Z</time></trkpt><trkpt lat="43.642661104616614" lon="11.31258266333182"><ele>254.0</ele><time>2026-04-26T14:50:27.001Z</time></trkpt><trkpt lat="43.64248566047815" lon="11.31260660686265"><ele>255.66666666666669</ele><time>2026-04-26T14:50:28.001Z</time></trkpt><trkpt lat="43.64231291722011" lon="11.312638227896286"><ele>257.3333333333333</ele><time>2026-04-26T14:50:29.001Z</time></trkpt><trkpt lat="43.64213693065421" lon="11.312668944739922"><ele>259.0</ele><time>2026-04-26T14:50:30.001Z</time></trkpt><trkpt lat="43.641963708394925" lon="11.31270044784632"><ele>261.3333333333333</ele><time>2026-04-26T14:50:31.001Z</time></trkpt><trkpt lat="43.641786781138244" lon="11.312738725810217"><ele>263.6666666666667</ele><time>2026-04-26T14:50:32.001Z</time></trkpt><trkpt lat="43.641612195593986" lon="11.312766180439107"><ele>266.0</ele><time>2026-04-26T14:50:33.001Z</time></trkpt><trkpt lat="43.64143685581425" lon="11.312791616115625"><ele>266.0</ele><time>2026-04-26T14:50:34.001Z</time></trkpt><trkpt lat="43.64127386010816" lon="11.31282148002894"><ele>266.0</ele><time>2026-04-26T14:50:35.001Z</time></trkpt><trkpt lat="43.641126741398935" lon="11.312887002812733"><ele>266.0</ele><time>2026-04-26T14:50:36.001Z</time></trkpt><trkpt lat="43.64098702162444" lon="11.312974892859305"><ele>267.33333333333337</ele><time>2026-04-26T14:50:37.001Z</time></trkpt><trkpt lat="43.64085414597254" lon="11.31307374131938"><ele>268.6666666666667</ele><time>2026-04-26T14:50:38.001Z</time></trkpt><trkpt lat="43.640717622735295" lon="11.313162424529956"><ele>270.0</ele><time>2026-04-26T14:50:39Z</time></trkpt><trkpt lat="43.64057364836729" lon="11.313234273006607"><ele>270.0</ele><time>2026-04-26T14:50:40Z</time></trkpt><trkpt lat="43.6404242512909" lon="11.31329068363251"><ele>270.0</ele><time>2026-04-26T14:50:41Z</time></trkpt><trkpt lat="43.6402642839422" lon="11.313326168007949"><ele>270.0</ele><time>2026-04-26T14:50:42Z</time></trkpt><trkpt lat="43.640116581644484" lon="11.313337482338568"><ele>272.0</ele><time>2026-04-26T14:50:43Z</time></trkpt><trkpt lat="43.63997949314704" lon="11.313346038218121"><ele>274.0</ele><time>2026-04-26T14:50:44Z</time></trkpt><trkpt lat="43.63984336295718" lon="11.313365482823373"><ele>276.0</ele><time>2026-04-26T14:50:45Z</time></trkpt><trkpt lat="43.6397051201169" lon="11.313381308661805"><ele>278.0</ele><time>2026-04-26T14:50:46Z</time></trkpt><trkpt lat="43.63957026065797" lon="11.313397186228638"><ele>277.75</ele><time>2026-04-26T14:50:47Z</time></trkpt><trkpt lat="43.63944401770463" lon="11.313420222475807"><ele>277.5</ele><time>2026-04-26T14:50:48Z</time></trkpt><trkpt lat="43.63933316919445" lon="11.31344991153617"><ele>277.25</ele><time>2026-04-26T14:50:49Z</time></trkpt><trkpt lat="43.63921738904236" lon="11.31348091703517"><ele>277.0</ele><time>2026-04-26T14:50:50Z</time></trkpt><trkpt lat="43.639103677485444" lon="11.313518022639043"><ele>277.0</ele><time>2026-04-26T14:50:51Z</time></trkpt><trkpt lat="43.63899330824414" lon="11.313559899752807"><ele>277.0</ele><time>2026-04-26T14:50:52Z</time></trkpt><trkpt lat="43.63888405914704" lon="11.313607869126754"><ele>277.0</ele><time>2026-04-26T14:50:53Z</time></trkpt><trkpt lat="43.638779053565955" lon="11.313662779252589"><ele>277.0</ele><time>2026-04-26T14:50:54Z</time></trkpt><trkpt lat="43.63867845785218" lon="11.313724210187925"><ele>276.0</ele><time>2026-04-26T14:50:55Z</time></trkpt><trkpt lat="43.63857863164125" lon="11.313780786846822"><ele>275.0</ele><time>2026-04-26T14:50:56Z</time></trkpt><trkpt lat="43.63849711287151" lon="11.313828410006124"><ele>274.0</ele><time>2026-04-26T14:50:57Z</time></trkpt><trkpt lat="43.63841931790423" lon="11.313861705492856"><ele>273.0</ele><time>2026-04-26T14:50:58Z</time></trkpt><trkpt lat="43.63833288276574" lon="11.313893056516104"><ele>272.0</ele><time>2026-04-26T14:50:59Z</time></trkpt><trkpt lat="43.63823731815537" lon="11.313920312402288"><ele>274.2</ele><time>2026-04-26T14:51:00Z</time></trkpt><trkpt lat="43.63813576199104" lon="11.31395309648123"><ele>276.4</ele><time>2026-04-26T14:51:01Z</time></trkpt><trkpt lat="43.6380323200905" lon="11.313964641170447"><ele>278.6</ele><time>2026-04-26T14:51:02Z</time></trkpt><trkpt lat="43.63792524325159" lon="11.313976551876285"><ele>280.8</ele><time>2026-04-26T14:51:03Z</time></trkpt><trkpt lat="43.63781838299162" lon="11.313982384625769"><ele>283.0</ele><time>2026-04-26T14:51:04Z</time></trkpt><trkpt lat="43.63770870910527" lon="11.313990842258926"><ele>284.0</ele><time>2026-04-26T14:51:05Z</time></trkpt><trkpt lat="43.6375951360716" lon="11.313999871783956"><ele>285.0</ele><time>2026-04-26T14:51:06Z</time></trkpt><trkpt lat="43.63748877028162" lon="11.313998836243547"><ele>286.0</ele><time>2026-04-26T14:51:07Z</time></trkpt><trkpt lat="43.637376984068005" lon="11.31402180657138"><ele>287.0</ele><time>2026-04-26T14:51:08Z</time></trkpt><trkpt lat="43.637267424045675" lon="11.314036619954857"><ele>288.0</ele><time>2026-04-26T14:51:09Z</time></trkpt><trkpt lat="43.63715470615785" lon="11.314051811504537"><ele>288.0</ele><time>2026-04-26T14:51:10Z</time></trkpt><trkpt lat="43.63704493066045" lon="11.314046016049984"><ele>288.0</ele><time>2026-04-26T14:51:11Z</time></trkpt><trkpt lat="43.63693321470065" lon="11.314019537943965"><ele>288.0</ele><time>2026-04-26T14:51:12Z</time></trkpt><trkpt lat="43.63683221063502" lon="11.313943060504759"><ele>288.0</ele><time>2026-04-26T14:51:13Z</time></trkpt><trkpt lat="43.63672346653139" lon="11.313892209889577"><ele>288.5</ele><time>2026-04-26T14:51:14Z</time></trkpt><trkpt lat="43.63661780685541" lon="11.313831234348768"><ele>289.0</ele><time>2026-04-26T14:51:15Z</time></trkpt><trkpt lat="43.63650961146391" lon="11.313768443735759"><ele>289.5</ele><time>2026-04-26T14:51:16Z</time></trkpt><trkpt lat="43.63640443010378" lon="11.313701799141741"><ele>290.0</ele><time>2026-04-26T14:51:17Z</time></trkpt><trkpt lat="43.636295712684735" lon="11.313638327901513"><ele>290.0</ele><time>2026-04-26T14:51:18Z</time></trkpt><trkpt lat="43.63618247026001" lon="11.313584073015088"><ele>290.0</ele><time>2026-04-26T14:51:19Z</time></trkpt><trkpt lat="43.636060650744724" lon="11.313548806829202"><ele>290.0</ele><time>2026-04-26T14:51:20Z</time></trkpt><trkpt lat="43.63593477840583" lon="11.313522981107871"><ele>290.0</ele><time>2026-04-26T14:51:21Z</time></trkpt><trkpt lat="43.63578919666488" lon="11.313496792796492"><ele>292.5</ele><time>2026-04-26T14:51:22Z</time></trkpt><trkpt lat="43.635619774235295" lon="11.313462959425994"><ele>295.0</ele><time>2026-04-26T14:51:23Z</time></trkpt><trkpt lat="43.63547991414704" lon="11.313433050327287"><ele>297.5</ele><time>2026-04-26T14:51:24Z</time></trkpt><trkpt lat="43.635356004874225" lon="11.313418696536209"><ele>300.0</ele><time>2026-04-26T14:51:25Z</time></trkpt><trkpt lat="43.635231484551376" lon="11.313438588200981"><ele>300.0</ele><time>2026-04-26T14:51:26Z</time></trkpt><trkpt lat="43.63510145910685" lon="11.313483620161103"><ele>300.0</ele><time>2026-04-26T14:51:27Z</time></trkpt><trkpt lat="43.63497767890793" lon="11.313556851686132"><ele>300.0</ele><time>2026-04-26T14:51:28Z</time></trkpt><trkpt lat="43.63485474803764" lon="11.313647720915496"><ele>300.0</ele><time>2026-04-26T14:51:29Z</time></trkpt><trkpt lat="43.63472835445936" lon="11.313746167055582"><ele>300.0</ele><time>2026-04-26T14:51:30Z</time></trkpt><trkpt lat="43.634600834050815" lon="11.313846750000927"><ele>300.0</ele><time>2026-04-26T14:51:31Z</time></trkpt><trkpt lat="43.63447186226247" lon="11.31393550682033"><ele>300.0</ele><time>2026-04-26T14:51:32Z</time></trkpt><trkpt lat="43.63434618320422" lon="11.313997156344502"><ele>300.0</ele><time>2026-04-26T14:51:33Z</time></trkpt><trkpt lat="43.634214176555474" lon="11.31402005122494"><ele>301.25</ele><time>2026-04-26T14:51:34Z</time></trkpt><trkpt lat="43.63407795686909" lon="11.314000247479772"><ele>302.5</ele><time>2026-04-26T14:51:35Z</time></trkpt><trkpt lat="43.633948348090364" lon="11.31388884592717"><ele>303.75</ele><time>2026-04-26T14:51:36Z</time></trkpt><trkpt lat="43.63380921784526" lon="11.31381575911038"><ele>305.0</ele><time>2026-04-26T14:51:37Z</time></trkpt><trkpt lat="43.633689982715616" lon="11.313744054163402"><ele>304.5</ele><time>2026-04-26T14:51:38Z</time></trkpt><trkpt lat="43.633572086477145" lon="11.313723524381043"><ele>304.0</ele><time>2026-04-26T14:51:39Z</time></trkpt><trkpt lat="43.63344482484595" lon="11.313729333906823"><ele>303.5</ele><time>2026-04-26T14:51:40Z</time></trkpt><trkpt lat="43.63332067323155" lon="11.313759917369376"><ele>303.0</ele><time>2026-04-26T14:51:41.001Z</time></trkpt><trkpt lat="43.6331996202199" lon="11.313800998270061"><ele>303.0</ele><time>2026-04-26T14:51:42.001Z</time></trkpt><trkpt lat="43.63307923070082" lon="11.313835618619239"><ele>303.0</ele><time>2026-04-26T14:51:43.001Z</time></trkpt><trkpt lat="43.63295276536627" lon="11.31385111532526"><ele>303.0</ele><time>2026-04-26T14:51:44.001Z</time></trkpt><trkpt lat="43.63282399349119" lon="11.313839671900393"><ele>303.0</ele><time>2026-04-26T14:51:45.001Z</time></trkpt><trkpt lat="43.63269739505678" lon="11.313793890708862"><ele>304.0</ele><time>2026-04-26T14:51:46.001Z</time></trkpt><trkpt lat="43.63258469686078" lon="11.313679225615074"><ele>305.0</ele><time>2026-04-26T14:51:47.001Z</time></trkpt><trkpt lat="43.63245983656173" lon="11.313603873635191"><ele>306.0</ele><time>2026-04-26T14:51:48.001Z</time></trkpt><trkpt lat="43.63234125665999" lon="11.313499898502595"><ele>307.0</ele><time>2026-04-26T14:51:49.001Z</time></trkpt><trkpt lat="43.63221885223043" lon="11.31341267244582"><ele>307.0</ele><time>2026-04-26T14:51:50.001Z</time></trkpt><trkpt lat="43.63208699596148" lon="11.313339772004054"><ele>307.0</ele><time>2026-04-26T14:51:51.001Z</time></trkpt><trkpt lat="43.631944429717436" lon="11.313283798638073"><ele>307.0</ele><time>2026-04-26T14:51:52.001Z</time></trkpt><trkpt lat="43.63180843352714" lon="11.313204980714671"><ele>307.0</ele><time>2026-04-26T14:51:53.001Z</time></trkpt><trkpt lat="43.631663914050385" lon="11.313162799291069"><ele>306.75</ele><time>2026-04-26T14:51:54.001Z</time></trkpt><trkpt lat="43.631530166884836" lon="11.313101472605506"><ele>306.5</ele><time>2026-04-26T14:51:55.001Z</time></trkpt><trkpt lat="43.631389501698585" lon="11.31302312309588"><ele>306.25</ele><time>2026-04-26T14:51:56.001Z</time></trkpt><trkpt lat="43.631281514310714" lon="11.312899846966099"><ele>306.0</ele><time>2026-04-26T14:51:57.001Z</time></trkpt><trkpt lat="43.631174849078945" lon="11.312768589945208"><ele>309.75</ele><time>2026-04-26T14:51:58.001Z</time></trkpt><trkpt lat="43.631054300049016" lon="11.312659686165894"><ele>313.5</ele><time>2026-04-26T14:51:59.001Z</time></trkpt><trkpt lat="43.63092460921891" lon="11.312556968538164"><ele>317.25</ele><time>2026-04-26T14:52:00.001Z</time></trkpt><trkpt lat="43.63078603350138" lon="11.312499123864763"><ele>321.0</ele><time>2026-04-26T14:52:01.001Z</time></trkpt><trkpt lat="43.63064146775136" lon="11.31243812082822"><ele>321.0</ele><time>2026-04-26T14:52:02.001Z</time></trkpt><trkpt lat="43.63049204684656" lon="11.312380747495249"><ele>321.0</ele><time>2026-04-26T14:52:03.001Z</time></trkpt><trkpt lat="43.630344551221285" lon="11.31231860295987"><ele>321.0</ele><time>2026-04-26T14:52:04.001Z</time></trkpt><trkpt lat="43.63019703728732" lon="11.312244370570719"><ele>321.6666666666667</ele><time>2026-04-26T14:52:05.001Z</time></trkpt><trkpt lat="43.63005329476879" lon="11.312159348323819"><ele>322.33333333333337</ele><time>2026-04-26T14:52:06.001Z</time></trkpt><trkpt lat="43.629908716767154" lon="11.31207786265432"><ele>323.0</ele><time>2026-04-26T14:52:07.001Z</time></trkpt><trkpt lat="43.629766916991976" lon="11.311994288592116"><ele>323.0</ele><time>2026-04-26T14:52:08.001Z</time></trkpt><trkpt lat="43.629644648945906" lon="11.311877171915889"><ele>323.0</ele><time>2026-04-26T14:52:09.001Z</time></trkpt><trkpt lat="43.62952640372464" lon="11.311765230620168"><ele>323.0</ele><time>2026-04-26T14:52:10.001Z</time></trkpt><trkpt lat="43.62940649008995" lon="11.311672632227237"><ele>323.0</ele><time>2026-04-26T14:52:11.001Z</time></trkpt><trkpt lat="43.629285751728375" lon="11.311582601581927"><ele>327.0</ele><time>2026-04-26T14:52:12.001Z</time></trkpt><trkpt lat="43.62915445579083" lon="11.311527922119517"><ele>331.0</ele><time>2026-04-26T14:52:13.001Z</time></trkpt><trkpt lat="43.629014788089265" lon="11.311504594544585"><ele>335.0</ele><time>2026-04-26T14:52:14.001Z</time></trkpt><trkpt lat="43.6288725726959" lon="11.311496077958955"><ele>339.0</ele><time>2026-04-26T14:52:15.001Z</time></trkpt><trkpt lat="43.62874469288343" lon="11.311481616054321"><ele>340.0</ele><time>2026-04-26T14:52:16.001Z</time></trkpt><trkpt lat="43.62858969200691" lon="11.3114574596631"><ele>341.0</ele><time>2026-04-26T14:52:17.001Z</time></trkpt><trkpt lat="43.62844921835114" lon="11.31144201421838"><ele>342.0</ele><time>2026-04-26T14:52:18.001Z</time></trkpt><trkpt lat="43.62830518766526" lon="11.311413302091566"><ele>343.0</ele><time>2026-04-26T14:52:19.001Z</time></trkpt><trkpt lat="43.62816835315881" lon="11.31134489614608"><ele>343.0</ele><time>2026-04-26T14:52:20.001Z</time></trkpt><trkpt lat="43.62803805604918" lon="11.311244352149917"><ele>343.0</ele><time>2026-04-26T14:52:21.001Z</time></trkpt><trkpt lat="43.62790380376452" lon="11.311140118861678"><ele>343.0</ele><time>2026-04-26T14:52:22.001Z</time></trkpt><trkpt lat="43.62777219406913" lon="11.311039615251484"><ele>340.0</ele><time>2026-04-26T14:52:23.001Z</time></trkpt><trkpt lat="43.62767420310084" lon="11.310885651916163"><ele>337.0</ele><time>2026-04-26T14:52:24.001Z</time></trkpt><trkpt lat="43.62756315009926" lon="11.310748472431824"><ele>334.0</ele><time>2026-04-26T14:52:25.001Z</time></trkpt><trkpt lat="43.62748608803077" lon="11.310589804899093"><ele>331.0</ele><time>2026-04-26T14:52:26.001Z</time></trkpt><trkpt lat="43.62738142550736" lon="11.310428845524058"><ele>331.0</ele><time>2026-04-26T14:52:27.001Z</time></trkpt><trkpt lat="43.627307446789686" lon="11.310271023396623"><ele>331.0</ele><time>2026-04-26T14:52:28.001Z</time></trkpt><trkpt lat="43.62722864076548" lon="11.310109764692065"><ele>331.0</ele><time>2026-04-26T14:52:29.001Z</time></trkpt><trkpt lat="43.62713526341281" lon="11.309977606617108"><ele>331.0</ele><time>2026-04-26T14:52:30.001Z</time></trkpt><trkpt lat="43.62700475187987" lon="11.309877432783406"><ele>327.0</ele><time>2026-04-26T14:52:31.001Z</time></trkpt><trkpt lat="43.626854823306935" lon="11.309824177610775"><ele>323.0</ele><time>2026-04-26T14:52:32.001Z</time></trkpt><trkpt lat="43.62669675152999" lon="11.30978626718799"><ele>319.0</ele><time>2026-04-26T14:52:33.001Z</time></trkpt><trkpt lat="43.62654086461597" lon="11.30974256799278"><ele>318.0</ele><time>2026-04-26T14:52:34.001Z</time></trkpt><trkpt lat="43.62639248908516" lon="11.309677474202422"><ele>317.0</ele><time>2026-04-26T14:52:35.001Z</time></trkpt><trkpt lat="43.62624112992057" lon="11.309598985931059"><ele>316.0</ele><time>2026-04-26T14:52:36.001Z</time></trkpt><trkpt lat="43.626092042970285" lon="11.309521197820963"><ele>316.0</ele><time>2026-04-26T14:52:37.001Z</time></trkpt><trkpt lat="43.625951655889274" lon="11.309452740393635"><ele>316.0</ele><time>2026-04-26T14:52:38.001Z</time></trkpt><trkpt lat="43.62581404609138" lon="11.309393046203404"><ele>316.0</ele><time>2026-04-26T14:52:39.001Z</time></trkpt><trkpt lat="43.6256737108582" lon="11.309352655701227"><ele>316.0</ele><time>2026-04-26T14:52:40.001Z</time></trkpt><trkpt lat="43.625524494586905" lon="11.309310388358542"><ele>316.0</ele><time>2026-04-26T14:52:41.001Z</time></trkpt><trkpt lat="43.62536678796264" lon="11.309269665791359"><ele>316.0</ele><time>2026-04-26T14:52:42.001Z</time></trkpt><trkpt lat="43.62521425083219" lon="11.309221592746972"><ele>316.0</ele><time>2026-04-26T14:52:43.001Z</time></trkpt><trkpt lat="43.62505458292518" lon="11.309167461647972"><ele>313.0</ele><time>2026-04-26T14:52:44.001Z</time></trkpt><trkpt lat="43.62489701006727" lon="11.309112452085081"><ele>310.0</ele><time>2026-04-26T14:52:45Z</time></trkpt><trkpt lat="43.62474481393559" lon="11.309051108514385"><ele>307.0</ele><time>2026-04-26T14:52:46Z</time></trkpt><trkpt lat="43.624590814878715" lon="11.308992488280971"><ele>303.66666666666663</ele><time>2026-04-26T14:52:47Z</time></trkpt><trkpt lat="43.62444263126684" lon="11.308935720908545"><ele>300.3333333333333</ele><time>2026-04-26T14:52:48Z</time></trkpt><trkpt lat="43.624295559239016" lon="11.308874556563056"><ele>297.0</ele><time>2026-04-26T14:52:49Z</time></trkpt><trkpt lat="43.6241501771383" lon="11.308814576611962"><ele>296.25</ele><time>2026-04-26T14:52:50Z</time></trkpt><trkpt lat="43.62400729077594" lon="11.308755360335336"><ele>295.5</ele><time>2026-04-26T14:52:51Z</time></trkpt><trkpt lat="43.6238678089846" lon="11.308697858583605"><ele>294.75</ele><time>2026-04-26T14:52:52Z</time></trkpt><trkpt lat="43.62373905255713" lon="11.30863155844214"><ele>294.0</ele><time>2026-04-26T14:52:53Z</time></trkpt><trkpt lat="43.623612964271246" lon="11.308547485669386"><ele>293.0</ele><time>2026-04-26T14:52:54Z</time></trkpt><trkpt lat="43.62349882137441" lon="11.308434121989501"><ele>292.0</ele><time>2026-04-26T14:52:55Z</time></trkpt><trkpt lat="43.623384549371885" lon="11.308306599980996"><ele>291.0</ele><time>2026-04-26T14:52:56Z</time></trkpt><trkpt lat="43.623270800937135" lon="11.308172784276964"><ele>290.0</ele><time>2026-04-26T14:52:57Z</time></trkpt><trkpt lat="43.623158284281565" lon="11.308040660727183"><ele>289.0</ele><time>2026-04-26T14:52:58Z</time></trkpt><trkpt lat="43.62305105832249" lon="11.307906161778384"><ele>288.0</ele><time>2026-04-26T14:52:59Z</time></trkpt><trkpt lat="43.62294344193022" lon="11.307780938992844"><ele>287.0</ele><time>2026-04-26T14:53:00Z</time></trkpt><trkpt lat="43.62284244746723" lon="11.307646600803102"><ele>286.0</ele><time>2026-04-26T14:53:01Z</time></trkpt><trkpt lat="43.62276697986406" lon="11.30746183461232"><ele>285.3333333333333</ele><time>2026-04-26T14:53:02Z</time></trkpt><trkpt lat="43.62266860487851" lon="11.30730232835563"><ele>284.6666666666667</ele><time>2026-04-26T14:53:03Z</time></trkpt><trkpt lat="43.62259352722296" lon="11.307111267424341"><ele>284.0</ele><time>2026-04-26T14:53:04Z</time></trkpt><trkpt lat="43.6225170595107" lon="11.306929227031999"><ele>284.75</ele><time>2026-04-26T14:53:05Z</time></trkpt><trkpt lat="43.62244560971227" lon="11.30675391064114"><ele>285.5</ele><time>2026-04-26T14:53:06Z</time></trkpt><trkpt lat="43.62237232891944" lon="11.306577342286422"><ele>286.25</ele><time>2026-04-26T14:53:07Z</time></trkpt><trkpt lat="43.62230365976455" lon="11.30639844634945"><ele>287.0</ele><time>2026-04-26T14:53:08Z</time></trkpt><trkpt lat="43.62225367482598" lon="11.306212556721155"><ele>287.0</ele><time>2026-04-26T14:53:09Z</time></trkpt><trkpt lat="43.62219573439561" lon="11.306028567532628"><ele>287.0</ele><time>2026-04-26T14:53:10Z</time></trkpt><trkpt lat="43.622140911879015" lon="11.305849519571701"><ele>287.0</ele><time>2026-04-26T14:53:11Z</time></trkpt><trkpt lat="43.622069703938514" lon="11.305667905489853"><ele>287.0</ele><time>2026-04-26T14:53:12Z</time></trkpt><trkpt lat="43.62201636122819" lon="11.305479782630378"><ele>287.5</ele><time>2026-04-26T14:53:13Z</time></trkpt><trkpt lat="43.62196308755614" lon="11.30529490475537"><ele>288.0</ele><time>2026-04-26T14:53:14Z</time></trkpt><trkpt lat="43.621914392617036" lon="11.305115412382756"><ele>288.5</ele><time>2026-04-26T14:53:15Z</time></trkpt><trkpt lat="43.62186882802211" lon="11.304956799898795"><ele>289.0</ele><time>2026-04-26T14:53:16Z</time></trkpt><trkpt lat="43.621825378701466" lon="11.304812042447375"><ele>288.75</ele><time>2026-04-26T14:53:17Z</time></trkpt><trkpt lat="43.62177126784473" lon="11.304689517229741"><ele>288.5</ele><time>2026-04-26T14:53:18Z</time></trkpt><trkpt lat="43.6216921003585" lon="11.304585572167495"><ele>288.25</ele><time>2026-04-26T14:53:19Z</time></trkpt><trkpt lat="43.62158532092571" lon="11.304501833574202"><ele>288.0</ele><time>2026-04-26T14:53:20Z</time></trkpt><trkpt lat="43.62146937637311" lon="11.304407287969262"><ele>288.0</ele><time>2026-04-26T14:53:21Z</time></trkpt><trkpt lat="43.62134742144916" lon="11.304320285082403"><ele>288.0</ele><time>2026-04-26T14:53:22Z</time></trkpt><trkpt lat="43.62122821782465" lon="11.304220283196322"><ele>288.0</ele><time>2026-04-26T14:53:23Z</time></trkpt><trkpt lat="43.621100707938524" lon="11.304116242101168"><ele>288.0</ele><time>2026-04-26T14:53:24Z</time></trkpt><trkpt lat="43.62097697593935" lon="11.304010062304803"><ele>284.0</ele><time>2026-04-26T14:53:25Z</time></trkpt><trkpt lat="43.62084336122414" lon="11.303899638049186"><ele>280.0</ele><time>2026-04-26T14:53:26Z</time></trkpt><trkpt lat="43.6207106493522" lon="11.303787056714173"><ele>276.0</ele><time>2026-04-26T14:53:27Z</time></trkpt><trkpt lat="43.62057615742572" lon="11.303676953734774"><ele>276.0</ele><time>2026-04-26T14:53:28Z</time></trkpt><trkpt lat="43.62045813318048" lon="11.303560596716673"><ele>276.0</ele><time>2026-04-26T14:53:29Z</time></trkpt><trkpt lat="43.620318220026846" lon="11.30344941609737"><ele>276.0</ele><time>2026-04-26T14:53:30Z</time></trkpt><trkpt lat="43.62019055383182" lon="11.303321744003242"><ele>275.6666666666667</ele><time>2026-04-26T14:53:31Z</time></trkpt><trkpt lat="43.6200670860102" lon="11.303175648533115"><ele>275.33333333333337</ele><time>2026-04-26T14:53:32Z</time></trkpt><trkpt lat="43.61993785431322" lon="11.303062466188097"><ele>275.0</ele><time>2026-04-26T14:53:33Z</time></trkpt><trkpt lat="43.61979322707449" lon="11.30298773529469"><ele>273.25</ele><time>2026-04-26T14:53:34Z</time></trkpt><trkpt lat="43.61965854677581" lon="11.302919869976245"><ele>271.5</ele><time>2026-04-26T14:53:35Z</time></trkpt><trkpt lat="43.61952414478772" lon="11.302845849655757"><ele>269.75</ele><time>2026-04-26T14:53:36Z</time></trkpt><trkpt lat="43.61938616672978" lon="11.302780865615953"><ele>268.0</ele><time>2026-04-26T14:53:37Z</time></trkpt><trkpt lat="43.61924983614116" lon="11.302712831165502"><ele>267.75</ele><time>2026-04-26T14:53:38Z</time></trkpt><trkpt lat="43.619114024229134" lon="11.302633932154235"><ele>267.5</ele><time>2026-04-26T14:53:39Z</time></trkpt><trkpt lat="43.6189839923155" lon="11.302536232033846"><ele>267.25</ele><time>2026-04-26T14:53:40Z</time></trkpt><trkpt lat="43.61886528988883" lon="11.302417030967952"><ele>267.0</ele><time>2026-04-26T14:53:41Z</time></trkpt><trkpt lat="43.61876088552043" lon="11.302282461293279"><ele>266.3333333333333</ele><time>2026-04-26T14:53:42Z</time></trkpt><trkpt lat="43.61865837185257" lon="11.302132585705428"><ele>265.66666666666663</ele><time>2026-04-26T14:53:43Z</time></trkpt><trkpt lat="43.61855709754196" lon="11.301978841021038"><ele>265.0</ele><time>2026-04-26T14:53:44Z</time></trkpt><trkpt lat="43.618446906084785" lon="11.30183768314773"><ele>265.0</ele><time>2026-04-26T14:53:45Z</time></trkpt><trkpt lat="43.61834422861986" lon="11.301684213160861"><ele>265.0</ele><time>2026-04-26T14:53:46Z</time></trkpt><trkpt lat="43.61824241607301" lon="11.30152415667534"><ele>265.0</ele><time>2026-04-26T14:53:47Z</time></trkpt><trkpt lat="43.61813569621699" lon="11.301360862168092"><ele>264.66666666666663</ele><time>2026-04-26T14:53:48Z</time></trkpt><trkpt lat="43.618030407392766" lon="11.301204818809468"><ele>264.3333333333333</ele><time>2026-04-26T14:53:49Z</time></trkpt><trkpt lat="43.6179113571768" lon="11.30105512111211"><ele>264.0</ele><time>2026-04-26T14:53:50.001Z</time></trkpt><trkpt lat="43.61779575282859" lon="11.300913458673168"><ele>265.0</ele><time>2026-04-26T14:53:51.001Z</time></trkpt><trkpt lat="43.61767655080297" lon="11.30077302381313"><ele>266.0</ele><time>2026-04-26T14:53:52.001Z</time></trkpt><trkpt lat="43.617542913583115" lon="11.300637006379622"><ele>267.0</ele><time>2026-04-26T14:53:53.001Z</time></trkpt><trkpt lat="43.61741910452132" lon="11.300507613692334"><ele>264.6666666666667</ele><time>2026-04-26T14:53:54.001Z</time></trkpt><trkpt lat="43.6172946816355" lon="11.3003724752286"><ele>262.33333333333337</ele><time>2026-04-26T14:53:55.001Z</time></trkpt><trkpt lat="43.617174114160385" lon="11.300237143305903"><ele>260.0</ele><time>2026-04-26T14:53:56.001Z</time></trkpt><trkpt lat="43.61705443206914" lon="11.3001202316047"><ele>259.75</ele><time>2026-04-26T14:53:57.001Z</time></trkpt><trkpt lat="43.61695165582606" lon="11.299986769008317"><ele>259.5</ele><time>2026-04-26T14:53:58.001Z</time></trkpt><trkpt lat="43.61684699658935" lon="11.299879920676997"><ele>259.25</ele><time>2026-04-26T14:53:59.001Z</time></trkpt><trkpt lat="43.61672039201783" lon="11.299810969421637"><ele>259.0</ele><time>2026-04-26T14:54:00.001Z</time></trkpt><trkpt lat="43.616596993770834" lon="11.299749424750654"><ele>259.0</ele><time>2026-04-26T14:54:01.001Z</time></trkpt><trkpt lat="43.616467245980495" lon="11.299707534029684"><ele>259.0</ele><time>2026-04-26T14:54:02.001Z</time></trkpt><trkpt lat="43.61633047962947" lon="11.29966711059018"><ele>259.0</ele><time>2026-04-26T14:54:03.001Z</time></trkpt><trkpt lat="43.61619175186187" lon="11.299621762509009"><ele>259.0</ele><time>2026-04-26T14:54:04.001Z</time></trkpt><trkpt lat="43.61604812378836" lon="11.299573927120365"><ele>258.75</ele><time>2026-04-26T14:54:05.001Z</time></trkpt><trkpt lat="43.61590418720554" lon="11.299525478318065"><ele>258.5</ele><time>2026-04-26T14:54:06.001Z</time></trkpt><trkpt lat="43.615759289413326" lon="11.299479210491526"><ele>258.25</ele><time>2026-04-26T14:54:07.001Z</time></trkpt><trkpt lat="43.61561363468361" lon="11.29943101062157"><ele>258.0</ele><time>2026-04-26T14:54:08.001Z</time></trkpt><trkpt lat="43.61546687061936" lon="11.299379529316843"><ele>256.0</ele><time>2026-04-26T14:54:09.001Z</time></trkpt><trkpt lat="43.61531535652736" lon="11.29931860978965"><ele>254.0</ele><time>2026-04-26T14:54:10.001Z</time></trkpt><trkpt lat="43.615168221455775" lon="11.299249688822506"><ele>252.0</ele><time>2026-04-26T14:54:11.001Z</time></trkpt><trkpt lat="43.615024454222436" lon="11.299178207515174"><ele>252.0</ele><time>2026-04-26T14:54:12.001Z</time></trkpt><trkpt lat="43.61487801826259" lon="11.299105564921733"><ele>252.0</ele><time>2026-04-26T14:54:13.001Z</time></trkpt><trkpt lat="43.614728469907824" lon="11.299036626934209"><ele>252.0</ele><time>2026-04-26T14:54:14.001Z</time></trkpt><trkpt lat="43.614581073827125" lon="11.298964098221347"><ele>251.0</ele><time>2026-04-26T14:54:15.001Z</time></trkpt><trkpt lat="43.614443182349035" lon="11.298895619843137"><ele>250.0</ele><time>2026-04-26T14:54:16.001Z</time></trkpt><trkpt lat="43.61431562293517" lon="11.298833154946097"><ele>249.0</ele><time>2026-04-26T14:54:17.001Z</time></trkpt><trkpt lat="43.61419553372172" lon="11.29875556912447"><ele>248.0</ele><time>2026-04-26T14:54:18.001Z</time></trkpt><trkpt lat="43.61408179339874" lon="11.298653019136113"><ele>248.0</ele><time>2026-04-26T14:54:19.001Z</time></trkpt><trkpt lat="43.613966758184844" lon="11.298523150953182"><ele>248.0</ele><time>2026-04-26T14:54:20.001Z</time></trkpt><trkpt lat="43.61388997449304" lon="11.29836001833943"><ele>248.0</ele><time>2026-04-26T14:54:21.001Z</time></trkpt><trkpt lat="43.61379070585006" lon="11.298217881359149"><ele>248.0</ele><time>2026-04-26T14:54:22.001Z</time></trkpt><trkpt lat="43.61371298946949" lon="11.29807128088539"><ele>246.8</ele><time>2026-04-26T14:54:23.001Z</time></trkpt><trkpt lat="43.61363721756937" lon="11.297954634578506"><ele>245.60000000000002</ele><time>2026-04-26T14:54:24.001Z</time></trkpt><trkpt lat="43.613555252425606" lon="11.29784924239615"><ele>244.39999999999998</ele><time>2026-04-26T14:54:25.001Z</time></trkpt><trkpt lat="43.61346339815237" lon="11.297769985504532"><ele>243.2</ele><time>2026-04-26T14:54:26.001Z</time></trkpt><trkpt lat="43.61336441201931" lon="11.29773754724243"><ele>242.0</ele><time>2026-04-26T14:54:27.001Z</time></trkpt><trkpt lat="43.61326217276541" lon="11.29774890514577"><ele>242.0</ele><time>2026-04-26T14:54:28.001Z</time></trkpt><trkpt lat="43.61316599635103" lon="11.297796605576474"><ele>242.0</ele><time>2026-04-26T14:54:29.001Z</time></trkpt><trkpt lat="43.61307933936669" lon="11.297882995491237"><ele>242.0</ele><time>2026-04-26T14:54:30.001Z</time></trkpt><trkpt lat="43.613020822085446" lon="11.29800632855146"><ele>242.0</ele><time>2026-04-26T14:54:31.001Z</time></trkpt><trkpt lat="43.612995801203084" lon="11.298138506155132"><ele>242.0</ele><time>2026-04-26T14:54:32.001Z</time></trkpt><trkpt lat="43.61300324955405" lon="11.298269223465823"><ele>242.75</ele><time>2026-04-26T14:54:33.001Z</time></trkpt><trkpt lat="43.613034484262926" lon="11.298400352435614"><ele>243.5</ele><time>2026-04-26T14:54:34.001Z</time></trkpt><trkpt lat="43.61309403564879" lon="11.298553098521717"><ele>244.25</ele><time>2026-04-26T14:54:35.001Z</time></trkpt><trkpt lat="43.61318493763241" lon="11.298718031354118"><ele>245.0</ele><time>2026-04-26T14:54:36.001Z</time></trkpt><trkpt lat="43.613297295392485" lon="11.298884388802861"><ele>243.75</ele><time>2026-04-26T14:54:37.001Z</time></trkpt><trkpt lat="43.613389267853826" lon="11.299068608974565"><ele>242.5</ele><time>2026-04-26T14:54:38.001Z</time></trkpt><trkpt lat="43.61347229049476" lon="11.299235556293262"><ele>241.25</ele><time>2026-04-26T14:54:39.001Z</time></trkpt><trkpt lat="43.61355286273384" lon="11.299379730047246"><ele>240.0</ele><time>2026-04-26T14:54:40.001Z</time></trkpt><trkpt lat="43.61365442166835" lon="11.299510713974328"><ele>239.5</ele><time>2026-04-26T14:54:41.001Z</time></trkpt><trkpt lat="43.613778230838776" lon="11.299621506622326"><ele>239.0</ele><time>2026-04-26T14:54:42.001Z</time></trkpt><trkpt lat="43.61391676021403" lon="11.299704960720067"><ele>238.5</ele><time>2026-04-26T14:54:43.001Z</time></trkpt><trkpt lat="43.61404833642572" lon="11.299778585130774"><ele>238.0</ele><time>2026-04-26T14:54:44.001Z</time></trkpt><trkpt lat="43.61415796896112" lon="11.29985028847955"><ele>237.99999999999997</ele><time>2026-04-26T14:54:45.001Z</time></trkpt><trkpt lat="43.614247245528404" lon="11.299910290246672"><ele>238.0</ele><time>2026-04-26T14:54:46.001Z</time></trkpt><trkpt lat="43.614312733897215" lon="11.299979760902444"><ele>238.0</ele><time>2026-04-26T14:54:47.001Z</time></trkpt><trkpt lat="43.61434675151125" lon="11.300079638920273"><ele>238.0</ele><time>2026-04-26T14:54:48.001Z</time></trkpt><trkpt lat="43.614330849744945" lon="11.300195715541289"><ele>237.99999999999997</ele><time>2026-04-26T14:54:49.001Z</time></trkpt><trkpt lat="43.614267492138175" lon="11.30029360797204"><ele>238.0</ele><time>2026-04-26T14:54:50.001Z</time></trkpt><trkpt lat="43.61416275138936" lon="11.30033239922272"><ele>238.0</ele><time>2026-04-26T14:54:51Z</time></trkpt><trkpt lat="43.614054574716434" lon="11.300257080198124"><ele>238.0</ele><time>2026-04-26T14:54:52Z</time></trkpt><trkpt lat="43.61392424818489" lon="11.300182517456225"><ele>238.0</ele><time>2026-04-26T14:54:53Z</time></trkpt><trkpt lat="43.61378442697925" lon="11.300112752842777"><ele>238.0</ele><time>2026-04-26T14:54:54Z</time></trkpt><trkpt lat="43.61364367040778" lon="11.30002351600276"><ele>234.66666666666666</ele><time>2026-04-26T14:54:55Z</time></trkpt><trkpt lat="43.61350021469127" lon="11.299946973709462"><ele>231.33333333333331</ele><time>2026-04-26T14:54:56Z</time></trkpt><trkpt lat="43.61334590003123" lon="11.299862075708829"><ele>228.0</ele><time>2026-04-26T14:54:57Z</time></trkpt><trkpt lat="43.61318409057256" lon="11.299779026839884"><ele>228.33333333333331</ele><time>2026-04-26T14:54:58Z</time></trkpt><trkpt lat="43.61302988908342" lon="11.299697400253956"><ele>228.66666666666666</ele><time>2026-04-26T14:54:59Z</time></trkpt><trkpt lat="43.61287690771651" lon="11.29961953691381"><ele>229.0</ele><time>2026-04-26T14:55:00Z</time></trkpt><trkpt lat="43.612732810122694" lon="11.29954285424635"><ele>229.0</ele><time>2026-04-26T14:55:01Z</time></trkpt><trkpt lat="43.61259284099261" lon="11.299463842634877"><ele>229.0</ele><time>2026-04-26T14:55:02Z</time></trkpt><trkpt lat="43.612457673543716" lon="11.299391454880215"><ele>229.0</ele><time>2026-04-26T14:55:03Z</time></trkpt><trkpt lat="43.61231501773015" lon="11.29932323353424"><ele>229.0</ele><time>2026-04-26T14:55:04Z</time></trkpt><trkpt lat="43.61217827374965" lon="11.299268708971821"><ele>229.0</ele><time>2026-04-26T14:55:05Z</time></trkpt><trkpt lat="43.6120467101711" lon="11.299230915438281"><ele>229.0</ele><time>2026-04-26T14:55:06Z</time></trkpt><trkpt lat="43.61192219020189" lon="11.299223271714698"><ele>229.0</ele><time>2026-04-26T14:55:07Z</time></trkpt><trkpt lat="43.61179110689371" lon="11.299267695610048"><ele>229.0</ele><time>2026-04-26T14:55:08Z</time></trkpt><trkpt lat="43.611657845293486" lon="11.299378397580234"><ele>228.5</ele><time>2026-04-26T14:55:09Z</time></trkpt><trkpt lat="43.61154480052345" lon="11.29949686358432"><ele>228.0</ele><time>2026-04-26T14:55:10Z</time></trkpt><trkpt lat="43.61142608596267" lon="11.299544850129784"><ele>227.5</ele><time>2026-04-26T14:55:11Z</time></trkpt><trkpt lat="43.61129932374962" lon="11.299554035859671"><ele>227.0</ele><time>2026-04-26T14:55:12Z</time></trkpt><trkpt lat="43.61119981711249" lon="11.299474597685153"><ele>225.75</ele><time>2026-04-26T14:55:13Z</time></trkpt><trkpt lat="43.611071635571825" lon="11.299411655079467"><ele>224.5</ele><time>2026-04-26T14:55:14Z</time></trkpt><trkpt lat="43.6109533458759" lon="11.299355998941875"><ele>223.25</ele><time>2026-04-26T14:55:15Z</time></trkpt><trkpt lat="43.61083499104092" lon="11.299370999755965"><ele>222.0</ele><time>2026-04-26T14:55:16Z</time></trkpt><trkpt lat="43.61070736057665" lon="11.29943328300543"><ele>222.0</ele><time>2026-04-26T14:55:17Z</time></trkpt><trkpt lat="43.610582357222846" lon="11.299515555912993"><ele>222.0</ele><time>2026-04-26T14:55:18Z</time></trkpt><trkpt lat="43.61048028501479" lon="11.299601897387383"><ele>222.0</ele><time>2026-04-26T14:55:19Z</time></trkpt><trkpt lat="43.61033847520542" lon="11.299683023267486"><ele>222.0</ele><time>2026-04-26T14:55:20Z</time></trkpt><trkpt lat="43.61021309616529" lon="11.299757297085941"><ele>219.25</ele><time>2026-04-26T14:55:21Z</time></trkpt><trkpt lat="43.610078873555594" lon="11.299813220792215"><ele>216.5</ele><time>2026-04-26T14:55:22Z</time></trkpt><trkpt lat="43.609956084921365" lon="11.299885615905524"><ele>213.75</ele><time>2026-04-26T14:55:23Z</time></trkpt><trkpt lat="43.60983457812903" lon="11.299941888244701"><ele>211.0</ele><time>2026-04-26T14:55:24Z</time></trkpt><trkpt lat="43.60971184402152" lon="11.299939645355513"><ele>211.0</ele><time>2026-04-26T14:55:25Z</time></trkpt><trkpt lat="43.60958855517954" lon="11.299918920790525"><ele>211.0</ele><time>2026-04-26T14:55:26Z</time></trkpt><trkpt lat="43.60946629383291" lon="11.299856925578236"><ele>211.0</ele><time>2026-04-26T14:55:27Z</time></trkpt><trkpt lat="43.60933652904922" lon="11.299826255107702"><ele>211.0</ele><time>2026-04-26T14:55:28Z</time></trkpt><trkpt lat="43.60921098951155" lon="11.299766908681956"><ele>212.0</ele><time>2026-04-26T14:55:29Z</time></trkpt><trkpt lat="43.60908783384541" lon="11.299720746642612"><ele>213.0</ele><time>2026-04-26T14:55:30Z</time></trkpt><trkpt lat="43.60897345331796" lon="11.29968054040244"><ele>214.0</ele><time>2026-04-26T14:55:31Z</time></trkpt><trkpt lat="43.6088593816305" lon="11.299666547196631"><ele>215.0</ele><time>2026-04-26T14:55:32Z</time></trkpt><trkpt lat="43.60876057092077" lon="11.299724319795734"><ele>212.75</ele><time>2026-04-26T14:55:33Z</time></trkpt><trkpt lat="43.60868059777853" lon="11.299822892837573"><ele>210.5</ele><time>2026-04-26T14:55:34Z</time></trkpt><trkpt lat="43.60860002029018" lon="11.299964702700976"><ele>208.25</ele><time>2026-04-26T14:55:35Z</time></trkpt><trkpt lat="43.60853720944479" lon="11.30010540145615"><ele>206.0</ele><time>2026-04-26T14:55:36Z</time></trkpt><trkpt lat="43.60846912961492" lon="11.300253381198125"><ele>206.5</ele><time>2026-04-26T14:55:37Z</time></trkpt><trkpt lat="43.60839080224118" lon="11.300387591353324"><ele>207.0</ele><time>2026-04-26T14:55:38Z</time></trkpt><trkpt lat="43.60831723402577" lon="11.300520166041753"><ele>207.5</ele><time>2026-04-26T14:55:39Z</time></trkpt><trkpt lat="43.608240760500834" lon="11.300662285477879"><ele>208.0</ele><time>2026-04-26T14:55:40Z</time></trkpt><trkpt lat="43.608176071792386" lon="11.300800878765855"><ele>208.0</ele><time>2026-04-26T14:55:41Z</time></trkpt><trkpt lat="43.608115115277656" lon="11.30095252318796"><ele>208.0</ele><time>2026-04-26T14:55:42Z</time></trkpt><trkpt lat="43.60806539660708" lon="11.301097344935105"><ele>208.0</ele><time>2026-04-26T14:55:43Z</time></trkpt><trkpt lat="43.608027861600355" lon="11.30124582922947"><ele>208.0</ele><time>2026-04-26T14:55:44Z</time></trkpt><trkpt lat="43.607999034133684" lon="11.301395544884922"><ele>209.5</ele><time>2026-04-26T14:55:45Z</time></trkpt><trkpt lat="43.607961347115236" lon="11.301548622989449"><ele>211.0</ele><time>2026-04-26T14:55:46Z</time></trkpt><trkpt lat="43.607929994973325" lon="11.30170700251721"><ele>212.5</ele><time>2026-04-26T14:55:47Z</time></trkpt><trkpt lat="43.607903724603034" lon="11.301865138964194"><ele>214.0</ele><time>2026-04-26T14:55:48Z</time></trkpt><trkpt lat="43.60790316196939" lon="11.302021913859043"><ele>214.0</ele><time>2026-04-26T14:55:49Z</time></trkpt><trkpt lat="43.60787385162134" lon="11.302197733556493"><ele>214.0</ele><time>2026-04-26T14:55:50Z</time></trkpt><trkpt lat="43.607855110188424" lon="11.302363111792577"><ele>214.0</ele><time>2026-04-26T14:55:51Z</time></trkpt><trkpt lat="43.607818020280824" lon="11.302512440355086"><ele>214.0</ele><time>2026-04-26T14:55:52Z</time></trkpt><trkpt lat="43.607742714864735" lon="11.302649914964373"><ele>212.75</ele><time>2026-04-26T14:55:53Z</time></trkpt><trkpt lat="43.60768246829432" lon="11.302800260820778"><ele>211.5</ele><time>2026-04-26T14:55:54Z</time></trkpt><trkpt lat="43.6076056215408" lon="11.302929011732848"><ele>210.25</ele><time>2026-04-26T14:55:55.001Z</time></trkpt><trkpt lat="43.60753609387201" lon="11.303060050094572"><ele>209.0</ele><time>2026-04-26T14:55:56.001Z</time></trkpt><trkpt lat="43.60746884362075" lon="11.303187654532795"><ele>209.0</ele><time>2026-04-26T14:55:57.001Z</time></trkpt><trkpt lat="43.60740213538316" lon="11.30331022967231"><ele>209.0</ele><time>2026-04-26T14:55:58.001Z</time></trkpt><trkpt lat="43.607337323141905" lon="11.303442700417387"><ele>209.0</ele><time>2026-04-26T14:55:59.001Z</time></trkpt><trkpt lat="43.60726587488477" lon="11.303574531083477"><ele>209.0</ele><time>2026-04-26T14:56:00.001Z</time></trkpt><trkpt lat="43.60719754455646" lon="11.303703799214745"><ele>209.0</ele><time>2026-04-26T14:56:01.001Z</time></trkpt><trkpt lat="43.60713002768131" lon="11.30383807799041"><ele>209.0</ele><time>2026-04-26T14:56:02.001Z</time></trkpt><trkpt lat="43.60706501163348" lon="11.303970662831613"><ele>209.0</ele><time>2026-04-26T14:56:03.001Z</time></trkpt><trkpt lat="43.60699447785444" lon="11.304106784034818"><ele>209.0</ele><time>2026-04-26T14:56:04.001Z</time></trkpt><trkpt lat="43.606930788661174" lon="11.304220824960368"><ele>209.0</ele><time>2026-04-26T14:56:05.001Z</time></trkpt><trkpt lat="43.6068601948649" lon="11.304358088783953"><ele>209.0</ele><time>2026-04-26T14:56:06.001Z</time></trkpt><trkpt lat="43.6067739639627" lon="11.304494707811148"><ele>209.0</ele><time>2026-04-26T14:56:07.001Z</time></trkpt><trkpt lat="43.60668777449253" lon="11.304613819363174"><ele>209.0</ele><time>2026-04-26T14:56:08.001Z</time></trkpt><trkpt lat="43.60659082335651" lon="11.304710474008054"><ele>210.75</ele><time>2026-04-26T14:56:09.001Z</time></trkpt><trkpt lat="43.60648464445738" lon="11.30480193662528"><ele>212.5</ele><time>2026-04-26T14:56:10.001Z</time></trkpt><trkpt lat="43.60637525473974" lon="11.304897627329472"><ele>214.25</ele><time>2026-04-26T14:56:11.001Z</time></trkpt><trkpt lat="43.606274111617346" lon="11.304986445319924"><ele>216.0</ele><time>2026-04-26T14:56:12.001Z</time></trkpt><trkpt lat="43.60616797375144" lon="11.305073086485688"><ele>214.0</ele><time>2026-04-26T14:56:13.001Z</time></trkpt><trkpt lat="43.606059525476596" lon="11.305157538838083"><ele>212.0</ele><time>2026-04-26T14:56:14.001Z</time></trkpt><trkpt lat="43.605949007114965" lon="11.30524518188734"><ele>210.0</ele><time>2026-04-26T14:56:15.001Z</time></trkpt><trkpt lat="43.605840996546235" lon="11.305336608531817"><ele>208.0</ele><time>2026-04-26T14:56:16.001Z</time></trkpt><trkpt lat="43.60573993198948" lon="11.305430509429687"><ele>208.0</ele><time>2026-04-26T14:56:17.001Z</time></trkpt><trkpt lat="43.60562943089715" lon="11.305518955137348"><ele>208.0</ele><time>2026-04-26T14:56:18.001Z</time></trkpt><trkpt lat="43.60552263998037" lon="11.305612368260412"><ele>208.0</ele><time>2026-04-26T14:56:19.001Z</time></trkpt><trkpt lat="43.6054173985324" lon="11.30570562773194"><ele>208.0</ele><time>2026-04-26T14:56:20.001Z</time></trkpt><trkpt lat="43.605302648514396" lon="11.305799664006381"><ele>208.0</ele><time>2026-04-26T14:56:21.001Z</time></trkpt><trkpt lat="43.605191166422266" lon="11.305897431102787"><ele>208.0</ele><time>2026-04-26T14:56:22.001Z</time></trkpt><trkpt lat="43.60507412484987" lon="11.305994230002826"><ele>208.0</ele><time>2026-04-26T14:56:23.001Z</time></trkpt><trkpt lat="43.604959673690104" lon="11.306095740612943"><ele>208.0</ele><time>2026-04-26T14:56:24.001Z</time></trkpt><trkpt lat="43.60484070779546" lon="11.306192084440239"><ele>208.0</ele><time>2026-04-26T14:56:25.001Z</time></trkpt><trkpt lat="43.60472842923718" lon="11.306292824779504"><ele>208.0</ele><time>2026-04-26T14:56:26.001Z</time></trkpt><trkpt lat="43.60461070765713" lon="11.306394603319157"><ele>208.0</ele><time>2026-04-26T14:56:27.001Z</time></trkpt><trkpt lat="43.604497882480494" lon="11.30649492850999"><ele>208.0</ele><time>2026-04-26T14:56:28.001Z</time></trkpt><trkpt lat="43.6043822205886" lon="11.306588595937333"><ele>208.25</ele><time>2026-04-26T14:56:29.001Z</time></trkpt><trkpt lat="43.60428863586313" lon="11.306698170165678"><ele>208.5</ele><time>2026-04-26T14:56:30.001Z</time></trkpt><trkpt lat="43.60421870898696" lon="11.306816487927353"><ele>208.75</ele><time>2026-04-26T14:56:31.001Z</time></trkpt><trkpt lat="43.604180315971" lon="11.30697629517158"><ele>209.0</ele><time>2026-04-26T14:56:32.001Z</time></trkpt><trkpt lat="43.60415893514491" lon="11.307151400301942"><ele>210.25</ele><time>2026-04-26T14:56:33.001Z</time></trkpt><trkpt lat="43.60415937467163" lon="11.307322926005789"><ele>211.5</ele><time>2026-04-26T14:56:34.001Z</time></trkpt><trkpt lat="43.604160786599515" lon="11.307496649127133"><ele>212.75</ele><time>2026-04-26T14:56:35.001Z</time></trkpt><trkpt lat="43.60416360171923" lon="11.307671446287015"><ele>214.0</ele><time>2026-04-26T14:56:36.001Z</time></trkpt><trkpt lat="43.6041667672172" lon="11.307848985185831"><ele>214.0</ele><time>2026-04-26T14:56:37.001Z</time></trkpt><trkpt lat="43.60415696927877" lon="11.30802840493773"><ele>214.0</ele><time>2026-04-26T14:56:38.001Z</time></trkpt><trkpt lat="43.60415048207848" lon="11.30818805105875"><ele>214.0</ele><time>2026-04-26T14:56:39.001Z</time></trkpt><trkpt lat="43.6041356463363" lon="11.30834603027777"><ele>214.0</ele><time>2026-04-26T14:56:40.001Z</time></trkpt><trkpt lat="43.60410802026578" lon="11.308500324478954"><ele>214.5</ele><time>2026-04-26T14:56:41.001Z</time></trkpt><trkpt lat="43.60406499797824" lon="11.308646694751882"><ele>215.0</ele><time>2026-04-26T14:56:42.001Z</time></trkpt><trkpt lat="43.60400834724953" lon="11.308782062570025"><ele>215.5</ele><time>2026-04-26T14:56:43.001Z</time></trkpt><trkpt lat="43.603941726203956" lon="11.30891842485879"><ele>216.0</ele><time>2026-04-26T14:56:44.001Z</time></trkpt><trkpt lat="43.60386764062896" lon="11.30904859690752"><ele>216.0</ele><time>2026-04-26T14:56:45.001Z</time></trkpt><trkpt lat="43.60378181796138" lon="11.309164652591603"><ele>216.0</ele><time>2026-04-26T14:56:46.001Z</time></trkpt><trkpt lat="43.603674184604145" lon="11.30925200997243"><ele>216.0</ele><time>2026-04-26T14:56:47.001Z</time></trkpt><trkpt lat="43.603557688823805" lon="11.309323350125409"><ele>216.0</ele><time>2026-04-26T14:56:48.001Z</time></trkpt><trkpt lat="43.60344311723862" lon="11.309384335173036"><ele>215.25</ele><time>2026-04-26T14:56:49.001Z</time></trkpt><trkpt lat="43.60333102328109" lon="11.309461614738353"><ele>214.5</ele><time>2026-04-26T14:56:50.001Z</time></trkpt><trkpt lat="43.60321306525389" lon="11.309533083696019"><ele>213.75</ele><time>2026-04-26T14:56:51.001Z</time></trkpt><trkpt lat="43.603082669551284" lon="11.309601851555552"><ele>213.0</ele><time>2026-04-26T14:56:52.001Z</time></trkpt><trkpt lat="43.602957782019296" lon="11.309670523828254"><ele>213.0</ele><time>2026-04-26T14:56:53.001Z</time></trkpt><trkpt lat="43.60283695893437" lon="11.309737000823135"><ele>213.0</ele><time>2026-04-26T14:56:54.001Z</time></trkpt><trkpt lat="43.60271691131804" lon="11.309802514242431"><ele>213.0</ele><time>2026-04-26T14:56:55.001Z</time></trkpt><trkpt lat="43.60259817736335" lon="11.309870989224681"><ele>213.0</ele><time>2026-04-26T14:56:56.001Z</time></trkpt><trkpt lat="43.6024774162251" lon="11.309933501983076"><ele>213.25</ele><time>2026-04-26T14:56:57Z</time></trkpt><trkpt lat="43.60235631269684" lon="11.309996141438967"><ele>213.5</ele><time>2026-04-26T14:56:58Z</time></trkpt><trkpt lat="43.60223235563625" lon="11.310057314380744"><ele>213.75</ele><time>2026-04-26T14:56:59Z</time></trkpt><trkpt lat="43.60211305236133" lon="11.310128082555115"><ele>214.0</ele><time>2026-04-26T14:57:00Z</time></trkpt><trkpt lat="43.601995701352564" lon="11.31019896404261"><ele>213.5</ele><time>2026-04-26T14:57:01Z</time></trkpt><trkpt lat="43.60187194941114" lon="11.310268444195778"><ele>213.0</ele><time>2026-04-26T14:57:02Z</time></trkpt><trkpt lat="43.60175093724355" lon="11.310340940425652"><ele>212.5</ele><time>2026-04-26T14:57:03Z</time></trkpt><trkpt lat="43.60162727029801" lon="11.310406460146687"><ele>212.0</ele><time>2026-04-26T14:57:04Z</time></trkpt><trkpt lat="43.601495575559895" lon="11.310476870449547"><ele>212.0</ele><time>2026-04-26T14:57:05Z</time></trkpt><trkpt lat="43.601366146058595" lon="11.310544843741077"><ele>212.0</ele><time>2026-04-26T14:57:06Z</time></trkpt><trkpt lat="43.6012403924859" lon="11.310620886867023"><ele>212.0</ele><time>2026-04-26T14:57:07Z</time></trkpt><trkpt lat="43.60111172459296" lon="11.310702769439763"><ele>212.0</ele><time>2026-04-26T14:57:08Z</time></trkpt><trkpt lat="43.60098400462724" lon="11.310794219711292"><ele>212.75</ele><time>2026-04-26T14:57:09Z</time></trkpt><trkpt lat="43.60087746492716" lon="11.310900205110038"><ele>213.5</ele><time>2026-04-26T14:57:10Z</time></trkpt><trkpt lat="43.6007810177977" lon="11.311018477389181"><ele>214.25</ele><time>2026-04-26T14:57:11Z</time></trkpt><trkpt lat="43.60069284583687" lon="11.311147946587255"><ele>215.0</ele><time>2026-04-26T14:57:12Z</time></trkpt><trkpt lat="43.60061128181487" lon="11.31129141187953"><ele>214.5</ele><time>2026-04-26T14:57:13Z</time></trkpt><trkpt lat="43.6005302835641" lon="11.311438910094317"><ele>214.0</ele><time>2026-04-26T14:57:14Z</time></trkpt><trkpt lat="43.6004526639003" lon="11.311583253156668"><ele>213.5</ele><time>2026-04-26T14:57:15Z</time></trkpt><trkpt lat="43.60037303549408" lon="11.311727438495485"><ele>213.0</ele><time>2026-04-26T14:57:16Z</time></trkpt><trkpt lat="43.60028992040099" lon="11.31187958491307"><ele>213.0</ele><time>2026-04-26T14:57:17Z</time></trkpt><trkpt lat="43.600210602383406" lon="11.312026688217786"><ele>213.0</ele><time>2026-04-26T14:57:18Z</time></trkpt><trkpt lat="43.60012872468677" lon="11.312176422281158"><ele>213.0</ele><time>2026-04-26T14:57:19Z</time></trkpt><trkpt lat="43.60004758865141" lon="11.31233170054149"><ele>213.0</ele><time>2026-04-26T14:57:20Z</time></trkpt><trkpt lat="43.59996740816606" lon="11.31247572958394"><ele>213.0</ele><time>2026-04-26T14:57:21Z</time></trkpt><trkpt lat="43.5998890332585" lon="11.312627833448374"><ele>213.0</ele><time>2026-04-26T14:57:22Z</time></trkpt><trkpt lat="43.59980419207217" lon="11.31278400050606"><ele>213.0</ele><time>2026-04-26T14:57:23Z</time></trkpt><trkpt lat="43.59971843119782" lon="11.312936213574746"><ele>213.0</ele><time>2026-04-26T14:57:24Z</time></trkpt><trkpt lat="43.599633142738284" lon="11.313087754049754"><ele>213.25</ele><time>2026-04-26T14:57:25Z</time></trkpt><trkpt lat="43.59954898868285" lon="11.313242486803892"><ele>213.5</ele><time>2026-04-26T14:57:26Z</time></trkpt><trkpt lat="43.59946470819186" lon="11.313396014363038"><ele>213.75</ele><time>2026-04-26T14:57:27Z</time></trkpt><trkpt lat="43.599378728050894" lon="11.313554298651042"><ele>214.0</ele><time>2026-04-26T14:57:28Z</time></trkpt><trkpt lat="43.599290972978956" lon="11.31370754090216"><ele>214.0</ele><time>2026-04-26T14:57:29Z</time></trkpt><trkpt lat="43.59920024206634" lon="11.313866379574057"><ele>214.0</ele><time>2026-04-26T14:57:30Z</time></trkpt><trkpt lat="43.59911464293282" lon="11.314022201086301"><ele>214.0</ele><time>2026-04-26T14:57:31Z</time></trkpt><trkpt lat="43.59902851577509" lon="11.314178414294089"><ele>214.0</ele><time>2026-04-26T14:57:32Z</time></trkpt><trkpt lat="43.598943641182984" lon="11.314337840552852"><ele>214.5</ele><time>2026-04-26T14:57:33Z</time></trkpt><trkpt lat="43.59885722705731" lon="11.314495526171568"><ele>215.0</ele><time>2026-04-26T14:57:34Z</time></trkpt><trkpt lat="43.59876915965686" lon="11.314654329539668"><ele>215.5</ele><time>2026-04-26T14:57:35Z</time></trkpt><trkpt lat="43.59868278503845" lon="11.314809414221209"><ele>216.0</ele><time>2026-04-26T14:57:36Z</time></trkpt><trkpt lat="43.59859590477513" lon="11.314964843275682"><ele>216.0</ele><time>2026-04-26T14:57:37Z</time></trkpt><trkpt lat="43.59851499956287" lon="11.31511318916265"><ele>216.0</ele><time>2026-04-26T14:57:38Z</time></trkpt><trkpt lat="43.598432955106254" lon="11.31525546805754"><ele>216.0</ele><time>2026-04-26T14:57:39Z</time></trkpt><trkpt lat="43.59835099525523" lon="11.315406825649445"><ele>216.0</ele><time>2026-04-26T14:57:40Z</time></trkpt><trkpt lat="43.598269003835014" lon="11.315563195556031"><ele>217.0</ele><time>2026-04-26T14:57:41Z</time></trkpt><trkpt lat="43.598186998379916" lon="11.315720495573299"><ele>218.0</ele><time>2026-04-26T14:57:42Z</time></trkpt><trkpt lat="43.59809900552022" lon="11.315872050981511"><ele>219.0</ele><time>2026-04-26T14:57:43Z</time></trkpt><trkpt lat="43.59800706385602" lon="11.316016780384201"><ele>220.0</ele><time>2026-04-26T14:57:44Z</time></trkpt><trkpt lat="43.59792123643067" lon="11.31614320878531"><ele>220.0</ele><time>2026-04-26T14:57:45Z</time></trkpt><trkpt lat="43.59781702877284" lon="11.316259526865368"><ele>220.0</ele><time>2026-04-26T14:57:46Z</time></trkpt><trkpt lat="43.597701977151054" lon="11.316359238106147"><ele>220.0</ele><time>2026-04-26T14:57:47Z</time></trkpt><trkpt lat="43.597575257884955" lon="11.316448288749667"><ele>220.0</ele><time>2026-04-26T14:57:48Z</time></trkpt><trkpt lat="43.597449281679225" lon="11.316526404783664"><ele>220.0</ele><time>2026-04-26T14:57:49Z</time></trkpt><trkpt lat="43.59731146616503" lon="11.31659463074044"><ele>220.0</ele><time>2026-04-26T14:57:50Z</time></trkpt><trkpt lat="43.59718319445442" lon="11.316678465347382"><ele>220.0</ele><time>2026-04-26T14:57:51Z</time></trkpt><trkpt lat="43.597053832260194" lon="11.316757518923765"><ele>220.0</ele><time>2026-04-26T14:57:52Z</time></trkpt><trkpt lat="43.596925244762396" lon="11.3168320627497"><ele>219.5</ele><time>2026-04-26T14:57:53Z</time></trkpt><trkpt lat="43.59679508805743" lon="11.31689449369071"><ele>219.0</ele><time>2026-04-26T14:57:54Z</time></trkpt><trkpt lat="43.59665886610113" lon="11.316933085981237"><ele>218.5</ele><time>2026-04-26T14:57:55Z</time></trkpt><trkpt lat="43.59652380249386" lon="11.316937539493372"><ele>218.0</ele><time>2026-04-26T14:57:56Z</time></trkpt><trkpt lat="43.59638046893451" lon="11.316925682871325"><ele>218.0</ele><time>2026-04-26T14:57:57Z</time></trkpt><trkpt lat="43.596242427391324" lon="11.316903160892974"><ele>218.0</ele><time>2026-04-26T14:57:58Z</time></trkpt><trkpt lat="43.59610669758343" lon="11.316863250174693"><ele>218.0</ele><time>2026-04-26T14:57:59Z</time></trkpt><trkpt lat="43.59596909521518" lon="11.316813703779037"><ele>218.0</ele><time>2026-04-26T14:58:00Z</time></trkpt><trkpt lat="43.59583200933144" lon="11.316772043828312"><ele>218.0</ele><time>2026-04-26T14:58:01Z</time></trkpt><trkpt lat="43.59569763837475" lon="11.3167301754145"><ele>218.0</ele><time>2026-04-26T14:58:02Z</time></trkpt><trkpt lat="43.595561493666274" lon="11.316682265162566"><ele>218.0</ele><time>2026-04-26T14:58:03Z</time></trkpt><trkpt lat="43.59542841146638" lon="11.316633731201504"><ele>218.0</ele><time>2026-04-26T14:58:04Z</time></trkpt><trkpt lat="43.59529134531433" lon="11.316603361757771"><ele>219.0</ele><time>2026-04-26T14:58:05Z</time></trkpt><trkpt lat="43.595148491410725" lon="11.316607767158532"><ele>220.0</ele><time>2026-04-26T14:58:06Z</time></trkpt><trkpt lat="43.59501103965994" lon="11.316633663082703"><ele>221.0</ele><time>2026-04-26T14:58:07Z</time></trkpt><trkpt lat="43.594870677589036" lon="11.316662446741253"><ele>222.0</ele><time>2026-04-26T14:58:08Z</time></trkpt><trkpt lat="43.59473204650158" lon="11.316681342074093"><ele>222.0</ele><time>2026-04-26T14:58:09Z</time></trkpt><trkpt lat="43.5945999327495" lon="11.316662084444074"><ele>222.0</ele><time>2026-04-26T14:58:10Z</time></trkpt><trkpt lat="43.59447155068004" lon="11.316577316294401"><ele>222.0</ele><time>2026-04-26T14:58:11Z</time></trkpt><trkpt lat="43.594336257450415" lon="11.316509090335837"><ele>222.0</ele><time>2026-04-26T14:58:12Z</time></trkpt><trkpt lat="43.59422527024627" lon="11.316417556079346"><ele>221.5</ele><time>2026-04-26T14:58:13Z</time></trkpt><trkpt lat="43.59411426490476" lon="11.316334850977665"><ele>221.0</ele><time>2026-04-26T14:58:14Z</time></trkpt><trkpt lat="43.594004816684105" lon="11.31625406183978"><ele>220.5</ele><time>2026-04-26T14:58:15Z</time></trkpt><trkpt lat="43.59388182147586" lon="11.316174060740096"><ele>220.0</ele><time>2026-04-26T14:58:16.001Z</time></trkpt><trkpt lat="43.59376218366484" lon="11.316097927027698"><ele>221.0</ele><time>2026-04-26T14:58:17.001Z</time></trkpt><trkpt lat="43.59364707831452" lon="11.316015448756605"><ele>222.0</ele><time>2026-04-26T14:58:18.001Z</time></trkpt><trkpt lat="43.59353152397207" lon="11.315937105653362"><ele>223.0</ele><time>2026-04-26T14:58:19.001Z</time></trkpt><trkpt lat="43.59341962264393" lon="11.31585797104042"><ele>224.0</ele><time>2026-04-26T14:58:20.001Z</time></trkpt><trkpt lat="43.59330883144618" lon="11.315784157326034"><ele>224.0</ele><time>2026-04-26T14:58:21.001Z</time></trkpt><trkpt lat="43.59319697727947" lon="11.315719147257703"><ele>224.0</ele><time>2026-04-26T14:58:22.001Z</time></trkpt><trkpt lat="43.593077797109096" lon="11.315666264385657"><ele>224.0</ele><time>2026-04-26T14:58:23.001Z</time></trkpt><trkpt lat="43.59295503355608" lon="11.315624524309568"><ele>224.0</ele><time>2026-04-26T14:58:24.001Z</time></trkpt><trkpt lat="43.59283545965133" lon="11.315575826231118"><ele>223.25</ele><time>2026-04-26T14:58:25.001Z</time></trkpt><trkpt lat="43.59271453792832" lon="11.31553003556924"><ele>222.5</ele><time>2026-04-26T14:58:26.001Z</time></trkpt><trkpt lat="43.59260291621471" lon="11.315483531908189"><ele>221.75</ele><time>2026-04-26T14:58:27.001Z</time></trkpt><trkpt lat="43.59249580561968" lon="11.315417805768586"><ele>221.0</ele><time>2026-04-26T14:58:28.001Z</time></trkpt><trkpt lat="43.59239020365758" lon="11.315358774129786"><ele>221.00000000000003</ele><time>2026-04-26T14:58:29.001Z</time></trkpt><trkpt lat="43.59230162396721" lon="11.31530047272472"><ele>221.0</ele><time>2026-04-26T14:58:30.001Z</time></trkpt><trkpt lat="43.592225213671014" lon="11.315252033115236"><ele>221.0</ele><time>2026-04-26T14:58:31.001Z</time></trkpt><trkpt lat="43.59216821443935" lon="11.315184960299755"><ele>221.0</ele><time>2026-04-26T14:58:32.001Z</time></trkpt><trkpt lat="43.59210849474665" lon="11.315122600328367"><ele>221.00000000000003</ele><time>2026-04-26T14:58:33.001Z</time></trkpt><trkpt lat="43.59206265980256" lon="11.315055766848605"><ele>221.0</ele><time>2026-04-26T14:58:34.001Z</time></trkpt><trkpt lat="43.59200462264532" lon="11.314987786649084"><ele>221.20000000000002</ele><time>2026-04-26T14:58:35.001Z</time></trkpt><trkpt lat="43.591920621563084" lon="11.314962561164734"><ele>221.40000000000003</ele><time>2026-04-26T14:58:36.001Z</time></trkpt><trkpt lat="43.591821595140786" lon="11.314948615454956"><ele>221.6</ele><time>2026-04-26T14:58:37.001Z</time></trkpt><trkpt lat="43.591732828169185" lon="11.314876341103844"><ele>221.8</ele><time>2026-04-26T14:58:38.001Z</time></trkpt><trkpt lat="43.591635597145164" lon="11.31481286271833"><ele>222.0</ele><time>2026-04-26T14:58:39.001Z</time></trkpt><trkpt lat="43.591536084699754" lon="11.314750004617265"><ele>222.0</ele><time>2026-04-26T14:58:40.001Z</time></trkpt><trkpt lat="43.59143635315839" lon="11.314687705708545"><ele>222.0</ele><time>2026-04-26T14:58:41.001Z</time></trkpt><trkpt lat="43.59133926313699" lon="11.314630187545777"><ele>222.0</ele><time>2026-04-26T14:58:42.001Z</time></trkpt><trkpt lat="43.591238803790375" lon="11.314601894417239"><ele>222.0</ele><time>2026-04-26T14:58:43.001Z</time></trkpt><trkpt lat="43.591131344452634" lon="11.314552099937664"><ele>222.0</ele><time>2026-04-26T14:58:44.001Z</time></trkpt><trkpt lat="43.59102399710035" lon="11.314501916487691"><ele>222.0</ele><time>2026-04-26T14:58:45.001Z</time></trkpt><trkpt lat="43.59090987699876" lon="11.314460157653675"><ele>222.0</ele><time>2026-04-26T14:58:46.001Z</time></trkpt><trkpt lat="43.590792107847655" lon="11.314425220493249"><ele>222.0</ele><time>2026-04-26T14:58:47.001Z</time></trkpt><trkpt lat="43.590674427267544" lon="11.314397054211407"><ele>222.0</ele><time>2026-04-26T14:58:48.001Z</time></trkpt><trkpt lat="43.59055025785511" lon="11.314379492938786"><ele>222.0</ele><time>2026-04-26T14:58:49.001Z</time></trkpt><trkpt lat="43.590429246749906" lon="11.31437618607243"><ele>222.0</ele><time>2026-04-26T14:58:50.001Z</time></trkpt><trkpt lat="43.590314293520166" lon="11.314389808358806"><ele>222.0</ele><time>2026-04-26T14:58:51.001Z</time></trkpt><trkpt lat="43.590202450882046" lon="11.314404458056796"><ele>222.0</ele><time>2026-04-26T14:58:52.001Z</time></trkpt><trkpt lat="43.59009548834402" lon="11.314424542927746"><ele>222.25</ele><time>2026-04-26T14:58:53.001Z</time></trkpt><trkpt lat="43.58998462778557" lon="11.31444526697815"><ele>222.5</ele><time>2026-04-26T14:58:54.001Z</time></trkpt><trkpt lat="43.589870982753354" lon="11.314466604735433"><ele>222.75</ele><time>2026-04-26T14:58:55.001Z</time></trkpt><trkpt lat="43.58976270035296" lon="11.314482726924934"><ele>223.0</ele><time>2026-04-26T14:58:56.001Z</time></trkpt><trkpt lat="43.5896490977799" lon="11.314501296716571"><ele>223.0</ele><time>2026-04-26T14:58:57.001Z</time></trkpt><trkpt lat="43.58953692934729" lon="11.314523835738514"><ele>223.0</ele><time>2026-04-26T14:58:58.001Z</time></trkpt><trkpt lat="43.58942063554264" lon="11.314537294487497"><ele>223.0</ele><time>2026-04-26T14:58:59.001Z</time></trkpt><trkpt lat="43.58930843228048" lon="11.314567935421803"><ele>223.0</ele><time>2026-04-26T14:59:00.001Z</time></trkpt><trkpt lat="43.58919451803337" lon="11.314592196651654"><ele>223.5</ele><time>2026-04-26T14:59:01.001Z</time></trkpt><trkpt lat="43.5890856940929" lon="11.314608400787922"><ele>224.0</ele><time>2026-04-26T14:59:02.001Z</time></trkpt><trkpt lat="43.58896829810073" lon="11.314627188000255"><ele>224.5</ele><time>2026-04-26T14:59:03Z</time></trkpt><trkpt lat="43.58885338854341" lon="11.31464599371745"><ele>225.0</ele><time>2026-04-26T14:59:04Z</time></trkpt><trkpt lat="43.588738730171485" lon="11.314673014064935"><ele>225.25</ele><time>2026-04-26T14:59:05Z</time></trkpt><trkpt lat="43.58861720368373" lon="11.314689861763672"><ele>225.5</ele><time>2026-04-26T14:59:06Z</time></trkpt><trkpt lat="43.58850220012193" lon="11.314707992622644"><ele>225.75</ele><time>2026-04-26T14:59:07Z</time></trkpt><trkpt lat="43.58838832449329" lon="11.314725086058504"><ele>226.0</ele><time>2026-04-26T14:59:08Z</time></trkpt><trkpt lat="43.58827077000793" lon="11.31474870334466"><ele>226.25</ele><time>2026-04-26T14:59:09Z</time></trkpt><trkpt lat="43.58814742815588" lon="11.314769995594116"><ele>226.5</ele><time>2026-04-26T14:59:10Z</time></trkpt><trkpt lat="43.58802595106714" lon="11.31478869917512"><ele>226.75</ele><time>2026-04-26T14:59:11Z</time></trkpt><trkpt lat="43.587898192805554" lon="11.314816836853973"><ele>227.0</ele><time>2026-04-26T14:59:12Z</time></trkpt><trkpt lat="43.587779248725575" lon="11.314837009067995"><ele>227.0</ele><time>2026-04-26T14:59:13Z</time></trkpt><trkpt lat="43.58765981273972" lon="11.314857976871727"><ele>227.0</ele><time>2026-04-26T14:59:14Z</time></trkpt><trkpt lat="43.587541495733156" lon="11.314881617380562"><ele>227.0</ele><time>2026-04-26T14:59:15Z</time></trkpt><trkpt lat="43.587420869981024" lon="11.314902896754537"><ele>227.0</ele><time>2026-04-26T14:59:16Z</time></trkpt><trkpt lat="43.58730266061569" lon="11.314923631599125"><ele>227.0</ele><time>2026-04-26T14:59:17Z</time></trkpt><trkpt lat="43.58718734903985" lon="11.314953578877056"><ele>227.0</ele><time>2026-04-26T14:59:18Z</time></trkpt><trkpt lat="43.58707675703335" lon="11.314982862606621"><ele>227.0</ele><time>2026-04-26T14:59:19Z</time></trkpt><trkpt lat="43.586962006146436" lon="11.31499903229517"><ele>227.0</ele><time>2026-04-26T14:59:20Z</time></trkpt><trkpt lat="43.5868414196594" lon="11.315027412792178"><ele>227.2</ele><time>2026-04-26T14:59:21Z</time></trkpt><trkpt lat="43.58672499601388" lon="11.315052469762081"><ele>227.39999999999998</ele><time>2026-04-26T14:59:22Z</time></trkpt><trkpt lat="43.58662134514532" lon="11.315068771587029"><ele>227.60000000000002</ele><time>2026-04-26T14:59:23Z</time></trkpt><trkpt lat="43.58652377769226" lon="11.315089662763638"><ele>227.8</ele><time>2026-04-26T14:59:24Z</time></trkpt><trkpt lat="43.58644734247929" lon="11.31509881868658"><ele>228.0</ele><time>2026-04-26T14:59:25Z</time></trkpt><trkpt lat="43.58637386518035" lon="11.31511366478916"><ele>228.0</ele><time>2026-04-26T14:59:26Z</time></trkpt><trkpt lat="43.58628932138138" lon="11.315136403193021"><ele>228.0</ele><time>2026-04-26T14:59:27Z</time></trkpt><trkpt lat="43.58620191366927" lon="11.315139079949901"><ele>228.0</ele><time>2026-04-26T14:59:28Z</time></trkpt><trkpt lat="43.58610838345494" lon="11.315156968808894"><ele>228.0</ele><time>2026-04-26T14:59:29Z</time></trkpt><trkpt lat="43.58601149962576" lon="11.315175490712022"><ele>228.0</ele><time>2026-04-26T14:59:30Z</time></trkpt><trkpt lat="43.585915378022314" lon="11.31519465389493"><ele>228.0</ele><time>2026-04-26T14:59:31Z</time></trkpt><trkpt lat="43.5858021985729" lon="11.315126015379468"><ele>228.0</ele><time>2026-04-26T14:59:32Z</time></trkpt><trkpt lat="43.58571315459133" lon="11.31523269425754"><ele>228.0</ele><time>2026-04-26T14:59:33Z</time></trkpt><trkpt lat="43.58561435514011" lon="11.315251517847456"><ele>228.0</ele><time>2026-04-26T14:59:34Z</time></trkpt><trkpt lat="43.58550807654349" lon="11.31527176636882"><ele>228.0</ele><time>2026-04-26T14:59:35Z</time></trkpt><trkpt lat="43.585400733438384" lon="11.315292217699396"><ele>228.5</ele><time>2026-04-26T14:59:36Z</time></trkpt><trkpt lat="43.58528286439355" lon="11.315314674481002"><ele>229.0</ele><time>2026-04-26T14:59:37Z</time></trkpt><trkpt lat="43.585177155191744" lon="11.315343845176477"><ele>229.5</ele><time>2026-04-26T14:59:38Z</time></trkpt><trkpt lat="43.58506219759294" lon="11.31537083044461"><ele>230.0</ele><time>2026-04-26T14:59:39Z</time></trkpt><trkpt lat="43.584953823256704" lon="11.315394552646513"><ele>230.0</ele><time>2026-04-26T14:59:40Z</time></trkpt><trkpt lat="43.584843914120306" lon="11.31541160646428"><ele>230.0</ele><time>2026-04-26T14:59:41Z</time></trkpt><trkpt lat="43.58474462945419" lon="11.315449349514068"><ele>230.0</ele><time>2026-04-26T14:59:42Z</time></trkpt><trkpt lat="43.58464477456276" lon="11.315495631703204"><ele>230.0</ele><time>2026-04-26T14:59:43Z</time></trkpt><trkpt lat="43.58454258955997" lon="11.315534152840323"><ele>230.0</ele><time>2026-04-26T14:59:44Z</time></trkpt><trkpt lat="43.58444240808403" lon="11.315569902778787"><ele>230.2</ele><time>2026-04-26T14:59:45Z</time></trkpt><trkpt lat="43.584347122087856" lon="11.315615311137611"><ele>230.4</ele><time>2026-04-26T14:59:46Z</time></trkpt><trkpt lat="43.584253077157925" lon="11.315666670103257"><ele>230.60000000000002</ele><time>2026-04-26T14:59:47Z</time></trkpt><trkpt lat="43.58417044933583" lon="11.315727046268467"><ele>230.8</ele><time>2026-04-26T14:59:48Z</time></trkpt><trkpt lat="43.584094917303915" lon="11.315806004077293"><ele>231.0</ele><time>2026-04-26T14:59:49Z</time></trkpt><trkpt lat="43.584035020199046" lon="11.315909118089982"><ele>231.0</ele><time>2026-04-26T14:59:50Z</time></trkpt><trkpt lat="43.583992217265255" lon="11.316014893990626"><ele>231.0</ele><time>2026-04-26T14:59:51Z</time></trkpt><trkpt lat="43.58395428851891" lon="11.316121250785296"><ele>231.0</ele><time>2026-04-26T14:59:52Z</time></trkpt><trkpt lat="43.583916236086004" lon="11.316236959952633"><ele>231.0</ele><time>2026-04-26T14:59:53Z</time></trkpt><trkpt lat="43.58386086488841" lon="11.316329025795733"><ele>231.0</ele><time>2026-04-26T14:59:55Z</time></trkpt><trkpt lat="43.583831777000086" lon="11.31640692192819"><ele>231.0</ele><time>2026-04-26T14:59:56Z</time></trkpt><trkpt lat="43.583789914644605" lon="11.316513705671827"><ele>230.83333333333334</ele><time>2026-04-26T14:59:58Z</time></trkpt><trkpt lat="43.583755462520976" lon="11.31659932190373"><ele>230.66666666666669</ele><time>2026-04-26T15:00:00Z</time></trkpt><trkpt lat="43.583714544494796" lon="11.316697232443818"><ele>230.5</ele><time>2026-04-26T15:00:04Z</time></trkpt><trkpt lat="43.58368001398301" lon="11.316779533145773"><ele>230.33333333333334</ele><time>2026-04-26T15:00:07Z</time></trkpt><trkpt lat="43.58364486042761" lon="11.31685294356016"><ele>230.16666666666669</ele><time>2026-04-26T15:00:09Z</time></trkpt><trkpt lat="43.58360529208221" lon="11.316956157353117"><ele>230.0</ele><time>2026-04-26T15:00:11Z</time></trkpt><trkpt lat="43.58355857435981" lon="11.317050309256338"><ele>230.8</ele><time>2026-04-26T15:00:13Z</time></trkpt><trkpt lat="43.58350578922814" lon="11.317131514059055"><ele>231.6</ele><time>2026-04-26T15:00:15Z</time></trkpt><trkpt lat="43.58345017020577" lon="11.317230121897417"><ele>232.39999999999998</ele><time>2026-04-26T15:00:17Z</time></trkpt><trkpt lat="43.58337612519293" lon="11.317335243971165"><ele>233.2</ele><time>2026-04-26T15:00:19Z</time></trkpt><trkpt lat="43.58331356470789" lon="11.31743900792049"><ele>234.0</ele><time>2026-04-26T15:00:21Z</time></trkpt><trkpt lat="43.583233077992304" lon="11.31747614639504"><ele>234.0</ele><time>2026-04-26T15:00:23Z</time></trkpt><trkpt lat="43.583177583485984" lon="11.317525628447841"><ele>234.0</ele><time>2026-04-26T15:00:25Z</time></trkpt><trkpt lat="43.58311312192309" lon="11.317580217428521"><ele>234.0</ele><time>2026-04-26T15:00:27Z</time></trkpt><trkpt lat="43.58304025920163" lon="11.31763410274556"><ele>234.0</ele><time>2026-04-26T15:00:29Z</time></trkpt><trkpt lat="43.58297782306729" lon="11.317693991277421"><ele>234.0</ele><time>2026-04-26T15:00:32.001Z</time></trkpt><trkpt lat="43.58290050041771" lon="11.317712644908323"><ele>234.0</ele><time>2026-04-26T15:00:36.001Z</time></trkpt><trkpt lat="43.58280147671221" lon="11.317743750493253"><ele>234.39999999999998</ele><time>2026-04-26T15:00:38.001Z</time></trkpt><trkpt lat="43.58267749335107" lon="11.317790652569709"><ele>234.79999999999998</ele><time>2026-04-26T15:00:40.001Z</time></trkpt><trkpt lat="43.58260489169632" lon="11.317818465326418"><ele>235.20000000000002</ele><time>2026-04-26T15:00:41.001Z</time></trkpt><trkpt lat="43.582495020729425" lon="11.31786118358472"><ele>235.60000000000002</ele><time>2026-04-26T15:00:43.001Z</time></trkpt><trkpt lat="43.58243106898176" lon="11.317886128602165"><ele>236.0</ele><time>2026-04-26T15:00:44.001Z</time></trkpt><trkpt lat="43.58235924584551" lon="11.31791377172049"><ele>236.00000000000003</ele><time>2026-04-26T15:00:45.001Z</time></trkpt><trkpt lat="43.582289421356094" lon="11.317940033383392"><ele>236.0</ele><time>2026-04-26T15:00:46.001Z</time></trkpt><trkpt lat="43.582220811846604" lon="11.317965096083805"><ele>236.0</ele><time>2026-04-26T15:00:47.001Z</time></trkpt><trkpt lat="43.58214746577241" lon="11.31798253171626"><ele>236.0</ele><time>2026-04-26T15:00:48.001Z</time></trkpt><trkpt lat="43.582068857576125" lon="11.317984794945636"><ele>236.00000000000003</ele><time>2026-04-26T15:00:49.001Z</time></trkpt><trkpt lat="43.58198951834922" lon="11.317965783579782"><ele>236.0</ele><time>2026-04-26T15:00:50.001Z</time></trkpt><trkpt lat="43.58190581549794" lon="11.317942733238747"><ele>236.50000000000003</ele><time>2026-04-26T15:00:51.001Z</time></trkpt><trkpt lat="43.58181975238266" lon="11.317919187280793"><ele>237.0</ele><time>2026-04-26T15:00:52.001Z</time></trkpt><trkpt lat="43.58174041024687" lon="11.317896021600728"><ele>237.5</ele><time>2026-04-26T15:00:53.001Z</time></trkpt><trkpt lat="43.58166557456548" lon="11.317892388262102"><ele>238.0</ele><time>2026-04-26T15:00:54.001Z</time></trkpt><trkpt lat="43.58159863780634" lon="11.317884771037383"><ele>238.50000000000003</ele><time>2026-04-26T15:00:55.001Z</time></trkpt><trkpt lat="43.581525321364005" lon="11.317879004653413"><ele>239.0</ele><time>2026-04-26T15:00:56.001Z</time></trkpt><trkpt lat="43.58144084742756" lon="11.31788444203573"><ele>239.00000000000003</ele><time>2026-04-26T15:00:57.001Z</time></trkpt><trkpt lat="43.58134993580852" lon="11.31789058658166"><ele>239.0</ele><time>2026-04-26T15:00:58.001Z</time></trkpt><trkpt lat="43.58126386981008" lon="11.317897834555948"><ele>239.0</ele><time>2026-04-26T15:00:59.001Z</time></trkpt><trkpt lat="43.58118282927045" lon="11.317906801619973"><ele>239.0</ele><time>2026-04-26T15:01:00.001Z</time></trkpt><trkpt lat="43.58109724539607" lon="11.317912742428035"><ele>239.00000000000003</ele><time>2026-04-26T15:01:01.001Z</time></trkpt><trkpt lat="43.58102387426692" lon="11.317917776219126"><ele>239.0</ele><time>2026-04-26T15:01:02.001Z</time></trkpt><trkpt lat="43.58094337820726" lon="11.317888782072883"><ele>238.6</ele><time>2026-04-26T15:01:03.001Z</time></trkpt><trkpt lat="43.58087904090027" lon="11.317803866465983"><ele>238.2</ele><time>2026-04-26T15:01:04.001Z</time></trkpt><trkpt lat="43.58080065728786" lon="11.317749792280134"><ele>237.79999999999998</ele><time>2026-04-26T15:01:05.001Z</time></trkpt><trkpt lat="43.580720094851415" lon="11.317677662967766"><ele>237.39999999999998</ele><time>2026-04-26T15:01:06.001Z</time></trkpt><trkpt lat="43.580638519332524" lon="11.31761803476415"><ele>237.0</ele><time>2026-04-26T15:01:07.001Z</time></trkpt><trkpt lat="43.5805569711795" lon="11.317558204330547"><ele>237.0</ele><time>2026-04-26T15:01:08.001Z</time></trkpt><trkpt lat="43.58047233539196" lon="11.317499435772099"><ele>237.0</ele><time>2026-04-26T15:01:09Z</time></trkpt><trkpt lat="43.580393564617246" lon="11.317439410845386"><ele>237.0</ele><time>2026-04-26T15:01:10Z</time></trkpt><trkpt lat="43.58032992279447" lon="11.317350296278196"><ele>237.0</ele><time>2026-04-26T15:01:11Z</time></trkpt><trkpt lat="43.58027240908503" lon="11.317283752272736"><ele>237.0</ele><time>2026-04-26T15:01:12Z</time></trkpt><trkpt lat="43.58021990984594" lon="11.317211740220767"><ele>237.0</ele><time>2026-04-26T15:01:13Z</time></trkpt><trkpt lat="43.58017155031728" lon="11.317152573315399"><ele>238.2</ele><time>2026-04-26T15:01:14Z</time></trkpt><trkpt lat="43.580081496553035" lon="11.317061209000654"><ele>239.39999999999998</ele><time>2026-04-26T15:01:16Z</time></trkpt><trkpt lat="43.58001603816666" lon="11.317041601252567"><ele>240.60000000000002</ele><time>2026-04-26T15:01:17Z</time></trkpt><trkpt lat="43.57991936828577" lon="11.31698064059999"><ele>241.8</ele><time>2026-04-26T15:01:19Z</time></trkpt><trkpt lat="43.579799892444484" lon="11.316939118772183"><ele>243.0</ele><time>2026-04-26T15:01:21Z</time></trkpt><trkpt lat="43.57969143424449" lon="11.316903044373143"><ele>243.0</ele><time>2026-04-26T15:01:22Z</time></trkpt><trkpt lat="43.579561814395305" lon="11.31685993156819"><ele>243.0</ele><time>2026-04-26T15:01:23Z</time></trkpt><trkpt lat="43.57942126948026" lon="11.316810587401642"><ele>243.0</ele><time>2026-04-26T15:01:24Z</time></trkpt><trkpt lat="43.57928265907479" lon="11.316771775285552"><ele>243.0</ele><time>2026-04-26T15:01:25Z</time></trkpt><trkpt lat="43.579117686660226" lon="11.316697775051765"><ele>242.0</ele><time>2026-04-26T15:01:26Z</time></trkpt><trkpt lat="43.57894848079217" lon="11.316638703623711"><ele>241.0</ele><time>2026-04-26T15:01:27Z</time></trkpt><trkpt lat="43.57878412636403" lon="11.316571811053652"><ele>240.0</ele><time>2026-04-26T15:01:28Z</time></trkpt><trkpt lat="43.5786253254258" lon="11.316527626434691"><ele>240.0</ele><time>2026-04-26T15:01:29Z</time></trkpt><trkpt lat="43.57847012239489" lon="11.31651552441766"><ele>240.0</ele><time>2026-04-26T15:01:30Z</time></trkpt><trkpt lat="43.57831162625274" lon="11.316526645907963"><ele>240.0</ele><time>2026-04-26T15:01:31Z</time></trkpt><trkpt lat="43.57816159755114" lon="11.316569754940963"><ele>240.0</ele><time>2026-04-26T15:01:32Z</time></trkpt><trkpt lat="43.578009512410574" lon="11.316625249812416"><ele>240.0</ele><time>2026-04-26T15:01:33Z</time></trkpt><trkpt lat="43.57785814650917" lon="11.316679567530313"><ele>240.0</ele><time>2026-04-26T15:01:34Z</time></trkpt><trkpt lat="43.57771548203193" lon="11.316740950515964"><ele>241.33333333333331</ele><time>2026-04-26T15:01:35Z</time></trkpt><trkpt lat="43.57756510055322" lon="11.316794786258047"><ele>242.66666666666666</ele><time>2026-04-26T15:01:36Z</time></trkpt><trkpt lat="43.57741839619354" lon="11.316845522553505"><ele>244.0</ele><time>2026-04-26T15:01:37Z</time></trkpt><trkpt lat="43.577276164752135" lon="11.316896529498065"><ele>244.0</ele><time>2026-04-26T15:01:38Z</time></trkpt><trkpt lat="43.57713307309628" lon="11.316951174770633"><ele>244.0</ele><time>2026-04-26T15:01:39Z</time></trkpt><trkpt lat="43.576998694148344" lon="11.317014552111493"><ele>244.0</ele><time>2026-04-26T15:01:40Z</time></trkpt><trkpt lat="43.57686418693168" lon="11.317085148588097"><ele>244.0</ele><time>2026-04-26T15:01:41Z</time></trkpt><trkpt lat="43.576734855642094" lon="11.31715481663309"><ele>243.0</ele><time>2026-04-26T15:01:42Z</time></trkpt><trkpt lat="43.57661718722028" lon="11.317208812528474"><ele>242.0</ele><time>2026-04-26T15:01:43Z</time></trkpt><trkpt lat="43.576476223943885" lon="11.317292351144875"><ele>241.0</ele><time>2026-04-26T15:01:44Z</time></trkpt><trkpt lat="43.57634816711692" lon="11.31735917626912"><ele>240.0</ele><time>2026-04-26T15:01:45Z</time></trkpt><trkpt lat="43.57621959271388" lon="11.317423796897982"><ele>241.0</ele><time>2026-04-26T15:01:46Z</time></trkpt><trkpt lat="43.576089020976205" lon="11.317478499918202"><ele>242.0</ele><time>2026-04-26T15:01:47Z</time></trkpt><trkpt lat="43.57596060464105" lon="11.317550396199687"><ele>243.0</ele><time>2026-04-26T15:01:48Z</time></trkpt><trkpt lat="43.57584438284378" lon="11.317614494182642"><ele>244.0</ele><time>2026-04-26T15:01:49Z</time></trkpt><trkpt lat="43.57574028674254" lon="11.317675489792965"><ele>244.0</ele><time>2026-04-26T15:01:50Z</time></trkpt><trkpt lat="43.57561713284074" lon="11.317728814173345"><ele>244.0</ele><time>2026-04-26T15:01:51Z</time></trkpt><trkpt lat="43.57550509445757" lon="11.317792288332459"><ele>244.0</ele><time>2026-04-26T15:01:52Z</time></trkpt><trkpt lat="43.57538334087303" lon="11.317853739803155"><ele>244.0</ele><time>2026-04-26T15:01:53Z</time></trkpt><trkpt lat="43.57526810498047" lon="11.317916976845227"><ele>243.75</ele><time>2026-04-26T15:01:54Z</time></trkpt><trkpt lat="43.57513634248537" lon="11.317978719381118"><ele>243.5</ele><time>2026-04-26T15:01:55Z</time></trkpt><trkpt lat="43.57501050269261" lon="11.318034885696568"><ele>243.25</ele><time>2026-04-26T15:01:56Z</time></trkpt><trkpt lat="43.57488526479415" lon="11.318092953160772"><ele>243.0</ele><time>2026-04-26T15:01:57Z</time></trkpt><trkpt lat="43.57475753007461" lon="11.31816179546722"><ele>243.0</ele><time>2026-04-26T15:01:58Z</time></trkpt><trkpt lat="43.574623639607054" lon="11.318234094142204"><ele>243.0</ele><time>2026-04-26T15:01:59Z</time></trkpt><trkpt lat="43.5744812461563" lon="11.318303847323918"><ele>243.0</ele><time>2026-04-26T15:02:00Z</time></trkpt><trkpt lat="43.57435180049984" lon="11.318367609932807"><ele>243.0</ele><time>2026-04-26T15:02:01Z</time></trkpt><trkpt lat="43.5742299391929" lon="11.31842099463048"><ele>246.75</ele><time>2026-04-26T15:02:02Z</time></trkpt><trkpt lat="43.57410370046646" lon="11.318486921902764"><ele>250.5</ele><time>2026-04-26T15:02:03Z</time></trkpt><trkpt lat="43.573972786659034" lon="11.31856032607524"><ele>254.25</ele><time>2026-04-26T15:02:04Z</time></trkpt><trkpt lat="43.573837796887716" lon="11.318636386726856"><ele>258.0</ele><time>2026-04-26T15:02:05Z</time></trkpt><trkpt lat="43.573715268780816" lon="11.318678104927374"><ele>255.75</ele><time>2026-04-26T15:02:06Z</time></trkpt><trkpt lat="43.57359160859004" lon="11.318741056364845"><ele>253.5</ele><time>2026-04-26T15:02:07Z</time></trkpt><trkpt lat="43.57346398318073" lon="11.318804992601228"><ele>251.25</ele><time>2026-04-26T15:02:08Z</time></trkpt><trkpt lat="43.57334162032992" lon="11.318864618865755"><ele>249.0</ele><time>2026-04-26T15:02:09Z</time></trkpt><trkpt lat="43.573224347612445" lon="11.318962506673167"><ele>249.0</ele><time>2026-04-26T15:02:10Z</time></trkpt><trkpt lat="43.57308768046646" lon="11.319037324690061"><ele>249.0</ele><time>2026-04-26T15:02:11Z</time></trkpt><trkpt lat="43.572955021336846" lon="11.319113989259815"><ele>249.0</ele><time>2026-04-26T15:02:12Z</time></trkpt><trkpt lat="43.57284005800678" lon="11.319150108877201"><ele>249.0</ele><time>2026-04-26T15:02:13Z</time></trkpt><trkpt lat="43.57272441729599" lon="11.319223108812972"><ele>251.25</ele><time>2026-04-26T15:02:14Z</time></trkpt><trkpt lat="43.572613163617426" lon="11.319284309615583"><ele>253.5</ele><time>2026-04-26T15:02:15Z</time></trkpt><trkpt lat="43.5725005614161" lon="11.319353128467174"><ele>255.75</ele><time>2026-04-26T15:02:16Z</time></trkpt><trkpt lat="43.5723859033952" lon="11.319402928128312"><ele>258.0</ele><time>2026-04-26T15:02:17Z</time></trkpt><trkpt lat="43.57226815172481" lon="11.319460929840469"><ele>258.0</ele><time>2026-04-26T15:02:18Z</time></trkpt><trkpt lat="43.57213748011793" lon="11.319468179705227"><ele>258.0</ele><time>2026-04-26T15:02:19Z</time></trkpt><trkpt lat="43.57202053960712" lon="11.319527961270314"><ele>258.0</ele><time>2026-04-26T15:02:20Z</time></trkpt><trkpt lat="43.571904067033046" lon="11.319587503623865"><ele>258.0</ele><time>2026-04-26T15:02:21Z</time></trkpt><trkpt lat="43.57178476051277" lon="11.319647190759161"><ele>256.0</ele><time>2026-04-26T15:02:22Z</time></trkpt><trkpt lat="43.57166904632611" lon="11.319704450334338"><ele>254.0</ele><time>2026-04-26T15:02:23Z</time></trkpt><trkpt lat="43.57155334041933" lon="11.31976170581526"><ele>252.0</ele><time>2026-04-26T15:02:24Z</time></trkpt><trkpt lat="43.5714346761387" lon="11.319820425204174"><ele>250.0</ele><time>2026-04-26T15:02:25Z</time></trkpt><trkpt lat="43.57132014839495" lon="11.319877097693274"><ele>250.0</ele><time>2026-04-26T15:02:26Z</time></trkpt><trkpt lat="43.571209058900266" lon="11.319932068794293"><ele>250.0</ele><time>2026-04-26T15:02:27Z</time></trkpt><trkpt lat="43.57109586599827" lon="11.31998808075244"><ele>250.0</ele><time>2026-04-26T15:02:28Z</time></trkpt><trkpt lat="43.570981815290224" lon="11.320044329281291"><ele>250.0</ele><time>2026-04-26T15:02:29Z</time></trkpt><trkpt lat="43.5708747837167" lon="11.320097065548786"><ele>252.25</ele><time>2026-04-26T15:02:30Z</time></trkpt><trkpt lat="43.57076076992187" lon="11.320153242066304"><ele>254.5</ele><time>2026-04-26T15:02:31Z</time></trkpt><trkpt lat="43.57064981635152" lon="11.320204114513514"><ele>256.75</ele><time>2026-04-26T15:02:32Z</time></trkpt><trkpt lat="43.570534777889954" lon="11.320253060080892"><ele>259.0</ele><time>2026-04-26T15:02:33Z</time></trkpt><trkpt lat="43.57042416181786" lon="11.320295768225524"><ele>259.59999999999997</ele><time>2026-04-26T15:02:34Z</time></trkpt><trkpt lat="43.570307976952925" lon="11.320329973556515"><ele>260.2</ele><time>2026-04-26T15:02:35Z</time></trkpt><trkpt lat="43.57019900223498" lon="11.320358853767543"><ele>260.79999999999995</ele><time>2026-04-26T15:02:36Z</time></trkpt><trkpt lat="43.57010743486581" lon="11.320385221125628"><ele>261.4</ele><time>2026-04-26T15:02:37Z</time></trkpt><trkpt lat="43.570005921096005" lon="11.320415197293288"><ele>262.0</ele><time>2026-04-26T15:02:38Z</time></trkpt><trkpt lat="43.56990566017882" lon="11.320449696126142"><ele>262.0</ele><time>2026-04-26T15:02:39.001Z</time></trkpt><trkpt lat="43.56979839253329" lon="11.320462357865628"><ele>262.0</ele><time>2026-04-26T15:02:40.001Z</time></trkpt><trkpt lat="43.56970153339651" lon="11.320500051825837"><ele>262.0</ele><time>2026-04-26T15:02:41.001Z</time></trkpt><trkpt lat="43.56960567684046" lon="11.320535001639424"><ele>262.0</ele><time>2026-04-26T15:02:42.001Z</time></trkpt><trkpt lat="43.56951184137522" lon="11.320567646623307"><ele>262.0</ele><time>2026-04-26T15:02:43.001Z</time></trkpt><trkpt lat="43.56942265792034" lon="11.320596742448432"><ele>262.8333333333333</ele><time>2026-04-26T15:02:44.001Z</time></trkpt><trkpt lat="43.56934578805576" lon="11.320644223275373"><ele>263.66666666666663</ele><time>2026-04-26T15:02:45.001Z</time></trkpt><trkpt lat="43.56929037816728" lon="11.32071046351807"><ele>264.5</ele><time>2026-04-26T15:02:46.001Z</time></trkpt><trkpt lat="43.56925150257731" lon="11.320783646873815"><ele>265.3333333333333</ele><time>2026-04-26T15:02:47.001Z</time></trkpt><trkpt lat="43.56923072040029" lon="11.320868768502875"><ele>266.1666666666667</ele><time>2026-04-26T15:02:48.001Z</time></trkpt><trkpt lat="43.56922510173331" lon="11.321026499452044"><ele>267.0</ele><time>2026-04-26T15:02:50.001Z</time></trkpt><trkpt lat="43.56920316875277" lon="11.321197210470533"><ele>267.0</ele><time>2026-04-26T15:02:52.001Z</time></trkpt><trkpt lat="43.56918650671563" lon="11.321288610716076"><ele>267.0</ele><time>2026-04-26T15:02:53.001Z</time></trkpt><trkpt lat="43.569153611904895" lon="11.321401502793352"><ele>267.0</ele><time>2026-04-26T15:02:54.001Z</time></trkpt><trkpt lat="43.56912801045863" lon="11.32152432053384"><ele>267.0</ele><time>2026-04-26T15:02:55.001Z</time></trkpt><trkpt lat="43.569106352079686" lon="11.32165830639918"><ele>267.0</ele><time>2026-04-26T15:02:56.001Z</time></trkpt><trkpt lat="43.569062891475845" lon="11.321789940992995"><ele>266.2</ele><time>2026-04-26T15:02:57.001Z</time></trkpt><trkpt lat="43.56900937801662" lon="11.32193082283997"><ele>265.4</ele><time>2026-04-26T15:02:58.001Z</time></trkpt><trkpt lat="43.568944944565246" lon="11.322043505138279"><ele>264.6</ele><time>2026-04-26T15:02:59.001Z</time></trkpt><trkpt lat="43.56888400317093" lon="11.322141301319494"><ele>263.8</ele><time>2026-04-26T15:03:00.001Z</time></trkpt><trkpt lat="43.56882317763207" lon="11.322239988438424"><ele>263.0</ele><time>2026-04-26T15:03:01.001Z</time></trkpt><trkpt lat="43.56876011482021" lon="11.322332014930286"><ele>261.4</ele><time>2026-04-26T15:03:02.001Z</time></trkpt><trkpt lat="43.568696279808236" lon="11.322401554451167"><ele>259.8</ele><time>2026-04-26T15:03:03.001Z</time></trkpt><trkpt lat="43.56862904218561" lon="11.322476387373234"><ele>258.2</ele><time>2026-04-26T15:03:04.001Z</time></trkpt><trkpt lat="43.568558270444484" lon="11.322544751345458"><ele>256.6</ele><time>2026-04-26T15:03:05.001Z</time></trkpt><trkpt lat="43.568457761214894" lon="11.322567054356426"><ele>255.0</ele><time>2026-04-26T15:03:06.001Z</time></trkpt><trkpt lat="43.56835689435611" lon="11.322579522159804"><ele>259.8</ele><time>2026-04-26T15:03:07.001Z</time></trkpt><trkpt lat="43.56826333151126" lon="11.322591256889522"><ele>264.6</ele><time>2026-04-26T15:03:08.001Z</time></trkpt><trkpt lat="43.568169079612744" lon="11.322612751111127"><ele>269.4</ele><time>2026-04-26T15:03:09.001Z</time></trkpt><trkpt lat="43.56806875758028" lon="11.32263753428199"><ele>274.2</ele><time>2026-04-26T15:03:10.001Z</time></trkpt><trkpt lat="43.5679555720994" lon="11.322664039133151"><ele>279.0</ele><time>2026-04-26T15:03:11.001Z</time></trkpt><trkpt lat="43.567847771802114" lon="11.322677561997741"><ele>280.4</ele><time>2026-04-26T15:03:12.001Z</time></trkpt><trkpt lat="43.56773503552291" lon="11.32270340444984"><ele>281.79999999999995</ele><time>2026-04-26T15:03:13.001Z</time></trkpt><trkpt lat="43.567628806035636" lon="11.32271726000335"><ele>283.20000000000005</ele><time>2026-04-26T15:03:14.001Z</time></trkpt><trkpt lat="43.56751519706645" lon="11.322739337355076"><ele>284.6</ele><time>2026-04-26T15:03:15Z</time></trkpt><trkpt lat="43.56740652665093" lon="11.322740728958664"><ele>286.0</ele><time>2026-04-26T15:03:16Z</time></trkpt><trkpt lat="43.56729562818044" lon="11.322721670905903"><ele>286.0</ele><time>2026-04-26T15:03:17Z</time></trkpt><trkpt lat="43.567192541317844" lon="11.322673885865912"><ele>286.0</ele><time>2026-04-26T15:03:18Z</time></trkpt><trkpt lat="43.56708911258886" lon="11.32260532763014"><ele>286.0</ele><time>2026-04-26T15:03:19Z</time></trkpt><trkpt lat="43.56699967060192" lon="11.322529019283843"><ele>286.0</ele><time>2026-04-26T15:03:20Z</time></trkpt><trkpt lat="43.56689718588413" lon="11.322460617064472"><ele>286.0</ele><time>2026-04-26T15:03:21Z</time></trkpt><trkpt lat="43.56679804468803" lon="11.322387783834419"><ele>285.2</ele><time>2026-04-26T15:03:22Z</time></trkpt><trkpt lat="43.56668824820706" lon="11.32235238201191"><ele>284.40000000000003</ele><time>2026-04-26T15:03:23Z</time></trkpt><trkpt lat="43.56657476097515" lon="11.322338959356411"><ele>283.6</ele><time>2026-04-26T15:03:24Z</time></trkpt><trkpt lat="43.56646940116657" lon="11.322325988205273"><ele>282.8</ele><time>2026-04-26T15:03:25Z</time></trkpt><trkpt lat="43.566360091727084" lon="11.322317778226365"><ele>282.0</ele><time>2026-04-26T15:03:26Z</time></trkpt><trkpt lat="43.56624477974506" lon="11.322316556580477"><ele>282.6</ele><time>2026-04-26T15:03:27Z</time></trkpt><trkpt lat="43.56613338757937" lon="11.322332343462065"><ele>283.2</ele><time>2026-04-26T15:03:28Z</time></trkpt><trkpt lat="43.56602619052096" lon="11.322363481494493"><ele>283.8</ele><time>2026-04-26T15:03:29Z</time></trkpt><trkpt lat="43.56592315365809" lon="11.322402058127421"><ele>284.4</ele><time>2026-04-26T15:03:30Z</time></trkpt><trkpt lat="43.565810536612354" lon="11.322446533703182"><ele>285.0</ele><time>2026-04-26T15:03:31Z</time></trkpt><trkpt lat="43.565702553776404" lon="11.322483861900976"><ele>285.0</ele><time>2026-04-26T15:03:32Z</time></trkpt><trkpt lat="43.56559198853941" lon="11.322505883140854"><ele>285.0</ele><time>2026-04-26T15:03:33Z</time></trkpt><trkpt lat="43.565480617495915" lon="11.322523229441671"><ele>285.0</ele><time>2026-04-26T15:03:34Z</time></trkpt><trkpt lat="43.565378649241275" lon="11.322531255642966"><ele>285.0</ele><time>2026-04-26T15:03:35Z</time></trkpt><trkpt lat="43.565266320834745" lon="11.322556528297248"><ele>285.0</ele><time>2026-04-26T15:03:36Z</time></trkpt><trkpt lat="43.5651556523208" lon="11.322576761246605"><ele>287.5</ele><time>2026-04-26T15:03:37Z</time></trkpt><trkpt lat="43.56505379364492" lon="11.32262255341748"><ele>290.0</ele><time>2026-04-26T15:03:38Z</time></trkpt><trkpt lat="43.56494388758605" lon="11.322680079801664"><ele>292.5</ele><time>2026-04-26T15:03:39Z</time></trkpt><trkpt lat="43.56483605746184" lon="11.32275160915057"><ele>295.0</ele><time>2026-04-26T15:03:40Z</time></trkpt><trkpt lat="43.564749465844535" lon="11.322848359503023"><ele>295.0</ele><time>2026-04-26T15:03:41Z</time></trkpt><trkpt lat="43.564651757662055" lon="11.3229423227545"><ele>295.0</ele><time>2026-04-26T15:03:42Z</time></trkpt><trkpt lat="43.56455215379556" lon="11.323013523284223"><ele>295.0</ele><time>2026-04-26T15:03:43Z</time></trkpt><trkpt lat="43.56444126265565" lon="11.323066149916958"><ele>295.0</ele><time>2026-04-26T15:03:44Z</time></trkpt><trkpt lat="43.56432944772968" lon="11.323114607958"><ele>295.25</ele><time>2026-04-26T15:03:45Z</time></trkpt><trkpt lat="43.564212805254115" lon="11.323129214020682"><ele>295.5</ele><time>2026-04-26T15:03:46Z</time></trkpt><trkpt lat="43.564097457466936" lon="11.323137319834828"><ele>295.75</ele><time>2026-04-26T15:03:47Z</time></trkpt><trkpt lat="43.56398429884922" lon="11.323127960631203"><ele>296.0</ele><time>2026-04-26T15:03:48Z</time></trkpt><trkpt lat="43.563871973836804" lon="11.323150747538357"><ele>296.0</ele><time>2026-04-26T15:03:49Z</time></trkpt><trkpt lat="43.56375562903404" lon="11.323192306503865"><ele>296.0</ele><time>2026-04-26T15:03:50Z</time></trkpt><trkpt lat="43.56365521623148" lon="11.323271854653605"><ele>296.0</ele><time>2026-04-26T15:03:51Z</time></trkpt><trkpt lat="43.56355099549663" lon="11.323344482609134"><ele>296.0</ele><time>2026-04-26T15:03:52Z</time></trkpt><trkpt lat="43.563443685736914" lon="11.32340267629806"><ele>298.75</ele><time>2026-04-26T15:03:53Z</time></trkpt><trkpt lat="43.56334137740333" lon="11.323493639521182"><ele>301.5</ele><time>2026-04-26T15:03:54Z</time></trkpt><trkpt lat="43.563223837305046" lon="11.323563601207457"><ele>304.25</ele><time>2026-04-26T15:03:55Z</time></trkpt><trkpt lat="43.5631173070373" lon="11.323646789573829"><ele>307.0</ele><time>2026-04-26T15:03:56Z</time></trkpt><trkpt lat="43.56299589231005" lon="11.323708230067817"><ele>307.0</ele><time>2026-04-26T15:03:57Z</time></trkpt><trkpt lat="43.5628782352868" lon="11.323768590876663"><ele>307.0</ele><time>2026-04-26T15:03:58Z</time></trkpt><trkpt lat="43.56275275667932" lon="11.323811237025378"><ele>307.0</ele><time>2026-04-26T15:03:59Z</time></trkpt><trkpt lat="43.56263168743464" lon="11.323821889859882"><ele>307.0</ele><time>2026-04-26T15:04:00Z</time></trkpt><trkpt lat="43.562508823966574" lon="11.323835502551148"><ele>306.0</ele><time>2026-04-26T15:04:01Z</time></trkpt><trkpt lat="43.56238634764508" lon="11.323856106276555"><ele>305.0</ele><time>2026-04-26T15:04:02Z</time></trkpt><trkpt lat="43.562268456860785" lon="11.323920455922856"><ele>304.0</ele><time>2026-04-26T15:04:03Z</time></trkpt><trkpt lat="43.56215408128015" lon="11.324008028266194"><ele>303.0</ele><time>2026-04-26T15:04:04Z</time></trkpt><trkpt lat="43.56204690551718" lon="11.324109897024362"><ele>306.25</ele><time>2026-04-26T15:04:05Z</time></trkpt><trkpt lat="43.56193194577614" lon="11.324194827385693"><ele>309.5</ele><time>2026-04-26T15:04:06Z</time></trkpt><trkpt lat="43.56180179667367" lon="11.324246013218687"><ele>312.75</ele><time>2026-04-26T15:04:07Z</time></trkpt><trkpt lat="43.561672598097836" lon="11.324275792112582"><ele>316.0</ele><time>2026-04-26T15:04:08Z</time></trkpt><trkpt lat="43.561541415012904" lon="11.324307651322943"><ele>316.0</ele><time>2026-04-26T15:04:09Z</time></trkpt><trkpt lat="43.5614148309584" lon="11.324337377686186"><ele>316.0</ele><time>2026-04-26T15:04:10Z</time></trkpt><trkpt lat="43.561283946801765" lon="11.324363889166264"><ele>316.0</ele><time>2026-04-26T15:04:11Z</time></trkpt><trkpt lat="43.561152723302996" lon="11.324379931695153"><ele>316.0</ele><time>2026-04-26T15:04:12Z</time></trkpt><trkpt lat="43.56101804936791" lon="11.324373554550917"><ele>317.5</ele><time>2026-04-26T15:04:13Z</time></trkpt><trkpt lat="43.56088882901327" lon="11.324338430537608"><ele>319.0</ele><time>2026-04-26T15:04:14Z</time></trkpt><trkpt lat="43.5607574725788" lon="11.3242957447294"><ele>320.5</ele><time>2026-04-26T15:04:15Z</time></trkpt><trkpt lat="43.5606254250966" lon="11.324250376465764"><ele>322.0</ele><time>2026-04-26T15:04:16Z</time></trkpt><trkpt lat="43.56049685126447" lon="11.324188163739771"><ele>322.0</ele><time>2026-04-26T15:04:17Z</time></trkpt><trkpt lat="43.56037756983285" lon="11.324106544522543"><ele>322.0</ele><time>2026-04-26T15:04:18Z</time></trkpt><trkpt lat="43.560272048302274" lon="11.32401109282925"><ele>322.0</ele><time>2026-04-26T15:04:19Z</time></trkpt><trkpt lat="43.5601669173395" lon="11.323912167179813"><ele>322.0</ele><time>2026-04-26T15:04:20Z</time></trkpt><trkpt lat="43.56006097201939" lon="11.323797687548465"><ele>323.5</ele><time>2026-04-26T15:04:21Z</time></trkpt><trkpt lat="43.55995398964195" lon="11.323694723380315"><ele>325.0</ele><time>2026-04-26T15:04:22Z</time></trkpt><trkpt lat="43.559848723629024" lon="11.323582879396715"><ele>326.5</ele><time>2026-04-26T15:04:23Z</time></trkpt><trkpt lat="43.559750300612656" lon="11.323470884472599"><ele>328.0</ele><time>2026-04-26T15:04:24Z</time></trkpt><trkpt lat="43.55965082299601" lon="11.323361171335222"><ele>328.0</ele><time>2026-04-26T15:04:25Z</time></trkpt><trkpt lat="43.559561182169936" lon="11.32325153113051"><ele>328.0</ele><time>2026-04-26T15:04:26Z</time></trkpt><trkpt lat="43.559492310534715" lon="11.323127244918142"><ele>328.0</ele><time>2026-04-26T15:04:27Z</time></trkpt><trkpt lat="43.55944167553105" lon="11.32297585171337"><ele>328.0</ele><time>2026-04-26T15:04:28Z</time></trkpt><trkpt lat="43.55940178840734" lon="11.322812807220586"><ele>329.25</ele><time>2026-04-26T15:04:29Z</time></trkpt><trkpt lat="43.55934962244992" lon="11.322668068046081"><ele>330.5</ele><time>2026-04-26T15:04:30Z</time></trkpt><trkpt lat="43.559271223471654" lon="11.322538381885"><ele>331.75</ele><time>2026-04-26T15:04:31Z</time></trkpt><trkpt lat="43.559183933830916" lon="11.322425369767464"><ele>333.0</ele><time>2026-04-26T15:04:32Z</time></trkpt><trkpt lat="43.55907447387878" lon="11.322378221261749"><ele>333.0</ele><time>2026-04-26T15:04:33Z</time></trkpt><trkpt lat="43.55894826373062" lon="11.322366197232231"><ele>333.0</ele><time>2026-04-26T15:04:34Z</time></trkpt><trkpt lat="43.55882300841087" lon="11.322393910258445"><ele>333.0</ele><time>2026-04-26T15:04:35Z</time></trkpt><trkpt lat="43.5586948067147" lon="11.322447314415477"><ele>333.0</ele><time>2026-04-26T15:04:36Z</time></trkpt><trkpt lat="43.55857037752882" lon="11.322502989852364"><ele>334.25</ele><time>2026-04-26T15:04:37Z</time></trkpt><trkpt lat="43.55844171902779" lon="11.322556430373512"><ele>335.5</ele><time>2026-04-26T15:04:38Z</time></trkpt><trkpt lat="43.55830548111598" lon="11.322593111420986"><ele>336.75</ele><time>2026-04-26T15:04:39.001Z</time></trkpt><trkpt lat="43.55816867924026" lon="11.3226316097352"><ele>338.0</ele><time>2026-04-26T15:04:40.001Z</time></trkpt><trkpt lat="43.558029841757936" lon="11.32267394866459"><ele>338.0</ele><time>2026-04-26T15:04:41.001Z</time></trkpt><trkpt lat="43.557893900319726" lon="11.322722600650758"><ele>338.0</ele><time>2026-04-26T15:04:42.001Z</time></trkpt><trkpt lat="43.55775421367919" lon="11.322765950973219"><ele>338.0</ele><time>2026-04-26T15:04:43.001Z</time></trkpt><trkpt lat="43.55761583380243" lon="11.322815588542852"><ele>338.0</ele><time>2026-04-26T15:04:44.001Z</time></trkpt><trkpt lat="43.557481473014654" lon="11.322866010471879"><ele>336.75</ele><time>2026-04-26T15:04:45.001Z</time></trkpt><trkpt lat="43.55736111741676" lon="11.322934926099272"><ele>335.5</ele><time>2026-04-26T15:04:46.001Z</time></trkpt><trkpt lat="43.55724357966412" lon="11.323019143486654"><ele>334.25</ele><time>2026-04-26T15:04:47.001Z</time></trkpt><trkpt lat="43.55714250115006" lon="11.323135006035391"><ele>333.0</ele><time>2026-04-26T15:04:48.001Z</time></trkpt><trkpt lat="43.55704539828977" lon="11.323264556368523"><ele>336.75</ele><time>2026-04-26T15:04:49.001Z</time></trkpt><trkpt lat="43.556945838013334" lon="11.323393113902785"><ele>340.5</ele><time>2026-04-26T15:04:50.001Z</time></trkpt><trkpt lat="43.55683961661596" lon="11.323501469229017"><ele>344.25</ele><time>2026-04-26T15:04:51.001Z</time></trkpt><trkpt lat="43.55671998007264" lon="11.323590276332732"><ele>348.0</ele><time>2026-04-26T15:04:52.001Z</time></trkpt><trkpt lat="43.55660013533743" lon="11.323686947362628"><ele>348.0</ele><time>2026-04-26T15:04:53.001Z</time></trkpt><trkpt lat="43.55648818946002" lon="11.323795170051264"><ele>348.0</ele><time>2026-04-26T15:04:54.001Z</time></trkpt><trkpt lat="43.55637328263219" lon="11.323902033621343"><ele>348.0</ele><time>2026-04-26T15:04:55.001Z</time></trkpt><trkpt lat="43.556257821165254" lon="11.324004412373814"><ele>348.0</ele><time>2026-04-26T15:04:56.001Z</time></trkpt><trkpt lat="43.556137027580924" lon="11.324104076729625"><ele>349.0</ele><time>2026-04-26T15:04:57.001Z</time></trkpt><trkpt lat="43.55601381165656" lon="11.324205552059846"><ele>350.0</ele><time>2026-04-26T15:04:58.001Z</time></trkpt><trkpt lat="43.555896068570235" lon="11.324306259202295"><ele>351.0</ele><time>2026-04-26T15:04:59.001Z</time></trkpt><trkpt lat="43.55578124469744" lon="11.324402283595514"><ele>352.0</ele><time>2026-04-26T15:05:00.001Z</time></trkpt><trkpt lat="43.55567076150322" lon="11.324497234436272"><ele>352.0</ele><time>2026-04-26T15:05:01.001Z</time></trkpt><trkpt lat="43.5555597937409" lon="11.324587241697802"><ele>352.0</ele><time>2026-04-26T15:05:02.001Z</time></trkpt><trkpt lat="43.555441058224666" lon="11.324657274674266"><ele>352.0</ele><time>2026-04-26T15:05:03.001Z</time></trkpt><trkpt lat="43.55532763319801" lon="11.324688111401"><ele>352.0</ele><time>2026-04-26T15:05:04.001Z</time></trkpt><trkpt lat="43.55520981177839" lon="11.32463962944268"><ele>355.25</ele><time>2026-04-26T15:05:05.001Z</time></trkpt><trkpt lat="43.555093432245" lon="11.324587130397406"><ele>358.5</ele><time>2026-04-26T15:05:06.001Z</time></trkpt><trkpt lat="43.55497186800264" lon="11.32453671459504"><ele>361.75</ele><time>2026-04-26T15:05:07.001Z</time></trkpt><trkpt lat="43.554842914284016" lon="11.324492697848806"><ele>365.0</ele><time>2026-04-26T15:05:08.001Z</time></trkpt><trkpt lat="43.55470616040109" lon="11.324464762320053"><ele>365.0</ele><time>2026-04-26T15:05:09.001Z</time></trkpt><trkpt lat="43.55457604148684" lon="11.324503917353347"><ele>365.0</ele><time>2026-04-26T15:05:10.001Z</time></trkpt><trkpt lat="43.5544550296592" lon="11.324587810360098"><ele>365.0</ele><time>2026-04-26T15:05:11.001Z</time></trkpt><trkpt lat="43.55434629920157" lon="11.324699556180477"><ele>365.0</ele><time>2026-04-26T15:05:12.001Z</time></trkpt><trkpt lat="43.554247371618246" lon="11.324848377416588"><ele>365.0</ele><time>2026-04-26T15:05:13.001Z</time></trkpt><trkpt lat="43.55413736738316" lon="11.32496406799273"><ele>365.0</ele><time>2026-04-26T15:05:14.001Z</time></trkpt><trkpt lat="43.55403181153441" lon="11.325091457606177"><ele>365.0</ele><time>2026-04-26T15:05:15.001Z</time></trkpt><trkpt lat="43.553919405985496" lon="11.325206827916604"><ele>365.0</ele><time>2026-04-26T15:05:16.001Z</time></trkpt><trkpt lat="43.55381798514911" lon="11.325299375477009"><ele>365.0</ele><time>2026-04-26T15:05:17.001Z</time></trkpt><trkpt lat="43.55372412773022" lon="11.325361822245872"><ele>365.0</ele><time>2026-04-26T15:05:18.001Z</time></trkpt><trkpt lat="43.55363079660197" lon="11.325397614485642"><ele>365.0</ele><time>2026-04-26T15:05:19.001Z</time></trkpt><trkpt lat="43.55353131581111" lon="11.325403433738844"><ele>365.0</ele><time>2026-04-26T15:05:20.001Z</time></trkpt><trkpt lat="43.55343822250248" lon="11.325341874649702"><ele>365.0</ele><time>2026-04-26T15:05:21Z</time></trkpt><trkpt lat="43.5533717379107" lon="11.325237423515475"><ele>365.5</ele><time>2026-04-26T15:05:22Z</time></trkpt><trkpt lat="43.55334691329745" lon="11.325070321585338"><ele>366.0</ele><time>2026-04-26T15:05:23Z</time></trkpt><trkpt lat="43.553318432540856" lon="11.324881362051293"><ele>366.5</ele><time>2026-04-26T15:05:24Z</time></trkpt><trkpt lat="43.553282234036224" lon="11.324663152074084"><ele>367.0</ele><time>2026-04-26T15:05:25Z</time></trkpt><trkpt lat="43.55322806776114" lon="11.324499690160136"><ele>369.5</ele><time>2026-04-26T15:05:26Z</time></trkpt><trkpt lat="43.55317510583008" lon="11.3243587596923"><ele>372.0</ele><time>2026-04-26T15:05:27Z</time></trkpt><trkpt lat="43.55309773401892" lon="11.32423417901424"><ele>374.5</ele><time>2026-04-26T15:05:28Z</time></trkpt><trkpt lat="43.55299672524439" lon="11.32413713078907"><ele>377.0</ele><time>2026-04-26T15:05:29Z</time></trkpt><trkpt lat="43.552866908953746" lon="11.324100104479584"><ele>377.0</ele><time>2026-04-26T15:05:30Z</time></trkpt><trkpt lat="43.552732968448055" lon="11.324071208735063"><ele>377.0</ele><time>2026-04-26T15:05:31Z</time></trkpt><trkpt lat="43.55254209795506" lon="11.324105620504431"><ele>377.0</ele><time>2026-04-26T15:05:32Z</time></trkpt><trkpt lat="43.55237155757383" lon="11.324134496909041"><ele>377.0</ele><time>2026-04-26T15:05:33Z</time></trkpt><trkpt lat="43.552214765256856" lon="11.324159988710688"><ele>377.0</ele><time>2026-04-26T15:05:34Z</time></trkpt><trkpt lat="43.55205794684038" lon="11.324178254307094"><ele>377.0</ele><time>2026-04-26T15:05:35Z</time></trkpt><trkpt lat="43.55190024252766" lon="11.324186138926882"><ele>377.5</ele><time>2026-04-26T15:05:36Z</time></trkpt><trkpt lat="43.551756375303725" lon="11.324184985406358"><ele>378.0</ele><time>2026-04-26T15:05:37Z</time></trkpt><trkpt lat="43.551613445180124" lon="11.324135607821038"><ele>378.5</ele><time>2026-04-26T15:05:38Z</time></trkpt><trkpt lat="43.55147906397314" lon="11.324075902644184"><ele>379.0</ele><time>2026-04-26T15:05:39Z</time></trkpt><trkpt lat="43.55133866297419" lon="11.324017060843104"><ele>378.0</ele><time>2026-04-26T15:05:40Z</time></trkpt><trkpt lat="43.5512031638878" lon="11.32397224472804"><ele>377.0</ele><time>2026-04-26T15:05:41Z</time></trkpt><trkpt lat="43.551058418860606" lon="11.323918384996938"><ele>376.0</ele><time>2026-04-26T15:05:42Z</time></trkpt><trkpt lat="43.55092558146439" lon="11.323859458342195"><ele>375.0</ele><time>2026-04-26T15:05:43Z</time></trkpt><trkpt lat="43.55078651434923" lon="11.323790004962135"><ele>377.0</ele><time>2026-04-26T15:05:44Z</time></trkpt><trkpt lat="43.550657662521324" lon="11.323711920714686"><ele>379.0</ele><time>2026-04-26T15:05:45Z</time></trkpt><trkpt lat="43.55055425393436" lon="11.323572323045196"><ele>381.0</ele><time>2026-04-26T15:05:46Z</time></trkpt><trkpt lat="43.550447678604726" lon="11.323434881667243"><ele>383.0</ele><time>2026-04-26T15:05:47Z</time></trkpt><trkpt lat="43.550337039496085" lon="11.32331215563437"><ele>383.0</ele><time>2026-04-26T15:05:48Z</time></trkpt><trkpt lat="43.55022974357076" lon="11.323169764868016"><ele>383.0</ele><time>2026-04-26T15:05:49Z</time></trkpt><trkpt lat="43.55011454533462" lon="11.323055049905346"><ele>383.0</ele><time>2026-04-26T15:05:50Z</time></trkpt><trkpt lat="43.54999884037826" lon="11.322955971108495"><ele>383.0</ele><time>2026-04-26T15:05:51Z</time></trkpt><trkpt lat="43.54987527929513" lon="11.322890159751916"><ele>386.0</ele><time>2026-04-26T15:05:52Z</time></trkpt><trkpt lat="43.549745548003514" lon="11.322865902801853"><ele>389.0</ele><time>2026-04-26T15:05:53Z</time></trkpt><trkpt lat="43.549601942646866" lon="11.322879525162445"><ele>392.0</ele><time>2026-04-26T15:05:54Z</time></trkpt><trkpt lat="43.54945698798695" lon="11.322913220626726"><ele>395.0</ele><time>2026-04-26T15:05:55Z</time></trkpt><trkpt lat="43.54930887544843" lon="11.322959800434896"><ele>395.3333333333333</ele><time>2026-04-26T15:05:56Z</time></trkpt><trkpt lat="43.5491567320239" lon="11.323004343888972"><ele>395.66666666666663</ele><time>2026-04-26T15:05:57Z</time></trkpt><trkpt lat="43.54900718539815" lon="11.323039382059315"><ele>396.0</ele><time>2026-04-26T15:05:58Z</time></trkpt><trkpt lat="43.54885366167516" lon="11.32307755436706"><ele>393.66666666666663</ele><time>2026-04-26T15:05:59Z</time></trkpt><trkpt lat="43.54869678625462" lon="11.323126736732224"><ele>391.3333333333333</ele><time>2026-04-26T15:06:00Z</time></trkpt><trkpt lat="43.54854358609975" lon="11.323165111798998"><ele>389.0</ele><time>2026-04-26T15:06:01Z</time></trkpt><trkpt lat="43.548389902721674" lon="11.323204053640204"><ele>389.0</ele><time>2026-04-26T15:06:02Z</time></trkpt><trkpt lat="43.548229576500475" lon="11.323242816263708"><ele>389.0</ele><time>2026-04-26T15:06:03Z</time></trkpt><trkpt lat="43.54807045454574" lon="11.323282697610448"><ele>389.0</ele><time>2026-04-26T15:06:04Z</time></trkpt><trkpt lat="43.547910898910295" lon="11.323311291058655"><ele>391.0</ele><time>2026-04-26T15:06:05Z</time></trkpt><trkpt lat="43.54775659565533" lon="11.323349439298081"><ele>393.0</ele><time>2026-04-26T15:06:06Z</time></trkpt><trkpt lat="43.547599782556404" lon="11.323387476725145"><ele>395.0</ele><time>2026-04-26T15:06:07Z</time></trkpt><trkpt lat="43.5474488536909" lon="11.323427564885197"><ele>395.0</ele><time>2026-04-26T15:06:08Z</time></trkpt><trkpt lat="43.547298339050776" lon="11.323462507702232"><ele>395.0</ele><time>2026-04-26T15:06:09Z</time></trkpt><trkpt lat="43.547147363635645" lon="11.323495775048265"><ele>395.0</ele><time>2026-04-26T15:06:10Z</time></trkpt><trkpt lat="43.54699746935411" lon="11.323528296979129"><ele>397.0</ele><time>2026-04-26T15:06:11Z</time></trkpt><trkpt lat="43.54684609188396" lon="11.323565430238908"><ele>399.0</ele><time>2026-04-26T15:06:12Z</time></trkpt><trkpt lat="43.54669623968679" lon="11.323601588214371"><ele>401.0</ele><time>2026-04-26T15:06:13Z</time></trkpt><trkpt lat="43.54655919336817" lon="11.323639019361694"><ele>403.0</ele><time>2026-04-26T15:06:14Z</time></trkpt><trkpt lat="43.54643829956843" lon="11.323680269779064"><ele>403.0</ele><time>2026-04-26T15:06:15Z</time></trkpt><trkpt lat="43.546326340230856" lon="11.323753655630128"><ele>403.0</ele><time>2026-04-26T15:06:16Z</time></trkpt><trkpt lat="43.54623155311667" lon="11.323881545100903"><ele>403.0</ele><time>2026-04-26T15:06:17Z</time></trkpt><trkpt lat="43.546161136843295" lon="11.324051709090805"><ele>403.0</ele><time>2026-04-26T15:06:18Z</time></trkpt><trkpt lat="43.546110509615694" lon="11.324238534687904"><ele>402.59999999999997</ele><time>2026-04-26T15:06:19Z</time></trkpt><trkpt lat="43.54607508278079" lon="11.324413066754122"><ele>402.2</ele><time>2026-04-26T15:06:20Z</time></trkpt><trkpt lat="43.546037262330906" lon="11.324556063078047"><ele>401.8</ele><time>2026-04-26T15:06:21Z</time></trkpt><trkpt lat="43.54599747189697" lon="11.324678125441494"><ele>401.4</ele><time>2026-04-26T15:06:22Z</time></trkpt><trkpt lat="43.54595681857483" lon="11.32479837862049"><ele>401.0</ele><time>2026-04-26T15:06:23Z</time></trkpt><trkpt lat="43.54592322114494" lon="11.324917660379699"><ele>401.8</ele><time>2026-04-26T15:06:24Z</time></trkpt><trkpt lat="43.54589210344092" lon="11.325042110469337"><ele>402.6</ele><time>2026-04-26T15:06:25.001Z</time></trkpt><trkpt lat="43.5458591016189" lon="11.325159382408454"><ele>403.4</ele><time>2026-04-26T15:06:26.001Z</time></trkpt><trkpt lat="43.545824320403604" lon="11.325283103855481"><ele>404.2</ele><time>2026-04-26T15:06:27.001Z</time></trkpt><trkpt lat="43.54578652204778" lon="11.325409544988371"><ele>405.0</ele><time>2026-04-26T15:06:28.001Z</time></trkpt><trkpt lat="43.54574758866577" lon="11.32554167541144"><ele>405.4</ele><time>2026-04-26T15:06:29.001Z</time></trkpt><trkpt lat="43.545703280602766" lon="11.325677683005301"><ele>405.8</ele><time>2026-04-26T15:06:30.001Z</time></trkpt><trkpt lat="43.54565294131343" lon="11.325819655805477"><ele>406.20000000000005</ele><time>2026-04-26T15:06:31.001Z</time></trkpt><trkpt lat="43.54561189090606" lon="11.325958819755137"><ele>406.6</ele><time>2026-04-26T15:06:32.001Z</time></trkpt><trkpt lat="43.54556053061267" lon="11.326088822703554"><ele>407.0</ele><time>2026-04-26T15:06:33.001Z</time></trkpt><trkpt lat="43.545495695199634" lon="11.32621595480611"><ele>407.0</ele><time>2026-04-26T15:06:34.001Z</time></trkpt><trkpt lat="43.54542771657445" lon="11.326345150595188"><ele>407.0</ele><time>2026-04-26T15:06:35.001Z</time></trkpt><trkpt lat="43.545361629164255" lon="11.326474756853694"><ele>407.0</ele><time>2026-04-26T15:06:36.001Z</time></trkpt><trkpt lat="43.545288254337564" lon="11.326596859242365"><ele>407.0</ele><time>2026-04-26T15:06:37.001Z</time></trkpt><trkpt lat="43.545214262549266" lon="11.326720635141077"><ele>408.0</ele><time>2026-04-26T15:06:38.001Z</time></trkpt><trkpt lat="43.54514270717491" lon="11.326839897641554"><ele>409.0</ele><time>2026-04-26T15:06:39.001Z</time></trkpt><trkpt lat="43.54506935644583" lon="11.326947917338302"><ele>410.0</ele><time>2026-04-26T15:06:40.001Z</time></trkpt><trkpt lat="43.544989854094545" lon="11.327044915816074"><ele>411.0</ele><time>2026-04-26T15:06:41.001Z</time></trkpt><trkpt lat="43.54490736335402" lon="11.327116607534283"><ele>412.0</ele><time>2026-04-26T15:06:42.001Z</time></trkpt><trkpt lat="43.544821269044846" lon="11.327156508566217"><ele>412.0</ele><time>2026-04-26T15:06:43.001Z</time></trkpt><trkpt lat="43.54473035694062" lon="11.32716973485926"><ele>412.0</ele><time>2026-04-26T15:06:44.001Z</time></trkpt><trkpt lat="43.544635152064984" lon="11.327151237219415"><ele>412.0</ele><time>2026-04-26T15:06:45.001Z</time></trkpt><trkpt lat="43.54454688609" lon="11.327101459584823"><ele>412.0</ele><time>2026-04-26T15:06:46.001Z</time></trkpt><trkpt lat="43.54446763976287" lon="11.327022297295079"><ele>412.0</ele><time>2026-04-26T15:06:47.001Z</time></trkpt><trkpt lat="43.544410778699415" lon="11.326899118287164"><ele>413.6</ele><time>2026-04-26T15:06:48.001Z</time></trkpt><trkpt lat="43.54439541614884" lon="11.326747014973304"><ele>415.20000000000005</ele><time>2026-04-26T15:06:49.001Z</time></trkpt><trkpt lat="43.54437483498448" lon="11.32660835253382"><ele>416.8</ele><time>2026-04-26T15:06:50.001Z</time></trkpt><trkpt lat="43.544353898905094" lon="11.326457801827598"><ele>418.4</ele><time>2026-04-26T15:06:51.001Z</time></trkpt><trkpt lat="43.54433127733641" lon="11.326299373016486"><ele>420.0</ele><time>2026-04-26T15:06:52.001Z</time></trkpt><trkpt lat="43.54429075944805" lon="11.326142127592693"><ele>420.0</ele><time>2026-04-26T15:06:53.001Z</time></trkpt><trkpt lat="43.54426424986741" lon="11.325977546194194"><ele>420.0</ele><time>2026-04-26T15:06:54.001Z</time></trkpt><trkpt lat="43.544240737437974" lon="11.325818809247382"><ele>420.0</ele><time>2026-04-26T15:06:55.001Z</time></trkpt><trkpt lat="43.544212263517124" lon="11.325654728093113"><ele>420.0</ele><time>2026-04-26T15:06:56.001Z</time></trkpt><trkpt lat="43.54418407421773" lon="11.325489535913121"><ele>420.5</ele><time>2026-04-26T15:06:57.001Z</time></trkpt><trkpt lat="43.54416622912263" lon="11.325328601311012"><ele>421.0</ele><time>2026-04-26T15:06:58.001Z</time></trkpt><trkpt lat="43.5441769052917" lon="11.325157543997186"><ele>421.5</ele><time>2026-04-26T15:06:59.001Z</time></trkpt><trkpt lat="43.5441672150923" lon="11.324990181439968"><ele>422.0</ele><time>2026-04-26T15:07:00.001Z</time></trkpt><trkpt lat="43.54417088922592" lon="11.324815581682357"><ele>423.75</ele><time>2026-04-26T15:07:01.001Z</time></trkpt><trkpt lat="43.54418584495433" lon="11.32464433964398"><ele>425.5</ele><time>2026-04-26T15:07:02.001Z</time></trkpt><trkpt lat="43.5442609599103" lon="11.324506290361608"><ele>427.25</ele><time>2026-04-26T15:07:03.001Z</time></trkpt><trkpt lat="43.54435260904185" lon="11.32438363979174"><ele>429.0</ele><time>2026-04-26T15:07:04.001Z</time></trkpt><trkpt lat="43.544435800426264" lon="11.32424524663183"><ele>429.0</ele><time>2026-04-26T15:07:05.001Z</time></trkpt><trkpt lat="43.54452514681863" lon="11.324127863495908"><ele>429.0</ele><time>2026-04-26T15:07:06.001Z</time></trkpt><trkpt lat="43.54458127014145" lon="11.32397718497639"><ele>429.0</ele><time>2026-04-26T15:07:07.001Z</time></trkpt><trkpt lat="43.54461476122409" lon="11.323803461822703"><ele>429.0</ele><time>2026-04-26T15:07:08.001Z</time></trkpt><trkpt lat="43.54461777026172" lon="11.323613646085912"><ele>430.5</ele><time>2026-04-26T15:07:09.001Z</time></trkpt><trkpt lat="43.54460009506375" lon="11.32342758536282"><ele>432.0</ele><time>2026-04-26T15:07:10.001Z</time></trkpt><trkpt lat="43.54455147691771" lon="11.323248024253777"><ele>433.5</ele><time>2026-04-26T15:07:11.001Z</time></trkpt><trkpt lat="43.544485689342515" lon="11.323072745736528"><ele>435.0</ele><time>2026-04-26T15:07:12.001Z</time></trkpt><trkpt lat="43.544416863534614" lon="11.322881643406465"><ele>435.0</ele><time>2026-04-26T15:07:13.001Z</time></trkpt><trkpt lat="43.5443447784483" lon="11.322685964734431"><ele>435.0</ele><time>2026-04-26T15:07:14.001Z</time></trkpt><trkpt lat="43.54426930883418" lon="11.322489204620148"><ele>435.0</ele><time>2026-04-26T15:07:15.001Z</time></trkpt><trkpt lat="43.54419380058888" lon="11.322289921988018"><ele>435.75</ele><time>2026-04-26T15:07:16.001Z</time></trkpt><trkpt lat="43.54412501816303" lon="11.322105555323246"><ele>436.5</ele><time>2026-04-26T15:07:17.001Z</time></trkpt><trkpt lat="43.54408714825239" lon="11.32193069364741"><ele>437.25</ele><time>2026-04-26T15:07:18.001Z</time></trkpt><trkpt lat="43.54405800580878" lon="11.321784322461552"><ele>438.0</ele><time>2026-04-26T15:07:19.001Z</time></trkpt><trkpt lat="43.544064209495325" lon="11.321637708622486"><ele>438.0</ele><time>2026-04-26T15:07:20.001Z</time></trkpt><trkpt lat="43.54411619845792" lon="11.321501364394432"><ele>438.0</ele><time>2026-04-26T15:07:21.001Z</time></trkpt><trkpt lat="43.5442076718661" lon="11.321396348751453"><ele>438.0</ele><time>2026-04-26T15:07:22.001Z</time></trkpt><trkpt lat="43.54432438860165" lon="11.32136052588657"><ele>438.0</ele><time>2026-04-26T15:07:23.001Z</time></trkpt><trkpt lat="43.544463921139766" lon="11.321360462759543"><ele>442.66666666666663</ele><time>2026-04-26T15:07:24.001Z</time></trkpt><trkpt lat="43.54462965358385" lon="11.321344131155316"><ele>447.3333333333333</ele><time>2026-04-26T15:07:25.001Z</time></trkpt><trkpt lat="43.54481271343177" lon="11.32133488310123"><ele>452.0</ele><time>2026-04-26T15:07:26.001Z</time></trkpt><trkpt lat="43.54498551402902" lon="11.321329513733339"><ele>452.0</ele><time>2026-04-26T15:07:27Z</time></trkpt><trkpt lat="43.545152392392616" lon="11.321323495261936"><ele>452.0</ele><time>2026-04-26T15:07:28Z</time></trkpt><trkpt lat="43.545327551409" lon="11.321311914845275"><ele>452.0</ele><time>2026-04-26T15:07:29Z</time></trkpt><trkpt lat="43.54550288859453" lon="11.321304638684547"><ele>453.3333333333333</ele><time>2026-04-26T15:07:30Z</time></trkpt><trkpt lat="43.545673454064854" lon="11.321299849215599"><ele>454.66666666666663</ele><time>2026-04-26T15:07:31Z</time></trkpt><trkpt lat="43.545838737562704" lon="11.32129479319618"><ele>456.0</ele><time>2026-04-26T15:07:32Z</time></trkpt><trkpt lat="43.54599032900225" lon="11.321291891617893"><ele>456.0</ele><time>2026-04-26T15:07:33Z</time></trkpt><trkpt lat="43.54613473773734" lon="11.321283121219746"><ele>456.0</ele><time>2026-04-26T15:07:34Z</time></trkpt><trkpt lat="43.546268512357905" lon="11.321274941789765"><ele>456.0</ele><time>2026-04-26T15:07:35Z</time></trkpt><trkpt lat="43.54639324743182" lon="11.321267707439691"><ele>456.0</ele><time>2026-04-26T15:07:36Z</time></trkpt><trkpt lat="43.54651353032743" lon="11.321251296583398"><ele>456.25</ele><time>2026-04-26T15:07:37Z</time></trkpt><trkpt lat="43.54663649118027" lon="11.321214119947335"><ele>456.5</ele><time>2026-04-26T15:07:38Z</time></trkpt><trkpt lat="43.54674657798895" lon="11.321151657622837"><ele>456.75</ele><time>2026-04-26T15:07:39Z</time></trkpt><trkpt lat="43.54684601835636" lon="11.321070754888973"><ele>457.0</ele><time>2026-04-26T15:07:40Z</time></trkpt><trkpt lat="43.54695724873115" lon="11.321032856936268"><ele>455.6</ele><time>2026-04-26T15:07:41Z</time></trkpt><trkpt lat="43.547059792829806" lon="11.320994092620987"><ele>454.20000000000005</ele><time>2026-04-26T15:07:42Z</time></trkpt><trkpt lat="43.54715971444058" lon="11.320945183847826"><ele>452.8</ele><time>2026-04-26T15:07:43Z</time></trkpt><trkpt lat="43.54727071439933" lon="11.320930366510996"><ele>451.4</ele><time>2026-04-26T15:07:44Z</time></trkpt><trkpt lat="43.54737221065506" lon="11.320903273545838"><ele>450.0</ele><time>2026-04-26T15:07:45Z</time></trkpt><trkpt lat="43.54747113877347" lon="11.32085947974134"><ele>450.0</ele><time>2026-04-26T15:07:46Z</time></trkpt><trkpt lat="43.547541851632054" lon="11.320744590928154"><ele>450.0</ele><time>2026-04-26T15:07:47Z</time></trkpt><trkpt lat="43.54760072625867" lon="11.320617002149886"><ele>450.0</ele><time>2026-04-26T15:07:48Z</time></trkpt><trkpt lat="43.54762508577298" lon="11.320473675086543"><ele>450.0</ele><time>2026-04-26T15:07:49Z</time></trkpt><trkpt lat="43.54762276757621" lon="11.320330776555359"><ele>450.0</ele><time>2026-04-26T15:07:50Z</time></trkpt><trkpt lat="43.54762025121907" lon="11.320192545429665"><ele>451.0</ele><time>2026-04-26T15:07:51Z</time></trkpt><trkpt lat="43.5475257781694" lon="11.320081606738349"><ele>452.0</ele><time>2026-04-26T15:07:52Z</time></trkpt><trkpt lat="43.54744114704946" lon="11.31999277447098"><ele>453.0</ele><time>2026-04-26T15:07:53Z</time></trkpt><trkpt lat="43.54734458464201" lon="11.319914649189798"><ele>454.0</ele><time>2026-04-26T15:07:54Z</time></trkpt><trkpt lat="43.5472459469963" lon="11.319838251032413"><ele>454.0</ele><time>2026-04-26T15:07:55Z</time></trkpt><trkpt lat="43.5471477817191" lon="11.319757603560511"><ele>454.0</ele><time>2026-04-26T15:07:56Z</time></trkpt><trkpt lat="43.547051192881405" lon="11.319682019948845"><ele>454.0</ele><time>2026-04-26T15:07:57Z</time></trkpt><trkpt lat="43.54695212433707" lon="11.319597648415266"><ele>454.0</ele><time>2026-04-26T15:07:58Z</time></trkpt><trkpt lat="43.54685145995211" lon="11.319509617380184"><ele>456.0</ele><time>2026-04-26T15:07:59Z</time></trkpt><trkpt lat="43.546757262896" lon="11.319411373158509"><ele>458.0</ele><time>2026-04-26T15:08:00Z</time></trkpt><trkpt lat="43.54667286149101" lon="11.319298415789492"><ele>460.0</ele><time>2026-04-26T15:08:01Z</time></trkpt><trkpt lat="43.54659831545842" lon="11.31916870802579"><ele>462.0</ele><time>2026-04-26T15:08:02Z</time></trkpt><trkpt lat="43.546552960578" lon="11.319020403350653"><ele>461.40000000000003</ele><time>2026-04-26T15:08:03Z</time></trkpt><trkpt lat="43.54650954792332" lon="11.31888210011441"><ele>460.80000000000007</ele><time>2026-04-26T15:08:04Z</time></trkpt><trkpt lat="43.546490049595974" lon="11.318728226067378"><ele>460.2</ele><time>2026-04-26T15:08:05Z</time></trkpt><trkpt lat="43.5464996323283" lon="11.318571803241232"><ele>459.6</ele><time>2026-04-26T15:08:06Z</time></trkpt><trkpt lat="43.54651454391052" lon="11.318417694079146"><ele>459.0</ele><time>2026-04-26T15:08:07Z</time></trkpt><trkpt lat="43.54651816028861" lon="11.318260994257878"><ele>459.0</ele><time>2026-04-26T15:08:08Z</time></trkpt><trkpt lat="43.54650239097844" lon="11.318111909649627"><ele>459.0</ele><time>2026-04-26T15:08:09Z</time></trkpt><trkpt lat="43.54646906119658" lon="11.317984444275286"><ele>459.0</ele><time>2026-04-26T15:08:10Z</time></trkpt><trkpt lat="43.54640722033929" lon="11.317882169840567"><ele>459.0</ele><time>2026-04-26T15:08:11Z</time></trkpt><trkpt lat="43.54632117500423" lon="11.317811752533698"><ele>459.0</ele><time>2026-04-26T15:08:12Z</time></trkpt><trkpt lat="43.54621782042195" lon="11.317761204340224"><ele>461.5</ele><time>2026-04-26T15:08:13Z</time></trkpt><trkpt lat="43.54609618503209" lon="11.317735623383467"><ele>464.0</ele><time>2026-04-26T15:08:14Z</time></trkpt><trkpt lat="43.54597219646251" lon="11.31773611073574"><ele>466.5</ele><time>2026-04-26T15:08:15Z</time></trkpt><trkpt lat="43.545850656231075" lon="11.317727736217941"><ele>469.0</ele><time>2026-04-26T15:08:16Z</time></trkpt><trkpt lat="43.54571837208194" lon="11.317718789293853"><ele>469.0</ele><time>2026-04-26T15:08:17Z</time></trkpt><trkpt lat="43.54559132069294" lon="11.317699386115825"><ele>469.0</ele><time>2026-04-26T15:08:18Z</time></trkpt><trkpt lat="43.54547062129148" lon="11.31766474309448"><ele>469.0</ele><time>2026-04-26T15:08:19Z</time></trkpt><trkpt lat="43.545364656800764" lon="11.317591642736714"><ele>469.0</ele><time>2026-04-26T15:08:20Z</time></trkpt><trkpt lat="43.54527635234116" lon="11.317509655367827"><ele>470.6</ele><time>2026-04-26T15:08:21Z</time></trkpt><trkpt lat="43.545203120636366" lon="11.317405286140968"><ele>472.2</ele><time>2026-04-26T15:08:22Z</time></trkpt><trkpt lat="43.54516799694717" lon="11.317272733190034"><ele>473.80000000000007</ele><time>2026-04-26T15:08:23Z</time></trkpt><trkpt lat="43.54512294129398" lon="11.317144873045743"><ele>475.40000000000003</ele><time>2026-04-26T15:08:24Z</time></trkpt><trkpt lat="43.5450967938894" lon="11.316998939353788"><ele>477.0</ele><time>2026-04-26T15:08:25Z</time></trkpt><trkpt lat="43.54508522284405" lon="11.316845693569773"><ele>477.0</ele><time>2026-04-26T15:08:26Z</time></trkpt><trkpt lat="43.54508875963287" lon="11.316697917887122"><ele>477.00000000000006</ele><time>2026-04-26T15:08:27Z</time></trkpt><trkpt lat="43.545099209028784" lon="11.316549151362926"><ele>477.00000000000006</ele><time>2026-04-26T15:08:28Z</time></trkpt><trkpt lat="43.54510470745873" lon="11.316404182822861"><ele>477.0</ele><time>2026-04-26T15:08:29Z</time></trkpt><trkpt lat="43.54509571711805" lon="11.316251136149766"><ele>477.0</ele><time>2026-04-26T15:08:30Z</time></trkpt><trkpt lat="43.54505758926111" lon="11.316139487494983"><ele>476.6666666666667</ele><time>2026-04-26T15:08:31Z</time></trkpt><trkpt lat="43.54499721665689" lon="11.316058432521052"><ele>476.33333333333337</ele><time>2026-04-26T15:08:32Z</time></trkpt><trkpt lat="43.54492251130039" lon="11.316020956346716"><ele>476.0</ele><time>2026-04-26T15:08:33Z</time></trkpt><trkpt lat="43.54484895606206" lon="11.316014000521013"><ele>475.6666666666667</ele><time>2026-04-26T15:08:34Z</time></trkpt><trkpt lat="43.54477974787027" lon="11.316026196091666"><ele>475.33333333333337</ele><time>2026-04-26T15:08:35Z</time></trkpt><trkpt lat="43.544698380035086" lon="11.316045719946029"><ele>475.0</ele><time>2026-04-26T15:08:37.001Z</time></trkpt><trkpt lat="43.54462263468621" lon="11.316091013142776"><ele>474.0</ele><time>2026-04-26T15:08:43.001Z</time></trkpt><trkpt lat="43.54451964303242" lon="11.316122927916195"><ele>473.0</ele><time>2026-04-26T15:08:45.001Z</time></trkpt><trkpt lat="43.54439707224565" lon="11.316166455104172"><ele>472.0</ele><time>2026-04-26T15:08:47.001Z</time></trkpt><trkpt lat="43.544329584816666" lon="11.316186782562317"><ele>471.0</ele><time>2026-04-26T15:08:48.001Z</time></trkpt><trkpt lat="43.544257929942276" lon="11.316206327607196"><ele>470.0</ele><time>2026-04-26T15:08:49.001Z</time></trkpt><trkpt lat="43.544169644732065" lon="11.316225893685342"><ele>469.99999999999994</ele><time>2026-04-26T15:08:50.001Z</time></trkpt><trkpt lat="43.54409125733834" lon="11.316250264179688"><ele>470.0</ele><time>2026-04-26T15:08:51.001Z</time></trkpt><trkpt lat="43.54400767763927" lon="11.316278711511755"><ele>470.0</ele><time>2026-04-26T15:08:52.001Z</time></trkpt><trkpt lat="43.54392309337724" lon="11.316297435745865"><ele>470.0</ele><time>2026-04-26T15:08:53.001Z</time></trkpt><trkpt lat="43.54382937148959" lon="11.31633173927437"><ele>469.99999999999994</ele><time>2026-04-26T15:08:54.001Z</time></trkpt><trkpt lat="43.54374055772048" lon="11.31636354054947"><ele>470.0</ele><time>2026-04-26T15:08:55.001Z</time></trkpt><trkpt lat="43.54364707237632" lon="11.31639615736762"><ele>472.2</ele><time>2026-04-26T15:08:56.001Z</time></trkpt><trkpt lat="43.543556238827" lon="11.316420881252396"><ele>474.4</ele><time>2026-04-26T15:08:57.001Z</time></trkpt><trkpt lat="43.54346057075073" lon="11.316449404356069"><ele>476.6</ele><time>2026-04-26T15:08:58.001Z</time></trkpt><trkpt lat="43.543360363936905" lon="11.316480963158083"><ele>478.8</ele><time>2026-04-26T15:08:59.001Z</time></trkpt><trkpt lat="43.543263302987455" lon="11.316509467782474"><ele>481.0</ele><time>2026-04-26T15:09:00.001Z</time></trkpt><trkpt lat="43.5431701374739" lon="11.316540212514987"><ele>481.0</ele><time>2026-04-26T15:09:01.001Z</time></trkpt><trkpt lat="43.54307959171427" lon="11.31656638434363"><ele>481.0</ele><time>2026-04-26T15:09:02.001Z</time></trkpt><trkpt lat="43.54298488821195" lon="11.316591853992488"><ele>481.0</ele><time>2026-04-26T15:09:03.001Z</time></trkpt><trkpt lat="43.54289499000291" lon="11.31661956796962"><ele>481.0</ele><time>2026-04-26T15:09:04.001Z</time></trkpt><trkpt lat="43.542808971477655" lon="11.316633608668857"><ele>481.0</ele><time>2026-04-26T15:09:05.001Z</time></trkpt><trkpt lat="43.54273021935801" lon="11.31667157002506"><ele>479.00000000000006</ele><time>2026-04-26T15:09:06.001Z</time></trkpt><trkpt lat="43.542662767669746" lon="11.316717530802988"><ele>477.0</ele><time>2026-04-26T15:09:07.001Z</time></trkpt><trkpt lat="43.54259695911008" lon="11.316769012232575"><ele>475.0</ele><time>2026-04-26T15:09:08.001Z</time></trkpt><trkpt lat="43.54253262144198" lon="11.31683602582955"><ele>473.0</ele><time>2026-04-26T15:09:09.001Z</time></trkpt><trkpt lat="43.54246805658082" lon="11.316915172466269"><ele>471.00000000000006</ele><time>2026-04-26T15:09:10.001Z</time></trkpt><trkpt lat="43.542404280908364" lon="11.316996274167744"><ele>469.0</ele><time>2026-04-26T15:09:11.001Z</time></trkpt><trkpt lat="43.542339966313946" lon="11.3170833596753"><ele>469.00000000000006</ele><time>2026-04-26T15:09:12.001Z</time></trkpt><trkpt lat="43.54227872068436" lon="11.317150874811738"><ele>469.0</ele><time>2026-04-26T15:09:13.001Z</time></trkpt><trkpt lat="43.54220580615039" lon="11.317183432950394"><ele>469.0</ele><time>2026-04-26T15:09:14.001Z</time></trkpt><trkpt lat="43.54214182867301" lon="11.317193786954256"><ele>469.0</ele><time>2026-04-26T15:09:15.001Z</time></trkpt><trkpt lat="43.542062052663745" lon="11.317208917705578"><ele>469.00000000000006</ele><time>2026-04-26T15:09:16.001Z</time></trkpt><trkpt lat="43.54198586376658" lon="11.317205617812236"><ele>469.0</ele><time>2026-04-26T15:09:17.001Z</time></trkpt><trkpt lat="43.54191129157256" lon="11.317189215330538"><ele>466.6666666666667</ele><time>2026-04-26T15:09:18.001Z</time></trkpt><trkpt lat="43.54183373033895" lon="11.317164755087175"><ele>464.33333333333337</ele><time>2026-04-26T15:09:19.001Z</time></trkpt><trkpt lat="43.5417545168504" lon="11.31713803553224"><ele>462.0</ele><time>2026-04-26T15:09:20.001Z</time></trkpt><trkpt lat="43.54167097977808" lon="11.31710985759653"><ele>459.66666666666663</ele><time>2026-04-26T15:09:21.001Z</time></trkpt><trkpt lat="43.54159114037483" lon="11.317082926929476"><ele>457.3333333333333</ele><time>2026-04-26T15:09:22.001Z</time></trkpt><trkpt lat="43.54150973678541" lon="11.31705509905629"><ele>455.0</ele><time>2026-04-26T15:09:23.001Z</time></trkpt><trkpt lat="43.541427589107606" lon="11.317027731444007"><ele>455.0</ele><time>2026-04-26T15:09:24.001Z</time></trkpt><trkpt lat="43.54133824346162" lon="11.31699796581349"><ele>455.0</ele><time>2026-04-26T15:09:25.001Z</time></trkpt><trkpt lat="43.54125013592664" lon="11.316968612657549"><ele>455.0</ele><time>2026-04-26T15:09:26.001Z</time></trkpt><trkpt lat="43.54115740127571" lon="11.316959235394284"><ele>455.0</ele><time>2026-04-26T15:09:27.001Z</time></trkpt><trkpt lat="43.5410727419159" lon="11.316913966564098"><ele>455.0</ele><time>2026-04-26T15:09:28.001Z</time></trkpt><trkpt lat="43.54098880527356" lon="11.31689530366247"><ele>454.66666666666663</ele><time>2026-04-26T15:09:29.001Z</time></trkpt><trkpt lat="43.5408974919022" lon="11.316878671162774"><ele>454.3333333333333</ele><time>2026-04-26T15:09:30.001Z</time></trkpt><trkpt lat="43.540811776858845" lon="11.316878092230617"><ele>454.0</ele><time>2026-04-26T15:09:31.001Z</time></trkpt><trkpt lat="43.540735425871276" lon="11.31688778595218"><ele>453.66666666666663</ele><time>2026-04-26T15:09:32.001Z</time></trkpt><trkpt lat="43.540646227469345" lon="11.316920397755931"><ele>453.3333333333333</ele><time>2026-04-26T15:09:33Z</time></trkpt><trkpt lat="43.54055968022164" lon="11.316965608839169"><ele>453.0</ele><time>2026-04-26T15:09:34Z</time></trkpt><trkpt lat="43.54048155952166" lon="11.317040524327732"><ele>453.0</ele><time>2026-04-26T15:09:35Z</time></trkpt><trkpt lat="43.54039419260537" lon="11.317087853085601"><ele>453.0</ele><time>2026-04-26T15:09:36Z</time></trkpt><trkpt lat="43.540310576830706" lon="11.317140934799715"><ele>453.0</ele><time>2026-04-26T15:09:37Z</time></trkpt><trkpt lat="43.54023608606165" lon="11.317189100717812"><ele>453.0</ele><time>2026-04-26T15:09:38Z</time></trkpt><trkpt lat="43.540159710370716" lon="11.317233211581389"><ele>453.0</ele><time>2026-04-26T15:09:39Z</time></trkpt><trkpt lat="43.54008447952026" lon="11.317271826458926"><ele>453.0</ele><time>2026-04-26T15:09:40Z</time></trkpt><trkpt lat="43.53999586410117" lon="11.317307479013904"><ele>454.0</ele><time>2026-04-26T15:09:41Z</time></trkpt><trkpt lat="43.53990008993442" lon="11.317333768967273"><ele>454.99999999999994</ele><time>2026-04-26T15:09:42Z</time></trkpt><trkpt lat="43.539811868147524" lon="11.317352840268011"><ele>455.99999999999994</ele><time>2026-04-26T15:09:43Z</time></trkpt><trkpt lat="43.53971196027176" lon="11.317326725411109"><ele>457.0</ele><time>2026-04-26T15:09:44Z</time></trkpt><trkpt lat="43.539627311679425" lon="11.317305427593276"><ele>458.0</ele><time>2026-04-26T15:09:45Z</time></trkpt><trkpt lat="43.53953917710906" lon="11.31730391565323"><ele>458.0</ele><time>2026-04-26T15:09:46Z</time></trkpt><trkpt lat="43.5394571227964" lon="11.317263297153794"><ele>457.99999999999994</ele><time>2026-04-26T15:09:47Z</time></trkpt><trkpt lat="43.53936761943982" lon="11.317222639896679"><ele>457.99999999999994</ele><time>2026-04-26T15:09:48Z</time></trkpt><trkpt lat="43.5392740930299" lon="11.31718491631236"><ele>458.0</ele><time>2026-04-26T15:09:49Z</time></trkpt><trkpt lat="43.539180106042195" lon="11.317146785093396"><ele>458.0</ele><time>2026-04-26T15:09:50Z</time></trkpt><trkpt lat="43.539080802404946" lon="11.317101587471793"><ele>455.2</ele><time>2026-04-26T15:09:51Z</time></trkpt><trkpt lat="43.538983726676925" lon="11.31705871331055"><ele>452.4</ele><time>2026-04-26T15:09:52Z</time></trkpt><trkpt lat="43.53888227098886" lon="11.317017471992033"><ele>449.59999999999997</ele><time>2026-04-26T15:09:53Z</time></trkpt><trkpt lat="43.53877329818501" lon="11.31697836825227"><ele>446.79999999999995</ele><time>2026-04-26T15:09:54Z</time></trkpt><trkpt lat="43.53866017560613" lon="11.316929795942496"><ele>444.0</ele><time>2026-04-26T15:09:55Z</time></trkpt><trkpt lat="43.53855010117662" lon="11.316884935462813"><ele>444.0</ele><time>2026-04-26T15:09:56Z</time></trkpt><trkpt lat="43.53843832469167" lon="11.31683831192975"><ele>444.0</ele><time>2026-04-26T15:09:57Z</time></trkpt><trkpt lat="43.53832392526186" lon="11.316795882707503"><ele>444.0</ele><time>2026-04-26T15:09:58Z</time></trkpt><trkpt lat="43.53821160193011" lon="11.316748117005965"><ele>444.0</ele><time>2026-04-26T15:09:59Z</time></trkpt><trkpt lat="43.53809690268549" lon="11.316698601652503"><ele>444.0</ele><time>2026-04-26T15:10:00Z</time></trkpt><trkpt lat="43.53798152580772" lon="11.316652602488116"><ele>444.0</ele><time>2026-04-26T15:10:01Z</time></trkpt><trkpt lat="43.537865299186095" lon="11.31659979998151"><ele>444.0</ele><time>2026-04-26T15:10:02Z</time></trkpt><trkpt lat="43.537752794077335" lon="11.31654849059295"><ele>444.0</ele><time>2026-04-26T15:10:03Z</time></trkpt><trkpt lat="43.537642016727354" lon="11.316481076431206"><ele>442.25</ele><time>2026-04-26T15:10:04Z</time></trkpt><trkpt lat="43.53754295179703" lon="11.316373970376878"><ele>440.5</ele><time>2026-04-26T15:10:05Z</time></trkpt><trkpt lat="43.537452437318095" lon="11.316259700966704"><ele>438.75</ele><time>2026-04-26T15:10:06Z</time></trkpt><trkpt lat="43.53736999695486" lon="11.316126628898257"><ele>437.0</ele><time>2026-04-26T15:10:07Z</time></trkpt><trkpt lat="43.53729330436833" lon="11.31598162947052"><ele>437.0</ele><time>2026-04-26T15:10:08Z</time></trkpt><trkpt lat="43.53723349314853" lon="11.31583247067973"><ele>437.0</ele><time>2026-04-26T15:10:09Z</time></trkpt><trkpt lat="43.53717327310355" lon="11.315697967598922"><ele>437.0</ele><time>2026-04-26T15:10:10Z</time></trkpt><trkpt lat="43.5371103539972" lon="11.315567250271497"><ele>437.0</ele><time>2026-04-26T15:10:11Z</time></trkpt><trkpt lat="43.53704429967589" lon="11.315445928146339"><ele>437.40000000000003</ele><time>2026-04-26T15:10:12Z</time></trkpt><trkpt lat="43.53696807482474" lon="11.315339059548286"><ele>437.80000000000007</ele><time>2026-04-26T15:10:13Z</time></trkpt><trkpt lat="43.53688342537728" lon="11.315241828959774"><ele>438.2</ele><time>2026-04-26T15:10:14Z</time></trkpt><trkpt lat="43.53680188263371" lon="11.31515767568256"><ele>438.6</ele><time>2026-04-26T15:10:15Z</time></trkpt><trkpt lat="43.53670723994923" lon="11.315067673855644"><ele>439.0</ele><time>2026-04-26T15:10:16Z</time></trkpt><trkpt lat="43.536619153204526" lon="11.314969336972558"><ele>439.0</ele><time>2026-04-26T15:10:17Z</time></trkpt><trkpt lat="43.53655866201002" lon="11.314844559215077"><ele>439.0</ele><time>2026-04-26T15:10:18Z</time></trkpt><trkpt lat="43.53650308467806" lon="11.31472707865364"><ele>439.0</ele><time>2026-04-26T15:10:19Z</time></trkpt><trkpt lat="43.536461480199044" lon="11.314606124934597"><ele>439.0</ele><time>2026-04-26T15:10:20Z</time></trkpt><trkpt lat="43.5364151863295" lon="11.314477749040332"><ele>439.0</ele><time>2026-04-26T15:10:21Z</time></trkpt><trkpt lat="43.53635231277455" lon="11.314355485939345"><ele>438.2</ele><time>2026-04-26T15:10:22Z</time></trkpt><trkpt lat="43.53630277423636" lon="11.314229341281502"><ele>437.4</ele><time>2026-04-26T15:10:23Z</time></trkpt><trkpt lat="43.53624139592505" lon="11.314113354824263"><ele>436.6</ele><time>2026-04-26T15:10:24Z</time></trkpt><trkpt lat="43.53616977734976" lon="11.314006866830349"><ele>435.8</ele><time>2026-04-26T15:10:25Z</time></trkpt><trkpt lat="43.53609370402775" lon="11.313891502942587"><ele>435.0</ele><time>2026-04-26T15:10:26Z</time></trkpt><trkpt lat="43.536016320595984" lon="11.31379168938323"><ele>433.0</ele><time>2026-04-26T15:10:27Z</time></trkpt><trkpt lat="43.535940160480315" lon="11.313673554707883"><ele>431.0</ele><time>2026-04-26T15:10:28Z</time></trkpt><trkpt lat="43.53585848127472" lon="11.313562989088368"><ele>429.0</ele><time>2026-04-26T15:10:29Z</time></trkpt><trkpt lat="43.53577795530878" lon="11.313451693241023"><ele>427.0</ele><time>2026-04-26T15:10:30Z</time></trkpt><trkpt lat="43.53569062539911" lon="11.313337211368196"><ele>427.0</ele><time>2026-04-26T15:10:31Z</time></trkpt><trkpt lat="43.53560412584821" lon="11.313221411202766"><ele>427.0</ele><time>2026-04-26T15:10:32Z</time></trkpt><trkpt lat="43.535516681330314" lon="11.313099150860213"><ele>427.0</ele><time>2026-04-26T15:10:33Z</time></trkpt><trkpt lat="43.53542519816119" lon="11.312984150848484"><ele>427.0</ele><time>2026-04-26T15:10:34Z</time></trkpt><trkpt lat="43.53533795902824" lon="11.312861661189162"><ele>428.5</ele><time>2026-04-26T15:10:35Z</time></trkpt><trkpt lat="43.53524505031384" lon="11.312740257988812"><ele>430.0</ele><time>2026-04-26T15:10:36Z</time></trkpt><trkpt lat="43.53515287585554" lon="11.312620691921973"><ele>431.5</ele><time>2026-04-26T15:10:37Z</time></trkpt><trkpt lat="43.53506720564276" lon="11.31250501008707"><ele>433.0</ele><time>2026-04-26T15:10:38Z</time></trkpt><trkpt lat="43.53497767662201" lon="11.31238765277943"><ele>433.0</ele><time>2026-04-26T15:10:39Z</time></trkpt><trkpt lat="43.53488826130006" lon="11.312265946477208"><ele>433.0</ele><time>2026-04-26T15:10:40Z</time></trkpt><trkpt lat="43.53480071711968" lon="11.31214429509511"><ele>433.0</ele><time>2026-04-26T15:10:41Z</time></trkpt><trkpt lat="43.53471145667927" lon="11.312013724568924"><ele>433.0</ele><time>2026-04-26T15:10:42Z</time></trkpt><trkpt lat="43.53462790293233" lon="11.311884383831515"><ele>433.75</ele><time>2026-04-26T15:10:43Z</time></trkpt><trkpt lat="43.53455211900861" lon="11.311738003282658"><ele>434.5</ele><time>2026-04-26T15:10:44Z</time></trkpt><trkpt lat="43.53449321302016" lon="11.31158196194729"><ele>435.25</ele><time>2026-04-26T15:10:45Z</time></trkpt><trkpt lat="43.5344666211599" lon="11.31140406142838"><ele>436.0</ele><time>2026-04-26T15:10:46Z</time></trkpt><trkpt lat="43.534443175514234" lon="11.31123136141042"><ele>434.0</ele><time>2026-04-26T15:10:47Z</time></trkpt><trkpt lat="43.53442601773792" lon="11.311053167896377"><ele>432.0</ele><time>2026-04-26T15:10:48Z</time></trkpt><trkpt lat="43.53439733233832" lon="11.31087601681211"><ele>430.0</ele><time>2026-04-26T15:10:49Z</time></trkpt><trkpt lat="43.534378497377375" lon="11.310703877623247"><ele>428.0</ele><time>2026-04-26T15:10:50Z</time></trkpt><trkpt lat="43.53434738758128" lon="11.310529328591354"><ele>425.5</ele><time>2026-04-26T15:10:51Z</time></trkpt><trkpt lat="43.53428951311034" lon="11.310369927558845"><ele>423.0</ele><time>2026-04-26T15:10:52Z</time></trkpt><trkpt lat="43.534210454131035" lon="11.31023120213302"><ele>420.5</ele><time>2026-04-26T15:10:53Z</time></trkpt><trkpt lat="43.53411724788189" lon="11.310110820806564"><ele>418.0</ele><time>2026-04-26T15:10:54Z</time></trkpt><trkpt lat="43.534011625720275" lon="11.310004459883894"><ele>418.0</ele><time>2026-04-26T15:10:55Z</time></trkpt><trkpt lat="43.533900532808104" lon="11.30990215690223"><ele>418.0</ele><time>2026-04-26T15:10:56Z</time></trkpt><trkpt lat="43.533789746125535" lon="11.309796654615615"><ele>418.0</ele><time>2026-04-26T15:10:57Z</time></trkpt><trkpt lat="43.53367535603764" lon="11.309689415157047"><ele>418.0</ele><time>2026-04-26T15:10:58Z</time></trkpt><trkpt lat="43.533564355270435" lon="11.30958649427856"><ele>418.0</ele><time>2026-04-26T15:10:59Z</time></trkpt><trkpt lat="43.53345108104709" lon="11.309481339590544"><ele>418.0</ele><time>2026-04-26T15:11:00Z</time></trkpt><trkpt lat="43.533339535159534" lon="11.309378726633366"><ele>418.0</ele><time>2026-04-26T15:11:01Z</time></trkpt><trkpt lat="43.53323219562394" lon="11.309292350028224"><ele>418.0</ele><time>2026-04-26T15:11:02Z</time></trkpt><trkpt lat="43.53313055528675" lon="11.309208353978624"><ele>418.0</ele><time>2026-04-26T15:11:03Z</time></trkpt><trkpt lat="43.53304239272944" lon="11.30912407503578"><ele>418.0</ele><time>2026-04-26T15:11:04Z</time></trkpt><trkpt lat="43.53295634086285" lon="11.309038644578056"><ele>418.0</ele><time>2026-04-26T15:11:05.001Z</time></trkpt><trkpt lat="43.53286888385384" lon="11.308960764723397"><ele>418.0</ele><time>2026-04-26T15:11:06.001Z</time></trkpt><trkpt lat="43.532777658731845" lon="11.308876194374529"><ele>418.0</ele><time>2026-04-26T15:11:07.001Z</time></trkpt><trkpt lat="43.53269754594724" lon="11.308773549089"><ele>418.0</ele><time>2026-04-26T15:11:08.001Z</time></trkpt><trkpt lat="43.532627556198634" lon="11.30865858386685"><ele>418.0</ele><time>2026-04-26T15:11:09.001Z</time></trkpt><trkpt lat="43.53257147955119" lon="11.3085278943654"><ele>418.0</ele><time>2026-04-26T15:11:10.001Z</time></trkpt><trkpt lat="43.532552665586294" lon="11.308368198221164"><ele>418.0</ele><time>2026-04-26T15:11:11.001Z</time></trkpt><trkpt lat="43.53252304774694" lon="11.30821147814199"><ele>416.59999999999997</ele><time>2026-04-26T15:11:12.001Z</time></trkpt><trkpt lat="43.53249069736606" lon="11.308075036830758"><ele>415.2</ele><time>2026-04-26T15:11:13.001Z</time></trkpt><trkpt lat="43.5324624832723" lon="11.307944780673616"><ele>413.8</ele><time>2026-04-26T15:11:14.001Z</time></trkpt><trkpt lat="43.53243224820368" lon="11.30780915607158"><ele>412.4</ele><time>2026-04-26T15:11:15.001Z</time></trkpt><trkpt lat="43.53239528198866" lon="11.307672289940923"><ele>411.0</ele><time>2026-04-26T15:11:16.001Z</time></trkpt><trkpt lat="43.53234690440588" lon="11.307538901155748"><ele>411.0</ele><time>2026-04-26T15:11:17.001Z</time></trkpt><trkpt lat="43.53229112799875" lon="11.307414152344961"><ele>411.0</ele><time>2026-04-26T15:11:18.001Z</time></trkpt><trkpt lat="43.53223257029955" lon="11.307291756324915"><ele>411.0</ele><time>2026-04-26T15:11:19.001Z</time></trkpt><trkpt lat="43.53217533465654" lon="11.307166610620914"><ele>411.0</ele><time>2026-04-26T15:11:20.001Z</time></trkpt><trkpt lat="43.53211755059039" lon="11.307037089375157"><ele>411.0</ele><time>2026-04-26T15:11:21.001Z</time></trkpt><trkpt lat="43.53205416639113" lon="11.306908390462851"><ele>413.25</ele><time>2026-04-26T15:11:22.001Z</time></trkpt><trkpt lat="43.53199218821587" lon="11.306778348099705"><ele>415.5</ele><time>2026-04-26T15:11:23.001Z</time></trkpt><trkpt lat="43.53193128024195" lon="11.30664459261398"><ele>417.75</ele><time>2026-04-26T15:11:24.001Z</time></trkpt><trkpt lat="43.53187672204284" lon="11.30650175186138"><ele>420.0</ele><time>2026-04-26T15:11:25.001Z</time></trkpt><trkpt lat="43.5318532462235" lon="11.30634499353926"><ele>420.0</ele><time>2026-04-26T15:11:26.001Z</time></trkpt><trkpt lat="43.531844546537165" lon="11.306189279266773"><ele>420.0</ele><time>2026-04-26T15:11:27.001Z</time></trkpt><trkpt lat="43.53184218313398" lon="11.306033040240148"><ele>420.0</ele><time>2026-04-26T15:11:28.001Z</time></trkpt><trkpt lat="43.53183497217349" lon="11.305873900228375"><ele>420.0</ele><time>2026-04-26T15:11:29.001Z</time></trkpt><trkpt lat="43.531842601899015" lon="11.30573635327078"><ele>420.0</ele><time>2026-04-26T15:11:30.001Z</time></trkpt><trkpt lat="43.53184843212051" lon="11.3056004852083"><ele>419.0</ele><time>2026-04-26T15:11:31.001Z</time></trkpt><trkpt lat="43.531852298909655" lon="11.305469320677478"><ele>418.0</ele><time>2026-04-26T15:11:32.001Z</time></trkpt><trkpt lat="43.53185698876536" lon="11.305343626426911"><ele>417.0</ele><time>2026-04-26T15:11:33.001Z</time></trkpt><trkpt lat="43.53186013667772" lon="11.305218632955143"><ele>416.0</ele><time>2026-04-26T15:11:34.001Z</time></trkpt><trkpt lat="43.53186697591673" lon="11.3050983324572"><ele>415.0</ele><time>2026-04-26T15:11:35.001Z</time></trkpt><trkpt lat="43.531868150188124" lon="11.304980733475201"><ele>415.00000000000006</ele><time>2026-04-26T15:11:36.001Z</time></trkpt><trkpt lat="43.53185372703365" lon="11.304866385431257"><ele>415.0</ele><time>2026-04-26T15:11:37.001Z</time></trkpt><trkpt lat="43.53182492024595" lon="11.304755440098258"><ele>415.0</ele><time>2026-04-26T15:11:38.001Z</time></trkpt><trkpt lat="43.53178719584902" lon="11.304647915143045"><ele>415.0</ele><time>2026-04-26T15:11:39Z</time></trkpt><trkpt lat="43.531737596053965" lon="11.304554326428502"><ele>415.00000000000006</ele><time>2026-04-26T15:11:40Z</time></trkpt><trkpt lat="43.53167619465573" lon="11.30447221248114"><ele>415.0</ele><time>2026-04-26T15:11:41Z</time></trkpt><trkpt lat="43.53160531073238" lon="11.304396469265207"><ele>414.2</ele><time>2026-04-26T15:11:42Z</time></trkpt><trkpt lat="43.531534908209956" lon="11.304318633859676"><ele>413.4</ele><time>2026-04-26T15:11:43Z</time></trkpt><trkpt lat="43.53145347956669" lon="11.304242194733531"><ele>412.6</ele><time>2026-04-26T15:11:44Z</time></trkpt><trkpt lat="43.531362639408904" lon="11.304171234323325"><ele>411.8</ele><time>2026-04-26T15:11:45Z</time></trkpt><trkpt lat="43.53126721575545" lon="11.304096428547252"><ele>411.0</ele><time>2026-04-26T15:11:46Z</time></trkpt><trkpt lat="43.53116738347929" lon="11.304025614918908"><ele>411.0</ele><time>2026-04-26T15:11:47Z</time></trkpt><trkpt lat="43.53106285704169" lon="11.303961998961817"><ele>411.0</ele><time>2026-04-26T15:11:48Z</time></trkpt><trkpt lat="43.53095033776849" lon="11.303914120891024"><ele>411.0</ele><time>2026-04-26T15:11:49Z</time></trkpt><trkpt lat="43.53082888691203" lon="11.303873299918918"><ele>411.0</ele><time>2026-04-26T15:11:50Z</time></trkpt><trkpt lat="43.53071417974909" lon="11.303843057893006"><ele>405.5</ele><time>2026-04-26T15:11:51Z</time></trkpt><trkpt lat="43.53059760493552" lon="11.303826472038102"><ele>400.0</ele><time>2026-04-26T15:11:52Z</time></trkpt><trkpt lat="43.530476061656174" lon="11.303819495838708"><ele>394.5</ele><time>2026-04-26T15:11:53Z</time></trkpt><trkpt lat="43.530355007129266" lon="11.30381687584727"><ele>389.0</ele><time>2026-04-26T15:11:54Z</time></trkpt><trkpt lat="43.530230846025916" lon="11.303815982552784"><ele>388.79999999999995</ele><time>2026-04-26T15:11:55Z</time></trkpt><trkpt lat="43.53011177814701" lon="11.303818653096863"><ele>388.59999999999997</ele><time>2026-04-26T15:11:56Z</time></trkpt><trkpt lat="43.5300006221316" lon="11.303831825481971"><ele>388.4</ele><time>2026-04-26T15:11:57Z</time></trkpt><trkpt lat="43.529898864389985" lon="11.303858129118659"><ele>388.2</ele><time>2026-04-26T15:11:58Z</time></trkpt><trkpt lat="43.52979843513028" lon="11.303889333850842"><ele>388.0</ele><time>2026-04-26T15:11:59Z</time></trkpt><trkpt lat="43.52970053922143" lon="11.303920586170058"><ele>387.4</ele><time>2026-04-26T15:12:00Z</time></trkpt><trkpt lat="43.52959873598141" lon="11.30393144552964"><ele>386.79999999999995</ele><time>2026-04-26T15:12:01Z</time></trkpt><trkpt lat="43.52948594298716" lon="11.303921834467257"><ele>386.2</ele><time>2026-04-26T15:12:02Z</time></trkpt><trkpt lat="43.529375305822334" lon="11.303903303531197"><ele>385.6</ele><time>2026-04-26T15:12:03Z</time></trkpt><trkpt lat="43.52926916105329" lon="11.30387841426838"><ele>385.0</ele><time>2026-04-26T15:12:04Z</time></trkpt><trkpt lat="43.52917288809873" lon="11.303861075043784"><ele>385.0</ele><time>2026-04-26T15:12:05Z</time></trkpt><trkpt lat="43.52907757512824" lon="11.303841090865017"><ele>385.0</ele><time>2026-04-26T15:12:06Z</time></trkpt><trkpt lat="43.52898310995306" lon="11.303820342931365"><ele>385.0</ele><time>2026-04-26T15:12:07Z</time></trkpt><trkpt lat="43.528888723329786" lon="11.303801549497297"><ele>385.0</ele><time>2026-04-26T15:12:08Z</time></trkpt><trkpt lat="43.52879824140168" lon="11.303799850237588"><ele>385.0</ele><time>2026-04-26T15:12:09Z</time></trkpt><trkpt lat="43.52870821277073" lon="11.30382222916823"><ele>384.6</ele><time>2026-04-26T15:12:10Z</time></trkpt><trkpt lat="43.52862242148226" lon="11.303857241643401"><ele>384.2</ele><time>2026-04-26T15:12:11Z</time></trkpt><trkpt lat="43.528536457874345" lon="11.30390390456312"><ele>383.79999999999995</ele><time>2026-04-26T15:12:12Z</time></trkpt><trkpt lat="43.52845148343958" lon="11.303946031262486"><ele>383.4</ele><time>2026-04-26T15:12:13Z</time></trkpt><trkpt lat="43.52836536675046" lon="11.30397494669282"><ele>383.0</ele><time>2026-04-26T15:12:14Z</time></trkpt><trkpt lat="43.52827539279464" lon="11.303982830527259"><ele>383.0</ele><time>2026-04-26T15:12:15Z</time></trkpt><trkpt lat="43.528180676594296" lon="11.303953748007114"><ele>383.0</ele><time>2026-04-26T15:12:16Z</time></trkpt><trkpt lat="43.528100701716866" lon="11.303885461059641"><ele>383.0</ele><time>2026-04-26T15:12:17Z</time></trkpt><trkpt lat="43.52804884600981" lon="11.303762645995015"><ele>383.0</ele><time>2026-04-26T15:12:18Z</time></trkpt><trkpt lat="43.52797781006467" lon="11.303653061512115"><ele>383.0</ele><time>2026-04-26T15:12:19Z</time></trkpt><trkpt lat="43.52792931025123" lon="11.303524949607194"><ele>384.2</ele><time>2026-04-26T15:12:20Z</time></trkpt><trkpt lat="43.52787231025124" lon="11.303403687098102"><ele>385.4</ele><time>2026-04-26T15:12:21Z</time></trkpt><trkpt lat="43.52779800900877" lon="11.303301783069443"><ele>386.59999999999997</ele><time>2026-04-26T15:12:22Z</time></trkpt><trkpt lat="43.5277126803289" lon="11.303229484600779"><ele>387.79999999999995</ele><time>2026-04-26T15:12:23Z</time></trkpt><trkpt lat="43.527613146503874" lon="11.303188013613587"><ele>389.0</ele><time>2026-04-26T15:12:24Z</time></trkpt><trkpt lat="43.52751083417828" lon="11.303159959605548"><ele>389.0</ele><time>2026-04-26T15:12:25Z</time></trkpt><trkpt lat="43.527410964584405" lon="11.303132798280462"><ele>389.0</ele><time>2026-04-26T15:12:26Z</time></trkpt><trkpt lat="43.52731250218849" lon="11.303066880718678"><ele>389.0</ele><time>2026-04-26T15:12:27Z</time></trkpt><trkpt lat="43.527238803745966" lon="11.302955717860419"><ele>389.0</ele><time>2026-04-26T15:12:28Z</time></trkpt><trkpt lat="43.527158591024495" lon="11.302848350907494"><ele>389.0</ele><time>2026-04-26T15:12:29Z</time></trkpt><trkpt lat="43.52707156104807" lon="11.302749415249695"><ele>387.0</ele><time>2026-04-26T15:12:30Z</time></trkpt><trkpt lat="43.52699327892265" lon="11.302637095524585"><ele>385.0</ele><time>2026-04-26T15:12:31Z</time></trkpt><trkpt lat="43.52691280148433" lon="11.302525844360204"><ele>383.0</ele><time>2026-04-26T15:12:32Z</time></trkpt><trkpt lat="43.52684084753129" lon="11.30241902740301"><ele>381.0</ele><time>2026-04-26T15:12:33Z</time></trkpt><trkpt lat="43.52677270735934" lon="11.30230818185083"><ele>379.0</ele><time>2026-04-26T15:12:34Z</time></trkpt><trkpt lat="43.52671497331114" lon="11.30218694646875"><ele>378.2</ele><time>2026-04-26T15:12:35Z</time></trkpt><trkpt lat="43.5266682213647" lon="11.302051177662456"><ele>377.4</ele><time>2026-04-26T15:12:36Z</time></trkpt><trkpt lat="43.52666467451508" lon="11.301897958229784"><ele>376.6</ele><time>2026-04-26T15:12:37Z</time></trkpt><trkpt lat="43.5266529388558" lon="11.30174686560877"><ele>375.8</ele><time>2026-04-26T15:12:38Z</time></trkpt><trkpt lat="43.526640579774195" lon="11.301594643477214"><ele>375.0</ele><time>2026-04-26T15:12:39Z</time></trkpt><trkpt lat="43.526622751687455" lon="11.301451997586454"><ele>374.4</ele><time>2026-04-26T15:12:40Z</time></trkpt><trkpt lat="43.526606798603346" lon="11.301308435666375"><ele>373.8</ele><time>2026-04-26T15:12:41Z</time></trkpt><trkpt lat="43.52659404311137" lon="11.301169547249375"><ele>373.20000000000005</ele><time>2026-04-26T15:12:42Z</time></trkpt><trkpt lat="43.526586840338794" lon="11.301036903041442"><ele>372.6</ele><time>2026-04-26T15:12:43Z</time></trkpt><trkpt lat="43.526563476423014" lon="11.300908661298546"><ele>372.0</ele><time>2026-04-26T15:12:44Z</time></trkpt><trkpt lat="43.52653696640999" lon="11.300780160875219"><ele>372.0</ele><time>2026-04-26T15:12:45Z</time></trkpt><trkpt lat="43.526489041175864" lon="11.300666486048135"><ele>372.0</ele><time>2026-04-26T15:12:46Z</time></trkpt><trkpt lat="43.52645249258626" lon="11.30053901922538"><ele>372.0</ele><time>2026-04-26T15:12:47Z</time></trkpt><trkpt lat="43.5264003039132" lon="11.30040598321092"><ele>372.0</ele><time>2026-04-26T15:12:48Z</time></trkpt><trkpt lat="43.526348811490216" lon="11.300272276276484"><ele>372.0</ele><time>2026-04-26T15:12:49Z</time></trkpt><trkpt lat="43.526292808480505" lon="11.300129614645982"><ele>372.0</ele><time>2026-04-26T15:12:50Z</time></trkpt><trkpt lat="43.52623722405577" lon="11.299995309031887"><ele>372.0</ele><time>2026-04-26T15:12:51Z</time></trkpt><trkpt lat="43.52616662971436" lon="11.299886253685038"><ele>372.0</ele><time>2026-04-26T15:12:52Z</time></trkpt><trkpt lat="43.526077680183846" lon="11.299810366736509"><ele>372.0</ele><time>2026-04-26T15:12:53Z</time></trkpt><trkpt lat="43.525975021277084" lon="11.299752149715216"><ele>372.0</ele><time>2026-04-26T15:12:54Z</time></trkpt><trkpt lat="43.52585901796473" lon="11.299724261786817"><ele>368.0</ele><time>2026-04-26T15:12:55Z</time></trkpt><trkpt lat="43.52574144220019" lon="11.29971970692557"><ele>364.0</ele><time>2026-04-26T15:12:56Z</time></trkpt><trkpt lat="43.5256292667746" lon="11.299701607523756"><ele>360.0</ele><time>2026-04-26T15:12:57Z</time></trkpt><trkpt lat="43.525512244463215" lon="11.299699971788767"><ele>356.0</ele><time>2026-04-26T15:12:58Z</time></trkpt><trkpt lat="43.52538696289482" lon="11.299718200721484"><ele>356.0</ele><time>2026-04-26T15:12:59Z</time></trkpt><trkpt lat="43.52528880778083" lon="11.299736486643368"><ele>356.0</ele><time>2026-04-26T15:13:00Z</time></trkpt><trkpt lat="43.52519041266413" lon="11.299792282500835"><ele>356.0</ele><time>2026-04-26T15:13:01Z</time></trkpt><trkpt lat="43.52510817999208" lon="11.299890095004299"><ele>356.0</ele><time>2026-04-26T15:13:02Z</time></trkpt><trkpt lat="43.52505360014522" lon="11.300007635087319"><ele>356.0</ele><time>2026-04-26T15:13:03Z</time></trkpt><trkpt lat="43.52501809031401" lon="11.300149309705333"><ele>357.4</ele><time>2026-04-26T15:13:04Z</time></trkpt><trkpt lat="43.524982392047235" lon="11.300293578894603"><ele>358.8</ele><time>2026-04-26T15:13:05Z</time></trkpt><trkpt lat="43.52494869239791" lon="11.300431432008917"><ele>360.2</ele><time>2026-04-26T15:13:06Z</time></trkpt><trkpt lat="43.524921730611915" lon="11.300571744482811"><ele>361.59999999999997</ele><time>2026-04-26T15:13:07Z</time></trkpt><trkpt lat="43.52489209212433" lon="11.300705383660896"><ele>363.0</ele><time>2026-04-26T15:13:08Z</time></trkpt><trkpt lat="43.52486671151159" lon="11.300841900980563"><ele>363.0</ele><time>2026-04-26T15:13:09Z</time></trkpt><trkpt lat="43.52485046560733" lon="11.300971991899704"><ele>363.0</ele><time>2026-04-26T15:13:10Z</time></trkpt><trkpt lat="43.52485784568714" lon="11.301109998514772"><ele>363.0</ele><time>2026-04-26T15:13:11Z</time></trkpt><trkpt lat="43.524896674614695" lon="11.301247183846233"><ele>363.0</ele><time>2026-04-26T15:13:12Z</time></trkpt><trkpt lat="43.524961551035894" lon="11.301362535619667"><ele>363.0</ele><time>2026-04-26T15:13:13Z</time></trkpt><trkpt lat="43.52505104408615" lon="11.301458080752623"><ele>362.0</ele><time>2026-04-26T15:13:14Z</time></trkpt><trkpt lat="43.52513986196949" lon="11.301545021322854"><ele>361.0</ele><time>2026-04-26T15:13:15Z</time></trkpt><trkpt lat="43.52522692095765" lon="11.301630337937159"><ele>360.0</ele><time>2026-04-26T15:13:16Z</time></trkpt><trkpt lat="43.52530508260454" lon="11.301719009734658"><ele>359.0</ele><time>2026-04-26T15:13:17Z</time></trkpt><trkpt lat="43.52537907650723" lon="11.301797234327967"><ele>358.0</ele><time>2026-04-26T15:13:18Z</time></trkpt><trkpt lat="43.525452250404854" lon="11.301876485775566"><ele>359.3333333333333</ele><time>2026-04-26T15:13:19Z</time></trkpt><trkpt lat="43.52551624344037" lon="11.30195630326082"><ele>360.66666666666663</ele><time>2026-04-26T15:13:20Z</time></trkpt><trkpt lat="43.525571145873684" lon="11.30205085637172"><ele>362.0</ele><time>2026-04-26T15:13:21Z</time></trkpt><trkpt lat="43.525604415397574" lon="11.302151499619917"><ele>363.3333333333333</ele><time>2026-04-26T15:13:22Z</time></trkpt><trkpt lat="43.525625012815496" lon="11.302263686906986"><ele>364.6666666666667</ele><time>2026-04-26T15:13:23Z</time></trkpt><trkpt lat="43.525625480061734" lon="11.302374669946497"><ele>366.0</ele><time>2026-04-26T15:13:24Z</time></trkpt><trkpt lat="43.52560824615909" lon="11.302481520912494"><ele>366.0</ele><time>2026-04-26T15:13:25Z</time></trkpt><trkpt lat="43.52556483485363" lon="11.30257152467542"><ele>366.0</ele><time>2026-04-26T15:13:26Z</time></trkpt><trkpt lat="43.5254966011929" lon="11.302630452021445"><ele>366.0</ele><time>2026-04-26T15:13:27Z</time></trkpt><trkpt lat="43.52541944838381" lon="11.302639613224793"><ele>366.0</ele><time>2026-04-26T15:13:28Z</time></trkpt><trkpt lat="43.525341873104445" lon="11.302605691138101"><ele>366.0</ele><time>2026-04-26T15:13:29Z</time></trkpt><trkpt lat="43.525250121278795" lon="11.302637077123741"><ele>366.0</ele><time>2026-04-26T15:13:30.001Z</time></trkpt><trkpt lat="43.52514946264145" lon="11.302684223740108"><ele>363.8</ele><time>2026-04-26T15:13:31.001Z</time></trkpt><trkpt lat="43.5250542685529" lon="11.302720438875003"><ele>361.6</ele><time>2026-04-26T15:13:32.001Z</time></trkpt><trkpt lat="43.52495222204107" lon="11.30273656733522"><ele>359.4</ele><time>2026-04-26T15:13:33.001Z</time></trkpt><trkpt lat="43.524857176188014" lon="11.302753760599737"><ele>357.2</ele><time>2026-04-26T15:13:34.001Z</time></trkpt><trkpt lat="43.52476787610142" lon="11.3027818350395"><ele>355.0</ele><time>2026-04-26T15:13:35.001Z</time></trkpt><trkpt lat="43.524685089743315" lon="11.302826711121792"><ele>355.0</ele><time>2026-04-26T15:13:36.001Z</time></trkpt><trkpt lat="43.52460506257802" lon="11.302890712609443"><ele>355.0</ele><time>2026-04-26T15:13:37.001Z</time></trkpt><trkpt lat="43.52453462579493" lon="11.302960409371616"><ele>355.0</ele><time>2026-04-26T15:13:38.001Z</time></trkpt><trkpt lat="43.52447317558335" lon="11.303046852468027"><ele>355.0</ele><time>2026-04-26T15:13:39.001Z</time></trkpt><trkpt lat="43.52441771155356" lon="11.303130830933695"><ele>355.0</ele><time>2026-04-26T15:13:40.001Z</time></trkpt><trkpt lat="43.52437064048548" lon="11.303216634128415"><ele>355.0</ele><time>2026-04-26T15:13:41.001Z</time></trkpt><trkpt lat="43.52434289412422" lon="11.303310423481951"><ele>355.5</ele><time>2026-04-26T15:13:42.001Z</time></trkpt><trkpt lat="43.52433207108424" lon="11.303421091739834"><ele>356.0</ele><time>2026-04-26T15:13:43.001Z</time></trkpt><trkpt lat="43.524354312241435" lon="11.303536411678426"><ele>356.5</ele><time>2026-04-26T15:13:44.001Z</time></trkpt><trkpt lat="43.5244016403424" lon="11.303637739500486"><ele>357.0</ele><time>2026-04-26T15:13:45Z</time></trkpt><trkpt lat="43.52447168135721" lon="11.303722838914444"><ele>357.5</ele><time>2026-04-26T15:13:46Z</time></trkpt><trkpt lat="43.52455411475882" lon="11.303775422648515"><ele>358.0</ele><time>2026-04-26T15:13:47Z</time></trkpt><trkpt lat="43.52464452535414" lon="11.303828083208558"><ele>358.0</ele><time>2026-04-26T15:13:48Z</time></trkpt><trkpt lat="43.52474962758181" lon="11.303897659297046"><ele>358.0</ele><time>2026-04-26T15:13:49Z</time></trkpt><trkpt lat="43.52485009391481" lon="11.303965318422545"><ele>358.0</ele><time>2026-04-26T15:13:50Z</time></trkpt><trkpt lat="43.524958240422116" lon="11.304037567250845"><ele>358.0</ele><time>2026-04-26T15:13:51Z</time></trkpt><trkpt lat="43.525055675459335" lon="11.304130919458878"><ele>355.5</ele><time>2026-04-26T15:13:52Z</time></trkpt><trkpt lat="43.52511726621819" lon="11.304288117057691"><ele>353.0</ele><time>2026-04-26T15:13:53Z</time></trkpt><trkpt lat="43.525193980035084" lon="11.304442018302945"><ele>350.5</ele><time>2026-04-26T15:13:54Z</time></trkpt><trkpt lat="43.52527735050901" lon="11.304581601545056"><ele>348.0</ele><time>2026-04-26T15:13:55Z</time></trkpt><trkpt lat="43.52533939998449" lon="11.30473815924907"><ele>349.5</ele><time>2026-04-26T15:13:56Z</time></trkpt><trkpt lat="43.52540415679591" lon="11.3048934161561"><ele>351.0</ele><time>2026-04-26T15:13:57Z</time></trkpt><trkpt lat="43.52548367002042" lon="11.305042618389347"><ele>352.5</ele><time>2026-04-26T15:13:58Z</time></trkpt><trkpt lat="43.52554856921005" lon="11.305195825626885"><ele>354.0</ele><time>2026-04-26T15:13:59Z</time></trkpt><trkpt lat="43.52561577141308" lon="11.305348012694814"><ele>354.0</ele><time>2026-04-26T15:14:00Z</time></trkpt><trkpt lat="43.52567782671979" lon="11.305504407633187"><ele>354.0</ele><time>2026-04-26T15:14:01Z</time></trkpt><trkpt lat="43.52573104908837" lon="11.305655586629676"><ele>354.0</ele><time>2026-04-26T15:14:02Z</time></trkpt><trkpt lat="43.52576492922091" lon="11.305789360165221"><ele>354.0</ele><time>2026-04-26T15:14:03Z</time></trkpt><trkpt lat="43.52576563212001" lon="11.305917444425537"><ele>354.0</ele><time>2026-04-26T15:14:04Z</time></trkpt><trkpt lat="43.52573004792758" lon="11.306045150279807"><ele>352.25</ele><time>2026-04-26T15:14:05Z</time></trkpt><trkpt lat="43.52566505835227" lon="11.306166281157719"><ele>350.5</ele><time>2026-04-26T15:14:06Z</time></trkpt><trkpt lat="43.52556605102069" lon="11.306242801718538"><ele>348.75</ele><time>2026-04-26T15:14:07Z</time></trkpt><trkpt lat="43.52545462768733" lon="11.306267439180607"><ele>347.0</ele><time>2026-04-26T15:14:08Z</time></trkpt><trkpt lat="43.52533815810789" lon="11.306215935662804"><ele>344.75</ele><time>2026-04-26T15:14:09Z</time></trkpt><trkpt lat="43.525210044919795" lon="11.306200004089364"><ele>342.5</ele><time>2026-04-26T15:14:10Z</time></trkpt><trkpt lat="43.52507935365258" lon="11.306163920897689"><ele>340.25</ele><time>2026-04-26T15:14:11Z</time></trkpt><trkpt lat="43.52494741202242" lon="11.306129668937457"><ele>338.0</ele><time>2026-04-26T15:14:12Z</time></trkpt><trkpt lat="43.52481561317961" lon="11.30608778535584"><ele>338.0</ele><time>2026-04-26T15:14:13Z</time></trkpt><trkpt lat="43.52468447940385" lon="11.30604667273099"><ele>338.0</ele><time>2026-04-26T15:14:14Z</time></trkpt><trkpt lat="43.52454315229802" lon="11.306037262255316"><ele>338.0</ele><time>2026-04-26T15:14:15Z</time></trkpt><trkpt lat="43.52441860370364" lon="11.305981846923299"><ele>338.0</ele><time>2026-04-26T15:14:16Z</time></trkpt><trkpt lat="43.52428797655885" lon="11.305946263448323"><ele>337.75</ele><time>2026-04-26T15:14:17Z</time></trkpt><trkpt lat="43.52415097145581" lon="11.305931018548522"><ele>337.5</ele><time>2026-04-26T15:14:18Z</time></trkpt><trkpt lat="43.524014235891016" lon="11.3058931496292"><ele>337.25</ele><time>2026-04-26T15:14:19Z</time></trkpt><trkpt lat="43.523878981136804" lon="11.305854744621826"><ele>337.0</ele><time>2026-04-26T15:14:20Z</time></trkpt><trkpt lat="43.52374676621829" lon="11.305818107995375"><ele>336.75</ele><time>2026-04-26T15:14:21Z</time></trkpt><trkpt lat="43.52361244846249" lon="11.30578873243247"><ele>336.5</ele><time>2026-04-26T15:14:22Z</time></trkpt><trkpt lat="43.52348816711908" lon="11.305762189914594"><ele>336.25</ele><time>2026-04-26T15:14:23Z</time></trkpt><trkpt lat="43.523360452944" lon="11.305710047651843"><ele>336.0</ele><time>2026-04-26T15:14:24Z</time></trkpt><trkpt lat="43.52323263842451" lon="11.30568906525079"><ele>336.0</ele><time>2026-04-26T15:14:25Z</time></trkpt><trkpt lat="43.52310514669365" lon="11.305652244669586"><ele>336.0</ele><time>2026-04-26T15:14:26Z</time></trkpt><trkpt lat="43.52298354520394" lon="11.30559070326246"><ele>336.0</ele><time>2026-04-26T15:14:27Z</time></trkpt><trkpt lat="43.52287167476437" lon="11.305518120134673"><ele>336.0</ele><time>2026-04-26T15:14:28Z</time></trkpt><trkpt lat="43.52276818722338" lon="11.305422755316894"><ele>332.25</ele><time>2026-04-26T15:14:29Z</time></trkpt><trkpt lat="43.522653949427976" lon="11.305346292450704"><ele>328.5</ele><time>2026-04-26T15:14:30Z</time></trkpt><trkpt lat="43.52255093639428" lon="11.305269918153881"><ele>324.75</ele><time>2026-04-26T15:14:31Z</time></trkpt><trkpt lat="43.52244360134615" lon="11.305199274207736"><ele>321.0</ele><time>2026-04-26T15:14:32Z</time></trkpt><trkpt lat="43.522337016071425" lon="11.30513004252527"><ele>321.0</ele><time>2026-04-26T15:14:33Z</time></trkpt><trkpt lat="43.52222293122199" lon="11.305079014944528"><ele>321.0</ele><time>2026-04-26T15:14:34Z</time></trkpt><trkpt lat="43.52210274403063" lon="11.305042256673675"><ele>321.0</ele><time>2026-04-26T15:14:35Z</time></trkpt><trkpt lat="43.52198291789755" lon="11.305006317385361"><ele>321.0</ele><time>2026-04-26T15:14:36Z</time></trkpt><trkpt lat="43.52185777447895" lon="11.304976642443656"><ele>319.75</ele><time>2026-04-26T15:14:37Z</time></trkpt><trkpt lat="43.52173184121073" lon="11.304962758520615"><ele>318.5</ele><time>2026-04-26T15:14:38Z</time></trkpt><trkpt lat="43.521609177550644" lon="11.304967462914423"><ele>317.25</ele><time>2026-04-26T15:14:39Z</time></trkpt><trkpt lat="43.52148255265905" lon="11.304988257296499"><ele>316.0</ele><time>2026-04-26T15:14:40Z</time></trkpt><trkpt lat="43.521371902214646" lon="11.305018917282386"><ele>316.0</ele><time>2026-04-26T15:14:41Z</time></trkpt><trkpt lat="43.52126409500883" lon="11.30505416938026"><ele>316.0</ele><time>2026-04-26T15:14:42Z</time></trkpt><trkpt lat="43.52117455001745" lon="11.305107624147372"><ele>316.0</ele><time>2026-04-26T15:14:43Z</time></trkpt><trkpt lat="43.52109506575817" lon="11.305204539171205"><ele>316.0</ele><time>2026-04-26T15:14:44Z</time></trkpt><trkpt lat="43.521031819542884" lon="11.305336936621876"><ele>316.0</ele><time>2026-04-26T15:14:45Z</time></trkpt><trkpt lat="43.52100194519392" lon="11.305490717010915"><ele>314.25</ele><time>2026-04-26T15:14:46Z</time></trkpt><trkpt lat="43.520994815740735" lon="11.305646907736117"><ele>312.5</ele><time>2026-04-26T15:14:47Z</time></trkpt><trkpt lat="43.521011053930586" lon="11.305811521371274"><ele>310.75</ele><time>2026-04-26T15:14:48Z</time></trkpt><trkpt lat="43.52103513789424" lon="11.30597391644342"><ele>309.0</ele><time>2026-04-26T15:14:49Z</time></trkpt><trkpt lat="43.521056184242504" lon="11.306139999894432"><ele>309.0</ele><time>2026-04-26T15:14:50Z</time></trkpt><trkpt lat="43.52107409175647" lon="11.306305957494786"><ele>309.0</ele><time>2026-04-26T15:14:51Z</time></trkpt><trkpt lat="43.52108251758942" lon="11.306465486448555"><ele>309.0</ele><time>2026-04-26T15:14:52Z</time></trkpt><trkpt lat="43.521097855654624" lon="11.306634259244682"><ele>309.0</ele><time>2026-04-26T15:14:53Z</time></trkpt><trkpt lat="43.521110656977285" lon="11.30680441709043"><ele>308.4</ele><time>2026-04-26T15:14:54Z</time></trkpt><trkpt lat="43.5211244438829" lon="11.306969854355893"><ele>307.79999999999995</ele><time>2026-04-26T15:14:55Z</time></trkpt><trkpt lat="43.52113910907223" lon="11.307116241344142"><ele>307.20000000000005</ele><time>2026-04-26T15:14:56Z</time></trkpt><trkpt lat="43.52114211711765" lon="11.307254090346527"><ele>306.6</ele><time>2026-04-26T15:14:57Z</time></trkpt><trkpt lat="43.521109117389464" lon="11.307390286199729"><ele>306.0</ele><time>2026-04-26T15:14:58Z</time></trkpt><trkpt lat="43.5210344738452" lon="11.307504073127344"><ele>306.0</ele><time>2026-04-26T15:14:59Z</time></trkpt><trkpt lat="43.520931269650845" lon="11.307557796622643"><ele>306.0</ele><time>2026-04-26T15:15:00Z</time></trkpt><trkpt lat="43.520827976700836" lon="11.30757965368702"><ele>306.0</ele><time>2026-04-26T15:15:01Z</time></trkpt><trkpt lat="43.520721133249246" lon="11.307587304446425"><ele>306.0</ele><time>2026-04-26T15:15:02Z</time></trkpt><trkpt lat="43.52063234356407" lon="11.307611943495573"><ele>306.0</ele><time>2026-04-26T15:15:03Z</time></trkpt><trkpt lat="43.520555096633856" lon="11.307688591674708"><ele>306.0</ele><time>2026-04-26T15:15:04Z</time></trkpt><trkpt lat="43.52049041915714" lon="11.307810357267151"><ele>306.0</ele><time>2026-04-26T15:15:05Z</time></trkpt><trkpt lat="43.5204455102277" lon="11.307949931262568"><ele>306.0</ele><time>2026-04-26T15:15:06Z</time></trkpt><trkpt lat="43.520403337325874" lon="11.30808809476515"><ele>306.0</ele><time>2026-04-26T15:15:07Z</time></trkpt><trkpt lat="43.52035739535601" lon="11.30821543452832"><ele>306.0</ele><time>2026-04-26T15:15:08Z</time></trkpt><trkpt lat="43.52031028300322" lon="11.308344177531188"><ele>303.8</ele><time>2026-04-26T15:15:09Z</time></trkpt><trkpt lat="43.52025672645421" lon="11.308480934452792"><ele>301.6</ele><time>2026-04-26T15:15:10Z</time></trkpt><trkpt lat="43.52020102678922" lon="11.308616469674728"><ele>299.4</ele><time>2026-04-26T15:15:11Z</time></trkpt><trkpt lat="43.520151330560495" lon="11.308759790501679"><ele>297.2</ele><time>2026-04-26T15:15:12Z</time></trkpt><trkpt lat="43.52011011353984" lon="11.308898321893027"><ele>295.0</ele><time>2026-04-26T15:15:13Z</time></trkpt><trkpt lat="43.52008777036069" lon="11.309044038445519"><ele>294.6</ele><time>2026-04-26T15:15:14Z</time></trkpt><trkpt lat="43.520115385725944" lon="11.30918813288157"><ele>294.2</ele><time>2026-04-26T15:15:15Z</time></trkpt><trkpt lat="43.52014775780854" lon="11.309328141740012"><ele>293.8</ele><time>2026-04-26T15:15:16Z</time></trkpt><trkpt lat="43.520179997917595" lon="11.309472723545904"><ele>293.4</ele><time>2026-04-26T15:15:17Z</time></trkpt><trkpt lat="43.52020047617738" lon="11.309627464881684"><ele>293.0</ele><time>2026-04-26T15:15:18Z</time></trkpt><trkpt lat="43.5202030057748" lon="11.309787569144945"><ele>291.5</ele><time>2026-04-26T15:15:19Z</time></trkpt><trkpt lat="43.52020169210718" lon="11.30994900918988"><ele>290.0</ele><time>2026-04-26T15:15:20Z</time></trkpt><trkpt lat="43.52019936181014" lon="11.310125478958117"><ele>288.5</ele><time>2026-04-26T15:15:21Z</time></trkpt><trkpt lat="43.52020025615144" lon="11.310280106033044"><ele>287.0</ele><time>2026-04-26T15:15:22Z</time></trkpt><trkpt lat="43.52020016312232" lon="11.310438909338679"><ele>286.75</ele><time>2026-04-26T15:15:23Z</time></trkpt><trkpt lat="43.5202000332312" lon="11.310604933805937"><ele>286.5</ele><time>2026-04-26T15:15:24Z</time></trkpt><trkpt lat="43.52019835565511" lon="11.310771863851992"><ele>286.25</ele><time>2026-04-26T15:15:25Z</time></trkpt><trkpt lat="43.520196593721245" lon="11.310938302173316"><ele>286.0</ele><time>2026-04-26T15:15:26Z</time></trkpt><trkpt lat="43.52019466299016" lon="11.31110573166455"><ele>286.0</ele><time>2026-04-26T15:15:27Z</time></trkpt><trkpt lat="43.52019900711272" lon="11.311264898901186"><ele>286.0</ele><time>2026-04-26T15:15:28Z</time></trkpt><trkpt lat="43.520185793432866" lon="11.31141566643997"><ele>286.0</ele><time>2026-04-26T15:15:29Z</time></trkpt><trkpt lat="43.52016338989427" lon="11.311554344517942"><ele>286.0</ele><time>2026-04-26T15:15:30Z</time></trkpt><trkpt lat="43.52010317441276" lon="11.311679749493692"><ele>286.0</ele><time>2026-04-26T15:15:31Z</time></trkpt><trkpt lat="43.520017040725214" lon="11.311778542370078"><ele>286.5</ele><time>2026-04-26T15:15:32.001Z</time></trkpt><trkpt lat="43.51991584723692" lon="11.311850532782817"><ele>287.0</ele><time>2026-04-26T15:15:33.001Z</time></trkpt><trkpt lat="43.5198018829155" lon="11.311831723502692"><ele>287.5</ele><time>2026-04-26T15:15:34.001Z</time></trkpt><trkpt lat="43.51968774260561" lon="11.311826929630783"><ele>288.0</ele><time>2026-04-26T15:15:35.001Z</time></trkpt><trkpt lat="43.51958115088773" lon="11.311801740895328"><ele>287.4</ele><time>2026-04-26T15:15:36.001Z</time></trkpt><trkpt lat="43.519480572109075" lon="11.311758455577857"><ele>286.8</ele><time>2026-04-26T15:15:37.001Z</time></trkpt><trkpt lat="43.51938077141507" lon="11.31172195268977"><ele>286.2</ele><time>2026-04-26T15:15:38.001Z</time></trkpt><trkpt lat="43.51928381324905" lon="11.311687490812895"><ele>285.6</ele><time>2026-04-26T15:15:39.001Z</time></trkpt><trkpt lat="43.51919152433985" lon="11.31165942726811"><ele>285.0</ele><time>2026-04-26T15:15:40.001Z</time></trkpt><trkpt lat="43.51910219193109" lon="11.311641425635859"><ele>285.0</ele><time>2026-04-26T15:15:41.001Z</time></trkpt><trkpt lat="43.51901079015326" lon="11.311609871696264"><ele>285.0</ele><time>2026-04-26T15:15:42.001Z</time></trkpt><trkpt lat="43.518921916533756" lon="11.31158184359714"><ele>285.0</ele><time>2026-04-26T15:15:43.001Z</time></trkpt><trkpt lat="43.51883086941512" lon="11.311573519722266"><ele>285.0</ele><time>2026-04-26T15:15:44.001Z</time></trkpt><trkpt lat="43.51874160246466" lon="11.311578928868936"><ele>285.0</ele><time>2026-04-26T15:15:45.001Z</time></trkpt><trkpt lat="43.51865500866686" lon="11.311610127386881"><ele>285.2</ele><time>2026-04-26T15:15:46.001Z</time></trkpt><trkpt lat="43.518565293934586" lon="11.311639406357653"><ele>285.4</ele><time>2026-04-26T15:15:47.001Z</time></trkpt><trkpt lat="43.51846791158359" lon="11.311668132099808"><ele>285.6</ele><time>2026-04-26T15:15:48.001Z</time></trkpt><trkpt lat="43.51837603346271" lon="11.311707497680064"><ele>285.8</ele><time>2026-04-26T15:15:49.001Z</time></trkpt><trkpt lat="43.51828590696132" lon="11.311748413612378"><ele>286.0</ele><time>2026-04-26T15:15:50.001Z</time></trkpt><trkpt lat="43.51819187102274" lon="11.311788312584177"><ele>286.0</ele><time>2026-04-26T15:15:51Z</time></trkpt><trkpt lat="43.518098780732636" lon="11.311833338071716"><ele>286.0</ele><time>2026-04-26T15:15:52Z</time></trkpt><trkpt lat="43.51800118572036" lon="11.311875423712056"><ele>286.0</ele><time>2026-04-26T15:15:53Z</time></trkpt><trkpt lat="43.517904647852035" lon="11.311922817700403"><ele>286.0</ele><time>2026-04-26T15:15:54Z</time></trkpt><trkpt lat="43.51781418275611" lon="11.311957472985828"><ele>286.0</ele><time>2026-04-26T15:15:55Z</time></trkpt><trkpt lat="43.51772802759517" lon="11.311994092284104"><ele>285.6</ele><time>2026-04-26T15:15:56Z</time></trkpt><trkpt lat="43.51763817732929" lon="11.312034625001822"><ele>285.20000000000005</ele><time>2026-04-26T15:15:57Z</time></trkpt><trkpt lat="43.51754937488675" lon="11.312070341647564"><ele>284.79999999999995</ele><time>2026-04-26T15:15:58Z</time></trkpt><trkpt lat="43.51745531182995" lon="11.312108779618208"><ele>284.4</ele><time>2026-04-26T15:15:59Z</time></trkpt><trkpt lat="43.517364793543805" lon="11.312157309675396"><ele>284.0</ele><time>2026-04-26T15:16:00Z</time></trkpt><trkpt lat="43.51727381771102" lon="11.312202418998897"><ele>284.8</ele><time>2026-04-26T15:16:01Z</time></trkpt><trkpt lat="43.51717157983474" lon="11.31224529445057"><ele>285.59999999999997</ele><time>2026-04-26T15:16:02Z</time></trkpt><trkpt lat="43.51707097094311" lon="11.312286311106401"><ele>286.4</ele><time>2026-04-26T15:16:03Z</time></trkpt><trkpt lat="43.516971805126026" lon="11.312327846122436"><ele>287.2</ele><time>2026-04-26T15:16:04Z</time></trkpt><trkpt lat="43.51687463422658" lon="11.312365836934287"><ele>288.0</ele><time>2026-04-26T15:16:05Z</time></trkpt><trkpt lat="43.51678513343635" lon="11.312420325522698"><ele>288.0</ele><time>2026-04-26T15:16:06Z</time></trkpt><trkpt lat="43.516701045234974" lon="11.312503978321502"><ele>288.0</ele><time>2026-04-26T15:16:07Z</time></trkpt><trkpt lat="43.51661669847631" lon="11.312605768939619"><ele>288.0</ele><time>2026-04-26T15:16:08Z</time></trkpt><trkpt lat="43.516562375317115" lon="11.312728995704578"><ele>288.0</ele><time>2026-04-26T15:16:09Z</time></trkpt><trkpt lat="43.51652956637779" lon="11.312870311941897"><ele>288.0</ele><time>2026-04-26T15:16:10Z</time></trkpt><trkpt lat="43.51650837346143" lon="11.31301905159593"><ele>289.6</ele><time>2026-04-26T15:16:11Z</time></trkpt><trkpt lat="43.51650588779379" lon="11.31317001819829"><ele>291.20000000000005</ele><time>2026-04-26T15:16:12Z</time></trkpt><trkpt lat="43.516511413471854" lon="11.313320215125215"><ele>292.8</ele><time>2026-04-26T15:16:13Z</time></trkpt><trkpt lat="43.51651505387803" lon="11.313467019670084"><ele>294.40000000000003</ele><time>2026-04-26T15:16:14Z</time></trkpt><trkpt lat="43.516523479262204" lon="11.313613283035926"><ele>296.0</ele><time>2026-04-26T15:16:15Z</time></trkpt><trkpt lat="43.51654006700903" lon="11.313759649058529"><ele>296.2</ele><time>2026-04-26T15:16:16Z</time></trkpt><trkpt lat="43.51655402859437" lon="11.313906742749078"><ele>296.40000000000003</ele><time>2026-04-26T15:16:17Z</time></trkpt><trkpt lat="43.516555261265054" lon="11.314049719499105"><ele>296.6</ele><time>2026-04-26T15:16:18Z</time></trkpt><trkpt lat="43.51656739331154" lon="11.314180792548585"><ele>296.8</ele><time>2026-04-26T15:16:19Z</time></trkpt><trkpt lat="43.516582372676154" lon="11.314293987014889"><ele>297.0</ele><time>2026-04-26T15:16:20Z</time></trkpt><trkpt lat="43.516581315894925" lon="11.314390312728658"><ele>297.0</ele><time>2026-04-26T15:16:21Z</time></trkpt><trkpt lat="43.51660138172359" lon="11.31449699293906"><ele>297.0</ele><time>2026-04-26T15:16:22Z</time></trkpt><trkpt lat="43.51660581357227" lon="11.314593250230065"><ele>297.0</ele><time>2026-04-26T15:16:23Z</time></trkpt><trkpt lat="43.516587673566164" lon="11.314769159643042"><ele>297.0</ele><time>2026-04-26T15:16:25Z</time></trkpt><trkpt lat="43.516567986368834" lon="11.314856072964071"><ele>297.0</ele><time>2026-04-26T15:16:26Z</time></trkpt><trkpt lat="43.51655212349191" lon="11.314941740662327"><ele>297.0</ele><time>2026-04-26T15:16:27Z</time></trkpt><trkpt lat="43.51651694528975" lon="11.315045689206402"><ele>296.8333333333333</ele><time>2026-04-26T15:16:28Z</time></trkpt><trkpt lat="43.51648458664258" lon="11.315137847139114"><ele>296.6666666666667</ele><time>2026-04-26T15:16:29Z</time></trkpt><trkpt lat="43.51644855329868" lon="11.315235679646486"><ele>296.5</ele><time>2026-04-26T15:16:30Z</time></trkpt><trkpt lat="43.51640140305034" lon="11.315330595405223"><ele>296.33333333333337</ele><time>2026-04-26T15:16:31Z</time></trkpt><trkpt lat="43.51636050664155" lon="11.31544223970122"><ele>296.1666666666667</ele><time>2026-04-26T15:16:32Z</time></trkpt><trkpt lat="43.516310801867824" lon="11.315555482147964"><ele>296.0</ele><time>2026-04-26T15:16:33Z</time></trkpt><trkpt lat="43.516255367129304" lon="11.315662796841709"><ele>295.2</ele><time>2026-04-26T15:16:34Z</time></trkpt><trkpt lat="43.516188312658414" lon="11.315759561519908"><ele>294.40000000000003</ele><time>2026-04-26T15:16:35Z</time></trkpt><trkpt lat="43.516113223489135" lon="11.31584743171062"><ele>293.6</ele><time>2026-04-26T15:16:36Z</time></trkpt><trkpt lat="43.51603316812313" lon="11.31592171274542"><ele>292.8</ele><time>2026-04-26T15:16:37Z</time></trkpt><trkpt lat="43.51595802277392" lon="11.315982486861445"><ele>292.0</ele><time>2026-04-26T15:16:39Z</time></trkpt><trkpt lat="43.51588793975176" lon="11.316020307951444"><ele>292.0</ele><time>2026-04-26T15:17:53.001Z</time></trkpt><trkpt lat="43.516002238693694" lon="11.315843230204747"><ele>292.0</ele><time>2026-04-26T15:18:03Z</time></trkpt><trkpt lat="43.51602893407746" lon="11.3156792082349"><ele>292.0</ele><time>2026-04-26T15:18:04Z</time></trkpt><trkpt lat="43.5160778993732" lon="11.315577860361097"><ele>292.0</ele><time>2026-04-26T15:18:05Z</time></trkpt><trkpt lat="43.516250748378766" lon="11.31565750289197"><ele>292.8</ele><time>2026-04-26T15:18:06Z</time></trkpt><trkpt lat="43.51631647664048" lon="11.315559387181748"><ele>293.6</ele><time>2026-04-26T15:18:07Z</time></trkpt><trkpt lat="43.51637454389553" lon="11.31543901444676"><ele>294.40000000000003</ele><time>2026-04-26T15:18:08Z</time></trkpt><trkpt lat="43.516425688383634" lon="11.315317754386438"><ele>295.2</ele><time>2026-04-26T15:18:09Z</time></trkpt><trkpt lat="43.51648943900509" lon="11.315203034567489"><ele>296.0</ele><time>2026-04-26T15:18:10Z</time></trkpt><trkpt lat="43.5165355105032" lon="11.315075497445953"><ele>296.0</ele><time>2026-04-26T15:18:11Z</time></trkpt><trkpt lat="43.516575465021546" lon="11.31494782035352"><ele>296.0</ele><time>2026-04-26T15:18:12Z</time></trkpt><trkpt lat="43.51662074241284" lon="11.314826756180858"><ele>296.0</ele><time>2026-04-26T15:18:13Z</time></trkpt><trkpt lat="43.51662303054478" lon="11.314699955352568"><ele>296.0</ele><time>2026-04-26T15:18:14Z</time></trkpt><trkpt lat="43.516627759925235" lon="11.314586587582479"><ele>296.0</ele><time>2026-04-26T15:18:15Z</time></trkpt><trkpt lat="43.516626739079825" lon="11.314468990591367"><ele>296.0</ele><time>2026-04-26T15:18:16Z</time></trkpt><trkpt lat="43.51661433453322" lon="11.314344297909958"><ele>296.0</ele><time>2026-04-26T15:18:17Z</time></trkpt><trkpt lat="43.516597654725715" lon="11.314224977224894"><ele>296.0</ele><time>2026-04-26T15:18:18Z</time></trkpt><trkpt lat="43.51658602249164" lon="11.314119776802073"><ele>296.0</ele><time>2026-04-26T15:18:19Z</time></trkpt><trkpt lat="43.51657598201076" lon="11.31398798070862"><ele>296.0</ele><time>2026-04-26T15:18:20Z</time></trkpt><trkpt lat="43.516566367205776" lon="11.31386083156036"><ele>296.0</ele><time>2026-04-26T15:18:21Z</time></trkpt><trkpt lat="43.516571522299124" lon="11.313735009900334"><ele>296.0</ele><time>2026-04-26T15:18:22Z</time></trkpt><trkpt lat="43.51655999543721" lon="11.313601716635308"><ele>296.0</ele><time>2026-04-26T15:18:23Z</time></trkpt><trkpt lat="43.51655455133372" lon="11.313469195759017"><ele>296.0</ele><time>2026-04-26T15:18:24Z</time></trkpt><trkpt lat="43.5165485712912" lon="11.313340886009279"><ele>296.0</ele><time>2026-04-26T15:18:25Z</time></trkpt><trkpt lat="43.51654671317623" lon="11.313208979006747"><ele>296.0</ele><time>2026-04-26T15:18:26Z</time></trkpt><trkpt lat="43.51656042898861" lon="11.313075574794386"><ele>294.40000000000003</ele><time>2026-04-26T15:18:27Z</time></trkpt><trkpt lat="43.51657108067528" lon="11.312937505141118"><ele>292.8</ele><time>2026-04-26T15:18:28Z</time></trkpt><trkpt lat="43.51659329406902" lon="11.312819915601326"><ele>291.20000000000005</ele><time>2026-04-26T15:18:29Z</time></trkpt><trkpt lat="43.51661540474847" lon="11.31269409049564"><ele>289.6</ele><time>2026-04-26T15:18:30Z</time></trkpt><trkpt lat="43.51667219609334" lon="11.312592740712702"><ele>288.0</ele><time>2026-04-26T15:18:31Z</time></trkpt><trkpt lat="43.51673788864675" lon="11.312506324625739"><ele>288.0</ele><time>2026-04-26T15:18:32Z</time></trkpt><trkpt lat="43.51681513138953" lon="11.312448089970289"><ele>288.0</ele><time>2026-04-26T15:18:33Z</time></trkpt><trkpt lat="43.516899289534024" lon="11.312392846541572"><ele>288.0</ele><time>2026-04-26T15:18:34Z</time></trkpt><trkpt lat="43.51699029606215" lon="11.312357328950855"><ele>288.0</ele><time>2026-04-26T15:18:35Z</time></trkpt><trkpt lat="43.51708874178076" lon="11.312313598477964"><ele>288.0</ele><time>2026-04-26T15:18:36Z</time></trkpt><trkpt lat="43.51718445827442" lon="11.312271927474297"><ele>287.2</ele><time>2026-04-26T15:18:37Z</time></trkpt><trkpt lat="43.51728496686993" lon="11.312228170264536"><ele>286.4</ele><time>2026-04-26T15:18:38Z</time></trkpt><trkpt lat="43.51738574141813" lon="11.312184297211"><ele>285.59999999999997</ele><time>2026-04-26T15:18:39Z</time></trkpt><trkpt lat="43.51748615086198" lon="11.31214058197815"><ele>284.8</ele><time>2026-04-26T15:18:40Z</time></trkpt><trkpt lat="43.517583078078054" lon="11.312098910846832"><ele>284.0</ele><time>2026-04-26T15:18:41Z</time></trkpt><trkpt lat="43.5176754564497" lon="11.31203591751202"><ele>284.0</ele><time>2026-04-26T15:18:42Z</time></trkpt><trkpt lat="43.51777660096484" lon="11.312015238676064"><ele>284.0</ele><time>2026-04-26T15:18:43Z</time></trkpt><trkpt lat="43.517867336692596" lon="11.311963786677978"><ele>284.0</ele><time>2026-04-26T15:18:44Z</time></trkpt><trkpt lat="43.51795676712447" lon="11.3119206043148"><ele>284.0</ele><time>2026-04-26T15:18:45Z</time></trkpt><trkpt lat="43.51804717781645" lon="11.311883964669244"><ele>284.0</ele><time>2026-04-26T15:18:46Z</time></trkpt><trkpt lat="43.51813479697038" lon="11.311840690912184"><ele>284.4</ele><time>2026-04-26T15:18:47Z</time></trkpt><trkpt lat="43.518224458285076" lon="11.31180513685252"><ele>284.79999999999995</ele><time>2026-04-26T15:18:48Z</time></trkpt><trkpt lat="43.518312763284975" lon="11.311768488773676"><ele>285.20000000000005</ele><time>2026-04-26T15:18:49Z</time></trkpt><trkpt lat="43.518405292243635" lon="11.311737013414447"><ele>285.6</ele><time>2026-04-26T15:18:50Z</time></trkpt><trkpt lat="43.518495458542965" lon="11.311720046797173"><ele>286.0</ele><time>2026-04-26T15:18:51Z</time></trkpt><trkpt lat="43.5185824105955" lon="11.311681570788314"><ele>286.0</ele><time>2026-04-26T15:18:52Z</time></trkpt><trkpt lat="43.51866223539818" lon="11.311645077659733"><ele>286.0</ele><time>2026-04-26T15:18:53Z</time></trkpt><trkpt lat="43.51873960363658" lon="11.311615233157418"><ele>286.0</ele><time>2026-04-26T15:18:54Z</time></trkpt><trkpt lat="43.518825673934984" lon="11.311605946863839"><ele>286.0</ele><time>2026-04-26T15:18:55Z</time></trkpt><trkpt lat="43.51891146063401" lon="11.311613782356927"><ele>286.0</ele><time>2026-04-26T15:18:56Z</time></trkpt><trkpt lat="43.51898353426223" lon="11.311633003371647"><ele>286.0</ele><time>2026-04-26T15:18:57Z</time></trkpt><trkpt lat="43.51905596932034" lon="11.311643983213914"><ele>285.8333333333333</ele><time>2026-04-26T15:19:00Z</time></trkpt><trkpt lat="43.519071529958985" lon="11.311449539436651"><ele>285.66666666666663</ele><time>2026-04-26T15:19:01Z</time></trkpt><trkpt lat="43.51905696432845" lon="11.311350271201672"><ele>285.5</ele><time>2026-04-26T15:19:02Z</time></trkpt><trkpt lat="43.51902303190834" lon="11.31125948592142"><ele>285.3333333333333</ele><time>2026-04-26T15:19:03Z</time></trkpt><trkpt lat="43.518975065228645" lon="11.311177723080487"><ele>285.1666666666667</ele><time>2026-04-26T15:19:04Z</time></trkpt><trkpt lat="43.518914430083406" lon="11.311097805257981"><ele>285.0</ele><time>2026-04-26T15:19:05Z</time></trkpt><trkpt lat="43.518849576778884" lon="11.311029839084618"><ele>284.3333333333333</ele><time>2026-04-26T15:19:06Z</time></trkpt><trkpt lat="43.51877983266737" lon="11.310975713496562"><ele>283.6666666666667</ele><time>2026-04-26T15:19:07Z</time></trkpt><trkpt lat="43.51870059541814" lon="11.310927945749437"><ele>283.0</ele><time>2026-04-26T15:19:08Z</time></trkpt><trkpt lat="43.51862768656409" lon="11.31090122654901"><ele>282.33333333333337</ele><time>2026-04-26T15:19:09Z</time></trkpt><trkpt lat="43.51854460564164" lon="11.310868375341865"><ele>281.6666666666667</ele><time>2026-04-26T15:19:10Z</time></trkpt><trkpt lat="43.5184605381971" lon="11.310872697704674"><ele>281.0</ele><time>2026-04-26T15:19:11Z</time></trkpt><trkpt lat="43.51837840940501" lon="11.310909881045351"><ele>281.0</ele><time>2026-04-26T15:19:12Z</time></trkpt><trkpt lat="43.518308834448305" lon="11.310902738925892"><ele>281.0</ele><time>2026-04-26T15:19:13Z</time></trkpt><trkpt lat="43.518213537185865" lon="11.310866220210135"><ele>281.0</ele><time>2026-04-26T15:19:15Z</time></trkpt><trkpt lat="43.51818433531153" lon="11.310764262453954"><ele>281.0</ele><time>2026-04-26T15:19:17Z</time></trkpt><trkpt lat="43.51820369899252" lon="11.310647187829883"><ele>281.0</ele><time>2026-04-26T15:19:19Z</time></trkpt><trkpt lat="43.518205103203194" lon="11.310489382437787"><ele>280.40000000000003</ele><time>2026-04-26T15:19:21Z</time></trkpt><trkpt lat="43.51820531169714" lon="11.310398722021938"><ele>279.8</ele><time>2026-04-26T15:19:22Z</time></trkpt><trkpt lat="43.518210373586165" lon="11.310307071974444"><ele>279.20000000000005</ele><time>2026-04-26T15:19:23Z</time></trkpt><trkpt lat="43.51820700650805" lon="11.31015073361115"><ele>278.6</ele><time>2026-04-26T15:19:25Z</time></trkpt><trkpt lat="43.51810457982374" lon="11.310045329133274"><ele>278.0</ele><time>2026-04-26T15:19:45.001Z</time></trkpt><trkpt lat="43.51800263860584" lon="11.310029719597285"><ele>278.0</ele><time>2026-04-26T15:19:47.001Z</time></trkpt><trkpt lat="43.51790523820129" lon="11.310066206037424"><ele>278.0</ele><time>2026-04-26T15:19:49.001Z</time></trkpt><trkpt lat="43.51782320614315" lon="11.310141348366209"><ele>278.0</ele><time>2026-04-26T15:19:51.001Z</time></trkpt><trkpt lat="43.51777321419445" lon="11.310213081268156"><ele>278.0</ele><time>2026-04-26T15:19:52.001Z</time></trkpt><trkpt lat="43.517685317354214" lon="11.3102957700526"><ele>278.0</ele><time>2026-04-26T15:19:54.001Z</time></trkpt><trkpt lat="43.517579275342314" lon="11.310345821959539"><ele>278.5</ele><time>2026-04-26T15:19:56.001Z</time></trkpt><trkpt lat="43.51746146275736" lon="11.31033809711486"><ele>279.0</ele><time>2026-04-26T15:19:58.001Z</time></trkpt><trkpt lat="43.51733909815914" lon="11.310310620884987"><ele>279.5</ele><time>2026-04-26T15:20:00.001Z</time></trkpt><trkpt lat="43.51727822968344" lon="11.310287554782327"><ele>280.0</ele><time>2026-04-26T15:20:01.001Z</time></trkpt><trkpt lat="43.51721758509913" lon="11.310253368139877"><ele>280.5</ele><time>2026-04-26T15:20:02.001Z</time></trkpt><trkpt lat="43.51715882969782" lon="11.310216434811629"><ele>281.0</ele><time>2026-04-26T15:20:03Z</time></trkpt><trkpt lat="43.51704886563532" lon="11.310148788865598"><ele>282.8</ele><time>2026-04-26T15:20:05Z</time></trkpt><trkpt lat="43.51695009257805" lon="11.310073906161934"><ele>284.6</ele><time>2026-04-26T15:20:07Z</time></trkpt><trkpt lat="43.516832746590886" lon="11.309988244147968"><ele>286.4</ele><time>2026-04-26T15:20:09Z</time></trkpt><trkpt lat="43.5167283941394" lon="11.309896641164832"><ele>288.2</ele><time>2026-04-26T15:20:11Z</time></trkpt><trkpt lat="43.5166718872337" lon="11.309851688312989"><ele>290.0</ele><time>2026-04-26T15:20:12Z</time></trkpt><trkpt lat="43.51662519978471" lon="11.309787713450069"><ele>291.4</ele><time>2026-04-26T15:20:13Z</time></trkpt><trkpt lat="43.51651234497327" lon="11.3097155720051"><ele>292.8</ele><time>2026-04-26T15:20:15Z</time></trkpt><trkpt lat="43.5164054194589" lon="11.309622195496711"><ele>294.2</ele><time>2026-04-26T15:20:17Z</time></trkpt><trkpt lat="43.51634817818526" lon="11.309578328330034"><ele>295.6</ele><time>2026-04-26T15:20:18Z</time></trkpt><trkpt lat="43.51624173140351" lon="11.309491312203551"><ele>297.0</ele><time>2026-04-26T15:20:20Z</time></trkpt><trkpt lat="43.51614770969143" lon="11.309386519260718"><ele>300.2</ele><time>2026-04-26T15:20:22Z</time></trkpt><trkpt lat="43.516065119636046" lon="11.30928807274813"><ele>303.4</ele><time>2026-04-26T15:20:24Z</time></trkpt><trkpt lat="43.51598708149219" lon="11.309169364164703"><ele>306.6</ele><time>2026-04-26T15:20:26Z</time></trkpt><trkpt lat="43.51594776078192" lon="11.30909709818816"><ele>309.8</ele><time>2026-04-26T15:20:27Z</time></trkpt><trkpt lat="43.515910796563126" lon="11.30894902333864"><ele>313.0</ele><time>2026-04-26T15:20:29Z</time></trkpt><trkpt lat="43.515921680655374" lon="11.308810680215824"><ele>314.3333333333333</ele><time>2026-04-26T15:20:31Z</time></trkpt><trkpt lat="43.515933365469564" lon="11.308640854080759"><ele>315.66666666666663</ele><time>2026-04-26T15:20:33Z</time></trkpt><trkpt lat="43.515944924622666" lon="11.3085517228009"><ele>317.0</ele><time>2026-04-26T15:20:34Z</time></trkpt><trkpt lat="43.515964846868236" lon="11.30845773167895"><ele>318.3333333333333</ele><time>2026-04-26T15:20:35Z</time></trkpt><trkpt lat="43.51595108342104" lon="11.30836665310086"><ele>319.6666666666667</ele><time>2026-04-26T15:20:36Z</time></trkpt><trkpt lat="43.51596123303378" lon="11.308271577624957"><ele>321.0</ele><time>2026-04-26T15:20:37Z</time></trkpt><trkpt lat="43.51595159201684" lon="11.308169215893304"><ele>321.85714285714283</ele><time>2026-04-26T15:20:38Z</time></trkpt><trkpt lat="43.51593869805207" lon="11.308062158130987"><ele>322.7142857142857</ele><time>2026-04-26T15:20:39Z</time></trkpt><trkpt lat="43.51591351604375" lon="11.307974584146683"><ele>323.57142857142856</ele><time>2026-04-26T15:20:40Z</time></trkpt><trkpt lat="43.51589506748313" lon="11.307884454769274"><ele>324.42857142857144</ele><time>2026-04-26T15:20:41Z</time></trkpt><trkpt lat="43.51586790180273" lon="11.307805168593582"><ele>325.2857142857143</ele><time>2026-04-26T15:20:42Z</time></trkpt><trkpt lat="43.5158711195838" lon="11.307716936157034"><ele>326.1428571428571</ele><time>2026-04-26T15:20:43Z</time></trkpt><trkpt lat="43.515862618854115" lon="11.307583680117773"><ele>327.0</ele><time>2026-04-26T15:20:45Z</time></trkpt><trkpt lat="43.51585709267633" lon="11.307486672003451"><ele>327.0</ele><time>2026-04-26T15:20:46Z</time></trkpt><trkpt lat="43.51584890491181" lon="11.307344097929061"><ele>327.0</ele><time>2026-04-26T15:20:48Z</time></trkpt><trkpt lat="43.5158207192428" lon="11.307189668028231"><ele>327.0</ele><time>2026-04-26T15:20:50Z</time></trkpt><trkpt lat="43.51580498483477" lon="11.307018112511072"><ele>327.0</ele><time>2026-04-26T15:20:52Z</time></trkpt><trkpt lat="43.51578416871855" lon="11.306861560642067"><ele>327.1666666666667</ele><time>2026-04-26T15:20:54Z</time></trkpt><trkpt lat="43.51571962900577" lon="11.306737573908654"><ele>327.3333333333333</ele><time>2026-04-26T15:20:56Z</time></trkpt><trkpt lat="43.51566460045822" lon="11.306694343315874"><ele>327.5</ele><time>2026-04-26T15:20:57Z</time></trkpt><trkpt lat="43.51559433845074" lon="11.306652324802025"><ele>327.66666666666663</ele><time>2026-04-26T15:20:58Z</time></trkpt><trkpt lat="43.5154913126874" lon="11.306570712931615"><ele>327.8333333333333</ele><time>2026-04-26T15:21:00Z</time></trkpt><trkpt lat="43.51543126259171" lon="11.306521995783527"><ele>328.0</ele><time>2026-04-26T15:21:13Z</time></trkpt><trkpt lat="43.51535932465149" lon="11.306463632832372"><ele>328.0</ele><time>2026-04-26T15:21:15Z</time></trkpt><trkpt lat="43.515276733423676" lon="11.30641076557528"><ele>328.0</ele><time>2026-04-26T15:21:17Z</time></trkpt><trkpt lat="43.515198001116495" lon="11.306420124950906"><ele>328.0</ele><time>2026-04-26T15:21:20Z</time></trkpt><trkpt lat="43.515269175448" lon="11.30642524768739"><ele>328.0</ele><time>2026-04-26T15:22:31Z</time></trkpt><trkpt lat="43.51533338956223" lon="11.30647561301655"><ele>328.0</ele><time>2026-04-26T15:22:34Z</time></trkpt><trkpt lat="43.51540456345764" lon="11.306526165883742"><ele>328.0</ele><time>2026-04-26T15:22:36Z</time></trkpt><trkpt lat="43.515468095616065" lon="11.306568617064912"><ele>328.0</ele><time>2026-04-26T15:22:39Z</time></trkpt><trkpt lat="43.51554441630281" lon="11.306625751883153"><ele>328.0</ele><time>2026-04-26T15:22:42Z</time></trkpt><trkpt lat="43.51560718154711" lon="11.30667054267367"><ele>328.0</ele><time>2026-04-26T15:22:44Z</time></trkpt><trkpt lat="43.51569497872378" lon="11.306721028927631"><ele>328.0</ele><time>2026-04-26T15:22:47Z</time></trkpt><trkpt lat="43.51575517621544" lon="11.306779842324113"><ele>328.0</ele><time>2026-04-26T15:22:49Z</time></trkpt><trkpt lat="43.51580404869369" lon="11.306873227258553"><ele>328.0</ele><time>2026-04-26T15:22:51Z</time></trkpt><trkpt lat="43.51583046811882" lon="11.307001731931678"><ele>328.0</ele><time>2026-04-26T15:22:53Z</time></trkpt><trkpt lat="43.51583455493637" lon="11.307116932850342"><ele>328.0</ele><time>2026-04-26T15:22:55Z</time></trkpt><trkpt lat="43.51584136084499" lon="11.307227631683576"><ele>328.0</ele><time>2026-04-26T15:22:57Z</time></trkpt><trkpt lat="43.51585100513985" lon="11.307331631827205"><ele>328.0</ele><time>2026-04-26T15:22:59Z</time></trkpt><trkpt lat="43.51585609165082" lon="11.30744049110905"><ele>328.0</ele><time>2026-04-26T15:23:01Z</time></trkpt><trkpt lat="43.515860755262466" lon="11.30755097203706"><ele>328.0</ele><time>2026-04-26T15:23:03Z</time></trkpt><trkpt lat="43.51585454577808" lon="11.307689850485856"><ele>327.79999999999995</ele><time>2026-04-26T15:23:05Z</time></trkpt><trkpt lat="43.51586726712378" lon="11.30784771391274"><ele>327.6</ele><time>2026-04-26T15:23:07Z</time></trkpt><trkpt lat="43.51590561568611" lon="11.307985409019555"><ele>327.4</ele><time>2026-04-26T15:23:09Z</time></trkpt><trkpt lat="43.51592879373136" lon="11.308140955649968"><ele>327.20000000000005</ele><time>2026-04-26T15:23:11Z</time></trkpt><trkpt lat="43.51593917536626" lon="11.308230544980372"><ele>327.0</ele><time>2026-04-26T15:23:12Z</time></trkpt><trkpt lat="43.51595083355464" lon="11.308400392601431"><ele>325.8</ele><time>2026-04-26T15:23:14Z</time></trkpt><trkpt lat="43.51592563472915" lon="11.308544205491689"><ele>324.6</ele><time>2026-04-26T15:23:16Z</time></trkpt><trkpt lat="43.51591040663043" lon="11.308677100296594"><ele>323.40000000000003</ele><time>2026-04-26T15:23:18Z</time></trkpt><trkpt lat="43.515900591558264" lon="11.30882445396572"><ele>322.20000000000005</ele><time>2026-04-26T15:23:20Z</time></trkpt><trkpt lat="43.515890988412366" lon="11.308932194278563"><ele>321.0</ele><time>2026-04-26T15:23:23Z</time></trkpt><trkpt lat="43.51590294217663" lon="11.309062241535495"><ele>319.6666666666667</ele><time>2026-04-26T15:23:26Z</time></trkpt><trkpt lat="43.51593485389422" lon="11.309150492443502"><ele>318.3333333333333</ele><time>2026-04-26T15:23:28Z</time></trkpt><trkpt lat="43.51599144490917" lon="11.309249296558129"><ele>317.0</ele><time>2026-04-26T15:23:30Z</time></trkpt><trkpt lat="43.51605112023448" lon="11.309332181702478"><ele>315.66666666666663</ele><time>2026-04-26T15:23:32Z</time></trkpt><trkpt lat="43.5161111371277" lon="11.309405364815229"><ele>314.3333333333333</ele><time>2026-04-26T15:23:34Z</time></trkpt><trkpt lat="43.51619644163084" lon="11.309472817897753"><ele>313.0</ele><time>2026-04-26T15:23:36Z</time></trkpt><trkpt lat="43.51627122661089" lon="11.309546570683255"><ele>310.3333333333333</ele><time>2026-04-26T15:23:38.001Z</time></trkpt><trkpt lat="43.51633902678219" lon="11.309603451628332"><ele>307.66666666666663</ele><time>2026-04-26T15:23:40.001Z</time></trkpt><trkpt lat="43.51639963515368" lon="11.30967033854834"><ele>305.0</ele><time>2026-04-26T15:23:42.001Z</time></trkpt><trkpt lat="43.51650405752708" lon="11.309721705818678"><ele>302.3333333333333</ele><time>2026-04-26T15:23:44.001Z</time></trkpt><trkpt lat="43.51659735805383" lon="11.309796890634512"><ele>299.6666666666667</ele><time>2026-04-26T15:23:46.001Z</time></trkpt><trkpt lat="43.516650880308724" lon="11.309844757167054"><ele>297.0</ele><time>2026-04-26T15:23:47.001Z</time></trkpt><trkpt lat="43.51670521517544" lon="11.309888985762305"><ele>296.0</ele><time>2026-04-26T15:23:48.001Z</time></trkpt><trkpt lat="43.51675723833672" lon="11.309939374185777"><ele>295.0</ele><time>2026-04-26T15:23:49.001Z</time></trkpt><trkpt lat="43.516820462687726" lon="11.30999447122515"><ele>294.0</ele><time>2026-04-26T15:23:50.001Z</time></trkpt><trkpt lat="43.51688314611522" lon="11.310049556993455"><ele>293.0</ele><time>2026-04-26T15:23:51.001Z</time></trkpt><trkpt lat="43.51695014700765" lon="11.310103869558784"><ele>292.0</ele><time>2026-04-26T15:23:52.001Z</time></trkpt><trkpt lat="43.51700173016025" lon="11.310169192301663"><ele>291.0</ele><time>2026-04-26T15:23:53.001Z</time></trkpt><trkpt lat="43.517064648853975" lon="11.31019679126941"><ele>290.0</ele><time>2026-04-26T15:23:54.001Z</time></trkpt><trkpt lat="43.51713280702851" lon="11.310236989605102"><ele>288.5</ele><time>2026-04-26T15:23:55.001Z</time></trkpt><trkpt lat="43.51719814785306" lon="11.310281746818717"><ele>287.0</ele><time>2026-04-26T15:23:56.001Z</time></trkpt><trkpt lat="43.51725566459393" lon="11.310318109140136"><ele>285.5</ele><time>2026-04-26T15:23:57.001Z</time></trkpt><trkpt lat="43.51731609673922" lon="11.310343633498812"><ele>284.0</ele><time>2026-04-26T15:23:58.001Z</time></trkpt><trkpt lat="43.517439344026926" lon="11.310370203069223"><ele>282.5</ele><time>2026-04-26T15:24:00.001Z</time></trkpt><trkpt lat="43.517507838360935" lon="11.310381374350081"><ele>281.0</ele><time>2026-04-26T15:24:01.001Z</time></trkpt><trkpt lat="43.51757276931856" lon="11.31038920177913"><ele>281.0</ele><time>2026-04-26T15:24:02.001Z</time></trkpt><trkpt lat="43.517637554819515" lon="11.310362408711612"><ele>281.0</ele><time>2026-04-26T15:24:03.001Z</time></trkpt><trkpt lat="43.51770234034095" lon="11.31034549490622"><ele>281.0</ele><time>2026-04-26T15:24:04.001Z</time></trkpt><trkpt lat="43.51779843107683" lon="11.310238769658662"><ele>281.0</ele><time>2026-04-26T15:24:06.001Z</time></trkpt><trkpt lat="43.51785378035828" lon="11.310166348944339"><ele>281.0</ele><time>2026-04-26T15:24:07.001Z</time></trkpt><trkpt lat="43.51790308364291" lon="11.31011219491925"><ele>281.0</ele><time>2026-04-26T15:24:08.001Z</time></trkpt><trkpt lat="43.517997958971755" lon="11.310067239751325"><ele>280.5</ele><time>2026-04-26T15:24:10.001Z</time></trkpt><trkpt lat="43.51808249492715" lon="11.310075480393522"><ele>280.0</ele><time>2026-04-26T15:24:12.001Z</time></trkpt><trkpt lat="43.51814570653136" lon="11.310097746814233"><ele>279.5</ele><time>2026-04-26T15:24:15Z</time></trkpt><trkpt lat="43.51819917836829" lon="11.310164989137427"><ele>279.0</ele><time>2026-04-26T15:24:42Z</time></trkpt><trkpt lat="43.51819014951335" lon="11.310308548485366"><ele>278.5</ele><time>2026-04-26T15:24:44Z</time></trkpt><trkpt lat="43.51818738543833" lon="11.310419656672831"><ele>278.0</ele><time>2026-04-26T15:24:45Z</time></trkpt><trkpt lat="43.51818035867972" lon="11.310561947098224"><ele>278.5</ele><time>2026-04-26T15:24:47Z</time></trkpt><trkpt lat="43.51816993009861" lon="11.310661074426958"><ele>279.0</ele><time>2026-04-26T15:24:49Z</time></trkpt><trkpt lat="43.51816676587998" lon="11.310761664622474"><ele>279.5</ele><time>2026-04-26T15:24:51Z</time></trkpt><trkpt lat="43.51819748047308" lon="11.31088825321548"><ele>280.0</ele><time>2026-04-26T15:24:53Z</time></trkpt><trkpt lat="43.51830522968" lon="11.310953068788741"><ele>280.5</ele><time>2026-04-26T15:24:55Z</time></trkpt><trkpt lat="43.51836863883037" lon="11.310943288523474"><ele>281.0</ele><time>2026-04-26T15:24:56Z</time></trkpt><trkpt lat="43.51846475171567" lon="11.310900782292165"><ele>281.0</ele><time>2026-04-26T15:24:58Z</time></trkpt><trkpt lat="43.51856416168405" lon="11.310892812499498"><ele>281.0</ele><time>2026-04-26T15:25:00Z</time></trkpt><trkpt lat="43.51866887964354" lon="11.310946090186894"><ele>281.0</ele><time>2026-04-26T15:25:02Z</time></trkpt><trkpt lat="43.5187757003306" lon="11.310979344094694"><ele>281.0</ele><time>2026-04-26T15:25:04Z</time></trkpt><trkpt lat="43.51883265507752" lon="11.311025693992281"><ele>281.0</ele><time>2026-04-26T15:25:05Z</time></trkpt><trkpt lat="43.51893406652619" lon="11.311135353308458"><ele>280.83333333333337</ele><time>2026-04-26T15:25:07Z</time></trkpt><trkpt lat="43.518977215679456" lon="11.311207982337883"><ele>280.6666666666667</ele><time>2026-04-26T15:25:08Z</time></trkpt><trkpt lat="43.51902110810226" lon="11.31128362118537"><ele>280.5</ele><time>2026-04-26T15:25:09.001Z</time></trkpt><trkpt lat="43.51903908735841" lon="11.311386826456252"><ele>280.3333333333333</ele><time>2026-04-26T15:25:10.001Z</time></trkpt><trkpt lat="43.519062877020126" lon="11.311471713933516"><ele>280.16666666666663</ele><time>2026-04-26T15:25:11.001Z</time></trkpt><trkpt lat="43.519027042290624" lon="11.311567930568723"><ele>280.0</ele><time>2026-04-26T15:25:13.001Z</time></trkpt><trkpt lat="43.51886324411007" lon="11.311575011046626"><ele>281.0</ele><time>2026-04-26T15:25:17.001Z</time></trkpt><trkpt lat="43.51877014094105" lon="11.31156351710293"><ele>282.0</ele><time>2026-04-26T15:25:18.001Z</time></trkpt><trkpt lat="43.5186790387858" lon="11.311582142628533"><ele>283.0</ele><time>2026-04-26T15:25:19.001Z</time></trkpt><trkpt lat="43.51859166143516" lon="11.311624411689648"><ele>284.0</ele><time>2026-04-26T15:25:20.001Z</time></trkpt><trkpt lat="43.51849546156991" lon="11.311653154410013"><ele>285.0</ele><time>2026-04-26T15:25:21.001Z</time></trkpt><trkpt lat="43.51840437804147" lon="11.311703013229618"><ele>285.2</ele><time>2026-04-26T15:25:22.001Z</time></trkpt><trkpt lat="43.5183086560754" lon="11.31174854451316"><ele>285.4</ele><time>2026-04-26T15:25:23.001Z</time></trkpt><trkpt lat="43.51821572294973" lon="11.311787741146352"><ele>285.6</ele><time>2026-04-26T15:25:24.001Z</time></trkpt><trkpt lat="43.51811951633754" lon="11.31183347200127"><ele>285.8</ele><time>2026-04-26T15:25:25.001Z</time></trkpt><trkpt lat="43.51803059436198" lon="11.311867800887565"><ele>286.0</ele><time>2026-04-26T15:25:26.001Z</time></trkpt><trkpt lat="43.5179338008773" lon="11.311909740014729"><ele>285.6</ele><time>2026-04-26T15:25:27.001Z</time></trkpt><trkpt lat="43.517831481251136" lon="11.311953100761034"><ele>285.20000000000005</ele><time>2026-04-26T15:25:28.001Z</time></trkpt><trkpt lat="43.51772325372434" lon="11.311998381893602"><ele>284.79999999999995</ele><time>2026-04-26T15:25:29.001Z</time></trkpt><trkpt lat="43.51761523384974" lon="11.31204118262406"><ele>284.4</ele><time>2026-04-26T15:25:30.001Z</time></trkpt><trkpt lat="43.51750844832038" lon="11.31209151496355"><ele>284.0</ele><time>2026-04-26T15:25:31.001Z</time></trkpt><trkpt lat="43.5173953220902" lon="11.312141101571964"><ele>284.0</ele><time>2026-04-26T15:25:32.001Z</time></trkpt><trkpt lat="43.517279382426224" lon="11.312191551397873"><ele>284.0</ele><time>2026-04-26T15:25:33.001Z</time></trkpt><trkpt lat="43.51715845853369" lon="11.312247482628605"><ele>284.0</ele><time>2026-04-26T15:25:34.001Z</time></trkpt><trkpt lat="43.51703947593488" lon="11.31230688545842"><ele>284.0</ele><time>2026-04-26T15:25:35.001Z</time></trkpt><trkpt lat="43.51691269197627" lon="11.312343334966274"><ele>284.8</ele><time>2026-04-26T15:25:36.001Z</time></trkpt><trkpt lat="43.51680252336065" lon="11.312402775051877"><ele>285.59999999999997</ele><time>2026-04-26T15:25:37.001Z</time></trkpt><trkpt lat="43.5167089017207" lon="11.312487074153362"><ele>286.4</ele><time>2026-04-26T15:25:38.001Z</time></trkpt><trkpt lat="43.516635574650486" lon="11.312596543862705"><ele>287.2</ele><time>2026-04-26T15:25:39.001Z</time></trkpt><trkpt lat="43.516575232819875" lon="11.312716607101482"><ele>288.0</ele><time>2026-04-26T15:25:40.001Z</time></trkpt><trkpt lat="43.51652329820296" lon="11.31285417195371"><ele>288.0</ele><time>2026-04-26T15:25:41.001Z</time></trkpt><trkpt lat="43.516505507462114" lon="11.313015894118847"><ele>288.0</ele><time>2026-04-26T15:25:42.001Z</time></trkpt><trkpt lat="43.51651104901557" lon="11.313190437917676"><ele>288.0</ele><time>2026-04-26T15:25:43.001Z</time></trkpt><trkpt lat="43.51652278764357" lon="11.313360110916706"><ele>288.0</ele><time>2026-04-26T15:25:44.001Z</time></trkpt><trkpt lat="43.516531246263824" lon="11.313530909806806"><ele>290.0</ele><time>2026-04-26T15:25:45.001Z</time></trkpt><trkpt lat="43.51653973758074" lon="11.313699510885442"><ele>292.0</ele><time>2026-04-26T15:25:46.001Z</time></trkpt><trkpt lat="43.516552298183555" lon="11.313877850502776"><ele>294.0</ele><time>2026-04-26T15:25:47.001Z</time></trkpt><trkpt lat="43.51656685629257" lon="11.314052299189454"><ele>296.0</ele><time>2026-04-26T15:25:48.001Z</time></trkpt><trkpt lat="43.51656928050078" lon="11.314229452309094"><ele>296.0</ele><time>2026-04-26T15:25:49.001Z</time></trkpt><trkpt lat="43.51658391437593" lon="11.314397141961555"><ele>296.0</ele><time>2026-04-26T15:25:50.001Z</time></trkpt><trkpt lat="43.51659025090782" lon="11.314536916476571"><ele>296.0</ele><time>2026-04-26T15:25:51.001Z</time></trkpt><trkpt lat="43.516587234395644" lon="11.31470744755775"><ele>296.0</ele><time>2026-04-26T15:25:52.001Z</time></trkpt><trkpt lat="43.51656118255111" lon="11.314866325933895"><ele>296.0</ele><time>2026-04-26T15:25:53.001Z</time></trkpt><trkpt lat="43.516526160321476" lon="11.314994903219375"><ele>296.0</ele><time>2026-04-26T15:25:54.001Z</time></trkpt><trkpt lat="43.51647951272558" lon="11.315174924286262"><ele>296.0</ele><time>2026-04-26T15:25:55.001Z</time></trkpt><trkpt lat="43.51641948827006" lon="11.315321430505477"><ele>296.0</ele><time>2026-04-26T15:25:56.001Z</time></trkpt><trkpt lat="43.51635517647" lon="11.315461202225354"><ele>297.0</ele><time>2026-04-26T15:25:57.001Z</time></trkpt><trkpt lat="43.51628687191505" lon="11.315596261348325"><ele>298.0</ele><time>2026-04-26T15:25:58.001Z</time></trkpt><trkpt lat="43.516200688320865" lon="11.315735753753062"><ele>299.0</ele><time>2026-04-26T15:25:59.001Z</time></trkpt><trkpt lat="43.516106949368485" lon="11.315858440201104"><ele>300.0</ele><time>2026-04-26T15:26:00.001Z</time></trkpt><trkpt lat="43.51600111160485" lon="11.315972069594036"><ele>300.0</ele><time>2026-04-26T15:26:01.001Z</time></trkpt><trkpt lat="43.51589666360447" lon="11.316085360754041"><ele>300.0</ele><time>2026-04-26T15:26:02.001Z</time></trkpt><trkpt lat="43.515795218623104" lon="11.316195323847824"><ele>300.0</ele><time>2026-04-26T15:26:03.001Z</time></trkpt><trkpt lat="43.51569756991511" lon="11.316318766976355"><ele>300.0</ele><time>2026-04-26T15:26:04.001Z</time></trkpt><trkpt lat="43.515615347868255" lon="11.316449727951788"><ele>300.0</ele><time>2026-04-26T15:26:05.001Z</time></trkpt><trkpt lat="43.51554262530096" lon="11.316594085181851"><ele>300.0</ele><time>2026-04-26T15:26:06.001Z</time></trkpt><trkpt lat="43.515490675112304" lon="11.316756929162544"><ele>300.0</ele><time>2026-04-26T15:26:07.001Z</time></trkpt><trkpt lat="43.515462900059184" lon="11.316936631456636"><ele>300.0</ele><time>2026-04-26T15:26:08.001Z</time></trkpt><trkpt lat="43.51543969624802" lon="11.31711442636415"><ele>298.25</ele><time>2026-04-26T15:26:09.001Z</time></trkpt><trkpt lat="43.5153915959064" lon="11.317283143135812"><ele>296.5</ele><time>2026-04-26T15:26:10.001Z</time></trkpt><trkpt lat="43.51534055110175" lon="11.317437028543852"><ele>294.75</ele><time>2026-04-26T15:26:11.001Z</time></trkpt><trkpt lat="43.515280588320245" lon="11.3175947938821"><ele>293.0</ele><time>2026-04-26T15:26:12.001Z</time></trkpt><trkpt lat="43.51518847114079" lon="11.31773005981099"><ele>293.0</ele><time>2026-04-26T15:26:13.001Z</time></trkpt><trkpt lat="43.51507448902448" lon="11.31783594671329"><ele>293.0</ele><time>2026-04-26T15:26:14.001Z</time></trkpt><trkpt lat="43.514963627230316" lon="11.317928677415832"><ele>293.0</ele><time>2026-04-26T15:26:15.001Z</time></trkpt><trkpt lat="43.514859962831046" lon="11.318030009217214"><ele>293.0</ele><time>2026-04-26T15:26:16.001Z</time></trkpt><trkpt lat="43.514755973804895" lon="11.318119333534272"><ele>293.5</ele><time>2026-04-26T15:26:17.001Z</time></trkpt><trkpt lat="43.514665062602276" lon="11.318268756166477"><ele>294.0</ele><time>2026-04-26T15:26:18.001Z</time></trkpt><trkpt lat="43.514597474747184" lon="11.318408348522478"><ele>294.5</ele><time>2026-04-26T15:26:19.001Z</time></trkpt><trkpt lat="43.51451874685951" lon="11.318559106127605"><ele>295.0</ele><time>2026-04-26T15:26:20.001Z</time></trkpt><trkpt lat="43.51444131194417" lon="11.318705145812865"><ele>295.0</ele><time>2026-04-26T15:26:21Z</time></trkpt><trkpt lat="43.51436359678068" lon="11.31885546399561"><ele>295.0</ele><time>2026-04-26T15:26:22Z</time></trkpt><trkpt lat="43.514279030303385" lon="11.319002771204131"><ele>295.0</ele><time>2026-04-26T15:26:23Z</time></trkpt><trkpt lat="43.51420460209641" lon="11.319149311259297"><ele>295.0</ele><time>2026-04-26T15:26:24Z</time></trkpt><trkpt lat="43.51412540615322" lon="11.319287937624466"><ele>295.75</ele><time>2026-04-26T15:26:25Z</time></trkpt><trkpt lat="43.51405650223155" lon="11.319424176752664"><ele>296.5</ele><time>2026-04-26T15:26:26Z</time></trkpt><trkpt lat="43.51399437744577" lon="11.319575143282982"><ele>297.25</ele><time>2026-04-26T15:26:27Z</time></trkpt><trkpt lat="43.51392794789369" lon="11.319681385700727"><ele>298.0</ele><time>2026-04-26T15:26:28Z</time></trkpt><trkpt lat="43.5138765673813" lon="11.319806477145836"><ele>298.25</ele><time>2026-04-26T15:26:29Z</time></trkpt><trkpt lat="43.51382223613995" lon="11.31993954776779"><ele>298.5</ele><time>2026-04-26T15:26:30Z</time></trkpt><trkpt lat="43.51376485312231" lon="11.320072717038132"><ele>298.75</ele><time>2026-04-26T15:26:31Z</time></trkpt><trkpt lat="43.51369189605871" lon="11.320183190166263"><ele>299.0</ele><time>2026-04-26T15:26:32Z</time></trkpt><trkpt lat="43.51360673482597" lon="11.32030425921793"><ele>299.75</ele><time>2026-04-26T15:26:33Z</time></trkpt><trkpt lat="43.51351605139624" lon="11.3204329593101"><ele>300.5</ele><time>2026-04-26T15:26:34Z</time></trkpt><trkpt lat="43.51340754703035" lon="11.320503350281594"><ele>301.25</ele><time>2026-04-26T15:26:35Z</time></trkpt><trkpt lat="43.513307770049565" lon="11.320601652294414"><ele>302.0</ele><time>2026-04-26T15:26:36Z</time></trkpt><trkpt lat="43.51320005037586" lon="11.320680387191757"><ele>302.0</ele><time>2026-04-26T15:26:37Z</time></trkpt><trkpt lat="43.51309211396251" lon="11.320760870649794"><ele>302.0</ele><time>2026-04-26T15:26:38Z</time></trkpt><trkpt lat="43.51298757542451" lon="11.32084368063161"><ele>302.0</ele><time>2026-04-26T15:26:39Z</time></trkpt><trkpt lat="43.512880668765234" lon="11.320934299510345"><ele>302.0</ele><time>2026-04-26T15:26:40Z</time></trkpt><trkpt lat="43.51277181568481" lon="11.321013907436392"><ele>301.0</ele><time>2026-04-26T15:26:41Z</time></trkpt><trkpt lat="43.512663843371726" lon="11.32109498236795"><ele>300.0</ele><time>2026-04-26T15:26:42Z</time></trkpt><trkpt lat="43.51254934284016" lon="11.32116706020819"><ele>299.0</ele><time>2026-04-26T15:26:43Z</time></trkpt><trkpt lat="43.51243172145333" lon="11.321223545816082"><ele>298.0</ele><time>2026-04-26T15:26:44Z</time></trkpt><trkpt lat="43.51231037479833" lon="11.321271792116573"><ele>298.0</ele><time>2026-04-26T15:26:45Z</time></trkpt><trkpt lat="43.51218352997088" lon="11.32131403628342"><ele>298.0</ele><time>2026-04-26T15:26:46Z</time></trkpt><trkpt lat="43.5120599011375" lon="11.32135706362163"><ele>298.0</ele><time>2026-04-26T15:26:47Z</time></trkpt><trkpt lat="43.511936482227185" lon="11.321401526898555"><ele>298.0</ele><time>2026-04-26T15:26:48Z</time></trkpt><trkpt lat="43.51181845895004" lon="11.32145535271872"><ele>299.0</ele><time>2026-04-26T15:26:49Z</time></trkpt><trkpt lat="43.511703319880596" lon="11.32153065998286"><ele>300.0</ele><time>2026-04-26T15:26:50Z</time></trkpt><trkpt lat="43.511602632880134" lon="11.321625013819233"><ele>301.0</ele><time>2026-04-26T15:26:51Z</time></trkpt><trkpt lat="43.51150203932382" lon="11.32175014302549"><ele>302.0</ele><time>2026-04-26T15:26:52Z</time></trkpt><trkpt lat="43.511400341676506" lon="11.32186840867724"><ele>302.0</ele><time>2026-04-26T15:26:53Z</time></trkpt><trkpt lat="43.51130819482675" lon="11.321985009175362"><ele>302.0</ele><time>2026-04-26T15:26:54Z</time></trkpt><trkpt lat="43.51121211274602" lon="11.322100335276184"><ele>302.0</ele><time>2026-04-26T15:26:55Z</time></trkpt><trkpt lat="43.51111310071815" lon="11.322212847331567"><ele>302.0</ele><time>2026-04-26T15:26:56Z</time></trkpt><trkpt lat="43.511018153285114" lon="11.322328932089864"><ele>301.5</ele><time>2026-04-26T15:26:57Z</time></trkpt><trkpt lat="43.510922739086006" lon="11.322448119298803"><ele>301.0</ele><time>2026-04-26T15:26:58Z</time></trkpt><trkpt lat="43.51082977900298" lon="11.322568356591045"><ele>300.5</ele><time>2026-04-26T15:26:59Z</time></trkpt><trkpt lat="43.510732633382275" lon="11.32267967112369"><ele>300.0</ele><time>2026-04-26T15:27:00Z</time></trkpt><trkpt lat="43.510636343121384" lon="11.322789815215712"><ele>300.0</ele><time>2026-04-26T15:27:01Z</time></trkpt><trkpt lat="43.51053927764711" lon="11.322898878732309"><ele>300.0</ele><time>2026-04-26T15:27:02Z</time></trkpt><trkpt lat="43.51044580265794" lon="11.323010223200356"><ele>300.0</ele><time>2026-04-26T15:27:03Z</time></trkpt><trkpt lat="43.510354229506056" lon="11.323129069413921"><ele>300.0</ele><time>2026-04-26T15:27:04Z</time></trkpt><trkpt lat="43.51026008301023" lon="11.323243932980029"><ele>300.5</ele><time>2026-04-26T15:27:05Z</time></trkpt><trkpt lat="43.51015896164557" lon="11.323358653629333"><ele>301.0</ele><time>2026-04-26T15:27:06Z</time></trkpt><trkpt lat="43.51005517211161" lon="11.323467924340857"><ele>301.5</ele><time>2026-04-26T15:27:07Z</time></trkpt><trkpt lat="43.50994789197558" lon="11.323541383718373"><ele>302.0</ele><time>2026-04-26T15:27:08Z</time></trkpt><trkpt lat="43.509838373905424" lon="11.323609011931977"><ele>302.0</ele><time>2026-04-26T15:27:09Z</time></trkpt><trkpt lat="43.50971840315397" lon="11.32365957369166"><ele>302.0</ele><time>2026-04-26T15:27:10Z</time></trkpt><trkpt lat="43.509596214796005" lon="11.323696498914437"><ele>302.0</ele><time>2026-04-26T15:27:11Z</time></trkpt><trkpt lat="43.50947188166855" lon="11.323731740940396"><ele>302.0</ele><time>2026-04-26T15:27:12Z</time></trkpt><trkpt lat="43.50934347107558" lon="11.323726583155253"><ele>301.5</ele><time>2026-04-26T15:27:13Z</time></trkpt><trkpt lat="43.50921467173449" lon="11.323723038162818"><ele>301.0</ele><time>2026-04-26T15:27:14Z</time></trkpt><trkpt lat="43.509077647218966" lon="11.323716192786769"><ele>300.5</ele><time>2026-04-26T15:27:15Z</time></trkpt><trkpt lat="43.50893891645948" lon="11.32370909392327"><ele>300.0</ele><time>2026-04-26T15:27:16Z</time></trkpt><trkpt lat="43.508808442539824" lon="11.323734664729935"><ele>300.0</ele><time>2026-04-26T15:27:17Z</time></trkpt><trkpt lat="43.508683682075045" lon="11.323759274950566"><ele>300.0</ele><time>2026-04-26T15:27:18Z</time></trkpt><trkpt lat="43.50856157287943" lon="11.323808390446686"><ele>300.0</ele><time>2026-04-26T15:27:19Z</time></trkpt><trkpt lat="43.50843649232072" lon="11.323888213416435"><ele>300.0</ele><time>2026-04-26T15:27:20Z</time></trkpt><trkpt lat="43.50834169641412" lon="11.32398160449423"><ele>302.0</ele><time>2026-04-26T15:27:21Z</time></trkpt><trkpt lat="43.50825568692243" lon="11.324109246399956"><ele>304.0</ele><time>2026-04-26T15:27:22Z</time></trkpt><trkpt lat="43.50816177546731" lon="11.324243452136809"><ele>306.0</ele><time>2026-04-26T15:27:23Z</time></trkpt><trkpt lat="43.508085888054445" lon="11.324383703460935"><ele>308.0</ele><time>2026-04-26T15:27:24Z</time></trkpt><trkpt lat="43.50800841707477" lon="11.324531107338949"><ele>308.0</ele><time>2026-04-26T15:27:25Z</time></trkpt><trkpt lat="43.50794195252193" lon="11.324683398536136"><ele>308.0</ele><time>2026-04-26T15:27:26Z</time></trkpt><trkpt lat="43.50786699076015" lon="11.324834737268441"><ele>308.0</ele><time>2026-04-26T15:27:27Z</time></trkpt><trkpt lat="43.50781249953311" lon="11.325000637608229"><ele>308.0</ele><time>2026-04-26T15:27:28Z</time></trkpt><trkpt lat="43.50776416647173" lon="11.325176465322496"><ele>307.25</ele><time>2026-04-26T15:27:29Z</time></trkpt><trkpt lat="43.5077181734262" lon="11.325347210907273"><ele>306.5</ele><time>2026-04-26T15:27:30Z</time></trkpt><trkpt lat="43.507671995329886" lon="11.325523538317883"><ele>305.75</ele><time>2026-04-26T15:27:31Z</time></trkpt><trkpt lat="43.507627563220126" lon="11.325694899387937"><ele>305.0</ele><time>2026-04-26T15:27:32Z</time></trkpt><trkpt lat="43.507585517010135" lon="11.325869156908514"><ele>305.0</ele><time>2026-04-26T15:27:33Z</time></trkpt><trkpt lat="43.507553769277905" lon="11.326044767706124"><ele>305.0</ele><time>2026-04-26T15:27:34Z</time></trkpt><trkpt lat="43.50752649290208" lon="11.326220604096536"><ele>305.0</ele><time>2026-04-26T15:27:35Z</time></trkpt><trkpt lat="43.50749962370281" lon="11.326385477266228"><ele>305.0</ele><time>2026-04-26T15:27:36Z</time></trkpt><trkpt lat="43.507465489536436" lon="11.326563392573526"><ele>305.2</ele><time>2026-04-26T15:27:37Z</time></trkpt><trkpt lat="43.50741752457125" lon="11.326719002091973"><ele>305.4</ele><time>2026-04-26T15:27:38Z</time></trkpt><trkpt lat="43.507364556761786" lon="11.326851671169669"><ele>305.6</ele><time>2026-04-26T15:27:39.001Z</time></trkpt><trkpt lat="43.50730881927018" lon="11.326957003822198"><ele>305.8</ele><time>2026-04-26T15:27:40.001Z</time></trkpt><trkpt lat="43.50724696343848" lon="11.327046594568174"><ele>306.0</ele><time>2026-04-26T15:27:41.001Z</time></trkpt><trkpt lat="43.50715579693151" lon="11.327078086874044"><ele>304.40000000000003</ele><time>2026-04-26T15:27:42.001Z</time></trkpt><trkpt lat="43.507055178805196" lon="11.327105578708064"><ele>302.8</ele><time>2026-04-26T15:27:43.001Z</time></trkpt><trkpt lat="43.50695357647917" lon="11.327147650613915"><ele>301.20000000000005</ele><time>2026-04-26T15:27:44.001Z</time></trkpt><trkpt lat="43.506843397048556" lon="11.327183574563236"><ele>299.6</ele><time>2026-04-26T15:27:45.001Z</time></trkpt><trkpt lat="43.50672853428299" lon="11.327229922644939"><ele>298.0</ele><time>2026-04-26T15:27:46.001Z</time></trkpt><trkpt lat="43.506608981623735" lon="11.327280754032513"><ele>298.0</ele><time>2026-04-26T15:27:47.001Z</time></trkpt><trkpt lat="43.50648513581408" lon="11.32734665365353"><ele>298.0</ele><time>2026-04-26T15:27:48.001Z</time></trkpt><trkpt lat="43.506363214733746" lon="11.327426049655582"><ele>298.0</ele><time>2026-04-26T15:27:49.001Z</time></trkpt><trkpt lat="43.506242942135735" lon="11.327522353601376"><ele>298.0</ele><time>2026-04-26T15:27:50.001Z</time></trkpt><trkpt lat="43.5061260630249" lon="11.327623156829889"><ele>298.25</ele><time>2026-04-26T15:27:51.001Z</time></trkpt><trkpt lat="43.506009124341595" lon="11.327729937511956"><ele>298.5</ele><time>2026-04-26T15:27:52.001Z</time></trkpt><trkpt lat="43.505894630733685" lon="11.327838344860313"><ele>298.75</ele><time>2026-04-26T15:27:53.001Z</time></trkpt><trkpt lat="43.505786764192464" lon="11.327952679977496"><ele>299.0</ele><time>2026-04-26T15:27:54.001Z</time></trkpt><trkpt lat="43.505679579143134" lon="11.328068132533973"><ele>299.25</ele><time>2026-04-26T15:27:55.001Z</time></trkpt><trkpt lat="43.505573332675745" lon="11.32818458985066"><ele>299.5</ele><time>2026-04-26T15:27:56.001Z</time></trkpt><trkpt lat="43.50546483737989" lon="11.328301350652469"><ele>299.75</ele><time>2026-04-26T15:27:57.001Z</time></trkpt><trkpt lat="43.50535687243943" lon="11.328417452941373"><ele>300.0</ele><time>2026-04-26T15:27:58.001Z</time></trkpt><trkpt lat="43.50524736643088" lon="11.328530180380163"><ele>301.0</ele><time>2026-04-26T15:27:59.001Z</time></trkpt><trkpt lat="43.50513112405698" lon="11.328636269639897"><ele>302.0</ele><time>2026-04-26T15:28:00.001Z</time></trkpt><trkpt lat="43.505009340586305" lon="11.32873010353918"><ele>303.0</ele><time>2026-04-26T15:28:01.001Z</time></trkpt><trkpt lat="43.50488710857105" lon="11.328823078466428"><ele>304.0</ele><time>2026-04-26T15:28:02.001Z</time></trkpt><trkpt lat="43.50476698180903" lon="11.328908383115698"><ele>304.0</ele><time>2026-04-26T15:28:03.001Z</time></trkpt><trkpt lat="43.5046525649843" lon="11.328990384561727"><ele>304.0</ele><time>2026-04-26T15:28:04.001Z</time></trkpt><trkpt lat="43.504546904423165" lon="11.329071799579202"><ele>304.0</ele><time>2026-04-26T15:28:05.001Z</time></trkpt><trkpt lat="43.50443902138115" lon="11.329147990366176"><ele>304.0</ele><time>2026-04-26T15:28:06.001Z</time></trkpt><trkpt lat="43.50433209483852" lon="11.32922002751436"><ele>304.2</ele><time>2026-04-26T15:28:07.001Z</time></trkpt><trkpt lat="43.504231821993464" lon="11.329285513330053"><ele>304.4</ele><time>2026-04-26T15:28:08.001Z</time></trkpt><trkpt lat="43.504134849719584" lon="11.329316697530036"><ele>304.6</ele><time>2026-04-26T15:28:09.001Z</time></trkpt><trkpt lat="43.50404158532337" lon="11.329373588542916"><ele>304.8</ele><time>2026-04-26T15:28:10.001Z</time></trkpt><trkpt lat="43.503944704091325" lon="11.329415668573699"><ele>305.0</ele><time>2026-04-26T15:28:11.001Z</time></trkpt><trkpt lat="43.50384926374156" lon="11.329481955289895"><ele>305.0</ele><time>2026-04-26T15:28:12.001Z</time></trkpt><trkpt lat="43.50375917018814" lon="11.329568072653364"><ele>305.0</ele><time>2026-04-26T15:28:13.001Z</time></trkpt><trkpt lat="43.503669038158954" lon="11.329682858367043"><ele>305.0</ele><time>2026-04-26T15:28:14.001Z</time></trkpt><trkpt lat="43.503582458083045" lon="11.329812723609201"><ele>305.0</ele><time>2026-04-26T15:28:15.001Z</time></trkpt><trkpt lat="43.503499712833765" lon="11.329959235090275"><ele>306.0</ele><time>2026-04-26T15:28:16.001Z</time></trkpt><trkpt lat="43.503431750182756" lon="11.330109723110537"><ele>307.0</ele><time>2026-04-26T15:28:17.001Z</time></trkpt><trkpt lat="43.50335192665894" lon="11.330257577889114"><ele>308.0</ele><time>2026-04-26T15:28:18.001Z</time></trkpt><trkpt lat="43.50326727360446" lon="11.330395061307655"><ele>309.0</ele><time>2026-04-26T15:28:19.001Z</time></trkpt><trkpt lat="43.503172316552984" lon="11.330536334832491"><ele>309.5</ele><time>2026-04-26T15:28:20.001Z</time></trkpt><trkpt lat="43.50307541551649" lon="11.330672506079154"><ele>310.0</ele><time>2026-04-26T15:28:21.001Z</time></trkpt><trkpt lat="43.502974151285564" lon="11.330813646162442"><ele>310.5</ele><time>2026-04-26T15:28:22.001Z</time></trkpt><trkpt lat="43.50287462031713" lon="11.330954832481272"><ele>311.0</ele><time>2026-04-26T15:28:23.001Z</time></trkpt><trkpt lat="43.502772549986986" lon="11.331093333098188"><ele>311.0</ele><time>2026-04-26T15:28:24.001Z</time></trkpt><trkpt lat="43.50267085684263" lon="11.331237914418356"><ele>311.0</ele><time>2026-04-26T15:28:25.001Z</time></trkpt><trkpt lat="43.50257271645373" lon="11.331383172892975"><ele>311.0</ele><time>2026-04-26T15:28:26.001Z</time></trkpt><trkpt lat="43.50247878243435" lon="11.33153565371511"><ele>311.0</ele><time>2026-04-26T15:28:27Z</time></trkpt><trkpt lat="43.502387949742655" lon="11.33169648389988"><ele>310.5</ele><time>2026-04-26T15:28:28Z</time></trkpt><trkpt lat="43.50229018252877" lon="11.331847155271925"><ele>310.0</ele><time>2026-04-26T15:28:29Z</time></trkpt><trkpt lat="43.502186745910834" lon="11.331990303887332"><ele>309.5</ele><time>2026-04-26T15:28:30Z</time></trkpt><trkpt lat="43.50207687592287" lon="11.332118930049482"><ele>309.0</ele><time>2026-04-26T15:28:31Z</time></trkpt><trkpt lat="43.50196368221511" lon="11.332236310315265"><ele>309.0</ele><time>2026-04-26T15:28:32Z</time></trkpt><trkpt lat="43.501845385938104" lon="11.332344815659898"><ele>309.0</ele><time>2026-04-26T15:28:33Z</time></trkpt><trkpt lat="43.50172450921136" lon="11.332447126945802"><ele>309.0</ele><time>2026-04-26T15:28:34Z</time></trkpt><trkpt lat="43.50160644309074" lon="11.332544564183017"><ele>309.0</ele><time>2026-04-26T15:28:35Z</time></trkpt><trkpt lat="43.50148631159213" lon="11.332652114903015"><ele>309.0</ele><time>2026-04-26T15:28:36Z</time></trkpt><trkpt lat="43.50137034652953" lon="11.332765605462892"><ele>309.0</ele><time>2026-04-26T15:28:37Z</time></trkpt><trkpt lat="43.50125498376108" lon="11.33289083918106"><ele>309.0</ele><time>2026-04-26T15:28:38Z</time></trkpt><trkpt lat="43.501142756015895" lon="11.33301456739481"><ele>309.0</ele><time>2026-04-26T15:28:39Z</time></trkpt><trkpt lat="43.50102836161693" lon="11.3331353232998"><ele>310.0</ele><time>2026-04-26T15:28:40Z</time></trkpt><trkpt lat="43.50092770839562" lon="11.333278631514258"><ele>311.0</ele><time>2026-04-26T15:28:41Z</time></trkpt><trkpt lat="43.50082899262506" lon="11.333423247512462"><ele>312.0</ele><time>2026-04-26T15:28:42Z</time></trkpt><trkpt lat="43.500729951232145" lon="11.333569572963043"><ele>313.0</ele><time>2026-04-26T15:28:43Z</time></trkpt><trkpt lat="43.500638939494095" lon="11.333723528102718"><ele>313.0</ele><time>2026-04-26T15:28:44Z</time></trkpt><trkpt lat="43.50055180286397" lon="11.333875679629172"><ele>313.0</ele><time>2026-04-26T15:28:45Z</time></trkpt><trkpt lat="43.500470893121296" lon="11.334033456447298"><ele>313.0</ele><time>2026-04-26T15:28:46Z</time></trkpt><trkpt lat="43.500393979512346" lon="11.334196231794884"><ele>313.0</ele><time>2026-04-26T15:28:47Z</time></trkpt><trkpt lat="43.500318752976426" lon="11.334358449078396"><ele>312.5</ele><time>2026-04-26T15:28:48Z</time></trkpt><trkpt lat="43.500244327705275" lon="11.334522262431534"><ele>312.0</ele><time>2026-04-26T15:28:49Z</time></trkpt><trkpt lat="43.50017002074861" lon="11.334683452790458"><ele>311.5</ele><time>2026-04-26T15:28:50Z</time></trkpt><trkpt lat="43.500089492473215" lon="11.334847517078925"><ele>311.0</ele><time>2026-04-26T15:28:51Z</time></trkpt><trkpt lat="43.50001368167901" lon="11.335009571200814"><ele>311.0</ele><time>2026-04-26T15:28:52Z</time></trkpt><trkpt lat="43.49993619147972" lon="11.33517040625608"><ele>311.0</ele><time>2026-04-26T15:28:53Z</time></trkpt><trkpt lat="43.4998580469637" lon="11.335330408840278"><ele>311.0</ele><time>2026-04-26T15:28:54Z</time></trkpt><trkpt lat="43.499779579095616" lon="11.335490735037729"><ele>311.0</ele><time>2026-04-26T15:28:55Z</time></trkpt><trkpt lat="43.49970320796084" lon="11.335652191850098"><ele>310.75</ele><time>2026-04-26T15:28:56Z</time></trkpt><trkpt lat="43.499623802670094" lon="11.335814026172493"><ele>310.5</ele><time>2026-04-26T15:28:57Z</time></trkpt><trkpt lat="43.49954737330614" lon="11.335974853517424"><ele>310.25</ele><time>2026-04-26T15:28:58Z</time></trkpt><trkpt lat="43.499470988194176" lon="11.336138449469717"><ele>310.0</ele><time>2026-04-26T15:28:59Z</time></trkpt><trkpt lat="43.49939354139379" lon="11.336301339051055"><ele>310.5</ele><time>2026-04-26T15:29:00Z</time></trkpt><trkpt lat="43.49931820015899" lon="11.336455076927948"><ele>311.0</ele><time>2026-04-26T15:29:01Z</time></trkpt><trkpt lat="43.49923732571043" lon="11.3366102531473"><ele>311.5</ele><time>2026-04-26T15:29:02Z</time></trkpt><trkpt lat="43.49915440533878" lon="11.336759420935005"><ele>312.0</ele><time>2026-04-26T15:29:03Z</time></trkpt><trkpt lat="43.499064614295264" lon="11.336903526158874"><ele>312.0</ele><time>2026-04-26T15:29:04Z</time></trkpt><trkpt lat="43.498972437255546" lon="11.337044105767355"><ele>312.0</ele><time>2026-04-26T15:29:05Z</time></trkpt><trkpt lat="43.498875101517065" lon="11.337180638474006"><ele>312.0</ele><time>2026-04-26T15:29:06Z</time></trkpt><trkpt lat="43.49877578829326" lon="11.337315232667956"><ele>312.0</ele><time>2026-04-26T15:29:07Z</time></trkpt><trkpt lat="43.49867018879028" lon="11.33743887195153"><ele>314.5</ele><time>2026-04-26T15:29:08Z</time></trkpt><trkpt lat="43.49856630568198" lon="11.33756380876277"><ele>317.0</ele><time>2026-04-26T15:29:09Z</time></trkpt><trkpt lat="43.49845846993825" lon="11.337685128715322"><ele>319.5</ele><time>2026-04-26T15:29:10Z</time></trkpt><trkpt lat="43.49835298414962" lon="11.337802252621346"><ele>322.0</ele><time>2026-04-26T15:29:11Z</time></trkpt><trkpt lat="43.49824747742082" lon="11.337914274683731"><ele>322.0</ele><time>2026-04-26T15:29:12Z</time></trkpt><trkpt lat="43.498148957478236" lon="11.338031947261964"><ele>322.0</ele><time>2026-04-26T15:29:13Z</time></trkpt><trkpt lat="43.49805416186643" lon="11.338169582823985"><ele>322.0</ele><time>2026-04-26T15:29:14Z</time></trkpt><trkpt lat="43.4979671999737" lon="11.338310040188183"><ele>322.0</ele><time>2026-04-26T15:29:15Z</time></trkpt><trkpt lat="43.49788011526281" lon="11.338462630552186"><ele>321.0</ele><time>2026-04-26T15:29:16Z</time></trkpt><trkpt lat="43.49779322052785" lon="11.338617216634425"><ele>320.0</ele><time>2026-04-26T15:29:17Z</time></trkpt><trkpt lat="43.49770910122478" lon="11.338774396149827"><ele>319.0</ele><time>2026-04-26T15:29:18Z</time></trkpt><trkpt lat="43.497628622704504" lon="11.338929861804052"><ele>318.0</ele><time>2026-04-26T15:29:19Z</time></trkpt><trkpt lat="43.49754932552291" lon="11.339083003554913"><ele>318.0</ele><time>2026-04-26T15:29:20Z</time></trkpt><trkpt lat="43.49746465724559" lon="11.339235020574591"><ele>318.0</ele><time>2026-04-26T15:29:21Z</time></trkpt><trkpt lat="43.49738777811403" lon="11.339400217909528"><ele>318.0</ele><time>2026-04-26T15:29:22Z</time></trkpt><trkpt lat="43.497324180794365" lon="11.339574134897042"><ele>318.0</ele><time>2026-04-26T15:29:23Z</time></trkpt><trkpt lat="43.497270861539754" lon="11.339753180469407"><ele>316.25</ele><time>2026-04-26T15:29:24Z</time></trkpt><trkpt lat="43.49722302578853" lon="11.339933122142396"><ele>314.5</ele><time>2026-04-26T15:29:25Z</time></trkpt><trkpt lat="43.49717180382933" lon="11.340115301986305"><ele>312.75</ele><time>2026-04-26T15:29:26Z</time></trkpt><trkpt lat="43.497117770546794" lon="11.340294210506055"><ele>311.0</ele><time>2026-04-26T15:29:27Z</time></trkpt><trkpt lat="43.49706613668401" lon="11.340473218864334"><ele>313.25</ele><time>2026-04-26T15:29:28Z</time></trkpt><trkpt lat="43.497017993620645" lon="11.34065472091524"><ele>315.5</ele><time>2026-04-26T15:29:29Z</time></trkpt><trkpt lat="43.496968092014356" lon="11.340832121932483"><ele>317.75</ele><time>2026-04-26T15:29:30Z</time></trkpt><trkpt lat="43.49691996495683" lon="11.34100919681079"><ele>320.0</ele><time>2026-04-26T15:29:31Z</time></trkpt><trkpt lat="43.496874669947736" lon="11.341192431633598"><ele>320.0</ele><time>2026-04-26T15:29:32Z</time></trkpt><trkpt lat="43.4968209043639" lon="11.341364346266868"><ele>320.0</ele><time>2026-04-26T15:29:33Z</time></trkpt><trkpt lat="43.496770262850994" lon="11.341538639482225"><ele>320.0</ele><time>2026-04-26T15:29:34Z</time></trkpt><trkpt lat="43.496719461398484" lon="11.341719363324373"><ele>320.0</ele><time>2026-04-26T15:29:35Z</time></trkpt><trkpt lat="43.49666668278564" lon="11.341895964203564"><ele>319.75</ele><time>2026-04-26T15:29:36Z</time></trkpt><trkpt lat="43.49661028017384" lon="11.342068199130972"><ele>319.5</ele><time>2026-04-26T15:29:37Z</time></trkpt><trkpt lat="43.49654471264152" lon="11.342236285763448"><ele>319.25</ele><time>2026-04-26T15:29:38Z</time></trkpt><trkpt lat="43.49647177289449" lon="11.342395522959213"><ele>319.0</ele><time>2026-04-26T15:29:39Z</time></trkpt><trkpt lat="43.49638772988958" lon="11.342542601474246"><ele>319.0</ele><time>2026-04-26T15:29:40Z</time></trkpt><trkpt lat="43.49629618268829" lon="11.34269353090235"><ele>319.0</ele><time>2026-04-26T15:29:41Z</time></trkpt><trkpt lat="43.49619799260648" lon="11.34283143857664"><ele>319.0</ele><time>2026-04-26T15:29:42Z</time></trkpt><trkpt lat="43.496096256179385" lon="11.342961967430966"><ele>319.0</ele><time>2026-04-26T15:29:43Z</time></trkpt><trkpt lat="43.49599891268461" lon="11.343085564965985"><ele>319.5</ele><time>2026-04-26T15:29:44Z</time></trkpt><trkpt lat="43.49590420559173" lon="11.34322313265202"><ele>320.0</ele><time>2026-04-26T15:29:45Z</time></trkpt><trkpt lat="43.49583290522491" lon="11.343383125161392"><ele>320.5</ele><time>2026-04-26T15:29:46Z</time></trkpt><trkpt lat="43.49574506413836" lon="11.34354234931784"><ele>321.0</ele><time>2026-04-26T15:29:47Z</time></trkpt><trkpt lat="43.49566760638788" lon="11.343706310897252"><ele>321.0</ele><time>2026-04-26T15:29:48Z</time></trkpt><trkpt lat="43.495593923390345" lon="11.343874172128215"><ele>321.0</ele><time>2026-04-26T15:29:49Z</time></trkpt><trkpt lat="43.49551565866809" lon="11.344049668912104"><ele>321.0</ele><time>2026-04-26T15:29:50Z</time></trkpt><trkpt lat="43.49544476120863" lon="11.344227916020964"><ele>321.0</ele><time>2026-04-26T15:29:51Z</time></trkpt><trkpt lat="43.495381015063266" lon="11.344408833180463"><ele>321.0</ele><time>2026-04-26T15:29:52Z</time></trkpt><trkpt lat="43.49531577932476" lon="11.344589755796386"><ele>321.0</ele><time>2026-04-26T15:29:53Z</time></trkpt><trkpt lat="43.49524792947617" lon="11.344773454647031"><ele>321.0</ele><time>2026-04-26T15:29:54Z</time></trkpt><trkpt lat="43.49517703618224" lon="11.344955914164622"><ele>321.0</ele><time>2026-04-26T15:29:55.001Z</time></trkpt><trkpt lat="43.49510869641691" lon="11.345140260071444"><ele>321.0</ele><time>2026-04-26T15:29:56.001Z</time></trkpt><trkpt lat="43.495043637438805" lon="11.345320226992728"><ele>321.0</ele><time>2026-04-26T15:29:57.001Z</time></trkpt><trkpt lat="43.494985027859656" lon="11.345498768147277"><ele>321.0</ele><time>2026-04-26T15:29:58.001Z</time></trkpt><trkpt lat="43.49491578296728" lon="11.345675905172792"><ele>321.0</ele><time>2026-04-26T15:29:59.001Z</time></trkpt><trkpt lat="43.49486572054795" lon="11.345835274090069"><ele>320.75</ele><time>2026-04-26T15:30:00.001Z</time></trkpt><trkpt lat="43.494800993059734" lon="11.345998884792664"><ele>320.5</ele><time>2026-04-26T15:30:01.001Z</time></trkpt><trkpt lat="43.49474018985364" lon="11.346171378216198"><ele>320.25</ele><time>2026-04-26T15:30:02.001Z</time></trkpt><trkpt lat="43.49468047497841" lon="11.346331161092635"><ele>320.0</ele><time>2026-04-26T15:30:03.001Z</time></trkpt><trkpt lat="43.494623028136274" lon="11.346490483763642"><ele>323.5</ele><time>2026-04-26T15:30:04.001Z</time></trkpt><trkpt lat="43.49457233763776" lon="11.346637155398456"><ele>327.0</ele><time>2026-04-26T15:30:05.001Z</time></trkpt><trkpt lat="43.49452240905316" lon="11.346780507028067"><ele>330.5</ele><time>2026-04-26T15:30:06.001Z</time></trkpt><trkpt lat="43.49446118375436" lon="11.346930087199626"><ele>334.0</ele><time>2026-04-26T15:30:07.001Z</time></trkpt><trkpt lat="43.494401387638334" lon="11.347080503541676"><ele>332.0</ele><time>2026-04-26T15:30:08.001Z</time></trkpt><trkpt lat="43.49434095386886" lon="11.34722895546226"><ele>330.0</ele><time>2026-04-26T15:30:09.001Z</time></trkpt><trkpt lat="43.49428131001372" lon="11.347374860738922"><ele>328.0</ele><time>2026-04-26T15:30:10.001Z</time></trkpt><trkpt lat="43.49421192186776" lon="11.347518139287253"><ele>326.0</ele><time>2026-04-26T15:30:11.001Z</time></trkpt><trkpt lat="43.4941303519205" lon="11.347659147219813"><ele>326.0</ele><time>2026-04-26T15:30:12.001Z</time></trkpt><trkpt lat="43.494046962770305" lon="11.3478039793522"><ele>326.0</ele><time>2026-04-26T15:30:13.001Z</time></trkpt><trkpt lat="43.49395913450871" lon="11.347943235740553"><ele>326.0</ele><time>2026-04-26T15:30:14.001Z</time></trkpt><trkpt lat="43.4938730480244" lon="11.348084573301717"><ele>326.0</ele><time>2026-04-26T15:30:15.001Z</time></trkpt><trkpt lat="43.49377778472395" lon="11.348227219547518"><ele>326.0</ele><time>2026-04-26T15:30:16.001Z</time></trkpt><trkpt lat="43.49367290585625" lon="11.348361758338616"><ele>326.0</ele><time>2026-04-26T15:30:17.001Z</time></trkpt><trkpt lat="43.49357613209392" lon="11.348497604556579"><ele>326.0</ele><time>2026-04-26T15:30:18.001Z</time></trkpt><trkpt lat="43.493476399151824" lon="11.348628022094774"><ele>326.0</ele><time>2026-04-26T15:30:19.001Z</time></trkpt><trkpt lat="43.49337544876246" lon="11.348757899662889"><ele>325.25</ele><time>2026-04-26T15:30:20.001Z</time></trkpt><trkpt lat="43.49327377738687" lon="11.34888492328574"><ele>324.5</ele><time>2026-04-26T15:30:21.001Z</time></trkpt><trkpt lat="43.4931678634771" lon="11.34900405228538"><ele>323.75</ele><time>2026-04-26T15:30:22.001Z</time></trkpt><trkpt lat="43.493057393273894" lon="11.349113517854834"><ele>323.0</ele><time>2026-04-26T15:30:23.001Z</time></trkpt><trkpt lat="43.49294541160185" lon="11.34922100950989"><ele>324.75</ele><time>2026-04-26T15:30:24.001Z</time></trkpt><trkpt lat="43.492830140290025" lon="11.349331215288407"><ele>326.5</ele><time>2026-04-26T15:30:25.001Z</time></trkpt><trkpt lat="43.49271496415539" lon="11.349431231927904"><ele>328.25</ele><time>2026-04-26T15:30:26.001Z</time></trkpt><trkpt lat="43.49260589440426" lon="11.349533819589253"><ele>330.0</ele><time>2026-04-26T15:30:27.001Z</time></trkpt><trkpt lat="43.492497528746846" lon="11.34962856112823"><ele>331.0</ele><time>2026-04-26T15:30:28.001Z</time></trkpt><trkpt lat="43.492390308294354" lon="11.349725301938376"><ele>332.0</ele><time>2026-04-26T15:30:29.001Z</time></trkpt><trkpt lat="43.49228382830397" lon="11.349831953437295"><ele>333.0</ele><time>2026-04-26T15:30:30.001Z</time></trkpt><trkpt lat="43.49217390627316" lon="11.349921960110713"><ele>334.0</ele><time>2026-04-26T15:30:31.001Z</time></trkpt><trkpt lat="43.49206794611641" lon="11.350023591493335"><ele>334.0</ele><time>2026-04-26T15:30:32.001Z</time></trkpt><trkpt lat="43.491967421968795" lon="11.350132359812962"><ele>334.0</ele><time>2026-04-26T15:30:33Z</time></trkpt><trkpt lat="43.491864066080325" lon="11.350233936236174"><ele>334.0</ele><time>2026-04-26T15:30:34Z</time></trkpt><trkpt lat="43.491759538883215" lon="11.350331931623993"><ele>334.0</ele><time>2026-04-26T15:30:35Z</time></trkpt><trkpt lat="43.4916582515827" lon="11.350434668371058"><ele>334.0</ele><time>2026-04-26T15:30:36Z</time></trkpt><trkpt lat="43.49154837973724" lon="11.350537120959302"><ele>334.0</ele><time>2026-04-26T15:30:37Z</time></trkpt><trkpt lat="43.49144585385397" lon="11.350628022628717"><ele>334.0</ele><time>2026-04-26T15:30:38Z</time></trkpt><trkpt lat="43.491345561663636" lon="11.350726806795485"><ele>334.0</ele><time>2026-04-26T15:30:39Z</time></trkpt><trkpt lat="43.491244155720004" lon="11.35082657662114"><ele>334.0</ele><time>2026-04-26T15:30:40Z</time></trkpt><trkpt lat="43.4911409407478" lon="11.350915908081358"><ele>334.0</ele><time>2026-04-26T15:30:41Z</time></trkpt><trkpt lat="43.491029401396396" lon="11.350988154424746"><ele>334.0</ele><time>2026-04-26T15:30:42Z</time></trkpt><trkpt lat="43.49091475484578" lon="11.351047121415952"><ele>334.0</ele><time>2026-04-26T15:30:43Z</time></trkpt><trkpt lat="43.49080320235875" lon="11.35109115807708"><ele>334.0</ele><time>2026-04-26T15:30:44Z</time></trkpt><trkpt lat="43.49069264089632" lon="11.351137669884404"><ele>334.0</ele><time>2026-04-26T15:30:45Z</time></trkpt><trkpt lat="43.490590880332874" lon="11.351197578057384"><ele>334.0</ele><time>2026-04-26T15:30:46Z</time></trkpt><trkpt lat="43.490495973819456" lon="11.351278956238051"><ele>334.0</ele><time>2026-04-26T15:30:47Z</time></trkpt><trkpt lat="43.49040353538605" lon="11.351382817924865"><ele>333.75</ele><time>2026-04-26T15:30:48Z</time></trkpt><trkpt lat="43.490321012042386" lon="11.351502114753403"><ele>333.5</ele><time>2026-04-26T15:30:49Z</time></trkpt><trkpt lat="43.490260056266756" lon="11.351636237460125"><ele>333.25</ele><time>2026-04-26T15:30:50Z</time></trkpt><trkpt lat="43.490221570309394" lon="11.351780773831015"><ele>333.0</ele><time>2026-04-26T15:30:51Z</time></trkpt><trkpt lat="43.49022294039435" lon="11.35196710333332"><ele>333.0</ele><time>2026-04-26T15:30:52Z</time></trkpt><trkpt lat="43.4902431974103" lon="11.352145509530597"><ele>333.0</ele><time>2026-04-26T15:30:53Z</time></trkpt><trkpt lat="43.490277996828404" lon="11.352279383550819"><ele>333.0</ele><time>2026-04-26T15:30:54Z</time></trkpt><trkpt lat="43.49032377287873" lon="11.352437134984246"><ele>333.0</ele><time>2026-04-26T15:30:55Z</time></trkpt><trkpt lat="43.490385158783106" lon="11.352598309130986"><ele>333.0</ele><time>2026-04-26T15:30:56Z</time></trkpt><trkpt lat="43.490444972240724" lon="11.352763201592385"><ele>333.0</ele><time>2026-04-26T15:30:57Z</time></trkpt><trkpt lat="43.49051435101345" lon="11.352920951598202"><ele>333.0</ele><time>2026-04-26T15:30:58Z</time></trkpt><trkpt lat="43.490575966635966" lon="11.353082218883717"><ele>333.0</ele><time>2026-04-26T15:30:59Z</time></trkpt><trkpt lat="43.49062919805705" lon="11.353250047382488"><ele>333.0</ele><time>2026-04-26T15:31:00Z</time></trkpt><trkpt lat="43.49066149635654" lon="11.353434436389525"><ele>333.0</ele><time>2026-04-26T15:31:01Z</time></trkpt><trkpt lat="43.49066551565723" lon="11.35362279257186"><ele>333.0</ele><time>2026-04-26T15:31:02Z</time></trkpt><trkpt lat="43.490669776251494" lon="11.353811530582865"><ele>333.0</ele><time>2026-04-26T15:31:03Z</time></trkpt><trkpt lat="43.490692013854684" lon="11.353999179463164"><ele>333.5</ele><time>2026-04-26T15:31:04Z</time></trkpt><trkpt lat="43.490738774203436" lon="11.354170742599562"><ele>334.0</ele><time>2026-04-26T15:31:05Z</time></trkpt><trkpt lat="43.49080935580962" lon="11.354311584010663"><ele>334.5</ele><time>2026-04-26T15:31:06Z</time></trkpt><trkpt lat="43.490898831554574" lon="11.354427134899618"><ele>335.0</ele><time>2026-04-26T15:31:07Z</time></trkpt><trkpt lat="43.49100293852653" lon="11.354518211664825"><ele>335.0</ele><time>2026-04-26T15:31:08Z</time></trkpt><trkpt lat="43.49111601836885" lon="11.35458850639965"><ele>335.0</ele><time>2026-04-26T15:31:09Z</time></trkpt><trkpt lat="43.49121782613999" lon="11.354645632871536"><ele>335.0</ele><time>2026-04-26T15:31:10Z</time></trkpt><trkpt lat="43.49130564412773" lon="11.354685097957717"><ele>335.0</ele><time>2026-04-26T15:31:11Z</time></trkpt><trkpt lat="43.49139435958154" lon="11.354719551420569"><ele>335.0</ele><time>2026-04-26T15:31:12Z</time></trkpt><trkpt lat="43.49147568446012" lon="11.35475195066147"><ele>336.71428571428567</ele><time>2026-04-26T15:31:13Z</time></trkpt><trkpt lat="43.49155726555436" lon="11.354789604051069"><ele>338.42857142857144</ele><time>2026-04-26T15:31:14Z</time></trkpt><trkpt lat="43.49163170697101" lon="11.354819955625654"><ele>340.1428571428571</ele><time>2026-04-26T15:31:15Z</time></trkpt><trkpt lat="43.49170013241615" lon="11.354853873462858"><ele>341.85714285714283</ele><time>2026-04-26T15:31:16Z</time></trkpt><trkpt lat="43.49176490790081" lon="11.354877784906574"><ele>343.57142857142856</ele><time>2026-04-26T15:31:17Z</time></trkpt><trkpt lat="43.49182742450198" lon="11.354901205588458"><ele>345.2857142857143</ele><time>2026-04-26T15:31:18Z</time></trkpt><trkpt lat="43.49189329549315" lon="11.354941654175937"><ele>347.0</ele><time>2026-04-26T15:31:19Z</time></trkpt><trkpt lat="43.4919641815326" lon="11.354990359268834"><ele>347.0</ele><time>2026-04-26T15:31:20Z</time></trkpt><trkpt lat="43.49202967389842" lon="11.355041922944462"><ele>347.0</ele><time>2026-04-26T15:31:21Z</time></trkpt><trkpt lat="43.492097603807004" lon="11.355126449555499"><ele>347.0</ele><time>2026-04-26T15:31:22Z</time></trkpt><trkpt lat="43.49215964568153" lon="11.355226593802808"><ele>347.0</ele><time>2026-04-26T15:31:23Z</time></trkpt><trkpt lat="43.49221501787852" lon="11.355328888625111"><ele>347.0</ele><time>2026-04-26T15:31:24Z</time></trkpt><trkpt lat="43.4922671716997" lon="11.355452832199832"><ele>346.40000000000003</ele><time>2026-04-26T15:31:25Z</time></trkpt><trkpt lat="43.49230441239013" lon="11.35559521006759"><ele>345.8</ele><time>2026-04-26T15:31:26Z</time></trkpt><trkpt lat="43.49234110792337" lon="11.355737122718603"><ele>345.2</ele><time>2026-04-26T15:31:27Z</time></trkpt><trkpt lat="43.49235988085141" lon="11.355885680653627"><ele>344.6</ele><time>2026-04-26T15:31:28Z</time></trkpt><trkpt lat="43.49235682786182" lon="11.356041356915407"><ele>344.0</ele><time>2026-04-26T15:31:29Z</time></trkpt><trkpt lat="43.492364027330474" lon="11.356182211146796"><ele>344.0</ele><time>2026-04-26T15:31:30Z</time></trkpt><trkpt lat="43.49236918540128" lon="11.356311084400986"><ele>344.0</ele><time>2026-04-26T15:31:31Z</time></trkpt><trkpt lat="43.49238225818346" lon="11.356423808216434"><ele>344.0</ele><time>2026-04-26T15:31:32Z</time></trkpt><trkpt lat="43.4923895382054" lon="11.356532205204086"><ele>344.0</ele><time>2026-04-26T15:31:33Z</time></trkpt><trkpt lat="43.49241136278171" lon="11.356631568817372"><ele>344.0</ele><time>2026-04-26T15:31:34Z</time></trkpt><trkpt lat="43.49243302328797" lon="11.356721638112342"><ele>344.0</ele><time>2026-04-26T15:31:35Z</time></trkpt><trkpt lat="43.492451476975596" lon="11.356816958521623"><ele>345.33333333333337</ele><time>2026-04-26T15:31:36Z</time></trkpt><trkpt lat="43.49245408165986" lon="11.356904061155268"><ele>346.6666666666667</ele><time>2026-04-26T15:31:37Z</time></trkpt><trkpt lat="43.49250879213657" lon="11.356955568824471"><ele>348.0</ele><time>2026-04-26T15:31:39Z</time></trkpt><trkpt lat="43.492474380046986" lon="11.356873450569687"><ele>349.3333333333333</ele><time>2026-04-26T15:31:43Z</time></trkpt><trkpt lat="43.492451335287186" lon="11.35678893365095"><ele>350.66666666666663</ele><time>2026-04-26T15:32:01.001Z</time></trkpt><trkpt lat="43.49243186984115" lon="11.356669378316917"><ele>352.0</ele><time>2026-04-26T15:32:02.001Z</time></trkpt><trkpt lat="43.492391743710236" lon="11.356545431797775"><ele>352.0</ele><time>2026-04-26T15:32:03.001Z</time></trkpt><trkpt lat="43.492364724814124" lon="11.356417495529575"><ele>352.0</ele><time>2026-04-26T15:32:04.001Z</time></trkpt><trkpt lat="43.492349994682876" lon="11.35626839582526"><ele>352.0</ele><time>2026-04-26T15:32:05.001Z</time></trkpt><trkpt lat="43.49239106274741" lon="11.35610390724856"><ele>352.0</ele><time>2026-04-26T15:32:06.001Z</time></trkpt><trkpt lat="43.49238158221747" lon="11.35593947829126"><ele>350.0</ele><time>2026-04-26T15:32:07.001Z</time></trkpt><trkpt lat="43.49236548077667" lon="11.355782133925388"><ele>348.0</ele><time>2026-04-26T15:32:08.001Z</time></trkpt><trkpt lat="43.49233603279308" lon="11.355621266724164"><ele>346.0</ele><time>2026-04-26T15:32:09.001Z</time></trkpt><trkpt lat="43.492301683862756" lon="11.355473013214997"><ele>344.0</ele><time>2026-04-26T15:32:10.001Z</time></trkpt><trkpt lat="43.49225683774835" lon="11.355339242209569"><ele>344.75</ele><time>2026-04-26T15:32:11.001Z</time></trkpt><trkpt lat="43.492195455213725" lon="11.355214319602991"><ele>345.5</ele><time>2026-04-26T15:32:12.001Z</time></trkpt><trkpt lat="43.49212259454461" lon="11.355099720125512"><ele>346.25</ele><time>2026-04-26T15:32:13.001Z</time></trkpt><trkpt lat="43.49203288400397" lon="11.355003798490898"><ele>347.0</ele><time>2026-04-26T15:32:14.001Z</time></trkpt><trkpt lat="43.49193273665327" lon="11.354920848223601"><ele>347.0</ele><time>2026-04-26T15:32:15.001Z</time></trkpt><trkpt lat="43.49181854863829" lon="11.35488038143325"><ele>347.0</ele><time>2026-04-26T15:32:16.001Z</time></trkpt><trkpt lat="43.491710646231496" lon="11.35482464910339"><ele>347.0</ele><time>2026-04-26T15:32:17.001Z</time></trkpt><trkpt lat="43.49159071966532" lon="11.354781597227943"><ele>347.0</ele><time>2026-04-26T15:32:18.001Z</time></trkpt><trkpt lat="43.491475210292094" lon="11.354716574270698"><ele>344.0</ele><time>2026-04-26T15:32:19.001Z</time></trkpt><trkpt lat="43.49135832316943" lon="11.354669826821366"><ele>341.0</ele><time>2026-04-26T15:32:20.001Z</time></trkpt><trkpt lat="43.49124620455512" lon="11.354637337136968"><ele>338.0</ele><time>2026-04-26T15:32:21.001Z</time></trkpt><trkpt lat="43.49111044260266" lon="11.354545197402961"><ele>335.0</ele><time>2026-04-26T15:32:23.001Z</time></trkpt><trkpt lat="43.491047788707384" lon="11.354502388293076"><ele>335.0</ele><time>2026-04-26T15:32:25.001Z</time></trkpt><trkpt lat="43.490980097099516" lon="11.354675850694534"><ele>335.0</ele><time>2026-04-26T15:32:27.001Z</time></trkpt><trkpt lat="43.4909659516872" lon="11.354771151266627"><ele>335.0</ele><time>2026-04-26T15:32:28.001Z</time></trkpt><trkpt lat="43.490927544048766" lon="11.354854004423823"><ele>335.0</ele><time>2026-04-26T15:32:29.001Z</time></trkpt><trkpt lat="43.49083358546185" lon="11.355006378061445"><ele>335.0</ele><time>2026-04-26T15:32:31.001Z</time></trkpt><trkpt lat="43.49077116947636" lon="11.35509919482433"><ele>336.2</ele><time>2026-04-26T15:32:32.001Z</time></trkpt><trkpt lat="43.490704466605365" lon="11.355189452406421"><ele>337.4</ele><time>2026-04-26T15:32:33.001Z</time></trkpt><trkpt lat="43.49062570737025" lon="11.355248425188663"><ele>338.6</ele><time>2026-04-26T15:32:34.001Z</time></trkpt><trkpt lat="43.49053952425636" lon="11.355304230364363"><ele>339.8</ele><time>2026-04-26T15:32:35.001Z</time></trkpt><trkpt lat="43.490457438011404" lon="11.355357502230007"><ele>341.0</ele><time>2026-04-26T15:32:36.001Z</time></trkpt><trkpt lat="43.49037701916107" lon="11.355400101287724"><ele>342.33333333333337</ele><time>2026-04-26T15:32:37.001Z</time></trkpt><trkpt lat="43.49029569343562" lon="11.355442356935509"><ele>343.6666666666667</ele><time>2026-04-26T15:32:38.001Z</time></trkpt><trkpt lat="43.4902192599873" lon="11.355476474806789"><ele>345.0</ele><time>2026-04-26T15:32:39Z</time></trkpt><trkpt lat="43.49014712071009" lon="11.355522537928794"><ele>346.3333333333333</ele><time>2026-04-26T15:32:40Z</time></trkpt><trkpt lat="43.490072221884965" lon="11.355549539837808"><ele>347.66666666666663</ele><time>2026-04-26T15:32:41Z</time></trkpt><trkpt lat="43.48999251896556" lon="11.355589565334197"><ele>349.0</ele><time>2026-04-26T15:32:42Z</time></trkpt><trkpt lat="43.489928458850976" lon="11.355614491027861"><ele>349.66666666666663</ele><time>2026-04-26T15:32:43Z</time></trkpt><trkpt lat="43.4898431848647" lon="11.355681542767242"><ele>350.3333333333333</ele><time>2026-04-26T15:32:45Z</time></trkpt><trkpt lat="43.48984888612726" lon="11.355820587804889"><ele>351.0</ele><time>2026-04-26T15:32:47Z</time></trkpt><trkpt lat="43.48989918665045" lon="11.35589558687693"><ele>351.6666666666667</ele><time>2026-04-26T15:32:48Z</time></trkpt><trkpt lat="43.48997290725417" lon="11.355941688070073"><ele>352.33333333333337</ele><time>2026-04-26T15:32:49Z</time></trkpt><trkpt lat="43.49005566878421" lon="11.355986435458691"><ele>353.0</ele><time>2026-04-26T15:32:50Z</time></trkpt><trkpt lat="43.49011217281456" lon="11.356036564081077"><ele>353.0</ele><time>2026-04-26T15:32:51Z</time></trkpt><trkpt lat="43.49017402950727" lon="11.356161993785534"><ele>353.0</ele><time>2026-04-26T15:32:53Z</time></trkpt><trkpt lat="43.49016580213545" lon="11.356248898749014"><ele>353.0</ele><time>2026-04-26T15:32:54Z</time></trkpt><trkpt lat="43.49012942019493" lon="11.356334353852851"><ele>353.0</ele><time>2026-04-26T15:32:55Z</time></trkpt><trkpt lat="43.49005399426467" lon="11.356399545229946"><ele>353.0</ele><time>2026-04-26T15:32:56Z</time></trkpt><trkpt lat="43.48997140991057" lon="11.356460022280078"><ele>353.0</ele><time>2026-04-26T15:32:57Z</time></trkpt><trkpt lat="43.48989162532164" lon="11.356548897072173"><ele>355.59999999999997</ele><time>2026-04-26T15:32:58Z</time></trkpt><trkpt lat="43.4898021015008" lon="11.356634719585086"><ele>358.2</ele><time>2026-04-26T15:32:59Z</time></trkpt><trkpt lat="43.489714127185586" lon="11.356720185222093"><ele>360.8</ele><time>2026-04-26T15:33:00Z</time></trkpt><trkpt lat="43.48963966497458" lon="11.35680914094957"><ele>363.4</ele><time>2026-04-26T15:33:01Z</time></trkpt><trkpt lat="43.48957236222428" lon="11.356893764327404"><ele>366.0</ele><time>2026-04-26T15:33:02Z</time></trkpt><trkpt lat="43.48950400728466" lon="11.356977392479358"><ele>366.4</ele><time>2026-04-26T15:33:03Z</time></trkpt><trkpt lat="43.4894434514425" lon="11.357059502191051"><ele>366.8</ele><time>2026-04-26T15:33:04Z</time></trkpt><trkpt lat="43.48937531068715" lon="11.35716303949457"><ele>367.2</ele><time>2026-04-26T15:33:05Z</time></trkpt><trkpt lat="43.48930316349232" lon="11.35728839560708"><ele>367.59999999999997</ele><time>2026-04-26T15:33:06Z</time></trkpt><trkpt lat="43.489234175310294" lon="11.357429284915087"><ele>368.0</ele><time>2026-04-26T15:33:07Z</time></trkpt><trkpt lat="43.489165626067376" lon="11.357598066009038"><ele>371.33333333333337</ele><time>2026-04-26T15:33:08Z</time></trkpt><trkpt lat="43.48910275916561" lon="11.357779662858547"><ele>374.6666666666667</ele><time>2026-04-26T15:33:09Z</time></trkpt><trkpt lat="43.489053526894786" lon="11.357999188202664"><ele>378.0</ele><time>2026-04-26T15:33:10Z</time></trkpt><trkpt lat="43.48900170358266" lon="11.35828874937156"><ele>382.66666666666663</ele><time>2026-04-26T15:33:11Z</time></trkpt><trkpt lat="43.48895944699347" lon="11.358544938717419"><ele>387.3333333333333</ele><time>2026-04-26T15:33:12Z</time></trkpt><trkpt lat="43.48891926346365" lon="11.358736160447288"><ele>392.0</ele><time>2026-04-26T15:33:13Z</time></trkpt><trkpt lat="43.48890362807175" lon="11.358910976578416"><ele>394.75</ele><time>2026-04-26T15:33:14Z</time></trkpt><trkpt lat="43.488879416775504" lon="11.359089417018449"><ele>397.5</ele><time>2026-04-26T15:33:15Z</time></trkpt><trkpt lat="43.488829999305715" lon="11.359256769434653"><ele>400.25</ele><time>2026-04-26T15:33:16Z</time></trkpt><trkpt lat="43.48880719846125" lon="11.359426281811594"><ele>403.0</ele><time>2026-04-26T15:33:17Z</time></trkpt><trkpt lat="43.488766663639915" lon="11.359575758249665"><ele>404.5</ele><time>2026-04-26T15:33:18Z</time></trkpt><trkpt lat="43.488713236437036" lon="11.359728707674153"><ele>406.0</ele><time>2026-04-26T15:33:19Z</time></trkpt><trkpt lat="43.488652202151656" lon="11.359876992375336"><ele>407.5</ele><time>2026-04-26T15:33:20Z</time></trkpt><trkpt lat="43.48859152558956" lon="11.36002598927868"><ele>409.0</ele><time>2026-04-26T15:33:21Z</time></trkpt><trkpt lat="43.488526488085064" lon="11.36017151968689"><ele>409.0</ele><time>2026-04-26T15:33:22Z</time></trkpt><trkpt lat="43.48846684897516" lon="11.360322757645527"><ele>409.0</ele><time>2026-04-26T15:33:23Z</time></trkpt><trkpt lat="43.48840819407872" lon="11.360471850252475"><ele>409.0</ele><time>2026-04-26T15:33:24Z</time></trkpt><trkpt lat="43.48834909401505" lon="11.360616295617392"><ele>409.0</ele><time>2026-04-26T15:33:25Z</time></trkpt><trkpt lat="43.48828621584865" lon="11.360755846683695"><ele>410.83333333333337</ele><time>2026-04-26T15:33:26Z</time></trkpt><trkpt lat="43.48823516751656" lon="11.360864278542344"><ele>412.6666666666667</ele><time>2026-04-26T15:33:27Z</time></trkpt><trkpt lat="43.4881942760605" lon="11.360947196943524"><ele>414.5</ele><time>2026-04-26T15:33:28Z</time></trkpt><trkpt lat="43.48815215149787" lon="11.361024490483556"><ele>416.33333333333337</ele><time>2026-04-26T15:33:29Z</time></trkpt><trkpt lat="43.48811937226684" lon="11.361107408876528"><ele>418.1666666666667</ele><time>2026-04-26T15:33:30Z</time></trkpt><trkpt lat="43.48813621714653" lon="11.361243369369603"><ele>420.0</ele><time>2026-04-26T15:33:32Z</time></trkpt><trkpt lat="43.48818917636946" lon="11.361292237007264"><ele>420.0</ele><time>2026-04-26T15:33:33Z</time></trkpt><trkpt lat="43.488264488547685" lon="11.36132011322273"><ele>420.0</ele><time>2026-04-26T15:33:34Z</time></trkpt><trkpt lat="43.488331633283046" lon="11.361327373870797"><ele>420.0</ele><time>2026-04-26T15:33:35Z</time></trkpt><trkpt lat="43.48841666713398" lon="11.361377831072476"><ele>420.0</ele><time>2026-04-26T15:33:37Z</time></trkpt><trkpt lat="43.488478438105844" lon="11.361468060920936"><ele>420.0</ele><time>2026-04-26T15:33:39Z</time></trkpt><trkpt lat="43.48843747463108" lon="11.3615866269419"><ele>420.0</ele><time>2026-04-26T15:33:42Z</time></trkpt><trkpt lat="43.4883242289114" lon="11.36166320355332"><ele>424.0</ele><time>2026-04-26T15:33:44Z</time></trkpt><trkpt lat="43.488226826448376" lon="11.361734577990799"><ele>428.0</ele><time>2026-04-26T15:33:46Z</time></trkpt><trkpt lat="43.48813601975989" lon="11.361823385641454"><ele>432.0</ele><time>2026-04-26T15:33:48Z</time></trkpt><trkpt lat="43.48804821051118" lon="11.361940014976819"><ele>436.0</ele><time>2026-04-26T15:33:50Z</time></trkpt><trkpt lat="43.4879900171351" lon="11.362093590102912"><ele>436.00000000000006</ele><time>2026-04-26T15:33:52Z</time></trkpt><trkpt lat="43.48796798269536" lon="11.36218689974974"><ele>436.0</ele><time>2026-04-26T15:33:53Z</time></trkpt><trkpt lat="43.48794167384228" lon="11.36227598160883"><ele>436.0</ele><time>2026-04-26T15:33:54Z</time></trkpt><trkpt lat="43.48791262926738" lon="11.362376644557388"><ele>436.0</ele><time>2026-04-26T15:33:55Z</time></trkpt><trkpt lat="43.48788447529953" lon="11.362476202231958"><ele>436.00000000000006</ele><time>2026-04-26T15:33:56Z</time></trkpt><trkpt lat="43.48785687707113" lon="11.362575409135125"><ele>436.0</ele><time>2026-04-26T15:33:57Z</time></trkpt><trkpt lat="43.48782572501701" lon="11.362674227487277"><ele>437.50000000000006</ele><time>2026-04-26T15:33:58Z</time></trkpt><trkpt lat="43.48779586616805" lon="11.362772151334733"><ele>439.0</ele><time>2026-04-26T15:33:59Z</time></trkpt><trkpt lat="43.48776836972791" lon="11.362870529692234"><ele>440.5</ele><time>2026-04-26T15:34:00Z</time></trkpt><trkpt lat="43.487732533827405" lon="11.362962636234565"><ele>442.0</ele><time>2026-04-26T15:34:01Z</time></trkpt><trkpt lat="43.4876944751292" lon="11.363059490899662"><ele>443.50000000000006</ele><time>2026-04-26T15:34:02.001Z</time></trkpt><trkpt lat="43.48765125377305" lon="11.363152849609937"><ele>445.0</ele><time>2026-04-26T15:34:03.001Z</time></trkpt><trkpt lat="43.487600403298714" lon="11.363235333512893"><ele>446.00000000000006</ele><time>2026-04-26T15:34:04.001Z</time></trkpt><trkpt lat="43.487533514848955" lon="11.363285085127472"><ele>447.0</ele><time>2026-04-26T15:34:05.001Z</time></trkpt><trkpt lat="43.487468507387106" lon="11.363345579704163"><ele>448.0</ele><time>2026-04-26T15:34:06.001Z</time></trkpt><trkpt lat="43.48740765251928" lon="11.363418550504583"><ele>449.0</ele><time>2026-04-26T15:34:07.001Z</time></trkpt><trkpt lat="43.48731978525573" lon="11.363469610983156"><ele>450.00000000000006</ele><time>2026-04-26T15:34:08.001Z</time></trkpt><trkpt lat="43.48723844425444" lon="11.363564751537274"><ele>451.0</ele><time>2026-04-26T15:34:09.001Z</time></trkpt><trkpt lat="43.48715154331694" lon="11.3636431623703"><ele>454.0</ele><time>2026-04-26T15:34:10.001Z</time></trkpt><trkpt lat="43.48706443268687" lon="11.363718230946857"><ele>457.0</ele><time>2026-04-26T15:34:11.001Z</time></trkpt><trkpt lat="43.48697477519931" lon="11.363804671593096"><ele>460.0</ele><time>2026-04-26T15:34:12.001Z</time></trkpt><trkpt lat="43.4868809895944" lon="11.363891357019014"><ele>463.0</ele><time>2026-04-26T15:34:13.001Z</time></trkpt><trkpt lat="43.48678613281929" lon="11.363983871748003"><ele>466.0</ele><time>2026-04-26T15:34:14.001Z</time></trkpt><trkpt lat="43.48668492645995" lon="11.36410268449893"><ele>466.0</ele><time>2026-04-26T15:34:15.001Z</time></trkpt><trkpt lat="43.48659431388951" lon="11.364247903574253"><ele>466.0</ele><time>2026-04-26T15:34:16.001Z</time></trkpt><trkpt lat="43.48652357263191" lon="11.364401998178506"><ele>466.0</ele><time>2026-04-26T15:34:17.001Z</time></trkpt><trkpt lat="43.48645322938375" lon="11.364542170722867"><ele>466.0</ele><time>2026-04-26T15:34:18.001Z</time></trkpt><trkpt lat="43.48635232488941" lon="11.364631123330616"><ele>465.83333333333337</ele><time>2026-04-26T15:34:19.001Z</time></trkpt><trkpt lat="43.48627649272945" lon="11.364731979109582"><ele>465.6666666666667</ele><time>2026-04-26T15:34:20.001Z</time></trkpt><trkpt lat="43.486230835458834" lon="11.364821372182377"><ele>465.5</ele><time>2026-04-26T15:34:21.001Z</time></trkpt><trkpt lat="43.486189410964684" lon="11.36490159686923"><ele>465.33333333333337</ele><time>2026-04-26T15:34:22.001Z</time></trkpt><trkpt lat="43.48615355584672" lon="11.364979987531445"><ele>465.1666666666667</ele><time>2026-04-26T15:34:23.001Z</time></trkpt><trkpt lat="43.486114962667585" lon="11.36506455414419"><ele>465.0</ele><time>2026-04-26T15:34:24.001Z</time></trkpt><trkpt lat="43.4860689361003" lon="11.365135107430493"><ele>467.6</ele><time>2026-04-26T15:34:25.001Z</time></trkpt><trkpt lat="43.48600806009502" lon="11.36520880512206"><ele>470.2</ele><time>2026-04-26T15:34:26.001Z</time></trkpt><trkpt lat="43.485929659275506" lon="11.365362410173292"><ele>472.79999999999995</ele><time>2026-04-26T15:34:28.001Z</time></trkpt><trkpt lat="43.48586414062864" lon="11.365426478416577"><ele>475.4</ele><time>2026-04-26T15:34:29.001Z</time></trkpt><trkpt lat="43.48578161597145" lon="11.365460320766298"><ele>478.0</ele><time>2026-04-26T15:34:30.001Z</time></trkpt><trkpt lat="43.485718256625006" lon="11.365545696233028"><ele>478.0</ele><time>2026-04-26T15:34:31.001Z</time></trkpt><trkpt lat="43.485628339099634" lon="11.365593131943879"><ele>477.99999999999994</ele><time>2026-04-26T15:34:32.001Z</time></trkpt><trkpt lat="43.48555042500786" lon="11.36566444151577"><ele>477.99999999999994</ele><time>2026-04-26T15:34:33.001Z</time></trkpt><trkpt lat="43.485467437325106" lon="11.365734442078455"><ele>478.0</ele><time>2026-04-26T15:34:34.001Z</time></trkpt><trkpt lat="43.48539198626343" lon="11.365811307672914"><ele>478.0</ele><time>2026-04-26T15:34:35.001Z</time></trkpt><trkpt lat="43.48531964699427" lon="11.365889301298363"><ele>481.59999999999997</ele><time>2026-04-26T15:34:36.001Z</time></trkpt><trkpt lat="43.48524173936481" lon="11.365965954046455"><ele>485.19999999999993</ele><time>2026-04-26T15:34:37.001Z</time></trkpt><trkpt lat="43.48516380673161" lon="11.366040135672328"><ele>488.8</ele><time>2026-04-26T15:34:38.001Z</time></trkpt><trkpt lat="43.4850979874373" lon="11.366107924319476"><ele>492.4</ele><time>2026-04-26T15:34:39.001Z</time></trkpt><trkpt lat="43.48501176954409" lon="11.366204437086301"><ele>496.0</ele><time>2026-04-26T15:34:41.001Z</time></trkpt><trkpt lat="43.484952377030474" lon="11.366278610946603"><ele>496.0</ele><time>2026-04-26T15:34:44.001Z</time></trkpt><trkpt lat="43.484861923403685" lon="11.366353055717761"><ele>496.0</ele><time>2026-04-26T15:34:47.001Z</time></trkpt><trkpt lat="43.48477457464929" lon="11.366419429919707"><ele>496.0</ele><time>2026-04-26T15:34:49.001Z</time></trkpt><trkpt lat="43.48468984998834" lon="11.366480826158751"><ele>496.0</ele><time>2026-04-26T15:34:51.001Z</time></trkpt><trkpt lat="43.48460565876078" lon="11.366542279551933"><ele>496.0</ele><time>2026-04-26T15:34:53.001Z</time></trkpt><trkpt lat="43.484529931471144" lon="11.366574140561212"><ele>496.0</ele><time>2026-04-26T15:34:55Z</time></trkpt><trkpt lat="43.48455453641105" lon="11.366451401295674"><ele>496.0</ele><time>2026-04-26T15:34:59Z</time></trkpt><trkpt lat="43.484578909053184" lon="11.3662852526999"><ele>496.0</ele><time>2026-04-26T15:35:01Z</time></trkpt><trkpt lat="43.4846119320754" lon="11.366120978235992"><ele>496.0</ele><time>2026-04-26T15:35:03Z</time></trkpt><trkpt lat="43.48463476807073" lon="11.366028671437615"><ele>496.0</ele><time>2026-04-26T15:35:04Z</time></trkpt><trkpt lat="43.484658697385136" lon="11.365931945425205"><ele>496.00000000000006</ele><time>2026-04-26T15:35:05Z</time></trkpt><trkpt lat="43.48469445469248" lon="11.36584771174278"><ele>496.0</ele><time>2026-04-26T15:35:06Z</time></trkpt><trkpt lat="43.484722511084534" lon="11.36576680924181"><ele>496.0</ele><time>2026-04-26T15:35:07Z</time></trkpt><trkpt lat="43.48476039380103" lon="11.365664977980936"><ele>496.0</ele><time>2026-04-26T15:35:09Z</time></trkpt><trkpt lat="43.48478350889307" lon="11.365534512281988"><ele>496.00000000000006</ele><time>2026-04-26T15:35:11Z</time></trkpt><trkpt lat="43.484831640241325" lon="11.365413199245072"><ele>496.0</ele><time>2026-04-26T15:35:13Z</time></trkpt><trkpt lat="43.48490140239813" lon="11.365283138462397"><ele>497.6</ele><time>2026-04-26T15:35:15Z</time></trkpt><trkpt lat="43.48493522718528" lon="11.36513016824566"><ele>499.20000000000005</ele><time>2026-04-26T15:35:17Z</time></trkpt><trkpt lat="43.484946457139095" lon="11.36504151107937"><ele>500.79999999999995</ele><time>2026-04-26T15:35:18Z</time></trkpt><trkpt lat="43.48494573698773" lon="11.36489246931483"><ele>502.4</ele><time>2026-04-26T15:35:20Z</time></trkpt><trkpt lat="43.48493462998695" lon="11.364795531427037"><ele>504.0</ele><time>2026-04-26T15:35:23Z</time></trkpt><trkpt lat="43.48494785086781" lon="11.364962560821969"><ele>504.0</ele><time>2026-04-26T15:35:34Z</time></trkpt><trkpt lat="43.48498913922836" lon="11.365039815349283"><ele>504.0</ele><time>2026-04-26T15:35:36Z</time></trkpt><trkpt lat="43.48489610760263" lon="11.36513586934213"><ele>504.0</ele><time>2026-04-26T15:35:37Z</time></trkpt><trkpt lat="43.484853061340864" lon="11.365278871086563"><ele>504.0</ele><time>2026-04-26T15:35:39.001Z</time></trkpt><trkpt lat="43.48480385965632" lon="11.365447383560902"><ele>504.0</ele><time>2026-04-26T15:35:41.001Z</time></trkpt><trkpt lat="43.48476661539618" lon="11.365529363331769"><ele>503.4</ele><time>2026-04-26T15:35:42.001Z</time></trkpt><trkpt lat="43.48472954218172" lon="11.36562601399795"><ele>502.79999999999995</ele><time>2026-04-26T15:35:43.001Z</time></trkpt><trkpt lat="43.484671095258435" lon="11.36579165552943"><ele>502.20000000000005</ele><time>2026-04-26T15:35:45.001Z</time></trkpt><trkpt lat="43.48464122249895" lon="11.365870553408927"><ele>501.6</ele><time>2026-04-26T15:35:46.001Z</time></trkpt><trkpt lat="43.48460139157598" lon="11.36602558123726"><ele>501.0</ele><time>2026-04-26T15:35:48.001Z</time></trkpt><trkpt lat="43.48457611117664" lon="11.366119196131066"><ele>501.0</ele><time>2026-04-26T15:35:49.001Z</time></trkpt><trkpt lat="43.48456149742635" lon="11.36621974634911"><ele>501.0</ele><time>2026-04-26T15:35:50.001Z</time></trkpt><trkpt lat="43.48454252875732" lon="11.366316559817347"><ele>501.0</ele><time>2026-04-26T15:35:51.001Z</time></trkpt><trkpt lat="43.48452785046838" lon="11.366406801649607"><ele>501.0</ele><time>2026-04-26T15:35:52.001Z</time></trkpt><trkpt lat="43.48450866705316" lon="11.366492572473806"><ele>501.0</ele><time>2026-04-26T15:35:53.001Z</time></trkpt><trkpt lat="43.4844934967844" lon="11.366584031582155"><ele>501.0</ele><time>2026-04-26T15:35:54.001Z</time></trkpt><trkpt lat="43.48447339030406" lon="11.36667771653849"><ele>501.0</ele><time>2026-04-26T15:35:55.001Z</time></trkpt><trkpt lat="43.4844524686422" lon="11.366763156698186"><ele>501.0</ele><time>2026-04-26T15:35:56.001Z</time></trkpt><trkpt lat="43.48441821447397" lon="11.366851324672112"><ele>501.0</ele><time>2026-04-26T15:35:58.001Z</time></trkpt><trkpt lat="43.484366237323634" lon="11.366708808343995"><ele>501.0</ele><time>2026-04-26T15:36:02.001Z</time></trkpt><trkpt lat="43.484370306379844" lon="11.366578653316596"><ele>501.0</ele><time>2026-04-26T15:36:03.001Z</time></trkpt><trkpt lat="43.484370494671325" lon="11.366451152761755"><ele>501.0</ele><time>2026-04-26T15:36:04.001Z</time></trkpt><trkpt lat="43.48437971691689" lon="11.366331603191695"><ele>501.0</ele><time>2026-04-26T15:36:05.001Z</time></trkpt><trkpt lat="43.48439567286602" lon="11.366219151316013"><ele>501.0</ele><time>2026-04-26T15:36:06.001Z</time></trkpt><trkpt lat="43.48441402844105" lon="11.366109484620406"><ele>501.0</ele><time>2026-04-26T15:36:07.001Z</time></trkpt><trkpt lat="43.48442451257121" lon="11.365993161828069"><ele>501.0</ele><time>2026-04-26T15:36:08.001Z</time></trkpt><trkpt lat="43.484444081770775" lon="11.36587600136665"><ele>501.0</ele><time>2026-04-26T15:36:09.001Z</time></trkpt><trkpt lat="43.48440832149641" lon="11.365763079864584"><ele>501.0</ele><time>2026-04-26T15:36:10.001Z</time></trkpt><trkpt lat="43.48436121697449" lon="11.365672818701805"><ele>501.0</ele><time>2026-04-26T15:36:11.001Z</time></trkpt><trkpt lat="43.48428332534285" lon="11.365598585031806"><ele>501.0</ele><time>2026-04-26T15:36:12.001Z</time></trkpt><trkpt lat="43.484199969985305" lon="11.365538465247035"><ele>501.0</ele><time>2026-04-26T15:36:13.001Z</time></trkpt><trkpt lat="43.484110340513766" lon="11.365481208814325"><ele>501.0</ele><time>2026-04-26T15:36:14.001Z</time></trkpt><trkpt lat="43.484019640039726" lon="11.365427360658005"><ele>501.0</ele><time>2026-04-26T15:36:15.001Z</time></trkpt><trkpt lat="43.48394726308296" lon="11.365417775543804"><ele>502.0</ele><time>2026-04-26T15:36:16.001Z</time></trkpt><trkpt lat="43.48387064792367" lon="11.36541430760501"><ele>503.0</ele><time>2026-04-26T15:36:17.001Z</time></trkpt><trkpt lat="43.48378999652842" lon="11.36544248334709"><ele>504.0</ele><time>2026-04-26T15:36:18.001Z</time></trkpt><trkpt lat="43.48372621830324" lon="11.36551412873883"><ele>505.0</ele><time>2026-04-26T15:36:19.001Z</time></trkpt><trkpt lat="43.48366181118896" lon="11.365610788307922"><ele>506.0</ele><time>2026-04-26T15:36:20.001Z</time></trkpt><trkpt lat="43.48359128062367" lon="11.365706020626723"><ele>507.0</ele><time>2026-04-26T15:36:21.001Z</time></trkpt><trkpt lat="43.48351580483625" lon="11.36579962792874"><ele>507.0</ele><time>2026-04-26T15:36:22.001Z</time></trkpt><trkpt lat="43.48342968507435" lon="11.365875996169834"><ele>507.00000000000006</ele><time>2026-04-26T15:36:23.001Z</time></trkpt><trkpt lat="43.483332538369176" lon="11.365932558280285"><ele>507.00000000000006</ele><time>2026-04-26T15:36:24.001Z</time></trkpt><trkpt lat="43.48322572954102" lon="11.365953591899522"><ele>507.0</ele><time>2026-04-26T15:36:25.001Z</time></trkpt><trkpt lat="43.483115372519514" lon="11.365959972382235"><ele>507.0</ele><time>2026-04-26T15:36:26.001Z</time></trkpt><trkpt lat="43.483018946346434" lon="11.365935807407165"><ele>507.20000000000005</ele><time>2026-04-26T15:36:27.001Z</time></trkpt><trkpt lat="43.48292022511072" lon="11.365876105064977"><ele>507.40000000000003</ele><time>2026-04-26T15:36:28.001Z</time></trkpt><trkpt lat="43.482860798954846" lon="11.365750847398765"><ele>507.59999999999997</ele><time>2026-04-26T15:36:29.001Z</time></trkpt><trkpt lat="43.48279105043231" lon="11.365636198050689"><ele>507.79999999999995</ele><time>2026-04-26T15:36:30.001Z</time></trkpt><trkpt lat="43.48272062373312" lon="11.365509534159674"><ele>508.0</ele><time>2026-04-26T15:36:31.001Z</time></trkpt><trkpt lat="43.48265429243413" lon="11.36538981718272"><ele>510.0</ele><time>2026-04-26T15:36:32.001Z</time></trkpt><trkpt lat="43.48259159900032" lon="11.365274956728456"><ele>511.99999999999994</ele><time>2026-04-26T15:36:33.001Z</time></trkpt><trkpt lat="43.48253360805023" lon="11.365167110645654"><ele>514.0</ele><time>2026-04-26T15:36:34.001Z</time></trkpt><trkpt lat="43.482466260371545" lon="11.365073247823194"><ele>516.0</ele><time>2026-04-26T15:36:35.001Z</time></trkpt><trkpt lat="43.482393152055906" lon="11.365006255144728"><ele>518.0</ele><time>2026-04-26T15:36:36.001Z</time></trkpt><trkpt lat="43.482318889680656" lon="11.364997813192803"><ele>518.0</ele><time>2026-04-26T15:36:37.001Z</time></trkpt><trkpt lat="43.48222893619205" lon="11.365000588211526"><ele>518.0</ele><time>2026-04-26T15:36:38.001Z</time></trkpt><trkpt lat="43.482143205570154" lon="11.36515222879904"><ele>518.0</ele><time>2026-04-26T15:36:39.001Z</time></trkpt><trkpt lat="43.482054293376486" lon="11.365277611168306"><ele>518.0</ele><time>2026-04-26T15:36:40.001Z</time></trkpt><trkpt lat="43.48196343756583" lon="11.36538978951478"><ele>517.25</ele><time>2026-04-26T15:36:41.001Z</time></trkpt><trkpt lat="43.481869208335304" lon="11.365491677289668"><ele>516.5</ele><time>2026-04-26T15:36:42.001Z</time></trkpt><trkpt lat="43.481777861686425" lon="11.365586447042679"><ele>515.75</ele><time>2026-04-26T15:36:43.001Z</time></trkpt><trkpt lat="43.48167562387925" lon="11.365660252376971"><ele>515.0</ele><time>2026-04-26T15:36:44.001Z</time></trkpt><trkpt lat="43.48156277695421" lon="11.365696917112627"><ele>515.0</ele><time>2026-04-26T15:36:45.001Z</time></trkpt><trkpt lat="43.48143963033443" lon="11.365694966414914"><ele>515.0</ele><time>2026-04-26T15:36:46.001Z</time></trkpt><trkpt lat="43.481316883235735" lon="11.365686465214095"><ele>515.0</ele><time>2026-04-26T15:36:47.001Z</time></trkpt><trkpt lat="43.48119483094836" lon="11.365671461067967"><ele>515.0</ele><time>2026-04-26T15:36:48.001Z</time></trkpt><trkpt lat="43.48106934418675" lon="11.365652304243019"><ele>516.25</ele><time>2026-04-26T15:36:49.001Z</time></trkpt><trkpt lat="43.48094126118474" lon="11.365632182402544"><ele>517.5</ele><time>2026-04-26T15:36:50.001Z</time></trkpt><trkpt lat="43.48081200696504" lon="11.365603524454293"><ele>518.75</ele><time>2026-04-26T15:36:51.001Z</time></trkpt><trkpt lat="43.480678776986224" lon="11.365588005858443"><ele>520.0</ele><time>2026-04-26T15:36:52.001Z</time></trkpt><trkpt lat="43.48054591438106" lon="11.36557710771276"><ele>521.75</ele><time>2026-04-26T15:36:53.001Z</time></trkpt><trkpt lat="43.480416942835255" lon="11.365607904563552"><ele>523.5</ele><time>2026-04-26T15:36:54.001Z</time></trkpt><trkpt lat="43.480280703996996" lon="11.365627447103464"><ele>525.25</ele><time>2026-04-26T15:36:55.001Z</time></trkpt><trkpt lat="43.4801438199973" lon="11.365641971056446"><ele>527.0</ele><time>2026-04-26T15:36:56.001Z</time></trkpt><trkpt lat="43.48000763010234" lon="11.36566176747946"><ele>527.0</ele><time>2026-04-26T15:36:57.001Z</time></trkpt><trkpt lat="43.47986971879362" lon="11.365706128587737"><ele>527.0</ele><time>2026-04-26T15:36:58.001Z</time></trkpt><trkpt lat="43.47974265597989" lon="11.365779737995389"><ele>527.0</ele><time>2026-04-26T15:36:59.001Z</time></trkpt><trkpt lat="43.47961964597449" lon="11.365869490443417"><ele>527.0</ele><time>2026-04-26T15:37:00.001Z</time></trkpt><trkpt lat="43.479493154183224" lon="11.365944843050658"><ele>530.0</ele><time>2026-04-26T15:37:01.001Z</time></trkpt><trkpt lat="43.47936010650095" lon="11.36599268173911"><ele>533.0</ele><time>2026-04-26T15:37:02.001Z</time></trkpt><trkpt lat="43.47922127440381" lon="11.366026631680786"><ele>536.0</ele><time>2026-04-26T15:37:03.001Z</time></trkpt><trkpt lat="43.47907736634593" lon="11.36605694978057"><ele>539.0</ele><time>2026-04-26T15:37:04.001Z</time></trkpt><trkpt lat="43.47893401800626" lon="11.366088730393521"><ele>539.0</ele><time>2026-04-26T15:37:05.001Z</time></trkpt><trkpt lat="43.47879258105509" lon="11.366111994935071"><ele>539.0</ele><time>2026-04-26T15:37:06.001Z</time></trkpt><trkpt lat="43.47864518340594" lon="11.366146594742142"><ele>539.0</ele><time>2026-04-26T15:37:07.001Z</time></trkpt><trkpt lat="43.47849365553932" lon="11.366171117906319"><ele>539.0</ele><time>2026-04-26T15:37:08Z</time></trkpt><trkpt lat="43.47834379380617" lon="11.366205759460987"><ele>539.3333333333333</ele><time>2026-04-26T15:37:09Z</time></trkpt><trkpt lat="43.47819105064551" lon="11.36623595402708"><ele>539.6666666666666</ele><time>2026-04-26T15:37:10Z</time></trkpt><trkpt lat="43.4780415062696" lon="11.366297098316394"><ele>540.0</ele><time>2026-04-26T15:37:11Z</time></trkpt><trkpt lat="43.477900279558796" lon="11.366364857441924"><ele>540.0</ele><time>2026-04-26T15:37:12Z</time></trkpt><trkpt lat="43.47776899597928" lon="11.366405133482065"><ele>540.0</ele><time>2026-04-26T15:37:13Z</time></trkpt><trkpt lat="43.47763058122636" lon="11.366395578269294"><ele>540.0</ele><time>2026-04-26T15:37:14Z</time></trkpt><trkpt lat="43.47747502676015" lon="11.366337747840987"><ele>540.0</ele><time>2026-04-26T15:37:15Z</time></trkpt><trkpt lat="43.47731331825322" lon="11.36632409283702"><ele>540.3333333333334</ele><time>2026-04-26T15:37:16Z</time></trkpt><trkpt lat="43.47715109581174" lon="11.366324629894647"><ele>540.6666666666667</ele><time>2026-04-26T15:37:17Z</time></trkpt><trkpt lat="43.476993915213775" lon="11.366365115005728"><ele>541.0</ele><time>2026-04-26T15:37:18Z</time></trkpt><trkpt lat="43.47686121907552" lon="11.366397342138834"><ele>541.0</ele><time>2026-04-26T15:37:19Z</time></trkpt><trkpt lat="43.476745436414156" lon="11.366386292088423"><ele>541.0</ele><time>2026-04-26T15:37:20Z</time></trkpt><trkpt lat="43.476650810828964" lon="11.36632279115873"><ele>541.0</ele><time>2026-04-26T15:37:21Z</time></trkpt><trkpt lat="43.476592267592736" lon="11.36621658258191"><ele>541.0</ele><time>2026-04-26T15:37:22Z</time></trkpt><trkpt lat="43.47658823199206" lon="11.366055212406875"><ele>541.0</ele><time>2026-04-26T15:37:23Z</time></trkpt><trkpt lat="43.4766078832728" lon="11.365912811310112"><ele>541.25</ele><time>2026-04-26T15:37:24Z</time></trkpt><trkpt lat="43.4766567994311" lon="11.365762695607414"><ele>541.5</ele><time>2026-04-26T15:37:25Z</time></trkpt><trkpt lat="43.47670354760063" lon="11.365582727075601"><ele>541.75</ele><time>2026-04-26T15:37:26Z</time></trkpt><trkpt lat="43.476774778709235" lon="11.365364001501705"><ele>542.0</ele><time>2026-04-26T15:37:27Z</time></trkpt><trkpt lat="43.47683630903523" lon="11.365184511371883"><ele>542.0</ele><time>2026-04-26T15:37:28Z</time></trkpt><trkpt lat="43.476926372169686" lon="11.365014926321779"><ele>542.0</ele><time>2026-04-26T15:37:29Z</time></trkpt><trkpt lat="43.47699748947868" lon="11.364839606228456"><ele>542.0</ele><time>2026-04-26T15:37:30Z</time></trkpt><trkpt lat="43.477081121640104" lon="11.364688984369819"><ele>542.0</ele><time>2026-04-26T15:37:31Z</time></trkpt><trkpt lat="43.47718300567693" lon="11.364538822492042"><ele>543.75</ele><time>2026-04-26T15:37:32Z</time></trkpt><trkpt lat="43.47729474176396" lon="11.364401738231495"><ele>545.5</ele><time>2026-04-26T15:37:33Z</time></trkpt><trkpt lat="43.47742517916512" lon="11.364311236386719"><ele>547.25</ele><time>2026-04-26T15:37:34Z</time></trkpt><trkpt lat="43.477558360898534" lon="11.364217215531022"><ele>549.0</ele><time>2026-04-26T15:37:35Z</time></trkpt><trkpt lat="43.477702164500535" lon="11.364125298400108"><ele>549.0</ele><time>2026-04-26T15:37:36Z</time></trkpt><trkpt lat="43.47784610237099" lon="11.364033458529285"><ele>549.0</ele><time>2026-04-26T15:37:37Z</time></trkpt><trkpt lat="43.47798598067818" lon="11.363929406329627"><ele>549.0</ele><time>2026-04-26T15:37:38Z</time></trkpt><trkpt lat="43.47813171105804" lon="11.36385159888997"><ele>548.6666666666666</ele><time>2026-04-26T15:37:39Z</time></trkpt><trkpt lat="43.47827955088765" lon="11.363751894280279"><ele>548.3333333333333</ele><time>2026-04-26T15:37:40Z</time></trkpt><trkpt lat="43.47842218036356" lon="11.363640305365012"><ele>548.0</ele><time>2026-04-26T15:37:41Z</time></trkpt><trkpt lat="43.47854193545944" lon="11.36348549112267"><ele>548.0</ele><time>2026-04-26T15:37:42Z</time></trkpt><trkpt lat="43.478661868133244" lon="11.363341459415103"><ele>548.0</ele><time>2026-04-26T15:37:43Z</time></trkpt><trkpt lat="43.47877413228661" lon="11.363225083661108"><ele>548.0</ele><time>2026-04-26T15:37:44Z</time></trkpt><trkpt lat="43.47890168751121" lon="11.363137922699638"><ele>548.0</ele><time>2026-04-26T15:37:45Z</time></trkpt><trkpt lat="43.47903931148321" lon="11.36308647362676"><ele>549.0</ele><time>2026-04-26T15:37:46Z</time></trkpt><trkpt lat="43.47916122845497" lon="11.363046558061171"><ele>550.0</ele><time>2026-04-26T15:37:47Z</time></trkpt><trkpt lat="43.47927259742249" lon="11.36295781237744"><ele>551.0</ele><time>2026-04-26T15:37:48Z</time></trkpt><trkpt lat="43.479361139901194" lon="11.362811831531452"><ele>552.0</ele><time>2026-04-26T15:37:49Z</time></trkpt><trkpt lat="43.47942165192088" lon="11.362642072120547"><ele>552.0</ele><time>2026-04-26T15:37:50Z</time></trkpt><trkpt lat="43.47945437813213" lon="11.362452324723568"><ele>552.0</ele><time>2026-04-26T15:37:51Z</time></trkpt><trkpt lat="43.479451031958" lon="11.362260600176178"><ele>552.0</ele><time>2026-04-26T15:37:52Z</time></trkpt><trkpt lat="43.47940401009999" lon="11.362070910252374"><ele>552.0</ele><time>2026-04-26T15:37:53Z</time></trkpt><trkpt lat="43.47933775072741" lon="11.361876503876376"><ele>553.0</ele><time>2026-04-26T15:37:54Z</time></trkpt><trkpt lat="43.47930120775732" lon="11.361676559099985"><ele>554.0</ele><time>2026-04-26T15:37:55Z</time></trkpt><trkpt lat="43.47928581906119" lon="11.36145780448794"><ele>555.0</ele><time>2026-04-26T15:37:56Z</time></trkpt><trkpt lat="43.47927995341567" lon="11.361237852601146"><ele>555.6666666666666</ele><time>2026-04-26T15:37:57Z</time></trkpt><trkpt lat="43.47925021129423" lon="11.361020652346593"><ele>556.3333333333333</ele><time>2026-04-26T15:37:58Z</time></trkpt><trkpt lat="43.479217176267355" lon="11.360815637082043"><ele>557.0</ele><time>2026-04-26T15:37:59Z</time></trkpt><trkpt lat="43.479160103367605" lon="11.36060869351936"><ele>558.6666666666666</ele><time>2026-04-26T15:38:00Z</time></trkpt><trkpt lat="43.479096616173955" lon="11.360415715845491"><ele>560.3333333333334</ele><time>2026-04-26T15:38:01Z</time></trkpt><trkpt lat="43.479043663735546" lon="11.360214273154572"><ele>562.0</ele><time>2026-04-26T15:38:02Z</time></trkpt><trkpt lat="43.47899434475986" lon="11.36000501581162"><ele>562.0</ele><time>2026-04-26T15:38:03Z</time></trkpt><trkpt lat="43.47893932122816" lon="11.359792629848206"><ele>562.0</ele><time>2026-04-26T15:38:04Z</time></trkpt><trkpt lat="43.478879788639894" lon="11.35958569425595"><ele>562.0</ele><time>2026-04-26T15:38:05Z</time></trkpt><trkpt lat="43.478814492162684" lon="11.359386613999497"><ele>558.6666666666667</ele><time>2026-04-26T15:38:06Z</time></trkpt><trkpt lat="43.47874021498338" lon="11.359188555663135"><ele>555.3333333333334</ele><time>2026-04-26T15:38:07Z</time></trkpt><trkpt lat="43.478684265254145" lon="11.358980930350173"><ele>552.0</ele><time>2026-04-26T15:38:08Z</time></trkpt><trkpt lat="43.47861924726491" lon="11.358800053444208"><ele>552.0</ele><time>2026-04-26T15:38:09Z</time></trkpt><trkpt lat="43.478554446773664" lon="11.358652553140306"><ele>552.0</ele><time>2026-04-26T15:38:10Z</time></trkpt><trkpt lat="43.478537536974414" lon="11.35849870918789"><ele>552.0</ele><time>2026-04-26T15:38:11Z</time></trkpt><trkpt lat="43.478538849877324" lon="11.35833935660208"><ele>552.0</ele><time>2026-04-26T15:38:12Z</time></trkpt><trkpt lat="43.478581462121234" lon="11.358179363054346"><ele>550.25</ele><time>2026-04-26T15:38:13Z</time></trkpt><trkpt lat="43.47865364983128" lon="11.358032654770533"><ele>548.5</ele><time>2026-04-26T15:38:14Z</time></trkpt><trkpt lat="43.47873997458802" lon="11.357889498882102"><ele>546.75</ele><time>2026-04-26T15:38:15Z</time></trkpt><trkpt lat="43.47882897018786" lon="11.357731121448605"><ele>545.0</ele><time>2026-04-26T15:38:16Z</time></trkpt><trkpt lat="43.47892720005372" lon="11.357582522876218"><ele>549.25</ele><time>2026-04-26T15:38:17Z</time></trkpt><trkpt lat="43.4790042909405" lon="11.3574123421549"><ele>553.5</ele><time>2026-04-26T15:38:18Z</time></trkpt><trkpt lat="43.47905532852677" lon="11.357243466068793"><ele>557.75</ele><time>2026-04-26T15:38:19Z</time></trkpt><trkpt lat="43.47907249774691" lon="11.357063203058948"><ele>562.0</ele><time>2026-04-26T15:38:20Z</time></trkpt><trkpt lat="43.47904629143552" lon="11.356869545255218"><ele>562.0</ele><time>2026-04-26T15:38:21Z</time></trkpt><trkpt lat="43.47899151679891" lon="11.356673174949965"><ele>562.0</ele><time>2026-04-26T15:38:22Z</time></trkpt><trkpt lat="43.478947689662306" lon="11.356477349017396"><ele>562.0</ele><time>2026-04-26T15:38:23Z</time></trkpt><trkpt lat="43.47891102508459" lon="11.356276612572717"><ele>561.5</ele><time>2026-04-26T15:38:24Z</time></trkpt><trkpt lat="43.478881258898824" lon="11.356076618502861"><ele>561.0</ele><time>2026-04-26T15:38:25Z</time></trkpt><trkpt lat="43.47884514172848" lon="11.355874691149685"><ele>560.5</ele><time>2026-04-26T15:38:26Z</time></trkpt><trkpt lat="43.4788098836293" lon="11.355675293106131"><ele>560.0</ele><time>2026-04-26T15:38:27.001Z</time></trkpt><trkpt lat="43.47877698896852" lon="11.35547538283031"><ele>560.25</ele><time>2026-04-26T15:38:28.001Z</time></trkpt><trkpt lat="43.4787432574803" lon="11.355296604379575"><ele>560.5</ele><time>2026-04-26T15:38:29.001Z</time></trkpt><trkpt lat="43.47871097043395" lon="11.355120898564076"><ele>560.75</ele><time>2026-04-26T15:38:30.001Z</time></trkpt><trkpt lat="43.47868033863847" lon="11.354945351758081"><ele>561.0</ele><time>2026-04-26T15:38:31.001Z</time></trkpt><trkpt lat="43.47865034485527" lon="11.354771895915306"><ele>561.75</ele><time>2026-04-26T15:38:32.001Z</time></trkpt><trkpt lat="43.47861841232562" lon="11.354591572705178"><ele>562.5</ele><time>2026-04-26T15:38:33.001Z</time></trkpt><trkpt lat="43.47858082064711" lon="11.354410639666044"><ele>563.25</ele><time>2026-04-26T15:38:34.001Z</time></trkpt><trkpt lat="43.47852856199616" lon="11.354227601249574"><ele>564.0</ele><time>2026-04-26T15:38:35.001Z</time></trkpt><trkpt lat="43.47846994175455" lon="11.354051181530142"><ele>564.0</ele><time>2026-04-26T15:38:36.001Z</time></trkpt><trkpt lat="43.478399325088546" lon="11.353877225883865"><ele>564.0</ele><time>2026-04-26T15:38:37.001Z</time></trkpt><trkpt lat="43.47833063022656" lon="11.35369249728626"><ele>564.0</ele><time>2026-04-26T15:38:38.001Z</time></trkpt><trkpt lat="43.47825903243811" lon="11.353521532954845"><ele>564.0</ele><time>2026-04-26T15:38:39.001Z</time></trkpt><trkpt lat="43.478182798353856" lon="11.353344861483377"><ele>563.0</ele><time>2026-04-26T15:38:40.001Z</time></trkpt><trkpt lat="43.47811535902398" lon="11.353202424037736"><ele>562.0</ele><time>2026-04-26T15:38:41.001Z</time></trkpt><trkpt lat="43.478047248473366" lon="11.353090945145698"><ele>561.0</ele><time>2026-04-26T15:38:42.001Z</time></trkpt><trkpt lat="43.47798311513541" lon="11.352988515251836"><ele>560.0</ele><time>2026-04-26T15:38:43.001Z</time></trkpt><trkpt lat="43.477934678840555" lon="11.352887350374427"><ele>559.0</ele><time>2026-04-26T15:38:44.001Z</time></trkpt><trkpt lat="43.47790315195772" lon="11.352768624249869"><ele>564.0</ele><time>2026-04-26T15:38:45.001Z</time></trkpt><trkpt lat="43.47789051826683" lon="11.352630227780892"><ele>569.0</ele><time>2026-04-26T15:38:46.001Z</time></trkpt><trkpt lat="43.47789901463781" lon="11.352467969457182"><ele>574.0</ele><time>2026-04-26T15:38:47.001Z</time></trkpt><trkpt lat="43.47791111375033" lon="11.35229527270587"><ele>579.0</ele><time>2026-04-26T15:38:48.001Z</time></trkpt><trkpt lat="43.477920217028945" lon="11.35212155115789"><ele>579.0</ele><time>2026-04-26T15:38:49.001Z</time></trkpt><trkpt lat="43.47789723130045" lon="11.35195860375609"><ele>579.0</ele><time>2026-04-26T15:38:50.001Z</time></trkpt><trkpt lat="43.47786551698582" lon="11.351803561722747"><ele>579.0</ele><time>2026-04-26T15:38:51.001Z</time></trkpt><trkpt lat="43.47780222572877" lon="11.351652565177464"><ele>579.0</ele><time>2026-04-26T15:38:52.001Z</time></trkpt><trkpt lat="43.47772102214215" lon="11.351514334647492"><ele>577.25</ele><time>2026-04-26T15:38:53.001Z</time></trkpt><trkpt lat="43.47764755038693" lon="11.351366367847037"><ele>575.5</ele><time>2026-04-26T15:38:54.001Z</time></trkpt><trkpt lat="43.47759897352383" lon="11.351206601242536"><ele>573.75</ele><time>2026-04-26T15:38:55.001Z</time></trkpt><trkpt lat="43.4775608387745" lon="11.351036141809352"><ele>572.0</ele><time>2026-04-26T15:38:56.001Z</time></trkpt><trkpt lat="43.4775289142834" lon="11.350856955614779"><ele>572.0</ele><time>2026-04-26T15:38:57.001Z</time></trkpt><trkpt lat="43.47750567972844" lon="11.350672763462631"><ele>572.0</ele><time>2026-04-26T15:38:58.001Z</time></trkpt><trkpt lat="43.47749944986417" lon="11.350488205361511"><ele>572.0</ele><time>2026-04-26T15:38:59.001Z</time></trkpt><trkpt lat="43.47752326322041" lon="11.350313317581078"><ele>572.0</ele><time>2026-04-26T15:39:00.001Z</time></trkpt><trkpt lat="43.47755452365245" lon="11.350128681702385"><ele>571.25</ele><time>2026-04-26T15:39:01.001Z</time></trkpt><trkpt lat="43.47756169287342" lon="11.349940078229245"><ele>570.5</ele><time>2026-04-26T15:39:02.001Z</time></trkpt><trkpt lat="43.47756891099621" lon="11.349767590121507"><ele>569.75</ele><time>2026-04-26T15:39:03.001Z</time></trkpt><trkpt lat="43.47755630263593" lon="11.349594801876734"><ele>569.0</ele><time>2026-04-26T15:39:04.001Z</time></trkpt><trkpt lat="43.477469409603756" lon="11.349435987300387"><ele>566.75</ele><time>2026-04-26T15:39:05.001Z</time></trkpt><trkpt lat="43.47737768137642" lon="11.349277883473421"><ele>564.5</ele><time>2026-04-26T15:39:06Z</time></trkpt><trkpt lat="43.47726428546707" lon="11.349153442685726"><ele>562.25</ele><time>2026-04-26T15:39:07Z</time></trkpt><trkpt lat="43.4771535624902" lon="11.34900652739299"><ele>560.0</ele><time>2026-04-26T15:39:08Z</time></trkpt><trkpt lat="43.4770589547375" lon="11.348866225022817"><ele>564.5</ele><time>2026-04-26T15:39:09Z</time></trkpt><trkpt lat="43.47700305761077" lon="11.348711953390062"><ele>569.0</ele><time>2026-04-26T15:39:10Z</time></trkpt><trkpt lat="43.47698061537457" lon="11.348531037633101"><ele>573.5</ele><time>2026-04-26T15:39:11Z</time></trkpt><trkpt lat="43.476950479359864" lon="11.348328599061256"><ele>578.0</ele><time>2026-04-26T15:39:12Z</time></trkpt><trkpt lat="43.4769190885819" lon="11.348117744545085"><ele>576.0</ele><time>2026-04-26T15:39:13Z</time></trkpt><trkpt lat="43.47688785837391" lon="11.347901940312166"><ele>574.0</ele><time>2026-04-26T15:39:14Z</time></trkpt><trkpt lat="43.47685710034907" lon="11.347689398916465"><ele>572.0</ele><time>2026-04-26T15:39:15Z</time></trkpt><trkpt lat="43.476821922875224" lon="11.347480500730176"><ele>572.0</ele><time>2026-04-26T15:39:16Z</time></trkpt><trkpt lat="43.47678039709344" lon="11.347298232885777"><ele>572.0</ele><time>2026-04-26T15:39:17Z</time></trkpt><trkpt lat="43.47673199128748" lon="11.347133101135407"><ele>572.0</ele><time>2026-04-26T15:39:18Z</time></trkpt><trkpt lat="43.47666055143089" lon="11.346989914052168"><ele>572.0</ele><time>2026-04-26T15:39:19Z</time></trkpt><trkpt lat="43.47658960218584" lon="11.3468437684687"><ele>571.5</ele><time>2026-04-26T15:39:20Z</time></trkpt><trkpt lat="43.4764774832375" lon="11.346745992712432"><ele>571.0</ele><time>2026-04-26T15:39:21Z</time></trkpt><trkpt lat="43.47637288905429" lon="11.346677297323573"><ele>570.5</ele><time>2026-04-26T15:39:22Z</time></trkpt><trkpt lat="43.47625385682004" lon="11.34664682051814"><ele>570.0</ele><time>2026-04-26T15:39:23Z</time></trkpt><trkpt lat="43.47610068374933" lon="11.346659487012355"><ele>570.0</ele><time>2026-04-26T15:39:24Z</time></trkpt><trkpt lat="43.475910348966416" lon="11.34670209852508"><ele>570.0</ele><time>2026-04-26T15:39:25Z</time></trkpt><trkpt lat="43.475727362046094" lon="11.34676532363274"><ele>570.0</ele><time>2026-04-26T15:39:26Z</time></trkpt><trkpt lat="43.475582620683326" lon="11.346819011958525"><ele>570.0</ele><time>2026-04-26T15:39:27Z</time></trkpt><trkpt lat="43.475468829638366" lon="11.346803335300951"><ele>570.0</ele><time>2026-04-26T15:39:28Z</time></trkpt><trkpt lat="43.47538573605433" lon="11.346765857947087"><ele>570.0</ele><time>2026-04-26T15:39:29Z</time></trkpt><trkpt lat="43.475327338820826" lon="11.346681413821429"><ele>570.0</ele><time>2026-04-26T15:39:30Z</time></trkpt><trkpt lat="43.47528810115995" lon="11.34657254547321"><ele>570.0</ele><time>2026-04-26T15:39:31Z</time></trkpt><trkpt lat="43.47528881226874" lon="11.346444349537354"><ele>569.5</ele><time>2026-04-26T15:39:32Z</time></trkpt><trkpt lat="43.475329464709446" lon="11.346305422796215"><ele>569.0</ele><time>2026-04-26T15:39:33Z</time></trkpt><trkpt lat="43.475385182035794" lon="11.346123552769285"><ele>568.5</ele><time>2026-04-26T15:39:34Z</time></trkpt><trkpt lat="43.475457104009486" lon="11.345889806327088"><ele>568.0</ele><time>2026-04-26T15:39:35Z</time></trkpt><trkpt lat="43.47552985953544" lon="11.345590715247997"><ele>570.0</ele><time>2026-04-26T15:39:36Z</time></trkpt><trkpt lat="43.475621742898156" lon="11.34528862579181"><ele>572.0</ele><time>2026-04-26T15:39:37Z</time></trkpt><trkpt lat="43.47570900560039" lon="11.345059298842546"><ele>574.0</ele><time>2026-04-26T15:39:38Z</time></trkpt><trkpt lat="43.47576585746987" lon="11.344865941165565"><ele>574.75</ele><time>2026-04-26T15:39:39Z</time></trkpt><trkpt lat="43.47580526028406" lon="11.344682997412178"><ele>575.5</ele><time>2026-04-26T15:39:40Z</time></trkpt><trkpt lat="43.47582648820679" lon="11.344479257654037"><ele>576.25</ele><time>2026-04-26T15:39:41Z</time></trkpt><trkpt lat="43.475827754143346" lon="11.344265995191815"><ele>577.0</ele><time>2026-04-26T15:39:42Z</time></trkpt><trkpt lat="43.47581826094048" lon="11.3440512819173"><ele>577.25</ele><time>2026-04-26T15:39:43Z</time></trkpt><trkpt lat="43.47579146644102" lon="11.34384540724511"><ele>577.5</ele><time>2026-04-26T15:39:44Z</time></trkpt><trkpt lat="43.47574429082628" lon="11.34364682787719"><ele>577.75</ele><time>2026-04-26T15:39:45Z</time></trkpt><trkpt lat="43.47570154355285" lon="11.343470294124334"><ele>578.0</ele><time>2026-04-26T15:39:46Z</time></trkpt><trkpt lat="43.475643835402494" lon="11.343303461610837"><ele>578.0</ele><time>2026-04-26T15:39:47Z</time></trkpt><trkpt lat="43.475583446556996" lon="11.343157029454051"><ele>578.0</ele><time>2026-04-26T15:39:48Z</time></trkpt><trkpt lat="43.47553574452043" lon="11.342997426166404"><ele>578.0</ele><time>2026-04-26T15:39:49Z</time></trkpt><trkpt lat="43.475529682837134" lon="11.342831052000848"><ele>578.0</ele><time>2026-04-26T15:39:50Z</time></trkpt><trkpt lat="43.47553114692037" lon="11.34266016012606"><ele>579.25</ele><time>2026-04-26T15:39:51Z</time></trkpt><trkpt lat="43.47554713964655" lon="11.34250249106108"><ele>580.5</ele><time>2026-04-26T15:39:52Z</time></trkpt><trkpt lat="43.475545108526916" lon="11.342335456895492"><ele>581.75</ele><time>2026-04-26T15:39:53Z</time></trkpt><trkpt lat="43.47557491272653" lon="11.342182300148252"><ele>583.0</ele><time>2026-04-26T15:39:54Z</time></trkpt><trkpt lat="43.47560189538421" lon="11.342018369817442"><ele>583.5</ele><time>2026-04-26T15:39:55Z</time></trkpt><trkpt lat="43.475623533326335" lon="11.341853108963992"><ele>584.0</ele><time>2026-04-26T15:39:56Z</time></trkpt><trkpt lat="43.47567649715759" lon="11.341688991587873"><ele>584.5</ele><time>2026-04-26T15:39:57Z</time></trkpt><trkpt lat="43.47570334784649" lon="11.341512350386362"><ele>585.0</ele><time>2026-04-26T15:39:58Z</time></trkpt><trkpt lat="43.4757330294259" lon="11.341331545350092"><ele>585.5</ele><time>2026-04-26T15:39:59Z</time></trkpt><trkpt lat="43.475763132588824" lon="11.341148137783552"><ele>586.0</ele><time>2026-04-26T15:40:00Z</time></trkpt><trkpt lat="43.475793492298415" lon="11.340963167165649"><ele>586.5</ele><time>2026-04-26T15:40:01Z</time></trkpt><trkpt lat="43.475816979268316" lon="11.34077719464035"><ele>587.0</ele><time>2026-04-26T15:40:02Z</time></trkpt><trkpt lat="43.475805536311114" lon="11.340589683316654"><ele>587.75</ele><time>2026-04-26T15:40:03Z</time></trkpt><trkpt lat="43.47579266044263" lon="11.340399692321046"><ele>588.5</ele><time>2026-04-26T15:40:04Z</time></trkpt><trkpt lat="43.47576603764545" lon="11.340213181882818"><ele>589.25</ele><time>2026-04-26T15:40:05Z</time></trkpt><trkpt lat="43.47577593174991" lon="11.340028130253826"><ele>590.0</ele><time>2026-04-26T15:40:06Z</time></trkpt><trkpt lat="43.47578830259015" lon="11.339852459591796"><ele>590.0</ele><time>2026-04-26T15:40:07Z</time></trkpt><trkpt lat="43.475824244914385" lon="11.339669121961006"><ele>590.0</ele><time>2026-04-26T15:40:08Z</time></trkpt><trkpt lat="43.475865523478" lon="11.339482444633315"><ele>590.0</ele><time>2026-04-26T15:40:09Z</time></trkpt><trkpt lat="43.475908560908074" lon="11.339295552814459"><ele>590.0</ele><time>2026-04-26T15:40:10Z</time></trkpt><trkpt lat="43.475952188949776" lon="11.339103667623306"><ele>590.0</ele><time>2026-04-26T15:40:11Z</time></trkpt><trkpt lat="43.4759922694829" lon="11.338911491463561"><ele>590.0</ele><time>2026-04-26T15:40:12Z</time></trkpt><trkpt lat="43.47602599821237" lon="11.338720341447802"><ele>590.0</ele><time>2026-04-26T15:40:13Z</time></trkpt><trkpt lat="43.47605042816364" lon="11.338524473201726"><ele>590.0</ele><time>2026-04-26T15:40:14Z</time></trkpt><trkpt lat="43.47603952252884" lon="11.338324772019583"><ele>591.25</ele><time>2026-04-26T15:40:15Z</time></trkpt><trkpt lat="43.47601987258222" lon="11.338132373009058"><ele>592.5</ele><time>2026-04-26T15:40:16Z</time></trkpt><trkpt lat="43.47597375760331" lon="11.337938840646078"><ele>593.75</ele><time>2026-04-26T15:40:17Z</time></trkpt><trkpt lat="43.4759136563191" lon="11.337763967041688"><ele>595.0</ele><time>2026-04-26T15:40:18Z</time></trkpt><trkpt lat="43.47586302791246" lon="11.33760305124963"><ele>595.75</ele><time>2026-04-26T15:40:19Z</time></trkpt><trkpt lat="43.47582077305358" lon="11.337456113738037"><ele>596.5</ele><time>2026-04-26T15:40:20Z</time></trkpt><trkpt lat="43.4757423801148" lon="11.337311123059798"><ele>597.25</ele><time>2026-04-26T15:40:21Z</time></trkpt><trkpt lat="43.475640026827136" lon="11.337175214316138"><ele>598.0</ele><time>2026-04-26T15:40:22Z</time></trkpt><trkpt lat="43.47553839058469" lon="11.33702365265731"><ele>598.6666666666667</ele><time>2026-04-26T15:40:23Z</time></trkpt><trkpt lat="43.475428765853785" lon="11.336866561961443"><ele>599.3333333333334</ele><time>2026-04-26T15:40:24Z</time></trkpt><trkpt lat="43.47532835562491" lon="11.33669664171542"><ele>600.0</ele><time>2026-04-26T15:40:25Z</time></trkpt><trkpt lat="43.475228918643175" lon="11.336519253230172"><ele>597.0</ele><time>2026-04-26T15:40:26Z</time></trkpt><trkpt lat="43.47511175291656" lon="11.336351163026178"><ele>594.0</ele><time>2026-04-26T15:40:27Z</time></trkpt><trkpt lat="43.47499874856443" lon="11.33618053610464"><ele>591.0</ele><time>2026-04-26T15:40:28Z</time></trkpt><trkpt lat="43.47489716509733" lon="11.336007555335064"><ele>591.0</ele><time>2026-04-26T15:40:29Z</time></trkpt><trkpt lat="43.474816331941305" lon="11.335811280620609"><ele>591.0</ele><time>2026-04-26T15:40:30Z</time></trkpt><trkpt lat="43.47471439994345" lon="11.335632656766967"><ele>591.0</ele><time>2026-04-26T15:40:31Z</time></trkpt><trkpt lat="43.47463473205284" lon="11.335439535888929"><ele>594.6666666666666</ele><time>2026-04-26T15:40:32Z</time></trkpt><trkpt lat="43.47454918288543" lon="11.335244116595362"><ele>598.3333333333333</ele><time>2026-04-26T15:40:33Z</time></trkpt><trkpt lat="43.47446629769096" lon="11.335060379625455"><ele>602.0</ele><time>2026-04-26T15:40:34Z</time></trkpt><trkpt lat="43.4743839426709" lon="11.334877008268412"><ele>600.0</ele><time>2026-04-26T15:40:35Z</time></trkpt><trkpt lat="43.474302302661485" lon="11.334684153867597"><ele>598.0</ele><time>2026-04-26T15:40:36Z</time></trkpt><trkpt lat="43.47422537704928" lon="11.33449693233116"><ele>596.0</ele><time>2026-04-26T15:40:37Z</time></trkpt><trkpt lat="43.474170891625505" lon="11.33429124472976"><ele>596.0</ele><time>2026-04-26T15:40:38Z</time></trkpt><trkpt lat="43.47411022681867" lon="11.334106444622094"><ele>596.0</ele><time>2026-04-26T15:40:39Z</time></trkpt><trkpt lat="43.474059706510495" lon="11.33396694979615"><ele>596.0</ele><time>2026-04-26T15:40:40Z</time></trkpt><trkpt lat="43.47405222639479" lon="11.333828388439068"><ele>596.0</ele><time>2026-04-26T15:40:41Z</time></trkpt><trkpt lat="43.47407827111073" lon="11.33373406971253"><ele>596.0</ele><time>2026-04-26T15:40:42Z</time></trkpt><trkpt lat="43.47415250063479" lon="11.33366325025029"><ele>597.0</ele><time>2026-04-26T15:40:43Z</time></trkpt><trkpt lat="43.47424976889202" lon="11.33362621350028"><ele>598.0</ele><time>2026-04-26T15:40:44Z</time></trkpt><trkpt lat="43.4743579963009" lon="11.333647625764083"><ele>599.0</ele><time>2026-04-26T15:40:45Z</time></trkpt><trkpt lat="43.47450012874117" lon="11.33366111368366"><ele>600.0</ele><time>2026-04-26T15:40:46Z</time></trkpt><trkpt lat="43.474650089397194" lon="11.333671065941095"><ele>600.6666666666666</ele><time>2026-04-26T15:40:47Z</time></trkpt><trkpt lat="43.474804809695115" lon="11.33367761836191"><ele>601.3333333333333</ele><time>2026-04-26T15:40:48Z</time></trkpt><trkpt lat="43.474956678814806" lon="11.333691417987833"><ele>602.0</ele><time>2026-04-26T15:40:49Z</time></trkpt><trkpt lat="43.47511848791208" lon="11.333708559138824"><ele>602.0</ele><time>2026-04-26T15:40:50Z</time></trkpt><trkpt lat="43.47527359911449" lon="11.333728366561825"><ele>602.0</ele><time>2026-04-26T15:40:51Z</time></trkpt><trkpt lat="43.475434561893316" lon="11.333739988513607"><ele>602.0</ele><time>2026-04-26T15:40:52Z</time></trkpt><trkpt lat="43.475581244187964" lon="11.333744819721979"><ele>602.75</ele><time>2026-04-26T15:40:53Z</time></trkpt><trkpt lat="43.475700487308245" lon="11.333727043901785"><ele>603.5</ele><time>2026-04-26T15:40:54Z</time></trkpt><trkpt lat="43.47581447752322" lon="11.33368553645179"><ele>604.25</ele><time>2026-04-26T15:40:55Z</time></trkpt><trkpt lat="43.47592944185967" lon="11.333606763947756"><ele>605.0</ele><time>2026-04-26T15:40:56Z</time></trkpt><trkpt lat="43.47603393545837" lon="11.333485779978544"><ele>605.0</ele><time>2026-04-26T15:40:57Z</time></trkpt><trkpt lat="43.47612013693151" lon="11.33333355550941"><ele>605.0</ele><time>2026-04-26T15:40:58Z</time></trkpt><trkpt lat="43.476186681693946" lon="11.333181854917289"><ele>605.0</ele><time>2026-04-26T15:40:59Z</time></trkpt><trkpt lat="43.47626594870852" lon="11.333078204352393"><ele>605.0</ele><time>2026-04-26T15:41:00Z</time></trkpt><trkpt lat="43.47633652294671" lon="11.332977492504574"><ele>606.0</ele><time>2026-04-26T15:41:01Z</time></trkpt><trkpt lat="43.4764147064826" lon="11.332916134300065"><ele>607.0</ele><time>2026-04-26T15:41:02Z</time></trkpt><trkpt lat="43.47649668770096" lon="11.332892778421419"><ele>608.0</ele><time>2026-04-26T15:41:03Z</time></trkpt><trkpt lat="43.47660714638967" lon="11.332893162825762"><ele>609.0</ele><time>2026-04-26T15:41:04Z</time></trkpt><trkpt lat="43.47674379915927" lon="11.33294845744856"><ele>610.0</ele><time>2026-04-26T15:41:05Z</time></trkpt><trkpt lat="43.476898783430045" lon="11.332977384265165"><ele>610.0</ele><time>2026-04-26T15:41:06Z</time></trkpt><trkpt lat="43.47705459375016" lon="11.333020785562665"><ele>610.0</ele><time>2026-04-26T15:41:07Z</time></trkpt><trkpt lat="43.47719858825807" lon="11.333032662998233"><ele>610.0</ele><time>2026-04-26T15:41:08Z</time></trkpt><trkpt lat="43.47734056497868" lon="11.333007120284176"><ele>610.0</ele><time>2026-04-26T15:41:09Z</time></trkpt><trkpt lat="43.47748642138523" lon="11.332938006365806"><ele>611.0</ele><time>2026-04-26T15:41:10Z</time></trkpt><trkpt lat="43.4776457952011" lon="11.332836246307714"><ele>612.0</ele><time>2026-04-26T15:41:11Z</time></trkpt><trkpt lat="43.477820984914935" lon="11.332697992581137"><ele>613.0</ele><time>2026-04-26T15:41:12Z</time></trkpt><trkpt lat="43.47802289551783" lon="11.33255704756055"><ele>615.5</ele><time>2026-04-26T15:41:13Z</time></trkpt><trkpt lat="43.47820875357936" lon="11.332346945118822"><ele>618.0</ele><time>2026-04-26T15:41:14Z</time></trkpt><trkpt lat="43.47838050065611" lon="11.332146910489724"><ele>618.0</ele><time>2026-04-26T15:41:15Z</time></trkpt><trkpt lat="43.4785572252578" lon="11.33200966731466"><ele>618.0</ele><time>2026-04-26T15:41:16Z</time></trkpt><trkpt lat="43.47872537832533" lon="11.331899837102844"><ele>618.0</ele><time>2026-04-26T15:41:17Z</time></trkpt><trkpt lat="43.47887927239131" lon="11.331801924794197"><ele>617.25</ele><time>2026-04-26T15:41:18Z</time></trkpt><trkpt lat="43.47901674992229" lon="11.331713382715417"><ele>616.5</ele><time>2026-04-26T15:41:19Z</time></trkpt><trkpt lat="43.47911475622753" lon="11.331642614440401"><ele>615.75</ele><time>2026-04-26T15:41:20Z</time></trkpt><trkpt lat="43.479181864842886" lon="11.331551556222566"><ele>615.0</ele><time>2026-04-26T15:41:21Z</time></trkpt><trkpt lat="43.47922726657923" lon="11.331420755416275"><ele>616.25</ele><time>2026-04-26T15:41:22Z</time></trkpt><trkpt lat="43.47923188652876" lon="11.331243166861933"><ele>617.5</ele><time>2026-04-26T15:41:23Z</time></trkpt><trkpt lat="43.47922599030407" lon="11.331068534589523"><ele>618.75</ele><time>2026-04-26T15:41:24Z</time></trkpt><trkpt lat="43.47921405839769" lon="11.33088922735092"><ele>620.0</ele><time>2026-04-26T15:41:25Z</time></trkpt><trkpt lat="43.47920249147794" lon="11.330718165812817"><ele>619.5</ele><time>2026-04-26T15:41:26Z</time></trkpt><trkpt lat="43.47919220518995" lon="11.330550863375475"><ele>619.0</ele><time>2026-04-26T15:41:27Z</time></trkpt><trkpt lat="43.47918574463245" lon="11.33039411516412"><ele>618.5</ele><time>2026-04-26T15:41:28Z</time></trkpt><trkpt lat="43.47919284602341" lon="11.330240358358008"><ele>618.0</ele><time>2026-04-26T15:41:29Z</time></trkpt><trkpt lat="43.47922177466663" lon="11.330066487967667"><ele>618.0</ele><time>2026-04-26T15:41:30Z</time></trkpt><trkpt lat="43.479287592430694" lon="11.329898156058414"><ele>618.0</ele><time>2026-04-26T15:41:31Z</time></trkpt><trkpt lat="43.47935186350981" lon="11.32970887063454"><ele>618.0</ele><time>2026-04-26T15:41:32Z</time></trkpt><trkpt lat="43.47941473048459" lon="11.329518226553363"><ele>618.0</ele><time>2026-04-26T15:41:33Z</time></trkpt><trkpt lat="43.47946965007917" lon="11.329356598624123"><ele>617.75</ele><time>2026-04-26T15:41:34Z</time></trkpt><trkpt lat="43.47953273526543" lon="11.329222449188514"><ele>617.5</ele><time>2026-04-26T15:41:35Z</time></trkpt><trkpt lat="43.47961140063604" lon="11.329119433664061"><ele>617.25</ele><time>2026-04-26T15:41:36Z</time></trkpt><trkpt lat="43.47971506164752" lon="11.329036231825567"><ele>617.0</ele><time>2026-04-26T15:41:37Z</time></trkpt><trkpt lat="43.47984209254797" lon="11.328987736631378"><ele>617.0</ele><time>2026-04-26T15:41:38Z</time></trkpt><trkpt lat="43.47997899423222" lon="11.329002617512346"><ele>617.0</ele><time>2026-04-26T15:41:39Z</time></trkpt><trkpt lat="43.480101245794124" lon="11.328972727515797"><ele>617.0</ele><time>2026-04-26T15:41:40Z</time></trkpt><trkpt lat="43.480204340259576" lon="11.328902126802678"><ele>617.0</ele><time>2026-04-26T15:41:41Z</time></trkpt><trkpt lat="43.480293253980285" lon="11.328762141455666"><ele>614.75</ele><time>2026-04-26T15:41:42Z</time></trkpt><trkpt lat="43.480355030478215" lon="11.328574921400024"><ele>612.5</ele><time>2026-04-26T15:41:43Z</time></trkpt><trkpt lat="43.48039358426868" lon="11.328375372119377"><ele>610.25</ele><time>2026-04-26T15:41:44Z</time></trkpt><trkpt lat="43.480417045919786" lon="11.328172305005356"><ele>608.0</ele><time>2026-04-26T15:41:45Z</time></trkpt><trkpt lat="43.480412358820715" lon="11.327962189272569"><ele>606.6666666666666</ele><time>2026-04-26T15:41:46Z</time></trkpt><trkpt lat="43.48039445801978" lon="11.327746723123296"><ele>605.3333333333334</ele><time>2026-04-26T15:41:47Z</time></trkpt><trkpt lat="43.48035462961027" lon="11.327545009307226"><ele>604.0</ele><time>2026-04-26T15:41:48Z</time></trkpt><trkpt lat="43.48032862868808" lon="11.32735149016945"><ele>605.75</ele><time>2026-04-26T15:41:49Z</time></trkpt><trkpt lat="43.48029210206019" lon="11.327180495010921"><ele>607.5</ele><time>2026-04-26T15:41:50Z</time></trkpt><trkpt lat="43.480277065105966" lon="11.327028435171286"><ele>609.25</ele><time>2026-04-26T15:41:51Z</time></trkpt><trkpt lat="43.480284956298874" lon="11.326875503274808"><ele>611.0</ele><time>2026-04-26T15:41:52Z</time></trkpt><trkpt lat="43.48034615206867" lon="11.326732920962494"><ele>610.25</ele><time>2026-04-26T15:41:53Z</time></trkpt><trkpt lat="43.48043947694733" lon="11.326590869635403"><ele>609.5</ele><time>2026-04-26T15:41:54Z</time></trkpt><trkpt lat="43.480542375897926" lon="11.326439621089888"><ele>608.75</ele><time>2026-04-26T15:41:55Z</time></trkpt><trkpt lat="43.48063387701116" lon="11.326298978873288"><ele>608.0</ele><time>2026-04-26T15:41:56Z</time></trkpt><trkpt lat="43.48071861203351" lon="11.326154531117314"><ele>610.0</ele><time>2026-04-26T15:41:57Z</time></trkpt><trkpt lat="43.48079904443004" lon="11.326004304895553"><ele>612.0</ele><time>2026-04-26T15:41:58Z</time></trkpt><trkpt lat="43.48087295229337" lon="11.325853451687278"><ele>614.0</ele><time>2026-04-26T15:41:59Z</time></trkpt><trkpt lat="43.48093512793347" lon="11.325700504558782"><ele>616.0</ele><time>2026-04-26T15:42:00Z</time></trkpt><trkpt lat="43.48101129730896" lon="11.325569341271908"><ele>616.25</ele><time>2026-04-26T15:42:01Z</time></trkpt><trkpt lat="43.4810938391682" lon="11.32546571761995"><ele>616.5</ele><time>2026-04-26T15:42:02Z</time></trkpt><trkpt lat="43.48118465203158" lon="11.325394492314476"><ele>616.75</ele><time>2026-04-26T15:42:03Z</time></trkpt><trkpt lat="43.48129695056309" lon="11.325352920666232"><ele>617.0</ele><time>2026-04-26T15:42:04Z</time></trkpt><trkpt lat="43.481428778660764" lon="11.325396353095568"><ele>617.0</ele><time>2026-04-26T15:42:05Z</time></trkpt><trkpt lat="43.48158906597336" lon="11.325430554045525"><ele>617.0</ele><time>2026-04-26T15:42:06Z</time></trkpt><trkpt lat="43.481766547431285" lon="11.325449345175636"><ele>617.0</ele><time>2026-04-26T15:42:07Z</time></trkpt><trkpt lat="43.4819338234982" lon="11.325489468008602"><ele>617.0</ele><time>2026-04-26T15:42:08Z</time></trkpt><trkpt lat="43.482095484611506" lon="11.325521983758591"><ele>617.0</ele><time>2026-04-26T15:42:09Z</time></trkpt><trkpt lat="43.482258424574034" lon="11.325559932161065"><ele>617.0</ele><time>2026-04-26T15:42:10Z</time></trkpt><trkpt lat="43.482413183054554" lon="11.325597949863816"><ele>614.75</ele><time>2026-04-26T15:42:11Z</time></trkpt><trkpt lat="43.482558714560206" lon="11.32564313319533"><ele>612.5</ele><time>2026-04-26T15:42:12Z</time></trkpt><trkpt lat="43.482702782091835" lon="11.325669485087031"><ele>610.25</ele><time>2026-04-26T15:42:13Z</time></trkpt><trkpt lat="43.48285475034444" lon="11.32567124971259"><ele>608.0</ele><time>2026-04-26T15:42:14Z</time></trkpt><trkpt lat="43.48300895796227" lon="11.325640367501919"><ele>608.6666666666666</ele><time>2026-04-26T15:42:15Z</time></trkpt><trkpt lat="43.48315897912348" lon="11.325556310754388"><ele>609.3333333333334</ele><time>2026-04-26T15:42:16Z</time></trkpt><trkpt lat="43.483299646473384" lon="11.325454815966536"><ele>610.0</ele><time>2026-04-26T15:42:17Z</time></trkpt><trkpt lat="43.483451717669084" lon="11.325373842884431"><ele>610.0</ele><time>2026-04-26T15:42:18Z</time></trkpt><trkpt lat="43.483592116107594" lon="11.325284329591813"><ele>610.0</ele><time>2026-04-26T15:42:19Z</time></trkpt><trkpt lat="43.483739296692995" lon="11.325185392199185"><ele>610.0</ele><time>2026-04-26T15:42:20Z</time></trkpt><trkpt lat="43.483871386098336" lon="11.325088353583096"><ele>608.75</ele><time>2026-04-26T15:42:21Z</time></trkpt><trkpt lat="43.48399495221077" lon="11.324975845934992"><ele>607.5</ele><time>2026-04-26T15:42:22Z</time></trkpt><trkpt lat="43.48408559462886" lon="11.324830764359733"><ele>606.25</ele><time>2026-04-26T15:42:23Z</time></trkpt><trkpt lat="43.48416797035562" lon="11.324692636692586"><ele>605.0</ele><time>2026-04-26T15:42:24Z</time></trkpt><trkpt lat="43.48423056408185" lon="11.324535401508491"><ele>603.75</ele><time>2026-04-26T15:42:25Z</time></trkpt><trkpt lat="43.48428692214591" lon="11.324366953971985"><ele>602.5</ele><time>2026-04-26T15:42:26Z</time></trkpt><trkpt lat="43.48433993483555" lon="11.324187745147263"><ele>601.25</ele><time>2026-04-26T15:42:27Z</time></trkpt><trkpt lat="43.4843896900119" lon="11.324005180428639"><ele>600.0</ele><time>2026-04-26T15:42:28Z</time></trkpt><trkpt lat="43.484436002319306" lon="11.323825112096221"><ele>598.5</ele><time>2026-04-26T15:42:29Z</time></trkpt><trkpt lat="43.4844707688093" lon="11.323632312035059"><ele>597.0</ele><time>2026-04-26T15:42:30Z</time></trkpt><trkpt lat="43.48449188066709" lon="11.32343567854065"><ele>595.5</ele><time>2026-04-26T15:42:31Z</time></trkpt><trkpt lat="43.48452858363393" lon="11.323247411752932"><ele>594.0</ele><time>2026-04-26T15:42:32Z</time></trkpt><trkpt lat="43.484551575960786" lon="11.32305548289448"><ele>592.75</ele><time>2026-04-26T15:42:33Z</time></trkpt><trkpt lat="43.48456144788811" lon="11.322859535773972"><ele>591.5</ele><time>2026-04-26T15:42:34Z</time></trkpt><trkpt lat="43.484590666525634" lon="11.322672227140433"><ele>590.25</ele><time>2026-04-26T15:42:35Z</time></trkpt><trkpt lat="43.48463747092981" lon="11.322490447700977"><ele>589.0</ele><time>2026-04-26T15:42:36Z</time></trkpt><trkpt lat="43.48467418787864" lon="11.322311599794872"><ele>591.5</ele><time>2026-04-26T15:42:37Z</time></trkpt><trkpt lat="43.484716918827466" lon="11.322137409904308"><ele>594.0</ele><time>2026-04-26T15:42:38Z</time></trkpt><trkpt lat="43.48476435695607" lon="11.32196507086507"><ele>596.5</ele><time>2026-04-26T15:42:39Z</time></trkpt><trkpt lat="43.484800977833295" lon="11.321791292633598"><ele>599.0</ele><time>2026-04-26T15:42:40Z</time></trkpt><trkpt lat="43.484854888931125" lon="11.321620512901616"><ele>599.0</ele><time>2026-04-26T15:42:41Z</time></trkpt><trkpt lat="43.484910774554734" lon="11.321460597052873"><ele>599.0</ele><time>2026-04-26T15:42:42Z</time></trkpt><trkpt lat="43.48497701481295" lon="11.321315762692823"><ele>599.0</ele><time>2026-04-26T15:42:43Z</time></trkpt><trkpt lat="43.485028841178384" lon="11.321168844174196"><ele>599.0</ele><time>2026-04-26T15:42:44Z</time></trkpt><trkpt lat="43.48506959068272" lon="11.321010325939769"><ele>599.5</ele><time>2026-04-26T15:42:45Z</time></trkpt><trkpt lat="43.48512388746914" lon="11.320851588391887"><ele>600.0</ele><time>2026-04-26T15:42:46Z</time></trkpt><trkpt lat="43.48517574278884" lon="11.320693844310206"><ele>600.5</ele><time>2026-04-26T15:42:47Z</time></trkpt><trkpt lat="43.485221009627566" lon="11.320527452830909"><ele>601.0</ele><time>2026-04-26T15:42:48Z</time></trkpt><trkpt lat="43.48524509289456" lon="11.320358690682154"><ele>602.25</ele><time>2026-04-26T15:42:49Z</time></trkpt><trkpt lat="43.48525532604498" lon="11.320183590113462"><ele>603.5</ele><time>2026-04-26T15:42:50Z</time></trkpt><trkpt lat="43.48524537777602" lon="11.320001418615636"><ele>604.75</ele><time>2026-04-26T15:42:51Z</time></trkpt><trkpt lat="43.48522292622389" lon="11.319818944972747"><ele>606.0</ele><time>2026-04-26T15:42:52Z</time></trkpt><trkpt lat="43.48520503518574" lon="11.319639375463204"><ele>606.0</ele><time>2026-04-26T15:42:53Z</time></trkpt><trkpt lat="43.48522911848278" lon="11.319460780606393"><ele>606.0</ele><time>2026-04-26T15:42:54Z</time></trkpt><trkpt lat="43.485263429893266" lon="11.319295580427083"><ele>606.0</ele><time>2026-04-26T15:42:55Z</time></trkpt><trkpt lat="43.485312334134726" lon="11.319123430657118"><ele>606.0</ele><time>2026-04-26T15:42:56Z</time></trkpt><trkpt lat="43.485363543685864" lon="11.318954515654703"><ele>604.5</ele><time>2026-04-26T15:42:57Z</time></trkpt><trkpt lat="43.48543175554561" lon="11.318787776553679"><ele>603.0</ele><time>2026-04-26T15:42:58Z</time></trkpt><trkpt lat="43.485510155369894" lon="11.318638549949014"><ele>601.5</ele><time>2026-04-26T15:42:59Z</time></trkpt><trkpt lat="43.48560099264623" lon="11.318498928329506"><ele>600.0</ele><time>2026-04-26T15:43:00Z</time></trkpt><trkpt lat="43.485694571030265" lon="11.318369090808412"><ele>600.0</ele><time>2026-04-26T15:43:01Z</time></trkpt><trkpt lat="43.48579114747063" lon="11.318239550184794"><ele>600.0</ele><time>2026-04-26T15:43:02Z</time></trkpt><trkpt lat="43.4858839486939" lon="11.318106001230335"><ele>600.0</ele><time>2026-04-26T15:43:03Z</time></trkpt><trkpt lat="43.48596523148373" lon="11.317986286149388"><ele>600.0</ele><time>2026-04-26T15:43:04Z</time></trkpt><trkpt lat="43.486033260157065" lon="11.317848512471251"><ele>599.25</ele><time>2026-04-26T15:43:05Z</time></trkpt><trkpt lat="43.486056764669705" lon="11.317681918121918"><ele>598.5</ele><time>2026-04-26T15:43:06Z</time></trkpt><trkpt lat="43.486045701261745" lon="11.317531498968613"><ele>597.75</ele><time>2026-04-26T15:43:07Z</time></trkpt><trkpt lat="43.48598057070934" lon="11.317373552529336"><ele>597.0</ele><time>2026-04-26T15:43:08Z</time></trkpt><trkpt lat="43.4858847543025" lon="11.317262205762978"><ele>599.25</ele><time>2026-04-26T15:43:09Z</time></trkpt><trkpt lat="43.48577634069821" lon="11.317138166490487"><ele>601.5</ele><time>2026-04-26T15:43:10Z</time></trkpt><trkpt lat="43.48569481254249" lon="11.316985067654771"><ele>603.75</ele><time>2026-04-26T15:43:11Z</time></trkpt><trkpt lat="43.48562750910053" lon="11.316820299562648"><ele>606.0</ele><time>2026-04-26T15:43:12Z</time></trkpt><trkpt lat="43.485574504233604" lon="11.316647163213021"><ele>606.0</ele><time>2026-04-26T15:43:13Z</time></trkpt><trkpt lat="43.48553571067472" lon="11.316461570416793"><ele>606.0</ele><time>2026-04-26T15:43:14Z</time></trkpt><trkpt lat="43.485518377673415" lon="11.316277325374283"><ele>606.0</ele><time>2026-04-26T15:43:15Z</time></trkpt><trkpt lat="43.48551524189797" lon="11.316090809979807"><ele>606.0</ele><time>2026-04-26T15:43:16Z</time></trkpt><trkpt lat="43.48550263684017" lon="11.315913435822875"><ele>605.5</ele><time>2026-04-26T15:43:17Z</time></trkpt><trkpt lat="43.48548425887196" lon="11.315758595496911"><ele>605.0</ele><time>2026-04-26T15:43:18Z</time></trkpt><trkpt lat="43.4854204301821" lon="11.31561679933992"><ele>604.5</ele><time>2026-04-26T15:43:19Z</time></trkpt><trkpt lat="43.48531262911011" lon="11.315503775530875"><ele>604.0</ele><time>2026-04-26T15:43:20Z</time></trkpt><trkpt lat="43.48518358568139" lon="11.31542365712686"><ele>604.0</ele><time>2026-04-26T15:43:21Z</time></trkpt><trkpt lat="43.485056086537924" lon="11.315348355299776"><ele>604.0</ele><time>2026-04-26T15:43:22Z</time></trkpt><trkpt lat="43.48496757716343" lon="11.315207973118135"><ele>604.0</ele><time>2026-04-26T15:43:23Z</time></trkpt><trkpt lat="43.48488322125312" lon="11.315062390274006"><ele>604.0</ele><time>2026-04-26T15:43:24Z</time></trkpt><trkpt lat="43.48482832579232" lon="11.31488460299026"><ele>606.5</ele><time>2026-04-26T15:43:25Z</time></trkpt><trkpt lat="43.48479242126585" lon="11.314696006438444"><ele>609.0</ele><time>2026-04-26T15:43:26Z</time></trkpt><trkpt lat="43.484762879874005" lon="11.31450588155966"><ele>611.5</ele><time>2026-04-26T15:43:27Z</time></trkpt><trkpt lat="43.48474058971908" lon="11.314314081216196"><ele>614.0</ele><time>2026-04-26T15:43:28Z</time></trkpt><trkpt lat="43.48472814435918" lon="11.314129449381932"><ele>614.0</ele><time>2026-04-26T15:43:29Z</time></trkpt><trkpt lat="43.48471454488741" lon="11.313958657349193"><ele>614.0</ele><time>2026-04-26T15:43:30Z</time></trkpt><trkpt lat="43.48467314784298" lon="11.31378758070771"><ele>614.0</ele><time>2026-04-26T15:43:31Z</time></trkpt><trkpt lat="43.484596270379704" lon="11.313635344778362"><ele>614.0</ele><time>2026-04-26T15:43:32Z</time></trkpt><trkpt lat="43.48450685112855" lon="11.313494037243814"><ele>612.25</ele><time>2026-04-26T15:43:33Z</time></trkpt><trkpt lat="43.48439170325673" lon="11.313385047526895"><ele>610.5</ele><time>2026-04-26T15:43:34Z</time></trkpt><trkpt lat="43.4842618645563" lon="11.31330854027012"><ele>608.75</ele><time>2026-04-26T15:43:35Z</time></trkpt><trkpt lat="43.484119849188914" lon="11.313265868045733"><ele>607.0</ele><time>2026-04-26T15:43:36Z</time></trkpt><trkpt lat="43.48397468951878" lon="11.313248999855205"><ele>607.0</ele><time>2026-04-26T15:43:37Z</time></trkpt><trkpt lat="43.48383303553738" lon="11.31324349581002"><ele>607.0</ele><time>2026-04-26T15:43:38Z</time></trkpt><trkpt lat="43.48370036944862" lon="11.313226495180245"><ele>607.0</ele><time>2026-04-26T15:43:39Z</time></trkpt><trkpt lat="43.4835703458894" lon="11.31319255087298"><ele>607.0</ele><time>2026-04-26T15:43:40Z</time></trkpt><trkpt lat="43.48344797371448" lon="11.313108805876906"><ele>609.5</ele><time>2026-04-26T15:43:41Z</time></trkpt><trkpt lat="43.48331610794002" lon="11.313042044923655"><ele>612.0</ele><time>2026-04-26T15:43:42Z</time></trkpt><trkpt lat="43.48320984812074" lon="11.31291247432443"><ele>614.5</ele><time>2026-04-26T15:43:43Z</time></trkpt><trkpt lat="43.483104889301885" lon="11.312781246891225"><ele>617.0</ele><time>2026-04-26T15:43:44Z</time></trkpt><trkpt lat="43.48300464927856" lon="11.312639281306332"><ele>617.75</ele><time>2026-04-26T15:43:45Z</time></trkpt><trkpt lat="43.48289766314134" lon="11.312516442876099"><ele>618.5</ele><time>2026-04-26T15:43:46Z</time></trkpt><trkpt lat="43.48280017938309" lon="11.312381217015197"><ele>619.25</ele><time>2026-04-26T15:43:47Z</time></trkpt><trkpt lat="43.48268830712615" lon="11.312272806876669"><ele>620.0</ele><time>2026-04-26T15:43:48Z</time></trkpt><trkpt lat="43.482561839666104" lon="11.312207689765994"><ele>620.0</ele><time>2026-04-26T15:43:49Z</time></trkpt><trkpt lat="43.48241733643715" lon="11.31215927803176"><ele>620.0</ele><time>2026-04-26T15:43:50Z</time></trkpt><trkpt lat="43.48225821497049" lon="11.312103511409477"><ele>620.0</ele><time>2026-04-26T15:43:51Z</time></trkpt><trkpt lat="43.4821151620559" lon="11.312082607934103"><ele>616.5</ele><time>2026-04-26T15:43:52Z</time></trkpt><trkpt lat="43.48197361594416" lon="11.31204006030446"><ele>613.0</ele><time>2026-04-26T15:43:53Z</time></trkpt><trkpt lat="43.48183986222859" lon="11.311941908354948"><ele>609.5</ele><time>2026-04-26T15:43:54Z</time></trkpt><trkpt lat="43.48171354010878" lon="11.311828910098393"><ele>606.0</ele><time>2026-04-26T15:43:55Z</time></trkpt><trkpt lat="43.48159924366779" lon="11.311689420269737"><ele>606.0</ele><time>2026-04-26T15:43:56Z</time></trkpt><trkpt lat="43.48148669656215" lon="11.311542963915938"><ele>606.0</ele><time>2026-04-26T15:43:57Z</time></trkpt><trkpt lat="43.48137183199872" lon="11.311397316044706"><ele>606.0</ele><time>2026-04-26T15:43:58Z</time></trkpt><trkpt lat="43.481259319042756" lon="11.311254650016757"><ele>606.0</ele><time>2026-04-26T15:43:59Z</time></trkpt><trkpt lat="43.48117466794563" lon="11.31113434060912"><ele>606.0</ele><time>2026-04-26T15:44:00Z</time></trkpt><trkpt lat="43.48111631527127" lon="11.311016924147115"><ele>606.0</ele><time>2026-04-26T15:44:01Z</time></trkpt><trkpt lat="43.48109768594302" lon="11.310898876016086"><ele>606.0</ele><time>2026-04-26T15:44:02Z</time></trkpt><trkpt lat="43.48108050064607" lon="11.310768667639639"><ele>606.0</ele><time>2026-04-26T15:44:03Z</time></trkpt><trkpt lat="43.48115342988083" lon="11.310635822545482"><ele>606.0</ele><time>2026-04-26T15:44:04Z</time></trkpt><trkpt lat="43.48122784729943" lon="11.310505076983382"><ele>606.0</ele><time>2026-04-26T15:44:05Z</time></trkpt><trkpt lat="43.48133515626144" lon="11.310394645098926"><ele>606.0</ele><time>2026-04-26T15:44:06Z</time></trkpt><trkpt lat="43.4814074813606" lon="11.310260749920495"><ele>606.0</ele><time>2026-04-26T15:44:07Z</time></trkpt><trkpt lat="43.481462575178526" lon="11.310134977548028"><ele>606.0</ele><time>2026-04-26T15:44:08Z</time></trkpt><trkpt lat="43.48148483555942" lon="11.309981131165454"><ele>606.0</ele><time>2026-04-26T15:44:09Z</time></trkpt><trkpt lat="43.4814927216611" lon="11.309810014277392"><ele>606.0</ele><time>2026-04-26T15:44:10Z</time></trkpt><trkpt lat="43.48150702946051" lon="11.309641594440535"><ele>606.0</ele><time>2026-04-26T15:44:11Z</time></trkpt><trkpt lat="43.48151807968521" lon="11.309477729357573"><ele>605.5</ele><time>2026-04-26T15:44:12Z</time></trkpt><trkpt lat="43.48153350367879" lon="11.309308733413724"><ele>605.0</ele><time>2026-04-26T15:44:13Z</time></trkpt><trkpt lat="43.48154334455242" lon="11.309137664943579"><ele>604.5</ele><time>2026-04-26T15:44:14Z</time></trkpt><trkpt lat="43.48153456000283" lon="11.308966939677148"><ele>604.0</ele><time>2026-04-26T15:44:15Z</time></trkpt><trkpt lat="43.481492206192875" lon="11.308790803600889"><ele>603.5</ele><time>2026-04-26T15:44:16Z</time></trkpt><trkpt lat="43.48143533339586" lon="11.308622393042656"><ele>603.0</ele><time>2026-04-26T15:44:17Z</time></trkpt><trkpt lat="43.48137754337005" lon="11.308451005528756"><ele>602.5</ele><time>2026-04-26T15:44:18Z</time></trkpt><trkpt lat="43.48131107136501" lon="11.308284511266747"><ele>602.0</ele><time>2026-04-26T15:44:19Z</time></trkpt><trkpt lat="43.48124478110073" lon="11.308128906060345"><ele>600.0</ele><time>2026-04-26T15:44:20Z</time></trkpt><trkpt lat="43.481188960372144" lon="11.307949309578454"><ele>598.0</ele><time>2026-04-26T15:44:21Z</time></trkpt><trkpt lat="43.48114558303118" lon="11.307757141581147"><ele>596.0</ele><time>2026-04-26T15:44:22Z</time></trkpt><trkpt lat="43.48110836370645" lon="11.307565049289064"><ele>594.0</ele><time>2026-04-26T15:44:23Z</time></trkpt><trkpt lat="43.481074556650796" lon="11.307364407381483"><ele>591.6666666666666</ele><time>2026-04-26T15:44:24Z</time></trkpt><trkpt lat="43.481046084256484" lon="11.307153133701565"><ele>589.3333333333333</ele><time>2026-04-26T15:44:25Z</time></trkpt><trkpt lat="43.48104507359495" lon="11.30694484953027"><ele>587.0</ele><time>2026-04-26T15:44:26Z</time></trkpt><trkpt lat="43.48102125218145" lon="11.30673381212953"><ele>587.0</ele><time>2026-04-26T15:44:27Z</time></trkpt><trkpt lat="43.481017632331124" lon="11.30652517733667"><ele>587.0</ele><time>2026-04-26T15:44:28Z</time></trkpt><trkpt lat="43.48102479915216" lon="11.306325169608858"><ele>587.0</ele><time>2026-04-26T15:44:29Z</time></trkpt><trkpt lat="43.48105465522292" lon="11.30613905119629"><ele>587.0</ele><time>2026-04-26T15:44:30Z</time></trkpt><trkpt lat="43.481100753239105" lon="11.30596943205289"><ele>586.0</ele><time>2026-04-26T15:44:31Z</time></trkpt><trkpt lat="43.481122048754585" lon="11.305817191549451"><ele>585.0</ele><time>2026-04-26T15:44:32Z</time></trkpt><trkpt lat="43.48109618260747" lon="11.305676690650243"><ele>584.0</ele><time>2026-04-26T15:44:33Z</time></trkpt><trkpt lat="43.48102100466439" lon="11.305565557611033"><ele>583.0</ele><time>2026-04-26T15:44:34Z</time></trkpt><trkpt lat="43.48093081945479" lon="11.305467916369535"><ele>582.0</ele><time>2026-04-26T15:44:35Z</time></trkpt><trkpt lat="43.48080384243858" lon="11.305459884480891"><ele>582.0</ele><time>2026-04-26T15:44:36Z</time></trkpt><trkpt lat="43.48069699007539" lon="11.30550373419066"><ele>582.0</ele><time>2026-04-26T15:44:37Z</time></trkpt><trkpt lat="43.48058833306455" lon="11.305614187035083"><ele>582.0</ele><time>2026-04-26T15:44:38Z</time></trkpt><trkpt lat="43.48049037765853" lon="11.305722032095778"><ele>582.0</ele><time>2026-04-26T15:44:39Z</time></trkpt><trkpt lat="43.48037665514477" lon="11.30571804110199"><ele>581.25</ele><time>2026-04-26T15:44:40Z</time></trkpt><trkpt lat="43.48026090908257" lon="11.305688848392679"><ele>580.5</ele><time>2026-04-26T15:44:41Z</time></trkpt><trkpt lat="43.480144078633444" lon="11.305614075323088"><ele>579.75</ele><time>2026-04-26T15:44:42Z</time></trkpt><trkpt lat="43.48001696039225" lon="11.30552420254928"><ele>579.0</ele><time>2026-04-26T15:44:43Z</time></trkpt><trkpt lat="43.47989450723058" lon="11.30542777706677"><ele>579.0</ele><time>2026-04-26T15:44:44Z</time></trkpt><trkpt lat="43.479782276387205" lon="11.305325278223528"><ele>579.0</ele><time>2026-04-26T15:44:45Z</time></trkpt><trkpt lat="43.479672511155705" lon="11.305211060131233"><ele>579.0</ele><time>2026-04-26T15:44:46Z</time></trkpt><trkpt lat="43.47956268088244" lon="11.30508973857697"><ele>579.0</ele><time>2026-04-26T15:44:47Z</time></trkpt><trkpt lat="43.47945428065827" lon="11.304964348293591"><ele>580.0</ele><time>2026-04-26T15:44:48Z</time></trkpt><trkpt lat="43.47935569717208" lon="11.304827527125356"><ele>581.0</ele><time>2026-04-26T15:44:49Z</time></trkpt><trkpt lat="43.47925616296272" lon="11.3046863576953"><ele>582.0</ele><time>2026-04-26T15:44:50Z</time></trkpt><trkpt lat="43.4791611507802" lon="11.304543417731573"><ele>583.0</ele><time>2026-04-26T15:44:51Z</time></trkpt><trkpt lat="43.47907074673245" lon="11.304391747260908"><ele>583.25</ele><time>2026-04-26T15:44:52Z</time></trkpt><trkpt lat="43.4789750527307" lon="11.304251447567383"><ele>583.5</ele><time>2026-04-26T15:44:53Z</time></trkpt><trkpt lat="43.4788770506651" lon="11.304113156802519"><ele>583.75</ele><time>2026-04-26T15:44:54Z</time></trkpt><trkpt lat="43.47878126416078" lon="11.303970479182029"><ele>584.0</ele><time>2026-04-26T15:44:55Z</time></trkpt><trkpt lat="43.478692792902635" lon="11.30381086691186"><ele>584.75</ele><time>2026-04-26T15:44:56Z</time></trkpt><trkpt lat="43.47858933767017" lon="11.303664871411556"><ele>585.5</ele><time>2026-04-26T15:44:57Z</time></trkpt><trkpt lat="43.478492337683925" lon="11.303519251655565"><ele>586.25</ele><time>2026-04-26T15:44:58Z</time></trkpt><trkpt lat="43.47841052308521" lon="11.303372314889776"><ele>587.0</ele><time>2026-04-26T15:44:59Z</time></trkpt><trkpt lat="43.47834628963942" lon="11.303214427462489"><ele>587.25</ele><time>2026-04-26T15:45:00Z</time></trkpt><trkpt lat="43.47829946054861" lon="11.303032002464962"><ele>587.5</ele><time>2026-04-26T15:45:01Z</time></trkpt><trkpt lat="43.478254824745605" lon="11.302841271573266"><ele>587.75</ele><time>2026-04-26T15:45:02Z</time></trkpt><trkpt lat="43.47820340944469" lon="11.302653930886962"><ele>588.0</ele><time>2026-04-26T15:45:03Z</time></trkpt><trkpt lat="43.478147862015305" lon="11.302481546154945"><ele>588.0</ele><time>2026-04-26T15:45:04Z</time></trkpt><trkpt lat="43.478076451107924" lon="11.302325626872822"><ele>588.0</ele><time>2026-04-26T15:45:05Z</time></trkpt><trkpt lat="43.47798451340351" lon="11.30218817925676"><ele>588.0</ele><time>2026-04-26T15:45:06Z</time></trkpt><trkpt lat="43.47787174645189" lon="11.302072273996473"><ele>588.0</ele><time>2026-04-26T15:45:07Z</time></trkpt><trkpt lat="43.477747622377116" lon="11.30196739766738"><ele>586.25</ele><time>2026-04-26T15:45:08Z</time></trkpt><trkpt lat="43.47761909838586" lon="11.301892513735957"><ele>584.5</ele><time>2026-04-26T15:45:09Z</time></trkpt><trkpt lat="43.47749537365128" lon="11.301820772065756"><ele>582.75</ele><time>2026-04-26T15:45:10Z</time></trkpt><trkpt lat="43.47738228043975" lon="11.301722394517967"><ele>581.0</ele><time>2026-04-26T15:45:11Z</time></trkpt><trkpt lat="43.477269313526044" lon="11.301644506960539"><ele>581.0</ele><time>2026-04-26T15:45:12Z</time></trkpt><trkpt lat="43.477153994922716" lon="11.301577620977405"><ele>581.0</ele><time>2026-04-26T15:45:13Z</time></trkpt><trkpt lat="43.47706115188632" lon="11.301477678748736"><ele>581.0</ele><time>2026-04-26T15:45:14Z</time></trkpt><trkpt lat="43.476996825542585" lon="11.301353097299875"><ele>581.0</ele><time>2026-04-26T15:45:15Z</time></trkpt><trkpt lat="43.4769656306135" lon="11.301205516502343"><ele>581.25</ele><time>2026-04-26T15:45:16Z</time></trkpt><trkpt lat="43.47696786682958" lon="11.301042620982285"><ele>581.5</ele><time>2026-04-26T15:45:17Z</time></trkpt><trkpt lat="43.47699800445132" lon="11.300873490395594"><ele>581.75</ele><time>2026-04-26T15:45:18Z</time></trkpt><trkpt lat="43.47706145580826" lon="11.300706883040489"><ele>582.0</ele><time>2026-04-26T15:45:19Z</time></trkpt><trkpt lat="43.47708720409597" lon="11.300530327877976"><ele>579.5</ele><time>2026-04-26T15:45:20Z</time></trkpt><trkpt lat="43.4771272382882" lon="11.300353518034932"><ele>577.0</ele><time>2026-04-26T15:45:21Z</time></trkpt><trkpt lat="43.47716065061694" lon="11.30017329081085"><ele>574.5</ele><time>2026-04-26T15:45:22Z</time></trkpt><trkpt lat="43.477211046941754" lon="11.299990434352623"><ele>572.0</ele><time>2026-04-26T15:45:23Z</time></trkpt><trkpt lat="43.477244841693526" lon="11.299811130591793"><ele>571.0</ele><time>2026-04-26T15:45:24Z</time></trkpt><trkpt lat="43.47729165776158" lon="11.299629650672728"><ele>570.0</ele><time>2026-04-26T15:45:25Z</time></trkpt><trkpt lat="43.47732482246612" lon="11.299437849648006"><ele>569.0</ele><time>2026-04-26T15:45:26Z</time></trkpt><trkpt lat="43.477334215570394" lon="11.299273744103536"><ele>568.0</ele><time>2026-04-26T15:45:27Z</time></trkpt><trkpt lat="43.47732115466172" lon="11.2991057308922"><ele>568.0</ele><time>2026-04-26T15:45:28Z</time></trkpt><trkpt lat="43.47728971565656" lon="11.298941679856075"><ele>568.0</ele><time>2026-04-26T15:45:29Z</time></trkpt><trkpt lat="43.477245908025544" lon="11.298781307728671"><ele>568.0</ele><time>2026-04-26T15:45:30Z</time></trkpt><trkpt lat="43.47719692676344" lon="11.298623155732992"><ele>568.0</ele><time>2026-04-26T15:45:31Z</time></trkpt><trkpt lat="43.47714456719427" lon="11.298460378919412"><ele>567.75</ele><time>2026-04-26T15:45:32Z</time></trkpt><trkpt lat="43.477089758557696" lon="11.298296877430886"><ele>567.5</ele><time>2026-04-26T15:45:33Z</time></trkpt><trkpt lat="43.4770383678317" lon="11.298131355448959"><ele>567.25</ele><time>2026-04-26T15:45:34Z</time></trkpt><trkpt lat="43.476995212393895" lon="11.297973480707817"><ele>567.0</ele><time>2026-04-26T15:45:35Z</time></trkpt><trkpt lat="43.476948696361504" lon="11.297830803905372"><ele>567.0</ele><time>2026-04-26T15:45:36Z</time></trkpt><trkpt lat="43.476914155560046" lon="11.297700428466037"><ele>567.0</ele><time>2026-04-26T15:45:37Z</time></trkpt><trkpt lat="43.476882988109914" lon="11.297573854731915"><ele>567.0</ele><time>2026-04-26T15:45:38Z</time></trkpt><trkpt lat="43.47686300319668" lon="11.297467065195313"><ele>567.0</ele><time>2026-04-26T15:45:39Z</time></trkpt><trkpt lat="43.4768657722333" lon="11.297360798068954"><ele>567.0</ele><time>2026-04-26T15:45:40Z</time></trkpt><trkpt lat="43.476904737046105" lon="11.297231904274634"><ele>568.3333333333334</ele><time>2026-04-26T15:45:42Z</time></trkpt><trkpt lat="43.47689156110188" lon="11.297135092410423"><ele>569.6666666666666</ele><time>2026-04-26T15:46:20Z</time></trkpt><trkpt lat="43.476812617952746" lon="11.297030505824402"><ele>571.0</ele><time>2026-04-26T15:46:22Z</time></trkpt><trkpt lat="43.47673978587007" lon="11.296994549319908"><ele>572.3333333333333</ele><time>2026-04-26T15:46:23Z</time></trkpt><trkpt lat="43.476654871178305" lon="11.296950296225964"><ele>573.6666666666666</ele><time>2026-04-26T15:46:24Z</time></trkpt><trkpt lat="43.47656283277404" lon="11.296902087886767"><ele>575.0</ele><time>2026-04-26T15:46:25Z</time></trkpt><trkpt lat="43.47646602966124" lon="11.296871884093603"><ele>575.0</ele><time>2026-04-26T15:46:26Z</time></trkpt><trkpt lat="43.47636726515578" lon="11.296834551468054"><ele>575.0</ele><time>2026-04-26T15:46:27Z</time></trkpt><trkpt lat="43.4762694975224" lon="11.29678526125584"><ele>575.0</ele><time>2026-04-26T15:46:28Z</time></trkpt><trkpt lat="43.4761691456399" lon="11.29674332165584"><ele>575.0</ele><time>2026-04-26T15:46:29Z</time></trkpt><trkpt lat="43.476073201199775" lon="11.296700689164714"><ele>575.0</ele><time>2026-04-26T15:46:30Z</time></trkpt><trkpt lat="43.47598444868533" lon="11.29666021380566"><ele>573.8333333333333</ele><time>2026-04-26T15:46:31Z</time></trkpt><trkpt lat="43.47590235242809" lon="11.2966220049612"><ele>572.6666666666666</ele><time>2026-04-26T15:46:32Z</time></trkpt><trkpt lat="43.4758282321545" lon="11.2965740018188"><ele>571.5</ele><time>2026-04-26T15:46:33Z</time></trkpt><trkpt lat="43.475757711215735" lon="11.296528891073272"><ele>570.3333333333334</ele><time>2026-04-26T15:46:34Z</time></trkpt><trkpt lat="43.47569257290589" lon="11.296484078067973"><ele>569.1666666666667</ele><time>2026-04-26T15:46:35Z</time></trkpt><trkpt lat="43.47562771184223" lon="11.296420992845906"><ele>568.0</ele><time>2026-04-26T15:46:36Z</time></trkpt><trkpt lat="43.47554895442185" lon="11.296335658158176"><ele>568.0</ele><time>2026-04-26T15:46:37Z</time></trkpt><trkpt lat="43.475479857395065" lon="11.296254330444913"><ele>568.0</ele><time>2026-04-26T15:46:38Z</time></trkpt><trkpt lat="43.47541014455006" lon="11.296151877462433"><ele>568.0</ele><time>2026-04-26T15:46:39Z</time></trkpt><trkpt lat="43.475348859180336" lon="11.29603992447691"><ele>568.0</ele><time>2026-04-26T15:46:40Z</time></trkpt><trkpt lat="43.47529436786692" lon="11.295912331001842"><ele>568.0</ele><time>2026-04-26T15:46:41Z</time></trkpt><trkpt lat="43.47524347196759" lon="11.295766613620058"><ele>564.6</ele><time>2026-04-26T15:46:42Z</time></trkpt><trkpt lat="43.47522241425208" lon="11.295608554665945"><ele>561.1999999999999</ele><time>2026-04-26T15:46:43Z</time></trkpt><trkpt lat="43.475202385815145" lon="11.295463718726815"><ele>557.8</ele><time>2026-04-26T15:46:44Z</time></trkpt><trkpt lat="43.47519007552191" lon="11.295324042039775"><ele>554.4</ele><time>2026-04-26T15:46:45Z</time></trkpt><trkpt lat="43.47517130457048" lon="11.29518244495349"><ele>551.0</ele><time>2026-04-26T15:46:46Z</time></trkpt><trkpt lat="43.47517764407451" lon="11.295032478518"><ele>551.0</ele><time>2026-04-26T15:46:47Z</time></trkpt><trkpt lat="43.475187181441235" lon="11.294877045955253"><ele>551.0</ele><time>2026-04-26T15:46:48Z</time></trkpt><trkpt lat="43.475201216810056" lon="11.294712082113081"><ele>551.0</ele><time>2026-04-26T15:46:49Z</time></trkpt><trkpt lat="43.475216529910746" lon="11.294541829359177"><ele>551.0</ele><time>2026-04-26T15:46:50Z</time></trkpt><trkpt lat="43.47524517651721" lon="11.294370853842915"><ele>550.25</ele><time>2026-04-26T15:46:51Z</time></trkpt><trkpt lat="43.47525899267475" lon="11.294194007541405"><ele>549.5</ele><time>2026-04-26T15:46:52Z</time></trkpt><trkpt lat="43.475273045005295" lon="11.294014347847137"><ele>548.75</ele><time>2026-04-26T15:46:53Z</time></trkpt><trkpt lat="43.47528765523048" lon="11.293825535090448"><ele>548.0</ele><time>2026-04-26T15:46:54Z</time></trkpt><trkpt lat="43.47530231416096" lon="11.293639692238086"><ele>546.0</ele><time>2026-04-26T15:46:55Z</time></trkpt><trkpt lat="43.47531741862544" lon="11.293448302814353"><ele>544.0</ele><time>2026-04-26T15:46:56Z</time></trkpt><trkpt lat="43.475332668174445" lon="11.293254165069527"><ele>542.0</ele><time>2026-04-26T15:46:57Z</time></trkpt><trkpt lat="43.475348120372495" lon="11.293056275198657"><ele>540.0</ele><time>2026-04-26T15:46:58Z</time></trkpt><trkpt lat="43.47536717935024" lon="11.292861871527725"><ele>539.0</ele><time>2026-04-26T15:46:59Z</time></trkpt><trkpt lat="43.47539594794315" lon="11.292669250515006"><ele>538.0</ele><time>2026-04-26T15:47:00Z</time></trkpt><trkpt lat="43.47542268739056" lon="11.292477114591504"><ele>537.0</ele><time>2026-04-26T15:47:01Z</time></trkpt><trkpt lat="43.47549615318507" lon="11.292315845367625"><ele>536.0</ele><time>2026-04-26T15:47:02Z</time></trkpt><trkpt lat="43.47557612180525" lon="11.292151406113284"><ele>538.25</ele><time>2026-04-26T15:47:03Z</time></trkpt><trkpt lat="43.475668399031186" lon="11.291989716973479"><ele>540.5</ele><time>2026-04-26T15:47:04Z</time></trkpt><trkpt lat="43.475764305931314" lon="11.291827801332529"><ele>542.75</ele><time>2026-04-26T15:47:05Z</time></trkpt><trkpt lat="43.4758577378013" lon="11.291672627271508"><ele>545.0</ele><time>2026-04-26T15:47:06Z</time></trkpt><trkpt lat="43.47594251027125" lon="11.291528240728981"><ele>545.0</ele><time>2026-04-26T15:47:07Z</time></trkpt><trkpt lat="43.47605912328854" lon="11.29143710050707"><ele>545.0</ele><time>2026-04-26T15:47:08Z</time></trkpt><trkpt lat="43.4761787540333" lon="11.291362249363896"><ele>545.0</ele><time>2026-04-26T15:47:09Z</time></trkpt><trkpt lat="43.47630000219961" lon="11.291277342789348"><ele>545.0</ele><time>2026-04-26T15:47:10Z</time></trkpt><trkpt lat="43.47641215304647" lon="11.29122767306517"><ele>545.25</ele><time>2026-04-26T15:47:11Z</time></trkpt><trkpt lat="43.47649826696152" lon="11.291149244984522"><ele>545.5</ele><time>2026-04-26T15:47:12Z</time></trkpt><trkpt lat="43.4765405119254" lon="11.291031927091746"><ele>545.75</ele><time>2026-04-26T15:47:13Z</time></trkpt><trkpt lat="43.47652556631122" lon="11.290856605917407"><ele>546.0</ele><time>2026-04-26T15:47:14Z</time></trkpt><trkpt lat="43.476483298286475" lon="11.290695601694807"><ele>546.0</ele><time>2026-04-26T15:47:15Z</time></trkpt><trkpt lat="43.47643812556849" lon="11.290520971148267"><ele>546.0</ele><time>2026-04-26T15:47:16Z</time></trkpt><trkpt lat="43.4764225567292" lon="11.290347262723275"><ele>546.0</ele><time>2026-04-26T15:47:17Z</time></trkpt><trkpt lat="43.47638916907606" lon="11.290163535201383"><ele>546.0</ele><time>2026-04-26T15:47:18Z</time></trkpt><trkpt lat="43.476355914892636" lon="11.28998054239819"><ele>546.0</ele><time>2026-04-26T15:47:19Z</time></trkpt><trkpt lat="43.47632064776851" lon="11.289786472590835"><ele>546.0</ele><time>2026-04-26T15:47:20Z</time></trkpt><trkpt lat="43.47627804977154" lon="11.289596648492882"><ele>546.0</ele><time>2026-04-26T15:47:21Z</time></trkpt><trkpt lat="43.476243338104496" lon="11.289414887762154"><ele>546.0</ele><time>2026-04-26T15:47:22Z</time></trkpt><trkpt lat="43.47620171481427" lon="11.28925505270114"><ele>547.25</ele><time>2026-04-26T15:47:23Z</time></trkpt><trkpt lat="43.47615382042393" lon="11.289096403077089"><ele>548.5</ele><time>2026-04-26T15:47:24Z</time></trkpt><trkpt lat="43.47609135617836" lon="11.288951822421973"><ele>549.75</ele><time>2026-04-26T15:47:25Z</time></trkpt><trkpt lat="43.476007665728375" lon="11.288828600682022"><ele>551.0</ele><time>2026-04-26T15:47:26Z</time></trkpt><trkpt lat="43.47589987609883" lon="11.288730088043204"><ele>551.0</ele><time>2026-04-26T15:47:27Z</time></trkpt><trkpt lat="43.475775182926746" lon="11.28865294286856"><ele>551.0</ele><time>2026-04-26T15:47:28Z</time></trkpt><trkpt lat="43.475646891505" lon="11.288602937925866"><ele>551.0</ele><time>2026-04-26T15:47:29Z</time></trkpt><trkpt lat="43.47550251600371" lon="11.28857888015987"><ele>551.0</ele><time>2026-04-26T15:47:30Z</time></trkpt><trkpt lat="43.475383543646196" lon="11.288519923701212"><ele>550.2</ele><time>2026-04-26T15:47:31Z</time></trkpt><trkpt lat="43.47526649212637" lon="11.288468696136274"><ele>549.4000000000001</ele><time>2026-04-26T15:47:32Z</time></trkpt><trkpt lat="43.475161546360745" lon="11.288408014487366"><ele>548.6</ele><time>2026-04-26T15:47:33Z</time></trkpt><trkpt lat="43.47507988950147" lon="11.288326621379102"><ele>547.8000000000001</ele><time>2026-04-26T15:47:34Z</time></trkpt><trkpt lat="43.475014396011055" lon="11.288228967555852"><ele>547.0</ele><time>2026-04-26T15:47:35Z</time></trkpt><trkpt lat="43.47496478691314" lon="11.288115061960568"><ele>549.0</ele><time>2026-04-26T15:47:36Z</time></trkpt><trkpt lat="43.47492308464848" lon="11.287993299653332"><ele>551.0</ele><time>2026-04-26T15:47:37Z</time></trkpt><trkpt lat="43.474886513736095" lon="11.287865309651467"><ele>553.0</ele><time>2026-04-26T15:47:38Z</time></trkpt><trkpt lat="43.47485698834018" lon="11.287736984119121"><ele>555.0</ele><time>2026-04-26T15:47:39Z</time></trkpt><trkpt lat="43.474815887016774" lon="11.287601336296188"><ele>557.0</ele><time>2026-04-26T15:47:40Z</time></trkpt><trkpt lat="43.47478680427047" lon="11.287456401760082"><ele>557.0</ele><time>2026-04-26T15:47:41Z</time></trkpt><trkpt lat="43.4747695941237" lon="11.28730403833592"><ele>557.0</ele><time>2026-04-26T15:47:42Z</time></trkpt><trkpt lat="43.474727666591996" lon="11.287150888810599"><ele>557.0</ele><time>2026-04-26T15:47:43Z</time></trkpt><trkpt lat="43.47470751128428" lon="11.28699212167095"><ele>557.0</ele><time>2026-04-26T15:47:44Z</time></trkpt><trkpt lat="43.47468557222025" lon="11.286827044597889"><ele>559.0</ele><time>2026-04-26T15:47:45Z</time></trkpt><trkpt lat="43.47466558266749" lon="11.286659979348741"><ele>561.0</ele><time>2026-04-26T15:47:46Z</time></trkpt><trkpt lat="43.474647373671225" lon="11.286497259468357"><ele>563.0</ele><time>2026-04-26T15:47:47Z</time></trkpt><trkpt lat="43.47463321446415" lon="11.286339814575204"><ele>565.0</ele><time>2026-04-26T15:47:48Z</time></trkpt><trkpt lat="43.4746191905858" lon="11.28619255662392"><ele>563.0</ele><time>2026-04-26T15:47:49Z</time></trkpt><trkpt lat="43.47459167255785" lon="11.286055887833504"><ele>561.0</ele><time>2026-04-26T15:47:50Z</time></trkpt><trkpt lat="43.474528793119056" lon="11.285949591513953"><ele>559.0</ele><time>2026-04-26T15:47:51Z</time></trkpt><trkpt lat="43.47443096937412" lon="11.285878635326984"><ele>557.0</ele><time>2026-04-26T15:47:52Z</time></trkpt><trkpt lat="43.47431788967771" lon="11.285851396022075"><ele>555.0</ele><time>2026-04-26T15:47:53Z</time></trkpt><trkpt lat="43.4742077683013" lon="11.28588286401357"><ele>555.0</ele><time>2026-04-26T15:47:54Z</time></trkpt><trkpt lat="43.474113356778126" lon="11.285970735478136"><ele>555.0</ele><time>2026-04-26T15:47:55Z</time></trkpt><trkpt lat="43.47405133268183" lon="11.286095490882076"><ele>555.0</ele><time>2026-04-26T15:47:56Z</time></trkpt><trkpt lat="43.47400650535076" lon="11.286244113255835"><ele>555.0</ele><time>2026-04-26T15:47:57Z</time></trkpt><trkpt lat="43.47397224059043" lon="11.286398079774273"><ele>554.75</ele><time>2026-04-26T15:47:58Z</time></trkpt><trkpt lat="43.47394832196959" lon="11.286559440889414"><ele>554.5</ele><time>2026-04-26T15:47:59Z</time></trkpt><trkpt lat="43.473925402034084" lon="11.286725994886636"><ele>554.25</ele><time>2026-04-26T15:48:00Z</time></trkpt><trkpt lat="43.47390845898229" lon="11.28689297150803"><ele>554.0</ele><time>2026-04-26T15:48:01Z</time></trkpt><trkpt lat="43.47388220947025" lon="11.28705748756224"><ele>554.0</ele><time>2026-04-26T15:48:02Z</time></trkpt><trkpt lat="43.473864590894834" lon="11.287220654982283"><ele>554.0</ele><time>2026-04-26T15:48:03Z</time></trkpt><trkpt lat="43.47384139460848" lon="11.287382148649986"><ele>554.0</ele><time>2026-04-26T15:48:04Z</time></trkpt><trkpt lat="43.47381717366417" lon="11.28754701030364"><ele>554.0</ele><time>2026-04-26T15:48:05Z</time></trkpt><trkpt lat="43.47379304785079" lon="11.287707856640912"><ele>557.25</ele><time>2026-04-26T15:48:06Z</time></trkpt><trkpt lat="43.47375676572211" lon="11.287863195777184"><ele>560.5</ele><time>2026-04-26T15:48:07Z</time></trkpt><trkpt lat="43.47371953375017" lon="11.287991715819999"><ele>563.75</ele><time>2026-04-26T15:48:08Z</time></trkpt><trkpt lat="43.47367370402167" lon="11.288165819514493"><ele>567.0</ele><time>2026-04-26T15:48:09Z</time></trkpt><trkpt lat="43.47358702832039" lon="11.288333271963657"><ele>567.0</ele><time>2026-04-26T15:48:10Z</time></trkpt><trkpt lat="43.47352423470118" lon="11.288461179939008"><ele>567.0</ele><time>2026-04-26T15:48:11Z</time></trkpt><trkpt lat="43.47348583089632" lon="11.288592057046046"><ele>567.0</ele><time>2026-04-26T15:48:12Z</time></trkpt><trkpt lat="43.47342494355484" lon="11.288705435921196"><ele>567.0</ele><time>2026-04-26T15:48:13Z</time></trkpt><trkpt lat="43.47335408567191" lon="11.288783105726477"><ele>567.0</ele><time>2026-04-26T15:48:14Z</time></trkpt><trkpt lat="43.47326765839242" lon="11.288821682333866"><ele>567.0</ele><time>2026-04-26T15:48:15Z</time></trkpt><trkpt lat="43.47315911515782" lon="11.28881449359022"><ele>567.0</ele><time>2026-04-26T15:48:16Z</time></trkpt><trkpt lat="43.47307862003745" lon="11.288719151004644"><ele>567.0</ele><time>2026-04-26T15:48:17Z</time></trkpt><trkpt lat="43.473021218011226" lon="11.288631716871507"><ele>567.0</ele><time>2026-04-26T15:48:18Z</time></trkpt><trkpt lat="43.47297582852139" lon="11.288521483336254"><ele>567.0</ele><time>2026-04-26T15:48:19Z</time></trkpt><trkpt lat="43.47297794413578" lon="11.288398691788677"><ele>567.0</ele><time>2026-04-26T15:48:20Z</time></trkpt><trkpt lat="43.47298764292401" lon="11.288249762383977"><ele>567.0</ele><time>2026-04-26T15:48:21Z</time></trkpt><trkpt lat="43.47300589868335" lon="11.288100122204854"><ele>567.0</ele><time>2026-04-26T15:48:22Z</time></trkpt><trkpt lat="43.473028727569435" lon="11.287936346369088"><ele>567.0</ele><time>2026-04-26T15:48:23Z</time></trkpt><trkpt lat="43.473047958446436" lon="11.28778961974719"><ele>567.0</ele><time>2026-04-26T15:48:24Z</time></trkpt><trkpt lat="43.47306725090478" lon="11.287642423315503"><ele>567.6</ele><time>2026-04-26T15:48:25Z</time></trkpt><trkpt lat="43.47308531263753" lon="11.287504616872337"><ele>568.2</ele><time>2026-04-26T15:48:26Z</time></trkpt><trkpt lat="43.4731033811791" lon="11.28736675869091"><ele>568.8</ele><time>2026-04-26T15:48:27Z</time></trkpt><trkpt lat="43.47312064895849" lon="11.287230261470018"><ele>569.4</ele><time>2026-04-26T15:48:28Z</time></trkpt><trkpt lat="43.47313428793595" lon="11.28711834281516"><ele>570.0</ele><time>2026-04-26T15:48:29Z</time></trkpt><trkpt lat="43.473122148639845" lon="11.286986088218407"><ele>570.1666666666666</ele><time>2026-04-26T15:48:30Z</time></trkpt><trkpt lat="43.47312226913151" lon="11.286863347529826"><ele>570.3333333333334</ele><time>2026-04-26T15:48:31Z</time></trkpt><trkpt lat="43.473116321768295" lon="11.286744482752487"><ele>570.5</ele><time>2026-04-26T15:48:32Z</time></trkpt><trkpt lat="43.47309445993951" lon="11.286627976197991"><ele>570.6666666666667</ele><time>2026-04-26T15:48:33Z</time></trkpt><trkpt lat="43.473068269135375" lon="11.286509257763408"><ele>570.8333333333334</ele><time>2026-04-26T15:48:34Z</time></trkpt><trkpt lat="43.4730292039364" lon="11.286395917627209"><ele>571.0</ele><time>2026-04-26T15:48:35Z</time></trkpt><trkpt lat="43.47298366378312" lon="11.286281276575727"><ele>572.1666666666667</ele><time>2026-04-26T15:48:36Z</time></trkpt><trkpt lat="43.47293580032518" lon="11.28617051563132"><ele>573.3333333333334</ele><time>2026-04-26T15:48:37Z</time></trkpt><trkpt lat="43.472885190823284" lon="11.286066713121706"><ele>574.5</ele><time>2026-04-26T15:48:38Z</time></trkpt><trkpt lat="43.472826724253274" lon="11.285986806933398"><ele>575.6666666666666</ele><time>2026-04-26T15:48:39Z</time></trkpt><trkpt lat="43.47277305349876" lon="11.285913582128863"><ele>576.8333333333333</ele><time>2026-04-26T15:48:40Z</time></trkpt><trkpt lat="43.472710101985776" lon="11.2858428426287"><ele>578.0</ele><time>2026-04-26T15:48:41Z</time></trkpt><trkpt lat="43.4726405190095" lon="11.28580770492154"><ele>578.0</ele><time>2026-04-26T15:48:42Z</time></trkpt><trkpt lat="43.47256408242043" lon="11.28578025793097"><ele>578.0</ele><time>2026-04-26T15:48:43Z</time></trkpt><trkpt lat="43.47247944832878" lon="11.285754202457506"><ele>578.0</ele><time>2026-04-26T15:48:44Z</time></trkpt><trkpt lat="43.47239075313561" lon="11.285742219699419"><ele>578.0</ele><time>2026-04-26T15:48:45Z</time></trkpt><trkpt lat="43.472301280866105" lon="11.28572631611569"><ele>578.0</ele><time>2026-04-26T15:48:46Z</time></trkpt><trkpt lat="43.47221768785649" lon="11.285691589913867"><ele>578.0</ele><time>2026-04-26T15:48:47Z</time></trkpt><trkpt lat="43.47212748515104" lon="11.285663584025214"><ele>577.6</ele><time>2026-04-26T15:48:48Z</time></trkpt><trkpt lat="43.47203269227084" lon="11.28564101566546"><ele>577.1999999999999</ele><time>2026-04-26T15:48:49Z</time></trkpt><trkpt lat="43.4719260581783" lon="11.285600929229865"><ele>576.8</ele><time>2026-04-26T15:48:50Z</time></trkpt><trkpt lat="43.471806649719596" lon="11.28556880609371"><ele>576.4</ele><time>2026-04-26T15:48:51Z</time></trkpt><trkpt lat="43.471692028351576" lon="11.285520584577334"><ele>576.0</ele><time>2026-04-26T15:48:52Z</time></trkpt><trkpt lat="43.47158399791064" lon="11.285496786975429"><ele>576.0</ele><time>2026-04-26T15:48:53Z</time></trkpt><trkpt lat="43.471520417751435" lon="11.285469140960137"><ele>576.0</ele><time>2026-04-26T15:48:54Z</time></trkpt><trkpt lat="43.47143158618984" lon="11.285412435503583"><ele>576.0</ele><time>2026-04-26T15:48:56Z</time></trkpt><trkpt lat="43.4713723479103" lon="11.28537978067801"><ele>576.0</ele><time>2026-04-26T15:49:59Z</time></trkpt><trkpt lat="43.47134062055108" lon="11.285210733031475"><ele>576.0</ele><time>2026-04-26T15:50:03Z</time></trkpt><trkpt lat="43.471341612706546" lon="11.285069100621257"><ele>576.0</ele><time>2026-04-26T15:50:05Z</time></trkpt><trkpt lat="43.47132985752978" lon="11.284921950710784"><ele>576.0</ele><time>2026-04-26T15:50:07Z</time></trkpt><trkpt lat="43.47132170951742" lon="11.284768286571113"><ele>576.0</ele><time>2026-04-26T15:50:09Z</time></trkpt><trkpt lat="43.47132224160212" lon="11.28459702038678"><ele>576.0</ele><time>2026-04-26T15:50:11Z</time></trkpt><trkpt lat="43.47134490165344" lon="11.284440182429577"><ele>576.5</ele><time>2026-04-26T15:50:13Z</time></trkpt><trkpt lat="43.47136487460102" lon="11.284273199256702"><ele>577.0</ele><time>2026-04-26T15:50:15Z</time></trkpt><trkpt lat="43.471377237655226" lon="11.284177423713174"><ele>577.5</ele><time>2026-04-26T15:50:16Z</time></trkpt><trkpt lat="43.47138966107026" lon="11.284087243257945"><ele>578.0</ele><time>2026-04-26T15:50:17Z</time></trkpt><trkpt lat="43.471398346288844" lon="11.283989711082445"><ele>578.5</ele><time>2026-04-26T15:50:18Z</time></trkpt><trkpt lat="43.47141368721008" lon="11.283890258791109"><ele>579.0</ele><time>2026-04-26T15:50:19Z</time></trkpt><trkpt lat="43.471428778193236" lon="11.28378120786401"><ele>579.1666666666666</ele><time>2026-04-26T15:50:20Z</time></trkpt><trkpt lat="43.47144291081728" lon="11.283666594444204"><ele>579.3333333333334</ele><time>2026-04-26T15:50:21Z</time></trkpt><trkpt lat="43.47146094631157" lon="11.283554735367815"><ele>579.5</ele><time>2026-04-26T15:50:22Z</time></trkpt><trkpt lat="43.4714732369661" lon="11.283441589705216"><ele>579.6666666666667</ele><time>2026-04-26T15:50:23Z</time></trkpt><trkpt lat="43.47148569680035" lon="11.28332998687175"><ele>579.8333333333334</ele><time>2026-04-26T15:50:24Z</time></trkpt><trkpt lat="43.4714903734228" lon="11.283221222005364"><ele>580.0</ele><time>2026-04-26T15:50:25Z</time></trkpt><trkpt lat="43.47147389872357" lon="11.28310714958839"><ele>580.6666666666667</ele><time>2026-04-26T15:50:26Z</time></trkpt><trkpt lat="43.471424597427806" lon="11.283006232066805"><ele>581.3333333333334</ele><time>2026-04-26T15:50:27Z</time></trkpt><trkpt lat="43.471366295034905" lon="11.282913955027402"><ele>582.0</ele><time>2026-04-26T15:50:28Z</time></trkpt><trkpt lat="43.47129562814874" lon="11.282844715054722"><ele>582.6666666666666</ele><time>2026-04-26T15:50:29Z</time></trkpt><trkpt lat="43.47122216152439" lon="11.282793953858688"><ele>583.3333333333333</ele><time>2026-04-26T15:50:30Z</time></trkpt><trkpt lat="43.471137863636734" lon="11.282744425359908"><ele>584.0</ele><time>2026-04-26T15:50:31Z</time></trkpt><trkpt lat="43.47105402945328" lon="11.282693724818179"><ele>582.0</ele><time>2026-04-26T15:50:32Z</time></trkpt><trkpt lat="43.47098946479728" lon="11.28263474299198"><ele>580.0</ele><time>2026-04-26T15:50:33Z</time></trkpt><trkpt lat="43.47093894049146" lon="11.28257865817032"><ele>578.0</ele><time>2026-04-26T15:50:34Z</time></trkpt><trkpt lat="43.47089206989865" lon="11.282513208110096"><ele>576.0</ele><time>2026-04-26T15:50:35Z</time></trkpt><trkpt lat="43.470858133651916" lon="11.282426290240211"><ele>574.0</ele><time>2026-04-26T15:50:36Z</time></trkpt><trkpt lat="43.47083560843164" lon="11.282322764105022"><ele>572.0</ele><time>2026-04-26T15:50:37Z</time></trkpt><trkpt lat="43.47082999425238" lon="11.282216518255607"><ele>570.0</ele><time>2026-04-26T15:50:38Z</time></trkpt><trkpt lat="43.470830167272595" lon="11.282112762359446"><ele>570.0</ele><time>2026-04-26T15:50:39Z</time></trkpt><trkpt lat="43.47084550204259" lon="11.282007600791731"><ele>570.0</ele><time>2026-04-26T15:50:40Z</time></trkpt><trkpt lat="43.470872028787696" lon="11.281900127888555"><ele>570.0</ele><time>2026-04-26T15:50:41Z</time></trkpt><trkpt lat="43.47090308560412" lon="11.281795176055375"><ele>570.0</ele><time>2026-04-26T15:50:42Z</time></trkpt><trkpt lat="43.470932931017266" lon="11.281696573156895"><ele>570.0</ele><time>2026-04-26T15:50:43Z</time></trkpt><trkpt lat="43.47095745972102" lon="11.28159055157392"><ele>570.0</ele><time>2026-04-26T15:50:44Z</time></trkpt><trkpt lat="43.47097581639141" lon="11.28147530901723"><ele>569.5</ele><time>2026-04-26T15:50:45Z</time></trkpt><trkpt lat="43.470980922241" lon="11.281362191270203"><ele>569.0</ele><time>2026-04-26T15:50:46Z</time></trkpt><trkpt lat="43.47097029065122" lon="11.281239828483233"><ele>568.5</ele><time>2026-04-26T15:50:47Z</time></trkpt><trkpt lat="43.47095439209051" lon="11.281121348889146"><ele>568.0</ele><time>2026-04-26T15:50:48Z</time></trkpt><trkpt lat="43.47094233450117" lon="11.280999977157375"><ele>567.5</ele><time>2026-04-26T15:50:49Z</time></trkpt><trkpt lat="43.47093590303201" lon="11.280894114006745"><ele>567.0</ele><time>2026-04-26T15:50:50Z</time></trkpt><trkpt lat="43.47093399085858" lon="11.28079834483615"><ele>567.0</ele><time>2026-04-26T15:50:51Z</time></trkpt><trkpt lat="43.47093605477281" lon="11.280702765264328"><ele>567.0</ele><time>2026-04-26T15:50:52Z</time></trkpt><trkpt lat="43.4709446398881" lon="11.280600160911119"><ele>567.0</ele><time>2026-04-26T15:50:53Z</time></trkpt><trkpt lat="43.470963400077686" lon="11.28049175540654"><ele>567.0</ele><time>2026-04-26T15:50:54Z</time></trkpt><trkpt lat="43.47099776222357" lon="11.280397328152937"><ele>567.0</ele><time>2026-04-26T15:50:55Z</time></trkpt><trkpt lat="43.47104661297781" lon="11.280316953439746"><ele>567.0</ele><time>2026-04-26T15:50:56Z</time></trkpt><trkpt lat="43.47111658334281" lon="11.280253110032465"><ele>567.0</ele><time>2026-04-26T15:50:57Z</time></trkpt><trkpt lat="43.471198873485335" lon="11.28022349657811"><ele>567.0</ele><time>2026-04-26T15:50:58Z</time></trkpt><trkpt lat="43.47128926775743" lon="11.280222184402263"><ele>567.0</ele><time>2026-04-26T15:50:59Z</time></trkpt><trkpt lat="43.47138126916546" lon="11.280238317352673"><ele>567.0</ele><time>2026-04-26T15:51:00Z</time></trkpt><trkpt lat="43.471470313412006" lon="11.28026687604601"><ele>567.0</ele><time>2026-04-26T15:51:01Z</time></trkpt><trkpt lat="43.471559819774896" lon="11.280277249391501"><ele>567.0</ele><time>2026-04-26T15:51:02Z</time></trkpt><trkpt lat="43.47165553870036" lon="11.280297894114971"><ele>567.0</ele><time>2026-04-26T15:51:03Z</time></trkpt><trkpt lat="43.47174968655914" lon="11.280309905553503"><ele>567.0</ele><time>2026-04-26T15:51:04Z</time></trkpt><trkpt lat="43.47183606466668" lon="11.280278819412395"><ele>567.0</ele><time>2026-04-26T15:51:05Z</time></trkpt><trkpt lat="43.47192084366714" lon="11.280240719670243"><ele>567.0</ele><time>2026-04-26T15:51:06Z</time></trkpt><trkpt lat="43.47199695531305" lon="11.280171925777514"><ele>567.0</ele><time>2026-04-26T15:51:07Z</time></trkpt><trkpt lat="43.47206063640181" lon="11.280086059606313"><ele>567.0</ele><time>2026-04-26T15:51:08Z</time></trkpt><trkpt lat="43.472105279021584" lon="11.279996071312004"><ele>567.0</ele><time>2026-04-26T15:51:09Z</time></trkpt><trkpt lat="43.47213341818169" lon="11.279900598637566"><ele>567.0</ele><time>2026-04-26T15:51:10Z</time></trkpt><trkpt lat="43.472156920331464" lon="11.279802003974334"><ele>567.0</ele><time>2026-04-26T15:51:11Z</time></trkpt><trkpt lat="43.47217473606813" lon="11.279695404220076"><ele>567.0</ele><time>2026-04-26T15:51:12Z</time></trkpt><trkpt lat="43.472177876386304" lon="11.27958178952606"><ele>567.0</ele><time>2026-04-26T15:51:13Z</time></trkpt><trkpt lat="43.47216854399575" lon="11.279460254409438"><ele>566.8000000000001</ele><time>2026-04-26T15:51:14Z</time></trkpt><trkpt lat="43.47213021230064" lon="11.279356160615121"><ele>566.6</ele><time>2026-04-26T15:51:15Z</time></trkpt><trkpt lat="43.47206842476713" lon="11.279257788550426"><ele>566.4000000000001</ele><time>2026-04-26T15:51:16Z</time></trkpt><trkpt lat="43.47200194998788" lon="11.279163593121314"><ele>566.2</ele><time>2026-04-26T15:51:17Z</time></trkpt><trkpt lat="43.471925747486424" lon="11.279078262514567"><ele>566.0</ele><time>2026-04-26T15:51:18Z</time></trkpt><trkpt lat="43.471839224103704" lon="11.278994085181175"><ele>568.0</ele><time>2026-04-26T15:51:19Z</time></trkpt><trkpt lat="43.471769738241875" lon="11.27891805564476"><ele>570.0</ele><time>2026-04-26T15:51:20Z</time></trkpt><trkpt lat="43.47168973670473" lon="11.278818123327415"><ele>572.0</ele><time>2026-04-26T15:51:21Z</time></trkpt><trkpt lat="43.47160818107942" lon="11.278728073747414"><ele>574.0</ele><time>2026-04-26T15:51:22Z</time></trkpt><trkpt lat="43.47152629030718" lon="11.278628288856462"><ele>576.0</ele><time>2026-04-26T15:51:23Z</time></trkpt><trkpt lat="43.47145308555684" lon="11.278544458347856"><ele>576.0</ele><time>2026-04-26T15:51:24Z</time></trkpt><trkpt lat="43.47141894272527" lon="11.278427267240332"><ele>576.0</ele><time>2026-04-26T15:51:25Z</time></trkpt><trkpt lat="43.471403634299904" lon="11.278286136302915"><ele>576.0</ele><time>2026-04-26T15:51:26Z</time></trkpt><trkpt lat="43.47141644543301" lon="11.278140901852318"><ele>576.0</ele><time>2026-04-26T15:51:27Z</time></trkpt><trkpt lat="43.47145757467858" lon="11.278009683782162"><ele>576.0</ele><time>2026-04-26T15:51:28Z</time></trkpt><trkpt lat="43.47151530196271" lon="11.27789891363432"><ele>574.6</ele><time>2026-04-26T15:51:29Z</time></trkpt><trkpt lat="43.471575302491644" lon="11.277789399613486"><ele>573.2</ele><time>2026-04-26T15:51:30Z</time></trkpt><trkpt lat="43.47164940764728" lon="11.277702732610312"><ele>571.8</ele><time>2026-04-26T15:51:31Z</time></trkpt><trkpt lat="43.47171710003422" lon="11.277618613621238"><ele>570.4</ele><time>2026-04-26T15:51:32Z</time></trkpt><trkpt lat="43.471787715381055" lon="11.277528629605166"><ele>569.0</ele><time>2026-04-26T15:51:33Z</time></trkpt><trkpt lat="43.47185332634737" lon="11.277430586183032"><ele>569.0</ele><time>2026-04-26T15:51:34Z</time></trkpt><trkpt lat="43.47191750503801" lon="11.277324494171955"><ele>569.0</ele><time>2026-04-26T15:51:35Z</time></trkpt><trkpt lat="43.47198374607078" lon="11.277228318301573"><ele>569.0</ele><time>2026-04-26T15:51:36Z</time></trkpt><trkpt lat="43.47204195923276" lon="11.277141691710067"><ele>569.0</ele><time>2026-04-26T15:51:37Z</time></trkpt><trkpt lat="43.472083836415436" lon="11.277049078125094"><ele>569.0</ele><time>2026-04-26T15:51:38Z</time></trkpt><trkpt lat="43.47210336571849" lon="11.276926880680309"><ele>569.4</ele><time>2026-04-26T15:51:39Z</time></trkpt><trkpt lat="43.47208657199612" lon="11.276802170815879"><ele>569.8</ele><time>2026-04-26T15:51:40Z</time></trkpt><trkpt lat="43.47204066034262" lon="11.276674365455797"><ele>570.2</ele><time>2026-04-26T15:51:41Z</time></trkpt><trkpt lat="43.47197138281889" lon="11.276564112469908"><ele>570.6</ele><time>2026-04-26T15:51:42Z</time></trkpt><trkpt lat="43.47190702859177" lon="11.276478835087739"><ele>571.0</ele><time>2026-04-26T15:51:43Z</time></trkpt><trkpt lat="43.47186128627346" lon="11.27639066154167"><ele>571.0</ele><time>2026-04-26T15:51:44Z</time></trkpt><trkpt lat="43.47182142406516" lon="11.276294805376258"><ele>571.0</ele><time>2026-04-26T15:51:45Z</time></trkpt><trkpt lat="43.471794028669606" lon="11.276178577637026"><ele>571.0</ele><time>2026-04-26T15:51:46Z</time></trkpt><trkpt lat="43.471773243684574" lon="11.276093453216221"><ele>571.0</ele><time>2026-04-26T15:51:47Z</time></trkpt><trkpt lat="43.471803364306176" lon="11.2759450776391"><ele>571.0</ele><time>2026-04-26T15:51:49Z</time></trkpt><trkpt lat="43.47181670823246" lon="11.275786665040215"><ele>571.0</ele><time>2026-04-26T15:51:51Z</time></trkpt><trkpt lat="43.471830944026415" lon="11.275678473193954"><ele>571.0</ele><time>2026-04-26T15:51:52Z</time></trkpt><trkpt lat="43.471847081416335" lon="11.27555589416653"><ele>571.0</ele><time>2026-04-26T15:51:53Z</time></trkpt><trkpt lat="43.471866372538216" lon="11.27542001946083"><ele>571.0</ele><time>2026-04-26T15:51:54Z</time></trkpt><trkpt lat="43.471886014114425" lon="11.275281676400772"><ele>571.0</ele><time>2026-04-26T15:51:55Z</time></trkpt><trkpt lat="43.47190465379798" lon="11.27515229201116"><ele>570.1666666666667</ele><time>2026-04-26T15:51:56Z</time></trkpt><trkpt lat="43.4719223608078" lon="11.275029994791199"><ele>569.3333333333334</ele><time>2026-04-26T15:51:57Z</time></trkpt><trkpt lat="43.47192966616213" lon="11.274930641316459"><ele>568.5</ele><time>2026-04-26T15:51:58Z</time></trkpt><trkpt lat="43.471987947366" lon="11.274870122420037"><ele>567.6666666666666</ele><time>2026-04-26T15:52:00Z</time></trkpt><trkpt lat="43.47205202757625" lon="11.274896541754375"><ele>566.8333333333333</ele><time>2026-04-26T15:52:01Z</time></trkpt><trkpt lat="43.472131358524166" lon="11.275002183663327"><ele>566.0</ele><time>2026-04-26T15:52:03Z</time></trkpt><trkpt lat="43.47216880981818" lon="11.27507640309164"><ele>569.3333333333333</ele><time>2026-04-26T15:52:04Z</time></trkpt><trkpt lat="43.47221171285705" lon="11.275154275256893"><ele>572.6666666666666</ele><time>2026-04-26T15:52:05Z</time></trkpt><trkpt lat="43.47226027281795" lon="11.27523180631286"><ele>576.0</ele><time>2026-04-26T15:52:06Z</time></trkpt><trkpt lat="43.4723063185217" lon="11.275314698868735"><ele>579.3333333333334</ele><time>2026-04-26T15:52:07Z</time></trkpt><trkpt lat="43.472352794588375" lon="11.2754170999978"><ele>582.6666666666667</ele><time>2026-04-26T15:52:08Z</time></trkpt><trkpt lat="43.47239486769603" lon="11.275527021032602"><ele>586.0</ele><time>2026-04-26T15:52:09Z</time></trkpt><trkpt lat="43.47242876512942" lon="11.27563713826535"><ele>586.0</ele><time>2026-04-26T15:52:10Z</time></trkpt><trkpt lat="43.47246300289217" lon="11.275754978003556"><ele>586.0</ele><time>2026-04-26T15:52:11Z</time></trkpt><trkpt lat="43.47250582524805" lon="11.275880586515271"><ele>586.0</ele><time>2026-04-26T15:52:12Z</time></trkpt><trkpt lat="43.47253734934393" lon="11.275994673976355"><ele>586.0</ele><time>2026-04-26T15:52:13Z</time></trkpt><trkpt lat="43.472580096267755" lon="11.276109508531347"><ele>586.0</ele><time>2026-04-26T15:52:14Z</time></trkpt><trkpt lat="43.47260485247098" lon="11.276216754345842"><ele>586.0</ele><time>2026-04-26T15:52:15Z</time></trkpt><trkpt lat="43.47263762399111" lon="11.276327106254138"><ele>586.0</ele><time>2026-04-26T15:52:16Z</time></trkpt><trkpt lat="43.47267368444979" lon="11.276438272779124"><ele>586.0</ele><time>2026-04-26T15:52:17Z</time></trkpt><trkpt lat="43.472722474329245" lon="11.276548297295527"><ele>586.0</ele><time>2026-04-26T15:52:18Z</time></trkpt><trkpt lat="43.47277587301098" lon="11.276655825167973"><ele>586.0</ele><time>2026-04-26T15:52:19Z</time></trkpt><trkpt lat="43.47283389582933" lon="11.276766341402364"><ele>585.2</ele><time>2026-04-26T15:52:20Z</time></trkpt><trkpt lat="43.47289607784515" lon="11.276873702372074"><ele>584.4000000000001</ele><time>2026-04-26T15:52:21Z</time></trkpt><trkpt lat="43.472955362724" lon="11.276980681471017"><ele>583.6</ele><time>2026-04-26T15:52:22Z</time></trkpt><trkpt lat="43.47301805568749" lon="11.277087668540364"><ele>582.8000000000001</ele><time>2026-04-26T15:52:23Z</time></trkpt><trkpt lat="43.47308236498186" lon="11.277197149834183"><ele>582.0</ele><time>2026-04-26T15:52:24Z</time></trkpt><trkpt lat="43.47315122247942" lon="11.277299504503457"><ele>585.2</ele><time>2026-04-26T15:52:25Z</time></trkpt><trkpt lat="43.473203100852594" lon="11.277391108449148"><ele>588.4000000000001</ele><time>2026-04-26T15:52:26Z</time></trkpt><trkpt lat="43.47329116070844" lon="11.277445905308376"><ele>591.5999999999999</ele><time>2026-04-26T15:52:27Z</time></trkpt><trkpt lat="43.47337992910124" lon="11.277470887516099"><ele>594.8</ele><time>2026-04-26T15:52:28Z</time></trkpt><trkpt lat="43.47347055344628" lon="11.27746831568553"><ele>598.0</ele><time>2026-04-26T15:52:29Z</time></trkpt><trkpt lat="43.47356190216345" lon="11.277435494796471"><ele>598.0</ele><time>2026-04-26T15:52:30Z</time></trkpt><trkpt lat="43.47363893926884" lon="11.277369774026624"><ele>598.0</ele><time>2026-04-26T15:52:31Z</time></trkpt><trkpt lat="43.47370490385113" lon="11.277302459772995"><ele>598.0</ele><time>2026-04-26T15:52:32Z</time></trkpt><trkpt lat="43.47376839114111" lon="11.277269583738848"><ele>598.0</ele><time>2026-04-26T15:52:33Z</time></trkpt><trkpt lat="43.473841198709046" lon="11.2772653669439"><ele>598.0</ele><time>2026-04-26T15:52:34Z</time></trkpt><trkpt lat="43.473913211337745" lon="11.277297615997917"><ele>598.0</ele><time>2026-04-26T15:52:35Z</time></trkpt><trkpt lat="43.47397998464026" lon="11.277371475555404"><ele>599.8</ele><time>2026-04-26T15:52:36Z</time></trkpt><trkpt lat="43.47403649593212" lon="11.277457681226652"><ele>601.5999999999999</ele><time>2026-04-26T15:52:37Z</time></trkpt><trkpt lat="43.474087536223124" lon="11.277553831639338"><ele>603.4000000000001</ele><time>2026-04-26T15:52:38Z</time></trkpt><trkpt lat="43.474138070090575" lon="11.27761827267433"><ele>605.2</ele><time>2026-04-26T15:52:39Z</time></trkpt><trkpt lat="43.47420559302593" lon="11.27770580642623"><ele>607.0</ele><time>2026-04-26T15:52:41Z</time></trkpt><trkpt lat="43.47435713910324" lon="11.27757943788063"><ele>607.0</ele><time>2026-04-26T15:52:46Z</time></trkpt><trkpt lat="43.4744164735535" lon="11.277482362392956"><ele>607.0</ele><time>2026-04-26T15:52:47Z</time></trkpt><trkpt lat="43.47447211530474" lon="11.277368270532444"><ele>607.0</ele><time>2026-04-26T15:52:48Z</time></trkpt><trkpt lat="43.474510423871955" lon="11.27724894173562"><ele>607.0</ele><time>2026-04-26T15:52:49Z</time></trkpt><trkpt lat="43.47456650435016" lon="11.277150412572325"><ele>607.0</ele><time>2026-04-26T15:52:50Z</time></trkpt><trkpt lat="43.47462223471913" lon="11.277036821082804"><ele>608.0</ele><time>2026-04-26T15:52:51Z</time></trkpt><trkpt lat="43.47467771502254" lon="11.27693471836027"><ele>609.0</ele><time>2026-04-26T15:52:52Z</time></trkpt><trkpt lat="43.47472526060104" lon="11.276834331551758"><ele>610.0</ele><time>2026-04-26T15:52:53Z</time></trkpt><trkpt lat="43.47477341171643" lon="11.27673585895247"><ele>611.0</ele><time>2026-04-26T15:52:54Z</time></trkpt><trkpt lat="43.47479690025804" lon="11.276622007471031"><ele>612.0</ele><time>2026-04-26T15:52:55Z</time></trkpt><trkpt lat="43.474811930975214" lon="11.276500426262775"><ele>613.0</ele><time>2026-04-26T15:52:56Z</time></trkpt><trkpt lat="43.47481891461139" lon="11.276371117756227"><ele>613.6</ele><time>2026-04-26T15:52:57Z</time></trkpt><trkpt lat="43.47482443065439" lon="11.276238205090218"><ele>614.1999999999999</ele><time>2026-04-26T15:52:58Z</time></trkpt><trkpt lat="43.47482600093431" lon="11.276099101053292"><ele>614.8</ele><time>2026-04-26T15:52:59Z</time></trkpt><trkpt lat="43.47482182684435" lon="11.275959725272854"><ele>615.4</ele><time>2026-04-26T15:53:00Z</time></trkpt><trkpt lat="43.474818251420984" lon="11.275816847798458"><ele>616.0</ele><time>2026-04-26T15:53:01Z</time></trkpt><trkpt lat="43.47481017741444" lon="11.275677745540085"><ele>615.4</ele><time>2026-04-26T15:53:02Z</time></trkpt><trkpt lat="43.474798957951506" lon="11.275532405250102"><ele>614.8</ele><time>2026-04-26T15:53:03Z</time></trkpt><trkpt lat="43.47478842842687" lon="11.275391905998665"><ele>614.1999999999999</ele><time>2026-04-26T15:53:04Z</time></trkpt><trkpt lat="43.47477798578296" lon="11.27526390047618"><ele>613.6</ele><time>2026-04-26T15:53:05Z</time></trkpt><trkpt lat="43.474767605197606" lon="11.275138858950045"><ele>613.0</ele><time>2026-04-26T15:53:06Z</time></trkpt><trkpt lat="43.47476275993983" lon="11.275012812842252"><ele>613.0</ele><time>2026-04-26T15:53:07Z</time></trkpt><trkpt lat="43.47476578300636" lon="11.274866309357183"><ele>613.0</ele><time>2026-04-26T15:53:08Z</time></trkpt><trkpt lat="43.47479610519716" lon="11.274704208912015"><ele>613.0</ele><time>2026-04-26T15:53:09Z</time></trkpt><trkpt lat="43.474800395662605" lon="11.27456448765457"><ele>613.0</ele><time>2026-04-26T15:53:10Z</time></trkpt><trkpt lat="43.47482706936094" lon="11.274411477707332"><ele>613.0</ele><time>2026-04-26T15:53:11Z</time></trkpt><trkpt lat="43.474852438406145" lon="11.2742518235358"><ele>612.6</ele><time>2026-04-26T15:53:12Z</time></trkpt><trkpt lat="43.474881235186366" lon="11.274095048472152"><ele>612.1999999999999</ele><time>2026-04-26T15:53:13Z</time></trkpt><trkpt lat="43.47491342928942" lon="11.27395741816258"><ele>611.8</ele><time>2026-04-26T15:53:14Z</time></trkpt><trkpt lat="43.47494646889501" lon="11.273851921893973"><ele>611.4</ele><time>2026-04-26T15:53:15Z</time></trkpt><trkpt lat="43.47498172285519" lon="11.273750040659477"><ele>611.0</ele><time>2026-04-26T15:53:16Z</time></trkpt><trkpt lat="43.47501211445208" lon="11.273652081622238"><ele>610.8</ele><time>2026-04-26T15:53:17Z</time></trkpt><trkpt lat="43.47505181689049" lon="11.273548626586402"><ele>610.6</ele><time>2026-04-26T15:53:18Z</time></trkpt><trkpt lat="43.47510937000123" lon="11.273438765932191"><ele>610.4</ele><time>2026-04-26T15:53:19Z</time></trkpt><trkpt lat="43.47517010786148" lon="11.27332516349368"><ele>610.2</ele><time>2026-04-26T15:53:20Z</time></trkpt><trkpt lat="43.47523170658973" lon="11.273203066436478"><ele>610.0</ele><time>2026-04-26T15:53:21Z</time></trkpt><trkpt lat="43.47529777198989" lon="11.273068120673518"><ele>611.75</ele><time>2026-04-26T15:53:22Z</time></trkpt><trkpt lat="43.475375432257216" lon="11.27294493916815"><ele>613.5</ele><time>2026-04-26T15:53:23Z</time></trkpt><trkpt lat="43.47545033942685" lon="11.272813092347906"><ele>615.25</ele><time>2026-04-26T15:53:24Z</time></trkpt><trkpt lat="43.47553156878299" lon="11.272687664688846"><ele>617.0</ele><time>2026-04-26T15:53:25Z</time></trkpt><trkpt lat="43.47561786216984" lon="11.27256336584299"><ele>617.0</ele><time>2026-04-26T15:53:26Z</time></trkpt><trkpt lat="43.475706827898215" lon="11.272434510967495"><ele>617.0</ele><time>2026-04-26T15:53:27Z</time></trkpt><trkpt lat="43.47579810354101" lon="11.27232592508054"><ele>617.0</ele><time>2026-04-26T15:53:28Z</time></trkpt><trkpt lat="43.475897430340424" lon="11.272226929350458"><ele>617.0</ele><time>2026-04-26T15:53:29Z</time></trkpt><trkpt lat="43.47599527045874" lon="11.27213499023369"><ele>615.0</ele><time>2026-04-26T15:53:30Z</time></trkpt><trkpt lat="43.4760916708351" lon="11.272041902036545"><ele>613.0</ele><time>2026-04-26T15:53:31Z</time></trkpt><trkpt lat="43.47618471323661" lon="11.27194368772788"><ele>611.0</ele><time>2026-04-26T15:53:32Z</time></trkpt><trkpt lat="43.476269723808095" lon="11.271835424774766"><ele>609.0</ele><time>2026-04-26T15:53:33Z</time></trkpt><trkpt lat="43.4763499547038" lon="11.271722235835004"><ele>612.4</ele><time>2026-04-26T15:53:34Z</time></trkpt><trkpt lat="43.47641147754079" lon="11.27161890325334"><ele>615.8</ele><time>2026-04-26T15:53:35Z</time></trkpt><trkpt lat="43.47649301729143" lon="11.271498171850135"><ele>619.2</ele><time>2026-04-26T15:53:36Z</time></trkpt><trkpt lat="43.47655840453805" lon="11.27137461170582"><ele>622.6</ele><time>2026-04-26T15:53:37Z</time></trkpt><trkpt lat="43.47660957369974" lon="11.271243056737825"><ele>626.0</ele><time>2026-04-26T15:53:38Z</time></trkpt><trkpt lat="43.47665374967157" lon="11.271103763645234"><ele>626.0</ele><time>2026-04-26T15:53:39Z</time></trkpt><trkpt lat="43.476701794427946" lon="11.27097224432701"><ele>626.0</ele><time>2026-04-26T15:53:40Z</time></trkpt><trkpt lat="43.47675835958783" lon="11.270840666730408"><ele>626.0</ele><time>2026-04-26T15:53:41Z</time></trkpt><trkpt lat="43.4768209951513" lon="11.270696567087546"><ele>626.0</ele><time>2026-04-26T15:53:42Z</time></trkpt><trkpt lat="43.4768834220025" lon="11.27054646549785"><ele>625.5</ele><time>2026-04-26T15:53:43Z</time></trkpt><trkpt lat="43.476954403028074" lon="11.270410815324574"><ele>625.0</ele><time>2026-04-26T15:53:44Z</time></trkpt><trkpt lat="43.4770250171167" lon="11.270258909634062"><ele>624.5</ele><time>2026-04-26T15:53:45Z</time></trkpt><trkpt lat="43.477101960362944" lon="11.270115799728751"><ele>624.0</ele><time>2026-04-26T15:53:46Z</time></trkpt><trkpt lat="43.47719774208752" lon="11.269969224869143"><ele>624.0</ele><time>2026-04-26T15:53:47Z</time></trkpt><trkpt lat="43.477293151480694" lon="11.269842458873324"><ele>624.0</ele><time>2026-04-26T15:53:48Z</time></trkpt><trkpt lat="43.47739662080688" lon="11.269720321689146"><ele>624.0</ele><time>2026-04-26T15:53:49Z</time></trkpt><trkpt lat="43.477496975217775" lon="11.269597719899599"><ele>624.0</ele><time>2026-04-26T15:53:50Z</time></trkpt><trkpt lat="43.47759543123748" lon="11.26946796550786"><ele>624.25</ele><time>2026-04-26T15:53:51Z</time></trkpt><trkpt lat="43.47769873579883" lon="11.269343170282333"><ele>624.5</ele><time>2026-04-26T15:53:52Z</time></trkpt><trkpt lat="43.477795584035086" lon="11.269220384357812"><ele>624.75</ele><time>2026-04-26T15:53:53Z</time></trkpt><trkpt lat="43.477893277957655" lon="11.269100966535236"><ele>625.0</ele><time>2026-04-26T15:53:54Z</time></trkpt><trkpt lat="43.477981131482785" lon="11.268961826115115"><ele>625.0</ele><time>2026-04-26T15:53:55Z</time></trkpt><trkpt lat="43.47806801022893" lon="11.268825101832713"><ele>625.0</ele><time>2026-04-26T15:53:56Z</time></trkpt><trkpt lat="43.478171556662744" lon="11.268705686733309"><ele>625.0</ele><time>2026-04-26T15:53:57Z</time></trkpt><trkpt lat="43.47826935617342" lon="11.268572633779291"><ele>625.0</ele><time>2026-04-26T15:53:58Z</time></trkpt><trkpt lat="43.47836497795571" lon="11.268453811121327"><ele>625.0</ele><time>2026-04-26T15:53:59Z</time></trkpt><trkpt lat="43.478461517948816" lon="11.268347742119882"><ele>625.0</ele><time>2026-04-26T15:54:00Z</time></trkpt><trkpt lat="43.47857071080015" lon="11.268240255217504"><ele>625.0</ele><time>2026-04-26T15:54:01Z</time></trkpt><trkpt lat="43.47869059533545" lon="11.268135374732601"><ele>625.0</ele><time>2026-04-26T15:54:02Z</time></trkpt><trkpt lat="43.478818259097714" lon="11.268085884555715"><ele>623.75</ele><time>2026-04-26T15:54:03Z</time></trkpt><trkpt lat="43.47895268033303" lon="11.268068683681559"><ele>622.5</ele><time>2026-04-26T15:54:04Z</time></trkpt><trkpt lat="43.4790840351898" lon="11.268080271343871"><ele>621.25</ele><time>2026-04-26T15:54:05Z</time></trkpt><trkpt lat="43.479216960894355" lon="11.268098575672429"><ele>620.0</ele><time>2026-04-26T15:54:06Z</time></trkpt><trkpt lat="43.479351699347255" lon="11.26810763701107"><ele>620.25</ele><time>2026-04-26T15:54:07Z</time></trkpt><trkpt lat="43.479492207966075" lon="11.268112422248018"><ele>620.5</ele><time>2026-04-26T15:54:08Z</time></trkpt><trkpt lat="43.47962966216735" lon="11.268120666224924"><ele>620.75</ele><time>2026-04-26T15:54:09Z</time></trkpt><trkpt lat="43.47976900771677" lon="11.268145091357207"><ele>621.0</ele><time>2026-04-26T15:54:10Z</time></trkpt><trkpt lat="43.47991048270615" lon="11.268172257720353"><ele>619.5</ele><time>2026-04-26T15:54:11Z</time></trkpt><trkpt lat="43.48005188210399" lon="11.26820581066102"><ele>618.0</ele><time>2026-04-26T15:54:12Z</time></trkpt><trkpt lat="43.48019579327506" lon="11.268246693823556"><ele>616.5</ele><time>2026-04-26T15:54:13Z</time></trkpt><trkpt lat="43.48033839741985" lon="11.26829205333026"><ele>615.0</ele><time>2026-04-26T15:54:14Z</time></trkpt><trkpt lat="43.480481710495795" lon="11.26833471714152"><ele>615.0</ele><time>2026-04-26T15:54:15Z</time></trkpt><trkpt lat="43.480625171393754" lon="11.268369057797322"><ele>615.0</ele><time>2026-04-26T15:54:16Z</time></trkpt><trkpt lat="43.4807652132063" lon="11.268383613778699"><ele>615.0</ele><time>2026-04-26T15:54:17Z</time></trkpt><trkpt lat="43.4809005378734" lon="11.26839007854023"><ele>615.0</ele><time>2026-04-26T15:54:18Z</time></trkpt><trkpt lat="43.48102849457961" lon="11.26837962970718"><ele>615.0</ele><time>2026-04-26T15:54:19Z</time></trkpt><trkpt lat="43.48116013610393" lon="11.268346569785267"><ele>615.0</ele><time>2026-04-26T15:54:20Z</time></trkpt><trkpt lat="43.48128784526698" lon="11.268287274163615"><ele>615.0</ele><time>2026-04-26T15:54:21Z</time></trkpt><trkpt lat="43.48142734032423" lon="11.268227102803525"><ele>615.0</ele><time>2026-04-26T15:54:22Z</time></trkpt><trkpt lat="43.48156133035085" lon="11.268165117938958"><ele>614.25</ele><time>2026-04-26T15:54:23Z</time></trkpt><trkpt lat="43.48170618927695" lon="11.268113046339256"><ele>613.5</ele><time>2026-04-26T15:54:24Z</time></trkpt><trkpt lat="43.48184330230214" lon="11.26804611229973"><ele>612.75</ele><time>2026-04-26T15:54:25Z</time></trkpt><trkpt lat="43.481964756801716" lon="11.267962113831429"><ele>612.0</ele><time>2026-04-26T15:54:26Z</time></trkpt><trkpt lat="43.482071679973295" lon="11.267844304393876"><ele>609.0</ele><time>2026-04-26T15:54:27Z</time></trkpt><trkpt lat="43.482180529462035" lon="11.267749742434388"><ele>606.0</ele><time>2026-04-26T15:54:28Z</time></trkpt><trkpt lat="43.48229294252798" lon="11.267653468896285"><ele>603.0</ele><time>2026-04-26T15:54:29Z</time></trkpt><trkpt lat="43.48240158121955" lon="11.267574303586438"><ele>600.0</ele><time>2026-04-26T15:54:30Z</time></trkpt><trkpt lat="43.4825062245101" lon="11.267497663138704"><ele>600.0</ele><time>2026-04-26T15:54:31Z</time></trkpt><trkpt lat="43.482610059109646" lon="11.267420024074351"><ele>600.0</ele><time>2026-04-26T15:54:32Z</time></trkpt><trkpt lat="43.48270726066383" lon="11.267329525852427"><ele>600.0</ele><time>2026-04-26T15:54:33Z</time></trkpt><trkpt lat="43.48279611565325" lon="11.2672423938079"><ele>600.0</ele><time>2026-04-26T15:54:34Z</time></trkpt><trkpt lat="43.482879809671616" lon="11.267165757746787"><ele>600.0</ele><time>2026-04-26T15:54:35Z</time></trkpt><trkpt lat="43.48295343293309" lon="11.267072590008635"><ele>599.4</ele><time>2026-04-26T15:54:36Z</time></trkpt><trkpt lat="43.483015233040156" lon="11.26698019338437"><ele>598.8</ele><time>2026-04-26T15:54:37Z</time></trkpt><trkpt lat="43.483059406807314" lon="11.266876182291247"><ele>598.2</ele><time>2026-04-26T15:54:38Z</time></trkpt><trkpt lat="43.483097818459136" lon="11.266757157911922"><ele>597.6</ele><time>2026-04-26T15:54:39Z</time></trkpt><trkpt lat="43.48312462855443" lon="11.266628086304157"><ele>597.0</ele><time>2026-04-26T15:54:40Z</time></trkpt><trkpt lat="43.483143567340456" lon="11.266488373892555"><ele>596.2</ele><time>2026-04-26T15:54:41Z</time></trkpt><trkpt lat="43.48316977869117" lon="11.266349684781817"><ele>595.4000000000001</ele><time>2026-04-26T15:54:42Z</time></trkpt><trkpt lat="43.48319518587319" lon="11.266207280118985"><ele>594.5999999999999</ele><time>2026-04-26T15:54:43Z</time></trkpt><trkpt lat="43.48322366961393" lon="11.266067670165382"><ele>593.8</ele><time>2026-04-26T15:54:44Z</time></trkpt><trkpt lat="43.48327075291527" lon="11.265938355113493"><ele>593.0</ele><time>2026-04-26T15:54:45Z</time></trkpt><trkpt lat="43.48333572087803" lon="11.265811586868006"><ele>593.0</ele><time>2026-04-26T15:54:46Z</time></trkpt><trkpt lat="43.48341676996867" lon="11.265698513011673"><ele>593.0</ele><time>2026-04-26T15:54:47Z</time></trkpt><trkpt lat="43.48350834110715" lon="11.26559903692673"><ele>593.0</ele><time>2026-04-26T15:54:48Z</time></trkpt><trkpt lat="43.483606470676285" lon="11.265504451658959"><ele>593.0</ele><time>2026-04-26T15:54:49Z</time></trkpt><trkpt lat="43.48371311770805" lon="11.265418817944107"><ele>592.5</ele><time>2026-04-26T15:54:50Z</time></trkpt><trkpt lat="43.48382247386987" lon="11.26533181538828"><ele>592.0</ele><time>2026-04-26T15:54:51Z</time></trkpt><trkpt lat="43.48393187313458" lon="11.265241473834186"><ele>591.5</ele><time>2026-04-26T15:54:52Z</time></trkpt><trkpt lat="43.48404244761995" lon="11.26514688532568"><ele>591.0</ele><time>2026-04-26T15:54:53Z</time></trkpt><trkpt lat="43.4841513654381" lon="11.26504927085248"><ele>591.0</ele><time>2026-04-26T15:54:54Z</time></trkpt><trkpt lat="43.48425144385788" lon="11.264941470158076"><ele>591.0</ele><time>2026-04-26T15:54:55Z</time></trkpt><trkpt lat="43.484347661333786" lon="11.264828547035055"><ele>591.0</ele><time>2026-04-26T15:54:56Z</time></trkpt><trkpt lat="43.48443836083424" lon="11.264712523086441"><ele>591.0</ele><time>2026-04-26T15:54:57Z</time></trkpt><trkpt lat="43.48452552053943" lon="11.264588416132328"><ele>592.0</ele><time>2026-04-26T15:54:58Z</time></trkpt><trkpt lat="43.484612729186416" lon="11.264464466815829"><ele>593.0</ele><time>2026-04-26T15:54:59Z</time></trkpt><trkpt lat="43.484702143568114" lon="11.264342273374034"><ele>594.0</ele><time>2026-04-26T15:55:00Z</time></trkpt><trkpt lat="43.48479669913584" lon="11.264221217101136"><ele>595.0</ele><time>2026-04-26T15:55:01Z</time></trkpt><trkpt lat="43.484899653484796" lon="11.264107639826996"><ele>595.0</ele><time>2026-04-26T15:55:02Z</time></trkpt><trkpt lat="43.48500759744746" lon="11.264001249257925"><ele>595.0</ele><time>2026-04-26T15:55:03Z</time></trkpt><trkpt lat="43.48512981054244" lon="11.263912222959995"><ele>595.0</ele><time>2026-04-26T15:55:04Z</time></trkpt><trkpt lat="43.48525046593654" lon="11.263839423813298"><ele>595.0</ele><time>2026-04-26T15:55:05Z</time></trkpt><trkpt lat="43.48537493306201" lon="11.263780577865179"><ele>595.75</ele><time>2026-04-26T15:55:06Z</time></trkpt><trkpt lat="43.48550105855667" lon="11.263735399179241"><ele>596.5</ele><time>2026-04-26T15:55:07Z</time></trkpt><trkpt lat="43.48562765820349" lon="11.263696083561928"><ele>597.25</ele><time>2026-04-26T15:55:08Z</time></trkpt><trkpt lat="43.485750755434786" lon="11.263651662313434"><ele>598.0</ele><time>2026-04-26T15:55:09Z</time></trkpt><trkpt lat="43.48586947882733" lon="11.263611245592783"><ele>598.0</ele><time>2026-04-26T15:55:10Z</time></trkpt><trkpt lat="43.485986446543215" lon="11.263563495403702"><ele>598.0</ele><time>2026-04-26T15:55:11Z</time></trkpt><trkpt lat="43.486102615326445" lon="11.263511428294018"><ele>598.0</ele><time>2026-04-26T15:55:12Z</time></trkpt><trkpt lat="43.48621594799328" lon="11.263455921379016"><ele>598.0</ele><time>2026-04-26T15:55:13Z</time></trkpt><trkpt lat="43.48632897811308" lon="11.263396284296432"><ele>598.25</ele><time>2026-04-26T15:55:14Z</time></trkpt><trkpt lat="43.4864451981069" lon="11.263331256916045"><ele>598.5</ele><time>2026-04-26T15:55:15Z</time></trkpt><trkpt lat="43.48656426607659" lon="11.263268541242557"><ele>598.75</ele><time>2026-04-26T15:55:16Z</time></trkpt><trkpt lat="43.486689368164505" lon="11.263200393735499"><ele>599.0</ele><time>2026-04-26T15:55:17Z</time></trkpt><trkpt lat="43.48681112752336" lon="11.26311968091871"><ele>597.75</ele><time>2026-04-26T15:55:18Z</time></trkpt><trkpt lat="43.486933868035734" lon="11.263033969651222"><ele>596.5</ele><time>2026-04-26T15:55:19Z</time></trkpt><trkpt lat="43.487050652065726" lon="11.262932266629468"><ele>595.25</ele><time>2026-04-26T15:55:20Z</time></trkpt><trkpt lat="43.48716525783933" lon="11.262822794148967"><ele>594.0</ele><time>2026-04-26T15:55:21Z</time></trkpt><trkpt lat="43.48726893729812" lon="11.262692816747302"><ele>594.0</ele><time>2026-04-26T15:55:22Z</time></trkpt><trkpt lat="43.48736459364685" lon="11.26254879849649"><ele>594.0</ele><time>2026-04-26T15:55:23Z</time></trkpt><trkpt lat="43.487452818357276" lon="11.262390187904906"><ele>594.0</ele><time>2026-04-26T15:55:24Z</time></trkpt><trkpt lat="43.48753963134176" lon="11.262227951550223"><ele>594.0</ele><time>2026-04-26T15:55:25Z</time></trkpt><trkpt lat="43.48762720023401" lon="11.262059777395404"><ele>594.25</ele><time>2026-04-26T15:55:26Z</time></trkpt><trkpt lat="43.48772546930422" lon="11.261906937053539"><ele>594.5</ele><time>2026-04-26T15:55:27Z</time></trkpt><trkpt lat="43.48783946433765" lon="11.261788907015807"><ele>594.75</ele><time>2026-04-26T15:55:28Z</time></trkpt><trkpt lat="43.4879740702457" lon="11.26169981145346"><ele>595.0</ele><time>2026-04-26T15:55:29Z</time></trkpt><trkpt lat="43.488114869245535" lon="11.261635572373747"><ele>595.5</ele><time>2026-04-26T15:55:30Z</time></trkpt><trkpt lat="43.48825405271643" lon="11.261569649645693"><ele>596.0</ele><time>2026-04-26T15:55:31Z</time></trkpt><trkpt lat="43.48837974166979" lon="11.261487378015214"><ele>596.5</ele><time>2026-04-26T15:55:32Z</time></trkpt><trkpt lat="43.48849397559959" lon="11.261397441026155"><ele>597.0</ele><time>2026-04-26T15:55:33Z</time></trkpt><trkpt lat="43.48860927487361" lon="11.261301417493078"><ele>596.5</ele><time>2026-04-26T15:55:34Z</time></trkpt><trkpt lat="43.488722767237874" lon="11.26121578392045"><ele>596.0</ele><time>2026-04-26T15:55:35Z</time></trkpt><trkpt lat="43.48883973248714" lon="11.261130009316835"><ele>595.5</ele><time>2026-04-26T15:55:36Z</time></trkpt><trkpt lat="43.48895197667343" lon="11.261026046766704"><ele>595.0</ele><time>2026-04-26T15:55:37Z</time></trkpt><trkpt lat="43.48906716146375" lon="11.260929663779542"><ele>595.0</ele><time>2026-04-26T15:55:38Z</time></trkpt><trkpt lat="43.48919039802242" lon="11.260848988878836"><ele>595.0</ele><time>2026-04-26T15:55:39Z</time></trkpt><trkpt lat="43.48932216255208" lon="11.260787852308571"><ele>595.0</ele><time>2026-04-26T15:55:40Z</time></trkpt><trkpt lat="43.489461406149374" lon="11.260746061991547"><ele>595.0</ele><time>2026-04-26T15:55:41Z</time></trkpt><trkpt lat="43.48960688042289" lon="11.260730531348342"><ele>595.25</ele><time>2026-04-26T15:55:42Z</time></trkpt><trkpt lat="43.48974969710202" lon="11.26071865906657"><ele>595.5</ele><time>2026-04-26T15:55:43Z</time></trkpt><trkpt lat="43.48988587676481" lon="11.260672447319193"><ele>595.75</ele><time>2026-04-26T15:55:44Z</time></trkpt><trkpt lat="43.49001658935986" lon="11.260585594357705"><ele>596.0</ele><time>2026-04-26T15:55:45Z</time></trkpt><trkpt lat="43.49012533565342" lon="11.260463424782412"><ele>594.5</ele><time>2026-04-26T15:55:46Z</time></trkpt><trkpt lat="43.49020604958551" lon="11.260315252041845"><ele>593.0</ele><time>2026-04-26T15:55:47Z</time></trkpt><trkpt lat="43.49026235314864" lon="11.26015422565351"><ele>591.5</ele><time>2026-04-26T15:55:48Z</time></trkpt><trkpt lat="43.490306072993405" lon="11.259992208231896"><ele>590.0</ele><time>2026-04-26T15:55:49Z</time></trkpt><trkpt lat="43.4903567234443" lon="11.259844841557593"><ele>592.0</ele><time>2026-04-26T15:55:50Z</time></trkpt><trkpt lat="43.490426097313275" lon="11.259718267116329"><ele>594.0</ele><time>2026-04-26T15:55:51Z</time></trkpt><trkpt lat="43.49051020978255" lon="11.259602212487023"><ele>596.0</ele><time>2026-04-26T15:55:52Z</time></trkpt><trkpt lat="43.49061026197731" lon="11.259510435414686"><ele>598.0</ele><time>2026-04-26T15:55:53Z</time></trkpt><trkpt lat="43.49072368453938" lon="11.25943259264505"><ele>598.0</ele><time>2026-04-26T15:55:54Z</time></trkpt><trkpt lat="43.49084804498192" lon="11.25937220614647"><ele>598.0</ele><time>2026-04-26T15:55:55Z</time></trkpt><trkpt lat="43.49097851163433" lon="11.25929259626373"><ele>598.0</ele><time>2026-04-26T15:55:56Z</time></trkpt><trkpt lat="43.49110343894746" lon="11.259217799939096"><ele>598.0</ele><time>2026-04-26T15:55:57Z</time></trkpt><trkpt lat="43.4912309939636" lon="11.259138529816683"><ele>596.25</ele><time>2026-04-26T15:55:58Z</time></trkpt><trkpt lat="43.491356862923155" lon="11.259058118192419"><ele>594.5</ele><time>2026-04-26T15:55:59Z</time></trkpt><trkpt lat="43.49147803357289" lon="11.258975059217683"><ele>592.75</ele><time>2026-04-26T15:56:00Z</time></trkpt><trkpt lat="43.49159221027091" lon="11.258885607454681"><ele>591.0</ele><time>2026-04-26T15:56:01Z</time></trkpt><trkpt lat="43.49170315912359" lon="11.258784729792252"><ele>589.5</ele><time>2026-04-26T15:56:02Z</time></trkpt><trkpt lat="43.491810062611094" lon="11.258679219853255"><ele>588.0</ele><time>2026-04-26T15:56:03Z</time></trkpt><trkpt lat="43.49190264501119" lon="11.258567994393488"><ele>586.5</ele><time>2026-04-26T15:56:04Z</time></trkpt><trkpt lat="43.491978864188816" lon="11.258448370979243"><ele>585.0</ele><time>2026-04-26T15:56:05Z</time></trkpt><trkpt lat="43.49205173727416" lon="11.258326156168376"><ele>585.8</ele><time>2026-04-26T15:56:06Z</time></trkpt><trkpt lat="43.49212506045642" lon="11.258208057078054"><ele>586.6</ele><time>2026-04-26T15:56:07Z</time></trkpt><trkpt lat="43.49219468425393" lon="11.258094435653408"><ele>587.4</ele><time>2026-04-26T15:56:08Z</time></trkpt><trkpt lat="43.49225977387589" lon="11.257994690032398"><ele>588.2</ele><time>2026-04-26T15:56:09Z</time></trkpt><trkpt lat="43.49231529198041" lon="11.2579133136379"><ele>589.0</ele><time>2026-04-26T15:56:10Z</time></trkpt><trkpt lat="43.49236957238733" lon="11.257852557822893"><ele>589.0</ele><time>2026-04-26T15:56:11Z</time></trkpt><trkpt lat="43.492474994323935" lon="11.257766524729915"><ele>589.0</ele><time>2026-04-26T15:56:13Z</time></trkpt><trkpt lat="43.49253608208433" lon="11.257724245922"><ele>589.0</ele><time>2026-04-26T15:56:14Z</time></trkpt><trkpt lat="43.492601339183324" lon="11.257683657098278"><ele>589.0</ele><time>2026-04-26T15:56:15Z</time></trkpt><trkpt lat="43.49267079405885" lon="11.257647703443991"><ele>589.0</ele><time>2026-04-26T15:56:16Z</time></trkpt><trkpt lat="43.49273907619121" lon="11.257603499144391"><ele>589.0</ele><time>2026-04-26T15:56:17Z</time></trkpt><trkpt lat="43.49279662294883" lon="11.257551754152823"><ele>589.0</ele><time>2026-04-26T15:56:18Z</time></trkpt><trkpt lat="43.49284776431827" lon="11.257484523503443"><ele>589.0</ele><time>2026-04-26T15:56:19Z</time></trkpt><trkpt lat="43.492895745745855" lon="11.257414731957631"><ele>589.0</ele><time>2026-04-26T15:56:20Z</time></trkpt><trkpt lat="43.49294350991507" lon="11.257344768113748"><ele>589.0</ele><time>2026-04-26T15:56:21Z</time></trkpt><trkpt lat="43.49298270542165" lon="11.257258425448967"><ele>589.0</ele><time>2026-04-26T15:56:22Z</time></trkpt><trkpt lat="43.49301868625449" lon="11.257166462039159"><ele>589.0</ele><time>2026-04-26T15:56:23Z</time></trkpt><trkpt lat="43.49305145969736" lon="11.257066958020696"><ele>589.0</ele><time>2026-04-26T15:56:24Z</time></trkpt><trkpt lat="43.49307125298964" lon="11.256951789719476"><ele>588.8333333333334</ele><time>2026-04-26T15:56:25Z</time></trkpt><trkpt lat="43.493088638853145" lon="11.25684726316077"><ele>588.6666666666667</ele><time>2026-04-26T15:56:26Z</time></trkpt><trkpt lat="43.49310154705872" lon="11.256737595042733"><ele>588.5</ele><time>2026-04-26T15:56:27Z</time></trkpt><trkpt lat="43.49311525585837" lon="11.256633805671463"><ele>588.3333333333334</ele><time>2026-04-26T15:56:28Z</time></trkpt><trkpt lat="43.493133601578556" lon="11.256529314534154"><ele>588.1666666666666</ele><time>2026-04-26T15:56:29Z</time></trkpt><trkpt lat="43.49315055216075" lon="11.256418552030294"><ele>588.0</ele><time>2026-04-26T15:56:30Z</time></trkpt><trkpt lat="43.4931687390969" lon="11.256304907768182"><ele>587.3333333333334</ele><time>2026-04-26T15:56:31Z</time></trkpt><trkpt lat="43.4931891081993" lon="11.256195390357023"><ele>586.6666666666666</ele><time>2026-04-26T15:56:32Z</time></trkpt><trkpt lat="43.49321635013757" lon="11.256089255206305"><ele>586.0</ele><time>2026-04-26T15:56:33Z</time></trkpt><trkpt lat="43.49325609946885" lon="11.25598634818184"><ele>585.3333333333333</ele><time>2026-04-26T15:56:34Z</time></trkpt><trkpt lat="43.49330710785862" lon="11.25588848622905"><ele>584.6666666666666</ele><time>2026-04-26T15:56:35Z</time></trkpt><trkpt lat="43.49336948462851" lon="11.255791711425676"><ele>584.0</ele><time>2026-04-26T15:56:36Z</time></trkpt><trkpt lat="43.49344381131058" lon="11.255729862928703"><ele>584.0</ele><time>2026-04-26T15:56:37Z</time></trkpt><trkpt lat="43.493513599077296" lon="11.255696598916723"><ele>584.0</ele><time>2026-04-26T15:56:38Z</time></trkpt><trkpt lat="43.493602403945474" lon="11.2556976709976"><ele>584.0</ele><time>2026-04-26T15:56:39Z</time></trkpt><trkpt lat="43.49369882813856" lon="11.25572534874552"><ele>584.0</ele><time>2026-04-26T15:56:40Z</time></trkpt><trkpt lat="43.49379314315749" lon="11.25576835988243"><ele>584.0</ele><time>2026-04-26T15:56:41Z</time></trkpt><trkpt lat="43.49388591282671" lon="11.255807631811939"><ele>584.0</ele><time>2026-04-26T15:56:42Z</time></trkpt><trkpt lat="43.49398150142639" lon="11.255848597565102"><ele>584.0</ele><time>2026-04-26T15:56:43Z</time></trkpt><trkpt lat="43.494084009620025" lon="11.255857581752892"><ele>584.0</ele><time>2026-04-26T15:56:44Z</time></trkpt><trkpt lat="43.49418290321366" lon="11.255807038979915"><ele>584.0</ele><time>2026-04-26T15:56:45Z</time></trkpt><trkpt lat="43.49427245068109" lon="11.255767487310258"><ele>584.0</ele><time>2026-04-26T15:56:46Z</time></trkpt><trkpt lat="43.49435152121699" lon="11.255677773792213"><ele>583.0</ele><time>2026-04-26T15:56:47Z</time></trkpt><trkpt lat="43.494416559933704" lon="11.25557389734159"><ele>582.0</ele><time>2026-04-26T15:56:48Z</time></trkpt><trkpt lat="43.49445843286099" lon="11.255441183404654"><ele>581.0</ele><time>2026-04-26T15:56:49Z</time></trkpt><trkpt lat="43.4944974274293" lon="11.25532431600498"><ele>580.0</ele><time>2026-04-26T15:56:50Z</time></trkpt><trkpt lat="43.49454087576871" lon="11.255209420961567"><ele>579.0</ele><time>2026-04-26T15:56:51Z</time></trkpt><trkpt lat="43.49458964554637" lon="11.255088708449897"><ele>579.0</ele><time>2026-04-26T15:56:52Z</time></trkpt><trkpt lat="43.494620439803235" lon="11.254959326968313"><ele>579.0</ele><time>2026-04-26T15:56:53Z</time></trkpt><trkpt lat="43.49464991974992" lon="11.254835874151048"><ele>579.0</ele><time>2026-04-26T15:56:54Z</time></trkpt><trkpt lat="43.49466579264931" lon="11.254714413068251"><ele>579.0</ele><time>2026-04-26T15:56:55Z</time></trkpt><trkpt lat="43.494679423736486" lon="11.25458267246918"><ele>579.0</ele><time>2026-04-26T15:56:56Z</time></trkpt><trkpt lat="43.4946838412008" lon="11.254460891623378"><ele>578.8</ele><time>2026-04-26T15:56:57Z</time></trkpt><trkpt lat="43.4946762729859" lon="11.25433721275567"><ele>578.5999999999999</ele><time>2026-04-26T15:56:58Z</time></trkpt><trkpt lat="43.49467424934271" lon="11.25420994853877"><ele>578.4</ele><time>2026-04-26T15:56:59Z</time></trkpt><trkpt lat="43.49467568606673" lon="11.25407864015512"><ele>578.1999999999999</ele><time>2026-04-26T15:57:00Z</time></trkpt><trkpt lat="43.494681246468055" lon="11.253952932386188"><ele>578.0</ele><time>2026-04-26T15:57:01Z</time></trkpt><trkpt lat="43.494687357208726" lon="11.253835878207438"><ele>577.0</ele><time>2026-04-26T15:57:02Z</time></trkpt><trkpt lat="43.49470084133618" lon="11.253716220745469"><ele>576.0</ele><time>2026-04-26T15:57:03Z</time></trkpt><trkpt lat="43.494716052900266" lon="11.253593066290476"><ele>575.0</ele><time>2026-04-26T15:57:04Z</time></trkpt><trkpt lat="43.49473355729281" lon="11.25346510674472"><ele>574.0</ele><time>2026-04-26T15:57:05Z</time></trkpt><trkpt lat="43.49475965199986" lon="11.253341309556836"><ele>573.0</ele><time>2026-04-26T15:57:06Z</time></trkpt><trkpt lat="43.49479649754106" lon="11.253230430541583"><ele>573.0</ele><time>2026-04-26T15:57:07Z</time></trkpt><trkpt lat="43.49484914977552" lon="11.253132951180977"><ele>573.0</ele><time>2026-04-26T15:57:08Z</time></trkpt><trkpt lat="43.49491146040095" lon="11.25304934042452"><ele>573.0</ele><time>2026-04-26T15:57:09Z</time></trkpt><trkpt lat="43.49498268007961" lon="11.252966358865104"><ele>573.0</ele><time>2026-04-26T15:57:10Z</time></trkpt><trkpt lat="43.49505386110902" lon="11.252885221190157"><ele>573.0</ele><time>2026-04-26T15:57:11Z</time></trkpt><trkpt lat="43.49511521330568" lon="11.252787170127842"><ele>571.8333333333334</ele><time>2026-04-26T15:57:12Z</time></trkpt><trkpt lat="43.49517344174789" lon="11.252683798076747"><ele>570.6666666666666</ele><time>2026-04-26T15:57:13Z</time></trkpt><trkpt lat="43.495218160298506" lon="11.252591480850208"><ele>569.5</ele><time>2026-04-26T15:57:14Z</time></trkpt><trkpt lat="43.495259683375146" lon="11.252501473369495"><ele>568.3333333333333</ele><time>2026-04-26T15:57:15Z</time></trkpt><trkpt lat="43.4952895884061" lon="11.252414928206495"><ele>567.1666666666666</ele><time>2026-04-26T15:57:16Z</time></trkpt><trkpt lat="43.4953196656046" lon="11.252310297459104"><ele>566.0</ele><time>2026-04-26T15:57:17Z</time></trkpt><trkpt lat="43.49534785288947" lon="11.252211955755177"><ele>565.5714285714286</ele><time>2026-04-26T15:57:18Z</time></trkpt><trkpt lat="43.49537359334021" lon="11.252103366102132"><ele>565.1428571428572</ele><time>2026-04-26T15:57:19Z</time></trkpt><trkpt lat="43.495385600446575" lon="11.252000822444185"><ele>564.7142857142858</ele><time>2026-04-26T15:57:20Z</time></trkpt><trkpt lat="43.49540563095809" lon="11.25189607484536"><ele>564.2857142857143</ele><time>2026-04-26T15:57:21Z</time></trkpt><trkpt lat="43.49542223111302" lon="11.251805146212204"><ele>563.8571428571429</ele><time>2026-04-26T15:57:22Z</time></trkpt><trkpt lat="43.4954310352915" lon="11.251711249074335"><ele>563.4285714285714</ele><time>2026-04-26T15:57:23Z</time></trkpt><trkpt lat="43.49544376495929" lon="11.251617097483095"><ele>563.0</ele><time>2026-04-26T15:57:24Z</time></trkpt><trkpt lat="43.495460599408524" lon="11.251523255955126"><ele>563.1666666666666</ele><time>2026-04-26T15:57:25Z</time></trkpt><trkpt lat="43.495488648714165" lon="11.251433650243262"><ele>563.3333333333333</ele><time>2026-04-26T15:57:26Z</time></trkpt><trkpt lat="43.49552589134808" lon="11.25135725787375"><ele>563.5</ele><time>2026-04-26T15:57:27Z</time></trkpt><trkpt lat="43.495552614330784" lon="11.251262746487752"><ele>563.6666666666666</ele><time>2026-04-26T15:57:28Z</time></trkpt><trkpt lat="43.495588992277256" lon="11.251169216138699"><ele>563.8333333333334</ele><time>2026-04-26T15:57:29Z</time></trkpt><trkpt lat="43.49563727523587" lon="11.251073823236874"><ele>564.0</ele><time>2026-04-26T15:57:30Z</time></trkpt><trkpt lat="43.49568807178609" lon="11.250978727080211"><ele>564.0</ele><time>2026-04-26T15:57:31Z</time></trkpt><trkpt lat="43.49574393032753" lon="11.25087578094351"><ele>564.0</ele><time>2026-04-26T15:57:32Z</time></trkpt><trkpt lat="43.49579126251717" lon="11.25079010442749"><ele>564.0</ele><time>2026-04-26T15:57:33Z</time></trkpt><trkpt lat="43.4958363331893" lon="11.250713811343344"><ele>564.0</ele><time>2026-04-26T15:57:34Z</time></trkpt><trkpt lat="43.49591667530769" lon="11.250605388774417"><ele>564.0</ele><time>2026-04-26T15:57:36Z</time></trkpt><trkpt lat="43.49600644922777" lon="11.250539245364495"><ele>564.0</ele><time>2026-04-26T15:57:38Z</time></trkpt><trkpt lat="43.49611571806803" lon="11.250491842735077"><ele>564.0</ele><time>2026-04-26T15:57:40Z</time></trkpt><trkpt lat="43.49622439823269" lon="11.250496819962875"><ele>564.0</ele><time>2026-04-26T15:57:42Z</time></trkpt><trkpt lat="43.49634609247296" lon="11.250542237041783"><ele>564.0</ele><time>2026-04-26T15:57:44Z</time></trkpt><trkpt lat="43.49641036020362" lon="11.250579983110477"><ele>564.0</ele><time>2026-04-26T15:57:45Z</time></trkpt><trkpt lat="43.49647679706386" lon="11.250631953526225"><ele>563.8333333333334</ele><time>2026-04-26T15:57:46Z</time></trkpt><trkpt lat="43.49654885838764" lon="11.250684871817034"><ele>563.6666666666666</ele><time>2026-04-26T15:57:47Z</time></trkpt><trkpt lat="43.49662425571883" lon="11.250735952602827"><ele>563.5</ele><time>2026-04-26T15:57:48Z</time></trkpt><trkpt lat="43.49670186037506" lon="11.250780683899173"><ele>563.3333333333333</ele><time>2026-04-26T15:57:49Z</time></trkpt><trkpt lat="43.49678514529835" lon="11.250833725175049"><ele>563.1666666666666</ele><time>2026-04-26T15:57:50Z</time></trkpt><trkpt lat="43.49686940976745" lon="11.250878740845675"><ele>563.0</ele><time>2026-04-26T15:57:51Z</time></trkpt><trkpt lat="43.49695289933695" lon="11.250922625638527"><ele>563.0</ele><time>2026-04-26T15:57:52Z</time></trkpt><trkpt lat="43.4970405585209" lon="11.250961038551578"><ele>563.0</ele><time>2026-04-26T15:57:53Z</time></trkpt><trkpt lat="43.49712977692583" lon="11.250988861771667"><ele>563.0</ele><time>2026-04-26T15:57:54Z</time></trkpt><trkpt lat="43.49722140981919" lon="11.251020359295563"><ele>563.0</ele><time>2026-04-26T15:57:55Z</time></trkpt><trkpt lat="43.49731216042396" lon="11.251041418589033"><ele>563.0</ele><time>2026-04-26T15:57:56Z</time></trkpt><trkpt lat="43.497407989932746" lon="11.251040443249508"><ele>563.6</ele><time>2026-04-26T15:57:57Z</time></trkpt><trkpt lat="43.497504911281155" lon="11.251022678282373"><ele>564.1999999999999</ele><time>2026-04-26T15:57:58Z</time></trkpt><trkpt lat="43.49759891297466" lon="11.250990293572713"><ele>564.8</ele><time>2026-04-26T15:57:59Z</time></trkpt><trkpt lat="43.49769554359154" lon="11.25094117440622"><ele>565.4</ele><time>2026-04-26T15:58:00Z</time></trkpt><trkpt lat="43.49777653904536" lon="11.250877569500313"><ele>566.0</ele><time>2026-04-26T15:58:01Z</time></trkpt><trkpt lat="43.49785246920682" lon="11.250798592169545"><ele>564.1666666666666</ele><time>2026-04-26T15:58:02Z</time></trkpt><trkpt lat="43.49792808603735" lon="11.250715435797765"><ele>562.3333333333333</ele><time>2026-04-26T15:58:03Z</time></trkpt><trkpt lat="43.4979933257761" lon="11.25063198008838"><ele>560.5</ele><time>2026-04-26T15:58:04Z</time></trkpt><trkpt lat="43.498048997646826" lon="11.25055769093848"><ele>558.6666666666666</ele><time>2026-04-26T15:58:05Z</time></trkpt><trkpt lat="43.49810369110798" lon="11.250490728271851"><ele>556.8333333333334</ele><time>2026-04-26T15:58:06Z</time></trkpt><trkpt lat="43.49815875230184" lon="11.25041839207992"><ele>555.0</ele><time>2026-04-26T15:58:07Z</time></trkpt><trkpt lat="43.49821853424968" lon="11.250348506664793"><ele>555.0</ele><time>2026-04-26T15:58:08Z</time></trkpt><trkpt lat="43.49828675411904" lon="11.250276292562543"><ele>555.0</ele><time>2026-04-26T15:58:09Z</time></trkpt><trkpt lat="43.4983701241859" lon="11.250205660887444"><ele>555.0</ele><time>2026-04-26T15:58:10Z</time></trkpt><trkpt lat="43.498467263461514" lon="11.250136481456751"><ele>555.0</ele><time>2026-04-26T15:58:11Z</time></trkpt><trkpt lat="43.49856570256919" lon="11.250079646044174"><ele>555.0</ele><time>2026-04-26T15:58:12Z</time></trkpt><trkpt lat="43.49867110027992" lon="11.250038746910185"><ele>554.25</ele><time>2026-04-26T15:58:13Z</time></trkpt><trkpt lat="43.49877536905684" lon="11.250003925484032"><ele>553.5</ele><time>2026-04-26T15:58:14Z</time></trkpt><trkpt lat="43.49888872601165" lon="11.249979126047126"><ele>552.75</ele><time>2026-04-26T15:58:15Z</time></trkpt><trkpt lat="43.49900584421701" lon="11.249974581473207"><ele>552.0</ele><time>2026-04-26T15:58:16Z</time></trkpt><trkpt lat="43.499117585517375" lon="11.24996064335723"><ele>552.0</ele><time>2026-04-26T15:58:17Z</time></trkpt><trkpt lat="43.49923136435205" lon="11.249956548833843"><ele>552.0</ele><time>2026-04-26T15:58:18Z</time></trkpt><trkpt lat="43.49934144475323" lon="11.249946765068007"><ele>552.0</ele><time>2026-04-26T15:58:19Z</time></trkpt><trkpt lat="43.49944882262242" lon="11.249931682225018"><ele>552.0</ele><time>2026-04-26T15:58:20Z</time></trkpt><trkpt lat="43.49955980379736" lon="11.249916300021281"><ele>552.0</ele><time>2026-04-26T15:58:21Z</time></trkpt><trkpt lat="43.49967282616959" lon="11.249900241442747"><ele>551.8000000000001</ele><time>2026-04-26T15:58:22Z</time></trkpt><trkpt lat="43.49978126991307" lon="11.249883104489832"><ele>551.6</ele><time>2026-04-26T15:58:23Z</time></trkpt><trkpt lat="43.49988566679856" lon="11.249860699942559"><ele>551.4000000000001</ele><time>2026-04-26T15:58:24Z</time></trkpt><trkpt lat="43.49999802018994" lon="11.24985995790663"><ele>551.2</ele><time>2026-04-26T15:58:25Z</time></trkpt><trkpt lat="43.50011213562406" lon="11.249847277622296"><ele>551.0</ele><time>2026-04-26T15:58:26Z</time></trkpt><trkpt lat="43.50022937351719" lon="11.249832924860618"><ele>551.0</ele><time>2026-04-26T15:58:27Z</time></trkpt><trkpt lat="43.50034201067139" lon="11.249813828064463"><ele>551.0</ele><time>2026-04-26T15:58:28Z</time></trkpt><trkpt lat="43.50045380096286" lon="11.249806723956949"><ele>551.0</ele><time>2026-04-26T15:58:29Z</time></trkpt><trkpt lat="43.50055604631289" lon="11.249792441334312"><ele>551.0</ele><time>2026-04-26T15:58:30Z</time></trkpt><trkpt lat="43.50066090696741" lon="11.24978339323256"><ele>551.0</ele><time>2026-04-26T15:58:31Z</time></trkpt><trkpt lat="43.500769459509826" lon="11.249768203760762"><ele>553.0</ele><time>2026-04-26T15:58:32Z</time></trkpt><trkpt lat="43.50087928838294" lon="11.249764345559313"><ele>555.0</ele><time>2026-04-26T15:58:33Z</time></trkpt><trkpt lat="43.5009890624151" lon="11.249745024417527"><ele>557.0</ele><time>2026-04-26T15:58:34Z</time></trkpt><trkpt lat="43.501119610685365" lon="11.249738184536573"><ele>559.0</ele><time>2026-04-26T15:58:35Z</time></trkpt><trkpt lat="43.501224699719174" lon="11.249731725837695"><ele>557.0</ele><time>2026-04-26T15:58:36Z</time></trkpt><trkpt lat="43.50133428090781" lon="11.24972721669872"><ele>555.0</ele><time>2026-04-26T15:58:37Z</time></trkpt><trkpt lat="43.50144754271874" lon="11.249724835342668"><ele>553.0</ele><time>2026-04-26T15:58:38Z</time></trkpt><trkpt lat="43.50156604409677" lon="11.249717771992284"><ele>551.0</ele><time>2026-04-26T15:58:39Z</time></trkpt><trkpt lat="43.501675434275526" lon="11.249716777287247"><ele>551.0</ele><time>2026-04-26T15:58:40Z</time></trkpt><trkpt lat="43.50177769364532" lon="11.24970966401527"><ele>551.0</ele><time>2026-04-26T15:58:41Z</time></trkpt><trkpt lat="43.50187157265428" lon="11.249685646240954"><ele>551.0</ele><time>2026-04-26T15:58:42Z</time></trkpt><trkpt lat="43.50196022890769" lon="11.249635995635257"><ele>551.0</ele><time>2026-04-26T15:58:43Z</time></trkpt><trkpt lat="43.50204378978751" lon="11.24956584359888"><ele>551.0</ele><time>2026-04-26T15:58:44Z</time></trkpt><trkpt lat="43.50211554840022" lon="11.249467890565723"><ele>547.6</ele><time>2026-04-26T15:58:45Z</time></trkpt><trkpt lat="43.50216804686256" lon="11.249348946228578"><ele>544.2</ele><time>2026-04-26T15:58:46Z</time></trkpt><trkpt lat="43.50219780741584" lon="11.249211943844907"><ele>540.8</ele><time>2026-04-26T15:58:47Z</time></trkpt><trkpt lat="43.50221449252781" lon="11.249065908765894"><ele>537.4</ele><time>2026-04-26T15:58:48Z</time></trkpt><trkpt lat="43.5022147285817" lon="11.248912810873609"><ele>534.0</ele><time>2026-04-26T15:58:49Z</time></trkpt><trkpt lat="43.502207429496494" lon="11.248750049922823"><ele>532.75</ele><time>2026-04-26T15:58:50Z</time></trkpt><trkpt lat="43.50220358603159" lon="11.248585847289624"><ele>531.5</ele><time>2026-04-26T15:58:51Z</time></trkpt><trkpt lat="43.502208011279315" lon="11.24842178484328"><ele>530.25</ele><time>2026-04-26T15:58:52Z</time></trkpt><trkpt lat="43.50222250748864" lon="11.248256810557937"><ele>529.0</ele><time>2026-04-26T15:58:53Z</time></trkpt><trkpt lat="43.50226484016256" lon="11.248106087627256"><ele>528.75</ele><time>2026-04-26T15:58:54Z</time></trkpt><trkpt lat="43.50229765505083" lon="11.24793186280789"><ele>528.5</ele><time>2026-04-26T15:58:55Z</time></trkpt><trkpt lat="43.50233319944811" lon="11.247766275767406"><ele>528.25</ele><time>2026-04-26T15:58:56Z</time></trkpt><trkpt lat="43.50239574428962" lon="11.247622607147102"><ele>528.0</ele><time>2026-04-26T15:58:57Z</time></trkpt><trkpt lat="43.502421057401904" lon="11.247450716391247"><ele>527.0</ele><time>2026-04-26T15:58:58Z</time></trkpt><trkpt lat="43.502450900151885" lon="11.247277830271248"><ele>526.0</ele><time>2026-04-26T15:58:59Z</time></trkpt><trkpt lat="43.502478345308035" lon="11.247119870089785"><ele>525.0</ele><time>2026-04-26T15:59:00Z</time></trkpt><trkpt lat="43.50250727998032" lon="11.246978699529368"><ele>524.0</ele><time>2026-04-26T15:59:01Z</time></trkpt><trkpt lat="43.502537514116135" lon="11.246834900979415"><ele>524.0</ele><time>2026-04-26T15:59:02Z</time></trkpt><trkpt lat="43.50257897750964" lon="11.246711119454176"><ele>524.0</ele><time>2026-04-26T15:59:03Z</time></trkpt><trkpt lat="43.502622940850465" lon="11.246584024499366"><ele>524.0</ele><time>2026-04-26T15:59:04Z</time></trkpt><trkpt lat="43.502670011329094" lon="11.246481772220521"><ele>524.0</ele><time>2026-04-26T15:59:05Z</time></trkpt><trkpt lat="43.50271955519525" lon="11.246396783376339"><ele>524.0</ele><time>2026-04-26T15:59:06Z</time></trkpt><trkpt lat="43.50276391700361" lon="11.246299917997707"><ele>523.5</ele><time>2026-04-26T15:59:07Z</time></trkpt><trkpt lat="43.502829561304075" lon="11.246199735706112"><ele>523.0</ele><time>2026-04-26T15:59:08Z</time></trkpt><trkpt lat="43.50291135023185" lon="11.246096089963693"><ele>522.5</ele><time>2026-04-26T15:59:09Z</time></trkpt><trkpt lat="43.50300499156152" lon="11.246004329160847"><ele>522.0</ele><time>2026-04-26T15:59:10Z</time></trkpt><trkpt lat="43.50310355081585" lon="11.245893187375323"><ele>523.5</ele><time>2026-04-26T15:59:11Z</time></trkpt><trkpt lat="43.50319955922952" lon="11.245786756556145"><ele>525.0</ele><time>2026-04-26T15:59:12Z</time></trkpt><trkpt lat="43.503295615301035" lon="11.245690995314295"><ele>526.5</ele><time>2026-04-26T15:59:13Z</time></trkpt><trkpt lat="43.50338863085319" lon="11.245577565376278"><ele>528.0</ele><time>2026-04-26T15:59:14Z</time></trkpt><trkpt lat="43.50347015888976" lon="11.245446945649498"><ele>528.75</ele><time>2026-04-26T15:59:15Z</time></trkpt><trkpt lat="43.503557604351464" lon="11.245314651930709"><ele>529.5</ele><time>2026-04-26T15:59:16Z</time></trkpt><trkpt lat="43.50363135795013" lon="11.245171075469548"><ele>530.25</ele><time>2026-04-26T15:59:17Z</time></trkpt><trkpt lat="43.50370765221341" lon="11.245012234212489"><ele>531.0</ele><time>2026-04-26T15:59:18Z</time></trkpt><trkpt lat="43.503785885372615" lon="11.244859010410297"><ele>529.5</ele><time>2026-04-26T15:59:19Z</time></trkpt><trkpt lat="43.50387568615864" lon="11.2447055000249"><ele>528.0</ele><time>2026-04-26T15:59:20Z</time></trkpt><trkpt lat="43.503973808170926" lon="11.244572357001424"><ele>526.5</ele><time>2026-04-26T15:59:21Z</time></trkpt><trkpt lat="43.50407955529605" lon="11.244454035209094"><ele>525.0</ele><time>2026-04-26T15:59:22Z</time></trkpt><trkpt lat="43.50419044331469" lon="11.244348116835994"><ele>525.0</ele><time>2026-04-26T15:59:23Z</time></trkpt><trkpt lat="43.5043073316515" lon="11.244236520907572"><ele>525.0</ele><time>2026-04-26T15:59:24Z</time></trkpt><trkpt lat="43.50441670308651" lon="11.244117513056416"><ele>525.0</ele><time>2026-04-26T15:59:25Z</time></trkpt><trkpt lat="43.504522356216064" lon="11.243994002689735"><ele>525.0</ele><time>2026-04-26T15:59:26Z</time></trkpt><trkpt lat="43.50462951351615" lon="11.243864979404709"><ele>524.5</ele><time>2026-04-26T15:59:27Z</time></trkpt><trkpt lat="43.50473718505892" lon="11.2437484571461"><ele>524.0</ele><time>2026-04-26T15:59:28Z</time></trkpt><trkpt lat="43.5048494795121" lon="11.243652927004742"><ele>523.5</ele><time>2026-04-26T15:59:29Z</time></trkpt><trkpt lat="43.50496473881959" lon="11.2435573569242"><ele>523.0</ele><time>2026-04-26T15:59:30Z</time></trkpt><trkpt lat="43.50508900630206" lon="11.243482118651087"><ele>523.0</ele><time>2026-04-26T15:59:31Z</time></trkpt><trkpt lat="43.50521576924629" lon="11.243419827158913"><ele>523.0</ele><time>2026-04-26T15:59:32Z</time></trkpt><trkpt lat="43.5053587455205" lon="11.243389881322932"><ele>523.0</ele><time>2026-04-26T15:59:33Z</time></trkpt><trkpt lat="43.505501373941186" lon="11.24335867956073"><ele>523.0</ele><time>2026-04-26T15:59:34Z</time></trkpt><trkpt lat="43.50563481912898" lon="11.243329796209517"><ele>521.75</ele><time>2026-04-26T15:59:35Z</time></trkpt><trkpt lat="43.50577404783041" lon="11.243346506534694"><ele>520.5</ele><time>2026-04-26T15:59:36Z</time></trkpt><trkpt lat="43.50591763810844" lon="11.24339942024836"><ele>519.25</ele><time>2026-04-26T15:59:37Z</time></trkpt><trkpt lat="43.50606399090435" lon="11.243463944215147"><ele>518.0</ele><time>2026-04-26T15:59:38Z</time></trkpt><trkpt lat="43.5061834965823" lon="11.243537299457996"><ele>515.5</ele><time>2026-04-26T15:59:39Z</time></trkpt><trkpt lat="43.506311094128144" lon="11.24361221683497"><ele>513.0</ele><time>2026-04-26T15:59:40Z</time></trkpt><trkpt lat="43.50643649392987" lon="11.24366003563348"><ele>510.5</ele><time>2026-04-26T15:59:41Z</time></trkpt><trkpt lat="43.50656534212797" lon="11.24367298834892"><ele>508.0</ele><time>2026-04-26T15:59:42Z</time></trkpt><trkpt lat="43.50669661962485" lon="11.243639655207199"><ele>508.0</ele><time>2026-04-26T15:59:43Z</time></trkpt><trkpt lat="43.50682764711424" lon="11.24357334318796"><ele>508.0</ele><time>2026-04-26T15:59:44Z</time></trkpt><trkpt lat="43.506961409593785" lon="11.243469218549665"><ele>508.0</ele><time>2026-04-26T15:59:45Z</time></trkpt><trkpt lat="43.50708184197252" lon="11.243352279991361"><ele>508.0</ele><time>2026-04-26T15:59:46Z</time></trkpt><trkpt lat="43.507232632141495" lon="11.243294064634126"><ele>506.0</ele><time>2026-04-26T15:59:47Z</time></trkpt><trkpt lat="43.50737396913808" lon="11.243246092854976"><ele>504.0</ele><time>2026-04-26T15:59:48Z</time></trkpt><trkpt lat="43.50752154926244" lon="11.243235776157318"><ele>502.0</ele><time>2026-04-26T15:59:49Z</time></trkpt><trkpt lat="43.50767132304352" lon="11.243224167911013"><ele>500.0</ele><time>2026-04-26T15:59:50Z</time></trkpt><trkpt lat="43.507814268316295" lon="11.243228670671385"><ele>500.0</ele><time>2026-04-26T15:59:51Z</time></trkpt><trkpt lat="43.50795373746401" lon="11.243234710587094"><ele>500.0</ele><time>2026-04-26T15:59:52Z</time></trkpt><trkpt lat="43.50809093357279" lon="11.24323631523513"><ele>500.0</ele><time>2026-04-26T15:59:53Z</time></trkpt><trkpt lat="43.50822520890065" lon="11.243235955378083"><ele>500.0</ele><time>2026-04-26T15:59:54Z</time></trkpt><trkpt lat="43.50835698341862" lon="11.243223412996617"><ele>500.0</ele><time>2026-04-26T15:59:55Z</time></trkpt><trkpt lat="43.508480623968424" lon="11.2431924077448"><ele>500.0</ele><time>2026-04-26T15:59:56Z</time></trkpt><trkpt lat="43.50859265422081" lon="11.243130614649267"><ele>500.0</ele><time>2026-04-26T15:59:57Z</time></trkpt><trkpt lat="43.50869254249768" lon="11.243029514546517"><ele>500.0</ele><time>2026-04-26T15:59:58Z</time></trkpt><trkpt lat="43.508803881044265" lon="11.242944860233699"><ele>500.0</ele><time>2026-04-26T15:59:59Z</time></trkpt><trkpt lat="43.508898659693365" lon="11.242871677726397"><ele>500.0</ele><time>2026-04-26T16:00:00Z</time></trkpt><trkpt lat="43.508976174211355" lon="11.242832941761407"><ele>500.0</ele><time>2026-04-26T16:00:01Z</time></trkpt><trkpt lat="43.50905550817847" lon="11.24281841358947"><ele>500.0</ele><time>2026-04-26T16:00:02Z</time></trkpt><trkpt lat="43.509154089876304" lon="11.242851454130209"><ele>500.0</ele><time>2026-04-26T16:00:03Z</time></trkpt><trkpt lat="43.5092530554385" lon="11.242887778064414"><ele>500.0</ele><time>2026-04-26T16:00:04Z</time></trkpt><trkpt lat="43.509356329284046" lon="11.242933616858885"><ele>500.0</ele><time>2026-04-26T16:00:05Z</time></trkpt><trkpt lat="43.509466652535686" lon="11.242996029582049"><ele>500.0</ele><time>2026-04-26T16:00:06Z</time></trkpt><trkpt lat="43.50957445097384" lon="11.243071414890839"><ele>500.0</ele><time>2026-04-26T16:00:07Z</time></trkpt><trkpt lat="43.50966963791984" lon="11.243151344094779"><ele>498.0</ele><time>2026-04-26T16:00:08Z</time></trkpt><trkpt lat="43.5097476722004" lon="11.243240316145371"><ele>496.0</ele><time>2026-04-26T16:00:09Z</time></trkpt><trkpt lat="43.50981493204897" lon="11.243355480236076"><ele>494.0</ele><time>2026-04-26T16:00:10Z</time></trkpt><trkpt lat="43.50988343561316" lon="11.243494330049534"><ele>492.0</ele><time>2026-04-26T16:00:11Z</time></trkpt><trkpt lat="43.50994950530794" lon="11.243647545422334"><ele>492.0</ele><time>2026-04-26T16:00:12Z</time></trkpt><trkpt lat="43.510019699562015" lon="11.243794708960836"><ele>492.0</ele><time>2026-04-26T16:00:13Z</time></trkpt><trkpt lat="43.51010706172127" lon="11.243933955038155"><ele>492.0</ele><time>2026-04-26T16:00:14Z</time></trkpt><trkpt lat="43.51019942007732" lon="11.244060143079155"><ele>492.0</ele><time>2026-04-26T16:00:15Z</time></trkpt><trkpt lat="43.5103196179357" lon="11.244159006372493"><ele>490.5</ele><time>2026-04-26T16:00:16Z</time></trkpt><trkpt lat="43.51044585166878" lon="11.244240616632068"><ele>489.0</ele><time>2026-04-26T16:00:17Z</time></trkpt><trkpt lat="43.510582300857706" lon="11.244258959980227"><ele>487.5</ele><time>2026-04-26T16:00:18Z</time></trkpt><trkpt lat="43.51072124594499" lon="11.244292961698886"><ele>486.0</ele><time>2026-04-26T16:00:19Z</time></trkpt><trkpt lat="43.510864209227194" lon="11.244307431146844"><ele>486.0</ele><time>2026-04-26T16:00:20Z</time></trkpt><trkpt lat="43.51100621962866" lon="11.244300447496018"><ele>486.0</ele><time>2026-04-26T16:00:21Z</time></trkpt><trkpt lat="43.511145886315056" lon="11.244263461583447"><ele>486.0</ele><time>2026-04-26T16:00:22Z</time></trkpt><trkpt lat="43.51128321275707" lon="11.2442155530864"><ele>486.0</ele><time>2026-04-26T16:00:23Z</time></trkpt><trkpt lat="43.51142126067261" lon="11.244161044765528"><ele>485.33333333333337</ele><time>2026-04-26T16:00:24Z</time></trkpt><trkpt lat="43.51156207330493" lon="11.244107647828148"><ele>484.6666666666667</ele><time>2026-04-26T16:00:25Z</time></trkpt><trkpt lat="43.51170304053041" lon="11.244050631328998"><ele>484.0</ele><time>2026-04-26T16:00:26Z</time></trkpt><trkpt lat="43.51185365749115" lon="11.243989218482563"><ele>480.5</ele><time>2026-04-26T16:00:27Z</time></trkpt><trkpt lat="43.511994918995946" lon="11.243929290371224"><ele>477.0</ele><time>2026-04-26T16:00:28Z</time></trkpt><trkpt lat="43.51212924558557" lon="11.24387689543171"><ele>473.5</ele><time>2026-04-26T16:00:29Z</time></trkpt><trkpt lat="43.512255020479586" lon="11.243827750409714"><ele>470.0</ele><time>2026-04-26T16:00:30Z</time></trkpt><trkpt lat="43.51237939290587" lon="11.243790051081854"><ele>470.0</ele><time>2026-04-26T16:00:31Z</time></trkpt><trkpt lat="43.51249661281782" lon="11.24377154713254"><ele>470.0</ele><time>2026-04-26T16:00:32Z</time></trkpt><trkpt lat="43.51260818487989" lon="11.24378597886692"><ele>470.0</ele><time>2026-04-26T16:00:33Z</time></trkpt><trkpt lat="43.51271119724467" lon="11.243857463842652"><ele>470.0</ele><time>2026-04-26T16:00:34Z</time></trkpt><trkpt lat="43.51281194528351" lon="11.24397019407596"><ele>468.25</ele><time>2026-04-26T16:00:35Z</time></trkpt><trkpt lat="43.51291849818539" lon="11.244081787330199"><ele>466.5</ele><time>2026-04-26T16:00:36Z</time></trkpt><trkpt lat="43.51302724193616" lon="11.24422067429178"><ele>464.75</ele><time>2026-04-26T16:00:37Z</time></trkpt><trkpt lat="43.513154641800455" lon="11.244333207876302"><ele>463.0</ele><time>2026-04-26T16:00:38Z</time></trkpt><trkpt lat="43.51328800441196" lon="11.244450724713127"><ele>463.0</ele><time>2026-04-26T16:00:39Z</time></trkpt><trkpt lat="43.51341327516986" lon="11.244567129166258"><ele>463.0</ele><time>2026-04-26T16:00:40Z</time></trkpt><trkpt lat="43.51353809442729" lon="11.24466632225947"><ele>463.0</ele><time>2026-04-26T16:00:41Z</time></trkpt><trkpt lat="43.513665333686305" lon="11.244755740784594"><ele>463.0</ele><time>2026-04-26T16:00:42Z</time></trkpt><trkpt lat="43.5137743486344" lon="11.24486767619676"><ele>460.59999999999997</ele><time>2026-04-26T16:00:43Z</time></trkpt><trkpt lat="43.51385242338814" lon="11.244986122296819"><ele>458.19999999999993</ele><time>2026-04-26T16:00:44Z</time></trkpt><trkpt lat="43.513889100407305" lon="11.245111318784096"><ele>455.8</ele><time>2026-04-26T16:00:45Z</time></trkpt><trkpt lat="43.513886451888794" lon="11.245258096608216"><ele>453.4</ele><time>2026-04-26T16:00:46Z</time></trkpt><trkpt lat="43.513852609396245" lon="11.245423270625505"><ele>451.0</ele><time>2026-04-26T16:00:47Z</time></trkpt><trkpt lat="43.51380209697548" lon="11.245596480472061"><ele>450.0</ele><time>2026-04-26T16:00:48Z</time></trkpt><trkpt lat="43.51374055765043" lon="11.24575516578428"><ele>449.0</ele><time>2026-04-26T16:00:49Z</time></trkpt><trkpt lat="43.51372357178577" lon="11.245900972138532"><ele>448.0</ele><time>2026-04-26T16:00:50Z</time></trkpt><trkpt lat="43.51373833397564" lon="11.246055492993323"><ele>447.0</ele><time>2026-04-26T16:00:51Z</time></trkpt><trkpt lat="43.513791183329424" lon="11.246205626005931"><ele>447.0</ele><time>2026-04-26T16:00:52Z</time></trkpt><trkpt lat="43.513880123191335" lon="11.246339203346048"><ele>447.0</ele><time>2026-04-26T16:00:53Z</time></trkpt><trkpt lat="43.51399347921174" lon="11.246461587417667"><ele>447.0</ele><time>2026-04-26T16:00:54Z</time></trkpt><trkpt lat="43.514107789753766" lon="11.246581997617408"><ele>447.0</ele><time>2026-04-26T16:00:55Z</time></trkpt><trkpt lat="43.514226728316125" lon="11.24669670813794"><ele>447.5</ele><time>2026-04-26T16:00:56Z</time></trkpt><trkpt lat="43.5143443542393" lon="11.246791697279647"><ele>448.0</ele><time>2026-04-26T16:00:57Z</time></trkpt><trkpt lat="43.51446714126109" lon="11.24686512213164"><ele>448.5</ele><time>2026-04-26T16:00:58Z</time></trkpt><trkpt lat="43.514591217382176" lon="11.246916146565603"><ele>449.0</ele><time>2026-04-26T16:00:59Z</time></trkpt><trkpt lat="43.514720510967635" lon="11.246929134818966"><ele>445.25</ele><time>2026-04-26T16:01:00Z</time></trkpt><trkpt lat="43.51485704935444" lon="11.24691257811962"><ele>441.5</ele><time>2026-04-26T16:01:01Z</time></trkpt><trkpt lat="43.5149864618395" lon="11.246898601072465"><ele>437.75</ele><time>2026-04-26T16:01:02Z</time></trkpt><trkpt lat="43.51511528596581" lon="11.246902443035093"><ele>434.0</ele><time>2026-04-26T16:01:03Z</time></trkpt><trkpt lat="43.51524084180852" lon="11.246938193385407"><ele>434.0</ele><time>2026-04-26T16:01:04Z</time></trkpt><trkpt lat="43.515359887077764" lon="11.246992567896735"><ele>434.0</ele><time>2026-04-26T16:01:05Z</time></trkpt><trkpt lat="43.515476653783296" lon="11.24705435683439"><ele>434.0</ele><time>2026-04-26T16:01:06Z</time></trkpt><trkpt lat="43.51560192877466" lon="11.247115593739718"><ele>434.0</ele><time>2026-04-26T16:01:07Z</time></trkpt><trkpt lat="43.51573411497421" lon="11.247194419273052"><ele>432.0</ele><time>2026-04-26T16:01:08Z</time></trkpt><trkpt lat="43.51586590065985" lon="11.247269949774285"><ele>430.0</ele><time>2026-04-26T16:01:09Z</time></trkpt><trkpt lat="43.51599872444288" lon="11.24736263363447"><ele>428.0</ele><time>2026-04-26T16:01:10Z</time></trkpt><trkpt lat="43.51612344607242" lon="11.247469975958568"><ele>426.0</ele><time>2026-04-26T16:01:11Z</time></trkpt><trkpt lat="43.516234747054654" lon="11.247597983228566"><ele>424.0</ele><time>2026-04-26T16:01:12Z</time></trkpt><trkpt lat="43.516337123628816" lon="11.247728599253252"><ele>422.0</ele><time>2026-04-26T16:01:13Z</time></trkpt><trkpt lat="43.51644019744259" lon="11.247834308754973"><ele>420.0</ele><time>2026-04-26T16:01:14Z</time></trkpt><trkpt lat="43.5165452196392" lon="11.247912890723661"><ele>418.0</ele><time>2026-04-26T16:01:15Z</time></trkpt><trkpt lat="43.51665692910718" lon="11.247969129479216"><ele>418.0</ele><time>2026-04-26T16:01:16Z</time></trkpt><trkpt lat="43.51677637949458" lon="11.248004694831392"><ele>418.0</ele><time>2026-04-26T16:01:17Z</time></trkpt><trkpt lat="43.51689787574215" lon="11.248033728965941"><ele>418.0</ele><time>2026-04-26T16:01:18Z</time></trkpt><trkpt lat="43.5170060279805" lon="11.248066786515695"><ele>418.0</ele><time>2026-04-26T16:01:19Z</time></trkpt><trkpt lat="43.51713810872364" lon="11.248111823002809"><ele>418.25</ele><time>2026-04-26T16:01:20Z</time></trkpt><trkpt lat="43.51726615891883" lon="11.248146613246965"><ele>418.5</ele><time>2026-04-26T16:01:21Z</time></trkpt><trkpt lat="43.51739649200764" lon="11.248167069743658"><ele>418.75</ele><time>2026-04-26T16:01:22Z</time></trkpt><trkpt lat="43.517525549808354" lon="11.248169438921565"><ele>419.0</ele><time>2026-04-26T16:01:23Z</time></trkpt><trkpt lat="43.517652832306304" lon="11.248159676426143"><ele>419.0</ele><time>2026-04-26T16:01:24Z</time></trkpt><trkpt lat="43.51778115143559" lon="11.24813806847279"><ele>419.0</ele><time>2026-04-26T16:01:25Z</time></trkpt><trkpt lat="43.51790929474633" lon="11.248118535356825"><ele>419.0</ele><time>2026-04-26T16:01:26Z</time></trkpt><trkpt lat="43.518039500169635" lon="11.248089121763867"><ele>419.0</ele><time>2026-04-26T16:01:27Z</time></trkpt><trkpt lat="43.51816683496205" lon="11.24803988389335"><ele>417.5</ele><time>2026-04-26T16:01:28Z</time></trkpt><trkpt lat="43.51830066926371" lon="11.247979877620102"><ele>416.0</ele><time>2026-04-26T16:01:29Z</time></trkpt><trkpt lat="43.51843408915654" lon="11.24790803102041"><ele>414.5</ele><time>2026-04-26T16:01:30Z</time></trkpt><trkpt lat="43.51856106607499" lon="11.247822306527121"><ele>413.0</ele><time>2026-04-26T16:01:31Z</time></trkpt><trkpt lat="43.51868816841349" lon="11.247728974666254"><ele>414.0</ele><time>2026-04-26T16:01:32Z</time></trkpt><trkpt lat="43.51881752932258" lon="11.247628042046392"><ele>415.0</ele><time>2026-04-26T16:01:33Z</time></trkpt><trkpt lat="43.51893997722787" lon="11.24751891049016"><ele>416.0</ele><time>2026-04-26T16:01:34Z</time></trkpt><trkpt lat="43.51905966927774" lon="11.247403938375024"><ele>417.0</ele><time>2026-04-26T16:01:35Z</time></trkpt><trkpt lat="43.519176517339645" lon="11.247293023115859"><ele>417.75</ele><time>2026-04-26T16:01:36Z</time></trkpt><trkpt lat="43.51929451632749" lon="11.247172214817503"><ele>418.5</ele><time>2026-04-26T16:01:37Z</time></trkpt><trkpt lat="43.519405495256464" lon="11.247048501546741"><ele>419.25</ele><time>2026-04-26T16:01:38Z</time></trkpt><trkpt lat="43.51951805949287" lon="11.246927473692331"><ele>420.0</ele><time>2026-04-26T16:01:39Z</time></trkpt><trkpt lat="43.519623550799864" lon="11.24680203494596"><ele>421.25</ele><time>2026-04-26T16:01:40Z</time></trkpt><trkpt lat="43.51972925508108" lon="11.24667110828445"><ele>422.5</ele><time>2026-04-26T16:01:41Z</time></trkpt><trkpt lat="43.51983547326122" lon="11.246532569058896"><ele>423.75</ele><time>2026-04-26T16:01:42Z</time></trkpt><trkpt lat="43.51994362812783" lon="11.24641026585824"><ele>425.0</ele><time>2026-04-26T16:01:43Z</time></trkpt><trkpt lat="43.520054672530236" lon="11.246295013310911"><ele>425.0</ele><time>2026-04-26T16:01:44Z</time></trkpt><trkpt lat="43.520181795000795" lon="11.24619984813793"><ele>425.0</ele><time>2026-04-26T16:01:45Z</time></trkpt><trkpt lat="43.520313162216056" lon="11.246121421806771"><ele>425.0</ele><time>2026-04-26T16:01:46Z</time></trkpt><trkpt lat="43.520443136949766" lon="11.246051525388344"><ele>425.0</ele><time>2026-04-26T16:01:47Z</time></trkpt><trkpt lat="43.52057185386109" lon="11.245977829468316"><ele>425.5</ele><time>2026-04-26T16:01:48Z</time></trkpt><trkpt lat="43.520700563648674" lon="11.245901076883195"><ele>426.0</ele><time>2026-04-26T16:01:49Z</time></trkpt><trkpt lat="43.52083135317766" lon="11.245821632945919"><ele>426.5</ele><time>2026-04-26T16:01:50Z</time></trkpt><trkpt lat="43.52096677625137" lon="11.24573385554556"><ele>427.0</ele><time>2026-04-26T16:01:51Z</time></trkpt><trkpt lat="43.521091639388395" lon="11.245632316652243"><ele>427.75</ele><time>2026-04-26T16:01:52Z</time></trkpt><trkpt lat="43.52120906045495" lon="11.245517288603294"><ele>428.5</ele><time>2026-04-26T16:01:53Z</time></trkpt><trkpt lat="43.521311123780656" lon="11.24538049051591"><ele>429.25</ele><time>2026-04-26T16:01:54Z</time></trkpt><trkpt lat="43.52140219219022" lon="11.245229616242263"><ele>430.0</ele><time>2026-04-26T16:01:55Z</time></trkpt><trkpt lat="43.521477762296676" lon="11.245063593761484"><ele>430.0</ele><time>2026-04-26T16:01:56Z</time></trkpt><trkpt lat="43.52153374923866" lon="11.244888030438034"><ele>430.0</ele><time>2026-04-26T16:01:57Z</time></trkpt><trkpt lat="43.521580033501245" lon="11.244694972100783"><ele>430.0</ele><time>2026-04-26T16:01:58Z</time></trkpt><trkpt lat="43.52162305018565" lon="11.244502976736047"><ele>430.0</ele><time>2026-04-26T16:01:59Z</time></trkpt><trkpt lat="43.52166685891299" lon="11.244305340826902"><ele>429.75</ele><time>2026-04-26T16:02:00Z</time></trkpt><trkpt lat="43.52170985632391" lon="11.244115432177177"><ele>429.5</ele><time>2026-04-26T16:02:01Z</time></trkpt><trkpt lat="43.52175424228262" lon="11.243922155037096"><ele>429.25</ele><time>2026-04-26T16:02:02Z</time></trkpt><trkpt lat="43.52179563341051" lon="11.243727105050766"><ele>429.0</ele><time>2026-04-26T16:02:03Z</time></trkpt><trkpt lat="43.521835361255036" lon="11.243541122616975"><ele>429.0</ele><time>2026-04-26T16:02:04Z</time></trkpt><trkpt lat="43.521878294755275" lon="11.24335608553084"><ele>429.0</ele><time>2026-04-26T16:02:05Z</time></trkpt><trkpt lat="43.52192230673699" lon="11.243178078914106"><ele>429.0</ele><time>2026-04-26T16:02:06Z</time></trkpt><trkpt lat="43.52196610282271" lon="11.242994477183627"><ele>429.0</ele><time>2026-04-26T16:02:07Z</time></trkpt><trkpt lat="43.52201128469592" lon="11.242804379432684"><ele>428.25</ele><time>2026-04-26T16:02:08Z</time></trkpt><trkpt lat="43.522059104576726" lon="11.24261366682143"><ele>427.5</ele><time>2026-04-26T16:02:09Z</time></trkpt><trkpt lat="43.52211304051696" lon="11.242421891785268"><ele>426.75</ele><time>2026-04-26T16:02:10Z</time></trkpt><trkpt lat="43.52217403108317" lon="11.24222806933032"><ele>426.0</ele><time>2026-04-26T16:02:11Z</time></trkpt><trkpt lat="43.52223831786938" lon="11.24204008008899"><ele>423.66666666666663</ele><time>2026-04-26T16:02:12Z</time></trkpt><trkpt lat="43.52231887971857" lon="11.241849715819882"><ele>421.3333333333333</ele><time>2026-04-26T16:02:13Z</time></trkpt><trkpt lat="43.52241181505418" lon="11.241678925199261"><ele>419.0</ele><time>2026-04-26T16:02:14Z</time></trkpt><trkpt lat="43.52251550148973" lon="11.241522591001303"><ele>418.3333333333333</ele><time>2026-04-26T16:02:15Z</time></trkpt><trkpt lat="43.52262832913853" lon="11.24137055347414"><ele>417.66666666666663</ele><time>2026-04-26T16:02:16Z</time></trkpt><trkpt lat="43.522746630329955" lon="11.241234766648992"><ele>417.0</ele><time>2026-04-26T16:02:17Z</time></trkpt><trkpt lat="43.52286834912609" lon="11.241109674229085"><ele>417.33333333333337</ele><time>2026-04-26T16:02:18Z</time></trkpt><trkpt lat="43.52299858101856" lon="11.240997121747416"><ele>417.6666666666667</ele><time>2026-04-26T16:02:19Z</time></trkpt><trkpt lat="43.52313268268814" lon="11.240911852452804"><ele>418.0</ele><time>2026-04-26T16:02:20Z</time></trkpt><trkpt lat="43.52327559852659" lon="11.240848393887868"><ele>418.0</ele><time>2026-04-26T16:02:21Z</time></trkpt><trkpt lat="43.523416130739925" lon="11.240796492087703"><ele>418.0</ele><time>2026-04-26T16:02:22Z</time></trkpt><trkpt lat="43.52354799844142" lon="11.240733362744837"><ele>418.0</ele><time>2026-04-26T16:02:23Z</time></trkpt><trkpt lat="43.52367082813976" lon="11.240643542138342"><ele>418.0</ele><time>2026-04-26T16:02:24Z</time></trkpt><trkpt lat="43.523785232743904" lon="11.240531482179964"><ele>416.6666666666667</ele><time>2026-04-26T16:02:25Z</time></trkpt><trkpt lat="43.523892419597956" lon="11.240389858038554"><ele>415.33333333333337</ele><time>2026-04-26T16:02:26Z</time></trkpt><trkpt lat="43.52399158867901" lon="11.240234678033769"><ele>414.0</ele><time>2026-04-26T16:02:27Z</time></trkpt><trkpt lat="43.524088036394346" lon="11.24006657139785"><ele>414.0</ele><time>2026-04-26T16:02:28Z</time></trkpt><trkpt lat="43.52417027839612" lon="11.239887255289918"><ele>414.0</ele><time>2026-04-26T16:02:29Z</time></trkpt><trkpt lat="43.524243727575396" lon="11.239694702208537"><ele>414.0</ele><time>2026-04-26T16:02:30Z</time></trkpt><trkpt lat="43.52431331348134" lon="11.239493847182366"><ele>413.0</ele><time>2026-04-26T16:02:31Z</time></trkpt><trkpt lat="43.52437571000617" lon="11.239296919634347"><ele>412.0</ele><time>2026-04-26T16:02:32Z</time></trkpt><trkpt lat="43.52443599771526" lon="11.239100858832314"><ele>411.0</ele><time>2026-04-26T16:02:33Z</time></trkpt><trkpt lat="43.52452269050988" lon="11.23892030080706"><ele>409.33333333333337</ele><time>2026-04-26T16:02:34Z</time></trkpt><trkpt lat="43.52464017446491" lon="11.23876200025179"><ele>407.6666666666667</ele><time>2026-04-26T16:02:35Z</time></trkpt><trkpt lat="43.524763274241984" lon="11.238633363372571"><ele>406.0</ele><time>2026-04-26T16:02:36Z</time></trkpt><trkpt lat="43.52487883391011" lon="11.238518062481218"><ele>406.0</ele><time>2026-04-26T16:02:37Z</time></trkpt><trkpt lat="43.52499463614395" lon="11.238439107173194"><ele>406.0</ele><time>2026-04-26T16:02:38Z</time></trkpt><trkpt lat="43.52512067726155" lon="11.238412607440011"><ele>406.0</ele><time>2026-04-26T16:02:39Z</time></trkpt><trkpt lat="43.5252535109131" lon="11.238427002121043"><ele>406.0</ele><time>2026-04-26T16:02:40Z</time></trkpt><trkpt lat="43.52538830788308" lon="11.238475041956647"><ele>406.0</ele><time>2026-04-26T16:02:41Z</time></trkpt><trkpt lat="43.52552430581737" lon="11.238535991286652"><ele>406.0</ele><time>2026-04-26T16:02:42Z</time></trkpt><trkpt lat="43.52565997699516" lon="11.238595371643903"><ele>406.0</ele><time>2026-04-26T16:02:43Z</time></trkpt><trkpt lat="43.525802433446934" lon="11.238659502085873"><ele>406.0</ele><time>2026-04-26T16:02:44Z</time></trkpt><trkpt lat="43.52594847760227" lon="11.238722859530561"><ele>406.0</ele><time>2026-04-26T16:02:45Z</time></trkpt><trkpt lat="43.5260865962695" lon="11.238784240573262"><ele>406.0</ele><time>2026-04-26T16:02:46Z</time></trkpt><trkpt lat="43.52623174350553" lon="11.238841589011932"><ele>406.0</ele><time>2026-04-26T16:02:47Z</time></trkpt><trkpt lat="43.52636529051195" lon="11.238905184148669"><ele>406.0</ele><time>2026-04-26T16:02:48Z</time></trkpt><trkpt lat="43.526508508129304" lon="11.238954452043272"><ele>404.0</ele><time>2026-04-26T16:02:49Z</time></trkpt><trkpt lat="43.52665197678369" lon="11.238997377772476"><ele>402.0</ele><time>2026-04-26T16:02:50Z</time></trkpt><trkpt lat="43.52678928210564" lon="11.239041600746326"><ele>400.0</ele><time>2026-04-26T16:02:51Z</time></trkpt><trkpt lat="43.52692442356796" lon="11.239088595046159"><ele>398.0</ele><time>2026-04-26T16:02:52Z</time></trkpt><trkpt lat="43.52705832300616" lon="11.239136725343442"><ele>398.75</ele><time>2026-04-26T16:02:53Z</time></trkpt><trkpt lat="43.527188891459275" lon="11.239183456431565"><ele>399.5</ele><time>2026-04-26T16:02:54Z</time></trkpt><trkpt lat="43.527319374875816" lon="11.239237202935195"><ele>400.25</ele><time>2026-04-26T16:02:55Z</time></trkpt><trkpt lat="43.527446044999266" lon="11.239300497731158"><ele>401.0</ele><time>2026-04-26T16:02:56Z</time></trkpt><trkpt lat="43.52756791844912" lon="11.23936756477565"><ele>401.0</ele><time>2026-04-26T16:02:57Z</time></trkpt><trkpt lat="43.52769265318915" lon="11.239445666897234"><ele>401.0</ele><time>2026-04-26T16:02:58Z</time></trkpt><trkpt lat="43.52781244724745" lon="11.239525290068366"><ele>401.0</ele><time>2026-04-26T16:02:59Z</time></trkpt><trkpt lat="43.5279361699476" lon="11.23960984638683"><ele>401.0</ele><time>2026-04-26T16:03:00Z</time></trkpt><trkpt lat="43.528059156366616" lon="11.239693650948972"><ele>401.75</ele><time>2026-04-26T16:03:01Z</time></trkpt><trkpt lat="43.52818420111245" lon="11.239781347910979"><ele>402.5</ele><time>2026-04-26T16:03:02Z</time></trkpt><trkpt lat="43.52830874784994" lon="11.239866895100104"><ele>403.25</ele><time>2026-04-26T16:03:03Z</time></trkpt><trkpt lat="43.52843885595432" lon="11.239961604778925"><ele>404.0</ele><time>2026-04-26T16:03:04Z</time></trkpt><trkpt lat="43.52856389722445" lon="11.240050687145555"><ele>402.5</ele><time>2026-04-26T16:03:05Z</time></trkpt><trkpt lat="43.52869264587209" lon="11.240142852093422"><ele>401.0</ele><time>2026-04-26T16:03:06Z</time></trkpt><trkpt lat="43.528812330266625" lon="11.24023019482967"><ele>399.5</ele><time>2026-04-26T16:03:07Z</time></trkpt><trkpt lat="43.528929623056804" lon="11.2403143600407"><ele>398.0</ele><time>2026-04-26T16:03:08Z</time></trkpt><trkpt lat="43.529045641398326" lon="11.24039572375359"><ele>397.5</ele><time>2026-04-26T16:03:09Z</time></trkpt><trkpt lat="43.5291592522058" lon="11.240466020449908"><ele>397.0</ele><time>2026-04-26T16:03:10Z</time></trkpt><trkpt lat="43.52927700723252" lon="11.240531848130532"><ele>396.5</ele><time>2026-04-26T16:03:11Z</time></trkpt><trkpt lat="43.52940880361954" lon="11.240592878947414"><ele>396.0</ele><time>2026-04-26T16:03:12Z</time></trkpt><trkpt lat="43.529542934882" lon="11.240645935205826"><ele>397.0</ele><time>2026-04-26T16:03:13Z</time></trkpt><trkpt lat="43.52967862054878" lon="11.240685074933852"><ele>398.0</ele><time>2026-04-26T16:03:14Z</time></trkpt><trkpt lat="43.5298134155609" lon="11.240724315057934"><ele>399.0</ele><time>2026-04-26T16:03:15Z</time></trkpt><trkpt lat="43.52994977592859" lon="11.240757083800068"><ele>400.0</ele><time>2026-04-26T16:03:16Z</time></trkpt><trkpt lat="43.530081909080884" lon="11.24078871592655"><ele>400.0</ele><time>2026-04-26T16:03:17Z</time></trkpt><trkpt lat="43.530212740943526" lon="11.24083466306618"><ele>400.0</ele><time>2026-04-26T16:03:18Z</time></trkpt><trkpt lat="43.53033401573463" lon="11.240892763270235"><ele>400.0</ele><time>2026-04-26T16:03:19Z</time></trkpt><trkpt lat="43.53045367637172" lon="11.240956877127726"><ele>400.0</ele><time>2026-04-26T16:03:20Z</time></trkpt><trkpt lat="43.53057202593464" lon="11.241026860670255"><ele>399.5</ele><time>2026-04-26T16:03:21Z</time></trkpt><trkpt lat="43.530691583659845" lon="11.241098196549697"><ele>399.0</ele><time>2026-04-26T16:03:22Z</time></trkpt><trkpt lat="43.53080877666743" lon="11.241175838025251"><ele>398.5</ele><time>2026-04-26T16:03:23Z</time></trkpt><trkpt lat="43.53092176132676" lon="11.24126142936264"><ele>398.0</ele><time>2026-04-26T16:03:24Z</time></trkpt><trkpt lat="43.53103461882688" lon="11.241351348859991"><ele>398.0</ele><time>2026-04-26T16:03:25Z</time></trkpt><trkpt lat="43.53114814131841" lon="11.241448873611017"><ele>398.0</ele><time>2026-04-26T16:03:26Z</time></trkpt><trkpt lat="43.531255561628356" lon="11.241544510618962"><ele>398.0</ele><time>2026-04-26T16:03:27Z</time></trkpt><trkpt lat="43.53135355255196" lon="11.241636073303475"><ele>398.0</ele><time>2026-04-26T16:03:28Z</time></trkpt><trkpt lat="43.531473743447656" lon="11.241723414776425"><ele>397.0</ele><time>2026-04-26T16:03:29Z</time></trkpt><trkpt lat="43.53158218536816" lon="11.241799485156433"><ele>396.0</ele><time>2026-04-26T16:03:30Z</time></trkpt><trkpt lat="43.53168730195616" lon="11.241869772597315"><ele>395.0</ele><time>2026-04-26T16:03:31Z</time></trkpt><trkpt lat="43.53178435149626" lon="11.241929303729407"><ele>394.0</ele><time>2026-04-26T16:03:32Z</time></trkpt><trkpt lat="43.531858156441025" lon="11.241964931884741"><ele>393.0</ele><time>2026-04-26T16:03:33Z</time></trkpt><trkpt lat="43.53192563088577" lon="11.241999225137684"><ele>393.0</ele><time>2026-04-26T16:03:34Z</time></trkpt><trkpt lat="43.53201496715546" lon="11.242009458947907"><ele>393.0</ele><time>2026-04-26T16:03:36Z</time></trkpt><trkpt lat="43.5320784609215" lon="11.24200018891693"><ele>393.0</ele><time>2026-04-26T16:03:38Z</time></trkpt><trkpt lat="43.53214896610174" lon="11.24199311798968"><ele>393.0</ele><time>2026-04-26T16:03:41Z</time></trkpt><trkpt lat="43.53226423083038" lon="11.242001124336017"><ele>393.0</ele><time>2026-04-26T16:03:45Z</time></trkpt><trkpt lat="43.53235273482729" lon="11.24198835817503"><ele>393.0</ele><time>2026-04-26T16:03:46Z</time></trkpt><trkpt lat="43.53242791646683" lon="11.241979369411958"><ele>392.0</ele><time>2026-04-26T16:03:47Z</time></trkpt><trkpt lat="43.532515799751906" lon="11.241991823726849"><ele>391.0</ele><time>2026-04-26T16:03:48Z</time></trkpt><trkpt lat="43.5326034371648" lon="11.241993073341655"><ele>390.0</ele><time>2026-04-26T16:03:49Z</time></trkpt><trkpt lat="43.532695710527456" lon="11.241999856898358"><ele>389.0</ele><time>2026-04-26T16:03:50Z</time></trkpt><trkpt lat="43.53278896485585" lon="11.241995182400608"><ele>388.0</ele><time>2026-04-26T16:03:51Z</time></trkpt><trkpt lat="43.53289603949041" lon="11.242003041317933"><ele>387.59999999999997</ele><time>2026-04-26T16:03:52Z</time></trkpt><trkpt lat="43.53300265129929" lon="11.241987233910463"><ele>387.2</ele><time>2026-04-26T16:03:53Z</time></trkpt><trkpt lat="43.53310658207289" lon="11.241973066670072"><ele>386.8</ele><time>2026-04-26T16:03:54Z</time></trkpt><trkpt lat="43.53321200944391" lon="11.241954925544531"><ele>386.4</ele><time>2026-04-26T16:03:55Z</time></trkpt><trkpt lat="43.533316891537275" lon="11.241911648414908"><ele>386.0</ele><time>2026-04-26T16:03:56Z</time></trkpt><trkpt lat="43.533434880727064" lon="11.241880592613906"><ele>386.0</ele><time>2026-04-26T16:03:57Z</time></trkpt><trkpt lat="43.5335489891354" lon="11.241844304268962"><ele>386.0</ele><time>2026-04-26T16:03:58Z</time></trkpt><trkpt lat="43.53365968130614" lon="11.241808463376742"><ele>386.0</ele><time>2026-04-26T16:03:59Z</time></trkpt><trkpt lat="43.533764011166404" lon="11.241772860164858"><ele>386.0</ele><time>2026-04-26T16:04:00Z</time></trkpt><trkpt lat="43.53387118257051" lon="11.241731030468486"><ele>386.5</ele><time>2026-04-26T16:04:01Z</time></trkpt><trkpt lat="43.533981317398535" lon="11.241682038718594"><ele>387.0</ele><time>2026-04-26T16:04:02Z</time></trkpt><trkpt lat="43.53409111799053" lon="11.241633187505535"><ele>387.5</ele><time>2026-04-26T16:04:03Z</time></trkpt><trkpt lat="43.53419854775692" lon="11.241581384715003"><ele>388.0</ele><time>2026-04-26T16:04:04Z</time></trkpt><trkpt lat="43.534309536023876" lon="11.241518331414506"><ele>388.5</ele><time>2026-04-26T16:04:05Z</time></trkpt><trkpt lat="43.534417179173225" lon="11.241451089945066"><ele>389.0</ele><time>2026-04-26T16:04:06Z</time></trkpt><trkpt lat="43.53452912278353" lon="11.241381114164456"><ele>389.5</ele><time>2026-04-26T16:04:07Z</time></trkpt><trkpt lat="43.53463946901453" lon="11.241304330990651"><ele>390.0</ele><time>2026-04-26T16:04:08Z</time></trkpt><trkpt lat="43.53474828135174" lon="11.241225702831978"><ele>390.0</ele><time>2026-04-26T16:04:09Z</time></trkpt><trkpt lat="43.53485326957006" lon="11.241141188968694"><ele>390.0</ele><time>2026-04-26T16:04:10Z</time></trkpt><trkpt lat="43.534956040448606" lon="11.241057839649839"><ele>390.0</ele><time>2026-04-26T16:04:11Z</time></trkpt><trkpt lat="43.53505351364023" lon="11.240965787106637"><ele>390.0</ele><time>2026-04-26T16:04:12Z</time></trkpt><trkpt lat="43.53515386789654" lon="11.240865140326449"><ele>390.0</ele><time>2026-04-26T16:04:13Z</time></trkpt><trkpt lat="43.53525803439949" lon="11.240760483131718"><ele>390.0</ele><time>2026-04-26T16:04:14Z</time></trkpt><trkpt lat="43.53535099051874" lon="11.240659092110295"><ele>390.0</ele><time>2026-04-26T16:04:15Z</time></trkpt><trkpt lat="43.53544916125131" lon="11.240549991625267"><ele>390.0</ele><time>2026-04-26T16:04:16Z</time></trkpt><trkpt lat="43.53554110408193" lon="11.240432032715212"><ele>392.0</ele><time>2026-04-26T16:04:17Z</time></trkpt><trkpt lat="43.53563453591756" lon="11.240300621815033"><ele>394.0</ele><time>2026-04-26T16:04:18Z</time></trkpt><trkpt lat="43.535741182393956" lon="11.240138062612383"><ele>396.0</ele><time>2026-04-26T16:04:19Z</time></trkpt><trkpt lat="43.53584193713024" lon="11.239959608666531"><ele>397.66666666666663</ele><time>2026-04-26T16:04:20Z</time></trkpt><trkpt lat="43.53593601077985" lon="11.239778999799968"><ele>399.3333333333333</ele><time>2026-04-26T16:04:21Z</time></trkpt><trkpt lat="43.53602747787213" lon="11.23960262346508"><ele>401.0</ele><time>2026-04-26T16:04:22Z</time></trkpt><trkpt lat="43.536116073506655" lon="11.239417655719103"><ele>401.0</ele><time>2026-04-26T16:04:23Z</time></trkpt><trkpt lat="43.53618687467388" lon="11.239233370847536"><ele>401.0</ele><time>2026-04-26T16:04:24Z</time></trkpt><trkpt lat="43.536247518612" lon="11.239041851453303"><ele>401.0</ele><time>2026-04-26T16:04:25Z</time></trkpt><trkpt lat="43.53630463249423" lon="11.238845875773759"><ele>400.0</ele><time>2026-04-26T16:04:26Z</time></trkpt><trkpt lat="43.53636430939538" lon="11.238647997068377"><ele>399.0</ele><time>2026-04-26T16:04:27Z</time></trkpt><trkpt lat="43.53642727243188" lon="11.238446941841973"><ele>398.0</ele><time>2026-04-26T16:04:28Z</time></trkpt><trkpt lat="43.536485176461255" lon="11.238249640669473"><ele>398.66666666666663</ele><time>2026-04-26T16:04:29Z</time></trkpt><trkpt lat="43.53654193543056" lon="11.2380593590377"><ele>399.33333333333337</ele><time>2026-04-26T16:04:30Z</time></trkpt><trkpt lat="43.53660369566142" lon="11.237863136317879"><ele>400.0</ele><time>2026-04-26T16:04:31Z</time></trkpt><trkpt lat="43.53668140368577" lon="11.237676042183336"><ele>400.0</ele><time>2026-04-26T16:04:32Z</time></trkpt><trkpt lat="43.53677346786759" lon="11.237499054945975"><ele>400.0</ele><time>2026-04-26T16:04:33Z</time></trkpt><trkpt lat="43.536876856525076" lon="11.237328256761863"><ele>400.0</ele><time>2026-04-26T16:04:34Z</time></trkpt><trkpt lat="43.53700140854838" lon="11.237179594883578"><ele>398.33333333333337</ele><time>2026-04-26T16:04:35Z</time></trkpt><trkpt lat="43.53713536263399" lon="11.237044974814172"><ele>396.66666666666663</ele><time>2026-04-26T16:04:36Z</time></trkpt><trkpt lat="43.53728481947588" lon="11.236916445727465"><ele>395.0</ele><time>2026-04-26T16:04:37Z</time></trkpt><trkpt lat="43.53743367323282" lon="11.236791314527506"><ele>395.0</ele><time>2026-04-26T16:04:38Z</time></trkpt><trkpt lat="43.5375897483222" lon="11.23666792538219"><ele>395.0</ele><time>2026-04-26T16:04:39Z</time></trkpt><trkpt lat="43.53773139145452" lon="11.236537464035333"><ele>395.0</ele><time>2026-04-26T16:04:40Z</time></trkpt><trkpt lat="43.537873403973016" lon="11.236417027295845"><ele>395.0</ele><time>2026-04-26T16:04:41Z</time></trkpt><trkpt lat="43.53799638395509" lon="11.236313395696575"><ele>395.0</ele><time>2026-04-26T16:04:42Z</time></trkpt><trkpt lat="43.53808898322846" lon="11.236180045404796"><ele>395.0</ele><time>2026-04-26T16:04:43Z</time></trkpt><trkpt lat="43.53816711638298" lon="11.236020233092873"><ele>395.0</ele><time>2026-04-26T16:04:44Z</time></trkpt><trkpt lat="43.53823138151073" lon="11.235839376961383"><ele>395.0</ele><time>2026-04-26T16:04:45Z</time></trkpt><trkpt lat="43.538280561103264" lon="11.23565049326958"><ele>395.0</ele><time>2026-04-26T16:04:46Z</time></trkpt><trkpt lat="43.5383095217415" lon="11.23544289850529"><ele>395.0</ele><time>2026-04-26T16:04:47Z</time></trkpt><trkpt lat="43.53832431385437" lon="11.235226100533806"><ele>394.0</ele><time>2026-04-26T16:04:48Z</time></trkpt><trkpt lat="43.538330323016346" lon="11.235014088775877"><ele>393.0</ele><time>2026-04-26T16:04:49Z</time></trkpt><trkpt lat="43.53833584539538" lon="11.234793182267895"><ele>392.0</ele><time>2026-04-26T16:04:50Z</time></trkpt><trkpt lat="43.538341978077916" lon="11.234577614624277"><ele>389.66666666666663</ele><time>2026-04-26T16:04:51Z</time></trkpt><trkpt lat="43.538348139529" lon="11.23435523124662"><ele>387.33333333333337</ele><time>2026-04-26T16:04:52Z</time></trkpt><trkpt lat="43.53835631056631" lon="11.234136643599538"><ele>385.0</ele><time>2026-04-26T16:04:53Z</time></trkpt><trkpt lat="43.53836291814307" lon="11.23391178169924"><ele>382.6666666666667</ele><time>2026-04-26T16:04:54Z</time></trkpt><trkpt lat="43.53836656487378" lon="11.23369003508936"><ele>380.33333333333337</ele><time>2026-04-26T16:04:55Z</time></trkpt><trkpt lat="43.5383721255853" lon="11.233463357974477"><ele>378.0</ele><time>2026-04-26T16:04:56Z</time></trkpt><trkpt lat="43.53837794676443" lon="11.233232344131295"><ele>377.6666666666667</ele><time>2026-04-26T16:04:57Z</time></trkpt><trkpt lat="43.53838513122821" lon="11.233005933753905"><ele>377.33333333333337</ele><time>2026-04-26T16:04:58Z</time></trkpt><trkpt lat="43.53838834953943" lon="11.232775580272145"><ele>377.0</ele><time>2026-04-26T16:04:59Z</time></trkpt><trkpt lat="43.53841538511525" lon="11.23255573274318"><ele>377.0</ele><time>2026-04-26T16:05:00Z</time></trkpt><trkpt lat="43.53847436229152" lon="11.232357039636597"><ele>377.0</ele><time>2026-04-26T16:05:01Z</time></trkpt><trkpt lat="43.538551804738354" lon="11.232168524826271"><ele>377.0</ele><time>2026-04-26T16:05:02Z</time></trkpt><trkpt lat="43.53864238197505" lon="11.231999525759004"><ele>376.0</ele><time>2026-04-26T16:05:03Z</time></trkpt><trkpt lat="43.538742583347364" lon="11.231846617603207"><ele>375.0</ele><time>2026-04-26T16:05:04Z</time></trkpt><trkpt lat="43.538850158994954" lon="11.231722742061642"><ele>374.0</ele><time>2026-04-26T16:05:05Z</time></trkpt><trkpt lat="43.53898297266159" lon="11.231611381051197"><ele>373.0</ele><time>2026-04-26T16:05:06Z</time></trkpt><trkpt lat="43.53912301657145" lon="11.231510975702125"><ele>373.0</ele><time>2026-04-26T16:05:07Z</time></trkpt><trkpt lat="43.539273541817664" lon="11.2314273781198"><ele>373.0</ele><time>2026-04-26T16:05:08Z</time></trkpt><trkpt lat="43.5394271551468" lon="11.231350834114961"><ele>373.0</ele><time>2026-04-26T16:05:09Z</time></trkpt><trkpt lat="43.539577715763706" lon="11.231271925030997"><ele>373.0</ele><time>2026-04-26T16:05:10Z</time></trkpt><trkpt lat="43.539724993076526" lon="11.231198871671683"><ele>373.0</ele><time>2026-04-26T16:05:11Z</time></trkpt><trkpt lat="43.53988024870008" lon="11.23112614115768"><ele>373.0</ele><time>2026-04-26T16:05:12Z</time></trkpt><trkpt lat="43.54002522196575" lon="11.231045577397795"><ele>373.0</ele><time>2026-04-26T16:05:13Z</time></trkpt><trkpt lat="43.54017507495475" lon="11.230962636481994"><ele>373.0</ele><time>2026-04-26T16:05:14Z</time></trkpt><trkpt lat="43.54032918930988" lon="11.230886201607994"><ele>373.0</ele><time>2026-04-26T16:05:15Z</time></trkpt><trkpt lat="43.54047937684522" lon="11.230812592025956"><ele>372.0</ele><time>2026-04-26T16:05:16Z</time></trkpt><trkpt lat="43.54063173242923" lon="11.230729727883539"><ele>371.0</ele><time>2026-04-26T16:05:17Z</time></trkpt><trkpt lat="43.54077588142151" lon="11.230670202681964"><ele>370.0</ele><time>2026-04-26T16:05:18Z</time></trkpt><trkpt lat="43.54092708464961" lon="11.230621367199886"><ele>369.3333333333333</ele><time>2026-04-26T16:05:19Z</time></trkpt><trkpt lat="43.54107278803757" lon="11.230564750897896"><ele>368.6666666666667</ele><time>2026-04-26T16:05:20Z</time></trkpt><trkpt lat="43.541220839103765" lon="11.230507468891643"><ele>368.0</ele><time>2026-04-26T16:05:21Z</time></trkpt><trkpt lat="43.541372398007496" lon="11.230443625445599"><ele>367.33333333333337</ele><time>2026-04-26T16:05:22Z</time></trkpt><trkpt lat="43.541518672206315" lon="11.23038450702473"><ele>366.6666666666667</ele><time>2026-04-26T16:05:23Z</time></trkpt><trkpt lat="43.54166634921016" lon="11.23032656038901"><ele>366.0</ele><time>2026-04-26T16:05:24Z</time></trkpt><trkpt lat="43.5418090589303" lon="11.230269648955359"><ele>366.0</ele><time>2026-04-26T16:05:25Z</time></trkpt><trkpt lat="43.54194555935965" lon="11.230220615562507"><ele>366.0</ele><time>2026-04-26T16:05:26Z</time></trkpt><trkpt lat="43.54208578144103" lon="11.230168097643245"><ele>366.0</ele><time>2026-04-26T16:05:27Z</time></trkpt><trkpt lat="43.54221922555532" lon="11.230111191787119"><ele>366.0</ele><time>2026-04-26T16:05:28Z</time></trkpt><trkpt lat="43.54235639072233" lon="11.230057302089953"><ele>365.75</ele><time>2026-04-26T16:05:29Z</time></trkpt><trkpt lat="43.542492181793975" lon="11.230008133035037"><ele>365.5</ele><time>2026-04-26T16:05:30Z</time></trkpt><trkpt lat="43.542628665173225" lon="11.229964529201958"><ele>365.25</ele><time>2026-04-26T16:05:31Z</time></trkpt><trkpt lat="43.542763378970406" lon="11.229914114280513"><ele>365.0</ele><time>2026-04-26T16:05:32Z</time></trkpt><trkpt lat="43.54289933730512" lon="11.229857541934246"><ele>365.0</ele><time>2026-04-26T16:05:33Z</time></trkpt><trkpt lat="43.54303542622324" lon="11.22979224400094"><ele>365.0</ele><time>2026-04-26T16:05:34Z</time></trkpt><trkpt lat="43.54317618756732" lon="11.229726916965976"><ele>365.0</ele><time>2026-04-26T16:05:35Z</time></trkpt><trkpt lat="43.543310300753596" lon="11.22965124187455"><ele>365.0</ele><time>2026-04-26T16:05:36Z</time></trkpt><trkpt lat="43.54344150885857" lon="11.229560363317841"><ele>365.0</ele><time>2026-04-26T16:05:37Z</time></trkpt><trkpt lat="43.54357045949307" lon="11.229461675598571"><ele>365.0</ele><time>2026-04-26T16:05:38Z</time></trkpt><trkpt lat="43.54369779236607" lon="11.229358279166679"><ele>365.0</ele><time>2026-04-26T16:05:39Z</time></trkpt><trkpt lat="43.54381930567463" lon="11.229258559266684"><ele>365.0</ele><time>2026-04-26T16:05:40Z</time></trkpt><trkpt lat="43.54394905304079" lon="11.229161091134277"><ele>364.5</ele><time>2026-04-26T16:05:41Z</time></trkpt><trkpt lat="43.54406924407756" lon="11.229058818232605"><ele>364.0</ele><time>2026-04-26T16:05:42Z</time></trkpt><trkpt lat="43.54419398597074" lon="11.228954521259174"><ele>363.5</ele><time>2026-04-26T16:05:43Z</time></trkpt><trkpt lat="43.54432345565839" lon="11.228850996923228"><ele>363.0</ele><time>2026-04-26T16:05:44Z</time></trkpt><trkpt lat="43.54445175924997" lon="11.228750597382787"><ele>361.0</ele><time>2026-04-26T16:05:45Z</time></trkpt><trkpt lat="43.54457876022933" lon="11.22864240056292"><ele>359.0</ele><time>2026-04-26T16:05:46Z</time></trkpt><trkpt lat="43.54470986264934" lon="11.2285424871837"><ele>357.0</ele><time>2026-04-26T16:05:47Z</time></trkpt><trkpt lat="43.54484489755821" lon="11.228449721915316"><ele>357.0</ele><time>2026-04-26T16:05:48Z</time></trkpt><trkpt lat="43.54497692649974" lon="11.228347438978668"><ele>357.0</ele><time>2026-04-26T16:05:49Z</time></trkpt><trkpt lat="43.545106343254524" lon="11.228243871271793"><ele>357.0</ele><time>2026-04-26T16:05:50Z</time></trkpt><trkpt lat="43.5452306776953" lon="11.228139243535562"><ele>357.0</ele><time>2026-04-26T16:05:51Z</time></trkpt><trkpt lat="43.54536569802779" lon="11.22805006689663"><ele>355.75</ele><time>2026-04-26T16:05:52Z</time></trkpt><trkpt lat="43.54549455101902" lon="11.227952713671993"><ele>354.5</ele><time>2026-04-26T16:05:53Z</time></trkpt><trkpt lat="43.54561923520533" lon="11.227859165816955"><ele>353.25</ele><time>2026-04-26T16:05:54Z</time></trkpt><trkpt lat="43.54574312963779" lon="11.227766044686676"><ele>352.0</ele><time>2026-04-26T16:05:55Z</time></trkpt><trkpt lat="43.54586726456193" lon="11.227669844825693"><ele>352.0</ele><time>2026-04-26T16:05:56Z</time></trkpt><trkpt lat="43.54599907122793" lon="11.227573747428037"><ele>352.0</ele><time>2026-04-26T16:05:57Z</time></trkpt><trkpt lat="43.54612636090961" lon="11.227475245500385"><ele>352.0</ele><time>2026-04-26T16:05:58Z</time></trkpt><trkpt lat="43.54625244624435" lon="11.227374964154922"><ele>352.0</ele><time>2026-04-26T16:05:59Z</time></trkpt><trkpt lat="43.5463799510294" lon="11.22728160996501"><ele>351.5</ele><time>2026-04-26T16:06:00Z</time></trkpt><trkpt lat="43.54650332907901" lon="11.227182812020777"><ele>351.0</ele><time>2026-04-26T16:06:01Z</time></trkpt><trkpt lat="43.546622292117156" lon="11.227083494970021"><ele>350.5</ele><time>2026-04-26T16:06:02Z</time></trkpt><trkpt lat="43.54673666118029" lon="11.226988393394075"><ele>350.0</ele><time>2026-04-26T16:06:03Z</time></trkpt><trkpt lat="43.54683638996282" lon="11.226893558990255"><ele>350.0</ele><time>2026-04-26T16:06:04Z</time></trkpt><trkpt lat="43.546921386365455" lon="11.226804916756288"><ele>350.0</ele><time>2026-04-26T16:06:05Z</time></trkpt><trkpt lat="43.54700497418211" lon="11.226724743105805"><ele>350.0</ele><time>2026-04-26T16:06:06Z</time></trkpt><trkpt lat="43.547087946843874" lon="11.226647714446507"><ele>350.0</ele><time>2026-04-26T16:06:07Z</time></trkpt><trkpt lat="43.547172530632956" lon="11.226573817869442"><ele>350.0</ele><time>2026-04-26T16:06:08Z</time></trkpt><trkpt lat="43.547259851922945" lon="11.22649223626005"><ele>350.0</ele><time>2026-04-26T16:06:09Z</time></trkpt><trkpt lat="43.547350631734496" lon="11.226392571334852"><ele>350.0</ele><time>2026-04-26T16:06:10Z</time></trkpt><trkpt lat="43.547453891199204" lon="11.226302567163856"><ele>350.0</ele><time>2026-04-26T16:06:11Z</time></trkpt><trkpt lat="43.54755841465398" lon="11.226177880793356"><ele>350.0</ele><time>2026-04-26T16:06:12Z</time></trkpt><trkpt lat="43.5476697422057" lon="11.226067225230443"><ele>350.0</ele><time>2026-04-26T16:06:13Z</time></trkpt><trkpt lat="43.54776620283286" lon="11.225941759255486"><ele>350.0</ele><time>2026-04-26T16:06:14Z</time></trkpt><trkpt lat="43.547814236849185" lon="11.225773341027553"><ele>350.0</ele><time>2026-04-26T16:06:15Z</time></trkpt><trkpt lat="43.54787433627443" lon="11.2256306856382"><ele>350.0</ele><time>2026-04-26T16:06:16Z</time></trkpt><trkpt lat="43.54793190351781" lon="11.225483824701241"><ele>346.5</ele><time>2026-04-26T16:06:17Z</time></trkpt><trkpt lat="43.547984054492744" lon="11.225335257488585"><ele>343.0</ele><time>2026-04-26T16:06:18Z</time></trkpt><trkpt lat="43.54803324896008" lon="11.225184182437694"><ele>339.5</ele><time>2026-04-26T16:06:19Z</time></trkpt><trkpt lat="43.548076129087654" lon="11.225033827001633"><ele>336.0</ele><time>2026-04-26T16:06:20Z</time></trkpt><trkpt lat="43.548120670116674" lon="11.224879654324951"><ele>338.25</ele><time>2026-04-26T16:06:21Z</time></trkpt><trkpt lat="43.548168505038895" lon="11.224730787586445"><ele>340.5</ele><time>2026-04-26T16:06:22Z</time></trkpt><trkpt lat="43.54825043156401" lon="11.224598888176569"><ele>342.75</ele><time>2026-04-26T16:06:23Z</time></trkpt><trkpt lat="43.54835102844252" lon="11.224490274273961"><ele>345.0</ele><time>2026-04-26T16:06:24Z</time></trkpt><trkpt lat="43.54846760705066" lon="11.224402985869549"><ele>345.0</ele><time>2026-04-26T16:06:25Z</time></trkpt><trkpt lat="43.54858768413896" lon="11.224332877209559"><ele>345.0</ele><time>2026-04-26T16:06:26Z</time></trkpt><trkpt lat="43.548708119396245" lon="11.224258838266557"><ele>345.0</ele><time>2026-04-26T16:06:27Z</time></trkpt><trkpt lat="43.54881953767047" lon="11.22417401850232"><ele>345.0</ele><time>2026-04-26T16:06:28Z</time></trkpt><trkpt lat="43.54893219674165" lon="11.224098607992776"><ele>345.0</ele><time>2026-04-26T16:06:29Z</time></trkpt><trkpt lat="43.549039381279066" lon="11.224014469271133"><ele>345.0</ele><time>2026-04-26T16:06:30Z</time></trkpt><trkpt lat="43.549144240617146" lon="11.223932328144183"><ele>345.0</ele><time>2026-04-26T16:06:31Z</time></trkpt><trkpt lat="43.54925861211325" lon="11.223857115237914"><ele>345.0</ele><time>2026-04-26T16:06:32Z</time></trkpt><trkpt lat="43.549362747911424" lon="11.223784587769263"><ele>345.0</ele><time>2026-04-26T16:06:33Z</time></trkpt><trkpt lat="43.5494474805218" lon="11.223690178782725"><ele>345.0</ele><time>2026-04-26T16:06:34Z</time></trkpt><trkpt lat="43.54955257315012" lon="11.223602588023608"><ele>345.0</ele><time>2026-04-26T16:06:35Z</time></trkpt><trkpt lat="43.54967117680121" lon="11.22352831481406"><ele>345.0</ele><time>2026-04-26T16:06:36Z</time></trkpt><trkpt lat="43.54978253246372" lon="11.22345481011386"><ele>344.75</ele><time>2026-04-26T16:06:37Z</time></trkpt><trkpt lat="43.549900667518145" lon="11.223372796267572"><ele>344.5</ele><time>2026-04-26T16:06:38Z</time></trkpt><trkpt lat="43.550024306122545" lon="11.223277377245276"><ele>344.25</ele><time>2026-04-26T16:06:39Z</time></trkpt><trkpt lat="43.550104961780534" lon="11.223190973933127"><ele>344.0</ele><time>2026-04-26T16:06:40Z</time></trkpt><trkpt lat="43.55023957339216" lon="11.223121427050286"><ele>344.0</ele><time>2026-04-26T16:06:41Z</time></trkpt><trkpt lat="43.55036200107955" lon="11.223054175796284"><ele>344.0</ele><time>2026-04-26T16:06:42Z</time></trkpt><trkpt lat="43.550484390257765" lon="11.223015919340659"><ele>344.0</ele><time>2026-04-26T16:06:43Z</time></trkpt><trkpt lat="43.55061328413652" lon="11.222989423100392"><ele>344.0</ele><time>2026-04-26T16:06:44Z</time></trkpt><trkpt lat="43.55072642914364" lon="11.222969784071719"><ele>342.25</ele><time>2026-04-26T16:06:45Z</time></trkpt><trkpt lat="43.55086122827633" lon="11.222953842323275"><ele>340.5</ele><time>2026-04-26T16:06:46Z</time></trkpt><trkpt lat="43.5509762144612" lon="11.222907276864813"><ele>338.75</ele><time>2026-04-26T16:06:47Z</time></trkpt><trkpt lat="43.55108174989884" lon="11.222828136698697"><ele>337.0</ele><time>2026-04-26T16:06:48Z</time></trkpt><trkpt lat="43.5511793081181" lon="11.222714530958314"><ele>334.5</ele><time>2026-04-26T16:06:49Z</time></trkpt><trkpt lat="43.55128480568529" lon="11.22260321112671"><ele>332.0</ele><time>2026-04-26T16:06:50Z</time></trkpt><trkpt lat="43.551392312063335" lon="11.222490583400537"><ele>329.5</ele><time>2026-04-26T16:06:51Z</time></trkpt><trkpt lat="43.551493040061025" lon="11.22236682953223"><ele>327.0</ele><time>2026-04-26T16:06:52Z</time></trkpt><trkpt lat="43.551596895039815" lon="11.222242090936208"><ele>327.0</ele><time>2026-04-26T16:06:53Z</time></trkpt><trkpt lat="43.551704405545934" lon="11.222116928903693"><ele>327.0</ele><time>2026-04-26T16:06:54Z</time></trkpt><trkpt lat="43.55181574248146" lon="11.22198550789904"><ele>327.0</ele><time>2026-04-26T16:06:55Z</time></trkpt><trkpt lat="43.551924084520785" lon="11.221866747128272"><ele>327.0</ele><time>2026-04-26T16:06:56Z</time></trkpt><trkpt lat="43.552051556877835" lon="11.221776375790327"><ele>324.5</ele><time>2026-04-26T16:06:57Z</time></trkpt><trkpt lat="43.55217708086265" lon="11.221711694862528"><ele>322.0</ele><time>2026-04-26T16:06:58Z</time></trkpt><trkpt lat="43.5523024066172" lon="11.221684546403722"><ele>319.5</ele><time>2026-04-26T16:06:59Z</time></trkpt><trkpt lat="43.55247565869866" lon="11.221641636853938"><ele>317.0</ele><time>2026-04-26T16:07:00Z</time></trkpt><trkpt lat="43.55261335567344" lon="11.221611808155915"><ele>317.0</ele><time>2026-04-26T16:07:01Z</time></trkpt><trkpt lat="43.552753558411524" lon="11.221583147622978"><ele>317.0</ele><time>2026-04-26T16:07:02Z</time></trkpt><trkpt lat="43.55289126863135" lon="11.221581809938458"><ele>317.0</ele><time>2026-04-26T16:07:03Z</time></trkpt><trkpt lat="43.55302498004094" lon="11.221598864318548"><ele>317.0</ele><time>2026-04-26T16:07:04Z</time></trkpt><trkpt lat="43.553158869758" lon="11.22164174750964"><ele>316.25</ele><time>2026-04-26T16:07:05Z</time></trkpt><trkpt lat="43.55328588641599" lon="11.221692730045971"><ele>315.5</ele><time>2026-04-26T16:07:06Z</time></trkpt><trkpt lat="43.553411098477916" lon="11.221735984634831"><ele>314.75</ele><time>2026-04-26T16:07:07Z</time></trkpt><trkpt lat="43.55354253457267" lon="11.221773698854403"><ele>314.0</ele><time>2026-04-26T16:07:08Z</time></trkpt><trkpt lat="43.553668630982706" lon="11.221841127928155"><ele>316.25</ele><time>2026-04-26T16:07:09Z</time></trkpt><trkpt lat="43.55378508850096" lon="11.221923014527787"><ele>318.5</ele><time>2026-04-26T16:07:10Z</time></trkpt><trkpt lat="43.55390228311125" lon="11.22201377090384"><ele>320.75</ele><time>2026-04-26T16:07:11Z</time></trkpt><trkpt lat="43.55401488720251" lon="11.222117814665834"><ele>323.0</ele><time>2026-04-26T16:07:12Z</time></trkpt><trkpt lat="43.55412214727493" lon="11.22222592193103"><ele>321.0</ele><time>2026-04-26T16:07:13Z</time></trkpt><trkpt lat="43.5542577171626" lon="11.22232720877209"><ele>319.0</ele><time>2026-04-26T16:07:14Z</time></trkpt><trkpt lat="43.55439433720972" lon="11.222410981643"><ele>317.0</ele><time>2026-04-26T16:07:15Z</time></trkpt><trkpt lat="43.554529907460456" lon="11.222478966296109"><ele>315.0</ele><time>2026-04-26T16:07:16Z</time></trkpt><trkpt lat="43.554668420158585" lon="11.222543876949965"><ele>315.0</ele><time>2026-04-26T16:07:17Z</time></trkpt><trkpt lat="43.5547931275845" lon="11.222622695239052"><ele>315.0</ele><time>2026-04-26T16:07:18Z</time></trkpt><trkpt lat="43.554908202304915" lon="11.222700201017682"><ele>315.0</ele><time>2026-04-26T16:07:19Z</time></trkpt><trkpt lat="43.55503707367222" lon="11.222775024504108"><ele>315.0</ele><time>2026-04-26T16:07:20Z</time></trkpt><trkpt lat="43.55515950661455" lon="11.222829717321535"><ele>315.0</ele><time>2026-04-26T16:07:21Z</time></trkpt><trkpt lat="43.55527274792189" lon="11.22284133318899"><ele>315.0</ele><time>2026-04-26T16:07:22Z</time></trkpt><trkpt lat="43.55538692543843" lon="11.222834607358832"><ele>315.0</ele><time>2026-04-26T16:07:23Z</time></trkpt><trkpt lat="43.555515064246805" lon="11.222792965167777"><ele>315.0</ele><time>2026-04-26T16:07:24Z</time></trkpt><trkpt lat="43.55564197926456" lon="11.222706392300893"><ele>314.75</ele><time>2026-04-26T16:07:25Z</time></trkpt><trkpt lat="43.55577373614302" lon="11.222678716970053"><ele>314.5</ele><time>2026-04-26T16:07:26Z</time></trkpt><trkpt lat="43.55589951196254" lon="11.222659255380414"><ele>314.25</ele><time>2026-04-26T16:07:27Z</time></trkpt><trkpt lat="43.556026312799325" lon="11.222738530969345"><ele>314.0</ele><time>2026-04-26T16:07:28Z</time></trkpt><trkpt lat="43.556140203732966" lon="11.222782744990397"><ele>312.75</ele><time>2026-04-26T16:07:29Z</time></trkpt><trkpt lat="43.55624437308923" lon="11.222828647372049"><ele>311.5</ele><time>2026-04-26T16:07:30Z</time></trkpt><trkpt lat="43.55635782053868" lon="11.222830688219965"><ele>310.25</ele><time>2026-04-26T16:07:31Z</time></trkpt><trkpt lat="43.55647968679793" lon="11.222796614268459"><ele>309.0</ele><time>2026-04-26T16:07:32Z</time></trkpt><trkpt lat="43.55660273145029" lon="11.22276944052127"><ele>309.0</ele><time>2026-04-26T16:07:33Z</time></trkpt><trkpt lat="43.55670454775474" lon="11.222751575535527"><ele>309.0</ele><time>2026-04-26T16:07:34Z</time></trkpt><trkpt lat="43.55679231665694" lon="11.222763147851992"><ele>309.0</ele><time>2026-04-26T16:07:35Z</time></trkpt><trkpt lat="43.55686963009969" lon="11.222805148604287"><ele>309.0</ele><time>2026-04-26T16:07:36Z</time></trkpt><trkpt lat="43.556948312134644" lon="11.222884064196295"><ele>309.0</ele><time>2026-04-26T16:07:37Z</time></trkpt><trkpt lat="43.55703117711075" lon="11.222962542218172"><ele>309.8</ele><time>2026-04-26T16:07:38Z</time></trkpt><trkpt lat="43.55707568235135" lon="11.223089942337728"><ele>310.59999999999997</ele><time>2026-04-26T16:07:39Z</time></trkpt><trkpt lat="43.55710447081835" lon="11.223228268852319"><ele>311.4</ele><time>2026-04-26T16:07:40Z</time></trkpt><trkpt lat="43.55714975213396" lon="11.223360490249874"><ele>312.2</ele><time>2026-04-26T16:07:41Z</time></trkpt><trkpt lat="43.557180287059275" lon="11.223506848379758"><ele>313.0</ele><time>2026-04-26T16:07:42Z</time></trkpt><trkpt lat="43.55726233214554" lon="11.223609968188478"><ele>309.75</ele><time>2026-04-26T16:07:43Z</time></trkpt><trkpt lat="43.55734251661863" lon="11.223732032473619"><ele>306.5</ele><time>2026-04-26T16:07:44Z</time></trkpt><trkpt lat="43.55745500933643" lon="11.223817429621183"><ele>303.25</ele><time>2026-04-26T16:07:45Z</time></trkpt><trkpt lat="43.557548215576716" lon="11.223918658786761"><ele>300.0</ele><time>2026-04-26T16:07:46Z</time></trkpt><trkpt lat="43.55763649435048" lon="11.224038588524213"><ele>298.5</ele><time>2026-04-26T16:07:47Z</time></trkpt><trkpt lat="43.557720153217055" lon="11.22417540919272"><ele>297.0</ele><time>2026-04-26T16:07:48Z</time></trkpt><trkpt lat="43.55779669829147" lon="11.224309990144041"><ele>295.5</ele><time>2026-04-26T16:07:49Z</time></trkpt><trkpt lat="43.55786451557343" lon="11.22444585561328"><ele>294.0</ele><time>2026-04-26T16:07:50Z</time></trkpt><trkpt lat="43.5578955459092" lon="11.224618526258665"><ele>294.0</ele><time>2026-04-26T16:07:51Z</time></trkpt><trkpt lat="43.5579733623183" lon="11.224727715187612"><ele>294.0</ele><time>2026-04-26T16:07:52Z</time></trkpt><trkpt lat="43.55803878786839" lon="11.224814263854112"><ele>294.0</ele><time>2026-04-26T16:07:53Z</time></trkpt><trkpt lat="43.558368777145326" lon="11.224586676001895"><ele>294.0</ele><time>2026-04-26T16:07:55Z</time></trkpt><trkpt lat="43.5584970632717" lon="11.224560907594219"><ele>294.0</ele><time>2026-04-26T16:07:56Z</time></trkpt><trkpt lat="43.558610053168856" lon="11.224561007439402"><ele>294.0</ele><time>2026-04-26T16:07:57Z</time></trkpt><trkpt lat="43.55872460691373" lon="11.224603493770507"><ele>294.0</ele><time>2026-04-26T16:07:58Z</time></trkpt><trkpt lat="43.558827513839795" lon="11.224705623956353"><ele>290.75</ele><time>2026-04-26T16:07:59Z</time></trkpt><trkpt lat="43.55893399282601" lon="11.224839553715487"><ele>287.5</ele><time>2026-04-26T16:08:00Z</time></trkpt><trkpt lat="43.559025901031156" lon="11.224962932250587"><ele>284.25</ele><time>2026-04-26T16:08:01Z</time></trkpt><trkpt lat="43.55912226267995" lon="11.225072194393526"><ele>281.0</ele><time>2026-04-26T16:08:02Z</time></trkpt><trkpt lat="43.55922746721248" lon="11.225144709513298"><ele>281.0</ele><time>2026-04-26T16:08:03Z</time></trkpt><trkpt lat="43.5593306314207" lon="11.225177934544659"><ele>281.0</ele><time>2026-04-26T16:08:04Z</time></trkpt><trkpt lat="43.55943686170605" lon="11.225159084334763"><ele>281.0</ele><time>2026-04-26T16:08:05Z</time></trkpt><trkpt lat="43.559557534332264" lon="11.225103330906581"><ele>281.0</ele><time>2026-04-26T16:08:06Z</time></trkpt><trkpt lat="43.55967831898704" lon="11.225019293792563"><ele>280.25</ele><time>2026-04-26T16:08:07Z</time></trkpt><trkpt lat="43.55979277377324" lon="11.224946867292289"><ele>279.5</ele><time>2026-04-26T16:08:08Z</time></trkpt><trkpt lat="43.559908380838294" lon="11.224889330642068"><ele>278.75</ele><time>2026-04-26T16:08:09Z</time></trkpt><trkpt lat="43.56002839175966" lon="11.224828112532803"><ele>278.0</ele><time>2026-04-26T16:08:10Z</time></trkpt><trkpt lat="43.560149476690604" lon="11.22476372386613"><ele>278.0</ele><time>2026-04-26T16:08:11Z</time></trkpt><trkpt lat="43.56027427393203" lon="11.22470060621345"><ele>278.0</ele><time>2026-04-26T16:08:12Z</time></trkpt><trkpt lat="43.56041216996642" lon="11.224623697322249"><ele>278.0</ele><time>2026-04-26T16:08:13Z</time></trkpt><trkpt lat="43.56053602192748" lon="11.224559485783896"><ele>278.0</ele><time>2026-04-26T16:08:14Z</time></trkpt><trkpt lat="43.56066172343635" lon="11.224510924681196"><ele>275.0</ele><time>2026-04-26T16:08:15Z</time></trkpt><trkpt lat="43.56078470203208" lon="11.224451926383225"><ele>272.0</ele><time>2026-04-26T16:08:16Z</time></trkpt><trkpt lat="43.56090885605232" lon="11.224382776871733"><ele>269.0</ele><time>2026-04-26T16:08:17Z</time></trkpt><trkpt lat="43.561039447231934" lon="11.224322504968319"><ele>266.0</ele><time>2026-04-26T16:08:18Z</time></trkpt><trkpt lat="43.56115292050128" lon="11.224242437695676"><ele>263.0</ele><time>2026-04-26T16:08:19Z</time></trkpt><trkpt lat="43.56125074628892" lon="11.224131008816249"><ele>260.0</ele><time>2026-04-26T16:08:20Z</time></trkpt><trkpt lat="43.561348839316366" lon="11.223999993027821"><ele>257.0</ele><time>2026-04-26T16:08:21Z</time></trkpt><trkpt lat="43.56143940503484" lon="11.22386409661097"><ele>254.0</ele><time>2026-04-26T16:08:22Z</time></trkpt><trkpt lat="43.56153963336708" lon="11.223736469136085"><ele>254.0</ele><time>2026-04-26T16:08:23Z</time></trkpt><trkpt lat="43.56164964545122" lon="11.223626845245002"><ele>254.0</ele><time>2026-04-26T16:08:24Z</time></trkpt><trkpt lat="43.561758915624125" lon="11.223501292213946"><ele>254.0</ele><time>2026-04-26T16:08:25Z</time></trkpt><trkpt lat="43.56188158001069" lon="11.223455041384792"><ele>254.0</ele><time>2026-04-26T16:08:26Z</time></trkpt><trkpt lat="43.56200098998184" lon="11.2233959375443"><ele>252.00000000000003</ele><time>2026-04-26T16:08:27Z</time></trkpt><trkpt lat="43.562102135183224" lon="11.223320439160453"><ele>250.0</ele><time>2026-04-26T16:08:28Z</time></trkpt><trkpt lat="43.562169749136004" lon="11.223257405730015"><ele>248.0</ele><time>2026-04-26T16:08:29Z</time></trkpt><trkpt lat="43.562210550433086" lon="11.223168760159503"><ele>246.0</ele><time>2026-04-26T16:08:30Z</time></trkpt><trkpt lat="43.56221074536208" lon="11.223054776368839"><ele>244.00000000000003</ele><time>2026-04-26T16:08:31Z</time></trkpt><trkpt lat="43.56216331762929" lon="11.222952873275098"><ele>242.0</ele><time>2026-04-26T16:08:32Z</time></trkpt><trkpt lat="43.56209246308982" lon="11.222867587983371"><ele>241.6</ele><time>2026-04-26T16:08:33Z</time></trkpt><trkpt lat="43.56199014498154" lon="11.222799812990756"><ele>241.2</ele><time>2026-04-26T16:08:34Z</time></trkpt><trkpt lat="43.56190203007168" lon="11.222729325618257"><ele>240.8</ele><time>2026-04-26T16:08:35Z</time></trkpt><trkpt lat="43.56182399077519" lon="11.222667300207618"><ele>240.4</ele><time>2026-04-26T16:08:36Z</time></trkpt><trkpt lat="43.56172733547229" lon="11.222638260400515"><ele>240.0</ele><time>2026-04-26T16:08:37Z</time></trkpt><trkpt lat="43.561630353062206" lon="11.222627823402581"><ele>240.0</ele><time>2026-04-26T16:08:38Z</time></trkpt><trkpt lat="43.56153437411093" lon="11.222609479251295"><ele>240.0</ele><time>2026-04-26T16:08:39Z</time></trkpt><trkpt lat="43.56144001708111" lon="11.222585586690098"><ele>240.0</ele><time>2026-04-26T16:08:40Z</time></trkpt><trkpt lat="43.561347436379265" lon="11.22255175057796"><ele>240.0</ele><time>2026-04-26T16:08:41Z</time></trkpt><trkpt lat="43.561274538857326" lon="11.22248300945989"><ele>240.0</ele><time>2026-04-26T16:08:42Z</time></trkpt><trkpt lat="43.5612387065765" lon="11.222365631216789"><ele>240.2</ele><time>2026-04-26T16:08:43Z</time></trkpt><trkpt lat="43.561263789071646" lon="11.222247835709142"><ele>240.4</ele><time>2026-04-26T16:08:44Z</time></trkpt><trkpt lat="43.56128097922426" lon="11.22211361065426"><ele>240.60000000000002</ele><time>2026-04-26T16:08:45Z</time></trkpt><trkpt lat="43.561346507955584" lon="11.221996967763657"><ele>240.8</ele><time>2026-04-26T16:08:46Z</time></trkpt><trkpt lat="43.56141743269224" lon="11.221906980930628"><ele>241.0</ele><time>2026-04-26T16:08:47Z</time></trkpt><trkpt lat="43.56153079154601" lon="11.221885381802608"><ele>241.0</ele><time>2026-04-26T16:08:48Z</time></trkpt><trkpt lat="43.561638830492576" lon="11.221845786194523"><ele>241.0</ele><time>2026-04-26T16:08:49Z</time></trkpt><trkpt lat="43.56173975120039" lon="11.221803727095828"><ele>241.0</ele><time>2026-04-26T16:08:50Z</time></trkpt><trkpt lat="43.56185076062421" lon="11.221747286056717"><ele>241.0</ele><time>2026-04-26T16:08:51Z</time></trkpt><trkpt lat="43.561958225320865" lon="11.221693144667347"><ele>238.25</ele><time>2026-04-26T16:08:52Z</time></trkpt><trkpt lat="43.56208244277084" lon="11.221673589735312"><ele>235.5</ele><time>2026-04-26T16:08:53Z</time></trkpt><trkpt lat="43.56219753304988" lon="11.221620849353219"><ele>232.75</ele><time>2026-04-26T16:08:54Z</time></trkpt><trkpt lat="43.56231623912672" lon="11.221564060076316"><ele>230.0</ele><time>2026-04-26T16:08:55Z</time></trkpt><trkpt lat="43.56243492465276" lon="11.221506345266041"><ele>230.4</ele><time>2026-04-26T16:08:56Z</time></trkpt><trkpt lat="43.56254676259667" lon="11.221427833620233"><ele>230.8</ele><time>2026-04-26T16:08:57Z</time></trkpt><trkpt lat="43.562652618405636" lon="11.221385517264277"><ele>231.2</ele><time>2026-04-26T16:08:58Z</time></trkpt><trkpt lat="43.56274204447021" lon="11.221347032395537"><ele>231.6</ele><time>2026-04-26T16:08:59Z</time></trkpt><trkpt lat="43.562833139429536" lon="11.221311628866946"><ele>232.0</ele><time>2026-04-26T16:09:00Z</time></trkpt><trkpt lat="43.56292585673192" lon="11.22127990639824"><ele>232.0</ele><time>2026-04-26T16:09:01Z</time></trkpt><trkpt lat="43.56301955302162" lon="11.221239440649533"><ele>232.0</ele><time>2026-04-26T16:09:02Z</time></trkpt><trkpt lat="43.563100957392344" lon="11.221203929868336"><ele>232.0</ele><time>2026-04-26T16:09:03Z</time></trkpt><trkpt lat="43.56319597076653" lon="11.221197535890093"><ele>232.0</ele><time>2026-04-26T16:09:04Z</time></trkpt><trkpt lat="43.56328479959657" lon="11.221160904913836"><ele>232.0</ele><time>2026-04-26T16:09:05Z</time></trkpt><trkpt lat="43.56337060878799" lon="11.221125063861718"><ele>231.99999999999997</ele><time>2026-04-26T16:09:06Z</time></trkpt><trkpt lat="43.56344784949482" lon="11.221083240176739"><ele>232.0</ele><time>2026-04-26T16:09:07Z</time></trkpt><trkpt lat="43.56351784985308" lon="11.221018663227742"><ele>232.0</ele><time>2026-04-26T16:09:08Z</time></trkpt><trkpt lat="43.563580882885844" lon="11.220950054155956"><ele>232.0</ele><time>2026-04-26T16:09:09Z</time></trkpt><trkpt lat="43.56362818531278" lon="11.220889847448086"><ele>231.99999999999997</ele><time>2026-04-26T16:09:11Z</time></trkpt><trkpt lat="43.563685294545536" lon="11.220765562952614"><ele>232.0</ele><time>2026-04-26T16:10:08Z</time></trkpt><trkpt lat="43.563723379233565" lon="11.22067781030988"><ele>228.2</ele><time>2026-04-26T16:10:09Z</time></trkpt><trkpt lat="43.56375871396016" lon="11.220580874834878"><ele>224.39999999999998</ele><time>2026-04-26T16:10:10Z</time></trkpt><trkpt lat="43.5637897256689" lon="11.22047461025237"><ele>220.60000000000002</ele><time>2026-04-26T16:10:11Z</time></trkpt><trkpt lat="43.56381982562239" lon="11.220361575913573"><ele>216.8</ele><time>2026-04-26T16:10:12Z</time></trkpt><trkpt lat="43.56385499481779" lon="11.220221561419589"><ele>213.0</ele><time>2026-04-26T16:10:13Z</time></trkpt><trkpt lat="43.56389090681884" lon="11.220070934436054"><ele>213.0</ele><time>2026-04-26T16:10:14Z</time></trkpt><trkpt lat="43.56392800009588" lon="11.219915547101204"><ele>213.0</ele><time>2026-04-26T16:10:15Z</time></trkpt><trkpt lat="43.563966085288236" lon="11.219761077069517"><ele>213.0</ele><time>2026-04-26T16:10:16Z</time></trkpt><trkpt lat="43.5640064691723" lon="11.219597491103409"><ele>213.0</ele><time>2026-04-26T16:10:17Z</time></trkpt><trkpt lat="43.56404850327716" lon="11.2194340594023"><ele>213.5</ele><time>2026-04-26T16:10:18Z</time></trkpt><trkpt lat="43.56406620826375" lon="11.219260400317577"><ele>214.0</ele><time>2026-04-26T16:10:19Z</time></trkpt><trkpt lat="43.5641093768203" lon="11.219098960120782"><ele>214.5</ele><time>2026-04-26T16:10:20Z</time></trkpt><trkpt lat="43.56414686919319" lon="11.218937374420426"><ele>215.0</ele><time>2026-04-26T16:10:21Z</time></trkpt><trkpt lat="43.56418482402737" lon="11.21877724143066"><ele>215.75</ele><time>2026-04-26T16:10:22Z</time></trkpt><trkpt lat="43.56425336789675" lon="11.218621570315872"><ele>216.5</ele><time>2026-04-26T16:10:23Z</time></trkpt><trkpt lat="43.56429363544858" lon="11.218456223996176"><ele>217.25</ele><time>2026-04-26T16:10:24Z</time></trkpt><trkpt lat="43.564337099004796" lon="11.218280043835692"><ele>218.0</ele><time>2026-04-26T16:10:25Z</time></trkpt><trkpt lat="43.564378034649614" lon="11.218113939185148"><ele>218.0</ele><time>2026-04-26T16:10:26Z</time></trkpt><trkpt lat="43.56441916463411" lon="11.217942487189674"><ele>218.0</ele><time>2026-04-26T16:10:27Z</time></trkpt><trkpt lat="43.56446006332652" lon="11.217773443799029"><ele>218.0</ele><time>2026-04-26T16:10:28Z</time></trkpt><trkpt lat="43.56450389243276" lon="11.217611795168018"><ele>218.0</ele><time>2026-04-26T16:10:29Z</time></trkpt><trkpt lat="43.56453780813187" lon="11.217451070417093"><ele>214.5</ele><time>2026-04-26T16:10:30Z</time></trkpt><trkpt lat="43.56459113039691" lon="11.217309119395116"><ele>211.0</ele><time>2026-04-26T16:10:31Z</time></trkpt><trkpt lat="43.56466746294589" lon="11.217186265102622"><ele>207.5</ele><time>2026-04-26T16:10:32Z</time></trkpt><trkpt lat="43.56475906670862" lon="11.217072517407344"><ele>204.0</ele><time>2026-04-26T16:10:33Z</time></trkpt><trkpt lat="43.564860338696334" lon="11.216978698067594"><ele>204.0</ele><time>2026-04-26T16:10:34Z</time></trkpt><trkpt lat="43.564977608534534" lon="11.21692366673663"><ele>204.0</ele><time>2026-04-26T16:10:35Z</time></trkpt><trkpt lat="43.56508880645069" lon="11.216856174643725"><ele>204.0</ele><time>2026-04-26T16:10:36Z</time></trkpt><trkpt lat="43.565209277645785" lon="11.216807266455108"><ele>204.0</ele><time>2026-04-26T16:10:37Z</time></trkpt><trkpt lat="43.56531811013775" lon="11.216754827298637"><ele>204.0</ele><time>2026-04-26T16:10:38Z</time></trkpt><trkpt lat="43.56543536932874" lon="11.21670339855735"><ele>204.0</ele><time>2026-04-26T16:10:39Z</time></trkpt><trkpt lat="43.565555738996125" lon="11.216655680720685"><ele>204.0</ele><time>2026-04-26T16:10:40Z</time></trkpt><trkpt lat="43.56568171888663" lon="11.216619533807728"><ele>204.0</ele><time>2026-04-26T16:10:41Z</time></trkpt><trkpt lat="43.56580535783998" lon="11.216558972948475"><ele>204.0</ele><time>2026-04-26T16:10:42Z</time></trkpt><trkpt lat="43.56593539405056" lon="11.216499990227076"><ele>204.0</ele><time>2026-04-26T16:10:43Z</time></trkpt><trkpt lat="43.56606545860273" lon="11.216441703429252"><ele>204.0</ele><time>2026-04-26T16:10:44Z</time></trkpt><trkpt lat="43.56619875102456" lon="11.216384431452047"><ele>204.0</ele><time>2026-04-26T16:10:45Z</time></trkpt><trkpt lat="43.566334493645925" lon="11.216336592126883"><ele>204.75</ele><time>2026-04-26T16:10:46Z</time></trkpt><trkpt lat="43.56646850110901" lon="11.21629456314114"><ele>205.5</ele><time>2026-04-26T16:10:47Z</time></trkpt><trkpt lat="43.56661424116574" lon="11.216276130811542"><ele>206.25</ele><time>2026-04-26T16:10:48Z</time></trkpt><trkpt lat="43.56675088896137" lon="11.216227008085353"><ele>207.0</ele><time>2026-04-26T16:10:49Z</time></trkpt><trkpt lat="43.56689140473513" lon="11.216197513887407"><ele>204.75</ele><time>2026-04-26T16:10:50Z</time></trkpt><trkpt lat="43.56702876820113" lon="11.216164542128036"><ele>202.5</ele><time>2026-04-26T16:10:51Z</time></trkpt><trkpt lat="43.567172310025924" lon="11.2161600111335"><ele>200.25</ele><time>2026-04-26T16:10:52Z</time></trkpt><trkpt lat="43.5673137329266" lon="11.216133666567412"><ele>198.0</ele><time>2026-04-26T16:10:53Z</time></trkpt><trkpt lat="43.56744683755904" lon="11.216101545914738"><ele>198.0</ele><time>2026-04-26T16:10:54Z</time></trkpt><trkpt lat="43.56758050705581" lon="11.21606771219586"><ele>198.0</ele><time>2026-04-26T16:10:55Z</time></trkpt><trkpt lat="43.56771930334726" lon="11.216031640882573"><ele>198.0</ele><time>2026-04-26T16:10:56Z</time></trkpt><trkpt lat="43.56785920658447" lon="11.215991002845747"><ele>198.0</ele><time>2026-04-26T16:10:57Z</time></trkpt><trkpt lat="43.56800246160263" lon="11.215944111849451"><ele>195.75</ele><time>2026-04-26T16:10:58Z</time></trkpt><trkpt lat="43.56814705126019" lon="11.21589368271516"><ele>193.5</ele><time>2026-04-26T16:10:59Z</time></trkpt><trkpt lat="43.56828457103851" lon="11.215840571454454"><ele>191.25</ele><time>2026-04-26T16:11:00Z</time></trkpt><trkpt lat="43.56842154784609" lon="11.215787915238108"><ele>189.0</ele><time>2026-04-26T16:11:01Z</time></trkpt><trkpt lat="43.56855148822411" lon="11.215737483780808"><ele>189.0</ele><time>2026-04-26T16:11:02Z</time></trkpt><trkpt lat="43.56868223945457" lon="11.215684186786762"><ele>189.0</ele><time>2026-04-26T16:11:03Z</time></trkpt><trkpt lat="43.56881614967648" lon="11.215626382838792"><ele>189.0</ele><time>2026-04-26T16:11:04Z</time></trkpt><trkpt lat="43.56894813035884" lon="11.21557127627523"><ele>189.0</ele><time>2026-04-26T16:11:05Z</time></trkpt><trkpt lat="43.56907625842255" lon="11.215517735029277"><ele>188.25</ele><time>2026-04-26T16:11:06Z</time></trkpt><trkpt lat="43.569204428410686" lon="11.215455991489177"><ele>187.5</ele><time>2026-04-26T16:11:07Z</time></trkpt><trkpt lat="43.56933418769152" lon="11.215411388181156"><ele>186.75</ele><time>2026-04-26T16:11:08Z</time></trkpt><trkpt lat="43.569450136720334" lon="11.215365239171227"><ele>186.0</ele><time>2026-04-26T16:11:09Z</time></trkpt><trkpt lat="43.56957493361382" lon="11.215317205573497"><ele>186.0</ele><time>2026-04-26T16:11:10Z</time></trkpt><trkpt lat="43.56970473442716" lon="11.215268169152132"><ele>186.0</ele><time>2026-04-26T16:11:11Z</time></trkpt><trkpt lat="43.56982527331127" lon="11.215222631736783"><ele>186.0</ele><time>2026-04-26T16:11:12Z</time></trkpt><trkpt lat="43.56994434365413" lon="11.215177649096805"><ele>186.0</ele><time>2026-04-26T16:11:13Z</time></trkpt><trkpt lat="43.57006974556492" lon="11.215128521389083"><ele>186.0</ele><time>2026-04-26T16:11:14Z</time></trkpt><trkpt lat="43.57018544649217" lon="11.215051738545204"><ele>186.0</ele><time>2026-04-26T16:11:15Z</time></trkpt><trkpt lat="43.57030851972643" lon="11.21500839666299"><ele>186.0</ele><time>2026-04-26T16:11:16Z</time></trkpt><trkpt lat="43.57043548889684" lon="11.215003682829465"><ele>186.0</ele><time>2026-04-26T16:11:17Z</time></trkpt><trkpt lat="43.57056093408549" lon="11.214995583611122"><ele>185.20000000000002</ele><time>2026-04-26T16:11:18Z</time></trkpt><trkpt lat="43.57068444624135" lon="11.215007200999871"><ele>184.4</ele><time>2026-04-26T16:11:19Z</time></trkpt><trkpt lat="43.57080581932151" lon="11.215038872799171"><ele>183.6</ele><time>2026-04-26T16:11:20Z</time></trkpt><trkpt lat="43.57090736454643" lon="11.21508947752877"><ele>182.8</ele><time>2026-04-26T16:11:21Z</time></trkpt><trkpt lat="43.57098573131637" lon="11.215148083338306"><ele>182.0</ele><time>2026-04-26T16:11:22Z</time></trkpt><trkpt lat="43.57105400344812" lon="11.215207126575345"><ele>182.0</ele><time>2026-04-26T16:11:23Z</time></trkpt><trkpt lat="43.57111330390137" lon="11.215267310964045"><ele>182.0</ele><time>2026-04-26T16:11:24Z</time></trkpt><trkpt lat="43.57118349851811" lon="11.215316160061729"><ele>182.0</ele><time>2026-04-26T16:11:25Z</time></trkpt><trkpt lat="43.57122495817972" lon="11.215410840810243"><ele>182.0</ele><time>2026-04-26T16:11:26Z</time></trkpt><trkpt lat="43.571293831961256" lon="11.215479497477741"><ele>182.0</ele><time>2026-04-26T16:11:27Z</time></trkpt><trkpt lat="43.57135487538651" lon="11.215561512414718"><ele>182.0</ele><time>2026-04-26T16:11:28Z</time></trkpt><trkpt lat="43.571412526979266" lon="11.215640062176695"><ele>181.6</ele><time>2026-04-26T16:11:29Z</time></trkpt><trkpt lat="43.57146917543761" lon="11.215727372729964"><ele>181.2</ele><time>2026-04-26T16:11:30Z</time></trkpt><trkpt lat="43.57154379499269" lon="11.21581427795131"><ele>180.8</ele><time>2026-04-26T16:11:31Z</time></trkpt><trkpt lat="43.571610320333725" lon="11.215911893039394"><ele>180.4</ele><time>2026-04-26T16:11:32Z</time></trkpt><trkpt lat="43.571673626356976" lon="11.216004374832437"><ele>180.0</ele><time>2026-04-26T16:11:33Z</time></trkpt><trkpt lat="43.57174158195728" lon="11.216100041017995"><ele>180.0</ele><time>2026-04-26T16:11:34Z</time></trkpt><trkpt lat="43.57181880441293" lon="11.216195623386692"><ele>180.0</ele><time>2026-04-26T16:11:35Z</time></trkpt><trkpt lat="43.571900820738314" lon="11.216282033164996"><ele>180.0</ele><time>2026-04-26T16:11:36Z</time></trkpt><trkpt lat="43.571992247801155" lon="11.216357804837978"><ele>180.0</ele><time>2026-04-26T16:11:37Z</time></trkpt><trkpt lat="43.57208887463819" lon="11.216423937085851"><ele>180.0</ele><time>2026-04-26T16:11:38Z</time></trkpt><trkpt lat="43.57219206704086" lon="11.216481988224059"><ele>181.0</ele><time>2026-04-26T16:11:39Z</time></trkpt><trkpt lat="43.5722968137525" lon="11.216533014285758"><ele>182.0</ele><time>2026-04-26T16:11:40Z</time></trkpt><trkpt lat="43.572401496342586" lon="11.216553544546196"><ele>183.0</ele><time>2026-04-26T16:11:41Z</time></trkpt><trkpt lat="43.57250390148551" lon="11.216569874121541"><ele>184.0</ele><time>2026-04-26T16:11:42Z</time></trkpt><trkpt lat="43.57260024944411" lon="11.216569525096201"><ele>185.0</ele><time>2026-04-26T16:11:43Z</time></trkpt><trkpt lat="43.57272066048331" lon="11.216564370745303"><ele>185.0</ele><time>2026-04-26T16:11:44Z</time></trkpt><trkpt lat="43.57282747653181" lon="11.216542987640548"><ele>185.0</ele><time>2026-04-26T16:11:45Z</time></trkpt><trkpt lat="43.572936876281254" lon="11.216508751259521"><ele>185.0</ele><time>2026-04-26T16:11:46Z</time></trkpt><trkpt lat="43.57304478482916" lon="11.216463906624952"><ele>185.0</ele><time>2026-04-26T16:11:47Z</time></trkpt><trkpt lat="43.573145998611366" lon="11.216416641501525"><ele>185.0</ele><time>2026-04-26T16:11:48Z</time></trkpt><trkpt lat="43.57323874880542" lon="11.21635928105587"><ele>183.8</ele><time>2026-04-26T16:11:49Z</time></trkpt><trkpt lat="43.573317167599875" lon="11.216296106853834"><ele>182.6</ele><time>2026-04-26T16:11:50Z</time></trkpt><trkpt lat="43.57339219777839" lon="11.21623193746531"><ele>181.39999999999998</ele><time>2026-04-26T16:11:51Z</time></trkpt><trkpt lat="43.573471720632114" lon="11.216162392885867"><ele>180.2</ele><time>2026-04-26T16:11:52Z</time></trkpt><trkpt lat="43.57356012481576" lon="11.216094896187213"><ele>179.0</ele><time>2026-04-26T16:11:53Z</time></trkpt><trkpt lat="43.57366057369864" lon="11.21604063461041"><ele>178.5</ele><time>2026-04-26T16:11:54Z</time></trkpt><trkpt lat="43.57376123154238" lon="11.215980601381476"><ele>178.0</ele><time>2026-04-26T16:11:55Z</time></trkpt><trkpt lat="43.573871252352376" lon="11.215914719505784"><ele>177.5</ele><time>2026-04-26T16:11:56Z</time></trkpt><trkpt lat="43.5739799440752" lon="11.215851589820273"><ele>177.0</ele><time>2026-04-26T16:11:57Z</time></trkpt><trkpt lat="43.57409656579146" lon="11.215808009395584"><ele>177.0</ele><time>2026-04-26T16:11:58Z</time></trkpt><trkpt lat="43.574217124399766" lon="11.215757261604772"><ele>177.0</ele><time>2026-04-26T16:11:59Z</time></trkpt><trkpt lat="43.57434061907595" lon="11.215703282191033"><ele>177.0</ele><time>2026-04-26T16:12:00Z</time></trkpt><trkpt lat="43.574466715510894" lon="11.215646336781907"><ele>177.0</ele><time>2026-04-26T16:12:01Z</time></trkpt><trkpt lat="43.5745999749989" lon="11.215592380983333"><ele>176.75</ele><time>2026-04-26T16:12:02Z</time></trkpt><trkpt lat="43.574733571500765" lon="11.215539614430794"><ele>176.5</ele><time>2026-04-26T16:12:03Z</time></trkpt><trkpt lat="43.574867970332235" lon="11.215479297814529"><ele>176.25</ele><time>2026-04-26T16:12:04Z</time></trkpt><trkpt lat="43.57500268894471" lon="11.215427246985712"><ele>176.0</ele><time>2026-04-26T16:12:05Z</time></trkpt><trkpt lat="43.57513719245432" lon="11.215379835668783"><ele>176.0</ele><time>2026-04-26T16:12:06Z</time></trkpt><trkpt lat="43.575267232784604" lon="11.215332327777471"><ele>176.0</ele><time>2026-04-26T16:12:07Z</time></trkpt><trkpt lat="43.57539543540716" lon="11.215280112980876"><ele>176.0</ele><time>2026-04-26T16:12:08Z</time></trkpt><trkpt lat="43.57552148516597" lon="11.215218960649143"><ele>176.0</ele><time>2026-04-26T16:12:09Z</time></trkpt><trkpt lat="43.57565058931521" lon="11.215162415374605"><ele>176.25</ele><time>2026-04-26T16:12:10Z</time></trkpt><trkpt lat="43.575782203494676" lon="11.215103391480302"><ele>176.5</ele><time>2026-04-26T16:12:11Z</time></trkpt><trkpt lat="43.575908085736096" lon="11.215038495269418"><ele>176.75</ele><time>2026-04-26T16:12:12Z</time></trkpt><trkpt lat="43.576040582444584" lon="11.214993141203088"><ele>177.0</ele><time>2026-04-26T16:12:13Z</time></trkpt><trkpt lat="43.576171552034545" lon="11.214937348783227"><ele>177.25</ele><time>2026-04-26T16:12:14Z</time></trkpt><trkpt lat="43.576302868815056" lon="11.21488029886847"><ele>177.5</ele><time>2026-04-26T16:12:15Z</time></trkpt><trkpt lat="43.57643500447579" lon="11.214823767884292"><ele>177.75</ele><time>2026-04-26T16:12:16Z</time></trkpt><trkpt lat="43.57656482201082" lon="11.214766140940572"><ele>178.0</ele><time>2026-04-26T16:12:17Z</time></trkpt><trkpt lat="43.57669351569812" lon="11.214711197023156"><ele>177.25</ele><time>2026-04-26T16:12:18Z</time></trkpt><trkpt lat="43.576820347925626" lon="11.214656807229783"><ele>176.5</ele><time>2026-04-26T16:12:19Z</time></trkpt><trkpt lat="43.576946783356455" lon="11.21460168416708"><ele>175.75</ele><time>2026-04-26T16:12:20Z</time></trkpt><trkpt lat="43.57706829772821" lon="11.214541315100874"><ele>175.0</ele><time>2026-04-26T16:12:21Z</time></trkpt><trkpt lat="43.57718839634671" lon="11.214484611451669"><ele>175.0</ele><time>2026-04-26T16:12:22Z</time></trkpt><trkpt lat="43.5773052356393" lon="11.214425639832658"><ele>175.0</ele><time>2026-04-26T16:12:23Z</time></trkpt><trkpt lat="43.577413322213275" lon="11.214344690562076"><ele>175.0</ele><time>2026-04-26T16:12:24Z</time></trkpt><trkpt lat="43.57751329765087" lon="11.214249753201376"><ele>175.0</ele><time>2026-04-26T16:12:25Z</time></trkpt><trkpt lat="43.57760918990617" lon="11.21412806166024"><ele>175.0</ele><time>2026-04-26T16:12:26Z</time></trkpt><trkpt lat="43.577698100490366" lon="11.214003900387837"><ele>175.0</ele><time>2026-04-26T16:12:27Z</time></trkpt><trkpt lat="43.577787469392135" lon="11.213880006064292"><ele>175.0</ele><time>2026-04-26T16:12:28Z</time></trkpt><trkpt lat="43.57787278373424" lon="11.213758179029496"><ele>175.0</ele><time>2026-04-26T16:12:29Z</time></trkpt><trkpt lat="43.577958631168876" lon="11.213639391408334"><ele>175.25</ele><time>2026-04-26T16:12:30Z</time></trkpt><trkpt lat="43.57804820940917" lon="11.213521806028561"><ele>175.5</ele><time>2026-04-26T16:12:31Z</time></trkpt><trkpt lat="43.578137158856244" lon="11.213399184412053"><ele>175.75</ele><time>2026-04-26T16:12:32Z</time></trkpt><trkpt lat="43.57822569410494" lon="11.213276302308959"><ele>176.0</ele><time>2026-04-26T16:12:33Z</time></trkpt><trkpt lat="43.57831495265553" lon="11.213153204845279"><ele>175.75</ele><time>2026-04-26T16:12:34Z</time></trkpt><trkpt lat="43.57840663912794" lon="11.2130300394112"><ele>175.5</ele><time>2026-04-26T16:12:35Z</time></trkpt><trkpt lat="43.57850032353371" lon="11.212913320715954"><ele>175.25</ele><time>2026-04-26T16:12:36Z</time></trkpt><trkpt lat="43.578601209836656" lon="11.212812266560482"><ele>175.0</ele><time>2026-04-26T16:12:37Z</time></trkpt><trkpt lat="43.5787059056143" lon="11.21273164473786"><ele>175.0</ele><time>2026-04-26T16:12:38Z</time></trkpt><trkpt lat="43.57881930089005" lon="11.212657460084287"><ele>175.0</ele><time>2026-04-26T16:12:39Z</time></trkpt><trkpt lat="43.57893722518702" lon="11.212591450731143"><ele>175.0</ele><time>2026-04-26T16:12:40Z</time></trkpt><trkpt lat="43.57906097662262" lon="11.212531419413862"><ele>175.0</ele><time>2026-04-26T16:12:41Z</time></trkpt><trkpt lat="43.57917805866507" lon="11.212481212920924"><ele>175.0</ele><time>2026-04-26T16:12:42Z</time></trkpt><trkpt lat="43.57929606588976" lon="11.21243176479406"><ele>175.0</ele><time>2026-04-26T16:12:43Z</time></trkpt><trkpt lat="43.5794120439274" lon="11.212384003647436"><ele>175.0</ele><time>2026-04-26T16:12:44Z</time></trkpt><trkpt lat="43.57952566379406" lon="11.212336316457845"><ele>175.0</ele><time>2026-04-26T16:12:45Z</time></trkpt><trkpt lat="43.57963179585558" lon="11.212283376348514"><ele>174.8</ele><time>2026-04-26T16:12:46Z</time></trkpt><trkpt lat="43.579724587164414" lon="11.212224331695264"><ele>174.6</ele><time>2026-04-26T16:12:47Z</time></trkpt><trkpt lat="43.57982650231384" lon="11.21217270183888"><ele>174.39999999999998</ele><time>2026-04-26T16:12:48Z</time></trkpt><trkpt lat="43.579936860626425" lon="11.212136682825669"><ele>174.2</ele><time>2026-04-26T16:12:49Z</time></trkpt><trkpt lat="43.58005364090807" lon="11.212117107971052"><ele>174.0</ele><time>2026-04-26T16:12:50Z</time></trkpt><trkpt lat="43.58016738939557" lon="11.212097607423772"><ele>174.0</ele><time>2026-04-26T16:12:51Z</time></trkpt><trkpt lat="43.58028965287999" lon="11.212083546937526"><ele>174.0</ele><time>2026-04-26T16:12:52Z</time></trkpt><trkpt lat="43.580411202648726" lon="11.212060658666449"><ele>174.0</ele><time>2026-04-26T16:12:53Z</time></trkpt><trkpt lat="43.5805330500614" lon="11.212040730657977"><ele>174.0</ele><time>2026-04-26T16:12:54Z</time></trkpt><trkpt lat="43.580655808385934" lon="11.212021277186548"><ele>174.0</ele><time>2026-04-26T16:12:55Z</time></trkpt><trkpt lat="43.58078045145697" lon="11.212002237899828"><ele>174.0</ele><time>2026-04-26T16:12:56Z</time></trkpt><trkpt lat="43.58090127274915" lon="11.211987978782702"><ele>174.0</ele><time>2026-04-26T16:12:57Z</time></trkpt><trkpt lat="43.58102131440219" lon="11.211990295721993"><ele>174.0</ele><time>2026-04-26T16:12:58Z</time></trkpt><trkpt lat="43.581143591946436" lon="11.212002621860572"><ele>174.5</ele><time>2026-04-26T16:12:59Z</time></trkpt><trkpt lat="43.58126845108747" lon="11.212040768223872"><ele>175.0</ele><time>2026-04-26T16:13:00Z</time></trkpt><trkpt lat="43.58139217989267" lon="11.21208351070689"><ele>175.5</ele><time>2026-04-26T16:13:01Z</time></trkpt><trkpt lat="43.5815221745092" lon="11.212099576232536"><ele>176.0</ele><time>2026-04-26T16:13:02Z</time></trkpt><trkpt lat="43.581657452424345" lon="11.212083552990034"><ele>176.0</ele><time>2026-04-26T16:13:03Z</time></trkpt><trkpt lat="43.581788151018124" lon="11.212029670220662"><ele>176.0</ele><time>2026-04-26T16:13:04Z</time></trkpt><trkpt lat="43.58191842969669" lon="11.211961926267445"><ele>176.0</ele><time>2026-04-26T16:13:05Z</time></trkpt><trkpt lat="43.582049601401934" lon="11.2118979147798"><ele>176.0</ele><time>2026-04-26T16:13:06Z</time></trkpt><trkpt lat="43.58217785515231" lon="11.211839269722498"><ele>176.5</ele><time>2026-04-26T16:13:07Z</time></trkpt><trkpt lat="43.58230620055292" lon="11.211780908783334"><ele>177.0</ele><time>2026-04-26T16:13:08Z</time></trkpt><trkpt lat="43.582442133502646" lon="11.211719163656543"><ele>177.5</ele><time>2026-04-26T16:13:09Z</time></trkpt><trkpt lat="43.582574984257384" lon="11.211653412834176"><ele>178.0</ele><time>2026-04-26T16:13:10Z</time></trkpt><trkpt lat="43.58270936225469" lon="11.211586808122398"><ele>178.0</ele><time>2026-04-26T16:13:11Z</time></trkpt><trkpt lat="43.58284560081103" lon="11.211530699405484"><ele>178.0</ele><time>2026-04-26T16:13:12Z</time></trkpt><trkpt lat="43.58298662895776" lon="11.211477652907291"><ele>178.0</ele><time>2026-04-26T16:13:13Z</time></trkpt><trkpt lat="43.58311949659737" lon="11.21142305837146"><ele>178.0</ele><time>2026-04-26T16:13:14Z</time></trkpt><trkpt lat="43.58325275951894" lon="11.211364135912673"><ele>177.0</ele><time>2026-04-26T16:13:15Z</time></trkpt><trkpt lat="43.5833853444799" lon="11.211295563366823"><ele>176.0</ele><time>2026-04-26T16:13:16Z</time></trkpt><trkpt lat="43.58351588935279" lon="11.211218162741167"><ele>175.0</ele><time>2026-04-26T16:13:17Z</time></trkpt><trkpt lat="43.58363970611147" lon="11.211125945731096"><ele>174.0</ele><time>2026-04-26T16:13:18Z</time></trkpt><trkpt lat="43.583763973991466" lon="11.211019821580829"><ele>174.0</ele><time>2026-04-26T16:13:19Z</time></trkpt><trkpt lat="43.583885309364874" lon="11.21090916751329"><ele>174.0</ele><time>2026-04-26T16:13:20Z</time></trkpt><trkpt lat="43.584007965697324" lon="11.210810498139233"><ele>174.0</ele><time>2026-04-26T16:13:21Z</time></trkpt><trkpt lat="43.584133277630755" lon="11.210713169746947"><ele>174.0</ele><time>2026-04-26T16:13:22Z</time></trkpt><trkpt lat="43.58426176041414" lon="11.21063320824067"><ele>173.75</ele><time>2026-04-26T16:13:23Z</time></trkpt><trkpt lat="43.584392359062186" lon="11.210556749892337"><ele>173.5</ele><time>2026-04-26T16:13:24Z</time></trkpt><trkpt lat="43.584523210978766" lon="11.210477534125971"><ele>173.25</ele><time>2026-04-26T16:13:25Z</time></trkpt><trkpt lat="43.584647371761285" lon="11.210398000382025"><ele>173.0</ele><time>2026-04-26T16:13:26Z</time></trkpt><trkpt lat="43.58478090574118" lon="11.210339682381306"><ele>173.0</ele><time>2026-04-26T16:13:27Z</time></trkpt><trkpt lat="43.58490698173567" lon="11.21026125737362"><ele>173.0</ele><time>2026-04-26T16:13:28Z</time></trkpt><trkpt lat="43.58501222077617" lon="11.210174043609138"><ele>173.0</ele><time>2026-04-26T16:13:29Z</time></trkpt><trkpt lat="43.58513652427411" lon="11.210113961648611"><ele>173.0</ele><time>2026-04-26T16:13:30Z</time></trkpt><trkpt lat="43.585247650274106" lon="11.210033748041425"><ele>173.5</ele><time>2026-04-26T16:13:31Z</time></trkpt><trkpt lat="43.58536021781905" lon="11.209960502368618"><ele>174.0</ele><time>2026-04-26T16:13:32Z</time></trkpt><trkpt lat="43.585468092907966" lon="11.209889084783088"><ele>174.5</ele><time>2026-04-26T16:13:33Z</time></trkpt><trkpt lat="43.58557697508763" lon="11.209812252801301"><ele>175.0</ele><time>2026-04-26T16:13:34Z</time></trkpt><trkpt lat="43.5856799353932" lon="11.20974640716654"><ele>175.0</ele><time>2026-04-26T16:13:35Z</time></trkpt><trkpt lat="43.58578758247375" lon="11.209685299189191"><ele>175.0</ele><time>2026-04-26T16:13:36Z</time></trkpt><trkpt lat="43.58589222638967" lon="11.209628331315757"><ele>175.0</ele><time>2026-04-26T16:13:37Z</time></trkpt><trkpt lat="43.585993959581224" lon="11.209558174148288"><ele>175.0</ele><time>2026-04-26T16:13:38Z</time></trkpt><trkpt lat="43.58609654935821" lon="11.209487710287211"><ele>176.5</ele><time>2026-04-26T16:13:39Z</time></trkpt><trkpt lat="43.58620293600246" lon="11.209413914002662"><ele>178.0</ele><time>2026-04-26T16:13:40Z</time></trkpt><trkpt lat="43.58631301850573" lon="11.209347199323394"><ele>179.5</ele><time>2026-04-26T16:13:41Z</time></trkpt><trkpt lat="43.58642320401264" lon="11.209292697661159"><ele>181.0</ele><time>2026-04-26T16:13:42Z</time></trkpt><trkpt lat="43.586530446992704" lon="11.20921794537799"><ele>181.0</ele><time>2026-04-26T16:13:43Z</time></trkpt><trkpt lat="43.58663839880299" lon="11.20915101157835"><ele>181.0</ele><time>2026-04-26T16:13:44Z</time></trkpt><trkpt lat="43.58674803305989" lon="11.209082385193184"><ele>181.0</ele><time>2026-04-26T16:13:45Z</time></trkpt><trkpt lat="43.58686304113967" lon="11.209007916165154"><ele>181.0</ele><time>2026-04-26T16:13:46Z</time></trkpt><trkpt lat="43.586975717264174" lon="11.208932889657072"><ele>180.25</ele><time>2026-04-26T16:13:47Z</time></trkpt><trkpt lat="43.58709167450204" lon="11.208861996638039"><ele>179.5</ele><time>2026-04-26T16:13:48Z</time></trkpt><trkpt lat="43.58720515992922" lon="11.208793579790555"><ele>178.75</ele><time>2026-04-26T16:13:49Z</time></trkpt><trkpt lat="43.587320461944394" lon="11.208719287172626"><ele>178.0</ele><time>2026-04-26T16:13:50Z</time></trkpt><trkpt lat="43.58743662428995" lon="11.208645309535552"><ele>178.0</ele><time>2026-04-26T16:13:51Z</time></trkpt><trkpt lat="43.587552469618096" lon="11.208565302863802"><ele>178.0</ele><time>2026-04-26T16:13:52Z</time></trkpt><trkpt lat="43.5876613793181" lon="11.20848828495046"><ele>178.0</ele><time>2026-04-26T16:13:53Z</time></trkpt><trkpt lat="43.58776943412762" lon="11.208412827163256"><ele>178.0</ele><time>2026-04-26T16:13:54Z</time></trkpt><trkpt lat="43.587878823154995" lon="11.208339530488743"><ele>177.5</ele><time>2026-04-26T16:13:55Z</time></trkpt><trkpt lat="43.58798745800699" lon="11.208268291247421"><ele>177.0</ele><time>2026-04-26T16:13:56Z</time></trkpt><trkpt lat="43.58809796650922" lon="11.208205378609899"><ele>176.5</ele><time>2026-04-26T16:13:57Z</time></trkpt><trkpt lat="43.58821074868095" lon="11.208150577314637"><ele>176.0</ele><time>2026-04-26T16:13:58Z</time></trkpt><trkpt lat="43.588320470584875" lon="11.208101476104012"><ele>176.0</ele><time>2026-04-26T16:13:59Z</time></trkpt><trkpt lat="43.588432031370004" lon="11.208064474184027"><ele>176.0</ele><time>2026-04-26T16:14:00Z</time></trkpt><trkpt lat="43.58854405856008" lon="11.208027304664801"><ele>176.0</ele><time>2026-04-26T16:14:01Z</time></trkpt><trkpt lat="43.58865685325056" lon="11.207972236024654"><ele>176.0</ele><time>2026-04-26T16:14:02Z</time></trkpt><trkpt lat="43.58877795537885" lon="11.207931718271185"><ele>177.25</ele><time>2026-04-26T16:14:03Z</time></trkpt><trkpt lat="43.5888988898827" lon="11.207879447282613"><ele>178.5</ele><time>2026-04-26T16:14:04Z</time></trkpt><trkpt lat="43.58902466227278" lon="11.207825290227726"><ele>179.75</ele><time>2026-04-26T16:14:05Z</time></trkpt><trkpt lat="43.58914466894364" lon="11.207768446114954"><ele>181.0</ele><time>2026-04-26T16:14:06Z</time></trkpt><trkpt lat="43.58926293565027" lon="11.20771112190348"><ele>181.0</ele><time>2026-04-26T16:14:07Z</time></trkpt><trkpt lat="43.5893846804347" lon="11.20766466313717"><ele>181.0</ele><time>2026-04-26T16:14:08Z</time></trkpt><trkpt lat="43.589501144386155" lon="11.207611033809249"><ele>181.0</ele><time>2026-04-26T16:14:09Z</time></trkpt><trkpt lat="43.58961188416042" lon="11.207536621669565"><ele>181.0</ele><time>2026-04-26T16:14:10Z</time></trkpt><trkpt lat="43.5897186120987" lon="11.207437091282248"><ele>179.5</ele><time>2026-04-26T16:14:11Z</time></trkpt><trkpt lat="43.589821945277066" lon="11.207316284554585"><ele>178.0</ele><time>2026-04-26T16:14:12Z</time></trkpt><trkpt lat="43.58991468366124" lon="11.207186719643081"><ele>176.5</ele><time>2026-04-26T16:14:13Z</time></trkpt><trkpt lat="43.59000611516176" lon="11.207055974745835"><ele>175.0</ele><time>2026-04-26T16:14:14Z</time></trkpt><trkpt lat="43.59009122820776" lon="11.206917178363323"><ele>175.0</ele><time>2026-04-26T16:14:15Z</time></trkpt><trkpt lat="43.59017526640301" lon="11.206780156621102"><ele>175.0</ele><time>2026-04-26T16:14:16Z</time></trkpt><trkpt lat="43.5902556512398" lon="11.20664179599844"><ele>175.0</ele><time>2026-04-26T16:14:17Z</time></trkpt><trkpt lat="43.590337240061" lon="11.206508256462563"><ele>175.0</ele><time>2026-04-26T16:14:18Z</time></trkpt><trkpt lat="43.59041867014106" lon="11.206378217113617"><ele>174.5</ele><time>2026-04-26T16:14:19Z</time></trkpt><trkpt lat="43.590500984103954" lon="11.206249345881016"><ele>174.0</ele><time>2026-04-26T16:14:20Z</time></trkpt><trkpt lat="43.590576053298236" lon="11.206129209750967"><ele>173.5</ele><time>2026-04-26T16:14:21Z</time></trkpt><trkpt lat="43.59065622934158" lon="11.205986468985042"><ele>173.0</ele><time>2026-04-26T16:14:22Z</time></trkpt><trkpt lat="43.59073397253321" lon="11.205851889323323"><ele>173.0</ele><time>2026-04-26T16:14:23Z</time></trkpt><trkpt lat="43.590811198265165" lon="11.205716995462678"><ele>173.0</ele><time>2026-04-26T16:14:24Z</time></trkpt><trkpt lat="43.590895684965574" lon="11.205592734999927"><ele>173.0</ele><time>2026-04-26T16:14:25Z</time></trkpt><trkpt lat="43.59098531337889" lon="11.205487669920398"><ele>173.0</ele><time>2026-04-26T16:14:26Z</time></trkpt><trkpt lat="43.591087824347476" lon="11.205417886485124"><ele>171.5</ele><time>2026-04-26T16:14:27Z</time></trkpt><trkpt lat="43.59120594379833" lon="11.205382962930225"><ele>170.0</ele><time>2026-04-26T16:14:28Z</time></trkpt><trkpt lat="43.591299635559864" lon="11.205294337644746"><ele>168.5</ele><time>2026-04-26T16:14:29Z</time></trkpt><trkpt lat="43.591384880617824" lon="11.205199731586136"><ele>167.0</ele><time>2026-04-26T16:14:30Z</time></trkpt><trkpt lat="43.59146614274115" lon="11.2050854090349"><ele>167.0</ele><time>2026-04-26T16:14:31Z</time></trkpt><trkpt lat="43.59155245203098" lon="11.204975011805391"><ele>167.0</ele><time>2026-04-26T16:14:32Z</time></trkpt><trkpt lat="43.591640108574836" lon="11.204860153045525"><ele>167.0</ele><time>2026-04-26T16:14:33Z</time></trkpt><trkpt lat="43.591729187672065" lon="11.204740944070883"><ele>167.0</ele><time>2026-04-26T16:14:34Z</time></trkpt><trkpt lat="43.591822523686254" lon="11.20462210634844"><ele>166.0</ele><time>2026-04-26T16:14:35Z</time></trkpt><trkpt lat="43.591918566570335" lon="11.204505482450228"><ele>165.0</ele><time>2026-04-26T16:14:36Z</time></trkpt><trkpt lat="43.59201862534106" lon="11.204387309483517"><ele>164.0</ele><time>2026-04-26T16:14:37Z</time></trkpt><trkpt lat="43.59211512089428" lon="11.204269682011445"><ele>163.0</ele><time>2026-04-26T16:14:38Z</time></trkpt><trkpt lat="43.59220741351727" lon="11.204148398713851"><ele>162.5</ele><time>2026-04-26T16:14:39Z</time></trkpt><trkpt lat="43.59230659800089" lon="11.204034958915129"><ele>162.0</ele><time>2026-04-26T16:14:40Z</time></trkpt><trkpt lat="43.59240103481074" lon="11.203916699673032"><ele>161.5</ele><time>2026-04-26T16:14:41Z</time></trkpt><trkpt lat="43.59250088786609" lon="11.203798642554887"><ele>161.0</ele><time>2026-04-26T16:14:42Z</time></trkpt><trkpt lat="43.59259900689162" lon="11.203679634295517"><ele>161.0</ele><time>2026-04-26T16:14:43Z</time></trkpt><trkpt lat="43.59269703246154" lon="11.203559240453009"><ele>161.0</ele><time>2026-04-26T16:14:44Z</time></trkpt><trkpt lat="43.592794087599046" lon="11.203443196883795"><ele>161.0</ele><time>2026-04-26T16:14:45Z</time></trkpt><trkpt lat="43.5928971420081" lon="11.203328861329313"><ele>161.0</ele><time>2026-04-26T16:14:46Z</time></trkpt><trkpt lat="43.592999318033094" lon="11.203225500956187"><ele>161.25</ele><time>2026-04-26T16:14:47Z</time></trkpt><trkpt lat="43.59310526897207" lon="11.203121702878562"><ele>161.5</ele><time>2026-04-26T16:14:48Z</time></trkpt><trkpt lat="43.59320804402598" lon="11.203019140020363"><ele>161.75</ele><time>2026-04-26T16:14:49Z</time></trkpt><trkpt lat="43.59331283653477" lon="11.202912351689466"><ele>162.0</ele><time>2026-04-26T16:14:50Z</time></trkpt><trkpt lat="43.59341170620627" lon="11.202808179296925"><ele>162.0</ele><time>2026-04-26T16:14:51Z</time></trkpt><trkpt lat="43.59351062069661" lon="11.20270264486055"><ele>162.0</ele><time>2026-04-26T16:14:52Z</time></trkpt><trkpt lat="43.59361006952055" lon="11.202597000443728"><ele>162.0</ele><time>2026-04-26T16:14:53Z</time></trkpt><trkpt lat="43.593709938531106" lon="11.202492401119482"><ele>162.0</ele><time>2026-04-26T16:14:54Z</time></trkpt><trkpt lat="43.593804073659875" lon="11.20238584048908"><ele>162.0</ele><time>2026-04-26T16:14:55Z</time></trkpt><trkpt lat="43.59389995510215" lon="11.202283240802418"><ele>162.0</ele><time>2026-04-26T16:14:56Z</time></trkpt><trkpt lat="43.59399193693539" lon="11.202187454595034"><ele>162.0</ele><time>2026-04-26T16:14:57Z</time></trkpt><trkpt lat="43.59408057860883" lon="11.202093182468126"><ele>162.0</ele><time>2026-04-26T16:14:58Z</time></trkpt><trkpt lat="43.594145679747" lon="11.202014654804024"><ele>162.0</ele><time>2026-04-26T16:14:59Z</time></trkpt><trkpt lat="43.59420861147858" lon="11.201930252009262"><ele>162.0</ele><time>2026-04-26T16:15:00Z</time></trkpt><trkpt lat="43.594322896975584" lon="11.201958702568671"><ele>162.0</ele><time>2026-04-26T16:15:01Z</time></trkpt><trkpt lat="43.59442346143534" lon="11.20200312313594"><ele>162.0</ele><time>2026-04-26T16:15:02Z</time></trkpt><trkpt lat="43.59452979104466" lon="11.202046176739865"><ele>162.0</ele><time>2026-04-26T16:15:03Z</time></trkpt><trkpt lat="43.594640003647264" lon="11.202086521414987"><ele>162.0</ele><time>2026-04-26T16:15:04Z</time></trkpt><trkpt lat="43.59476246055296" lon="11.202117778836698"><ele>161.0</ele><time>2026-04-26T16:15:05Z</time></trkpt><trkpt lat="43.59489207105029" lon="11.202144262927018"><ele>160.0</ele><time>2026-04-26T16:15:06Z</time></trkpt><trkpt lat="43.59502073102094" lon="11.202194791261952"><ele>159.0</ele><time>2026-04-26T16:15:07Z</time></trkpt><trkpt lat="43.59515422998258" lon="11.202269913954018"><ele>158.0</ele><time>2026-04-26T16:15:08Z</time></trkpt><trkpt lat="43.59528351101514" lon="11.202330093743402"><ele>160.0</ele><time>2026-04-26T16:15:09Z</time></trkpt><trkpt lat="43.59540617849247" lon="11.202379922123173"><ele>162.0</ele><time>2026-04-26T16:15:10Z</time></trkpt><trkpt lat="43.595525568076496" lon="11.202426486764553"><ele>164.0</ele><time>2026-04-26T16:15:11Z</time></trkpt><trkpt lat="43.59564596973502" lon="11.202461953557414"><ele>166.0</ele><time>2026-04-26T16:15:12Z</time></trkpt><trkpt lat="43.595768870470046" lon="11.202469074571509"><ele>166.0</ele><time>2026-04-26T16:15:13Z</time></trkpt><trkpt lat="43.59589701647058" lon="11.202452534017533"><ele>166.0</ele><time>2026-04-26T16:15:14Z</time></trkpt><trkpt lat="43.59602409386796" lon="11.20242915636247"><ele>166.0</ele><time>2026-04-26T16:15:15Z</time></trkpt><trkpt lat="43.5961452811289" lon="11.202405951122204"><ele>166.0</ele><time>2026-04-26T16:15:16Z</time></trkpt><trkpt lat="43.59626066511309" lon="11.202387076392712"><ele>165.0</ele><time>2026-04-26T16:15:17Z</time></trkpt><trkpt lat="43.59637277769672" lon="11.20235576442131"><ele>164.0</ele><time>2026-04-26T16:15:18Z</time></trkpt><trkpt lat="43.5964806050021" lon="11.20228864796941"><ele>163.0</ele><time>2026-04-26T16:15:19Z</time></trkpt><trkpt lat="43.596578006061776" lon="11.202181015640965"><ele>162.0</ele><time>2026-04-26T16:15:20Z</time></trkpt><trkpt lat="43.596671864167895" lon="11.202054625335926"><ele>162.0</ele><time>2026-04-26T16:15:21Z</time></trkpt><trkpt lat="43.596759056464855" lon="11.201918932228354"><ele>162.0</ele><time>2026-04-26T16:15:22Z</time></trkpt><trkpt lat="43.59684791589125" lon="11.201784620457218"><ele>162.0</ele><time>2026-04-26T16:15:23Z</time></trkpt><trkpt lat="43.596923007938464" lon="11.201650408196778"><ele>162.0</ele><time>2026-04-26T16:15:24Z</time></trkpt><trkpt lat="43.597008063575856" lon="11.201517001920173"><ele>162.75</ele><time>2026-04-26T16:15:25Z</time></trkpt><trkpt lat="43.597097255167384" lon="11.20138284261653"><ele>163.5</ele><time>2026-04-26T16:15:26Z</time></trkpt><trkpt lat="43.59718116873744" lon="11.201244408369432"><ele>164.25</ele><time>2026-04-26T16:15:27Z</time></trkpt><trkpt lat="43.59726094542558" lon="11.201110133443153"><ele>165.0</ele><time>2026-04-26T16:15:28Z</time></trkpt><trkpt lat="43.59734101693398" lon="11.200979923991893"><ele>165.0</ele><time>2026-04-26T16:15:29Z</time></trkpt><trkpt lat="43.597417491556236" lon="11.200839725408187"><ele>165.0</ele><time>2026-04-26T16:15:30Z</time></trkpt><trkpt lat="43.5974976020413" lon="11.200690912216452"><ele>165.0</ele><time>2026-04-26T16:15:31Z</time></trkpt><trkpt lat="43.59756943398145" lon="11.200546898077373"><ele>165.0</ele><time>2026-04-26T16:15:32Z</time></trkpt><trkpt lat="43.5976445469876" lon="11.200398699471567"><ele>165.0</ele><time>2026-04-26T16:15:33Z</time></trkpt><trkpt lat="43.59772102910226" lon="11.200248073710895"><ele>165.0</ele><time>2026-04-26T16:15:34Z</time></trkpt><trkpt lat="43.597808465212246" lon="11.200110728282198"><ele>165.0</ele><time>2026-04-26T16:15:35Z</time></trkpt><trkpt lat="43.597899011557395" lon="11.199975639485249"><ele>165.0</ele><time>2026-04-26T16:15:36Z</time></trkpt><trkpt lat="43.59798542014788" lon="11.199842792247054"><ele>164.0</ele><time>2026-04-26T16:15:37Z</time></trkpt><trkpt lat="43.59807062348351" lon="11.199708796434974"><ele>163.0</ele><time>2026-04-26T16:15:38Z</time></trkpt><trkpt lat="43.598157764102744" lon="11.199573171500939"><ele>162.0</ele><time>2026-04-26T16:15:39Z</time></trkpt><trkpt lat="43.59824930270931" lon="11.199443181042305"><ele>161.0</ele><time>2026-04-26T16:15:40Z</time></trkpt><trkpt lat="43.59834202970002" lon="11.199321606725377"><ele>161.0</ele><time>2026-04-26T16:15:41Z</time></trkpt><trkpt lat="43.598426784713794" lon="11.199224065651515"><ele>161.0</ele><time>2026-04-26T16:15:42Z</time></trkpt><trkpt lat="43.5985218324413" lon="11.1991383537211"><ele>161.0</ele><time>2026-04-26T16:15:43Z</time></trkpt><trkpt lat="43.59863505962911" lon="11.199063882739935"><ele>161.0</ele><time>2026-04-26T16:15:44Z</time></trkpt><trkpt lat="43.598754106239205" lon="11.198992430032549"><ele>160.5</ele><time>2026-04-26T16:15:45Z</time></trkpt><trkpt lat="43.598876564684225" lon="11.19892041360409"><ele>160.0</ele><time>2026-04-26T16:15:46Z</time></trkpt><trkpt lat="43.59899595702561" lon="11.198836129181567"><ele>159.5</ele><time>2026-04-26T16:15:47Z</time></trkpt><trkpt lat="43.59911157544844" lon="11.19874888806538"><ele>159.0</ele><time>2026-04-26T16:15:48Z</time></trkpt><trkpt lat="43.59922272231374" lon="11.198660351258553"><ele>159.0</ele><time>2026-04-26T16:15:49Z</time></trkpt><trkpt lat="43.59933171942456" lon="11.198570825728698"><ele>159.0</ele><time>2026-04-26T16:15:50Z</time></trkpt><trkpt lat="43.599439471774446" lon="11.198481525573179"><ele>159.0</ele><time>2026-04-26T16:15:51Z</time></trkpt><trkpt lat="43.599542290196915" lon="11.1983901781733"><ele>159.0</ele><time>2026-04-26T16:15:52Z</time></trkpt><trkpt lat="43.59964726094216" lon="11.19830345044641"><ele>159.0</ele><time>2026-04-26T16:15:53Z</time></trkpt><trkpt lat="43.59974874008843" lon="11.19821565386648"><ele>159.0</ele><time>2026-04-26T16:15:54Z</time></trkpt><trkpt lat="43.59984772398241" lon="11.198118174079111"><ele>159.0</ele><time>2026-04-26T16:15:55Z</time></trkpt><trkpt lat="43.59993694528284" lon="11.198029702255425"><ele>159.0</ele><time>2026-04-26T16:15:56Z</time></trkpt><trkpt lat="43.60003754722899" lon="11.197906043156658"><ele>159.0</ele><time>2026-04-26T16:15:57Z</time></trkpt><trkpt lat="43.60013981595127" lon="11.197796940213015"><ele>159.0</ele><time>2026-04-26T16:15:58Z</time></trkpt><trkpt lat="43.6002419542131" lon="11.197702335590298"><ele>159.0</ele><time>2026-04-26T16:15:59Z</time></trkpt><trkpt lat="43.60035375059301" lon="11.19762437396684"><ele>159.0</ele><time>2026-04-26T16:16:00Z</time></trkpt><trkpt lat="43.60048414809863" lon="11.197567685616933"><ele>159.0</ele><time>2026-04-26T16:16:01Z</time></trkpt><trkpt lat="43.60060991769735" lon="11.197514264953787"><ele>159.0</ele><time>2026-04-26T16:16:02Z</time></trkpt><trkpt lat="43.600731832242474" lon="11.19745154056322"><ele>159.0</ele><time>2026-04-26T16:16:03Z</time></trkpt><trkpt lat="43.60085983739549" lon="11.197387276039686"><ele>159.0</ele><time>2026-04-26T16:16:04Z</time></trkpt><trkpt lat="43.60098415440084" lon="11.197315913486893"><ele>158.75</ele><time>2026-04-26T16:16:05Z</time></trkpt><trkpt lat="43.60110598395237" lon="11.197232044940968"><ele>158.5</ele><time>2026-04-26T16:16:06Z</time></trkpt><trkpt lat="43.601238689769325" lon="11.197178347843034"><ele>158.25</ele><time>2026-04-26T16:16:07Z</time></trkpt><trkpt lat="43.60135126412036" lon="11.197064571230648"><ele>158.0</ele><time>2026-04-26T16:16:08Z</time></trkpt><trkpt lat="43.60145789422278" lon="11.19696058037472"><ele>158.0</ele><time>2026-04-26T16:16:09Z</time></trkpt><trkpt lat="43.601564218895405" lon="11.19683576377095"><ele>158.0</ele><time>2026-04-26T16:16:10Z</time></trkpt><trkpt lat="43.601673487959296" lon="11.196723610453619"><ele>158.0</ele><time>2026-04-26T16:16:11Z</time></trkpt><trkpt lat="43.60177918079764" lon="11.196601609371635"><ele>158.0</ele><time>2026-04-26T16:16:12Z</time></trkpt><trkpt lat="43.601887381475926" lon="11.196499703797306"><ele>157.0</ele><time>2026-04-26T16:16:13Z</time></trkpt><trkpt lat="43.602006857687755" lon="11.196410439680411"><ele>156.0</ele><time>2026-04-26T16:16:14Z</time></trkpt><trkpt lat="43.602122684620205" lon="11.19632767642496"><ele>155.0</ele><time>2026-04-26T16:16:15Z</time></trkpt><trkpt lat="43.602235967512044" lon="11.196252863817698"><ele>154.0</ele><time>2026-04-26T16:16:16Z</time></trkpt><trkpt lat="43.602348470457954" lon="11.196184552571125"><ele>154.0</ele><time>2026-04-26T16:16:17Z</time></trkpt><trkpt lat="43.60246375350363" lon="11.196101897451811"><ele>154.0</ele><time>2026-04-26T16:16:18Z</time></trkpt><trkpt lat="43.60257914649332" lon="11.196023040905683"><ele>154.0</ele><time>2026-04-26T16:16:19Z</time></trkpt><trkpt lat="43.60269485238993" lon="11.195934123051106"><ele>154.0</ele><time>2026-04-26T16:16:20Z</time></trkpt><trkpt lat="43.60281377968348" lon="11.195854717354726"><ele>153.75</ele><time>2026-04-26T16:16:21Z</time></trkpt><trkpt lat="43.6029346543736" lon="11.195771082137625"><ele>153.5</ele><time>2026-04-26T16:16:22Z</time></trkpt><trkpt lat="43.6030577250419" lon="11.19568603950417"><ele>153.25</ele><time>2026-04-26T16:16:23Z</time></trkpt><trkpt lat="43.60318083775399" lon="11.195606147132725"><ele>153.0</ele><time>2026-04-26T16:16:24Z</time></trkpt><trkpt lat="43.60330477742569" lon="11.195527300413927"><ele>152.25</ele><time>2026-04-26T16:16:25Z</time></trkpt><trkpt lat="43.60343359222201" lon="11.195454991042695"><ele>151.5</ele><time>2026-04-26T16:16:26Z</time></trkpt><trkpt lat="43.60355966398466" lon="11.195392042608663"><ele>150.75</ele><time>2026-04-26T16:16:27Z</time></trkpt><trkpt lat="43.60368800108973" lon="11.195326637299635"><ele>150.0</ele><time>2026-04-26T16:16:28Z</time></trkpt><trkpt lat="43.60381771976884" lon="11.195272619008819"><ele>150.0</ele><time>2026-04-26T16:16:29Z</time></trkpt><trkpt lat="43.603945981549806" lon="11.1952269445126"><ele>150.0</ele><time>2026-04-26T16:16:30Z</time></trkpt><trkpt lat="43.60407995948349" lon="11.195186858407519"><ele>150.0</ele><time>2026-04-26T16:16:31Z</time></trkpt><trkpt lat="43.60420942332239" lon="11.195141805416743"><ele>150.0</ele><time>2026-04-26T16:16:32Z</time></trkpt><trkpt lat="43.60433900052184" lon="11.195101383288836"><ele>150.0</ele><time>2026-04-26T16:16:33Z</time></trkpt><trkpt lat="43.604472055365406" lon="11.195056705423559"><ele>150.0</ele><time>2026-04-26T16:16:34Z</time></trkpt><trkpt lat="43.60460712117032" lon="11.195011046961303"><ele>150.0</ele><time>2026-04-26T16:16:35Z</time></trkpt><trkpt lat="43.60474140672108" lon="11.194961961038848"><ele>150.0</ele><time>2026-04-26T16:16:36Z</time></trkpt><trkpt lat="43.604874902216764" lon="11.194919628222973"><ele>149.75</ele><time>2026-04-26T16:16:37Z</time></trkpt><trkpt lat="43.60500030345082" lon="11.19486361508713"><ele>149.5</ele><time>2026-04-26T16:16:38Z</time></trkpt><trkpt lat="43.60512382774757" lon="11.19479973545296"><ele>149.25</ele><time>2026-04-26T16:16:39Z</time></trkpt><trkpt lat="43.605247974024394" lon="11.194729606029798"><ele>149.0</ele><time>2026-04-26T16:16:40Z</time></trkpt><trkpt lat="43.60536488361453" lon="11.194655434157978"><ele>149.0</ele><time>2026-04-26T16:16:41Z</time></trkpt><trkpt lat="43.6054859929033" lon="11.194593173781287"><ele>149.0</ele><time>2026-04-26T16:16:42Z</time></trkpt><trkpt lat="43.605614067315685" lon="11.194527210194172"><ele>149.0</ele><time>2026-04-26T16:16:43Z</time></trkpt><trkpt lat="43.60574651542319" lon="11.19446516371566"><ele>149.0</ele><time>2026-04-26T16:16:44Z</time></trkpt><trkpt lat="43.605878231197394" lon="11.194395251280511"><ele>149.0</ele><time>2026-04-26T16:16:45Z</time></trkpt><trkpt lat="43.606010513171015" lon="11.194333007569892"><ele>149.0</ele><time>2026-04-26T16:16:46Z</time></trkpt><trkpt lat="43.606135721861996" lon="11.194266300236828"><ele>149.0</ele><time>2026-04-26T16:16:47Z</time></trkpt><trkpt lat="43.606264834827904" lon="11.194197629204876"><ele>149.0</ele><time>2026-04-26T16:16:48Z</time></trkpt><trkpt lat="43.60638354367496" lon="11.194143885621315"><ele>150.25</ele><time>2026-04-26T16:16:49Z</time></trkpt><trkpt lat="43.606507754986666" lon="11.194129585525808"><ele>151.5</ele><time>2026-04-26T16:16:50Z</time></trkpt><trkpt lat="43.60663236624144" lon="11.194174682601153"><ele>152.75</ele><time>2026-04-26T16:16:51Z</time></trkpt><trkpt lat="43.606752573643725" lon="11.19419566082045"><ele>154.0</ele><time>2026-04-26T16:16:52Z</time></trkpt><trkpt lat="43.60687419383433" lon="11.194204301011201"><ele>154.25</ele><time>2026-04-26T16:16:53Z</time></trkpt><trkpt lat="43.606999234153406" lon="11.194224867380534"><ele>154.5</ele><time>2026-04-26T16:16:54Z</time></trkpt><trkpt lat="43.60712084473808" lon="11.19424378874801"><ele>154.75</ele><time>2026-04-26T16:16:55Z</time></trkpt><trkpt lat="43.60723793664342" lon="11.194266838367412"><ele>155.0</ele><time>2026-04-26T16:16:56Z</time></trkpt><trkpt lat="43.60735807518823" lon="11.194277693174463"><ele>155.0</ele><time>2026-04-26T16:16:57Z</time></trkpt><trkpt lat="43.6074804907119" lon="11.194282764013199"><ele>155.0</ele><time>2026-04-26T16:16:58Z</time></trkpt><trkpt lat="43.607609740162296" lon="11.194290617769715"><ele>155.0</ele><time>2026-04-26T16:16:59Z</time></trkpt><trkpt lat="43.607737436755095" lon="11.194290111635267"><ele>155.0</ele><time>2026-04-26T16:17:00Z</time></trkpt><trkpt lat="43.60787238399649" lon="11.19429358917866"><ele>155.5</ele><time>2026-04-26T16:17:01Z</time></trkpt><trkpt lat="43.60799916036887" lon="11.194291790126721"><ele>156.0</ele><time>2026-04-26T16:17:02Z</time></trkpt><trkpt lat="43.60813496731974" lon="11.194272939736125"><ele>156.5</ele><time>2026-04-26T16:17:03Z</time></trkpt><trkpt lat="43.60826521580702" lon="11.194238355536985"><ele>157.0</ele><time>2026-04-26T16:17:04Z</time></trkpt><trkpt lat="43.60840089851431" lon="11.19419632800262"><ele>157.0</ele><time>2026-04-26T16:17:05Z</time></trkpt><trkpt lat="43.60853213143728" lon="11.19414086116718"><ele>157.0</ele><time>2026-04-26T16:17:06Z</time></trkpt><trkpt lat="43.6086635331135" lon="11.194079760828284"><ele>157.0</ele><time>2026-04-26T16:17:07Z</time></trkpt><trkpt lat="43.60878900257681" lon="11.194008826168808"><ele>157.0</ele><time>2026-04-26T16:17:08Z</time></trkpt><trkpt lat="43.60891320901806" lon="11.193930682702671"><ele>155.25</ele><time>2026-04-26T16:17:09Z</time></trkpt><trkpt lat="43.60903260282978" lon="11.193847124011908"><ele>153.5</ele><time>2026-04-26T16:17:10Z</time></trkpt><trkpt lat="43.6091465514647" lon="11.193737616507416"><ele>151.75</ele><time>2026-04-26T16:17:11Z</time></trkpt><trkpt lat="43.60926340049235" lon="11.193645442177743"><ele>150.0</ele><time>2026-04-26T16:17:12Z</time></trkpt><trkpt lat="43.60937993732606" lon="11.193531623656234"><ele>150.0</ele><time>2026-04-26T16:17:13Z</time></trkpt><trkpt lat="43.60948921624625" lon="11.19342067442248"><ele>150.0</ele><time>2026-04-26T16:17:14Z</time></trkpt><trkpt lat="43.60959734765808" lon="11.19330837193086"><ele>150.0</ele><time>2026-04-26T16:17:15Z</time></trkpt><trkpt lat="43.60970667862874" lon="11.19319649998214"><ele>150.0</ele><time>2026-04-26T16:17:16Z</time></trkpt><trkpt lat="43.60981813084011" lon="11.19309260680548"><ele>149.0</ele><time>2026-04-26T16:17:17Z</time></trkpt><trkpt lat="43.6099356265655" lon="11.192996090048158"><ele>148.0</ele><time>2026-04-26T16:17:18Z</time></trkpt><trkpt lat="43.610050437782895" lon="11.19290488639055"><ele>147.0</ele><time>2026-04-26T16:17:19Z</time></trkpt><trkpt lat="43.610169886924155" lon="11.192827469074675"><ele>146.0</ele><time>2026-04-26T16:17:20Z</time></trkpt><trkpt lat="43.61030312494624" lon="11.19276588619935"><ele>146.5</ele><time>2026-04-26T16:17:21Z</time></trkpt><trkpt lat="43.61043620323403" lon="11.192724496615096"><ele>147.0</ele><time>2026-04-26T16:17:22Z</time></trkpt><trkpt lat="43.61057117710781" lon="11.192695167715835"><ele>147.5</ele><time>2026-04-26T16:17:23Z</time></trkpt><trkpt lat="43.61070105183161" lon="11.192660439052569"><ele>148.0</ele><time>2026-04-26T16:17:24Z</time></trkpt><trkpt lat="43.61082558297606" lon="11.192599269774137"><ele>148.0</ele><time>2026-04-26T16:17:25Z</time></trkpt><trkpt lat="43.610948624717004" lon="11.19251726872178"><ele>148.0</ele><time>2026-04-26T16:17:26Z</time></trkpt><trkpt lat="43.6110656446682" lon="11.192422893523956"><ele>148.0</ele><time>2026-04-26T16:17:27Z</time></trkpt><trkpt lat="43.61118179883029" lon="11.192322300928753"><ele>148.0</ele><time>2026-04-26T16:17:28Z</time></trkpt><trkpt lat="43.61129706811583" lon="11.192232067987984"><ele>147.25</ele><time>2026-04-26T16:17:29Z</time></trkpt><trkpt lat="43.61141292046917" lon="11.192136230215379"><ele>146.5</ele><time>2026-04-26T16:17:30Z</time></trkpt><trkpt lat="43.6115260612437" lon="11.192040034267073"><ele>145.75</ele><time>2026-04-26T16:17:31Z</time></trkpt><trkpt lat="43.611640446576835" lon="11.191952825681467"><ele>145.0</ele><time>2026-04-26T16:17:32Z</time></trkpt><trkpt lat="43.611752279821474" lon="11.191864338879933"><ele>145.0</ele><time>2026-04-26T16:17:33Z</time></trkpt><trkpt lat="43.61186536584407" lon="11.19178550035762"><ele>145.0</ele><time>2026-04-26T16:17:34Z</time></trkpt><trkpt lat="43.611985198882515" lon="11.1917082095545"><ele>145.0</ele><time>2026-04-26T16:17:35Z</time></trkpt><trkpt lat="43.612102802325985" lon="11.191626974756108"><ele>145.0</ele><time>2026-04-26T16:17:36Z</time></trkpt><trkpt lat="43.61222067417993" lon="11.191547279022746"><ele>145.0</ele><time>2026-04-26T16:17:37Z</time></trkpt><trkpt lat="43.61234094489365" lon="11.191477316066441"><ele>145.0</ele><time>2026-04-26T16:17:38Z</time></trkpt><trkpt lat="43.61245831979098" lon="11.19141419785098"><ele>145.0</ele><time>2026-04-26T16:17:39Z</time></trkpt><trkpt lat="43.61258013059799" lon="11.191351071085187"><ele>145.0</ele><time>2026-04-26T16:17:40Z</time></trkpt><trkpt lat="43.61270379116399" lon="11.191302831454117"><ele>145.25</ele><time>2026-04-26T16:17:41Z</time></trkpt><trkpt lat="43.61283015169092" lon="11.191281446530722"><ele>145.5</ele><time>2026-04-26T16:17:42Z</time></trkpt><trkpt lat="43.612956417234685" lon="11.191263375156316"><ele>145.75</ele><time>2026-04-26T16:17:43Z</time></trkpt><trkpt lat="43.61307951723753" lon="11.191247284342122"><ele>146.0</ele><time>2026-04-26T16:17:44Z</time></trkpt><trkpt lat="43.613196281863985" lon="11.191229908363173"><ele>146.0</ele><time>2026-04-26T16:17:45Z</time></trkpt><trkpt lat="43.61331238424609" lon="11.191207888207929"><ele>146.0</ele><time>2026-04-26T16:17:46Z</time></trkpt><trkpt lat="43.61342725134488" lon="11.191178430855752"><ele>146.0</ele><time>2026-04-26T16:17:47Z</time></trkpt><trkpt lat="43.61354205329916" lon="11.191147395549203"><ele>146.0</ele><time>2026-04-26T16:17:48Z</time></trkpt><trkpt lat="43.613655083321454" lon="11.191106033896675"><ele>147.0</ele><time>2026-04-26T16:17:49Z</time></trkpt><trkpt lat="43.61376945296244" lon="11.191061202605395"><ele>148.0</ele><time>2026-04-26T16:17:50Z</time></trkpt><trkpt lat="43.613885079302214" lon="11.191015649350692"><ele>149.0</ele><time>2026-04-26T16:17:51Z</time></trkpt><trkpt lat="43.61400028154633" lon="11.190962984589408"><ele>150.0</ele><time>2026-04-26T16:17:52Z</time></trkpt><trkpt lat="43.61411405660063" lon="11.190908680053864"><ele>150.0</ele><time>2026-04-26T16:17:53Z</time></trkpt><trkpt lat="43.61422673637565" lon="11.190859943686306"><ele>150.0</ele><time>2026-04-26T16:17:54Z</time></trkpt><trkpt lat="43.61433808278766" lon="11.190810318675835"><ele>150.0</ele><time>2026-04-26T16:17:55Z</time></trkpt><trkpt lat="43.61443946060684" lon="11.190748068467421"><ele>150.0</ele><time>2026-04-26T16:17:56Z</time></trkpt><trkpt lat="43.61456257804587" lon="11.190707847228131"><ele>148.75</ele><time>2026-04-26T16:17:57Z</time></trkpt><trkpt lat="43.6146734859287" lon="11.19065765865553"><ele>147.5</ele><time>2026-04-26T16:17:58Z</time></trkpt><trkpt lat="43.614786219160386" lon="11.190609785993658"><ele>146.25</ele><time>2026-04-26T16:17:59Z</time></trkpt><trkpt lat="43.614901716621446" lon="11.19056988690126"><ele>145.0</ele><time>2026-04-26T16:18:00Z</time></trkpt><trkpt lat="43.61502117176162" lon="11.19054036786729"><ele>145.0</ele><time>2026-04-26T16:18:01Z</time></trkpt><trkpt lat="43.61514022386262" lon="11.19051958348176"><ele>145.0</ele><time>2026-04-26T16:18:02Z</time></trkpt><trkpt lat="43.61525397332058" lon="11.1904869233391"><ele>145.0</ele><time>2026-04-26T16:18:03Z</time></trkpt><trkpt lat="43.61536432469942" lon="11.190461697240163"><ele>145.0</ele><time>2026-04-26T16:18:04Z</time></trkpt><trkpt lat="43.615480805271964" lon="11.190424529837767"><ele>146.25</ele><time>2026-04-26T16:18:05Z</time></trkpt><trkpt lat="43.615598469289644" lon="11.190384326652838"><ele>147.5</ele><time>2026-04-26T16:18:06Z</time></trkpt><trkpt lat="43.61571756258238" lon="11.190357337479954"><ele>148.75</ele><time>2026-04-26T16:18:07Z</time></trkpt><trkpt lat="43.615841059878484" lon="11.1903135068661"><ele>150.0</ele><time>2026-04-26T16:18:08Z</time></trkpt><trkpt lat="43.615954125298096" lon="11.190262595179131"><ele>150.0</ele><time>2026-04-26T16:18:09Z</time></trkpt><trkpt lat="43.61606407861771" lon="11.190206822890291"><ele>150.0</ele><time>2026-04-26T16:18:10Z</time></trkpt><trkpt lat="43.61616605273073" lon="11.190147243444516"><ele>150.0</ele><time>2026-04-26T16:18:11Z</time></trkpt><trkpt lat="43.61626468318669" lon="11.190094144885327"><ele>150.0</ele><time>2026-04-26T16:18:12Z</time></trkpt><trkpt lat="43.61636046002743" lon="11.190028543938414"><ele>150.0</ele><time>2026-04-26T16:18:13Z</time></trkpt><trkpt lat="43.61645390457137" lon="11.189955213014146"><ele>150.0</ele><time>2026-04-26T16:18:14Z</time></trkpt><trkpt lat="43.61654832877224" lon="11.18987611497879"><ele>150.0</ele><time>2026-04-26T16:18:15Z</time></trkpt><trkpt lat="43.6166412357386" lon="11.189798602197907"><ele>150.0</ele><time>2026-04-26T16:18:16Z</time></trkpt><trkpt lat="43.61672656636806" lon="11.189725363470757"><ele>150.0</ele><time>2026-04-26T16:18:17Z</time></trkpt><trkpt lat="43.61681777344336" lon="11.1896450629085"><ele>150.0</ele><time>2026-04-26T16:18:18Z</time></trkpt><trkpt lat="43.616907879270336" lon="11.189556405299069"><ele>149.6</ele><time>2026-04-26T16:18:19Z</time></trkpt><trkpt lat="43.61699357773292" lon="11.189468592772913"><ele>149.2</ele><time>2026-04-26T16:18:20Z</time></trkpt><trkpt lat="43.61708812092463" lon="11.189391411133094"><ele>148.8</ele><time>2026-04-26T16:18:21Z</time></trkpt><trkpt lat="43.617182435942524" lon="11.189319484062214"><ele>148.4</ele><time>2026-04-26T16:18:22Z</time></trkpt><trkpt lat="43.617277402865966" lon="11.189245386151873"><ele>148.0</ele><time>2026-04-26T16:18:23Z</time></trkpt><trkpt lat="43.61737650535335" lon="11.189185828747583"><ele>148.0</ele><time>2026-04-26T16:18:24Z</time></trkpt><trkpt lat="43.61747990005525" lon="11.189142082573687"><ele>148.0</ele><time>2026-04-26T16:18:25Z</time></trkpt><trkpt lat="43.6175931457605" lon="11.189113673282362"><ele>148.0</ele><time>2026-04-26T16:18:26Z</time></trkpt><trkpt lat="43.617706442907476" lon="11.189056365236196"><ele>148.0</ele><time>2026-04-26T16:18:27Z</time></trkpt><trkpt lat="43.61781581327095" lon="11.189011672543252"><ele>146.25</ele><time>2026-04-26T16:18:28Z</time></trkpt><trkpt lat="43.61793020744108" lon="11.18897274925089"><ele>144.5</ele><time>2026-04-26T16:18:29Z</time></trkpt><trkpt lat="43.61804615028832" lon="11.188929179929568"><ele>142.75</ele><time>2026-04-26T16:18:30Z</time></trkpt><trkpt lat="43.61816192779162" lon="11.188883277221832"><ele>141.0</ele><time>2026-04-26T16:18:31Z</time></trkpt><trkpt lat="43.61827746297102" lon="11.188832129739438"><ele>141.0</ele><time>2026-04-26T16:18:32Z</time></trkpt><trkpt lat="43.618391461583116" lon="11.188789415796952"><ele>141.0</ele><time>2026-04-26T16:18:33Z</time></trkpt><trkpt lat="43.61850579215785" lon="11.188744115288937"><ele>141.0</ele><time>2026-04-26T16:18:34Z</time></trkpt><trkpt lat="43.61862306217527" lon="11.188699361316344"><ele>141.0</ele><time>2026-04-26T16:18:35Z</time></trkpt><trkpt lat="43.61873856409319" lon="11.188645945919648"><ele>141.25</ele><time>2026-04-26T16:18:36Z</time></trkpt><trkpt lat="43.618858726652384" lon="11.188586277344774"><ele>141.5</ele><time>2026-04-26T16:18:37Z</time></trkpt><trkpt lat="43.618969369333264" lon="11.188519751014796"><ele>141.75</ele><time>2026-04-26T16:18:38Z</time></trkpt><trkpt lat="43.61908097337256" lon="11.18845324741072"><ele>142.0</ele><time>2026-04-26T16:18:39Z</time></trkpt><trkpt lat="43.61918575165419" lon="11.188358332277502"><ele>142.0</ele><time>2026-04-26T16:18:40Z</time></trkpt><trkpt lat="43.61928919854694" lon="11.188252103599412"><ele>142.0</ele><time>2026-04-26T16:18:41Z</time></trkpt><trkpt lat="43.61938935927908" lon="11.188124456256629"><ele>142.0</ele><time>2026-04-26T16:18:42Z</time></trkpt><trkpt lat="43.61948194565013" lon="11.187992234491814"><ele>142.0</ele><time>2026-04-26T16:18:43Z</time></trkpt><trkpt lat="43.6195815362667" lon="11.187855422995423"><ele>142.0</ele><time>2026-04-26T16:18:44Z</time></trkpt><trkpt lat="43.619687990443765" lon="11.187733341565506"><ele>142.0</ele><time>2026-04-26T16:18:45Z</time></trkpt><trkpt lat="43.61980101559165" lon="11.187634957287935"><ele>142.0</ele><time>2026-04-26T16:18:46Z</time></trkpt><trkpt lat="43.61992255100009" lon="11.187545235927084"><ele>142.0</ele><time>2026-04-26T16:18:47Z</time></trkpt><trkpt lat="43.62004996129833" lon="11.187472949445286"><ele>142.0</ele><time>2026-04-26T16:18:48Z</time></trkpt><trkpt lat="43.620178002099365" lon="11.187408050566995"><ele>142.0</ele><time>2026-04-26T16:18:49Z</time></trkpt><trkpt lat="43.620310956716956" lon="11.187372239393854"><ele>142.0</ele><time>2026-04-26T16:18:50Z</time></trkpt><trkpt lat="43.6204403636177" lon="11.187334557344096"><ele>142.0</ele><time>2026-04-26T16:18:51Z</time></trkpt><trkpt lat="43.62057512426872" lon="11.187304145885124"><ele>141.0</ele><time>2026-04-26T16:18:52Z</time></trkpt><trkpt lat="43.62071029421692" lon="11.187265070116545"><ele>140.0</ele><time>2026-04-26T16:18:53Z</time></trkpt><trkpt lat="43.620845294198766" lon="11.187229957768118"><ele>139.0</ele><time>2026-04-26T16:18:54Z</time></trkpt><trkpt lat="43.620978549403105" lon="11.187203576068992"><ele>138.0</ele><time>2026-04-26T16:18:55Z</time></trkpt><trkpt lat="43.621110843751445" lon="11.18716354983506"><ele>138.0</ele><time>2026-04-26T16:18:56Z</time></trkpt><trkpt lat="43.621247182595575" lon="11.187121557835203"><ele>138.0</ele><time>2026-04-26T16:18:57Z</time></trkpt><trkpt lat="43.6213872786829" lon="11.187079796176658"><ele>138.0</ele><time>2026-04-26T16:18:58Z</time></trkpt><trkpt lat="43.6215230848159" lon="11.187032656611338"><ele>138.0</ele><time>2026-04-26T16:18:59Z</time></trkpt><trkpt lat="43.621666993287135" lon="11.18698909075331"><ele>138.0</ele><time>2026-04-26T16:19:00Z</time></trkpt><trkpt lat="43.621804154132064" lon="11.186942726694223"><ele>138.0</ele><time>2026-04-26T16:19:01Z</time></trkpt><trkpt lat="43.62193984462095" lon="11.186885415093109"><ele>138.0</ele><time>2026-04-26T16:19:02Z</time></trkpt><trkpt lat="43.622073418245975" lon="11.186826264522532"><ele>138.0</ele><time>2026-04-26T16:19:03Z</time></trkpt><trkpt lat="43.62220603527313" lon="11.186774863960272"><ele>140.0</ele><time>2026-04-26T16:19:04Z</time></trkpt><trkpt lat="43.622327816990975" lon="11.186719971926538"><ele>142.0</ele><time>2026-04-26T16:19:05Z</time></trkpt><trkpt lat="43.622450636709914" lon="11.186648417483326"><ele>144.0</ele><time>2026-04-26T16:19:06Z</time></trkpt><trkpt lat="43.62257469851354" lon="11.186578055997607"><ele>146.0</ele><time>2026-04-26T16:19:07Z</time></trkpt><trkpt lat="43.6226951021201" lon="11.186519581496345"><ele>145.25</ele><time>2026-04-26T16:19:08Z</time></trkpt><trkpt lat="43.622813218319074" lon="11.18646090297538"><ele>144.5</ele><time>2026-04-26T16:19:09Z</time></trkpt><trkpt lat="43.6229322140976" lon="11.186391126258545"><ele>143.75</ele><time>2026-04-26T16:19:10Z</time></trkpt><trkpt lat="43.62306931118594" lon="11.186298515113496"><ele>143.0</ele><time>2026-04-26T16:19:11Z</time></trkpt><trkpt lat="43.6231986121311" lon="11.186193635443479"><ele>143.0</ele><time>2026-04-26T16:19:12Z</time></trkpt><trkpt lat="43.62332686834136" lon="11.186104981277019"><ele>143.0</ele><time>2026-04-26T16:19:13Z</time></trkpt><trkpt lat="43.62342547468644" lon="11.185994923955475"><ele>143.0</ele><time>2026-04-26T16:19:14Z</time></trkpt><trkpt lat="43.6235439951634" lon="11.185887670909658"><ele>143.0</ele><time>2026-04-26T16:19:15Z</time></trkpt><trkpt lat="43.623661322232316" lon="11.185795927195354"><ele>143.5</ele><time>2026-04-26T16:19:16Z</time></trkpt><trkpt lat="43.62377244857075" lon="11.185697547621503"><ele>144.0</ele><time>2026-04-26T16:19:17Z</time></trkpt><trkpt lat="43.623888653299844" lon="11.185610200666654"><ele>144.5</ele><time>2026-04-26T16:19:18Z</time></trkpt><trkpt lat="43.62400622396548" lon="11.18553160227301"><ele>145.0</ele><time>2026-04-26T16:19:19Z</time></trkpt><trkpt lat="43.62412937662425" lon="11.185469096955497"><ele>145.0</ele><time>2026-04-26T16:19:20Z</time></trkpt><trkpt lat="43.624251871716105" lon="11.185421566735943"><ele>145.0</ele><time>2026-04-26T16:19:21Z</time></trkpt><trkpt lat="43.6243742767973" lon="11.185385154621505"><ele>145.0</ele><time>2026-04-26T16:19:22Z</time></trkpt><trkpt lat="43.62449051474877" lon="11.185352338730459"><ele>145.0</ele><time>2026-04-26T16:19:23Z</time></trkpt><trkpt lat="43.62459763072105" lon="11.185292877077167"><ele>146.0</ele><time>2026-04-26T16:19:24Z</time></trkpt><trkpt lat="43.62469984482038" lon="11.185222790711919"><ele>147.0</ele><time>2026-04-26T16:19:25Z</time></trkpt><trkpt lat="43.62480969240202" lon="11.185128966032757"><ele>148.0</ele><time>2026-04-26T16:19:26Z</time></trkpt><trkpt lat="43.62489923851949" lon="11.185054070422476"><ele>149.0</ele><time>2026-04-26T16:19:27Z</time></trkpt><trkpt lat="43.624996757226846" lon="11.184955897630708"><ele>149.0</ele><time>2026-04-26T16:19:28Z</time></trkpt><trkpt lat="43.62509381416239" lon="11.184857265733662"><ele>149.0</ele><time>2026-04-26T16:19:29Z</time></trkpt><trkpt lat="43.62519463399984" lon="11.184763804258665"><ele>149.0</ele><time>2026-04-26T16:19:30Z</time></trkpt><trkpt lat="43.62530012743922" lon="11.184678199103633"><ele>149.0</ele><time>2026-04-26T16:19:31Z</time></trkpt><trkpt lat="43.62540483407559" lon="11.18458358350368"><ele>147.0</ele><time>2026-04-26T16:19:32Z</time></trkpt><trkpt lat="43.62551594732038" lon="11.184495647574138"><ele>145.0</ele><time>2026-04-26T16:19:33Z</time></trkpt><trkpt lat="43.625630110290366" lon="11.184412098761117"><ele>143.0</ele><time>2026-04-26T16:19:34Z</time></trkpt><trkpt lat="43.62574871197169" lon="11.18434198164778"><ele>141.0</ele><time>2026-04-26T16:19:35Z</time></trkpt><trkpt lat="43.62587010991134" lon="11.184281860471124"><ele>141.0</ele><time>2026-04-26T16:19:36Z</time></trkpt><trkpt lat="43.62599391005292" lon="11.184234620644363"><ele>141.0</ele><time>2026-04-26T16:19:37Z</time></trkpt><trkpt lat="43.62612372622587" lon="11.184195147070053"><ele>141.0</ele><time>2026-04-26T16:19:38Z</time></trkpt><trkpt lat="43.626253557660284" lon="11.184149869221526"><ele>141.0</ele><time>2026-04-26T16:19:39Z</time></trkpt><trkpt lat="43.62638766328296" lon="11.184113771172333"><ele>141.0</ele><time>2026-04-26T16:19:40Z</time></trkpt><trkpt lat="43.62652542649366" lon="11.184069151304806"><ele>141.0</ele><time>2026-04-26T16:19:41Z</time></trkpt><trkpt lat="43.62665726410859" lon="11.184021433642524"><ele>141.0</ele><time>2026-04-26T16:19:42Z</time></trkpt><trkpt lat="43.62679304990432" lon="11.183967249347148"><ele>141.0</ele><time>2026-04-26T16:19:43Z</time></trkpt><trkpt lat="43.6269283895734" lon="11.183920116523979"><ele>140.25</ele><time>2026-04-26T16:19:44Z</time></trkpt><trkpt lat="43.62705644084861" lon="11.183871404780524"><ele>139.5</ele><time>2026-04-26T16:19:45Z</time></trkpt><trkpt lat="43.6271869353388" lon="11.18381659277745"><ele>138.75</ele><time>2026-04-26T16:19:46Z</time></trkpt><trkpt lat="43.627318434275736" lon="11.183741249682873"><ele>138.0</ele><time>2026-04-26T16:19:47Z</time></trkpt><trkpt lat="43.62745608208027" lon="11.183670391182476"><ele>138.0</ele><time>2026-04-26T16:19:48Z</time></trkpt><trkpt lat="43.6275743230969" lon="11.183543146563407"><ele>138.0</ele><time>2026-04-26T16:19:49Z</time></trkpt><trkpt lat="43.627701021666724" lon="11.1834306355866"><ele>138.0</ele><time>2026-04-26T16:19:50Z</time></trkpt><trkpt lat="43.627825030233986" lon="11.18330089323227"><ele>136.75</ele><time>2026-04-26T16:19:51Z</time></trkpt><trkpt lat="43.62793581189901" lon="11.183168851768054"><ele>135.5</ele><time>2026-04-26T16:19:52Z</time></trkpt><trkpt lat="43.62804289527853" lon="11.183034940330826"><ele>134.25</ele><time>2026-04-26T16:19:53Z</time></trkpt><trkpt lat="43.628146748334636" lon="11.182899922371496"><ele>133.0</ele><time>2026-04-26T16:19:54Z</time></trkpt><trkpt lat="43.62823232684565" lon="11.182764399721375"><ele>133.0</ele><time>2026-04-26T16:19:55Z</time></trkpt><trkpt lat="43.62832241666151" lon="11.182632171275317"><ele>133.0</ele><time>2026-04-26T16:19:56Z</time></trkpt><trkpt lat="43.62841347108784" lon="11.182489403046361"><ele>133.0</ele><time>2026-04-26T16:19:57Z</time></trkpt><trkpt lat="43.62848806299218" lon="11.182355198473205"><ele>133.0</ele><time>2026-04-26T16:19:58Z</time></trkpt><trkpt lat="43.628601179952675" lon="11.182242245428554"><ele>132.25</ele><time>2026-04-26T16:19:59Z</time></trkpt><trkpt lat="43.628706413563854" lon="11.182141591441537"><ele>131.5</ele><time>2026-04-26T16:20:00Z</time></trkpt><trkpt lat="43.62884791074714" lon="11.18210307062405"><ele>130.75</ele><time>2026-04-26T16:20:01Z</time></trkpt><trkpt lat="43.628983511774045" lon="11.18206100557178"><ele>130.0</ele><time>2026-04-26T16:20:02Z</time></trkpt><trkpt lat="43.629120819383324" lon="11.182035337180473"><ele>130.0</ele><time>2026-04-26T16:20:03Z</time></trkpt><trkpt lat="43.6292628018119" lon="11.1820096476421"><ele>130.0</ele><time>2026-04-26T16:20:04Z</time></trkpt><trkpt lat="43.62939838518215" lon="11.18198384436184"><ele>130.0</ele><time>2026-04-26T16:20:05Z</time></trkpt><trkpt lat="43.62953252755306" lon="11.181946094858128"><ele>130.0</ele><time>2026-04-26T16:20:06Z</time></trkpt><trkpt lat="43.629655155824324" lon="11.181859585236467"><ele>129.75</ele><time>2026-04-26T16:20:07Z</time></trkpt><trkpt lat="43.62977334918146" lon="11.181774244724789"><ele>129.5</ele><time>2026-04-26T16:20:08Z</time></trkpt><trkpt lat="43.629889125668306" lon="11.18167744233863"><ele>129.25</ele><time>2026-04-26T16:20:09Z</time></trkpt><trkpt lat="43.6300040152077" lon="11.181587619647889"><ele>129.0</ele><time>2026-04-26T16:20:10Z</time></trkpt><trkpt lat="43.6301263917697" lon="11.181505337106854"><ele>129.0</ele><time>2026-04-26T16:20:11Z</time></trkpt><trkpt lat="43.63025708864772" lon="11.181458650305157"><ele>129.0</ele><time>2026-04-26T16:20:12Z</time></trkpt><trkpt lat="43.63038549739922" lon="11.181381503828426"><ele>129.0</ele><time>2026-04-26T16:20:13Z</time></trkpt><trkpt lat="43.63051967202201" lon="11.181323702596666"><ele>129.0</ele><time>2026-04-26T16:20:14Z</time></trkpt><trkpt lat="43.630653754886325" lon="11.181278842506956"><ele>128.75</ele><time>2026-04-26T16:20:15Z</time></trkpt><trkpt lat="43.63078498387321" lon="11.181234026408283"><ele>128.5</ele><time>2026-04-26T16:20:16Z</time></trkpt><trkpt lat="43.630919298760986" lon="11.181184503627096"><ele>128.25</ele><time>2026-04-26T16:20:17Z</time></trkpt><trkpt lat="43.63105657657786" lon="11.181136480771858"><ele>128.0</ele><time>2026-04-26T16:20:18Z</time></trkpt><trkpt lat="43.63118781765824" lon="11.181087978338848"><ele>128.0</ele><time>2026-04-26T16:20:19Z</time></trkpt><trkpt lat="43.631320000006404" lon="11.181032279819615"><ele>128.0</ele><time>2026-04-26T16:20:20Z</time></trkpt><trkpt lat="43.631448465299094" lon="11.180959541688027"><ele>128.0</ele><time>2026-04-26T16:20:21Z</time></trkpt><trkpt lat="43.63157635168273" lon="11.18088171115691"><ele>128.0</ele><time>2026-04-26T16:20:22Z</time></trkpt><trkpt lat="43.63170358888029" lon="11.180807543541691"><ele>128.0</ele><time>2026-04-26T16:20:23Z</time></trkpt><trkpt lat="43.631828951403484" lon="11.180724718431529"><ele>128.0</ele><time>2026-04-26T16:20:24Z</time></trkpt><trkpt lat="43.631959489945395" lon="11.180645535413857"><ele>128.0</ele><time>2026-04-26T16:20:25Z</time></trkpt><trkpt lat="43.632085289369535" lon="11.180569889567698"><ele>128.0</ele><time>2026-04-26T16:20:26Z</time></trkpt><trkpt lat="43.63221209312266" lon="11.180518302663293"><ele>128.25</ele><time>2026-04-26T16:20:27Z</time></trkpt><trkpt lat="43.632324625086774" lon="11.180460918761073"><ele>128.5</ele><time>2026-04-26T16:20:28Z</time></trkpt><trkpt lat="43.632429473794176" lon="11.180403757683694"><ele>128.75</ele><time>2026-04-26T16:20:29Z</time></trkpt><trkpt lat="43.63253560348335" lon="11.180346106341565"><ele>129.0</ele><time>2026-04-26T16:20:30Z</time></trkpt><trkpt lat="43.63263398293267" lon="11.180292665092301"><ele>129.0</ele><time>2026-04-26T16:20:31Z</time></trkpt><trkpt lat="43.63272329629793" lon="11.180244148651994"><ele>129.0</ele><time>2026-04-26T16:20:32Z</time></trkpt><trkpt lat="43.63280698251381" lon="11.180168686230104"><ele>129.0</ele><time>2026-04-26T16:20:33Z</time></trkpt><trkpt lat="43.63290316234328" lon="11.180106399817577"><ele>129.0</ele><time>2026-04-26T16:20:34Z</time></trkpt><trkpt lat="43.63300382833635" lon="11.180038566883594"><ele>129.0</ele><time>2026-04-26T16:20:35Z</time></trkpt><trkpt lat="43.63310600404137" lon="11.179965029773657"><ele>129.0</ele><time>2026-04-26T16:20:36Z</time></trkpt><trkpt lat="43.633201618359685" lon="11.17987521808776"><ele>129.0</ele><time>2026-04-26T16:20:37Z</time></trkpt><trkpt lat="43.633299035133625" lon="11.179774134369357"><ele>129.0</ele><time>2026-04-26T16:20:38Z</time></trkpt><trkpt lat="43.63338654428097" lon="11.179670207182133"><ele>129.0</ele><time>2026-04-26T16:20:39Z</time></trkpt><trkpt lat="43.633470381890554" lon="11.17957381740143"><ele>129.0</ele><time>2026-04-26T16:20:40Z</time></trkpt><trkpt lat="43.63355707342997" lon="11.179485012958533"><ele>129.0</ele><time>2026-04-26T16:20:41Z</time></trkpt><trkpt lat="43.63364022418868" lon="11.179386812848495"><ele>129.0</ele><time>2026-04-26T16:20:42Z</time></trkpt><trkpt lat="43.63371966453432" lon="11.179300888729745"><ele>129.0</ele><time>2026-04-26T16:20:43Z</time></trkpt><trkpt lat="43.63380489834708" lon="11.17922465084655"><ele>129.0</ele><time>2026-04-26T16:20:44Z</time></trkpt><trkpt lat="43.63390047499908" lon="11.179153605852445"><ele>129.0</ele><time>2026-04-26T16:20:45Z</time></trkpt><trkpt lat="43.634003316809086" lon="11.179090900401789"><ele>129.0</ele><time>2026-04-26T16:20:46Z</time></trkpt><trkpt lat="43.6341157922258" lon="11.179026743933523"><ele>129.0</ele><time>2026-04-26T16:20:47Z</time></trkpt><trkpt lat="43.63422396375524" lon="11.17895893506809"><ele>129.0</ele><time>2026-04-26T16:20:48Z</time></trkpt><trkpt lat="43.634332851770644" lon="11.178888147465663"><ele>129.0</ele><time>2026-04-26T16:20:49Z</time></trkpt><trkpt lat="43.63443885444006" lon="11.178828732562682"><ele>129.0</ele><time>2026-04-26T16:20:50Z</time></trkpt><trkpt lat="43.63454952559446" lon="11.178771824846482"><ele>129.0</ele><time>2026-04-26T16:20:51Z</time></trkpt><trkpt lat="43.63465101282813" lon="11.178729492439029"><ele>129.0</ele><time>2026-04-26T16:20:52Z</time></trkpt><trkpt lat="43.63474322775613" lon="11.17870412121509"><ele>129.0</ele><time>2026-04-26T16:20:53Z</time></trkpt><trkpt lat="43.63482730776725" lon="11.178692194477021"><ele>128.83333333333334</ele><time>2026-04-26T16:20:54Z</time></trkpt><trkpt lat="43.63490484877035" lon="11.178680630711321"><ele>128.66666666666666</ele><time>2026-04-26T16:20:55Z</time></trkpt><trkpt lat="43.63498846871016" lon="11.178682850929768"><ele>128.5</ele><time>2026-04-26T16:20:56Z</time></trkpt><trkpt lat="43.635069834398244" lon="11.178686145876387"><ele>128.33333333333331</ele><time>2026-04-26T16:20:57Z</time></trkpt><trkpt lat="43.635157413575655" lon="11.178692717803498"><ele>128.16666666666666</ele><time>2026-04-26T16:20:58Z</time></trkpt><trkpt lat="43.63524915623407" lon="11.17871388403533"><ele>128.0</ele><time>2026-04-26T16:20:59Z</time></trkpt><trkpt lat="43.635335944411075" lon="11.178726646859817"><ele>128.4</ele><time>2026-04-26T16:21:00Z</time></trkpt><trkpt lat="43.63543261552165" lon="11.178750759336396"><ele>128.8</ele><time>2026-04-26T16:21:01Z</time></trkpt><trkpt lat="43.63552466578946" lon="11.178794937551432"><ele>129.2</ele><time>2026-04-26T16:21:02Z</time></trkpt><trkpt lat="43.63559316853241" lon="11.178841232842336"><ele>129.6</ele><time>2026-04-26T16:21:03Z</time></trkpt><trkpt lat="43.63565745616134" lon="11.178863796137541"><ele>130.0</ele><time>2026-04-26T16:21:42Z</time></trkpt><trkpt lat="43.63579283414702" lon="11.178888561179445"><ele>130.0</ele><time>2026-04-26T16:21:44Z</time></trkpt><trkpt lat="43.63587156455828" lon="11.17891565594664"><ele>130.0</ele><time>2026-04-26T16:21:45Z</time></trkpt><trkpt lat="43.63594589680221" lon="11.178936833843487"><ele>130.0</ele><time>2026-04-26T16:21:46Z</time></trkpt><trkpt lat="43.63601986165754" lon="11.178949856902625"><ele>130.0</ele><time>2026-04-26T16:21:47Z</time></trkpt><trkpt lat="43.63611278529142" lon="11.178952548401108"><ele>130.0</ele><time>2026-04-26T16:21:48Z</time></trkpt><trkpt lat="43.636221427142786" lon="11.178935794320926"><ele>130.0</ele><time>2026-04-26T16:21:49Z</time></trkpt><trkpt lat="43.636335439624084" lon="11.178901324065553"><ele>131.75</ele><time>2026-04-26T16:21:50Z</time></trkpt><trkpt lat="43.63644867487853" lon="11.178847674655149"><ele>133.5</ele><time>2026-04-26T16:21:51Z</time></trkpt><trkpt lat="43.636560612511275" lon="11.17876561000277"><ele>135.25</ele><time>2026-04-26T16:21:52Z</time></trkpt><trkpt lat="43.6366722775639" lon="11.178656600705988"><ele>137.0</ele><time>2026-04-26T16:21:53Z</time></trkpt><trkpt lat="43.63678632506073" lon="11.17855248750735"><ele>137.0</ele><time>2026-04-26T16:21:54Z</time></trkpt><trkpt lat="43.63689030580197" lon="11.178438908696435"><ele>137.0</ele><time>2026-04-26T16:21:55Z</time></trkpt><trkpt lat="43.636996345062336" lon="11.178326845236906"><ele>137.0</ele><time>2026-04-26T16:21:56Z</time></trkpt><trkpt lat="43.63710193816602" lon="11.178213185739537"><ele>137.0</ele><time>2026-04-26T16:21:57Z</time></trkpt><trkpt lat="43.637201178104384" lon="11.178104494648233"><ele>138.25</ele><time>2026-04-26T16:21:58Z</time></trkpt><trkpt lat="43.637272762529534" lon="11.177984125264569"><ele>139.5</ele><time>2026-04-26T16:21:59Z</time></trkpt><trkpt lat="43.63734671235681" lon="11.1778529003473"><ele>140.75</ele><time>2026-04-26T16:22:00Z</time></trkpt><trkpt lat="43.6374134020466" lon="11.177703675097273"><ele>142.0</ele><time>2026-04-26T16:22:01Z</time></trkpt><trkpt lat="43.63747071291978" lon="11.17754376252627"><ele>142.0</ele><time>2026-04-26T16:22:02Z</time></trkpt><trkpt lat="43.6375250885928" lon="11.177372871659504"><ele>142.0</ele><time>2026-04-26T16:22:03Z</time></trkpt><trkpt lat="43.63757868690646" lon="11.177196535699956"><ele>142.0</ele><time>2026-04-26T16:22:04Z</time></trkpt><trkpt lat="43.63764093932324" lon="11.177024007062608"><ele>142.0</ele><time>2026-04-26T16:22:05Z</time></trkpt><trkpt lat="43.63771948324395" lon="11.176864075647394"><ele>142.75</ele><time>2026-04-26T16:22:06Z</time></trkpt><trkpt lat="43.637812900277" lon="11.17671489562197"><ele>143.5</ele><time>2026-04-26T16:22:07Z</time></trkpt><trkpt lat="43.637910581968754" lon="11.176585512898214"><ele>144.25</ele><time>2026-04-26T16:22:08Z</time></trkpt><trkpt lat="43.638015946797445" lon="11.176453462241174"><ele>145.0</ele><time>2026-04-26T16:22:09Z</time></trkpt><trkpt lat="43.63812433887693" lon="11.17632630665773"><ele>145.0</ele><time>2026-04-26T16:22:10Z</time></trkpt><trkpt lat="43.63823115394424" lon="11.176203157457326"><ele>145.0</ele><time>2026-04-26T16:22:11Z</time></trkpt><trkpt lat="43.638339810771704" lon="11.1760856328226"><ele>145.0</ele><time>2026-04-26T16:22:12Z</time></trkpt><trkpt lat="43.63845176771636" lon="11.175986185589233"><ele>145.0</ele><time>2026-04-26T16:22:13Z</time></trkpt><trkpt lat="43.6385684722382" lon="11.175896521844235"><ele>145.0</ele><time>2026-04-26T16:22:14Z</time></trkpt><trkpt lat="43.63868924875768" lon="11.175817457774754"><ele>145.0</ele><time>2026-04-26T16:22:15Z</time></trkpt><trkpt lat="43.638811298429566" lon="11.175742813273667"><ele>145.0</ele><time>2026-04-26T16:22:16Z</time></trkpt><trkpt lat="43.638937301063464" lon="11.175680874464511"><ele>145.0</ele><time>2026-04-26T16:22:17Z</time></trkpt><trkpt lat="43.63906627076343" lon="11.175627435738294"><ele>145.0</ele><time>2026-04-26T16:22:18Z</time></trkpt><trkpt lat="43.63919807998657" lon="11.175591460516916"><ele>145.0</ele><time>2026-04-26T16:22:19Z</time></trkpt><trkpt lat="43.639333196777535" lon="11.175596493639809"><ele>145.0</ele><time>2026-04-26T16:22:20Z</time></trkpt><trkpt lat="43.6394663348855" lon="11.175636447741818"><ele>145.0</ele><time>2026-04-26T16:22:21Z</time></trkpt><trkpt lat="43.63958862602736" lon="11.175719329062403"><ele>147.0</ele><time>2026-04-26T16:22:22Z</time></trkpt><trkpt lat="43.639702514840835" lon="11.17582654626951"><ele>149.0</ele><time>2026-04-26T16:22:23Z</time></trkpt><trkpt lat="43.639802093801855" lon="11.175958091999384"><ele>151.0</ele><time>2026-04-26T16:22:24Z</time></trkpt><trkpt lat="43.63989997805443" lon="11.176095114715192"><ele>153.0</ele><time>2026-04-26T16:22:25Z</time></trkpt><trkpt lat="43.64001054488054" lon="11.176221842452097"><ele>153.0</ele><time>2026-04-26T16:22:26Z</time></trkpt><trkpt lat="43.6401072828399" lon="11.176355867342327"><ele>153.0</ele><time>2026-04-26T16:22:27Z</time></trkpt><trkpt lat="43.6402128795745" lon="11.176490477062693"><ele>153.0</ele><time>2026-04-26T16:22:28Z</time></trkpt><trkpt lat="43.64031894323203" lon="11.176611310560386"><ele>153.0</ele><time>2026-04-26T16:22:29Z</time></trkpt><trkpt lat="43.64043396281271" lon="11.17671927498473"><ele>155.25</ele><time>2026-04-26T16:22:30Z</time></trkpt><trkpt lat="43.64055768562688" lon="11.176792738020762"><ele>157.5</ele><time>2026-04-26T16:22:31Z</time></trkpt><trkpt lat="43.64067762705876" lon="11.17680069983373"><ele>159.75</ele><time>2026-04-26T16:22:32Z</time></trkpt><trkpt lat="43.640786243359145" lon="11.17677339368489"><ele>162.0</ele><time>2026-04-26T16:22:33Z</time></trkpt><trkpt lat="43.64087526829342" lon="11.176697921674542"><ele>162.0</ele><time>2026-04-26T16:22:34Z</time></trkpt><trkpt lat="43.64093806681728" lon="11.176585321199251"><ele>162.0</ele><time>2026-04-26T16:22:35Z</time></trkpt><trkpt lat="43.64097081844938" lon="11.176431305705451"><ele>162.0</ele><time>2026-04-26T16:22:36Z</time></trkpt><trkpt lat="43.64098660573407" lon="11.176224925616719"><ele>162.0</ele><time>2026-04-26T16:22:37Z</time></trkpt><trkpt lat="43.64099409586616" lon="11.17600483801087"><ele>162.0</ele><time>2026-04-26T16:22:38Z</time></trkpt><trkpt lat="43.6409978846711" lon="11.175809295216023"><ele>162.0</ele><time>2026-04-26T16:22:39Z</time></trkpt><trkpt lat="43.64099993329006" lon="11.175622925252586"><ele>162.0</ele><time>2026-04-26T16:22:40Z</time></trkpt><trkpt lat="43.640981940680156" lon="11.17543938596961"><ele>162.0</ele><time>2026-04-26T16:22:41Z</time></trkpt><trkpt lat="43.64092699677858" lon="11.175259179286757"><ele>162.0</ele><time>2026-04-26T16:22:42Z</time></trkpt><trkpt lat="43.64084423827493" lon="11.175103687836327"><ele>162.0</ele><time>2026-04-26T16:22:43Z</time></trkpt><trkpt lat="43.640773811692696" lon="11.174942347880503"><ele>162.0</ele><time>2026-04-26T16:22:44Z</time></trkpt><trkpt lat="43.640732540823244" lon="11.174795698235538"><ele>162.0</ele><time>2026-04-26T16:22:45Z</time></trkpt><trkpt lat="43.64073424767356" lon="11.174666967562656"><ele>162.0</ele><time>2026-04-26T16:22:46Z</time></trkpt><trkpt lat="43.64076737478979" lon="11.17454233354642"><ele>162.0</ele><time>2026-04-26T16:22:47Z</time></trkpt><trkpt lat="43.64083391300629" lon="11.174434072001446"><ele>162.0</ele><time>2026-04-26T16:22:48Z</time></trkpt><trkpt lat="43.640930206741494" lon="11.174361824835996"><ele>162.0</ele><time>2026-04-26T16:22:49Z</time></trkpt><trkpt lat="43.641053107829485" lon="11.174316277094402"><ele>162.0</ele><time>2026-04-26T16:22:50Z</time></trkpt><trkpt lat="43.64118577827747" lon="11.174283467109845"><ele>162.75</ele><time>2026-04-26T16:22:51Z</time></trkpt><trkpt lat="43.641316735449685" lon="11.174242830881463"><ele>163.5</ele><time>2026-04-26T16:22:52Z</time></trkpt><trkpt lat="43.64143736689105" lon="11.174237111016243"><ele>164.25</ele><time>2026-04-26T16:22:53Z</time></trkpt><trkpt lat="43.64154655500102" lon="11.174297535667087"><ele>165.0</ele><time>2026-04-26T16:22:54Z</time></trkpt><trkpt lat="43.64164851990097" lon="11.174399351731383"><ele>165.0</ele><time>2026-04-26T16:22:55Z</time></trkpt><trkpt lat="43.641744853902665" lon="11.174551472302404"><ele>165.0</ele><time>2026-04-26T16:22:56Z</time></trkpt><trkpt lat="43.64184386674922" lon="11.174737823601545"><ele>165.0</ele><time>2026-04-26T16:22:57Z</time></trkpt><trkpt lat="43.641949821034295" lon="11.17496265194873"><ele>164.66666666666666</ele><time>2026-04-26T16:22:58Z</time></trkpt><trkpt lat="43.64206044219813" lon="11.175204324568147"><ele>164.33333333333331</ele><time>2026-04-26T16:22:59Z</time></trkpt><trkpt lat="43.64217955554097" lon="11.17545164526104"><ele>164.0</ele><time>2026-04-26T16:23:00Z</time></trkpt><trkpt lat="43.64229127455156" lon="11.175711999938514"><ele>167.66666666666666</ele><time>2026-04-26T16:23:01Z</time></trkpt><trkpt lat="43.64236951026223" lon="11.175951811276947"><ele>171.33333333333334</ele><time>2026-04-26T16:23:02Z</time></trkpt><trkpt lat="43.64242793924631" lon="11.176173458987142"><ele>175.0</ele><time>2026-04-26T16:23:03Z</time></trkpt><trkpt lat="43.64248191074705" lon="11.176408824018754"><ele>178.0</ele><time>2026-04-26T16:23:04Z</time></trkpt><trkpt lat="43.64251851285809" lon="11.176642822708839"><ele>181.0</ele><time>2026-04-26T16:23:05Z</time></trkpt><trkpt lat="43.64255764740169" lon="11.176850812595601"><ele>184.0</ele><time>2026-04-26T16:23:06Z</time></trkpt><trkpt lat="43.64262414985524" lon="11.17701489224131"><ele>184.0</ele><time>2026-04-26T16:23:07Z</time></trkpt><trkpt lat="43.64271970472357" lon="11.177176028829507"><ele>184.0</ele><time>2026-04-26T16:23:08Z</time></trkpt><trkpt lat="43.64282274556394" lon="11.177340390868716"><ele>184.0</ele><time>2026-04-26T16:23:09Z</time></trkpt><trkpt lat="43.64292709526336" lon="11.17750680064918"><ele>183.5</ele><time>2026-04-26T16:23:10Z</time></trkpt><trkpt lat="43.64303892187879" lon="11.177658921819209"><ele>183.0</ele><time>2026-04-26T16:23:11Z</time></trkpt><trkpt lat="43.64314149998572" lon="11.17780401280448"><ele>182.5</ele><time>2026-04-26T16:23:12Z</time></trkpt><trkpt lat="43.64323846982961" lon="11.177950203122576"><ele>182.0</ele><time>2026-04-26T16:23:13Z</time></trkpt><trkpt lat="43.64333018461967" lon="11.178103876936508"><ele>183.0</ele><time>2026-04-26T16:23:14Z</time></trkpt><trkpt lat="43.6434208485753" lon="11.1782558588791"><ele>184.0</ele><time>2026-04-26T16:23:15Z</time></trkpt><trkpt lat="43.64351610668218" lon="11.178408557772576"><ele>185.0</ele><time>2026-04-26T16:23:16Z</time></trkpt><trkpt lat="43.64361744377921" lon="11.178570020771396"><ele>186.0</ele><time>2026-04-26T16:23:17Z</time></trkpt><trkpt lat="43.64372446141152" lon="11.178729593240586"><ele>186.0</ele><time>2026-04-26T16:23:18Z</time></trkpt><trkpt lat="43.64383607208076" lon="11.178874520594073"><ele>186.0</ele><time>2026-04-26T16:23:19Z</time></trkpt><trkpt lat="43.643946181310966" lon="11.179020356444758"><ele>186.0</ele><time>2026-04-26T16:23:20Z</time></trkpt><trkpt lat="43.64405255997822" lon="11.179159300244072"><ele>187.75</ele><time>2026-04-26T16:23:21Z</time></trkpt><trkpt lat="43.644154199588236" lon="11.179302074422925"><ele>189.5</ele><time>2026-04-26T16:23:22Z</time></trkpt><trkpt lat="43.64425959112433" lon="11.179445147725584"><ele>191.25</ele><time>2026-04-26T16:23:23Z</time></trkpt><trkpt lat="43.64436486185931" lon="11.179591760063767"><ele>193.0</ele><time>2026-04-26T16:23:24Z</time></trkpt><trkpt lat="43.644474199044225" lon="11.179731075322794"><ele>196.66666666666666</ele><time>2026-04-26T16:23:25Z</time></trkpt><trkpt lat="43.644586504183984" lon="11.179874877228052"><ele>200.33333333333331</ele><time>2026-04-26T16:23:26Z</time></trkpt><trkpt lat="43.644703151919146" lon="11.180010015706724"><ele>204.0</ele><time>2026-04-26T16:23:27Z</time></trkpt><trkpt lat="43.64483528252741" lon="11.180120469044674"><ele>204.0</ele><time>2026-04-26T16:23:28Z</time></trkpt><trkpt lat="43.64497492091504" lon="11.180213424489121"><ele>204.0</ele><time>2026-04-26T16:23:29Z</time></trkpt><trkpt lat="43.645130847928385" lon="11.18028448285641"><ele>204.0</ele><time>2026-04-26T16:23:30Z</time></trkpt><trkpt lat="43.64528312526103" lon="11.180344900552235"><ele>202.0</ele><time>2026-04-26T16:23:31Z</time></trkpt><trkpt lat="43.64540657316203" lon="11.180391524034295"><ele>200.0</ele><time>2026-04-26T16:23:32Z</time></trkpt><trkpt lat="43.645520128861165" lon="11.180482474734672"><ele>198.0</ele><time>2026-04-26T16:23:33Z</time></trkpt><trkpt lat="43.64563457815866" lon="11.18061142079747"><ele>196.0</ele><time>2026-04-26T16:23:34Z</time></trkpt><trkpt lat="43.64575982740826" lon="11.180781640958951"><ele>198.0</ele><time>2026-04-26T16:23:35Z</time></trkpt><trkpt lat="43.64589414920474" lon="11.180969128439436"><ele>200.0</ele><time>2026-04-26T16:23:36Z</time></trkpt><trkpt lat="43.646021082029286" lon="11.181141256538499"><ele>202.0</ele><time>2026-04-26T16:23:37Z</time></trkpt><trkpt lat="43.646173913365075" lon="11.18125003745214"><ele>202.0</ele><time>2026-04-26T16:23:38Z</time></trkpt><trkpt lat="43.64630978806891" lon="11.1813793665445"><ele>202.0</ele><time>2026-04-26T16:23:39Z</time></trkpt><trkpt lat="43.64643558149896" lon="11.1815070104442"><ele>202.0</ele><time>2026-04-26T16:23:40Z</time></trkpt><trkpt lat="43.64655438972078" lon="11.18165858996205"><ele>207.66666666666666</ele><time>2026-04-26T16:23:41Z</time></trkpt><trkpt lat="43.64666535048159" lon="11.181824529130612"><ele>213.33333333333331</ele><time>2026-04-26T16:23:42Z</time></trkpt><trkpt lat="43.646772218382175" lon="11.181977380634958"><ele>219.0</ele><time>2026-04-26T16:23:43Z</time></trkpt><trkpt lat="43.64687829931198" lon="11.182122817064888"><ele>220.5</ele><time>2026-04-26T16:23:44Z</time></trkpt><trkpt lat="43.64699204839181" lon="11.18223959336993"><ele>222.0</ele><time>2026-04-26T16:23:45Z</time></trkpt><trkpt lat="43.64712841263135" lon="11.182322426741312"><ele>223.5</ele><time>2026-04-26T16:23:46Z</time></trkpt><trkpt lat="43.64727059316557" lon="11.18238600598908"><ele>225.0</ele><time>2026-04-26T16:23:47Z</time></trkpt><trkpt lat="43.64740728204423" lon="11.18244728327644"><ele>225.0</ele><time>2026-04-26T16:23:48Z</time></trkpt><trkpt lat="43.64752872144004" lon="11.182552229173467"><ele>225.0</ele><time>2026-04-26T16:23:49Z</time></trkpt><trkpt lat="43.64762974504097" lon="11.182679285881367"><ele>225.0</ele><time>2026-04-26T16:23:50Z</time></trkpt><trkpt lat="43.6477350110741" lon="11.182824739208172"><ele>225.0</ele><time>2026-04-26T16:23:51Z</time></trkpt><trkpt lat="43.647820561734704" lon="11.182989713059603"><ele>224.5</ele><time>2026-04-26T16:23:52Z</time></trkpt><trkpt lat="43.647904222273596" lon="11.183133616660959"><ele>224.0</ele><time>2026-04-26T16:23:53Z</time></trkpt><trkpt lat="43.647976683948066" lon="11.183301308891876"><ele>223.5</ele><time>2026-04-26T16:23:54Z</time></trkpt><trkpt lat="43.648078089091086" lon="11.183462456762204"><ele>223.0</ele><time>2026-04-26T16:23:55Z</time></trkpt><trkpt lat="43.648185078795436" lon="11.183605926208159"><ele>223.0</ele><time>2026-04-26T16:23:56Z</time></trkpt><trkpt lat="43.64828444333956" lon="11.183756842243962"><ele>223.0</ele><time>2026-04-26T16:23:57Z</time></trkpt><trkpt lat="43.64836792811123" lon="11.18390962595224"><ele>223.0</ele><time>2026-04-26T16:23:58Z</time></trkpt><trkpt lat="43.648442629487164" lon="11.184084219380496"><ele>223.0</ele><time>2026-04-26T16:23:59Z</time></trkpt><trkpt lat="43.64851933224527" lon="11.184250100206208"><ele>224.0</ele><time>2026-04-26T16:24:00Z</time></trkpt><trkpt lat="43.64857983884002" lon="11.184419455709461"><ele>225.0</ele><time>2026-04-26T16:24:01Z</time></trkpt><trkpt lat="43.64862967058744" lon="11.184574242444342"><ele>226.0</ele><time>2026-04-26T16:24:02Z</time></trkpt><trkpt lat="43.64866423896021" lon="11.184743095725725"><ele>227.0</ele><time>2026-04-26T16:24:03Z</time></trkpt><trkpt lat="43.64867267367237" lon="11.184916115673037"><ele>227.0</ele><time>2026-04-26T16:24:04Z</time></trkpt><trkpt lat="43.648679777809484" lon="11.185097767547655"><ele>227.0</ele><time>2026-04-26T16:24:05Z</time></trkpt><trkpt lat="43.648725642906584" lon="11.18527769466526"><ele>227.0</ele><time>2026-04-26T16:24:06Z</time></trkpt><trkpt lat="43.64879432610415" lon="11.185445717366981"><ele>227.0</ele><time>2026-04-26T16:24:07Z</time></trkpt><trkpt lat="43.648885497248074" lon="11.185616949904173"><ele>230.0</ele><time>2026-04-26T16:24:08Z</time></trkpt><trkpt lat="43.64896578931331" lon="11.185773002982257"><ele>233.0</ele><time>2026-04-26T16:24:09Z</time></trkpt><trkpt lat="43.64904004857439" lon="11.185936470149004"><ele>236.0</ele><time>2026-04-26T16:24:10Z</time></trkpt><trkpt lat="43.64908815501431" lon="11.186094525097355"><ele>239.0</ele><time>2026-04-26T16:24:11Z</time></trkpt><trkpt lat="43.64912573046712" lon="11.186249421782906"><ele>239.0</ele><time>2026-04-26T16:24:12Z</time></trkpt><trkpt lat="43.64914726053321" lon="11.186416185583822"><ele>239.0</ele><time>2026-04-26T16:24:13Z</time></trkpt><trkpt lat="43.64915727119428" lon="11.186592555217809"><ele>239.0</ele><time>2026-04-26T16:24:14Z</time></trkpt><trkpt lat="43.64915622585096" lon="11.186772551060736"><ele>239.0</ele><time>2026-04-26T16:24:15Z</time></trkpt><trkpt lat="43.64916215377239" lon="11.186957490245963"><ele>241.0</ele><time>2026-04-26T16:24:16Z</time></trkpt><trkpt lat="43.64916223338444" lon="11.18714880857285"><ele>243.0</ele><time>2026-04-26T16:24:17Z</time></trkpt><trkpt lat="43.6491628623203" lon="11.187318180968028"><ele>245.0</ele><time>2026-04-26T16:24:18Z</time></trkpt><trkpt lat="43.64918735910301" lon="11.187493183676692"><ele>247.0</ele><time>2026-04-26T16:24:19Z</time></trkpt><trkpt lat="43.649227231755084" lon="11.18767483498263"><ele>246.5</ele><time>2026-04-26T16:24:20Z</time></trkpt><trkpt lat="43.64930458895686" lon="11.187843908273909"><ele>246.0</ele><time>2026-04-26T16:24:21Z</time></trkpt><trkpt lat="43.64939947732708" lon="11.187996014116104"><ele>245.5</ele><time>2026-04-26T16:24:22Z</time></trkpt><trkpt lat="43.649496847565715" lon="11.18815120692325"><ele>245.0</ele><time>2026-04-26T16:24:23Z</time></trkpt><trkpt lat="43.64959155341972" lon="11.188291604150512"><ele>245.0</ele><time>2026-04-26T16:24:24Z</time></trkpt><trkpt lat="43.64966735287312" lon="11.188444407075162"><ele>245.0</ele><time>2026-04-26T16:24:25Z</time></trkpt><trkpt lat="43.64973693787763" lon="11.188600460194202"><ele>245.0</ele><time>2026-04-26T16:24:26Z</time></trkpt><trkpt lat="43.649807041303234" lon="11.18875581208736"><ele>245.0</ele><time>2026-04-26T16:24:27Z</time></trkpt><trkpt lat="43.64987459212838" lon="11.188920601501271"><ele>248.75</ele><time>2026-04-26T16:24:28Z</time></trkpt><trkpt lat="43.64993971197846" lon="11.189088554259582"><ele>252.5</ele><time>2026-04-26T16:24:29Z</time></trkpt><trkpt lat="43.65000575482751" lon="11.189243521623347"><ele>256.25</ele><time>2026-04-26T16:24:30Z</time></trkpt><trkpt lat="43.65007066309056" lon="11.189419241874628"><ele>260.0</ele><time>2026-04-26T16:24:31Z</time></trkpt><trkpt lat="43.650138219014295" lon="11.18958644654273"><ele>260.0</ele><time>2026-04-26T16:24:32Z</time></trkpt><trkpt lat="43.65019803318093" lon="11.18976098808458"><ele>260.0</ele><time>2026-04-26T16:24:33Z</time></trkpt><trkpt lat="43.65027123422546" lon="11.189908100358807"><ele>260.0</ele><time>2026-04-26T16:24:34Z</time></trkpt><trkpt lat="43.65031705662624" lon="11.190075203541591"><ele>260.0</ele><time>2026-04-26T16:24:35Z</time></trkpt><trkpt lat="43.65035315497908" lon="11.190255954424497"><ele>257.5</ele><time>2026-04-26T16:24:36Z</time></trkpt><trkpt lat="43.65038604876509" lon="11.190442007470349"><ele>255.0</ele><time>2026-04-26T16:24:37Z</time></trkpt><trkpt lat="43.65041620589837" lon="11.190636409572743"><ele>252.5</ele><time>2026-04-26T16:24:38Z</time></trkpt><trkpt lat="43.650445390694664" lon="11.19082258740734"><ele>250.0</ele><time>2026-04-26T16:24:39Z</time></trkpt><trkpt lat="43.650470448495525" lon="11.191000510496215"><ele>250.0</ele><time>2026-04-26T16:24:40Z</time></trkpt><trkpt lat="43.65048767954428" lon="11.191156785006969"><ele>250.0</ele><time>2026-04-26T16:24:41Z</time></trkpt><trkpt lat="43.6505383751882" lon="11.191293284568324"><ele>250.0</ele><time>2026-04-26T16:24:42Z</time></trkpt><trkpt lat="43.65059840776354" lon="11.191408879394539"><ele>250.0</ele><time>2026-04-26T16:24:43Z</time></trkpt><trkpt lat="43.65069135684857" lon="11.19150034900852"><ele>250.0</ele><time>2026-04-26T16:24:44Z</time></trkpt><trkpt lat="43.65081030870624" lon="11.191540251338587"><ele>250.0</ele><time>2026-04-26T16:24:45Z</time></trkpt><trkpt lat="43.65093380975925" lon="11.191523531292564"><ele>250.0</ele><time>2026-04-26T16:24:46Z</time></trkpt><trkpt lat="43.65104923220679" lon="11.191452834917351"><ele>250.0</ele><time>2026-04-26T16:24:47Z</time></trkpt><trkpt lat="43.65113998438035" lon="11.191341291863797"><ele>250.0</ele><time>2026-04-26T16:24:48Z</time></trkpt><trkpt lat="43.65123208177163" lon="11.191242632993221"><ele>249.75</ele><time>2026-04-26T16:24:49Z</time></trkpt><trkpt lat="43.65133272809911" lon="11.191174619501044"><ele>249.5</ele><time>2026-04-26T16:24:50Z</time></trkpt><trkpt lat="43.65145736214549" lon="11.191163264980329"><ele>249.25</ele><time>2026-04-26T16:24:51Z</time></trkpt><trkpt lat="43.65158296503881" lon="11.191207256709053"><ele>249.0</ele><time>2026-04-26T16:24:52Z</time></trkpt><trkpt lat="43.651682652421464" lon="11.191326582579828"><ele>249.0</ele><time>2026-04-26T16:24:53Z</time></trkpt><trkpt lat="43.65176749298145" lon="11.19145880358717"><ele>249.0</ele><time>2026-04-26T16:24:54Z</time></trkpt><trkpt lat="43.6518511273918" lon="11.19162369132414"><ele>249.0</ele><time>2026-04-26T16:24:55Z</time></trkpt><trkpt lat="43.65193386152889" lon="11.19177937529396"><ele>249.0</ele><time>2026-04-26T16:24:56Z</time></trkpt><trkpt lat="43.651995618638544" lon="11.191917604526777"><ele>250.25</ele><time>2026-04-26T16:24:57Z</time></trkpt><trkpt lat="43.652061400641614" lon="11.192048064286263"><ele>251.5</ele><time>2026-04-26T16:24:58Z</time></trkpt><trkpt lat="43.65212729871652" lon="11.192181818216065"><ele>252.75</ele><time>2026-04-26T16:24:59Z</time></trkpt><trkpt lat="43.65218745749423" lon="11.19231963250988"><ele>254.0</ele><time>2026-04-26T16:25:00Z</time></trkpt><trkpt lat="43.652247196457836" lon="11.19244858377336"><ele>256.8</ele><time>2026-04-26T16:25:01Z</time></trkpt><trkpt lat="43.652306103538066" lon="11.192562650554903"><ele>259.59999999999997</ele><time>2026-04-26T16:25:02Z</time></trkpt><trkpt lat="43.652367355044454" lon="11.192681821831194"><ele>262.4</ele><time>2026-04-26T16:25:03Z</time></trkpt><trkpt lat="43.65243206876467" lon="11.19280231494318"><ele>265.2</ele><time>2026-04-26T16:25:04Z</time></trkpt><trkpt lat="43.652502391168376" lon="11.192917552723905"><ele>268.0</ele><time>2026-04-26T16:25:05Z</time></trkpt><trkpt lat="43.65260231865418" lon="11.192997755823715"><ele>268.0</ele><time>2026-04-26T16:25:06Z</time></trkpt><trkpt lat="43.65271652421931" lon="11.193030576370012"><ele>268.0</ele><time>2026-04-26T16:25:07Z</time></trkpt><trkpt lat="43.65283870039864" lon="11.193030612083877"><ele>268.0</ele><time>2026-04-26T16:25:08Z</time></trkpt><trkpt lat="43.6529600025591" lon="11.192997420510933"><ele>268.0</ele><time>2026-04-26T16:25:09Z</time></trkpt><trkpt lat="43.653073910950354" lon="11.192914963959462"><ele>266.5</ele><time>2026-04-26T16:25:10Z</time></trkpt><trkpt lat="43.65316502728004" lon="11.192783919533566"><ele>265.0</ele><time>2026-04-26T16:25:11Z</time></trkpt><trkpt lat="43.653255977267136" lon="11.192649687800774"><ele>263.5</ele><time>2026-04-26T16:25:12Z</time></trkpt><trkpt lat="43.65335084301099" lon="11.192534137707353"><ele>262.0</ele><time>2026-04-26T16:25:13Z</time></trkpt><trkpt lat="43.653439490603176" lon="11.192417653053809"><ele>261.25</ele><time>2026-04-26T16:25:14Z</time></trkpt><trkpt lat="43.653522298295215" lon="11.192297609346262"><ele>260.5</ele><time>2026-04-26T16:25:15Z</time></trkpt><trkpt lat="43.65359237322893" lon="11.192174421372796"><ele>259.75</ele><time>2026-04-26T16:25:16Z</time></trkpt><trkpt lat="43.653643000425" lon="11.192034266272444"><ele>259.0</ele><time>2026-04-26T16:25:17Z</time></trkpt><trkpt lat="43.65366804141377" lon="11.191885421481786"><ele>259.0</ele><time>2026-04-26T16:25:18Z</time></trkpt><trkpt lat="43.65365661859052" lon="11.191725968350905"><ele>259.0</ele><time>2026-04-26T16:25:19Z</time></trkpt><trkpt lat="43.65361887830731" lon="11.1915705138824"><ele>259.0</ele><time>2026-04-26T16:25:20Z</time></trkpt><trkpt lat="43.65355377474921" lon="11.191413371617504"><ele>259.0</ele><time>2026-04-26T16:25:21Z</time></trkpt><trkpt lat="43.653468708677316" lon="11.191266957513248"><ele>262.25</ele><time>2026-04-26T16:25:22Z</time></trkpt><trkpt lat="43.65336592172192" lon="11.19114432949996"><ele>265.5</ele><time>2026-04-26T16:25:23Z</time></trkpt><trkpt lat="43.653267941363545" lon="11.191011610379508"><ele>268.75</ele><time>2026-04-26T16:25:24Z</time></trkpt><trkpt lat="43.65317503032191" lon="11.190877221937857"><ele>272.0</ele><time>2026-04-26T16:25:25Z</time></trkpt><trkpt lat="43.65308916563684" lon="11.19073677249485"><ele>274.25</ele><time>2026-04-26T16:25:26Z</time></trkpt><trkpt lat="43.653017638776284" lon="11.19056706049958"><ele>276.5</ele><time>2026-04-26T16:25:27Z</time></trkpt><trkpt lat="43.652974403182796" lon="11.190389020905336"><ele>278.75</ele><time>2026-04-26T16:25:28Z</time></trkpt><trkpt lat="43.65295170894558" lon="11.190207418345697"><ele>281.0</ele><time>2026-04-26T16:25:29Z</time></trkpt><trkpt lat="43.6529424298533" lon="11.190033613198562"><ele>281.0</ele><time>2026-04-26T16:25:30Z</time></trkpt><trkpt lat="43.65294746144012" lon="11.18986170137313"><ele>281.0</ele><time>2026-04-26T16:25:31Z</time></trkpt><trkpt lat="43.65295641379394" lon="11.189691076866458"><ele>281.0</ele><time>2026-04-26T16:25:32Z</time></trkpt><trkpt lat="43.652949622425815" lon="11.189521824731077"><ele>281.0</ele><time>2026-04-26T16:25:33Z</time></trkpt><trkpt lat="43.6529119144835" lon="11.189362375617062"><ele>281.75</ele><time>2026-04-26T16:25:34Z</time></trkpt><trkpt lat="43.65284691634405" lon="11.189220584668234"><ele>282.5</ele><time>2026-04-26T16:25:35Z</time></trkpt><trkpt lat="43.65275567376939" lon="11.189097443087697"><ele>283.25</ele><time>2026-04-26T16:25:36Z</time></trkpt><trkpt lat="43.65264141695599" lon="11.189016737680026"><ele>284.0</ele><time>2026-04-26T16:25:37Z</time></trkpt><trkpt lat="43.652516917069846" lon="11.188947901888035"><ele>284.0</ele><time>2026-04-26T16:25:38Z</time></trkpt><trkpt lat="43.652389721788204" lon="11.188894587347512"><ele>284.0</ele><time>2026-04-26T16:25:39Z</time></trkpt><trkpt lat="43.652280036559056" lon="11.188857664750591"><ele>284.0</ele><time>2026-04-26T16:25:40Z</time></trkpt><trkpt lat="43.652181748439" lon="11.188777676036896"><ele>284.0</ele><time>2026-04-26T16:25:41Z</time></trkpt><trkpt lat="43.652112059226575" lon="11.18864123272816"><ele>284.0</ele><time>2026-04-26T16:25:42Z</time></trkpt><trkpt lat="43.65207133137259" lon="11.188489840068323"><ele>284.0</ele><time>2026-04-26T16:25:43Z</time></trkpt><trkpt lat="43.65206888679137" lon="11.188333063760837"><ele>284.0</ele><time>2026-04-26T16:25:44Z</time></trkpt><trkpt lat="43.652092221136336" lon="11.188163829839706"><ele>284.0</ele><time>2026-04-26T16:25:45Z</time></trkpt><trkpt lat="43.65212529247525" lon="11.1879909343673"><ele>285.0</ele><time>2026-04-26T16:25:46Z</time></trkpt><trkpt lat="43.65215473327066" lon="11.187817243093182"><ele>286.0</ele><time>2026-04-26T16:25:47Z</time></trkpt><trkpt lat="43.652178600727986" lon="11.187678189679346"><ele>287.0</ele><time>2026-04-26T16:25:48Z</time></trkpt><trkpt lat="43.65220080487748" lon="11.187568482346599"><ele>288.0</ele><time>2026-04-26T16:25:49Z</time></trkpt><trkpt lat="43.652221887156486" lon="11.187444453213063"><ele>289.0</ele><time>2026-04-26T16:25:50Z</time></trkpt><trkpt lat="43.652245724602416" lon="11.187299132541659"><ele>286.59999999999997</ele><time>2026-04-26T16:25:51Z</time></trkpt><trkpt lat="43.65229546407107" lon="11.18716879720613"><ele>284.2</ele><time>2026-04-26T16:25:52Z</time></trkpt><trkpt lat="43.65237665880511" lon="11.187066632581056"><ele>281.79999999999995</ele><time>2026-04-26T16:25:53Z</time></trkpt><trkpt lat="43.652468191954895" lon="11.186992614741284"><ele>279.4</ele><time>2026-04-26T16:25:54Z</time></trkpt><trkpt lat="43.65258166938906" lon="11.187004661872686"><ele>277.0</ele><time>2026-04-26T16:25:55Z</time></trkpt><trkpt lat="43.65268368290477" lon="11.187030530582588"><ele>277.0</ele><time>2026-04-26T16:25:56Z</time></trkpt><trkpt lat="43.652784413276045" lon="11.18707966630705"><ele>277.0</ele><time>2026-04-26T16:25:57Z</time></trkpt><trkpt lat="43.6528826852365" lon="11.187131503371482"><ele>277.0</ele><time>2026-04-26T16:25:58Z</time></trkpt><trkpt lat="43.65297957774219" lon="11.187191667892334"><ele>277.0</ele><time>2026-04-26T16:25:59Z</time></trkpt><trkpt lat="43.65308589805093" lon="11.187226806967645"><ele>277.0</ele><time>2026-04-26T16:26:00Z</time></trkpt><trkpt lat="43.653192223908285" lon="11.187286567986082"><ele>277.2</ele><time>2026-04-26T16:26:01Z</time></trkpt><trkpt lat="43.6533026538687" lon="11.18732108321431"><ele>277.4</ele><time>2026-04-26T16:26:02Z</time></trkpt><trkpt lat="43.653420261007106" lon="11.187331654864478"><ele>277.6</ele><time>2026-04-26T16:26:03Z</time></trkpt><trkpt lat="43.65352484528794" lon="11.187319747248122"><ele>277.8</ele><time>2026-04-26T16:26:04Z</time></trkpt><trkpt lat="43.65363609469385" lon="11.187303027096151"><ele>278.0</ele><time>2026-04-26T16:26:05Z</time></trkpt><trkpt lat="43.65374639876794" lon="11.187268074528578"><ele>279.8</ele><time>2026-04-26T16:26:06Z</time></trkpt><trkpt lat="43.65383894442" lon="11.18720802466593"><ele>281.6</ele><time>2026-04-26T16:26:07Z</time></trkpt><trkpt lat="43.6539450937038" lon="11.1871528279529"><ele>283.4</ele><time>2026-04-26T16:26:08Z</time></trkpt><trkpt lat="43.65404862977064" lon="11.187111727687203"><ele>285.2</ele><time>2026-04-26T16:26:09Z</time></trkpt><trkpt lat="43.654140664031075" lon="11.187067203620776"><ele>287.0</ele><time>2026-04-26T16:26:10Z</time></trkpt><trkpt lat="43.65421868192941" lon="11.187026123940896"><ele>287.0</ele><time>2026-04-26T16:26:11Z</time></trkpt><trkpt lat="43.65429828593864" lon="11.187003788167871"><ele>287.0</ele><time>2026-04-26T16:26:12Z</time></trkpt><trkpt lat="43.65437537810396" lon="11.186988006421748"><ele>287.0</ele><time>2026-04-26T16:26:13Z</time></trkpt><trkpt lat="43.65444511511349" lon="11.186973776741445"><ele>287.0</ele><time>2026-04-26T16:26:14Z</time></trkpt><trkpt lat="43.65452256318848" lon="11.186967001668808"><ele>287.0</ele><time>2026-04-26T16:26:15Z</time></trkpt><trkpt lat="43.65460747976833" lon="11.186974709464144"><ele>287.0</ele><time>2026-04-26T16:26:16Z</time></trkpt><trkpt lat="43.65469692579815" lon="11.187003721567507"><ele>289.4</ele><time>2026-04-26T16:26:17Z</time></trkpt><trkpt lat="43.65478509395839" lon="11.187042857501162"><ele>291.79999999999995</ele><time>2026-04-26T16:26:18Z</time></trkpt><trkpt lat="43.65487378874079" lon="11.187088996219293"><ele>294.2</ele><time>2026-04-26T16:26:19Z</time></trkpt><trkpt lat="43.65496891231439" lon="11.187137026898034"><ele>296.59999999999997</ele><time>2026-04-26T16:26:20Z</time></trkpt><trkpt lat="43.655058354142135" lon="11.187192272261333"><ele>299.0</ele><time>2026-04-26T16:26:21Z</time></trkpt><trkpt lat="43.65513367104129" lon="11.18724748867164"><ele>299.0</ele><time>2026-04-26T16:26:22Z</time></trkpt><trkpt lat="43.65520516785204" lon="11.187298489113182"><ele>299.0</ele><time>2026-04-26T16:26:23Z</time></trkpt><trkpt lat="43.6552847061698" lon="11.187344167429792"><ele>299.0</ele><time>2026-04-26T16:26:24Z</time></trkpt><trkpt lat="43.65535284168659" lon="11.187391425645535"><ele>299.0</ele><time>2026-04-26T16:26:25Z</time></trkpt><trkpt lat="43.65541550124441" lon="11.187406389766585"><ele>299.0</ele><time>2026-04-26T16:26:26Z</time></trkpt><trkpt lat="43.655489102868486" lon="11.187442211248424"><ele>299.0</ele><time>2026-04-26T16:26:29Z</time></trkpt><trkpt lat="43.65555677201816" lon="11.187501528097771"><ele>299.6666666666667</ele><time>2026-04-26T16:26:33Z</time></trkpt><trkpt lat="43.65560457312152" lon="11.18757519353762"><ele>300.33333333333337</ele><time>2026-04-26T16:26:35Z</time></trkpt><trkpt lat="43.65571002466393" lon="11.187553486292366"><ele>301.0</ele><time>2026-04-26T16:26:38Z</time></trkpt><trkpt lat="43.65582232437173" lon="11.187484138944484"><ele>301.6666666666667</ele><time>2026-04-26T16:26:40Z</time></trkpt><trkpt lat="43.655886138011404" lon="11.187470290065763"><ele>302.3333333333333</ele><time>2026-04-26T16:26:41Z</time></trkpt><trkpt lat="43.655951460358985" lon="11.18746261586099"><ele>303.0</ele><time>2026-04-26T16:26:42Z</time></trkpt><trkpt lat="43.65601696129415" lon="11.187454188132474"><ele>303.0</ele><time>2026-04-26T16:26:43Z</time></trkpt><trkpt lat="43.656088518375164" lon="11.187459291887917"><ele>303.0</ele><time>2026-04-26T16:26:44Z</time></trkpt><trkpt lat="43.656153205150964" lon="11.187469312608311"><ele>303.0</ele><time>2026-04-26T16:26:45Z</time></trkpt><trkpt lat="43.65623148104203" lon="11.187482773403591"><ele>303.0</ele><time>2026-04-26T16:26:46Z</time></trkpt><trkpt lat="43.65631926606632" lon="11.187502064920585"><ele>303.0</ele><time>2026-04-26T16:26:47Z</time></trkpt><trkpt lat="43.656404503168005" lon="11.187527425010833"><ele>303.0</ele><time>2026-04-26T16:26:48Z</time></trkpt><trkpt lat="43.65649594124666" lon="11.1875616354633"><ele>303.6</ele><time>2026-04-26T16:26:49Z</time></trkpt><trkpt lat="43.6565886931241" lon="11.187596451320724"><ele>304.20000000000005</ele><time>2026-04-26T16:26:50Z</time></trkpt><trkpt lat="43.65668283918295" lon="11.187633628006905"><ele>304.8</ele><time>2026-04-26T16:26:51Z</time></trkpt><trkpt lat="43.656765638995545" lon="11.187674706550995"><ele>305.40000000000003</ele><time>2026-04-26T16:26:52Z</time></trkpt><trkpt lat="43.656855452499485" lon="11.187717805205555"><ele>306.0</ele><time>2026-04-26T16:26:53Z</time></trkpt><trkpt lat="43.65694881057858" lon="11.18776558404374"><ele>306.75</ele><time>2026-04-26T16:26:54Z</time></trkpt><trkpt lat="43.65704850363465" lon="11.187820126676467"><ele>307.5</ele><time>2026-04-26T16:26:55Z</time></trkpt><trkpt lat="43.65715671169582" lon="11.187865887069835"><ele>308.25</ele><time>2026-04-26T16:26:56Z</time></trkpt><trkpt lat="43.657270244773144" lon="11.187932827744284"><ele>309.0</ele><time>2026-04-26T16:26:57Z</time></trkpt><trkpt lat="43.65739556960196" lon="11.18799418013043"><ele>309.0</ele><time>2026-04-26T16:26:58Z</time></trkpt><trkpt lat="43.65751841481681" lon="11.188053654963182"><ele>309.0</ele><time>2026-04-26T16:26:59Z</time></trkpt><trkpt lat="43.65762542895064" lon="11.188110228549064"><ele>309.0</ele><time>2026-04-26T16:27:00Z</time></trkpt><trkpt lat="43.65772181359321" lon="11.188155689051424"><ele>309.0</ele><time>2026-04-26T16:27:01Z</time></trkpt><trkpt lat="43.65781916347821" lon="11.188207539285793"><ele>308.3333333333333</ele><time>2026-04-26T16:27:02Z</time></trkpt><trkpt lat="43.65791704880039" lon="11.188259634582698"><ele>307.6666666666667</ele><time>2026-04-26T16:27:03Z</time></trkpt><trkpt lat="43.658006378733106" lon="11.18830522267892"><ele>307.0</ele><time>2026-04-26T16:27:04Z</time></trkpt><trkpt lat="43.658084064601546" lon="11.188343158736044"><ele>306.33333333333337</ele><time>2026-04-26T16:27:05Z</time></trkpt><trkpt lat="43.658152616187195" lon="11.188383841352358"><ele>305.6666666666667</ele><time>2026-04-26T16:27:06Z</time></trkpt><trkpt lat="43.658204073622365" lon="11.188441689261039"><ele>305.0</ele><time>2026-04-26T16:27:07Z</time></trkpt><trkpt lat="43.658298840182084" lon="11.188548561798845"><ele>305.0</ele><time>2026-04-26T16:27:09Z</time></trkpt><trkpt lat="43.65836444784252" lon="11.188611261075666"><ele>305.0</ele><time>2026-04-26T16:27:10Z</time></trkpt><trkpt lat="43.65842888534187" lon="11.188673548953526"><ele>305.0</ele><time>2026-04-26T16:27:11Z</time></trkpt><trkpt lat="43.658486825483116" lon="11.188732337410283"><ele>305.0</ele><time>2026-04-26T16:27:12Z</time></trkpt><trkpt lat="43.65854928060627" lon="11.188787055212808"><ele>305.0</ele><time>2026-04-26T16:27:13Z</time></trkpt><trkpt lat="43.65861646303144" lon="11.188850013024561"><ele>305.0</ele><time>2026-04-26T16:27:14Z</time></trkpt><trkpt lat="43.65867546255518" lon="11.188913036201532"><ele>304.6666666666667</ele><time>2026-04-26T16:27:15Z</time></trkpt><trkpt lat="43.658742923322805" lon="11.188981485323218"><ele>304.33333333333337</ele><time>2026-04-26T16:27:16Z</time></trkpt><trkpt lat="43.65880484157799" lon="11.1890422894552"><ele>304.0</ele><time>2026-04-26T16:27:17Z</time></trkpt><trkpt lat="43.65887267913905" lon="11.18910273097194"><ele>303.6666666666667</ele><time>2026-04-26T16:27:18Z</time></trkpt><trkpt lat="43.658942670884876" lon="11.189178484596054"><ele>303.3333333333333</ele><time>2026-04-26T16:27:19Z</time></trkpt><trkpt lat="43.659015343043954" lon="11.189243009473982"><ele>303.0</ele><time>2026-04-26T16:27:20Z</time></trkpt><trkpt lat="43.659091308232675" lon="11.18930161623963"><ele>303.0</ele><time>2026-04-26T16:27:21Z</time></trkpt><trkpt lat="43.65917479839645" lon="11.189350653978442"><ele>303.0</ele><time>2026-04-26T16:27:22Z</time></trkpt><trkpt lat="43.65926157516916" lon="11.189410400147159"><ele>303.0</ele><time>2026-04-26T16:27:23Z</time></trkpt><trkpt lat="43.65935465007895" lon="11.189460899587816"><ele>303.0</ele><time>2026-04-26T16:27:24Z</time></trkpt><trkpt lat="43.659442123094" lon="11.189511106643149"><ele>303.0</ele><time>2026-04-26T16:27:25Z</time></trkpt><trkpt lat="43.659532225159744" lon="11.18957541478906"><ele>302.4</ele><time>2026-04-26T16:27:26Z</time></trkpt><trkpt lat="43.65962087133637" lon="11.189649842828624"><ele>301.8</ele><time>2026-04-26T16:27:27Z</time></trkpt><trkpt lat="43.6597105106591" lon="11.189732064991025"><ele>301.2</ele><time>2026-04-26T16:27:28Z</time></trkpt><trkpt lat="43.659809301444575" lon="11.189805836414074"><ele>300.6</ele><time>2026-04-26T16:27:29Z</time></trkpt><trkpt lat="43.65990349039995" lon="11.189886529975723"><ele>300.0</ele><time>2026-04-26T16:27:30Z</time></trkpt><trkpt lat="43.66000043910998" lon="11.189970103463795"><ele>300.0</ele><time>2026-04-26T16:27:31Z</time></trkpt><trkpt lat="43.66009481422721" lon="11.19005510415593"><ele>300.0</ele><time>2026-04-26T16:27:32Z</time></trkpt><trkpt lat="43.6601841966824" lon="11.190123792870086"><ele>300.0</ele><time>2026-04-26T16:27:33Z</time></trkpt><trkpt lat="43.6602667930237" lon="11.190194919622535"><ele>300.0</ele><time>2026-04-26T16:27:34Z</time></trkpt><trkpt lat="43.66035029586507" lon="11.190263228626215"><ele>300.0</ele><time>2026-04-26T16:27:35Z</time></trkpt><trkpt lat="43.66043706878995" lon="11.190330852663797"><ele>298.2</ele><time>2026-04-26T16:27:36Z</time></trkpt><trkpt lat="43.66052932346939" lon="11.190397981090019"><ele>296.4</ele><time>2026-04-26T16:27:37Z</time></trkpt><trkpt lat="43.660625104991176" lon="11.190455325359244"><ele>294.6</ele><time>2026-04-26T16:27:38Z</time></trkpt><trkpt lat="43.660739919067" lon="11.190499115518122"><ele>292.8</ele><time>2026-04-26T16:27:39Z</time></trkpt><trkpt lat="43.66085536519862" lon="11.190522370575634"><ele>291.0</ele><time>2026-04-26T16:27:40Z</time></trkpt><trkpt lat="43.660969875206185" lon="11.190546984019756"><ele>291.0</ele><time>2026-04-26T16:27:41Z</time></trkpt><trkpt lat="43.66108710279416" lon="11.190573797973943"><ele>291.0</ele><time>2026-04-26T16:27:42Z</time></trkpt><trkpt lat="43.66120313077016" lon="11.190604531243071"><ele>291.0</ele><time>2026-04-26T16:27:43Z</time></trkpt><trkpt lat="43.66131345037496" lon="11.190628367846598"><ele>291.0</ele><time>2026-04-26T16:27:44Z</time></trkpt><trkpt lat="43.66142471727526" lon="11.190652917274788"><ele>291.2</ele><time>2026-04-26T16:27:45Z</time></trkpt><trkpt lat="43.66152642389998" lon="11.190674317994013"><ele>291.40000000000003</ele><time>2026-04-26T16:27:46Z</time></trkpt><trkpt lat="43.66161857805292" lon="11.190707014617555"><ele>291.6</ele><time>2026-04-26T16:27:47Z</time></trkpt><trkpt lat="43.661706964272874" lon="11.190739918936682"><ele>291.8</ele><time>2026-04-26T16:27:48Z</time></trkpt><trkpt lat="43.66178059911728" lon="11.190775631513777"><ele>292.0</ele><time>2026-04-26T16:27:49Z</time></trkpt><trkpt lat="43.661878145738" lon="11.190839938847589"><ele>292.0</ele><time>2026-04-26T16:27:51Z</time></trkpt><trkpt lat="43.661944519082326" lon="11.190878216552768"><ele>292.0</ele><time>2026-04-26T16:27:53Z</time></trkpt><trkpt lat="43.66200436371734" lon="11.190917254732414"><ele>292.0</ele><time>2026-04-26T16:27:55Z</time></trkpt><trkpt lat="43.662077752367374" lon="11.190991688264145"><ele>292.0</ele><time>2026-04-26T16:27:58Z</time></trkpt><trkpt lat="43.662112049032885" lon="11.191147563780202"><ele>292.0</ele><time>2026-04-26T16:28:00Z</time></trkpt><trkpt lat="43.662133187027266" lon="11.191268536612071"><ele>292.0</ele><time>2026-04-26T16:28:02Z</time></trkpt><trkpt lat="43.66220651704717" lon="11.191360786322573"><ele>290.8333333333333</ele><time>2026-04-26T16:28:04Z</time></trkpt><trkpt lat="43.66228274134899" lon="11.191401015759206"><ele>289.66666666666663</ele><time>2026-04-26T16:28:06Z</time></trkpt><trkpt lat="43.662362506848076" lon="11.191350364449265"><ele>288.5</ele><time>2026-04-26T16:28:08Z</time></trkpt><trkpt lat="43.66240063534281" lon="11.19128086085397"><ele>287.3333333333333</ele><time>2026-04-26T16:28:09Z</time></trkpt><trkpt lat="43.662459260308246" lon="11.191239180726237"><ele>286.1666666666667</ele><time>2026-04-26T16:28:10Z</time></trkpt><trkpt lat="43.66255181828936" lon="11.191216579431616"><ele>285.0</ele><time>2026-04-26T16:28:12Z</time></trkpt><trkpt lat="43.662617943873954" lon="11.191192152060477"><ele>285.0</ele><time>2026-04-26T16:28:13Z</time></trkpt><trkpt lat="43.66268204094751" lon="11.191222864186711"><ele>285.0</ele><time>2026-04-26T16:28:14Z</time></trkpt><trkpt lat="43.662773892517926" lon="11.191265945927471"><ele>285.0</ele><time>2026-04-26T16:28:16Z</time></trkpt></trkseg></trk></gpx>